<?xml version="1.0" encoding="UTF-8" standalone="no" ?>
<gpx xmlns="http://www.topografix.com/GPX/1/1" xmlns:xsi="http://www.w3.org/2001/XMLSchema-instance" xsi:schemaLocation="http://www.topografix.com/GPX/1/1 http://www.topografix.com/GPX/1/1/gpx.xsd" version="1.1" creator="VisuGPX - https://www.visugpx.com">
  <metadata>
    <name>La Déjantée 2017</name>
    <desc><![CDATA[La Déjantée 2017 avec les Caux-Boys]]></desc>
  </metadata>
  <trk>
    <name><![CDATA[La Déjantée 2017_1]]></name>
    <trkseg>
      <trkpt lat="49.39958" lon="1.03652">
        <ele>36.131958007812</ele>
        <time>2017-04-09T06:14:27.000Z</time>
        <extensions>
          <gpxtpx:TrackPointExtension xmlns:gpxtpx="http://www.garmin.com/xmlschemas/TrackPointExtension/v1">
            <gpxtpx:hr>123</gpxtpx:hr>
          </gpxtpx:TrackPointExtension>
        </extensions>
      </trkpt>
      <trkpt lat="49.39974" lon="1.03509">
        <ele>32.896255493164</ele>
        <time>2017-04-09T06:14:34.000Z</time>
        <extensions>
          <gpxtpx:TrackPointExtension xmlns:gpxtpx="http://www.garmin.com/xmlschemas/TrackPointExtension/v1">
            <gpxtpx:hr>112</gpxtpx:hr>
          </gpxtpx:TrackPointExtension>
        </extensions>
      </trkpt>
      <trkpt lat="49.39976" lon="1.03493">
        <ele>31.608575820923</ele>
        <time>2017-04-09T06:14:36.000Z</time>
        <extensions>
          <gpxtpx:TrackPointExtension xmlns:gpxtpx="http://www.garmin.com/xmlschemas/TrackPointExtension/v1">
            <gpxtpx:hr>154</gpxtpx:hr>
          </gpxtpx:TrackPointExtension>
        </extensions>
      </trkpt>
      <trkpt lat="49.39977" lon="1.03476">
        <ele>30.844913482666</ele>
        <time>2017-04-09T06:14:38.000Z</time>
        <extensions>
          <gpxtpx:TrackPointExtension xmlns:gpxtpx="http://www.garmin.com/xmlschemas/TrackPointExtension/v1">
            <gpxtpx:hr>124</gpxtpx:hr>
          </gpxtpx:TrackPointExtension>
        </extensions>
      </trkpt>
      <trkpt lat="49.39977" lon="1.03455">
        <ele>30.258890151978</ele>
        <time>2017-04-09T06:14:40.000Z</time>
        <extensions>
          <gpxtpx:TrackPointExtension xmlns:gpxtpx="http://www.garmin.com/xmlschemas/TrackPointExtension/v1">
            <gpxtpx:hr>121</gpxtpx:hr>
          </gpxtpx:TrackPointExtension>
        </extensions>
      </trkpt>
      <trkpt lat="49.39969" lon="1.03421">
        <ele>28.382915496826</ele>
        <time>2017-04-09T06:14:43.000Z</time>
      </trkpt>
      <trkpt lat="49.39963" lon="1.03395">
        <ele>27.644939422607</ele>
        <time>2017-04-09T06:14:45.000Z</time>
      </trkpt>
      <trkpt lat="49.39956" lon="1.03372">
        <ele>26.930965423584</ele>
        <time>2017-04-09T06:14:47.000Z</time>
      </trkpt>
      <trkpt lat="49.39944" lon="1.03343">
        <ele>26.253253936768</ele>
        <time>2017-04-09T06:14:50.000Z</time>
      </trkpt>
      <trkpt lat="49.39935" lon="1.03312">
        <ele>25.580381393433</ele>
        <time>2017-04-09T06:14:53.000Z</time>
      </trkpt>
      <trkpt lat="49.39931" lon="1.03291">
        <ele>25.020351409912</ele>
        <time>2017-04-09T06:14:55.000Z</time>
      </trkpt>
      <trkpt lat="49.39923" lon="1.03258">
        <ele>24.438665390015</ele>
        <time>2017-04-09T06:14:58.000Z</time>
      </trkpt>
      <trkpt lat="49.39915" lon="1.03224">
        <ele>23.844249725342</ele>
        <time>2017-04-09T06:15:01.000Z</time>
      </trkpt>
      <trkpt lat="49.39907" lon="1.03196">
        <ele>23.272472381592</ele>
        <time>2017-04-09T06:15:04.000Z</time>
        <extensions>
          <gpxtpx:TrackPointExtension xmlns:gpxtpx="http://www.garmin.com/xmlschemas/TrackPointExtension/v1">
            <gpxtpx:hr>123</gpxtpx:hr>
          </gpxtpx:TrackPointExtension>
        </extensions>
      </trkpt>
      <trkpt lat="49.39897" lon="1.03162">
        <ele>22.869922637939</ele>
        <time>2017-04-09T06:15:07.000Z</time>
        <extensions>
          <gpxtpx:TrackPointExtension xmlns:gpxtpx="http://www.garmin.com/xmlschemas/TrackPointExtension/v1">
            <gpxtpx:hr>126</gpxtpx:hr>
          </gpxtpx:TrackPointExtension>
        </extensions>
      </trkpt>
      <trkpt lat="49.39895" lon="1.03145">
        <ele>22.694444656372</ele>
        <time>2017-04-09T06:15:09.000Z</time>
        <extensions>
          <gpxtpx:TrackPointExtension xmlns:gpxtpx="http://www.garmin.com/xmlschemas/TrackPointExtension/v1">
            <gpxtpx:hr>134</gpxtpx:hr>
          </gpxtpx:TrackPointExtension>
        </extensions>
      </trkpt>
      <trkpt lat="49.3989" lon="1.03126">
        <ele>22.834543228149</ele>
        <time>2017-04-09T06:15:11.000Z</time>
      </trkpt>
      <trkpt lat="49.39876" lon="1.0311">
        <ele>23.2613697052</ele>
        <time>2017-04-09T06:15:14.000Z</time>
        <extensions>
          <gpxtpx:TrackPointExtension xmlns:gpxtpx="http://www.garmin.com/xmlschemas/TrackPointExtension/v1">
            <gpxtpx:hr>119</gpxtpx:hr>
          </gpxtpx:TrackPointExtension>
        </extensions>
      </trkpt>
      <trkpt lat="49.39867" lon="1.03103">
        <ele>23.812175750732</ele>
        <time>2017-04-09T06:15:16.000Z</time>
        <extensions>
          <gpxtpx:TrackPointExtension xmlns:gpxtpx="http://www.garmin.com/xmlschemas/TrackPointExtension/v1">
            <gpxtpx:hr>139</gpxtpx:hr>
          </gpxtpx:TrackPointExtension>
        </extensions>
      </trkpt>
      <trkpt lat="49.39856" lon="1.03102">
        <ele>24.392133712769</ele>
        <time>2017-04-09T06:15:18.000Z</time>
        <extensions>
          <gpxtpx:TrackPointExtension xmlns:gpxtpx="http://www.garmin.com/xmlschemas/TrackPointExtension/v1">
            <gpxtpx:hr>143</gpxtpx:hr>
          </gpxtpx:TrackPointExtension>
        </extensions>
      </trkpt>
      <trkpt lat="49.39846" lon="1.03105">
        <ele>24.937953948975</ele>
        <time>2017-04-09T06:15:20.000Z</time>
      </trkpt>
      <trkpt lat="49.39831" lon="1.03112">
        <ele>25.459747314453</ele>
        <time>2017-04-09T06:15:23.000Z</time>
      </trkpt>
      <trkpt lat="49.39815" lon="1.03122">
        <ele>25.869665145874</ele>
        <time>2017-04-09T06:15:26.000Z</time>
      </trkpt>
      <trkpt lat="49.39806" lon="1.03123">
        <ele>26.218807220459</ele>
        <time>2017-04-09T06:15:28.000Z</time>
      </trkpt>
      <trkpt lat="49.39796" lon="1.03127">
        <ele>26.527435302734</ele>
        <time>2017-04-09T06:15:30.000Z</time>
      </trkpt>
      <trkpt lat="49.39784" lon="1.03132">
        <ele>26.801940917969</ele>
        <time>2017-04-09T06:15:32.000Z</time>
      </trkpt>
      <trkpt lat="49.39767" lon="1.03142">
        <ele>27.027587890625</ele>
        <time>2017-04-09T06:15:35.000Z</time>
      </trkpt>
      <trkpt lat="49.39749" lon="1.03148">
        <ele>27.247509002686</ele>
        <time>2017-04-09T06:15:38.000Z</time>
      </trkpt>
      <trkpt lat="49.39737" lon="1.03151">
        <ele>27.441940307617</ele>
        <time>2017-04-09T06:15:40.000Z</time>
      </trkpt>
      <trkpt lat="49.39722" lon="1.03154">
        <ele>27.605434417725</ele>
        <time>2017-04-09T06:15:42.000Z</time>
      </trkpt>
      <trkpt lat="49.39711" lon="1.03149">
        <ele>27.706573486328</ele>
        <time>2017-04-09T06:15:44.000Z</time>
      </trkpt>
      <trkpt lat="49.39692" lon="1.0314">
        <ele>27.697027206421</ele>
        <time>2017-04-09T06:15:47.000Z</time>
      </trkpt>
      <trkpt lat="49.39682" lon="1.03128">
        <ele>27.575201034546</ele>
        <time>2017-04-09T06:15:50.000Z</time>
      </trkpt>
      <trkpt lat="49.39676" lon="1.03124">
        <ele>27.425228118896</ele>
        <time>2017-04-09T06:15:53.000Z</time>
      </trkpt>
      <trkpt lat="49.39673" lon="1.03121">
        <ele>27.254459381104</ele>
        <time>2017-04-09T06:15:55.000Z</time>
      </trkpt>
      <trkpt lat="49.3967" lon="1.03122">
        <ele>27.106063842773</ele>
        <time>2017-04-09T06:15:58.000Z</time>
      </trkpt>
      <trkpt lat="49.39668" lon="1.03121">
        <ele>26.998104095459</ele>
        <time>2017-04-09T06:16:00.000Z</time>
        <extensions>
          <gpxtpx:TrackPointExtension xmlns:gpxtpx="http://www.garmin.com/xmlschemas/TrackPointExtension/v1">
            <gpxtpx:hr>142</gpxtpx:hr>
          </gpxtpx:TrackPointExtension>
        </extensions>
      </trkpt>
      <trkpt lat="49.39666" lon="1.03121">
        <ele>26.949234008789</ele>
        <time>2017-04-09T06:16:02.000Z</time>
        <extensions>
          <gpxtpx:TrackPointExtension xmlns:gpxtpx="http://www.garmin.com/xmlschemas/TrackPointExtension/v1">
            <gpxtpx:hr>141</gpxtpx:hr>
          </gpxtpx:TrackPointExtension>
        </extensions>
      </trkpt>
      <trkpt lat="49.39664" lon="1.03122">
        <ele>26.938528060913</ele>
        <time>2017-04-09T06:16:05.000Z</time>
        <extensions>
          <gpxtpx:TrackPointExtension xmlns:gpxtpx="http://www.garmin.com/xmlschemas/TrackPointExtension/v1">
            <gpxtpx:hr>148</gpxtpx:hr>
          </gpxtpx:TrackPointExtension>
        </extensions>
      </trkpt>
      <trkpt lat="49.39662" lon="1.03122">
        <ele>26.954263687134</ele>
        <time>2017-04-09T06:16:07.000Z</time>
        <extensions>
          <gpxtpx:TrackPointExtension xmlns:gpxtpx="http://www.garmin.com/xmlschemas/TrackPointExtension/v1">
            <gpxtpx:hr>126</gpxtpx:hr>
          </gpxtpx:TrackPointExtension>
        </extensions>
      </trkpt>
      <trkpt lat="49.3966" lon="1.03132">
        <ele>27.016784667969</ele>
        <time>2017-04-09T06:16:10.000Z</time>
        <extensions>
          <gpxtpx:TrackPointExtension xmlns:gpxtpx="http://www.garmin.com/xmlschemas/TrackPointExtension/v1">
            <gpxtpx:hr>88</gpxtpx:hr>
          </gpxtpx:TrackPointExtension>
        </extensions>
      </trkpt>
      <trkpt lat="49.39658" lon="1.03136">
        <ele>27.10293006897</ele>
        <time>2017-04-09T06:16:12.000Z</time>
        <extensions>
          <gpxtpx:TrackPointExtension xmlns:gpxtpx="http://www.garmin.com/xmlschemas/TrackPointExtension/v1">
            <gpxtpx:hr>161</gpxtpx:hr>
          </gpxtpx:TrackPointExtension>
        </extensions>
      </trkpt>
      <trkpt lat="49.39655" lon="1.03137">
        <ele>27.197149276733</ele>
        <time>2017-04-09T06:16:14.000Z</time>
        <extensions>
          <gpxtpx:TrackPointExtension xmlns:gpxtpx="http://www.garmin.com/xmlschemas/TrackPointExtension/v1">
            <gpxtpx:hr>125</gpxtpx:hr>
          </gpxtpx:TrackPointExtension>
        </extensions>
      </trkpt>
      <trkpt lat="49.3965" lon="1.03142">
        <ele>27.3020362854</ele>
        <time>2017-04-09T06:16:17.000Z</time>
        <extensions>
          <gpxtpx:TrackPointExtension xmlns:gpxtpx="http://www.garmin.com/xmlschemas/TrackPointExtension/v1">
            <gpxtpx:hr>101</gpxtpx:hr>
          </gpxtpx:TrackPointExtension>
        </extensions>
      </trkpt>
      <trkpt lat="49.39647" lon="1.0315">
        <ele>27.417928695679</ele>
        <time>2017-04-09T06:16:20.000Z</time>
      </trkpt>
      <trkpt lat="49.39644" lon="1.03156">
        <ele>27.497394561768</ele>
        <time>2017-04-09T06:16:22.000Z</time>
      </trkpt>
      <trkpt lat="49.39641" lon="1.03161">
        <ele>27.561382293701</ele>
        <time>2017-04-09T06:16:24.000Z</time>
      </trkpt>
      <trkpt lat="49.39637" lon="1.03168">
        <ele>27.615640640259</ele>
        <time>2017-04-09T06:16:27.000Z</time>
      </trkpt>
      <trkpt lat="49.39634" lon="1.03174">
        <ele>27.653839111328</ele>
        <time>2017-04-09T06:16:30.000Z</time>
      </trkpt>
      <trkpt lat="49.39631" lon="1.03178">
        <ele>27.674249649048</ele>
        <time>2017-04-09T06:16:33.000Z</time>
      </trkpt>
      <trkpt lat="49.39629" lon="1.03179">
        <ele>27.685272216797</ele>
        <time>2017-04-09T06:16:40.000Z</time>
      </trkpt>
      <trkpt lat="49.39625" lon="1.03188">
        <ele>27.70295715332</ele>
        <time>2017-04-09T06:16:43.000Z</time>
      </trkpt>
      <trkpt lat="49.39621" lon="1.03194">
        <ele>27.7255859375</ele>
        <time>2017-04-09T06:16:45.000Z</time>
      </trkpt>
      <trkpt lat="49.39616" lon="1.03205">
        <ele>27.756256103516</ele>
        <time>2017-04-09T06:16:48.000Z</time>
      </trkpt>
      <trkpt lat="49.39613" lon="1.03211">
        <ele>27.792587280273</ele>
        <time>2017-04-09T06:16:50.000Z</time>
      </trkpt>
      <trkpt lat="49.39608" lon="1.03221">
        <ele>27.839859008789</ele>
        <time>2017-04-09T06:16:53.000Z</time>
      </trkpt>
      <trkpt lat="49.39602" lon="1.03232">
        <ele>27.891189575195</ele>
        <time>2017-04-09T06:16:56.000Z</time>
      </trkpt>
      <trkpt lat="49.39597" lon="1.03238">
        <ele>27.939544677734</ele>
        <time>2017-04-09T06:16:58.000Z</time>
      </trkpt>
      <trkpt lat="49.3959" lon="1.03246">
        <ele>27.976760864258</ele>
        <time>2017-04-09T06:17:01.000Z</time>
        <extensions>
          <gpxtpx:TrackPointExtension xmlns:gpxtpx="http://www.garmin.com/xmlschemas/TrackPointExtension/v1">
            <gpxtpx:hr>153</gpxtpx:hr>
          </gpxtpx:TrackPointExtension>
        </extensions>
      </trkpt>
      <trkpt lat="49.39583" lon="1.03254">
        <ele>28.030126571655</ele>
        <time>2017-04-09T06:17:04.000Z</time>
        <extensions>
          <gpxtpx:TrackPointExtension xmlns:gpxtpx="http://www.garmin.com/xmlschemas/TrackPointExtension/v1">
            <gpxtpx:hr>116</gpxtpx:hr>
          </gpxtpx:TrackPointExtension>
        </extensions>
      </trkpt>
      <trkpt lat="49.39579" lon="1.0326">
        <ele>28.172632217407</ele>
        <time>2017-04-09T06:17:06.000Z</time>
        <extensions>
          <gpxtpx:TrackPointExtension xmlns:gpxtpx="http://www.garmin.com/xmlschemas/TrackPointExtension/v1">
            <gpxtpx:hr>137</gpxtpx:hr>
          </gpxtpx:TrackPointExtension>
        </extensions>
      </trkpt>
      <trkpt lat="49.39576" lon="1.03266">
        <ele>28.398803710938</ele>
        <time>2017-04-09T06:17:08.000Z</time>
        <extensions>
          <gpxtpx:TrackPointExtension xmlns:gpxtpx="http://www.garmin.com/xmlschemas/TrackPointExtension/v1">
            <gpxtpx:hr>107</gpxtpx:hr>
          </gpxtpx:TrackPointExtension>
        </extensions>
      </trkpt>
      <trkpt lat="49.3957" lon="1.03275">
        <ele>28.769207000732</ele>
        <time>2017-04-09T06:17:11.000Z</time>
      </trkpt>
      <trkpt lat="49.39567" lon="1.03281">
        <ele>29.24036026001</ele>
        <time>2017-04-09T06:17:13.000Z</time>
        <extensions>
          <gpxtpx:TrackPointExtension xmlns:gpxtpx="http://www.garmin.com/xmlschemas/TrackPointExtension/v1">
            <gpxtpx:hr>143</gpxtpx:hr>
          </gpxtpx:TrackPointExtension>
        </extensions>
      </trkpt>
      <trkpt lat="49.39561" lon="1.03291">
        <ele>29.860473632812</ele>
        <time>2017-04-09T06:17:16.000Z</time>
        <extensions>
          <gpxtpx:TrackPointExtension xmlns:gpxtpx="http://www.garmin.com/xmlschemas/TrackPointExtension/v1">
            <gpxtpx:hr>126</gpxtpx:hr>
          </gpxtpx:TrackPointExtension>
        </extensions>
      </trkpt>
      <trkpt lat="49.39555" lon="1.03301">
        <ele>30.547973632812</ele>
        <time>2017-04-09T06:17:19.000Z</time>
      </trkpt>
      <trkpt lat="49.39549" lon="1.0331">
        <ele>31.307735443115</ele>
        <time>2017-04-09T06:17:22.000Z</time>
      </trkpt>
      <trkpt lat="49.39542" lon="1.03319">
        <ele>32.109115600586</ele>
        <time>2017-04-09T06:17:25.000Z</time>
      </trkpt>
      <trkpt lat="49.39536" lon="1.03329">
        <ele>32.998470306396</ele>
        <time>2017-04-09T06:17:28.000Z</time>
      </trkpt>
      <trkpt lat="49.39531" lon="1.03335">
        <ele>33.827194213867</ele>
        <time>2017-04-09T06:17:30.000Z</time>
      </trkpt>
      <trkpt lat="49.39524" lon="1.03346">
        <ele>34.632171630859</ele>
        <time>2017-04-09T06:17:33.000Z</time>
      </trkpt>
      <trkpt lat="49.39519" lon="1.03353">
        <ele>35.356666564941</ele>
        <time>2017-04-09T06:17:35.000Z</time>
      </trkpt>
      <trkpt lat="49.39512" lon="1.03364">
        <ele>36.015712738037</ele>
        <time>2017-04-09T06:17:38.000Z</time>
      </trkpt>
      <trkpt lat="49.39507" lon="1.03372">
        <ele>36.557506561279</ele>
        <time>2017-04-09T06:17:40.000Z</time>
      </trkpt>
      <trkpt lat="49.39502" lon="1.0338">
        <ele>37.053092956543</ele>
        <time>2017-04-09T06:17:42.000Z</time>
      </trkpt>
      <trkpt lat="49.39497" lon="1.03387">
        <ele>37.429420471191</ele>
        <time>2017-04-09T06:17:44.000Z</time>
      </trkpt>
      <trkpt lat="49.39491" lon="1.03397">
        <ele>37.723819732666</ele>
        <time>2017-04-09T06:17:47.000Z</time>
      </trkpt>
      <trkpt lat="49.39485" lon="1.03405">
        <ele>37.909282684326</ele>
        <time>2017-04-09T06:17:49.000Z</time>
      </trkpt>
      <trkpt lat="49.39478" lon="1.03416">
        <ele>38.052459716797</ele>
        <time>2017-04-09T06:17:52.000Z</time>
      </trkpt>
      <trkpt lat="49.39474" lon="1.03425">
        <ele>38.151943206787</ele>
        <time>2017-04-09T06:17:54.000Z</time>
      </trkpt>
      <trkpt lat="49.39466" lon="1.03435">
        <ele>38.27033996582</ele>
        <time>2017-04-09T06:17:57.000Z</time>
      </trkpt>
      <trkpt lat="49.39462" lon="1.03443">
        <ele>38.41255569458</ele>
        <time>2017-04-09T06:17:59.000Z</time>
      </trkpt>
      <trkpt lat="49.39455" lon="1.03455">
        <ele>38.598236083984</ele>
        <time>2017-04-09T06:18:02.000Z</time>
        <extensions>
          <gpxtpx:TrackPointExtension xmlns:gpxtpx="http://www.garmin.com/xmlschemas/TrackPointExtension/v1">
            <gpxtpx:hr>149</gpxtpx:hr>
          </gpxtpx:TrackPointExtension>
        </extensions>
      </trkpt>
      <trkpt lat="49.3945" lon="1.03462">
        <ele>38.796669006348</ele>
        <time>2017-04-09T06:18:04.000Z</time>
        <extensions>
          <gpxtpx:TrackPointExtension xmlns:gpxtpx="http://www.garmin.com/xmlschemas/TrackPointExtension/v1">
            <gpxtpx:hr>135</gpxtpx:hr>
          </gpxtpx:TrackPointExtension>
        </extensions>
      </trkpt>
      <trkpt lat="49.39445" lon="1.0347">
        <ele>39.024723052979</ele>
        <time>2017-04-09T06:18:06.000Z</time>
        <extensions>
          <gpxtpx:TrackPointExtension xmlns:gpxtpx="http://www.garmin.com/xmlschemas/TrackPointExtension/v1">
            <gpxtpx:hr>119</gpxtpx:hr>
          </gpxtpx:TrackPointExtension>
        </extensions>
      </trkpt>
      <trkpt lat="49.39438" lon="1.0348">
        <ele>39.283672332764</ele>
        <time>2017-04-09T06:18:09.000Z</time>
        <extensions>
          <gpxtpx:TrackPointExtension xmlns:gpxtpx="http://www.garmin.com/xmlschemas/TrackPointExtension/v1">
            <gpxtpx:hr>106</gpxtpx:hr>
          </gpxtpx:TrackPointExtension>
        </extensions>
      </trkpt>
      <trkpt lat="49.39433" lon="1.03487">
        <ele>39.573188781738</ele>
        <time>2017-04-09T06:18:11.000Z</time>
        <extensions>
          <gpxtpx:TrackPointExtension xmlns:gpxtpx="http://www.garmin.com/xmlschemas/TrackPointExtension/v1">
            <gpxtpx:hr>108</gpxtpx:hr>
          </gpxtpx:TrackPointExtension>
        </extensions>
      </trkpt>
      <trkpt lat="49.39426" lon="1.03499">
        <ele>39.900684356689</ele>
        <time>2017-04-09T06:18:14.000Z</time>
        <extensions>
          <gpxtpx:TrackPointExtension xmlns:gpxtpx="http://www.garmin.com/xmlschemas/TrackPointExtension/v1">
            <gpxtpx:hr>98</gpxtpx:hr>
          </gpxtpx:TrackPointExtension>
        </extensions>
      </trkpt>
      <trkpt lat="49.39418" lon="1.03511">
        <ele>40.243522644043</ele>
        <time>2017-04-09T06:18:17.000Z</time>
        <extensions>
          <gpxtpx:TrackPointExtension xmlns:gpxtpx="http://www.garmin.com/xmlschemas/TrackPointExtension/v1">
            <gpxtpx:hr>88</gpxtpx:hr>
          </gpxtpx:TrackPointExtension>
        </extensions>
      </trkpt>
      <trkpt lat="49.3941" lon="1.03523">
        <ele>40.549095153809</ele>
        <time>2017-04-09T06:18:20.000Z</time>
      </trkpt>
      <trkpt lat="49.39404" lon="1.03535">
        <ele>40.797645568848</ele>
        <time>2017-04-09T06:18:23.000Z</time>
      </trkpt>
      <trkpt lat="49.39397" lon="1.03547">
        <ele>41.012771606445</ele>
        <time>2017-04-09T06:18:26.000Z</time>
      </trkpt>
      <trkpt lat="49.39392" lon="1.03555">
        <ele>41.157817840576</ele>
        <time>2017-04-09T06:18:28.000Z</time>
      </trkpt>
      <trkpt lat="49.39385" lon="1.03569">
        <ele>41.291553497314</ele>
        <time>2017-04-09T06:18:31.000Z</time>
      </trkpt>
      <trkpt lat="49.39378" lon="1.03582">
        <ele>41.465896606445</ele>
        <time>2017-04-09T06:18:34.000Z</time>
      </trkpt>
      <trkpt lat="49.39374" lon="1.0359">
        <ele>41.678108215332</ele>
        <time>2017-04-09T06:18:36.000Z</time>
      </trkpt>
      <trkpt lat="49.39367" lon="1.03602">
        <ele>41.953468322754</ele>
        <time>2017-04-09T06:18:39.000Z</time>
      </trkpt>
      <trkpt lat="49.39363" lon="1.03609">
        <ele>42.259231567383</ele>
        <time>2017-04-09T06:18:41.000Z</time>
      </trkpt>
      <trkpt lat="49.39359" lon="1.03617">
        <ele>42.573154449463</ele>
        <time>2017-04-09T06:18:43.000Z</time>
      </trkpt>
      <trkpt lat="49.39352" lon="1.03628">
        <ele>42.915618896484</ele>
        <time>2017-04-09T06:18:46.000Z</time>
      </trkpt>
      <trkpt lat="49.39347" lon="1.03635">
        <ele>43.264617919922</ele>
        <time>2017-04-09T06:18:48.000Z</time>
      </trkpt>
      <trkpt lat="49.39339" lon="1.03648">
        <ele>43.616088867188</ele>
        <time>2017-04-09T06:18:51.000Z</time>
      </trkpt>
      <trkpt lat="49.39334" lon="1.03656">
        <ele>43.974945068359</ele>
        <time>2017-04-09T06:18:53.000Z</time>
      </trkpt>
      <trkpt lat="49.39327" lon="1.03669">
        <ele>44.305297851562</ele>
        <time>2017-04-09T06:18:56.000Z</time>
      </trkpt>
      <trkpt lat="49.39322" lon="1.03677">
        <ele>44.536499023438</ele>
        <time>2017-04-09T06:18:58.000Z</time>
      </trkpt>
      <trkpt lat="49.39315" lon="1.03689">
        <ele>44.699573516846</ele>
        <time>2017-04-09T06:19:01.000Z</time>
        <extensions>
          <gpxtpx:TrackPointExtension xmlns:gpxtpx="http://www.garmin.com/xmlschemas/TrackPointExtension/v1">
            <gpxtpx:hr>90</gpxtpx:hr>
          </gpxtpx:TrackPointExtension>
        </extensions>
      </trkpt>
      <trkpt lat="49.3931" lon="1.03699">
        <ele>44.773120880127</ele>
        <time>2017-04-09T06:19:03.000Z</time>
        <extensions>
          <gpxtpx:TrackPointExtension xmlns:gpxtpx="http://www.garmin.com/xmlschemas/TrackPointExtension/v1">
            <gpxtpx:hr>110</gpxtpx:hr>
          </gpxtpx:TrackPointExtension>
        </extensions>
      </trkpt>
      <trkpt lat="49.39302" lon="1.03712">
        <ele>44.802326202393</ele>
        <time>2017-04-09T06:19:06.000Z</time>
        <extensions>
          <gpxtpx:TrackPointExtension xmlns:gpxtpx="http://www.garmin.com/xmlschemas/TrackPointExtension/v1">
            <gpxtpx:hr>81</gpxtpx:hr>
          </gpxtpx:TrackPointExtension>
        </extensions>
      </trkpt>
      <trkpt lat="49.39297" lon="1.0372">
        <ele>44.825942993164</ele>
        <time>2017-04-09T06:19:08.000Z</time>
        <extensions>
          <gpxtpx:TrackPointExtension xmlns:gpxtpx="http://www.garmin.com/xmlschemas/TrackPointExtension/v1">
            <gpxtpx:hr>58</gpxtpx:hr>
          </gpxtpx:TrackPointExtension>
        </extensions>
      </trkpt>
      <trkpt lat="49.39288" lon="1.03736">
        <ele>44.921455383301</ele>
        <time>2017-04-09T06:19:11.000Z</time>
        <extensions>
          <gpxtpx:TrackPointExtension xmlns:gpxtpx="http://www.garmin.com/xmlschemas/TrackPointExtension/v1">
            <gpxtpx:hr>123</gpxtpx:hr>
          </gpxtpx:TrackPointExtension>
        </extensions>
      </trkpt>
      <trkpt lat="49.3928" lon="1.03754">
        <ele>45.13077545166</ele>
        <time>2017-04-09T06:19:14.000Z</time>
        <extensions>
          <gpxtpx:TrackPointExtension xmlns:gpxtpx="http://www.garmin.com/xmlschemas/TrackPointExtension/v1">
            <gpxtpx:hr>124</gpxtpx:hr>
          </gpxtpx:TrackPointExtension>
        </extensions>
      </trkpt>
      <trkpt lat="49.39271" lon="1.03772">
        <ele>45.519832611084</ele>
        <time>2017-04-09T06:19:17.000Z</time>
        <extensions>
          <gpxtpx:TrackPointExtension xmlns:gpxtpx="http://www.garmin.com/xmlschemas/TrackPointExtension/v1">
            <gpxtpx:hr>120</gpxtpx:hr>
          </gpxtpx:TrackPointExtension>
        </extensions>
      </trkpt>
      <trkpt lat="49.39265" lon="1.03782">
        <ele>46.007080078125</ele>
        <time>2017-04-09T06:19:19.000Z</time>
      </trkpt>
      <trkpt lat="49.39259" lon="1.03795">
        <ele>46.609046936035</ele>
        <time>2017-04-09T06:19:21.000Z</time>
      </trkpt>
      <trkpt lat="49.39252" lon="1.03806">
        <ele>47.286640167236</ele>
        <time>2017-04-09T06:19:23.000Z</time>
      </trkpt>
      <trkpt lat="49.39246" lon="1.03815">
        <ele>47.953979492188</ele>
        <time>2017-04-09T06:19:25.000Z</time>
      </trkpt>
      <trkpt lat="49.39238" lon="1.03828">
        <ele>48.588737487793</ele>
        <time>2017-04-09T06:19:28.000Z</time>
      </trkpt>
      <trkpt lat="49.39229" lon="1.03843">
        <ele>49.207107543945</ele>
        <time>2017-04-09T06:19:31.000Z</time>
      </trkpt>
      <trkpt lat="49.39224" lon="1.03854">
        <ele>49.737663269043</ele>
        <time>2017-04-09T06:19:33.000Z</time>
      </trkpt>
      <trkpt lat="49.39219" lon="1.03864">
        <ele>50.184509277344</ele>
        <time>2017-04-09T06:19:35.000Z</time>
      </trkpt>
      <trkpt lat="49.39214" lon="1.03874">
        <ele>50.584098815918</ele>
        <time>2017-04-09T06:19:37.000Z</time>
      </trkpt>
      <trkpt lat="49.39206" lon="1.03889">
        <ele>50.918281555176</ele>
        <time>2017-04-09T06:19:40.000Z</time>
      </trkpt>
      <trkpt lat="49.39198" lon="1.03905">
        <ele>51.246620178223</ele>
        <time>2017-04-09T06:19:43.000Z</time>
      </trkpt>
      <trkpt lat="49.3919" lon="1.0392">
        <ele>51.608390808105</ele>
        <time>2017-04-09T06:19:46.000Z</time>
      </trkpt>
      <trkpt lat="49.39185" lon="1.03929">
        <ele>51.939861297607</ele>
        <time>2017-04-09T06:19:48.000Z</time>
      </trkpt>
      <trkpt lat="49.39179" lon="1.03939">
        <ele>52.247535705566</ele>
        <time>2017-04-09T06:19:50.000Z</time>
      </trkpt>
      <trkpt lat="49.39171" lon="1.03954">
        <ele>52.509502410889</ele>
        <time>2017-04-09T06:19:53.000Z</time>
      </trkpt>
      <trkpt lat="49.39163" lon="1.0397">
        <ele>52.726238250732</ele>
        <time>2017-04-09T06:19:56.000Z</time>
      </trkpt>
      <trkpt lat="49.39155" lon="1.03985">
        <ele>52.935768127441</ele>
        <time>2017-04-09T06:19:59.000Z</time>
      </trkpt>
      <trkpt lat="49.3915" lon="1.03995">
        <ele>53.180683135986</ele>
        <time>2017-04-09T06:20:01.000Z</time>
      </trkpt>
      <trkpt lat="49.39145" lon="1.04004">
        <ele>53.483837127686</ele>
        <time>2017-04-09T06:20:03.000Z</time>
        <extensions>
          <gpxtpx:TrackPointExtension xmlns:gpxtpx="http://www.garmin.com/xmlschemas/TrackPointExtension/v1">
            <gpxtpx:hr>108</gpxtpx:hr>
          </gpxtpx:TrackPointExtension>
        </extensions>
      </trkpt>
      <trkpt lat="49.39137" lon="1.04017">
        <ele>53.921527862549</ele>
        <time>2017-04-09T06:20:06.000Z</time>
        <extensions>
          <gpxtpx:TrackPointExtension xmlns:gpxtpx="http://www.garmin.com/xmlschemas/TrackPointExtension/v1">
            <gpxtpx:hr>110</gpxtpx:hr>
          </gpxtpx:TrackPointExtension>
        </extensions>
      </trkpt>
      <trkpt lat="49.39128" lon="1.04029">
        <ele>54.475109100342</ele>
        <time>2017-04-09T06:20:09.000Z</time>
        <extensions>
          <gpxtpx:TrackPointExtension xmlns:gpxtpx="http://www.garmin.com/xmlschemas/TrackPointExtension/v1">
            <gpxtpx:hr>116</gpxtpx:hr>
          </gpxtpx:TrackPointExtension>
        </extensions>
      </trkpt>
      <trkpt lat="49.39123" lon="1.04037">
        <ele>55.0625</ele>
        <time>2017-04-09T06:20:11.000Z</time>
        <extensions>
          <gpxtpx:TrackPointExtension xmlns:gpxtpx="http://www.garmin.com/xmlschemas/TrackPointExtension/v1">
            <gpxtpx:hr>128</gpxtpx:hr>
          </gpxtpx:TrackPointExtension>
        </extensions>
      </trkpt>
      <trkpt lat="49.39117" lon="1.04046">
        <ele>55.713123321533</ele>
        <time>2017-04-09T06:20:13.000Z</time>
        <extensions>
          <gpxtpx:TrackPointExtension xmlns:gpxtpx="http://www.garmin.com/xmlschemas/TrackPointExtension/v1">
            <gpxtpx:hr>127</gpxtpx:hr>
          </gpxtpx:TrackPointExtension>
        </extensions>
      </trkpt>
      <trkpt lat="49.39109" lon="1.04059">
        <ele>56.456268310547</ele>
        <time>2017-04-09T06:20:16.000Z</time>
      </trkpt>
      <trkpt lat="49.39101" lon="1.04072">
        <ele>57.186573028564</ele>
        <time>2017-04-09T06:20:19.000Z</time>
      </trkpt>
      <trkpt lat="49.39096" lon="1.0408">
        <ele>57.860363006592</ele>
        <time>2017-04-09T06:20:21.000Z</time>
      </trkpt>
      <trkpt lat="49.39091" lon="1.04088">
        <ele>58.485374450684</ele>
        <time>2017-04-09T06:20:23.000Z</time>
      </trkpt>
      <trkpt lat="49.39082" lon="1.04101">
        <ele>58.999237060547</ele>
        <time>2017-04-09T06:20:26.000Z</time>
      </trkpt>
      <trkpt lat="49.39076" lon="1.04109">
        <ele>59.301971435547</ele>
        <time>2017-04-09T06:20:28.000Z</time>
      </trkpt>
      <trkpt lat="49.39067" lon="1.04121">
        <ele>59.409873962402</ele>
        <time>2017-04-09T06:20:31.000Z</time>
      </trkpt>
      <trkpt lat="49.39062" lon="1.0413">
        <ele>59.399433135986</ele>
        <time>2017-04-09T06:20:33.000Z</time>
      </trkpt>
      <trkpt lat="49.39053" lon="1.04144">
        <ele>59.336688995361</ele>
        <time>2017-04-09T06:20:36.000Z</time>
      </trkpt>
      <trkpt lat="49.39044" lon="1.04158">
        <ele>59.30415725708</ele>
        <time>2017-04-09T06:20:39.000Z</time>
      </trkpt>
      <trkpt lat="49.39035" lon="1.04172">
        <ele>59.38321685791</ele>
        <time>2017-04-09T06:20:42.000Z</time>
      </trkpt>
      <trkpt lat="49.39029" lon="1.04182">
        <ele>59.564674377441</ele>
        <time>2017-04-09T06:20:44.000Z</time>
      </trkpt>
      <trkpt lat="49.39019" lon="1.04197">
        <ele>59.85765838623</ele>
        <time>2017-04-09T06:20:47.000Z</time>
      </trkpt>
      <trkpt lat="49.39012" lon="1.0421">
        <ele>60.230792999268</ele>
        <time>2017-04-09T06:20:50.000Z</time>
      </trkpt>
      <trkpt lat="49.39004" lon="1.04224">
        <ele>60.653186798096</ele>
        <time>2017-04-09T06:20:53.000Z</time>
      </trkpt>
      <trkpt lat="49.38995" lon="1.04239">
        <ele>61.100799560547</ele>
        <time>2017-04-09T06:20:56.000Z</time>
      </trkpt>
      <trkpt lat="49.38987" lon="1.04254">
        <ele>61.552124023438</ele>
        <time>2017-04-09T06:20:59.000Z</time>
      </trkpt>
      <trkpt lat="49.3898" lon="1.04262">
        <ele>61.910377502441</ele>
        <time>2017-04-09T06:21:01.000Z</time>
        <extensions>
          <gpxtpx:TrackPointExtension xmlns:gpxtpx="http://www.garmin.com/xmlschemas/TrackPointExtension/v1">
            <gpxtpx:hr>96</gpxtpx:hr>
          </gpxtpx:TrackPointExtension>
        </extensions>
      </trkpt>
      <trkpt lat="49.38973" lon="1.04266">
        <ele>62.217842102051</ele>
        <time>2017-04-09T06:21:03.000Z</time>
        <extensions>
          <gpxtpx:TrackPointExtension xmlns:gpxtpx="http://www.garmin.com/xmlschemas/TrackPointExtension/v1">
            <gpxtpx:hr>86</gpxtpx:hr>
          </gpxtpx:TrackPointExtension>
        </extensions>
      </trkpt>
      <trkpt lat="49.38962" lon="1.04273">
        <ele>62.497596740723</ele>
        <time>2017-04-09T06:21:06.000Z</time>
        <extensions>
          <gpxtpx:TrackPointExtension xmlns:gpxtpx="http://www.garmin.com/xmlschemas/TrackPointExtension/v1">
            <gpxtpx:hr>97</gpxtpx:hr>
          </gpxtpx:TrackPointExtension>
        </extensions>
      </trkpt>
      <trkpt lat="49.38953" lon="1.04275">
        <ele>62.738243103027</ele>
        <time>2017-04-09T06:21:08.000Z</time>
        <extensions>
          <gpxtpx:TrackPointExtension xmlns:gpxtpx="http://www.garmin.com/xmlschemas/TrackPointExtension/v1">
            <gpxtpx:hr>113</gpxtpx:hr>
          </gpxtpx:TrackPointExtension>
        </extensions>
      </trkpt>
      <trkpt lat="49.38944" lon="1.04278">
        <ele>62.972114562988</ele>
        <time>2017-04-09T06:21:10.000Z</time>
        <extensions>
          <gpxtpx:TrackPointExtension xmlns:gpxtpx="http://www.garmin.com/xmlschemas/TrackPointExtension/v1">
            <gpxtpx:hr>119</gpxtpx:hr>
          </gpxtpx:TrackPointExtension>
        </extensions>
      </trkpt>
      <trkpt lat="49.38932" lon="1.04287">
        <ele>63.264152526855</ele>
        <time>2017-04-09T06:21:13.000Z</time>
        <extensions>
          <gpxtpx:TrackPointExtension xmlns:gpxtpx="http://www.garmin.com/xmlschemas/TrackPointExtension/v1">
            <gpxtpx:hr>60</gpxtpx:hr>
          </gpxtpx:TrackPointExtension>
        </extensions>
      </trkpt>
      <trkpt lat="49.38924" lon="1.04289">
        <ele>63.583667755127</ele>
        <time>2017-04-09T06:21:15.000Z</time>
        <extensions>
          <gpxtpx:TrackPointExtension xmlns:gpxtpx="http://www.garmin.com/xmlschemas/TrackPointExtension/v1">
            <gpxtpx:hr>56</gpxtpx:hr>
          </gpxtpx:TrackPointExtension>
        </extensions>
      </trkpt>
      <trkpt lat="49.38907" lon="1.04286">
        <ele>63.957080841064</ele>
        <time>2017-04-09T06:21:18.000Z</time>
        <extensions>
          <gpxtpx:TrackPointExtension xmlns:gpxtpx="http://www.garmin.com/xmlschemas/TrackPointExtension/v1">
            <gpxtpx:hr>59</gpxtpx:hr>
          </gpxtpx:TrackPointExtension>
        </extensions>
      </trkpt>
      <trkpt lat="49.3889" lon="1.04275">
        <ele>64.376907348633</ele>
        <time>2017-04-09T06:21:21.000Z</time>
      </trkpt>
      <trkpt lat="49.38877" lon="1.04269">
        <ele>64.805267333984</ele>
        <time>2017-04-09T06:21:23.000Z</time>
      </trkpt>
      <trkpt lat="49.38866" lon="1.04263">
        <ele>65.236122131348</ele>
        <time>2017-04-09T06:21:25.000Z</time>
      </trkpt>
      <trkpt lat="49.38855" lon="1.04258">
        <ele>65.665977478027</ele>
        <time>2017-04-09T06:21:27.000Z</time>
      </trkpt>
      <trkpt lat="49.38837" lon="1.04251">
        <ele>66.088363647461</ele>
        <time>2017-04-09T06:21:30.000Z</time>
      </trkpt>
      <trkpt lat="49.38821" lon="1.04238">
        <ele>66.559669494629</ele>
        <time>2017-04-09T06:21:33.000Z</time>
      </trkpt>
      <trkpt lat="49.38808" lon="1.04225">
        <ele>67.097564697266</ele>
        <time>2017-04-09T06:21:36.000Z</time>
      </trkpt>
      <trkpt lat="49.38791" lon="1.04215">
        <ele>67.71183013916</ele>
        <time>2017-04-09T06:21:39.000Z</time>
      </trkpt>
      <trkpt lat="49.38782" lon="1.04208">
        <ele>68.341209411621</ele>
        <time>2017-04-09T06:21:41.000Z</time>
      </trkpt>
      <trkpt lat="49.38773" lon="1.04198">
        <ele>68.953063964844</ele>
        <time>2017-04-09T06:21:43.000Z</time>
      </trkpt>
      <trkpt lat="49.38758" lon="1.0419">
        <ele>69.512107849121</ele>
        <time>2017-04-09T06:21:46.000Z</time>
      </trkpt>
      <trkpt lat="49.38752" lon="1.04181">
        <ele>69.984527587891</ele>
        <time>2017-04-09T06:21:48.000Z</time>
      </trkpt>
      <trkpt lat="49.38741" lon="1.04177">
        <ele>70.288597106934</ele>
        <time>2017-04-09T06:21:50.000Z</time>
      </trkpt>
      <trkpt lat="49.38724" lon="1.04173">
        <ele>70.435775756836</ele>
        <time>2017-04-09T06:21:53.000Z</time>
      </trkpt>
      <trkpt lat="49.38718" lon="1.04178">
        <ele>70.452774047852</ele>
        <time>2017-04-09T06:21:55.000Z</time>
      </trkpt>
      <trkpt lat="49.38716" lon="1.04197">
        <ele>70.286926269531</ele>
        <time>2017-04-09T06:21:58.000Z</time>
      </trkpt>
      <trkpt lat="49.38708" lon="1.04219">
        <ele>69.938835144043</ele>
        <time>2017-04-09T06:22:01.000Z</time>
        <extensions>
          <gpxtpx:TrackPointExtension xmlns:gpxtpx="http://www.garmin.com/xmlschemas/TrackPointExtension/v1">
            <gpxtpx:hr>84</gpxtpx:hr>
          </gpxtpx:TrackPointExtension>
        </extensions>
      </trkpt>
      <trkpt lat="49.38693" lon="1.04234">
        <ele>69.461654663086</ele>
        <time>2017-04-09T06:22:04.000Z</time>
        <extensions>
          <gpxtpx:TrackPointExtension xmlns:gpxtpx="http://www.garmin.com/xmlschemas/TrackPointExtension/v1">
            <gpxtpx:hr>81</gpxtpx:hr>
          </gpxtpx:TrackPointExtension>
        </extensions>
      </trkpt>
      <trkpt lat="49.38681" lon="1.04262">
        <ele>68.902473449707</ele>
        <time>2017-04-09T06:22:07.000Z</time>
        <extensions>
          <gpxtpx:TrackPointExtension xmlns:gpxtpx="http://www.garmin.com/xmlschemas/TrackPointExtension/v1">
            <gpxtpx:hr>137</gpxtpx:hr>
          </gpxtpx:TrackPointExtension>
        </extensions>
      </trkpt>
      <trkpt lat="49.3868" lon="1.04293">
        <ele>68.354545593262</ele>
        <time>2017-04-09T06:22:10.000Z</time>
        <extensions>
          <gpxtpx:TrackPointExtension xmlns:gpxtpx="http://www.garmin.com/xmlschemas/TrackPointExtension/v1">
            <gpxtpx:hr>110</gpxtpx:hr>
          </gpxtpx:TrackPointExtension>
        </extensions>
      </trkpt>
      <trkpt lat="49.38676" lon="1.04328">
        <ele>67.846397399902</ele>
        <time>2017-04-09T06:22:13.000Z</time>
        <extensions>
          <gpxtpx:TrackPointExtension xmlns:gpxtpx="http://www.garmin.com/xmlschemas/TrackPointExtension/v1">
            <gpxtpx:hr>138</gpxtpx:hr>
          </gpxtpx:TrackPointExtension>
        </extensions>
      </trkpt>
      <trkpt lat="49.38677" lon="1.04359">
        <ele>67.396263122559</ele>
        <time>2017-04-09T06:22:16.000Z</time>
        <extensions>
          <gpxtpx:TrackPointExtension xmlns:gpxtpx="http://www.garmin.com/xmlschemas/TrackPointExtension/v1">
            <gpxtpx:hr>141</gpxtpx:hr>
          </gpxtpx:TrackPointExtension>
        </extensions>
      </trkpt>
      <trkpt lat="49.38675" lon="1.04393">
        <ele>67.004829406738</ele>
        <time>2017-04-09T06:22:19.000Z</time>
        <extensions>
          <gpxtpx:TrackPointExtension xmlns:gpxtpx="http://www.garmin.com/xmlschemas/TrackPointExtension/v1">
            <gpxtpx:hr>144</gpxtpx:hr>
          </gpxtpx:TrackPointExtension>
        </extensions>
      </trkpt>
      <trkpt lat="49.38675" lon="1.04425">
        <ele>66.70384979248</ele>
        <time>2017-04-09T06:22:22.000Z</time>
        <extensions>
          <gpxtpx:TrackPointExtension xmlns:gpxtpx="http://www.garmin.com/xmlschemas/TrackPointExtension/v1">
            <gpxtpx:hr>147</gpxtpx:hr>
          </gpxtpx:TrackPointExtension>
        </extensions>
      </trkpt>
      <trkpt lat="49.38671" lon="1.04439">
        <ele>66.431480407715</ele>
        <time>2017-04-09T06:22:24.000Z</time>
        <extensions>
          <gpxtpx:TrackPointExtension xmlns:gpxtpx="http://www.garmin.com/xmlschemas/TrackPointExtension/v1">
            <gpxtpx:hr>149</gpxtpx:hr>
          </gpxtpx:TrackPointExtension>
        </extensions>
      </trkpt>
      <trkpt lat="49.38665" lon="1.04446">
        <ele>66.195449829102</ele>
        <time>2017-04-09T06:22:26.000Z</time>
      </trkpt>
      <trkpt lat="49.38662" lon="1.04462">
        <ele>66.02271270752</ele>
        <time>2017-04-09T06:22:28.000Z</time>
      </trkpt>
      <trkpt lat="49.38655" lon="1.04476">
        <ele>65.935791015625</ele>
        <time>2017-04-09T06:22:30.000Z</time>
      </trkpt>
      <trkpt lat="49.38655" lon="1.045">
        <ele>65.942680358887</ele>
        <time>2017-04-09T06:22:33.000Z</time>
      </trkpt>
      <trkpt lat="49.38662" lon="1.04515">
        <ele>66.030868530273</ele>
        <time>2017-04-09T06:22:35.000Z</time>
      </trkpt>
      <trkpt lat="49.3867" lon="1.04533">
        <ele>66.1572265625</ele>
        <time>2017-04-09T06:22:38.000Z</time>
      </trkpt>
      <trkpt lat="49.38671" lon="1.04549">
        <ele>66.340629577637</ele>
        <time>2017-04-09T06:22:41.000Z</time>
      </trkpt>
      <trkpt lat="49.38674" lon="1.04561">
        <ele>66.542495727539</ele>
        <time>2017-04-09T06:22:44.000Z</time>
      </trkpt>
      <trkpt lat="49.38672" lon="1.04572">
        <ele>66.78742980957</ele>
        <time>2017-04-09T06:22:47.000Z</time>
      </trkpt>
      <trkpt lat="49.38667" lon="1.04576">
        <ele>67.069450378418</ele>
        <time>2017-04-09T06:22:50.000Z</time>
      </trkpt>
      <trkpt lat="49.38662" lon="1.04578">
        <ele>67.361915588379</ele>
        <time>2017-04-09T06:22:52.000Z</time>
      </trkpt>
      <trkpt lat="49.38657" lon="1.04582">
        <ele>67.660118103027</ele>
        <time>2017-04-09T06:22:55.000Z</time>
      </trkpt>
      <trkpt lat="49.3865" lon="1.04581">
        <ele>67.989471435547</ele>
        <time>2017-04-09T06:22:58.000Z</time>
      </trkpt>
      <trkpt lat="49.38641" lon="1.04577">
        <ele>68.285766601562</ele>
        <time>2017-04-09T06:23:01.000Z</time>
        <extensions>
          <gpxtpx:TrackPointExtension xmlns:gpxtpx="http://www.garmin.com/xmlschemas/TrackPointExtension/v1">
            <gpxtpx:hr>150</gpxtpx:hr>
          </gpxtpx:TrackPointExtension>
        </extensions>
      </trkpt>
      <trkpt lat="49.38636" lon="1.04579">
        <ele>68.508407592773</ele>
        <time>2017-04-09T06:23:03.000Z</time>
        <extensions>
          <gpxtpx:TrackPointExtension xmlns:gpxtpx="http://www.garmin.com/xmlschemas/TrackPointExtension/v1">
            <gpxtpx:hr>151</gpxtpx:hr>
          </gpxtpx:TrackPointExtension>
        </extensions>
      </trkpt>
      <trkpt lat="49.38632" lon="1.04583">
        <ele>68.745483398438</ele>
        <time>2017-04-09T06:23:05.000Z</time>
        <extensions>
          <gpxtpx:TrackPointExtension xmlns:gpxtpx="http://www.garmin.com/xmlschemas/TrackPointExtension/v1">
            <gpxtpx:hr>152</gpxtpx:hr>
          </gpxtpx:TrackPointExtension>
        </extensions>
      </trkpt>
      <trkpt lat="49.38625" lon="1.04587">
        <ele>68.972206115723</ele>
        <time>2017-04-09T06:23:07.000Z</time>
        <extensions>
          <gpxtpx:TrackPointExtension xmlns:gpxtpx="http://www.garmin.com/xmlschemas/TrackPointExtension/v1">
            <gpxtpx:hr>154</gpxtpx:hr>
          </gpxtpx:TrackPointExtension>
        </extensions>
      </trkpt>
      <trkpt lat="49.38615" lon="1.04592">
        <ele>69.234176635742</ele>
        <time>2017-04-09T06:23:10.000Z</time>
      </trkpt>
      <trkpt lat="49.3861" lon="1.04595">
        <ele>69.504112243652</ele>
        <time>2017-04-09T06:23:12.000Z</time>
        <extensions>
          <gpxtpx:TrackPointExtension xmlns:gpxtpx="http://www.garmin.com/xmlschemas/TrackPointExtension/v1">
            <gpxtpx:hr>153</gpxtpx:hr>
          </gpxtpx:TrackPointExtension>
        </extensions>
      </trkpt>
      <trkpt lat="49.38605" lon="1.046">
        <ele>69.775207519531</ele>
        <time>2017-04-09T06:23:14.000Z</time>
        <extensions>
          <gpxtpx:TrackPointExtension xmlns:gpxtpx="http://www.garmin.com/xmlschemas/TrackPointExtension/v1">
            <gpxtpx:hr>152</gpxtpx:hr>
          </gpxtpx:TrackPointExtension>
        </extensions>
      </trkpt>
      <trkpt lat="49.38598" lon="1.04607">
        <ele>70.052314758301</ele>
        <time>2017-04-09T06:23:17.000Z</time>
        <extensions>
          <gpxtpx:TrackPointExtension xmlns:gpxtpx="http://www.garmin.com/xmlschemas/TrackPointExtension/v1">
            <gpxtpx:hr>152</gpxtpx:hr>
          </gpxtpx:TrackPointExtension>
        </extensions>
      </trkpt>
      <trkpt lat="49.38593" lon="1.04614">
        <ele>70.338455200195</ele>
        <time>2017-04-09T06:23:19.000Z</time>
      </trkpt>
      <trkpt lat="49.38585" lon="1.04623">
        <ele>70.644004821777</ele>
        <time>2017-04-09T06:23:22.000Z</time>
      </trkpt>
      <trkpt lat="49.38581" lon="1.04629">
        <ele>70.953651428223</ele>
        <time>2017-04-09T06:23:24.000Z</time>
      </trkpt>
      <trkpt lat="49.38569" lon="1.04637">
        <ele>71.307426452637</ele>
        <time>2017-04-09T06:23:27.000Z</time>
      </trkpt>
      <trkpt lat="49.38562" lon="1.0464">
        <ele>71.640892028809</ele>
        <time>2017-04-09T06:23:29.000Z</time>
      </trkpt>
      <trkpt lat="49.38552" lon="1.04638">
        <ele>71.971542358398</ele>
        <time>2017-04-09T06:23:32.000Z</time>
      </trkpt>
      <trkpt lat="49.38541" lon="1.04633">
        <ele>72.260437011719</ele>
        <time>2017-04-09T06:23:35.000Z</time>
      </trkpt>
      <trkpt lat="49.38535" lon="1.04628">
        <ele>72.535903930664</ele>
        <time>2017-04-09T06:23:37.000Z</time>
      </trkpt>
      <trkpt lat="49.38526" lon="1.0462">
        <ele>72.76887512207</ele>
        <time>2017-04-09T06:23:40.000Z</time>
      </trkpt>
      <trkpt lat="49.38519" lon="1.04614">
        <ele>72.990646362305</ele>
        <time>2017-04-09T06:23:42.000Z</time>
      </trkpt>
      <trkpt lat="49.38513" lon="1.0461">
        <ele>73.199569702148</ele>
        <time>2017-04-09T06:23:44.000Z</time>
      </trkpt>
      <trkpt lat="49.38502" lon="1.04605">
        <ele>73.420852661133</ele>
        <time>2017-04-09T06:23:47.000Z</time>
      </trkpt>
      <trkpt lat="49.38497" lon="1.04603">
        <ele>73.638336181641</ele>
        <time>2017-04-09T06:23:49.000Z</time>
      </trkpt>
      <trkpt lat="49.38488" lon="1.04606">
        <ele>73.854568481445</ele>
        <time>2017-04-09T06:23:52.000Z</time>
      </trkpt>
      <trkpt lat="49.38483" lon="1.04615">
        <ele>74.057373046875</ele>
        <time>2017-04-09T06:23:54.000Z</time>
      </trkpt>
      <trkpt lat="49.3848" lon="1.04625">
        <ele>74.236312866211</ele>
        <time>2017-04-09T06:23:56.000Z</time>
      </trkpt>
      <trkpt lat="49.38476" lon="1.04638">
        <ele>74.365234375</ele>
        <time>2017-04-09T06:23:59.000Z</time>
      </trkpt>
      <trkpt lat="49.38473" lon="1.04651">
        <ele>74.48046875</ele>
        <time>2017-04-09T06:24:02.000Z</time>
        <extensions>
          <gpxtpx:TrackPointExtension xmlns:gpxtpx="http://www.garmin.com/xmlschemas/TrackPointExtension/v1">
            <gpxtpx:hr>154</gpxtpx:hr>
          </gpxtpx:TrackPointExtension>
        </extensions>
      </trkpt>
      <trkpt lat="49.38469" lon="1.04659">
        <ele>74.5703125</ele>
        <time>2017-04-09T06:24:04.000Z</time>
        <extensions>
          <gpxtpx:TrackPointExtension xmlns:gpxtpx="http://www.garmin.com/xmlschemas/TrackPointExtension/v1">
            <gpxtpx:hr>152</gpxtpx:hr>
          </gpxtpx:TrackPointExtension>
        </extensions>
      </trkpt>
      <trkpt lat="49.38465" lon="1.0466">
        <ele>74.658203125</ele>
        <time>2017-04-09T06:24:06.000Z</time>
        <extensions>
          <gpxtpx:TrackPointExtension xmlns:gpxtpx="http://www.garmin.com/xmlschemas/TrackPointExtension/v1">
            <gpxtpx:hr>150</gpxtpx:hr>
          </gpxtpx:TrackPointExtension>
        </extensions>
      </trkpt>
      <trkpt lat="49.38459" lon="1.04657">
        <ele>74.7578125</ele>
        <time>2017-04-09T06:24:08.000Z</time>
        <extensions>
          <gpxtpx:TrackPointExtension xmlns:gpxtpx="http://www.garmin.com/xmlschemas/TrackPointExtension/v1">
            <gpxtpx:hr>149</gpxtpx:hr>
          </gpxtpx:TrackPointExtension>
        </extensions>
      </trkpt>
      <trkpt lat="49.38452" lon="1.04648">
        <ele>74.875</ele>
        <time>2017-04-09T06:24:11.000Z</time>
        <extensions>
          <gpxtpx:TrackPointExtension xmlns:gpxtpx="http://www.garmin.com/xmlschemas/TrackPointExtension/v1">
            <gpxtpx:hr>146</gpxtpx:hr>
          </gpxtpx:TrackPointExtension>
        </extensions>
      </trkpt>
      <trkpt lat="49.38445" lon="1.04636">
        <ele>75.01171875</ele>
        <time>2017-04-09T06:24:14.000Z</time>
        <extensions>
          <gpxtpx:TrackPointExtension xmlns:gpxtpx="http://www.garmin.com/xmlschemas/TrackPointExtension/v1">
            <gpxtpx:hr>147</gpxtpx:hr>
          </gpxtpx:TrackPointExtension>
        </extensions>
      </trkpt>
      <trkpt lat="49.38438" lon="1.04622">
        <ele>75.16015625</ele>
        <time>2017-04-09T06:24:17.000Z</time>
        <extensions>
          <gpxtpx:TrackPointExtension xmlns:gpxtpx="http://www.garmin.com/xmlschemas/TrackPointExtension/v1">
            <gpxtpx:hr>145</gpxtpx:hr>
          </gpxtpx:TrackPointExtension>
        </extensions>
      </trkpt>
      <trkpt lat="49.38433" lon="1.04615">
        <ele>75.310546875</ele>
        <time>2017-04-09T06:24:19.000Z</time>
      </trkpt>
      <trkpt lat="49.38422" lon="1.04606">
        <ele>75.486328125</ele>
        <time>2017-04-09T06:24:22.000Z</time>
      </trkpt>
      <trkpt lat="49.38411" lon="1.04601">
        <ele>75.631790161133</ele>
        <time>2017-04-09T06:24:25.000Z</time>
      </trkpt>
      <trkpt lat="49.38404" lon="1.04597">
        <ele>75.713150024414</ele>
        <time>2017-04-09T06:24:27.000Z</time>
      </trkpt>
      <trkpt lat="49.38395" lon="1.04595">
        <ele>75.727973937988</ele>
        <time>2017-04-09T06:24:29.000Z</time>
      </trkpt>
      <trkpt lat="49.38384" lon="1.0459">
        <ele>75.665870666504</ele>
        <time>2017-04-09T06:24:32.000Z</time>
      </trkpt>
      <trkpt lat="49.38375" lon="1.0458">
        <ele>75.485206604004</ele>
        <time>2017-04-09T06:24:35.000Z</time>
      </trkpt>
      <trkpt lat="49.38365" lon="1.04577">
        <ele>75.236045837402</ele>
        <time>2017-04-09T06:24:38.000Z</time>
      </trkpt>
      <trkpt lat="49.38356" lon="1.04576">
        <ele>74.96834564209</ele>
        <time>2017-04-09T06:24:40.000Z</time>
      </trkpt>
      <trkpt lat="49.38347" lon="1.04566">
        <ele>74.646713256836</ele>
        <time>2017-04-09T06:24:43.000Z</time>
      </trkpt>
      <trkpt lat="49.38338" lon="1.04558">
        <ele>74.294906616211</ele>
        <time>2017-04-09T06:24:45.000Z</time>
      </trkpt>
      <trkpt lat="49.38324" lon="1.0454">
        <ele>73.678924560547</ele>
        <time>2017-04-09T06:24:48.000Z</time>
      </trkpt>
      <trkpt lat="49.38323" lon="1.04523">
        <ele>73.003684997559</ele>
        <time>2017-04-09T06:24:51.000Z</time>
      </trkpt>
      <trkpt lat="49.38324" lon="1.04505">
        <ele>72.312591552734</ele>
        <time>2017-04-09T06:24:54.000Z</time>
      </trkpt>
      <trkpt lat="49.38324" lon="1.04482">
        <ele>71.472732543945</ele>
        <time>2017-04-09T06:24:57.000Z</time>
      </trkpt>
      <trkpt lat="49.38327" lon="1.04471">
        <ele>70.669326782227</ele>
        <time>2017-04-09T06:24:59.000Z</time>
      </trkpt>
      <trkpt lat="49.38326" lon="1.04439">
        <ele>69.788711547852</ele>
        <time>2017-04-09T06:25:02.000Z</time>
        <extensions>
          <gpxtpx:TrackPointExtension xmlns:gpxtpx="http://www.garmin.com/xmlschemas/TrackPointExtension/v1">
            <gpxtpx:hr>142</gpxtpx:hr>
          </gpxtpx:TrackPointExtension>
        </extensions>
      </trkpt>
      <trkpt lat="49.38329" lon="1.04419">
        <ele>68.868774414062</ele>
        <time>2017-04-09T06:25:05.000Z</time>
        <extensions>
          <gpxtpx:TrackPointExtension xmlns:gpxtpx="http://www.garmin.com/xmlschemas/TrackPointExtension/v1">
            <gpxtpx:hr>140</gpxtpx:hr>
          </gpxtpx:TrackPointExtension>
        </extensions>
      </trkpt>
      <trkpt lat="49.38334" lon="1.04401">
        <ele>68.006454467773</ele>
        <time>2017-04-09T06:25:08.000Z</time>
        <extensions>
          <gpxtpx:TrackPointExtension xmlns:gpxtpx="http://www.garmin.com/xmlschemas/TrackPointExtension/v1">
            <gpxtpx:hr>142</gpxtpx:hr>
          </gpxtpx:TrackPointExtension>
        </extensions>
      </trkpt>
      <trkpt lat="49.38336" lon="1.04388">
        <ele>67.338203430176</ele>
        <time>2017-04-09T06:25:10.000Z</time>
        <extensions>
          <gpxtpx:TrackPointExtension xmlns:gpxtpx="http://www.garmin.com/xmlschemas/TrackPointExtension/v1">
            <gpxtpx:hr>142</gpxtpx:hr>
          </gpxtpx:TrackPointExtension>
        </extensions>
      </trkpt>
      <trkpt lat="49.38341" lon="1.04374">
        <ele>66.684631347656</ele>
        <time>2017-04-09T06:25:12.000Z</time>
        <extensions>
          <gpxtpx:TrackPointExtension xmlns:gpxtpx="http://www.garmin.com/xmlschemas/TrackPointExtension/v1">
            <gpxtpx:hr>143</gpxtpx:hr>
          </gpxtpx:TrackPointExtension>
        </extensions>
      </trkpt>
      <trkpt lat="49.38346" lon="1.04361">
        <ele>66.413925170898</ele>
        <time>2017-04-09T06:25:15.000Z</time>
      </trkpt>
      <trkpt lat="49.38352" lon="1.04351">
        <ele>66.299041748047</ele>
        <time>2017-04-09T06:25:17.000Z</time>
        <extensions>
          <gpxtpx:TrackPointExtension xmlns:gpxtpx="http://www.garmin.com/xmlschemas/TrackPointExtension/v1">
            <gpxtpx:hr>143</gpxtpx:hr>
          </gpxtpx:TrackPointExtension>
        </extensions>
      </trkpt>
      <trkpt lat="49.38357" lon="1.04339">
        <ele>66.171203613281</ele>
        <time>2017-04-09T06:25:20.000Z</time>
        <extensions>
          <gpxtpx:TrackPointExtension xmlns:gpxtpx="http://www.garmin.com/xmlschemas/TrackPointExtension/v1">
            <gpxtpx:hr>149</gpxtpx:hr>
          </gpxtpx:TrackPointExtension>
        </extensions>
      </trkpt>
      <trkpt lat="49.38356" lon="1.04327">
        <ele>65.978912353516</ele>
        <time>2017-04-09T06:25:22.000Z</time>
      </trkpt>
      <trkpt lat="49.38356" lon="1.04306">
        <ele>65.535598754883</ele>
        <time>2017-04-09T06:25:25.000Z</time>
      </trkpt>
      <trkpt lat="49.38358" lon="1.04295">
        <ele>64.985023498535</ele>
        <time>2017-04-09T06:25:27.000Z</time>
      </trkpt>
      <trkpt lat="49.3836" lon="1.04281">
        <ele>64.290702819824</ele>
        <time>2017-04-09T06:25:29.000Z</time>
      </trkpt>
      <trkpt lat="49.38363" lon="1.04265">
        <ele>63.44002532959</ele>
        <time>2017-04-09T06:25:32.000Z</time>
      </trkpt>
      <trkpt lat="49.38372" lon="1.04255">
        <ele>62.67797088623</ele>
        <time>2017-04-09T06:25:35.000Z</time>
      </trkpt>
      <trkpt lat="49.3838" lon="1.0425">
        <ele>62.231018066406</ele>
        <time>2017-04-09T06:25:37.000Z</time>
      </trkpt>
      <trkpt lat="49.38387" lon="1.04237">
        <ele>61.877220153809</ele>
        <time>2017-04-09T06:25:40.000Z</time>
      </trkpt>
      <trkpt lat="49.38402" lon="1.04198">
        <ele>61.342876434326</ele>
        <time>2017-04-09T06:25:44.000Z</time>
      </trkpt>
      <trkpt lat="49.38422" lon="1.0418">
        <ele>60.793327331543</ele>
        <time>2017-04-09T06:25:47.000Z</time>
      </trkpt>
      <trkpt lat="49.38431" lon="1.04175">
        <ele>60.210388183594</ele>
        <time>2017-04-09T06:25:49.000Z</time>
      </trkpt>
      <trkpt lat="49.38446" lon="1.04169">
        <ele>59.549999237061</ele>
        <time>2017-04-09T06:25:52.000Z</time>
      </trkpt>
      <trkpt lat="49.3846" lon="1.04158">
        <ele>58.897277832031</ele>
        <time>2017-04-09T06:25:55.000Z</time>
      </trkpt>
      <trkpt lat="49.38465" lon="1.04152">
        <ele>58.56371307373</ele>
        <time>2017-04-09T06:25:57.000Z</time>
      </trkpt>
      <trkpt lat="49.38461" lon="1.04142">
        <ele>58.35961151123</ele>
        <time>2017-04-09T06:26:00.000Z</time>
        <extensions>
          <gpxtpx:TrackPointExtension xmlns:gpxtpx="http://www.garmin.com/xmlschemas/TrackPointExtension/v1">
            <gpxtpx:hr>145</gpxtpx:hr>
          </gpxtpx:TrackPointExtension>
        </extensions>
      </trkpt>
      <trkpt lat="49.38449" lon="1.04131">
        <ele>58.085052490234</ele>
        <time>2017-04-09T06:26:03.000Z</time>
        <extensions>
          <gpxtpx:TrackPointExtension xmlns:gpxtpx="http://www.garmin.com/xmlschemas/TrackPointExtension/v1">
            <gpxtpx:hr>145</gpxtpx:hr>
          </gpxtpx:TrackPointExtension>
        </extensions>
      </trkpt>
      <trkpt lat="49.38437" lon="1.04114">
        <ele>57.655010223389</ele>
        <time>2017-04-09T06:26:06.000Z</time>
        <extensions>
          <gpxtpx:TrackPointExtension xmlns:gpxtpx="http://www.garmin.com/xmlschemas/TrackPointExtension/v1">
            <gpxtpx:hr>141</gpxtpx:hr>
          </gpxtpx:TrackPointExtension>
        </extensions>
      </trkpt>
      <trkpt lat="49.38427" lon="1.04096">
        <ele>57.009757995605</ele>
        <time>2017-04-09T06:26:09.000Z</time>
        <extensions>
          <gpxtpx:TrackPointExtension xmlns:gpxtpx="http://www.garmin.com/xmlschemas/TrackPointExtension/v1">
            <gpxtpx:hr>146</gpxtpx:hr>
          </gpxtpx:TrackPointExtension>
        </extensions>
      </trkpt>
      <trkpt lat="49.38419" lon="1.04082">
        <ele>56.170703887939</ele>
        <time>2017-04-09T06:26:11.000Z</time>
        <extensions>
          <gpxtpx:TrackPointExtension xmlns:gpxtpx="http://www.garmin.com/xmlschemas/TrackPointExtension/v1">
            <gpxtpx:hr>149</gpxtpx:hr>
          </gpxtpx:TrackPointExtension>
        </extensions>
      </trkpt>
      <trkpt lat="49.38408" lon="1.04054">
        <ele>55.202587127686</ele>
        <time>2017-04-09T06:26:14.000Z</time>
        <extensions>
          <gpxtpx:TrackPointExtension xmlns:gpxtpx="http://www.garmin.com/xmlschemas/TrackPointExtension/v1">
            <gpxtpx:hr>147</gpxtpx:hr>
          </gpxtpx:TrackPointExtension>
        </extensions>
      </trkpt>
      <trkpt lat="49.38406" lon="1.04037">
        <ele>54.237953186035</ele>
        <time>2017-04-09T06:26:16.000Z</time>
        <extensions>
          <gpxtpx:TrackPointExtension xmlns:gpxtpx="http://www.garmin.com/xmlschemas/TrackPointExtension/v1">
            <gpxtpx:hr>147</gpxtpx:hr>
          </gpxtpx:TrackPointExtension>
        </extensions>
      </trkpt>
      <trkpt lat="49.384" lon="1.04018">
        <ele>53.429298400879</ele>
        <time>2017-04-09T06:26:19.000Z</time>
        <extensions>
          <gpxtpx:TrackPointExtension xmlns:gpxtpx="http://www.garmin.com/xmlschemas/TrackPointExtension/v1">
            <gpxtpx:hr>151</gpxtpx:hr>
          </gpxtpx:TrackPointExtension>
        </extensions>
      </trkpt>
      <trkpt lat="49.38398" lon="1.03997">
        <ele>52.755840301514</ele>
        <time>2017-04-09T06:26:22.000Z</time>
      </trkpt>
      <trkpt lat="49.38393" lon="1.03985">
        <ele>52.301097869873</ele>
        <time>2017-04-09T06:26:25.000Z</time>
      </trkpt>
      <trkpt lat="49.38395" lon="1.03966">
        <ele>51.890949249268</ele>
        <time>2017-04-09T06:26:28.000Z</time>
      </trkpt>
      <trkpt lat="49.38388" lon="1.03951">
        <ele>51.667236328125</ele>
        <time>2017-04-09T06:26:30.000Z</time>
      </trkpt>
      <trkpt lat="49.38382" lon="1.03944">
        <ele>51.577930450439</ele>
        <time>2017-04-09T06:26:33.000Z</time>
      </trkpt>
      <trkpt lat="49.38379" lon="1.03943">
        <ele>51.67582321167</ele>
        <time>2017-04-09T06:26:35.000Z</time>
      </trkpt>
      <trkpt lat="49.38375" lon="1.0394">
        <ele>51.822498321533</ele>
        <time>2017-04-09T06:26:38.000Z</time>
      </trkpt>
      <trkpt lat="49.38374" lon="1.03938">
        <ele>52.130889892578</ele>
        <time>2017-04-09T06:26:40.000Z</time>
      </trkpt>
      <trkpt lat="49.38372" lon="1.03934">
        <ele>52.4033203125</ele>
        <time>2017-04-09T06:26:42.000Z</time>
      </trkpt>
      <trkpt lat="49.38368" lon="1.03931">
        <ele>52.655181884766</ele>
        <time>2017-04-09T06:26:45.000Z</time>
      </trkpt>
      <trkpt lat="49.38366" lon="1.03925">
        <ele>52.872394561768</ele>
        <time>2017-04-09T06:26:48.000Z</time>
      </trkpt>
      <trkpt lat="49.38362" lon="1.03919">
        <ele>53.091552734375</ele>
        <time>2017-04-09T06:26:51.000Z</time>
      </trkpt>
      <trkpt lat="49.38361" lon="1.03918">
        <ele>53.318836212158</ele>
        <time>2017-04-09T06:26:53.000Z</time>
      </trkpt>
      <trkpt lat="49.38357" lon="1.03915">
        <ele>53.566032409668</ele>
        <time>2017-04-09T06:26:55.000Z</time>
      </trkpt>
      <trkpt lat="49.38351" lon="1.03908">
        <ele>53.790874481201</ele>
        <time>2017-04-09T06:26:58.000Z</time>
      </trkpt>
      <trkpt lat="49.38344" lon="1.03903">
        <ele>54.079856872559</ele>
        <time>2017-04-09T06:27:01.000Z</time>
        <extensions>
          <gpxtpx:TrackPointExtension xmlns:gpxtpx="http://www.garmin.com/xmlschemas/TrackPointExtension/v1">
            <gpxtpx:hr>155</gpxtpx:hr>
          </gpxtpx:TrackPointExtension>
        </extensions>
      </trkpt>
      <trkpt lat="49.3834" lon="1.039">
        <ele>54.372680664062</ele>
        <time>2017-04-09T06:27:03.000Z</time>
        <extensions>
          <gpxtpx:TrackPointExtension xmlns:gpxtpx="http://www.garmin.com/xmlschemas/TrackPointExtension/v1">
            <gpxtpx:hr>154</gpxtpx:hr>
          </gpxtpx:TrackPointExtension>
        </extensions>
      </trkpt>
      <trkpt lat="49.38332" lon="1.03898">
        <ele>54.769622802734</ele>
        <time>2017-04-09T06:27:06.000Z</time>
        <extensions>
          <gpxtpx:TrackPointExtension xmlns:gpxtpx="http://www.garmin.com/xmlschemas/TrackPointExtension/v1">
            <gpxtpx:hr>170</gpxtpx:hr>
          </gpxtpx:TrackPointExtension>
        </extensions>
      </trkpt>
      <trkpt lat="49.38327" lon="1.039">
        <ele>55.25288772583</ele>
        <time>2017-04-09T06:27:09.000Z</time>
        <extensions>
          <gpxtpx:TrackPointExtension xmlns:gpxtpx="http://www.garmin.com/xmlschemas/TrackPointExtension/v1">
            <gpxtpx:hr>135</gpxtpx:hr>
          </gpxtpx:TrackPointExtension>
        </extensions>
      </trkpt>
      <trkpt lat="49.38324" lon="1.03908">
        <ele>55.844047546387</ele>
        <time>2017-04-09T06:27:12.000Z</time>
        <extensions>
          <gpxtpx:TrackPointExtension xmlns:gpxtpx="http://www.garmin.com/xmlschemas/TrackPointExtension/v1">
            <gpxtpx:hr>141</gpxtpx:hr>
          </gpxtpx:TrackPointExtension>
        </extensions>
      </trkpt>
      <trkpt lat="49.38319" lon="1.03919">
        <ele>56.528308868408</ele>
        <time>2017-04-09T06:27:15.000Z</time>
        <extensions>
          <gpxtpx:TrackPointExtension xmlns:gpxtpx="http://www.garmin.com/xmlschemas/TrackPointExtension/v1">
            <gpxtpx:hr>103</gpxtpx:hr>
          </gpxtpx:TrackPointExtension>
        </extensions>
      </trkpt>
      <trkpt lat="49.38315" lon="1.03928">
        <ele>57.242992401123</ele>
        <time>2017-04-09T06:27:18.000Z</time>
        <extensions>
          <gpxtpx:TrackPointExtension xmlns:gpxtpx="http://www.garmin.com/xmlschemas/TrackPointExtension/v1">
            <gpxtpx:hr>97</gpxtpx:hr>
          </gpxtpx:TrackPointExtension>
        </extensions>
      </trkpt>
      <trkpt lat="49.38313" lon="1.03936">
        <ele>57.87540435791</ele>
        <time>2017-04-09T06:27:20.000Z</time>
        <extensions>
          <gpxtpx:TrackPointExtension xmlns:gpxtpx="http://www.garmin.com/xmlschemas/TrackPointExtension/v1">
            <gpxtpx:hr>126</gpxtpx:hr>
          </gpxtpx:TrackPointExtension>
        </extensions>
      </trkpt>
      <trkpt lat="49.38311" lon="1.03947">
        <ele>58.43994140625</ele>
        <time>2017-04-09T06:27:23.000Z</time>
        <extensions>
          <gpxtpx:TrackPointExtension xmlns:gpxtpx="http://www.garmin.com/xmlschemas/TrackPointExtension/v1">
            <gpxtpx:hr>101</gpxtpx:hr>
          </gpxtpx:TrackPointExtension>
        </extensions>
      </trkpt>
      <trkpt lat="49.38309" lon="1.03955">
        <ele>58.904064178467</ele>
        <time>2017-04-09T06:27:25.000Z</time>
      </trkpt>
      <trkpt lat="49.38306" lon="1.03963">
        <ele>59.230010986328</ele>
        <time>2017-04-09T06:27:27.000Z</time>
      </trkpt>
      <trkpt lat="49.38303" lon="1.03974">
        <ele>59.553028106689</ele>
        <time>2017-04-09T06:27:30.000Z</time>
      </trkpt>
      <trkpt lat="49.38301" lon="1.0398">
        <ele>59.863903045654</ele>
        <time>2017-04-09T06:27:32.000Z</time>
      </trkpt>
      <trkpt lat="49.38297" lon="1.03994">
        <ele>60.210205078125</ele>
        <time>2017-04-09T06:27:35.000Z</time>
      </trkpt>
      <trkpt lat="49.38295" lon="1.04007">
        <ele>60.565452575684</ele>
        <time>2017-04-09T06:27:38.000Z</time>
      </trkpt>
      <trkpt lat="49.38294" lon="1.04015">
        <ele>60.882549285889</ele>
        <time>2017-04-09T06:27:40.000Z</time>
      </trkpt>
      <trkpt lat="49.38292" lon="1.04024">
        <ele>61.142791748047</ele>
        <time>2017-04-09T06:27:42.000Z</time>
      </trkpt>
      <trkpt lat="49.38288" lon="1.04037">
        <ele>61.465049743652</ele>
        <time>2017-04-09T06:27:45.000Z</time>
      </trkpt>
      <trkpt lat="49.38285" lon="1.04046">
        <ele>61.755115509033</ele>
        <time>2017-04-09T06:27:47.000Z</time>
      </trkpt>
      <trkpt lat="49.38278" lon="1.04058">
        <ele>62.120216369629</ele>
        <time>2017-04-09T06:27:50.000Z</time>
      </trkpt>
      <trkpt lat="49.38272" lon="1.04071">
        <ele>62.589866638184</ele>
        <time>2017-04-09T06:27:53.000Z</time>
      </trkpt>
      <trkpt lat="49.38266" lon="1.04084">
        <ele>63.15648651123</ele>
        <time>2017-04-09T06:27:56.000Z</time>
      </trkpt>
      <trkpt lat="49.38261" lon="1.04096">
        <ele>63.616321563721</ele>
        <time>2017-04-09T06:27:58.000Z</time>
      </trkpt>
      <trkpt lat="49.38255" lon="1.04115">
        <ele>63.955894470215</ele>
        <time>2017-04-09T06:28:01.000Z</time>
        <extensions>
          <gpxtpx:TrackPointExtension xmlns:gpxtpx="http://www.garmin.com/xmlschemas/TrackPointExtension/v1">
            <gpxtpx:hr>121</gpxtpx:hr>
          </gpxtpx:TrackPointExtension>
        </extensions>
      </trkpt>
      <trkpt lat="49.38251" lon="1.04126">
        <ele>64.110748291016</ele>
        <time>2017-04-09T06:28:03.000Z</time>
        <extensions>
          <gpxtpx:TrackPointExtension xmlns:gpxtpx="http://www.garmin.com/xmlschemas/TrackPointExtension/v1">
            <gpxtpx:hr>118</gpxtpx:hr>
          </gpxtpx:TrackPointExtension>
        </extensions>
      </trkpt>
      <trkpt lat="49.38248" lon="1.04141">
        <ele>64.028663635254</ele>
        <time>2017-04-09T06:28:06.000Z</time>
        <extensions>
          <gpxtpx:TrackPointExtension xmlns:gpxtpx="http://www.garmin.com/xmlschemas/TrackPointExtension/v1">
            <gpxtpx:hr>116</gpxtpx:hr>
          </gpxtpx:TrackPointExtension>
        </extensions>
      </trkpt>
      <trkpt lat="49.38245" lon="1.04161">
        <ele>63.664176940918</ele>
        <time>2017-04-09T06:28:09.000Z</time>
        <extensions>
          <gpxtpx:TrackPointExtension xmlns:gpxtpx="http://www.garmin.com/xmlschemas/TrackPointExtension/v1">
            <gpxtpx:hr>130</gpxtpx:hr>
          </gpxtpx:TrackPointExtension>
        </extensions>
      </trkpt>
      <trkpt lat="49.38243" lon="1.04174">
        <ele>63.248313903809</ele>
        <time>2017-04-09T06:28:11.000Z</time>
        <extensions>
          <gpxtpx:TrackPointExtension xmlns:gpxtpx="http://www.garmin.com/xmlschemas/TrackPointExtension/v1">
            <gpxtpx:hr>90</gpxtpx:hr>
          </gpxtpx:TrackPointExtension>
        </extensions>
      </trkpt>
      <trkpt lat="49.3824" lon="1.04184">
        <ele>62.855121612549</ele>
        <time>2017-04-09T06:28:13.000Z</time>
        <extensions>
          <gpxtpx:TrackPointExtension xmlns:gpxtpx="http://www.garmin.com/xmlschemas/TrackPointExtension/v1">
            <gpxtpx:hr>94</gpxtpx:hr>
          </gpxtpx:TrackPointExtension>
        </extensions>
      </trkpt>
      <trkpt lat="49.38231" lon="1.04199">
        <ele>62.530708312988</ele>
        <time>2017-04-09T06:28:16.000Z</time>
        <extensions>
          <gpxtpx:TrackPointExtension xmlns:gpxtpx="http://www.garmin.com/xmlschemas/TrackPointExtension/v1">
            <gpxtpx:hr>129</gpxtpx:hr>
          </gpxtpx:TrackPointExtension>
        </extensions>
      </trkpt>
      <trkpt lat="49.38226" lon="1.04209">
        <ele>62.327075958252</ele>
        <time>2017-04-09T06:28:18.000Z</time>
      </trkpt>
      <trkpt lat="49.38222" lon="1.0422">
        <ele>62.274364471436</ele>
        <time>2017-04-09T06:28:20.000Z</time>
      </trkpt>
      <trkpt lat="49.38215" lon="1.04235">
        <ele>62.296215057373</ele>
        <time>2017-04-09T06:28:23.000Z</time>
      </trkpt>
      <trkpt lat="49.3821" lon="1.0425">
        <ele>62.332263946533</ele>
        <time>2017-04-09T06:28:26.000Z</time>
      </trkpt>
      <trkpt lat="49.38206" lon="1.04259">
        <ele>62.39107131958</ele>
        <time>2017-04-09T06:28:28.000Z</time>
      </trkpt>
      <trkpt lat="49.38202" lon="1.04268">
        <ele>62.485332489014</ele>
        <time>2017-04-09T06:28:30.000Z</time>
      </trkpt>
      <trkpt lat="49.38197" lon="1.04283">
        <ele>62.622009277344</ele>
        <time>2017-04-09T06:28:33.000Z</time>
      </trkpt>
      <trkpt lat="49.38194" lon="1.04295">
        <ele>62.778953552246</ele>
        <time>2017-04-09T06:28:35.000Z</time>
      </trkpt>
      <trkpt lat="49.38189" lon="1.04311">
        <ele>62.992828369141</ele>
        <time>2017-04-09T06:28:38.000Z</time>
      </trkpt>
      <trkpt lat="49.38185" lon="1.04322">
        <ele>63.203277587891</ele>
        <time>2017-04-09T06:28:40.000Z</time>
      </trkpt>
      <trkpt lat="49.3818" lon="1.04338">
        <ele>63.425537109375</ele>
        <time>2017-04-09T06:28:43.000Z</time>
      </trkpt>
      <trkpt lat="49.38176" lon="1.04349">
        <ele>63.693748474121</ele>
        <time>2017-04-09T06:28:45.000Z</time>
      </trkpt>
      <trkpt lat="49.3817" lon="1.04367">
        <ele>64.073707580566</ele>
        <time>2017-04-09T06:28:48.000Z</time>
      </trkpt>
      <trkpt lat="49.38168" lon="1.04376">
        <ele>64.468826293945</ele>
        <time>2017-04-09T06:28:50.000Z</time>
      </trkpt>
      <trkpt lat="49.38165" lon="1.0439">
        <ele>64.910400390625</ele>
        <time>2017-04-09T06:28:53.000Z</time>
      </trkpt>
      <trkpt lat="49.38161" lon="1.044">
        <ele>65.374221801758</ele>
        <time>2017-04-09T06:28:55.000Z</time>
      </trkpt>
      <trkpt lat="49.38153" lon="1.04418">
        <ele>65.877464294434</ele>
        <time>2017-04-09T06:28:58.000Z</time>
      </trkpt>
      <trkpt lat="49.3815" lon="1.04428">
        <ele>66.211631774902</ele>
        <time>2017-04-09T06:29:00.000Z</time>
      </trkpt>
      <trkpt lat="49.38145" lon="1.04441">
        <ele>66.457168579102</ele>
        <time>2017-04-09T06:29:02.000Z</time>
        <extensions>
          <gpxtpx:TrackPointExtension xmlns:gpxtpx="http://www.garmin.com/xmlschemas/TrackPointExtension/v1">
            <gpxtpx:hr>120</gpxtpx:hr>
          </gpxtpx:TrackPointExtension>
        </extensions>
      </trkpt>
      <trkpt lat="49.38139" lon="1.04468">
        <ele>66.486831665039</ele>
        <time>2017-04-09T06:29:05.000Z</time>
        <extensions>
          <gpxtpx:TrackPointExtension xmlns:gpxtpx="http://www.garmin.com/xmlschemas/TrackPointExtension/v1">
            <gpxtpx:hr>127</gpxtpx:hr>
          </gpxtpx:TrackPointExtension>
        </extensions>
      </trkpt>
      <trkpt lat="49.38134" lon="1.0448">
        <ele>66.396423339844</ele>
        <time>2017-04-09T06:29:07.000Z</time>
        <extensions>
          <gpxtpx:TrackPointExtension xmlns:gpxtpx="http://www.garmin.com/xmlschemas/TrackPointExtension/v1">
            <gpxtpx:hr>89</gpxtpx:hr>
          </gpxtpx:TrackPointExtension>
        </extensions>
      </trkpt>
      <trkpt lat="49.38132" lon="1.04492">
        <ele>66.107620239258</ele>
        <time>2017-04-09T06:29:09.000Z</time>
      </trkpt>
      <trkpt lat="49.38129" lon="1.04504">
        <ele>65.778442382812</ele>
        <time>2017-04-09T06:29:11.000Z</time>
        <extensions>
          <gpxtpx:TrackPointExtension xmlns:gpxtpx="http://www.garmin.com/xmlschemas/TrackPointExtension/v1">
            <gpxtpx:hr>129</gpxtpx:hr>
          </gpxtpx:TrackPointExtension>
        </extensions>
      </trkpt>
      <trkpt lat="49.38122" lon="1.04523">
        <ele>65.458442687988</ele>
        <time>2017-04-09T06:29:14.000Z</time>
      </trkpt>
      <trkpt lat="49.38113" lon="1.04548">
        <ele>65.202842712402</ele>
        <time>2017-04-09T06:29:17.000Z</time>
      </trkpt>
      <trkpt lat="49.38105" lon="1.04565">
        <ele>64.958198547363</ele>
        <time>2017-04-09T06:29:20.000Z</time>
      </trkpt>
      <trkpt lat="49.38096" lon="1.04566">
        <ele>64.863807678223</ele>
        <time>2017-04-09T06:29:22.000Z</time>
      </trkpt>
      <trkpt lat="49.38085" lon="1.0456">
        <ele>64.991645812988</ele>
        <time>2017-04-09T06:29:25.000Z</time>
      </trkpt>
      <trkpt lat="49.38076" lon="1.04555">
        <ele>65.263954162598</ele>
        <time>2017-04-09T06:29:28.000Z</time>
      </trkpt>
      <trkpt lat="49.38067" lon="1.04552">
        <ele>65.6982421875</ele>
        <time>2017-04-09T06:29:31.000Z</time>
      </trkpt>
      <trkpt lat="49.3806" lon="1.04546">
        <ele>66.273208618164</ele>
        <time>2017-04-09T06:29:34.000Z</time>
      </trkpt>
      <trkpt lat="49.38053" lon="1.04544">
        <ele>66.854934692383</ele>
        <time>2017-04-09T06:29:36.000Z</time>
      </trkpt>
      <trkpt lat="49.38045" lon="1.04542">
        <ele>67.366683959961</ele>
        <time>2017-04-09T06:29:38.000Z</time>
      </trkpt>
      <trkpt lat="49.38034" lon="1.04539">
        <ele>67.886779785156</ele>
        <time>2017-04-09T06:29:41.000Z</time>
      </trkpt>
      <trkpt lat="49.38028" lon="1.04536">
        <ele>68.406234741211</ele>
        <time>2017-04-09T06:29:43.000Z</time>
      </trkpt>
      <trkpt lat="49.38021" lon="1.04529">
        <ele>68.958961486816</ele>
        <time>2017-04-09T06:29:46.000Z</time>
      </trkpt>
      <trkpt lat="49.38017" lon="1.04524">
        <ele>69.512474060059</ele>
        <time>2017-04-09T06:29:48.000Z</time>
      </trkpt>
      <trkpt lat="49.38013" lon="1.04517">
        <ele>70.106399536133</ele>
        <time>2017-04-09T06:29:51.000Z</time>
      </trkpt>
      <trkpt lat="49.3801" lon="1.04514">
        <ele>70.639678955078</ele>
        <time>2017-04-09T06:29:53.000Z</time>
      </trkpt>
      <trkpt lat="49.38003" lon="1.0451">
        <ele>71.193260192871</ele>
        <time>2017-04-09T06:29:56.000Z</time>
      </trkpt>
      <trkpt lat="49.37996" lon="1.04506">
        <ele>71.72607421875</ele>
        <time>2017-04-09T06:29:58.000Z</time>
      </trkpt>
      <trkpt lat="49.37987" lon="1.04499">
        <ele>72.337257385254</ele>
        <time>2017-04-09T06:30:01.000Z</time>
        <extensions>
          <gpxtpx:TrackPointExtension xmlns:gpxtpx="http://www.garmin.com/xmlschemas/TrackPointExtension/v1">
            <gpxtpx:hr>110</gpxtpx:hr>
          </gpxtpx:TrackPointExtension>
        </extensions>
      </trkpt>
      <trkpt lat="49.37981" lon="1.04497">
        <ele>72.895309448242</ele>
        <time>2017-04-09T06:30:03.000Z</time>
        <extensions>
          <gpxtpx:TrackPointExtension xmlns:gpxtpx="http://www.garmin.com/xmlschemas/TrackPointExtension/v1">
            <gpxtpx:hr>97</gpxtpx:hr>
          </gpxtpx:TrackPointExtension>
        </extensions>
      </trkpt>
      <trkpt lat="49.37971" lon="1.04495">
        <ele>73.483505249023</ele>
        <time>2017-04-09T06:30:06.000Z</time>
        <extensions>
          <gpxtpx:TrackPointExtension xmlns:gpxtpx="http://www.garmin.com/xmlschemas/TrackPointExtension/v1">
            <gpxtpx:hr>91</gpxtpx:hr>
          </gpxtpx:TrackPointExtension>
        </extensions>
      </trkpt>
      <trkpt lat="49.37963" lon="1.04493">
        <ele>74.042907714844</ele>
        <time>2017-04-09T06:30:09.000Z</time>
        <extensions>
          <gpxtpx:TrackPointExtension xmlns:gpxtpx="http://www.garmin.com/xmlschemas/TrackPointExtension/v1">
            <gpxtpx:hr>97</gpxtpx:hr>
          </gpxtpx:TrackPointExtension>
        </extensions>
      </trkpt>
      <trkpt lat="49.37956" lon="1.04489">
        <ele>74.561050415039</ele>
        <time>2017-04-09T06:30:12.000Z</time>
        <extensions>
          <gpxtpx:TrackPointExtension xmlns:gpxtpx="http://www.garmin.com/xmlschemas/TrackPointExtension/v1">
            <gpxtpx:hr>127</gpxtpx:hr>
          </gpxtpx:TrackPointExtension>
        </extensions>
      </trkpt>
      <trkpt lat="49.37951" lon="1.04484">
        <ele>74.981323242188</ele>
        <time>2017-04-09T06:30:14.000Z</time>
        <extensions>
          <gpxtpx:TrackPointExtension xmlns:gpxtpx="http://www.garmin.com/xmlschemas/TrackPointExtension/v1">
            <gpxtpx:hr>137</gpxtpx:hr>
          </gpxtpx:TrackPointExtension>
        </extensions>
      </trkpt>
      <trkpt lat="49.37943" lon="1.04473">
        <ele>75.439956665039</ele>
        <time>2017-04-09T06:30:17.000Z</time>
        <extensions>
          <gpxtpx:TrackPointExtension xmlns:gpxtpx="http://www.garmin.com/xmlschemas/TrackPointExtension/v1">
            <gpxtpx:hr>111</gpxtpx:hr>
          </gpxtpx:TrackPointExtension>
        </extensions>
      </trkpt>
      <trkpt lat="49.37934" lon="1.04465">
        <ele>75.889091491699</ele>
        <time>2017-04-09T06:30:20.000Z</time>
        <extensions>
          <gpxtpx:TrackPointExtension xmlns:gpxtpx="http://www.garmin.com/xmlschemas/TrackPointExtension/v1">
            <gpxtpx:hr>138</gpxtpx:hr>
          </gpxtpx:TrackPointExtension>
        </extensions>
      </trkpt>
      <trkpt lat="49.37927" lon="1.04467">
        <ele>76.295188903809</ele>
        <time>2017-04-09T06:30:23.000Z</time>
        <extensions>
          <gpxtpx:TrackPointExtension xmlns:gpxtpx="http://www.garmin.com/xmlschemas/TrackPointExtension/v1">
            <gpxtpx:hr>139</gpxtpx:hr>
          </gpxtpx:TrackPointExtension>
        </extensions>
      </trkpt>
      <trkpt lat="49.37918" lon="1.04463">
        <ele>76.684707641602</ele>
        <time>2017-04-09T06:30:26.000Z</time>
      </trkpt>
      <trkpt lat="49.37912" lon="1.04459">
        <ele>77.05322265625</ele>
        <time>2017-04-09T06:30:28.000Z</time>
      </trkpt>
      <trkpt lat="49.37905" lon="1.04456">
        <ele>77.355026245117</ele>
        <time>2017-04-09T06:30:31.000Z</time>
      </trkpt>
      <trkpt lat="49.37901" lon="1.04458">
        <ele>77.588912963867</ele>
        <time>2017-04-09T06:30:33.000Z</time>
      </trkpt>
      <trkpt lat="49.37892" lon="1.04452">
        <ele>77.843536376953</ele>
        <time>2017-04-09T06:30:36.000Z</time>
      </trkpt>
      <trkpt lat="49.37888" lon="1.04447">
        <ele>78.076675415039</ele>
        <time>2017-04-09T06:30:38.000Z</time>
      </trkpt>
      <trkpt lat="49.37884" lon="1.04441">
        <ele>78.305976867676</ele>
        <time>2017-04-09T06:30:41.000Z</time>
      </trkpt>
      <trkpt lat="49.37882" lon="1.04438">
        <ele>78.512153625488</ele>
        <time>2017-04-09T06:30:43.000Z</time>
      </trkpt>
      <trkpt lat="49.37878" lon="1.04436">
        <ele>78.724578857422</ele>
        <time>2017-04-09T06:30:45.000Z</time>
      </trkpt>
      <trkpt lat="49.3787" lon="1.04435">
        <ele>78.928443908691</ele>
        <time>2017-04-09T06:30:48.000Z</time>
      </trkpt>
      <trkpt lat="49.37865" lon="1.04422">
        <ele>79.173133850098</ele>
        <time>2017-04-09T06:30:51.000Z</time>
      </trkpt>
      <trkpt lat="49.37863" lon="1.04408">
        <ele>79.436935424805</ele>
        <time>2017-04-09T06:30:54.000Z</time>
      </trkpt>
      <trkpt lat="49.3786" lon="1.04399">
        <ele>79.733840942383</ele>
        <time>2017-04-09T06:30:56.000Z</time>
      </trkpt>
      <trkpt lat="49.37854" lon="1.04387">
        <ele>80.078170776367</ele>
        <time>2017-04-09T06:30:59.000Z</time>
      </trkpt>
      <trkpt lat="49.3785" lon="1.04379">
        <ele>80.415328979492</ele>
        <time>2017-04-09T06:31:01.000Z</time>
        <extensions>
          <gpxtpx:TrackPointExtension xmlns:gpxtpx="http://www.garmin.com/xmlschemas/TrackPointExtension/v1">
            <gpxtpx:hr>130</gpxtpx:hr>
          </gpxtpx:TrackPointExtension>
        </extensions>
      </trkpt>
      <trkpt lat="49.37842" lon="1.04372">
        <ele>80.72590637207</ele>
        <time>2017-04-09T06:31:04.000Z</time>
        <extensions>
          <gpxtpx:TrackPointExtension xmlns:gpxtpx="http://www.garmin.com/xmlschemas/TrackPointExtension/v1">
            <gpxtpx:hr>114</gpxtpx:hr>
          </gpxtpx:TrackPointExtension>
        </extensions>
      </trkpt>
      <trkpt lat="49.37837" lon="1.04367">
        <ele>81.007614135742</ele>
        <time>2017-04-09T06:31:06.000Z</time>
        <extensions>
          <gpxtpx:TrackPointExtension xmlns:gpxtpx="http://www.garmin.com/xmlschemas/TrackPointExtension/v1">
            <gpxtpx:hr>160</gpxtpx:hr>
          </gpxtpx:TrackPointExtension>
        </extensions>
      </trkpt>
      <trkpt lat="49.37832" lon="1.04362">
        <ele>81.270446777344</ele>
        <time>2017-04-09T06:31:08.000Z</time>
      </trkpt>
      <trkpt lat="49.37825" lon="1.04363">
        <ele>81.529655456543</ele>
        <time>2017-04-09T06:31:11.000Z</time>
        <extensions>
          <gpxtpx:TrackPointExtension xmlns:gpxtpx="http://www.garmin.com/xmlschemas/TrackPointExtension/v1">
            <gpxtpx:hr>124</gpxtpx:hr>
          </gpxtpx:TrackPointExtension>
        </extensions>
      </trkpt>
      <trkpt lat="49.37817" lon="1.04367">
        <ele>81.810134887695</ele>
        <time>2017-04-09T06:31:14.000Z</time>
        <extensions>
          <gpxtpx:TrackPointExtension xmlns:gpxtpx="http://www.garmin.com/xmlschemas/TrackPointExtension/v1">
            <gpxtpx:hr>147</gpxtpx:hr>
          </gpxtpx:TrackPointExtension>
        </extensions>
      </trkpt>
      <trkpt lat="49.37807" lon="1.04368">
        <ele>82.119537353516</ele>
        <time>2017-04-09T06:31:17.000Z</time>
      </trkpt>
      <trkpt lat="49.37803" lon="1.04369">
        <ele>82.441032409668</ele>
        <time>2017-04-09T06:31:19.000Z</time>
      </trkpt>
      <trkpt lat="49.37797" lon="1.04367">
        <ele>82.787376403809</ele>
        <time>2017-04-09T06:31:21.000Z</time>
      </trkpt>
      <trkpt lat="49.37787" lon="1.04362">
        <ele>83.179725646973</ele>
        <time>2017-04-09T06:31:24.000Z</time>
      </trkpt>
      <trkpt lat="49.37781" lon="1.04358">
        <ele>83.588150024414</ele>
        <time>2017-04-09T06:31:26.000Z</time>
      </trkpt>
      <trkpt lat="49.37775" lon="1.04355">
        <ele>83.993797302246</ele>
        <time>2017-04-09T06:31:28.000Z</time>
      </trkpt>
      <trkpt lat="49.37767" lon="1.04348">
        <ele>84.467445373535</ele>
        <time>2017-04-09T06:31:31.000Z</time>
      </trkpt>
      <trkpt lat="49.37762" lon="1.04344">
        <ele>84.964195251465</ele>
        <time>2017-04-09T06:31:33.000Z</time>
      </trkpt>
      <trkpt lat="49.37754" lon="1.04337">
        <ele>85.489761352539</ele>
        <time>2017-04-09T06:31:36.000Z</time>
      </trkpt>
      <trkpt lat="49.37744" lon="1.04329">
        <ele>85.976860046387</ele>
        <time>2017-04-09T06:31:39.000Z</time>
      </trkpt>
      <trkpt lat="49.37735" lon="1.04322">
        <ele>86.351707458496</ele>
        <time>2017-04-09T06:31:42.000Z</time>
      </trkpt>
      <trkpt lat="49.37727" lon="1.04314">
        <ele>86.585487365723</ele>
        <time>2017-04-09T06:31:45.000Z</time>
      </trkpt>
      <trkpt lat="49.37721" lon="1.04309">
        <ele>86.726829528809</ele>
        <time>2017-04-09T06:31:47.000Z</time>
      </trkpt>
      <trkpt lat="49.37717" lon="1.04307">
        <ele>86.71817779541</ele>
        <time>2017-04-09T06:31:49.000Z</time>
      </trkpt>
      <trkpt lat="49.37709" lon="1.04299">
        <ele>86.651321411133</ele>
        <time>2017-04-09T06:31:52.000Z</time>
      </trkpt>
      <trkpt lat="49.37704" lon="1.04291">
        <ele>86.605102539062</ele>
        <time>2017-04-09T06:31:54.000Z</time>
      </trkpt>
      <trkpt lat="49.37699" lon="1.04282">
        <ele>86.578857421875</ele>
        <time>2017-04-09T06:31:57.000Z</time>
      </trkpt>
      <trkpt lat="49.37695" lon="1.04276">
        <ele>86.559707641602</ele>
        <time>2017-04-09T06:31:59.000Z</time>
      </trkpt>
      <trkpt lat="49.37691" lon="1.04269">
        <ele>86.545120239258</ele>
        <time>2017-04-09T06:32:01.000Z</time>
      </trkpt>
      <trkpt lat="49.37686" lon="1.04257">
        <ele>86.545143127441</ele>
        <time>2017-04-09T06:32:04.000Z</time>
        <extensions>
          <gpxtpx:TrackPointExtension xmlns:gpxtpx="http://www.garmin.com/xmlschemas/TrackPointExtension/v1">
            <gpxtpx:hr>105</gpxtpx:hr>
          </gpxtpx:TrackPointExtension>
        </extensions>
      </trkpt>
      <trkpt lat="49.37682" lon="1.04247">
        <ele>86.555282592773</ele>
        <time>2017-04-09T06:32:06.000Z</time>
        <extensions>
          <gpxtpx:TrackPointExtension xmlns:gpxtpx="http://www.garmin.com/xmlschemas/TrackPointExtension/v1">
            <gpxtpx:hr>101</gpxtpx:hr>
          </gpxtpx:TrackPointExtension>
        </extensions>
      </trkpt>
      <trkpt lat="49.37675" lon="1.04234">
        <ele>86.574645996094</ele>
        <time>2017-04-09T06:32:09.000Z</time>
      </trkpt>
      <trkpt lat="49.37669" lon="1.04231">
        <ele>86.611488342285</ele>
        <time>2017-04-09T06:32:11.000Z</time>
        <extensions>
          <gpxtpx:TrackPointExtension xmlns:gpxtpx="http://www.garmin.com/xmlschemas/TrackPointExtension/v1">
            <gpxtpx:hr>130</gpxtpx:hr>
          </gpxtpx:TrackPointExtension>
        </extensions>
      </trkpt>
      <trkpt lat="49.37659" lon="1.04225">
        <ele>86.685264587402</ele>
        <time>2017-04-09T06:32:14.000Z</time>
        <extensions>
          <gpxtpx:TrackPointExtension xmlns:gpxtpx="http://www.garmin.com/xmlschemas/TrackPointExtension/v1">
            <gpxtpx:hr>115</gpxtpx:hr>
          </gpxtpx:TrackPointExtension>
        </extensions>
      </trkpt>
      <trkpt lat="49.37646" lon="1.04218">
        <ele>86.814002990723</ele>
        <time>2017-04-09T06:32:17.000Z</time>
      </trkpt>
      <trkpt lat="49.37637" lon="1.04215">
        <ele>86.981948852539</ele>
        <time>2017-04-09T06:32:19.000Z</time>
      </trkpt>
      <trkpt lat="49.37629" lon="1.04213">
        <ele>87.19157409668</ele>
        <time>2017-04-09T06:32:21.000Z</time>
      </trkpt>
      <trkpt lat="49.37618" lon="1.04212">
        <ele>87.441879272461</ele>
        <time>2017-04-09T06:32:24.000Z</time>
      </trkpt>
      <trkpt lat="49.3761" lon="1.04216">
        <ele>87.70532989502</ele>
        <time>2017-04-09T06:32:26.000Z</time>
      </trkpt>
      <trkpt lat="49.37601" lon="1.04226">
        <ele>87.962364196777</ele>
        <time>2017-04-09T06:32:29.000Z</time>
      </trkpt>
      <trkpt lat="49.37594" lon="1.04231">
        <ele>88.218017578125</ele>
        <time>2017-04-09T06:32:32.000Z</time>
      </trkpt>
      <trkpt lat="49.37586" lon="1.0423">
        <ele>88.467819213867</ele>
        <time>2017-04-09T06:32:34.000Z</time>
      </trkpt>
      <trkpt lat="49.37579" lon="1.04227">
        <ele>88.671798706055</ele>
        <time>2017-04-09T06:32:36.000Z</time>
      </trkpt>
      <trkpt lat="49.37569" lon="1.04217">
        <ele>88.811363220215</ele>
        <time>2017-04-09T06:32:39.000Z</time>
      </trkpt>
      <trkpt lat="49.37557" lon="1.04202">
        <ele>88.874618530273</ele>
        <time>2017-04-09T06:32:42.000Z</time>
      </trkpt>
      <trkpt lat="49.37551" lon="1.0419">
        <ele>88.876289367676</ele>
        <time>2017-04-09T06:32:44.000Z</time>
      </trkpt>
      <trkpt lat="49.3755" lon="1.04174">
        <ele>88.819496154785</ele>
        <time>2017-04-09T06:32:46.000Z</time>
      </trkpt>
      <trkpt lat="49.3755" lon="1.04161">
        <ele>88.65518951416</ele>
        <time>2017-04-09T06:32:48.000Z</time>
      </trkpt>
      <trkpt lat="49.37548" lon="1.04149">
        <ele>88.288772583008</ele>
        <time>2017-04-09T06:32:50.000Z</time>
      </trkpt>
      <trkpt lat="49.37541" lon="1.04129">
        <ele>87.593559265137</ele>
        <time>2017-04-09T06:32:53.000Z</time>
      </trkpt>
      <trkpt lat="49.37535" lon="1.04118">
        <ele>86.707801818848</ele>
        <time>2017-04-09T06:32:56.000Z</time>
      </trkpt>
      <trkpt lat="49.37531" lon="1.04109">
        <ele>85.689346313477</ele>
        <time>2017-04-09T06:32:59.000Z</time>
      </trkpt>
      <trkpt lat="49.37527" lon="1.04106">
        <ele>84.699523925781</ele>
        <time>2017-04-09T06:33:01.000Z</time>
        <extensions>
          <gpxtpx:TrackPointExtension xmlns:gpxtpx="http://www.garmin.com/xmlschemas/TrackPointExtension/v1">
            <gpxtpx:hr>80</gpxtpx:hr>
          </gpxtpx:TrackPointExtension>
        </extensions>
      </trkpt>
      <trkpt lat="49.37523" lon="1.04101">
        <ele>83.828491210938</ele>
        <time>2017-04-09T06:33:04.000Z</time>
        <extensions>
          <gpxtpx:TrackPointExtension xmlns:gpxtpx="http://www.garmin.com/xmlschemas/TrackPointExtension/v1">
            <gpxtpx:hr>93</gpxtpx:hr>
          </gpxtpx:TrackPointExtension>
        </extensions>
      </trkpt>
      <trkpt lat="49.37524" lon="1.04092">
        <ele>83.167984008789</ele>
        <time>2017-04-09T06:33:07.000Z</time>
        <extensions>
          <gpxtpx:TrackPointExtension xmlns:gpxtpx="http://www.garmin.com/xmlschemas/TrackPointExtension/v1">
            <gpxtpx:hr>88</gpxtpx:hr>
          </gpxtpx:TrackPointExtension>
        </extensions>
      </trkpt>
      <trkpt lat="49.37527" lon="1.04084">
        <ele>82.581481933594</ele>
        <time>2017-04-09T06:33:09.000Z</time>
        <extensions>
          <gpxtpx:TrackPointExtension xmlns:gpxtpx="http://www.garmin.com/xmlschemas/TrackPointExtension/v1">
            <gpxtpx:hr>114</gpxtpx:hr>
          </gpxtpx:TrackPointExtension>
        </extensions>
      </trkpt>
      <trkpt lat="49.37532" lon="1.0408">
        <ele>82.116676330566</ele>
        <time>2017-04-09T06:33:11.000Z</time>
        <extensions>
          <gpxtpx:TrackPointExtension xmlns:gpxtpx="http://www.garmin.com/xmlschemas/TrackPointExtension/v1">
            <gpxtpx:hr>99</gpxtpx:hr>
          </gpxtpx:TrackPointExtension>
        </extensions>
      </trkpt>
      <trkpt lat="49.37543" lon="1.04084">
        <ele>81.781959533691</ele>
        <time>2017-04-09T06:33:14.000Z</time>
        <extensions>
          <gpxtpx:TrackPointExtension xmlns:gpxtpx="http://www.garmin.com/xmlschemas/TrackPointExtension/v1">
            <gpxtpx:hr>75</gpxtpx:hr>
          </gpxtpx:TrackPointExtension>
        </extensions>
      </trkpt>
      <trkpt lat="49.37549" lon="1.04081">
        <ele>81.523086547852</ele>
        <time>2017-04-09T06:33:16.000Z</time>
      </trkpt>
      <trkpt lat="49.37553" lon="1.04077">
        <ele>81.362808227539</ele>
        <time>2017-04-09T06:33:18.000Z</time>
        <extensions>
          <gpxtpx:TrackPointExtension xmlns:gpxtpx="http://www.garmin.com/xmlschemas/TrackPointExtension/v1">
            <gpxtpx:hr>102</gpxtpx:hr>
          </gpxtpx:TrackPointExtension>
        </extensions>
      </trkpt>
      <trkpt lat="49.37552" lon="1.04058">
        <ele>81.102462768555</ele>
        <time>2017-04-09T06:33:21.000Z</time>
      </trkpt>
      <trkpt lat="49.37552" lon="1.04044">
        <ele>80.694229125977</ele>
        <time>2017-04-09T06:33:24.000Z</time>
      </trkpt>
      <trkpt lat="49.37563" lon="1.04026">
        <ele>79.942047119141</ele>
        <time>2017-04-09T06:33:27.000Z</time>
      </trkpt>
      <trkpt lat="49.37571" lon="1.04006">
        <ele>78.861289978027</ele>
        <time>2017-04-09T06:33:30.000Z</time>
      </trkpt>
      <trkpt lat="49.37573" lon="1.03999">
        <ele>77.696182250977</ele>
        <time>2017-04-09T06:33:32.000Z</time>
      </trkpt>
      <trkpt lat="49.37582" lon="1.03981">
        <ele>76.472885131836</ele>
        <time>2017-04-09T06:33:35.000Z</time>
      </trkpt>
      <trkpt lat="49.37584" lon="1.03973">
        <ele>75.316673278809</ele>
        <time>2017-04-09T06:33:37.000Z</time>
      </trkpt>
      <trkpt lat="49.37592" lon="1.03962">
        <ele>74.313400268555</ele>
        <time>2017-04-09T06:33:40.000Z</time>
      </trkpt>
      <trkpt lat="49.37597" lon="1.03949">
        <ele>73.479766845703</ele>
        <time>2017-04-09T06:33:43.000Z</time>
      </trkpt>
      <trkpt lat="49.37602" lon="1.03943">
        <ele>72.681419372559</ele>
        <time>2017-04-09T06:33:45.000Z</time>
      </trkpt>
      <trkpt lat="49.37608" lon="1.03939">
        <ele>72.107749938965</ele>
        <time>2017-04-09T06:33:48.000Z</time>
      </trkpt>
      <trkpt lat="49.37615" lon="1.03937">
        <ele>71.587692260742</ele>
        <time>2017-04-09T06:33:51.000Z</time>
      </trkpt>
      <trkpt lat="49.37623" lon="1.03933">
        <ele>71.108001708984</ele>
        <time>2017-04-09T06:33:54.000Z</time>
      </trkpt>
      <trkpt lat="49.3763" lon="1.03929">
        <ele>70.714096069336</ele>
        <time>2017-04-09T06:33:56.000Z</time>
      </trkpt>
      <trkpt lat="49.37637" lon="1.03925">
        <ele>70.328689575195</ele>
        <time>2017-04-09T06:33:58.000Z</time>
      </trkpt>
      <trkpt lat="49.37646" lon="1.03924">
        <ele>69.948089599609</ele>
        <time>2017-04-09T06:34:01.000Z</time>
        <extensions>
          <gpxtpx:TrackPointExtension xmlns:gpxtpx="http://www.garmin.com/xmlschemas/TrackPointExtension/v1">
            <gpxtpx:hr>70</gpxtpx:hr>
          </gpxtpx:TrackPointExtension>
        </extensions>
      </trkpt>
      <trkpt lat="49.37656" lon="1.03918">
        <ele>69.471725463867</ele>
        <time>2017-04-09T06:34:04.000Z</time>
        <extensions>
          <gpxtpx:TrackPointExtension xmlns:gpxtpx="http://www.garmin.com/xmlschemas/TrackPointExtension/v1">
            <gpxtpx:hr>64</gpxtpx:hr>
          </gpxtpx:TrackPointExtension>
        </extensions>
      </trkpt>
      <trkpt lat="49.37664" lon="1.0391">
        <ele>68.792945861816</ele>
        <time>2017-04-09T06:34:07.000Z</time>
        <extensions>
          <gpxtpx:TrackPointExtension xmlns:gpxtpx="http://www.garmin.com/xmlschemas/TrackPointExtension/v1">
            <gpxtpx:hr>70</gpxtpx:hr>
          </gpxtpx:TrackPointExtension>
        </extensions>
      </trkpt>
      <trkpt lat="49.37668" lon="1.03903">
        <ele>67.986320495605</ele>
        <time>2017-04-09T06:34:09.000Z</time>
        <extensions>
          <gpxtpx:TrackPointExtension xmlns:gpxtpx="http://www.garmin.com/xmlschemas/TrackPointExtension/v1">
            <gpxtpx:hr>77</gpxtpx:hr>
          </gpxtpx:TrackPointExtension>
        </extensions>
      </trkpt>
      <trkpt lat="49.37675" lon="1.03898">
        <ele>67.06209564209</ele>
        <time>2017-04-09T06:34:11.000Z</time>
      </trkpt>
      <trkpt lat="49.37681" lon="1.03897">
        <ele>66.156509399414</ele>
        <time>2017-04-09T06:34:13.000Z</time>
      </trkpt>
      <trkpt lat="49.37685" lon="1.03902">
        <ele>65.544357299805</ele>
        <time>2017-04-09T06:34:16.000Z</time>
        <extensions>
          <gpxtpx:TrackPointExtension xmlns:gpxtpx="http://www.garmin.com/xmlschemas/TrackPointExtension/v1">
            <gpxtpx:hr>94</gpxtpx:hr>
          </gpxtpx:TrackPointExtension>
        </extensions>
      </trkpt>
      <trkpt lat="49.37687" lon="1.03905">
        <ele>65.286117553711</ele>
        <time>2017-04-09T06:34:18.000Z</time>
      </trkpt>
      <trkpt lat="49.3769" lon="1.03905">
        <ele>65.235275268555</ele>
        <time>2017-04-09T06:34:23.000Z</time>
      </trkpt>
      <trkpt lat="49.37698" lon="1.03899">
        <ele>65.199844360352</ele>
        <time>2017-04-09T06:34:26.000Z</time>
      </trkpt>
      <trkpt lat="49.37705" lon="1.03897">
        <ele>65.131332397461</ele>
        <time>2017-04-09T06:34:28.000Z</time>
      </trkpt>
      <trkpt lat="49.37711" lon="1.03897">
        <ele>64.904769897461</ele>
        <time>2017-04-09T06:34:30.000Z</time>
      </trkpt>
      <trkpt lat="49.37722" lon="1.03893">
        <ele>64.501335144043</ele>
        <time>2017-04-09T06:34:33.000Z</time>
      </trkpt>
      <trkpt lat="49.37732" lon="1.03899">
        <ele>64.18660736084</ele>
        <time>2017-04-09T06:34:36.000Z</time>
      </trkpt>
      <trkpt lat="49.37739" lon="1.03903">
        <ele>64.094436645508</ele>
        <time>2017-04-09T06:34:39.000Z</time>
      </trkpt>
      <trkpt lat="49.37745" lon="1.03904">
        <ele>64.074569702148</ele>
        <time>2017-04-09T06:34:41.000Z</time>
      </trkpt>
      <trkpt lat="49.37754" lon="1.03906">
        <ele>64.060562133789</ele>
        <time>2017-04-09T06:34:44.000Z</time>
      </trkpt>
      <trkpt lat="49.37762" lon="1.03903">
        <ele>64.103736877441</ele>
        <time>2017-04-09T06:34:46.000Z</time>
      </trkpt>
      <trkpt lat="49.3777" lon="1.03896">
        <ele>63.946632385254</ele>
        <time>2017-04-09T06:34:49.000Z</time>
      </trkpt>
      <trkpt lat="49.37774" lon="1.03887">
        <ele>63.607830047607</ele>
        <time>2017-04-09T06:34:51.000Z</time>
      </trkpt>
      <trkpt lat="49.37777" lon="1.03879">
        <ele>63.157653808594</ele>
        <time>2017-04-09T06:34:53.000Z</time>
      </trkpt>
      <trkpt lat="49.37774" lon="1.03869">
        <ele>62.582153320312</ele>
        <time>2017-04-09T06:34:56.000Z</time>
      </trkpt>
      <trkpt lat="49.37769" lon="1.03861">
        <ele>61.961883544922</ele>
        <time>2017-04-09T06:34:58.000Z</time>
      </trkpt>
      <trkpt lat="49.37765" lon="1.03858">
        <ele>61.434234619141</ele>
        <time>2017-04-09T06:35:00.000Z</time>
        <extensions>
          <gpxtpx:TrackPointExtension xmlns:gpxtpx="http://www.garmin.com/xmlschemas/TrackPointExtension/v1">
            <gpxtpx:hr>102</gpxtpx:hr>
          </gpxtpx:TrackPointExtension>
        </extensions>
      </trkpt>
      <trkpt lat="49.37761" lon="1.03859">
        <ele>61.066070556641</ele>
        <time>2017-04-09T06:35:02.000Z</time>
      </trkpt>
      <trkpt lat="49.37753" lon="1.03856">
        <ele>60.795318603516</ele>
        <time>2017-04-09T06:35:05.000Z</time>
        <extensions>
          <gpxtpx:TrackPointExtension xmlns:gpxtpx="http://www.garmin.com/xmlschemas/TrackPointExtension/v1">
            <gpxtpx:hr>70</gpxtpx:hr>
          </gpxtpx:TrackPointExtension>
        </extensions>
      </trkpt>
      <trkpt lat="49.37748" lon="1.03856">
        <ele>60.661632537842</ele>
        <time>2017-04-09T06:35:07.000Z</time>
        <extensions>
          <gpxtpx:TrackPointExtension xmlns:gpxtpx="http://www.garmin.com/xmlschemas/TrackPointExtension/v1">
            <gpxtpx:hr>82</gpxtpx:hr>
          </gpxtpx:TrackPointExtension>
        </extensions>
      </trkpt>
      <trkpt lat="49.37742" lon="1.03856">
        <ele>60.595447540283</ele>
        <time>2017-04-09T06:35:10.000Z</time>
        <extensions>
          <gpxtpx:TrackPointExtension xmlns:gpxtpx="http://www.garmin.com/xmlschemas/TrackPointExtension/v1">
            <gpxtpx:hr>107</gpxtpx:hr>
          </gpxtpx:TrackPointExtension>
        </extensions>
      </trkpt>
      <trkpt lat="49.37733" lon="1.03854">
        <ele>60.477172851562</ele>
        <time>2017-04-09T06:35:13.000Z</time>
        <extensions>
          <gpxtpx:TrackPointExtension xmlns:gpxtpx="http://www.garmin.com/xmlschemas/TrackPointExtension/v1">
            <gpxtpx:hr>96</gpxtpx:hr>
          </gpxtpx:TrackPointExtension>
        </extensions>
      </trkpt>
      <trkpt lat="49.37724" lon="1.03853">
        <ele>60.275196075439</ele>
        <time>2017-04-09T06:35:16.000Z</time>
        <extensions>
          <gpxtpx:TrackPointExtension xmlns:gpxtpx="http://www.garmin.com/xmlschemas/TrackPointExtension/v1">
            <gpxtpx:hr>103</gpxtpx:hr>
          </gpxtpx:TrackPointExtension>
        </extensions>
      </trkpt>
      <trkpt lat="49.37717" lon="1.03854">
        <ele>60.07755279541</ele>
        <time>2017-04-09T06:35:19.000Z</time>
      </trkpt>
      <trkpt lat="49.37709" lon="1.03855">
        <ele>59.855506896973</ele>
        <time>2017-04-09T06:35:22.000Z</time>
      </trkpt>
      <trkpt lat="49.37702" lon="1.03856">
        <ele>59.639354705811</ele>
        <time>2017-04-09T06:35:24.000Z</time>
      </trkpt>
      <trkpt lat="49.37696" lon="1.03856">
        <ele>59.499061584473</ele>
        <time>2017-04-09T06:35:26.000Z</time>
      </trkpt>
      <trkpt lat="49.37686" lon="1.03858">
        <ele>59.414115905762</ele>
        <time>2017-04-09T06:35:29.000Z</time>
      </trkpt>
      <trkpt lat="49.37675" lon="1.03857">
        <ele>59.269035339355</ele>
        <time>2017-04-09T06:35:32.000Z</time>
      </trkpt>
      <trkpt lat="49.37667" lon="1.03854">
        <ele>59.017578125</ele>
        <time>2017-04-09T06:35:34.000Z</time>
      </trkpt>
      <trkpt lat="49.37661" lon="1.03845">
        <ele>58.543346405029</ele>
        <time>2017-04-09T06:35:37.000Z</time>
      </trkpt>
      <trkpt lat="49.3766" lon="1.03837">
        <ele>57.839740753174</ele>
        <time>2017-04-09T06:35:39.000Z</time>
      </trkpt>
      <trkpt lat="49.37659" lon="1.03834">
        <ele>57.093910217285</ele>
        <time>2017-04-09T06:35:41.000Z</time>
      </trkpt>
      <trkpt lat="49.37655" lon="1.03835">
        <ele>56.48705291748</ele>
        <time>2017-04-09T06:35:44.000Z</time>
      </trkpt>
      <trkpt lat="49.37651" lon="1.03838">
        <ele>56.116554260254</ele>
        <time>2017-04-09T06:35:46.000Z</time>
      </trkpt>
      <trkpt lat="49.37643" lon="1.03843">
        <ele>56.225456237793</ele>
        <time>2017-04-09T06:35:49.000Z</time>
      </trkpt>
      <trkpt lat="49.37636" lon="1.03845">
        <ele>56.700492858887</ele>
        <time>2017-04-09T06:35:51.000Z</time>
      </trkpt>
      <trkpt lat="49.37627" lon="1.03847">
        <ele>57.357902526855</ele>
        <time>2017-04-09T06:35:54.000Z</time>
      </trkpt>
      <trkpt lat="49.37621" lon="1.03847">
        <ele>58.014793395996</ele>
        <time>2017-04-09T06:35:56.000Z</time>
      </trkpt>
      <trkpt lat="49.37614" lon="1.03845">
        <ele>58.578491210938</ele>
        <time>2017-04-09T06:35:58.000Z</time>
      </trkpt>
      <trkpt lat="49.37607" lon="1.03843">
        <ele>58.899971008301</ele>
        <time>2017-04-09T06:36:00.000Z</time>
        <extensions>
          <gpxtpx:TrackPointExtension xmlns:gpxtpx="http://www.garmin.com/xmlschemas/TrackPointExtension/v1">
            <gpxtpx:hr>95</gpxtpx:hr>
          </gpxtpx:TrackPointExtension>
        </extensions>
      </trkpt>
      <trkpt lat="49.376" lon="1.03838">
        <ele>59.025573730469</ele>
        <time>2017-04-09T06:36:02.000Z</time>
        <extensions>
          <gpxtpx:TrackPointExtension xmlns:gpxtpx="http://www.garmin.com/xmlschemas/TrackPointExtension/v1">
            <gpxtpx:hr>80</gpxtpx:hr>
          </gpxtpx:TrackPointExtension>
        </extensions>
      </trkpt>
      <trkpt lat="49.37592" lon="1.03832">
        <ele>58.984485626221</ele>
        <time>2017-04-09T06:36:05.000Z</time>
        <extensions>
          <gpxtpx:TrackPointExtension xmlns:gpxtpx="http://www.garmin.com/xmlschemas/TrackPointExtension/v1">
            <gpxtpx:hr>80</gpxtpx:hr>
          </gpxtpx:TrackPointExtension>
        </extensions>
      </trkpt>
      <trkpt lat="49.37587" lon="1.0383">
        <ele>58.933765411377</ele>
        <time>2017-04-09T06:36:07.000Z</time>
      </trkpt>
      <trkpt lat="49.37579" lon="1.0383">
        <ele>59.034961700439</ele>
        <time>2017-04-09T06:36:10.000Z</time>
        <extensions>
          <gpxtpx:TrackPointExtension xmlns:gpxtpx="http://www.garmin.com/xmlschemas/TrackPointExtension/v1">
            <gpxtpx:hr>97</gpxtpx:hr>
          </gpxtpx:TrackPointExtension>
        </extensions>
      </trkpt>
      <trkpt lat="49.37574" lon="1.03833">
        <ele>59.261329650879</ele>
        <time>2017-04-09T06:36:12.000Z</time>
        <extensions>
          <gpxtpx:TrackPointExtension xmlns:gpxtpx="http://www.garmin.com/xmlschemas/TrackPointExtension/v1">
            <gpxtpx:hr>84</gpxtpx:hr>
          </gpxtpx:TrackPointExtension>
        </extensions>
      </trkpt>
      <trkpt lat="49.37572" lon="1.03837">
        <ele>59.708152770996</ele>
        <time>2017-04-09T06:36:14.000Z</time>
      </trkpt>
      <trkpt lat="49.37571" lon="1.0384">
        <ele>60.31664276123</ele>
        <time>2017-04-09T06:36:17.000Z</time>
      </trkpt>
      <trkpt lat="49.37569" lon="1.03841">
        <ele>60.961547851562</ele>
        <time>2017-04-09T06:36:19.000Z</time>
      </trkpt>
      <trkpt lat="49.37566" lon="1.03843">
        <ele>61.566139221191</ele>
        <time>2017-04-09T06:36:21.000Z</time>
      </trkpt>
      <trkpt lat="49.37562" lon="1.03846">
        <ele>62.256217956543</ele>
        <time>2017-04-09T06:36:24.000Z</time>
      </trkpt>
      <trkpt lat="49.37559" lon="1.0385">
        <ele>62.985618591309</ele>
        <time>2017-04-09T06:36:27.000Z</time>
      </trkpt>
      <trkpt lat="49.37555" lon="1.03851">
        <ele>63.709289550781</ele>
        <time>2017-04-09T06:36:30.000Z</time>
      </trkpt>
      <trkpt lat="49.37551" lon="1.03849">
        <ele>64.408020019531</ele>
        <time>2017-04-09T06:36:32.000Z</time>
      </trkpt>
      <trkpt lat="49.37547" lon="1.03848">
        <ele>65.061134338379</ele>
        <time>2017-04-09T06:36:35.000Z</time>
      </trkpt>
      <trkpt lat="49.37546" lon="1.03849">
        <ele>65.583320617676</ele>
        <time>2017-04-09T06:36:37.000Z</time>
      </trkpt>
      <trkpt lat="49.37543" lon="1.03851">
        <ele>66.016662597656</ele>
        <time>2017-04-09T06:36:40.000Z</time>
      </trkpt>
      <trkpt lat="49.37541" lon="1.03853">
        <ele>66.450012207031</ele>
        <time>2017-04-09T06:36:43.000Z</time>
      </trkpt>
      <trkpt lat="49.37538" lon="1.03856">
        <ele>66.978317260742</ele>
        <time>2017-04-09T06:36:46.000Z</time>
      </trkpt>
      <trkpt lat="49.37536" lon="1.03857">
        <ele>67.511268615723</ele>
        <time>2017-04-09T06:36:48.000Z</time>
      </trkpt>
      <trkpt lat="49.37532" lon="1.03859">
        <ele>68.118743896484</ele>
        <time>2017-04-09T06:36:51.000Z</time>
      </trkpt>
      <trkpt lat="49.37531" lon="1.03859">
        <ele>68.668487548828</ele>
        <time>2017-04-09T06:36:53.000Z</time>
      </trkpt>
      <trkpt lat="49.37528" lon="1.03859">
        <ele>69.160049438477</ele>
        <time>2017-04-09T06:36:55.000Z</time>
      </trkpt>
      <trkpt lat="49.37523" lon="1.03857">
        <ele>69.588775634766</ele>
        <time>2017-04-09T06:36:58.000Z</time>
      </trkpt>
      <trkpt lat="49.37519" lon="1.03855">
        <ele>69.99235534668</ele>
        <time>2017-04-09T06:37:01.000Z</time>
      </trkpt>
      <trkpt lat="49.37515" lon="1.03855">
        <ele>70.366600036621</ele>
        <time>2017-04-09T06:37:03.000Z</time>
        <extensions>
          <gpxtpx:TrackPointExtension xmlns:gpxtpx="http://www.garmin.com/xmlschemas/TrackPointExtension/v1">
            <gpxtpx:hr>118</gpxtpx:hr>
          </gpxtpx:TrackPointExtension>
        </extensions>
      </trkpt>
      <trkpt lat="49.37509" lon="1.03858">
        <ele>70.928588867188</ele>
        <time>2017-04-09T06:37:06.000Z</time>
        <extensions>
          <gpxtpx:TrackPointExtension xmlns:gpxtpx="http://www.garmin.com/xmlschemas/TrackPointExtension/v1">
            <gpxtpx:hr>84</gpxtpx:hr>
          </gpxtpx:TrackPointExtension>
        </extensions>
      </trkpt>
      <trkpt lat="49.37505" lon="1.03858">
        <ele>71.561233520508</ele>
        <time>2017-04-09T06:37:08.000Z</time>
        <extensions>
          <gpxtpx:TrackPointExtension xmlns:gpxtpx="http://www.garmin.com/xmlschemas/TrackPointExtension/v1">
            <gpxtpx:hr>97</gpxtpx:hr>
          </gpxtpx:TrackPointExtension>
        </extensions>
      </trkpt>
      <trkpt lat="49.37499" lon="1.03855">
        <ele>72.175132751465</ele>
        <time>2017-04-09T06:37:11.000Z</time>
        <extensions>
          <gpxtpx:TrackPointExtension xmlns:gpxtpx="http://www.garmin.com/xmlschemas/TrackPointExtension/v1">
            <gpxtpx:hr>114</gpxtpx:hr>
          </gpxtpx:TrackPointExtension>
        </extensions>
      </trkpt>
      <trkpt lat="49.37495" lon="1.03853">
        <ele>72.796226501465</ele>
        <time>2017-04-09T06:37:13.000Z</time>
      </trkpt>
      <trkpt lat="49.37491" lon="1.03851">
        <ele>73.382568359375</ele>
        <time>2017-04-09T06:37:15.000Z</time>
        <extensions>
          <gpxtpx:TrackPointExtension xmlns:gpxtpx="http://www.garmin.com/xmlschemas/TrackPointExtension/v1">
            <gpxtpx:hr>92</gpxtpx:hr>
          </gpxtpx:TrackPointExtension>
        </extensions>
      </trkpt>
      <trkpt lat="49.37487" lon="1.03848">
        <ele>73.805122375488</ele>
        <time>2017-04-09T06:37:17.000Z</time>
        <extensions>
          <gpxtpx:TrackPointExtension xmlns:gpxtpx="http://www.garmin.com/xmlschemas/TrackPointExtension/v1">
            <gpxtpx:hr>76</gpxtpx:hr>
          </gpxtpx:TrackPointExtension>
        </extensions>
      </trkpt>
      <trkpt lat="49.37484" lon="1.03846">
        <ele>74.126022338867</ele>
        <time>2017-04-09T06:37:19.000Z</time>
        <extensions>
          <gpxtpx:TrackPointExtension xmlns:gpxtpx="http://www.garmin.com/xmlschemas/TrackPointExtension/v1">
            <gpxtpx:hr>134</gpxtpx:hr>
          </gpxtpx:TrackPointExtension>
        </extensions>
      </trkpt>
      <trkpt lat="49.37479" lon="1.03842">
        <ele>74.456321716309</ele>
        <time>2017-04-09T06:37:22.000Z</time>
      </trkpt>
      <trkpt lat="49.37475" lon="1.03839">
        <ele>74.794006347656</ele>
        <time>2017-04-09T06:37:24.000Z</time>
      </trkpt>
      <trkpt lat="49.37472" lon="1.03836">
        <ele>75.083045959473</ele>
        <time>2017-04-09T06:37:26.000Z</time>
      </trkpt>
      <trkpt lat="49.37468" lon="1.03832">
        <ele>75.339736938477</ele>
        <time>2017-04-09T06:37:29.000Z</time>
      </trkpt>
      <trkpt lat="49.37463" lon="1.03828">
        <ele>75.621475219727</ele>
        <time>2017-04-09T06:37:32.000Z</time>
      </trkpt>
      <trkpt lat="49.37459" lon="1.03823">
        <ele>75.852294921875</ele>
        <time>2017-04-09T06:37:35.000Z</time>
      </trkpt>
      <trkpt lat="49.37455" lon="1.03821">
        <ele>76.059860229492</ele>
        <time>2017-04-09T06:37:37.000Z</time>
      </trkpt>
      <trkpt lat="49.37449" lon="1.03818">
        <ele>76.362693786621</ele>
        <time>2017-04-09T06:37:40.000Z</time>
      </trkpt>
      <trkpt lat="49.37447" lon="1.03817">
        <ele>76.662750244141</ele>
        <time>2017-04-09T06:37:42.000Z</time>
      </trkpt>
      <trkpt lat="49.37442" lon="1.03817">
        <ele>77.045104980469</ele>
        <time>2017-04-09T06:37:45.000Z</time>
      </trkpt>
      <trkpt lat="49.37437" lon="1.03815">
        <ele>77.48323059082</ele>
        <time>2017-04-09T06:37:47.000Z</time>
      </trkpt>
      <trkpt lat="49.37432" lon="1.03812">
        <ele>77.94474029541</ele>
        <time>2017-04-09T06:37:50.000Z</time>
      </trkpt>
      <trkpt lat="49.37428" lon="1.0381">
        <ele>78.321716308594</ele>
        <time>2017-04-09T06:37:52.000Z</time>
      </trkpt>
      <trkpt lat="49.37423" lon="1.03808">
        <ele>78.73291015625</ele>
        <time>2017-04-09T06:37:54.000Z</time>
      </trkpt>
      <trkpt lat="49.37418" lon="1.03803">
        <ele>79.033874511719</ele>
        <time>2017-04-09T06:37:57.000Z</time>
      </trkpt>
      <trkpt lat="49.37411" lon="1.03799">
        <ele>79.252365112305</ele>
        <time>2017-04-09T06:38:00.000Z</time>
        <extensions>
          <gpxtpx:TrackPointExtension xmlns:gpxtpx="http://www.garmin.com/xmlschemas/TrackPointExtension/v1">
            <gpxtpx:hr>102</gpxtpx:hr>
          </gpxtpx:TrackPointExtension>
        </extensions>
      </trkpt>
      <trkpt lat="49.37405" lon="1.03796">
        <ele>79.434768676758</ele>
        <time>2017-04-09T06:38:02.000Z</time>
        <extensions>
          <gpxtpx:TrackPointExtension xmlns:gpxtpx="http://www.garmin.com/xmlschemas/TrackPointExtension/v1">
            <gpxtpx:hr>104</gpxtpx:hr>
          </gpxtpx:TrackPointExtension>
        </extensions>
      </trkpt>
      <trkpt lat="49.37398" lon="1.03789">
        <ele>79.558982849121</ele>
        <time>2017-04-09T06:38:05.000Z</time>
        <extensions>
          <gpxtpx:TrackPointExtension xmlns:gpxtpx="http://www.garmin.com/xmlschemas/TrackPointExtension/v1">
            <gpxtpx:hr>96</gpxtpx:hr>
          </gpxtpx:TrackPointExtension>
        </extensions>
      </trkpt>
      <trkpt lat="49.37391" lon="1.03782">
        <ele>79.563064575195</ele>
        <time>2017-04-09T06:38:08.000Z</time>
      </trkpt>
      <trkpt lat="49.37385" lon="1.03775">
        <ele>79.546630859375</ele>
        <time>2017-04-09T06:38:10.000Z</time>
        <extensions>
          <gpxtpx:TrackPointExtension xmlns:gpxtpx="http://www.garmin.com/xmlschemas/TrackPointExtension/v1">
            <gpxtpx:hr>57</gpxtpx:hr>
          </gpxtpx:TrackPointExtension>
        </extensions>
      </trkpt>
      <trkpt lat="49.37376" lon="1.03764">
        <ele>79.49048614502</ele>
        <time>2017-04-09T06:38:13.000Z</time>
        <extensions>
          <gpxtpx:TrackPointExtension xmlns:gpxtpx="http://www.garmin.com/xmlschemas/TrackPointExtension/v1">
            <gpxtpx:hr>119</gpxtpx:hr>
          </gpxtpx:TrackPointExtension>
        </extensions>
      </trkpt>
      <trkpt lat="49.37371" lon="1.03756">
        <ele>79.374603271484</ele>
        <time>2017-04-09T06:38:15.000Z</time>
      </trkpt>
      <trkpt lat="49.37366" lon="1.0375">
        <ele>79.284721374512</ele>
        <time>2017-04-09T06:38:17.000Z</time>
      </trkpt>
      <trkpt lat="49.37358" lon="1.03741">
        <ele>79.301284790039</ele>
        <time>2017-04-09T06:38:20.000Z</time>
      </trkpt>
      <trkpt lat="49.37354" lon="1.03732">
        <ele>79.257888793945</ele>
        <time>2017-04-09T06:38:22.000Z</time>
      </trkpt>
      <trkpt lat="49.37345" lon="1.03719">
        <ele>79.179512023926</ele>
        <time>2017-04-09T06:38:25.000Z</time>
      </trkpt>
      <trkpt lat="49.37337" lon="1.03706">
        <ele>78.995628356934</ele>
        <time>2017-04-09T06:38:27.000Z</time>
      </trkpt>
      <trkpt lat="49.37328" lon="1.03692">
        <ele>78.620704650879</ele>
        <time>2017-04-09T06:38:29.000Z</time>
      </trkpt>
      <trkpt lat="49.3731" lon="1.03672">
        <ele>77.882888793945</ele>
        <time>2017-04-09T06:38:32.000Z</time>
      </trkpt>
      <trkpt lat="49.37295" lon="1.03662">
        <ele>77.118759155273</ele>
        <time>2017-04-09T06:38:34.000Z</time>
      </trkpt>
      <trkpt lat="49.37278" lon="1.03653">
        <ele>76.374412536621</ele>
        <time>2017-04-09T06:38:36.000Z</time>
      </trkpt>
      <trkpt lat="49.37255" lon="1.03632">
        <ele>75.463897705078</ele>
        <time>2017-04-09T06:38:39.000Z</time>
      </trkpt>
      <trkpt lat="49.37239" lon="1.03618">
        <ele>74.590797424316</ele>
        <time>2017-04-09T06:38:41.000Z</time>
      </trkpt>
      <trkpt lat="49.37226" lon="1.03606">
        <ele>73.922004699707</ele>
        <time>2017-04-09T06:38:43.000Z</time>
      </trkpt>
      <trkpt lat="49.37209" lon="1.03595">
        <ele>73.362503051758</ele>
        <time>2017-04-09T06:38:46.000Z</time>
      </trkpt>
      <trkpt lat="49.372" lon="1.03586">
        <ele>72.827011108398</ele>
        <time>2017-04-09T06:38:48.000Z</time>
      </trkpt>
      <trkpt lat="49.3719" lon="1.03576">
        <ele>72.617530822754</ele>
        <time>2017-04-09T06:38:50.000Z</time>
      </trkpt>
      <trkpt lat="49.37176" lon="1.03563">
        <ele>72.61450958252</ele>
        <time>2017-04-09T06:38:53.000Z</time>
      </trkpt>
      <trkpt lat="49.37167" lon="1.03556">
        <ele>72.73046875</ele>
        <time>2017-04-09T06:38:55.000Z</time>
      </trkpt>
      <trkpt lat="49.37157" lon="1.03551">
        <ele>72.897193908691</ele>
        <time>2017-04-09T06:38:57.000Z</time>
      </trkpt>
      <trkpt lat="49.37144" lon="1.0354">
        <ele>73.112701416016</ele>
        <time>2017-04-09T06:39:00.000Z</time>
        <extensions>
          <gpxtpx:TrackPointExtension xmlns:gpxtpx="http://www.garmin.com/xmlschemas/TrackPointExtension/v1">
            <gpxtpx:hr>100</gpxtpx:hr>
          </gpxtpx:TrackPointExtension>
        </extensions>
      </trkpt>
      <trkpt lat="49.37136" lon="1.03535">
        <ele>73.306289672852</ele>
        <time>2017-04-09T06:39:02.000Z</time>
        <extensions>
          <gpxtpx:TrackPointExtension xmlns:gpxtpx="http://www.garmin.com/xmlschemas/TrackPointExtension/v1">
            <gpxtpx:hr>73</gpxtpx:hr>
          </gpxtpx:TrackPointExtension>
        </extensions>
      </trkpt>
      <trkpt lat="49.37129" lon="1.03529">
        <ele>73.410446166992</ele>
        <time>2017-04-09T06:39:04.000Z</time>
        <extensions>
          <gpxtpx:TrackPointExtension xmlns:gpxtpx="http://www.garmin.com/xmlschemas/TrackPointExtension/v1">
            <gpxtpx:hr>86</gpxtpx:hr>
          </gpxtpx:TrackPointExtension>
        </extensions>
      </trkpt>
      <trkpt lat="49.37115" lon="1.03514">
        <ele>73.400268554688</ele>
        <time>2017-04-09T06:39:07.000Z</time>
        <extensions>
          <gpxtpx:TrackPointExtension xmlns:gpxtpx="http://www.garmin.com/xmlschemas/TrackPointExtension/v1">
            <gpxtpx:hr>146</gpxtpx:hr>
          </gpxtpx:TrackPointExtension>
        </extensions>
      </trkpt>
      <trkpt lat="49.37104" lon="1.03502">
        <ele>73.150680541992</ele>
        <time>2017-04-09T06:39:10.000Z</time>
        <extensions>
          <gpxtpx:TrackPointExtension xmlns:gpxtpx="http://www.garmin.com/xmlschemas/TrackPointExtension/v1">
            <gpxtpx:hr>172</gpxtpx:hr>
          </gpxtpx:TrackPointExtension>
        </extensions>
      </trkpt>
      <trkpt lat="49.37092" lon="1.0349">
        <ele>72.831527709961</ele>
        <time>2017-04-09T06:39:13.000Z</time>
        <extensions>
          <gpxtpx:TrackPointExtension xmlns:gpxtpx="http://www.garmin.com/xmlschemas/TrackPointExtension/v1">
            <gpxtpx:hr>146</gpxtpx:hr>
          </gpxtpx:TrackPointExtension>
        </extensions>
      </trkpt>
      <trkpt lat="49.37078" lon="1.03477">
        <ele>72.413452148438</ele>
        <time>2017-04-09T06:39:16.000Z</time>
        <extensions>
          <gpxtpx:TrackPointExtension xmlns:gpxtpx="http://www.garmin.com/xmlschemas/TrackPointExtension/v1">
            <gpxtpx:hr>138</gpxtpx:hr>
          </gpxtpx:TrackPointExtension>
        </extensions>
      </trkpt>
      <trkpt lat="49.37067" lon="1.0347">
        <ele>71.983757019043</ele>
        <time>2017-04-09T06:39:18.000Z</time>
      </trkpt>
      <trkpt lat="49.37053" lon="1.03455">
        <ele>71.52702331543</ele>
        <time>2017-04-09T06:39:21.000Z</time>
      </trkpt>
      <trkpt lat="49.3704" lon="1.03441">
        <ele>71.124496459961</ele>
        <time>2017-04-09T06:39:24.000Z</time>
      </trkpt>
      <trkpt lat="49.37034" lon="1.03435">
        <ele>70.727363586426</ele>
        <time>2017-04-09T06:39:26.000Z</time>
      </trkpt>
      <trkpt lat="49.37025" lon="1.03428">
        <ele>70.388366699219</ele>
        <time>2017-04-09T06:39:28.000Z</time>
      </trkpt>
      <trkpt lat="49.3701" lon="1.03415">
        <ele>70.058547973633</ele>
        <time>2017-04-09T06:39:31.000Z</time>
      </trkpt>
      <trkpt lat="49.37004" lon="1.03406">
        <ele>69.919403076172</ele>
        <time>2017-04-09T06:39:33.000Z</time>
      </trkpt>
      <trkpt lat="49.36989" lon="1.03396">
        <ele>70.151473999023</ele>
        <time>2017-04-09T06:39:36.000Z</time>
      </trkpt>
      <trkpt lat="49.36979" lon="1.03389">
        <ele>70.62565612793</ele>
        <time>2017-04-09T06:39:39.000Z</time>
      </trkpt>
      <trkpt lat="49.36974" lon="1.03384">
        <ele>71.249977111816</ele>
        <time>2017-04-09T06:39:41.000Z</time>
      </trkpt>
      <trkpt lat="49.36965" lon="1.03378">
        <ele>72.075355529785</ele>
        <time>2017-04-09T06:39:44.000Z</time>
      </trkpt>
      <trkpt lat="49.3696" lon="1.03375">
        <ele>72.951950073242</ele>
        <time>2017-04-09T06:39:46.000Z</time>
      </trkpt>
      <trkpt lat="49.36951" lon="1.0337">
        <ele>73.739303588867</ele>
        <time>2017-04-09T06:39:49.000Z</time>
      </trkpt>
      <trkpt lat="49.36944" lon="1.03364">
        <ele>74.477874755859</ele>
        <time>2017-04-09T06:39:52.000Z</time>
      </trkpt>
      <trkpt lat="49.36937" lon="1.03357">
        <ele>75.244689941406</ele>
        <time>2017-04-09T06:39:55.000Z</time>
      </trkpt>
      <trkpt lat="49.36934" lon="1.03353">
        <ele>75.906051635742</ele>
        <time>2017-04-09T06:39:57.000Z</time>
      </trkpt>
      <trkpt lat="49.3693" lon="1.03348">
        <ele>76.549438476562</ele>
        <time>2017-04-09T06:40:00.000Z</time>
        <extensions>
          <gpxtpx:TrackPointExtension xmlns:gpxtpx="http://www.garmin.com/xmlschemas/TrackPointExtension/v1">
            <gpxtpx:hr>129</gpxtpx:hr>
          </gpxtpx:TrackPointExtension>
        </extensions>
      </trkpt>
      <trkpt lat="49.36924" lon="1.03343">
        <ele>77.138694763184</ele>
        <time>2017-04-09T06:40:03.000Z</time>
        <extensions>
          <gpxtpx:TrackPointExtension xmlns:gpxtpx="http://www.garmin.com/xmlschemas/TrackPointExtension/v1">
            <gpxtpx:hr>152</gpxtpx:hr>
          </gpxtpx:TrackPointExtension>
        </extensions>
      </trkpt>
      <trkpt lat="49.3692" lon="1.03339">
        <ele>77.659057617188</ele>
        <time>2017-04-09T06:40:05.000Z</time>
        <extensions>
          <gpxtpx:TrackPointExtension xmlns:gpxtpx="http://www.garmin.com/xmlschemas/TrackPointExtension/v1">
            <gpxtpx:hr>160</gpxtpx:hr>
          </gpxtpx:TrackPointExtension>
        </extensions>
      </trkpt>
      <trkpt lat="49.36913" lon="1.03334">
        <ele>78.173027038574</ele>
        <time>2017-04-09T06:40:08.000Z</time>
      </trkpt>
      <trkpt lat="49.36908" lon="1.03332">
        <ele>78.696365356445</ele>
        <time>2017-04-09T06:40:10.000Z</time>
        <extensions>
          <gpxtpx:TrackPointExtension xmlns:gpxtpx="http://www.garmin.com/xmlschemas/TrackPointExtension/v1">
            <gpxtpx:hr>111</gpxtpx:hr>
          </gpxtpx:TrackPointExtension>
        </extensions>
      </trkpt>
      <trkpt lat="49.36903" lon="1.03329">
        <ele>79.184829711914</ele>
        <time>2017-04-09T06:40:12.000Z</time>
        <extensions>
          <gpxtpx:TrackPointExtension xmlns:gpxtpx="http://www.garmin.com/xmlschemas/TrackPointExtension/v1">
            <gpxtpx:hr>122</gpxtpx:hr>
          </gpxtpx:TrackPointExtension>
        </extensions>
      </trkpt>
      <trkpt lat="49.36899" lon="1.03325">
        <ele>79.614784240723</ele>
        <time>2017-04-09T06:40:14.000Z</time>
        <extensions>
          <gpxtpx:TrackPointExtension xmlns:gpxtpx="http://www.garmin.com/xmlschemas/TrackPointExtension/v1">
            <gpxtpx:hr>158</gpxtpx:hr>
          </gpxtpx:TrackPointExtension>
        </extensions>
      </trkpt>
      <trkpt lat="49.36893" lon="1.03321">
        <ele>80.042572021484</ele>
        <time>2017-04-09T06:40:17.000Z</time>
        <extensions>
          <gpxtpx:TrackPointExtension xmlns:gpxtpx="http://www.garmin.com/xmlschemas/TrackPointExtension/v1">
            <gpxtpx:hr>179</gpxtpx:hr>
          </gpxtpx:TrackPointExtension>
        </extensions>
      </trkpt>
      <trkpt lat="49.36889" lon="1.03319">
        <ele>80.376602172852</ele>
        <time>2017-04-09T06:40:19.000Z</time>
      </trkpt>
      <trkpt lat="49.36884" lon="1.03314">
        <ele>80.708160400391</ele>
        <time>2017-04-09T06:40:22.000Z</time>
      </trkpt>
      <trkpt lat="49.36879" lon="1.03311">
        <ele>81.023895263672</ele>
        <time>2017-04-09T06:40:24.000Z</time>
      </trkpt>
      <trkpt lat="49.36874" lon="1.03306">
        <ele>81.339630126953</ele>
        <time>2017-04-09T06:40:27.000Z</time>
      </trkpt>
      <trkpt lat="49.36868" lon="1.03301">
        <ele>81.62712097168</ele>
        <time>2017-04-09T06:40:30.000Z</time>
      </trkpt>
      <trkpt lat="49.36864" lon="1.03296">
        <ele>81.914581298828</ele>
        <time>2017-04-09T06:40:33.000Z</time>
      </trkpt>
      <trkpt lat="49.3686" lon="1.03295">
        <ele>82.17472076416</ele>
        <time>2017-04-09T06:40:36.000Z</time>
      </trkpt>
      <trkpt lat="49.36858" lon="1.03294">
        <ele>82.41291809082</ele>
        <time>2017-04-09T06:40:39.000Z</time>
      </trkpt>
      <trkpt lat="49.36856" lon="1.0329">
        <ele>82.593528747559</ele>
        <time>2017-04-09T06:40:42.000Z</time>
      </trkpt>
      <trkpt lat="49.36853" lon="1.03285">
        <ele>82.733215332031</ele>
        <time>2017-04-09T06:40:45.000Z</time>
      </trkpt>
      <trkpt lat="49.3685" lon="1.03282">
        <ele>82.845085144043</ele>
        <time>2017-04-09T06:40:47.000Z</time>
      </trkpt>
      <trkpt lat="49.36845" lon="1.03278">
        <ele>82.947326660156</ele>
        <time>2017-04-09T06:40:50.000Z</time>
      </trkpt>
      <trkpt lat="49.36841" lon="1.03273">
        <ele>83.046501159668</ele>
        <time>2017-04-09T06:40:52.000Z</time>
      </trkpt>
      <trkpt lat="49.36836" lon="1.03269">
        <ele>83.17463684082</ele>
        <time>2017-04-09T06:40:54.000Z</time>
      </trkpt>
      <trkpt lat="49.36829" lon="1.03262">
        <ele>83.32844543457</ele>
        <time>2017-04-09T06:40:57.000Z</time>
      </trkpt>
      <trkpt lat="49.36823" lon="1.03256">
        <ele>83.470565795898</ele>
        <time>2017-04-09T06:41:00.000Z</time>
        <extensions>
          <gpxtpx:TrackPointExtension xmlns:gpxtpx="http://www.garmin.com/xmlschemas/TrackPointExtension/v1">
            <gpxtpx:hr>154</gpxtpx:hr>
          </gpxtpx:TrackPointExtension>
        </extensions>
      </trkpt>
      <trkpt lat="49.36821" lon="1.03248">
        <ele>83.537223815918</ele>
        <time>2017-04-09T06:41:02.000Z</time>
        <extensions>
          <gpxtpx:TrackPointExtension xmlns:gpxtpx="http://www.garmin.com/xmlschemas/TrackPointExtension/v1">
            <gpxtpx:hr>196</gpxtpx:hr>
          </gpxtpx:TrackPointExtension>
        </extensions>
      </trkpt>
      <trkpt lat="49.36818" lon="1.0324">
        <ele>83.49853515625</ele>
        <time>2017-04-09T06:41:04.000Z</time>
        <extensions>
          <gpxtpx:TrackPointExtension xmlns:gpxtpx="http://www.garmin.com/xmlschemas/TrackPointExtension/v1">
            <gpxtpx:hr>154</gpxtpx:hr>
          </gpxtpx:TrackPointExtension>
        </extensions>
      </trkpt>
      <trkpt lat="49.36816" lon="1.03229">
        <ele>83.325035095215</ele>
        <time>2017-04-09T06:41:06.000Z</time>
        <extensions>
          <gpxtpx:TrackPointExtension xmlns:gpxtpx="http://www.garmin.com/xmlschemas/TrackPointExtension/v1">
            <gpxtpx:hr>147</gpxtpx:hr>
          </gpxtpx:TrackPointExtension>
        </extensions>
      </trkpt>
      <trkpt lat="49.36814" lon="1.03211">
        <ele>82.934043884277</ele>
        <time>2017-04-09T06:41:09.000Z</time>
        <extensions>
          <gpxtpx:TrackPointExtension xmlns:gpxtpx="http://www.garmin.com/xmlschemas/TrackPointExtension/v1">
            <gpxtpx:hr>143</gpxtpx:hr>
          </gpxtpx:TrackPointExtension>
        </extensions>
      </trkpt>
      <trkpt lat="49.36812" lon="1.03196">
        <ele>82.381942749023</ele>
        <time>2017-04-09T06:41:11.000Z</time>
        <extensions>
          <gpxtpx:TrackPointExtension xmlns:gpxtpx="http://www.garmin.com/xmlschemas/TrackPointExtension/v1">
            <gpxtpx:hr>147</gpxtpx:hr>
          </gpxtpx:TrackPointExtension>
        </extensions>
      </trkpt>
      <trkpt lat="49.36804" lon="1.03173">
        <ele>81.708908081055</ele>
        <time>2017-04-09T06:41:14.000Z</time>
        <extensions>
          <gpxtpx:TrackPointExtension xmlns:gpxtpx="http://www.garmin.com/xmlschemas/TrackPointExtension/v1">
            <gpxtpx:hr>149</gpxtpx:hr>
          </gpxtpx:TrackPointExtension>
        </extensions>
      </trkpt>
      <trkpt lat="49.36801" lon="1.03153">
        <ele>80.880065917969</ele>
        <time>2017-04-09T06:41:16.000Z</time>
        <extensions>
          <gpxtpx:TrackPointExtension xmlns:gpxtpx="http://www.garmin.com/xmlschemas/TrackPointExtension/v1">
            <gpxtpx:hr>151</gpxtpx:hr>
          </gpxtpx:TrackPointExtension>
        </extensions>
      </trkpt>
      <trkpt lat="49.36797" lon="1.03132">
        <ele>79.903793334961</ele>
        <time>2017-04-09T06:41:18.000Z</time>
        <extensions>
          <gpxtpx:TrackPointExtension xmlns:gpxtpx="http://www.garmin.com/xmlschemas/TrackPointExtension/v1">
            <gpxtpx:hr>154</gpxtpx:hr>
          </gpxtpx:TrackPointExtension>
        </extensions>
      </trkpt>
      <trkpt lat="49.36791" lon="1.0311">
        <ele>78.847999572754</ele>
        <time>2017-04-09T06:41:20.000Z</time>
        <extensions>
          <gpxtpx:TrackPointExtension xmlns:gpxtpx="http://www.garmin.com/xmlschemas/TrackPointExtension/v1">
            <gpxtpx:hr>157</gpxtpx:hr>
          </gpxtpx:TrackPointExtension>
        </extensions>
      </trkpt>
      <trkpt lat="49.36785" lon="1.03078">
        <ele>77.595657348633</ele>
        <time>2017-04-09T06:41:23.000Z</time>
      </trkpt>
      <trkpt lat="49.36779" lon="1.03065">
        <ele>76.4990234375</ele>
        <time>2017-04-09T06:41:25.000Z</time>
      </trkpt>
      <trkpt lat="49.36771" lon="1.03061">
        <ele>75.718139648438</ele>
        <time>2017-04-09T06:41:27.000Z</time>
      </trkpt>
      <trkpt lat="49.36757" lon="1.03064">
        <ele>75.3876953125</ele>
        <time>2017-04-09T06:41:30.000Z</time>
      </trkpt>
      <trkpt lat="49.36745" lon="1.03065">
        <ele>75.476905822754</ele>
        <time>2017-04-09T06:41:33.000Z</time>
      </trkpt>
      <trkpt lat="49.36739" lon="1.03065">
        <ele>76.013732910156</ele>
        <time>2017-04-09T06:41:35.000Z</time>
      </trkpt>
      <trkpt lat="49.36732" lon="1.03066">
        <ele>76.671592712402</ele>
        <time>2017-04-09T06:41:38.000Z</time>
      </trkpt>
      <trkpt lat="49.36726" lon="1.03066">
        <ele>77.345108032227</ele>
        <time>2017-04-09T06:41:40.000Z</time>
      </trkpt>
      <trkpt lat="49.36721" lon="1.03065">
        <ele>77.888847351074</ele>
        <time>2017-04-09T06:41:42.000Z</time>
      </trkpt>
      <trkpt lat="49.3671" lon="1.03063">
        <ele>78.418174743652</ele>
        <time>2017-04-09T06:41:45.000Z</time>
      </trkpt>
      <trkpt lat="49.367" lon="1.03063">
        <ele>79.00065612793</ele>
        <time>2017-04-09T06:41:48.000Z</time>
      </trkpt>
      <trkpt lat="49.3669" lon="1.03062">
        <ele>79.609169006348</ele>
        <time>2017-04-09T06:41:51.000Z</time>
      </trkpt>
      <trkpt lat="49.3668" lon="1.03063">
        <ele>80.284950256348</ele>
        <time>2017-04-09T06:41:54.000Z</time>
      </trkpt>
      <trkpt lat="49.36673" lon="1.03063">
        <ele>80.980628967285</ele>
        <time>2017-04-09T06:41:56.000Z</time>
      </trkpt>
      <trkpt lat="49.36667" lon="1.03061">
        <ele>81.606826782227</ele>
        <time>2017-04-09T06:41:58.000Z</time>
      </trkpt>
      <trkpt lat="49.36658" lon="1.0306">
        <ele>82.34366607666</ele>
        <time>2017-04-09T06:42:01.000Z</time>
        <extensions>
          <gpxtpx:TrackPointExtension xmlns:gpxtpx="http://www.garmin.com/xmlschemas/TrackPointExtension/v1">
            <gpxtpx:hr>159</gpxtpx:hr>
          </gpxtpx:TrackPointExtension>
        </extensions>
      </trkpt>
      <trkpt lat="49.3665" lon="1.03057">
        <ele>83.155830383301</ele>
        <time>2017-04-09T06:42:04.000Z</time>
        <extensions>
          <gpxtpx:TrackPointExtension xmlns:gpxtpx="http://www.garmin.com/xmlschemas/TrackPointExtension/v1">
            <gpxtpx:hr>160</gpxtpx:hr>
          </gpxtpx:TrackPointExtension>
        </extensions>
      </trkpt>
      <trkpt lat="49.36643" lon="1.03053">
        <ele>83.982406616211</ele>
        <time>2017-04-09T06:42:07.000Z</time>
        <extensions>
          <gpxtpx:TrackPointExtension xmlns:gpxtpx="http://www.garmin.com/xmlschemas/TrackPointExtension/v1">
            <gpxtpx:hr>162</gpxtpx:hr>
          </gpxtpx:TrackPointExtension>
        </extensions>
      </trkpt>
      <trkpt lat="49.36636" lon="1.03052">
        <ele>84.915954589844</ele>
        <time>2017-04-09T06:42:10.000Z</time>
      </trkpt>
      <trkpt lat="49.36629" lon="1.03052">
        <ele>85.973220825195</ele>
        <time>2017-04-09T06:42:13.000Z</time>
        <extensions>
          <gpxtpx:TrackPointExtension xmlns:gpxtpx="http://www.garmin.com/xmlschemas/TrackPointExtension/v1">
            <gpxtpx:hr>163</gpxtpx:hr>
          </gpxtpx:TrackPointExtension>
        </extensions>
      </trkpt>
      <trkpt lat="49.36621" lon="1.03053">
        <ele>87.019027709961</ele>
        <time>2017-04-09T06:42:16.000Z</time>
        <extensions>
          <gpxtpx:TrackPointExtension xmlns:gpxtpx="http://www.garmin.com/xmlschemas/TrackPointExtension/v1">
            <gpxtpx:hr>169</gpxtpx:hr>
          </gpxtpx:TrackPointExtension>
        </extensions>
      </trkpt>
      <trkpt lat="49.36616" lon="1.03052">
        <ele>88.005493164062</ele>
        <time>2017-04-09T06:42:18.000Z</time>
        <extensions>
          <gpxtpx:TrackPointExtension xmlns:gpxtpx="http://www.garmin.com/xmlschemas/TrackPointExtension/v1">
            <gpxtpx:hr>168</gpxtpx:hr>
          </gpxtpx:TrackPointExtension>
        </extensions>
      </trkpt>
      <trkpt lat="49.36609" lon="1.03051">
        <ele>89.047103881836</ele>
        <time>2017-04-09T06:42:21.000Z</time>
      </trkpt>
      <trkpt lat="49.36602" lon="1.03051">
        <ele>90.073699951172</ele>
        <time>2017-04-09T06:42:24.000Z</time>
      </trkpt>
      <trkpt lat="49.36597" lon="1.0305">
        <ele>91.053123474121</ele>
        <time>2017-04-09T06:42:27.000Z</time>
      </trkpt>
      <trkpt lat="49.36592" lon="1.03046">
        <ele>91.890365600586</ele>
        <time>2017-04-09T06:42:30.000Z</time>
      </trkpt>
      <trkpt lat="49.36584" lon="1.03045">
        <ele>92.817413330078</ele>
        <time>2017-04-09T06:42:33.000Z</time>
      </trkpt>
      <trkpt lat="49.36578" lon="1.03045">
        <ele>93.612716674805</ele>
        <time>2017-04-09T06:42:35.000Z</time>
      </trkpt>
      <trkpt lat="49.36571" lon="1.03046">
        <ele>94.371704101562</ele>
        <time>2017-04-09T06:42:38.000Z</time>
      </trkpt>
      <trkpt lat="49.36562" lon="1.03048">
        <ele>95.158020019531</ele>
        <time>2017-04-09T06:42:41.000Z</time>
      </trkpt>
      <trkpt lat="49.36556" lon="1.03048">
        <ele>95.94499206543</ele>
        <time>2017-04-09T06:42:43.000Z</time>
      </trkpt>
      <trkpt lat="49.36548" lon="1.03047">
        <ele>96.613098144531</ele>
        <time>2017-04-09T06:42:46.000Z</time>
      </trkpt>
      <trkpt lat="49.3654" lon="1.03046">
        <ele>97.323356628418</ele>
        <time>2017-04-09T06:42:49.000Z</time>
      </trkpt>
      <trkpt lat="49.36535" lon="1.03043">
        <ele>97.949928283691</ele>
        <time>2017-04-09T06:42:51.000Z</time>
      </trkpt>
      <trkpt lat="49.36528" lon="1.03041">
        <ele>98.483963012695</ele>
        <time>2017-04-09T06:42:54.000Z</time>
      </trkpt>
      <trkpt lat="49.36524" lon="1.0304">
        <ele>98.966354370117</ele>
        <time>2017-04-09T06:42:56.000Z</time>
      </trkpt>
      <trkpt lat="49.36519" lon="1.03036">
        <ele>99.378860473633</ele>
        <time>2017-04-09T06:42:59.000Z</time>
      </trkpt>
      <trkpt lat="49.36513" lon="1.03033">
        <ele>99.729629516602</ele>
        <time>2017-04-09T06:43:02.000Z</time>
        <extensions>
          <gpxtpx:TrackPointExtension xmlns:gpxtpx="http://www.garmin.com/xmlschemas/TrackPointExtension/v1">
            <gpxtpx:hr>157</gpxtpx:hr>
          </gpxtpx:TrackPointExtension>
        </extensions>
      </trkpt>
      <trkpt lat="49.36507" lon="1.03033">
        <ele>100.12232208252</ele>
        <time>2017-04-09T06:43:05.000Z</time>
        <extensions>
          <gpxtpx:TrackPointExtension xmlns:gpxtpx="http://www.garmin.com/xmlschemas/TrackPointExtension/v1">
            <gpxtpx:hr>165</gpxtpx:hr>
          </gpxtpx:TrackPointExtension>
        </extensions>
      </trkpt>
      <trkpt lat="49.36501" lon="1.03033">
        <ele>100.53519439697</ele>
        <time>2017-04-09T06:43:08.000Z</time>
        <extensions>
          <gpxtpx:TrackPointExtension xmlns:gpxtpx="http://www.garmin.com/xmlschemas/TrackPointExtension/v1">
            <gpxtpx:hr>166</gpxtpx:hr>
          </gpxtpx:TrackPointExtension>
        </extensions>
      </trkpt>
      <trkpt lat="49.36495" lon="1.03032">
        <ele>100.96910095215</ele>
        <time>2017-04-09T06:43:10.000Z</time>
        <extensions>
          <gpxtpx:TrackPointExtension xmlns:gpxtpx="http://www.garmin.com/xmlschemas/TrackPointExtension/v1">
            <gpxtpx:hr>142</gpxtpx:hr>
          </gpxtpx:TrackPointExtension>
        </extensions>
      </trkpt>
      <trkpt lat="49.36487" lon="1.03035">
        <ele>101.4845199585</ele>
        <time>2017-04-09T06:43:13.000Z</time>
      </trkpt>
      <trkpt lat="49.36481" lon="1.03035">
        <ele>101.9977645874</ele>
        <time>2017-04-09T06:43:15.000Z</time>
        <extensions>
          <gpxtpx:TrackPointExtension xmlns:gpxtpx="http://www.garmin.com/xmlschemas/TrackPointExtension/v1">
            <gpxtpx:hr>148</gpxtpx:hr>
          </gpxtpx:TrackPointExtension>
        </extensions>
      </trkpt>
      <trkpt lat="49.36476" lon="1.03034">
        <ele>102.47412109375</ele>
        <time>2017-04-09T06:43:17.000Z</time>
        <extensions>
          <gpxtpx:TrackPointExtension xmlns:gpxtpx="http://www.garmin.com/xmlschemas/TrackPointExtension/v1">
            <gpxtpx:hr>145</gpxtpx:hr>
          </gpxtpx:TrackPointExtension>
        </extensions>
      </trkpt>
      <trkpt lat="49.36469" lon="1.03034">
        <ele>102.94964599609</ele>
        <time>2017-04-09T06:43:20.000Z</time>
      </trkpt>
      <trkpt lat="49.36465" lon="1.03033">
        <ele>103.39501953125</ele>
        <time>2017-04-09T06:43:22.000Z</time>
      </trkpt>
      <trkpt lat="49.36457" lon="1.03032">
        <ele>103.7919921875</ele>
        <time>2017-04-09T06:43:25.000Z</time>
      </trkpt>
      <trkpt lat="49.36451" lon="1.03032">
        <ele>104.21441650391</ele>
        <time>2017-04-09T06:43:28.000Z</time>
      </trkpt>
      <trkpt lat="49.36443" lon="1.03031">
        <ele>104.66528320312</ele>
        <time>2017-04-09T06:43:31.000Z</time>
      </trkpt>
      <trkpt lat="49.36437" lon="1.0303">
        <ele>105.07598876953</ele>
        <time>2017-04-09T06:43:34.000Z</time>
      </trkpt>
      <trkpt lat="49.36432" lon="1.0303">
        <ele>105.51019287109</ele>
        <time>2017-04-09T06:43:36.000Z</time>
      </trkpt>
      <trkpt lat="49.36427" lon="1.03032">
        <ele>105.95111083984</ele>
        <time>2017-04-09T06:43:38.000Z</time>
      </trkpt>
      <trkpt lat="49.36419" lon="1.03033">
        <ele>106.40972900391</ele>
        <time>2017-04-09T06:43:41.000Z</time>
      </trkpt>
      <trkpt lat="49.36411" lon="1.03032">
        <ele>106.87184906006</ele>
        <time>2017-04-09T06:43:44.000Z</time>
      </trkpt>
      <trkpt lat="49.36404" lon="1.03032">
        <ele>107.34446716309</ele>
        <time>2017-04-09T06:43:47.000Z</time>
      </trkpt>
      <trkpt lat="49.36399" lon="1.03034">
        <ele>107.82301330566</ele>
        <time>2017-04-09T06:43:49.000Z</time>
      </trkpt>
      <trkpt lat="49.36391" lon="1.03034">
        <ele>108.29990386963</ele>
        <time>2017-04-09T06:43:52.000Z</time>
      </trkpt>
      <trkpt lat="49.36385" lon="1.03034">
        <ele>108.72277832031</ele>
        <time>2017-04-09T06:43:54.000Z</time>
      </trkpt>
      <trkpt lat="49.36378" lon="1.03034">
        <ele>109.13012695312</ele>
        <time>2017-04-09T06:43:57.000Z</time>
      </trkpt>
      <trkpt lat="49.3637" lon="1.03032">
        <ele>109.52581787109</ele>
        <time>2017-04-09T06:44:00.000Z</time>
        <extensions>
          <gpxtpx:TrackPointExtension xmlns:gpxtpx="http://www.garmin.com/xmlschemas/TrackPointExtension/v1">
            <gpxtpx:hr>130</gpxtpx:hr>
          </gpxtpx:TrackPointExtension>
        </extensions>
      </trkpt>
      <trkpt lat="49.36366" lon="1.0303">
        <ele>109.88952636719</ele>
        <time>2017-04-09T06:44:02.000Z</time>
        <extensions>
          <gpxtpx:TrackPointExtension xmlns:gpxtpx="http://www.garmin.com/xmlschemas/TrackPointExtension/v1">
            <gpxtpx:hr>116</gpxtpx:hr>
          </gpxtpx:TrackPointExtension>
        </extensions>
      </trkpt>
      <trkpt lat="49.36359" lon="1.03029">
        <ele>110.21820068359</ele>
        <time>2017-04-09T06:44:04.000Z</time>
      </trkpt>
      <trkpt lat="49.36353" lon="1.03027">
        <ele>110.53570556641</ele>
        <time>2017-04-09T06:44:07.000Z</time>
        <extensions>
          <gpxtpx:TrackPointExtension xmlns:gpxtpx="http://www.garmin.com/xmlschemas/TrackPointExtension/v1">
            <gpxtpx:hr>157</gpxtpx:hr>
          </gpxtpx:TrackPointExtension>
        </extensions>
      </trkpt>
      <trkpt lat="49.36348" lon="1.03026">
        <ele>110.82122802734</ele>
        <time>2017-04-09T06:44:09.000Z</time>
        <extensions>
          <gpxtpx:TrackPointExtension xmlns:gpxtpx="http://www.garmin.com/xmlschemas/TrackPointExtension/v1">
            <gpxtpx:hr>164</gpxtpx:hr>
          </gpxtpx:TrackPointExtension>
        </extensions>
      </trkpt>
      <trkpt lat="49.36338" lon="1.03023">
        <ele>111.12579345703</ele>
        <time>2017-04-09T06:44:12.000Z</time>
        <extensions>
          <gpxtpx:TrackPointExtension xmlns:gpxtpx="http://www.garmin.com/xmlschemas/TrackPointExtension/v1">
            <gpxtpx:hr>151</gpxtpx:hr>
          </gpxtpx:TrackPointExtension>
        </extensions>
      </trkpt>
      <trkpt lat="49.3633" lon="1.03021">
        <ele>111.42873382568</ele>
        <time>2017-04-09T06:44:15.000Z</time>
        <extensions>
          <gpxtpx:TrackPointExtension xmlns:gpxtpx="http://www.garmin.com/xmlschemas/TrackPointExtension/v1">
            <gpxtpx:hr>123</gpxtpx:hr>
          </gpxtpx:TrackPointExtension>
        </extensions>
      </trkpt>
      <trkpt lat="49.36323" lon="1.03019">
        <ele>111.65466308594</ele>
        <time>2017-04-09T06:44:18.000Z</time>
        <extensions>
          <gpxtpx:TrackPointExtension xmlns:gpxtpx="http://www.garmin.com/xmlschemas/TrackPointExtension/v1">
            <gpxtpx:hr>102</gpxtpx:hr>
          </gpxtpx:TrackPointExtension>
        </extensions>
      </trkpt>
      <trkpt lat="49.36317" lon="1.03018">
        <ele>111.82387542725</ele>
        <time>2017-04-09T06:44:20.000Z</time>
        <extensions>
          <gpxtpx:TrackPointExtension xmlns:gpxtpx="http://www.garmin.com/xmlschemas/TrackPointExtension/v1">
            <gpxtpx:hr>67</gpxtpx:hr>
          </gpxtpx:TrackPointExtension>
        </extensions>
      </trkpt>
      <trkpt lat="49.36311" lon="1.03018">
        <ele>111.94708251953</ele>
        <time>2017-04-09T06:44:22.000Z</time>
      </trkpt>
      <trkpt lat="49.36301" lon="1.0302">
        <ele>112.00984191895</ele>
        <time>2017-04-09T06:44:25.000Z</time>
      </trkpt>
      <trkpt lat="49.36295" lon="1.0302">
        <ele>112.03913879395</ele>
        <time>2017-04-09T06:44:27.000Z</time>
      </trkpt>
      <trkpt lat="49.36288" lon="1.0302">
        <ele>112.09132385254</ele>
        <time>2017-04-09T06:44:30.000Z</time>
      </trkpt>
      <trkpt lat="49.36283" lon="1.03021">
        <ele>112.16186523438</ele>
        <time>2017-04-09T06:44:32.000Z</time>
      </trkpt>
      <trkpt lat="49.36277" lon="1.03022">
        <ele>112.25270843506</ele>
        <time>2017-04-09T06:44:35.000Z</time>
      </trkpt>
      <trkpt lat="49.36272" lon="1.03024">
        <ele>112.34139251709</ele>
        <time>2017-04-09T06:44:37.000Z</time>
      </trkpt>
      <trkpt lat="49.36264" lon="1.03024">
        <ele>112.42999267578</ele>
        <time>2017-04-09T06:44:40.000Z</time>
      </trkpt>
      <trkpt lat="49.3626" lon="1.03024">
        <ele>112.51538085938</ele>
        <time>2017-04-09T06:44:42.000Z</time>
      </trkpt>
      <trkpt lat="49.36253" lon="1.03023">
        <ele>112.58576965332</ele>
        <time>2017-04-09T06:44:45.000Z</time>
      </trkpt>
      <trkpt lat="49.3625" lon="1.03023">
        <ele>112.62717437744</ele>
        <time>2017-04-09T06:44:47.000Z</time>
      </trkpt>
      <trkpt lat="49.36244" lon="1.03021">
        <ele>112.64454650879</ele>
        <time>2017-04-09T06:44:50.000Z</time>
      </trkpt>
      <trkpt lat="49.36237" lon="1.03022">
        <ele>112.68737792969</ele>
        <time>2017-04-09T06:44:53.000Z</time>
      </trkpt>
      <trkpt lat="49.36232" lon="1.03022">
        <ele>112.73722839355</ele>
        <time>2017-04-09T06:44:55.000Z</time>
      </trkpt>
      <trkpt lat="49.36227" lon="1.0302">
        <ele>112.77526855469</ele>
        <time>2017-04-09T06:44:57.000Z</time>
      </trkpt>
      <trkpt lat="49.36223" lon="1.03018">
        <ele>112.8035736084</ele>
        <time>2017-04-09T06:44:59.000Z</time>
      </trkpt>
      <trkpt lat="49.36217" lon="1.03016">
        <ele>112.83508300781</ele>
        <time>2017-04-09T06:45:02.000Z</time>
        <extensions>
          <gpxtpx:TrackPointExtension xmlns:gpxtpx="http://www.garmin.com/xmlschemas/TrackPointExtension/v1">
            <gpxtpx:hr>99</gpxtpx:hr>
          </gpxtpx:TrackPointExtension>
        </extensions>
      </trkpt>
      <trkpt lat="49.36212" lon="1.03015">
        <ele>112.83734130859</ele>
        <time>2017-04-09T06:45:04.000Z</time>
        <extensions>
          <gpxtpx:TrackPointExtension xmlns:gpxtpx="http://www.garmin.com/xmlschemas/TrackPointExtension/v1">
            <gpxtpx:hr>118</gpxtpx:hr>
          </gpxtpx:TrackPointExtension>
        </extensions>
      </trkpt>
      <trkpt lat="49.36205" lon="1.03013">
        <ele>112.83399963379</ele>
        <time>2017-04-09T06:45:07.000Z</time>
        <extensions>
          <gpxtpx:TrackPointExtension xmlns:gpxtpx="http://www.garmin.com/xmlschemas/TrackPointExtension/v1">
            <gpxtpx:hr>142</gpxtpx:hr>
          </gpxtpx:TrackPointExtension>
        </extensions>
      </trkpt>
      <trkpt lat="49.36197" lon="1.03013">
        <ele>112.86264801025</ele>
        <time>2017-04-09T06:45:10.000Z</time>
        <extensions>
          <gpxtpx:TrackPointExtension xmlns:gpxtpx="http://www.garmin.com/xmlschemas/TrackPointExtension/v1">
            <gpxtpx:hr>139</gpxtpx:hr>
          </gpxtpx:TrackPointExtension>
        </extensions>
      </trkpt>
      <trkpt lat="49.36192" lon="1.03012">
        <ele>112.91435241699</ele>
        <time>2017-04-09T06:45:12.000Z</time>
        <extensions>
          <gpxtpx:TrackPointExtension xmlns:gpxtpx="http://www.garmin.com/xmlschemas/TrackPointExtension/v1">
            <gpxtpx:hr>134</gpxtpx:hr>
          </gpxtpx:TrackPointExtension>
        </extensions>
      </trkpt>
      <trkpt lat="49.36184" lon="1.03013">
        <ele>113.00638580322</ele>
        <time>2017-04-09T06:45:15.000Z</time>
        <extensions>
          <gpxtpx:TrackPointExtension xmlns:gpxtpx="http://www.garmin.com/xmlschemas/TrackPointExtension/v1">
            <gpxtpx:hr>135</gpxtpx:hr>
          </gpxtpx:TrackPointExtension>
        </extensions>
      </trkpt>
      <trkpt lat="49.36177" lon="1.03016">
        <ele>113.14453125</ele>
        <time>2017-04-09T06:45:18.000Z</time>
        <extensions>
          <gpxtpx:TrackPointExtension xmlns:gpxtpx="http://www.garmin.com/xmlschemas/TrackPointExtension/v1">
            <gpxtpx:hr>131</gpxtpx:hr>
          </gpxtpx:TrackPointExtension>
        </extensions>
      </trkpt>
      <trkpt lat="49.3617" lon="1.03016">
        <ele>113.31276702881</ele>
        <time>2017-04-09T06:45:21.000Z</time>
        <extensions>
          <gpxtpx:TrackPointExtension xmlns:gpxtpx="http://www.garmin.com/xmlschemas/TrackPointExtension/v1">
            <gpxtpx:hr>128</gpxtpx:hr>
          </gpxtpx:TrackPointExtension>
        </extensions>
      </trkpt>
      <trkpt lat="49.36163" lon="1.03014">
        <ele>113.4412612915</ele>
        <time>2017-04-09T06:45:24.000Z</time>
      </trkpt>
      <trkpt lat="49.36157" lon="1.03014">
        <ele>113.53591156006</ele>
        <time>2017-04-09T06:45:26.000Z</time>
      </trkpt>
      <trkpt lat="49.36151" lon="1.03014">
        <ele>113.57002258301</ele>
        <time>2017-04-09T06:45:28.000Z</time>
      </trkpt>
      <trkpt lat="49.36142" lon="1.03014">
        <ele>113.5306854248</ele>
        <time>2017-04-09T06:45:31.000Z</time>
      </trkpt>
      <trkpt lat="49.36134" lon="1.03015">
        <ele>113.4388885498</ele>
        <time>2017-04-09T06:45:34.000Z</time>
      </trkpt>
      <trkpt lat="49.36126" lon="1.03013">
        <ele>113.32666015625</ele>
        <time>2017-04-09T06:45:37.000Z</time>
      </trkpt>
      <trkpt lat="49.36121" lon="1.03011">
        <ele>113.20680236816</ele>
        <time>2017-04-09T06:45:39.000Z</time>
      </trkpt>
      <trkpt lat="49.36116" lon="1.0301">
        <ele>113.07578277588</ele>
        <time>2017-04-09T06:45:41.000Z</time>
      </trkpt>
      <trkpt lat="49.36108" lon="1.0301">
        <ele>112.94972229004</ele>
        <time>2017-04-09T06:45:44.000Z</time>
      </trkpt>
      <trkpt lat="49.36104" lon="1.0301">
        <ele>112.82856750488</ele>
        <time>2017-04-09T06:45:46.000Z</time>
      </trkpt>
      <trkpt lat="49.36095" lon="1.03007">
        <ele>112.69602203369</ele>
        <time>2017-04-09T06:45:49.000Z</time>
      </trkpt>
      <trkpt lat="49.36088" lon="1.03005">
        <ele>112.56081390381</ele>
        <time>2017-04-09T06:45:51.000Z</time>
      </trkpt>
      <trkpt lat="49.36078" lon="1.03003">
        <ele>112.4783706665</ele>
        <time>2017-04-09T06:45:54.000Z</time>
      </trkpt>
      <trkpt lat="49.36068" lon="1.03001">
        <ele>112.48807525635</ele>
        <time>2017-04-09T06:45:57.000Z</time>
      </trkpt>
      <trkpt lat="49.36061" lon="1.03">
        <ele>112.57480621338</ele>
        <time>2017-04-09T06:45:59.000Z</time>
      </trkpt>
      <trkpt lat="49.36051" lon="1.03001">
        <ele>112.80690765381</ele>
        <time>2017-04-09T06:46:01.000Z</time>
        <extensions>
          <gpxtpx:TrackPointExtension xmlns:gpxtpx="http://www.garmin.com/xmlschemas/TrackPointExtension/v1">
            <gpxtpx:hr>131</gpxtpx:hr>
          </gpxtpx:TrackPointExtension>
        </extensions>
      </trkpt>
      <trkpt lat="49.36038" lon="1.03">
        <ele>113.1937713623</ele>
        <time>2017-04-09T06:46:04.000Z</time>
        <extensions>
          <gpxtpx:TrackPointExtension xmlns:gpxtpx="http://www.garmin.com/xmlschemas/TrackPointExtension/v1">
            <gpxtpx:hr>139</gpxtpx:hr>
          </gpxtpx:TrackPointExtension>
        </extensions>
      </trkpt>
      <trkpt lat="49.36029" lon="1.02999">
        <ele>113.64152526855</ele>
        <time>2017-04-09T06:46:06.000Z</time>
      </trkpt>
      <trkpt lat="49.36016" lon="1.02995">
        <ele>114.11347961426</ele>
        <time>2017-04-09T06:46:09.000Z</time>
        <extensions>
          <gpxtpx:TrackPointExtension xmlns:gpxtpx="http://www.garmin.com/xmlschemas/TrackPointExtension/v1">
            <gpxtpx:hr>132</gpxtpx:hr>
          </gpxtpx:TrackPointExtension>
        </extensions>
      </trkpt>
      <trkpt lat="49.36008" lon="1.02993">
        <ele>114.59019470215</ele>
        <time>2017-04-09T06:46:11.000Z</time>
        <extensions>
          <gpxtpx:TrackPointExtension xmlns:gpxtpx="http://www.garmin.com/xmlschemas/TrackPointExtension/v1">
            <gpxtpx:hr>124</gpxtpx:hr>
          </gpxtpx:TrackPointExtension>
        </extensions>
      </trkpt>
      <trkpt lat="49.35996" lon="1.02988">
        <ele>115.0252456665</ele>
        <time>2017-04-09T06:46:14.000Z</time>
        <extensions>
          <gpxtpx:TrackPointExtension xmlns:gpxtpx="http://www.garmin.com/xmlschemas/TrackPointExtension/v1">
            <gpxtpx:hr>146</gpxtpx:hr>
          </gpxtpx:TrackPointExtension>
        </extensions>
      </trkpt>
      <trkpt lat="49.35984" lon="1.02987">
        <ele>115.34965515137</ele>
        <time>2017-04-09T06:46:17.000Z</time>
      </trkpt>
      <trkpt lat="49.35972" lon="1.02987">
        <ele>115.60591125488</ele>
        <time>2017-04-09T06:46:20.000Z</time>
        <extensions>
          <gpxtpx:TrackPointExtension xmlns:gpxtpx="http://www.garmin.com/xmlschemas/TrackPointExtension/v1">
            <gpxtpx:hr>173</gpxtpx:hr>
          </gpxtpx:TrackPointExtension>
        </extensions>
      </trkpt>
      <trkpt lat="49.35965" lon="1.02987">
        <ele>115.77166748047</ele>
        <time>2017-04-09T06:46:22.000Z</time>
      </trkpt>
      <trkpt lat="49.35954" lon="1.02986">
        <ele>115.88598632812</ele>
        <time>2017-04-09T06:46:25.000Z</time>
      </trkpt>
      <trkpt lat="49.35946" lon="1.02986">
        <ele>115.95753479004</ele>
        <time>2017-04-09T06:46:27.000Z</time>
      </trkpt>
      <trkpt lat="49.35939" lon="1.02986">
        <ele>116.0288848877</ele>
        <time>2017-04-09T06:46:29.000Z</time>
      </trkpt>
      <trkpt lat="49.35924" lon="1.02985">
        <ele>116.10758209229</ele>
        <time>2017-04-09T06:46:32.000Z</time>
      </trkpt>
      <trkpt lat="49.35919" lon="1.02986">
        <ele>116.18168640137</ele>
        <time>2017-04-09T06:46:34.000Z</time>
      </trkpt>
      <trkpt lat="49.35908" lon="1.02984">
        <ele>116.28681945801</ele>
        <time>2017-04-09T06:46:37.000Z</time>
      </trkpt>
      <trkpt lat="49.35897" lon="1.0298">
        <ele>116.4310760498</ele>
        <time>2017-04-09T06:46:40.000Z</time>
      </trkpt>
      <trkpt lat="49.35883" lon="1.0298">
        <ele>116.61922454834</ele>
        <time>2017-04-09T06:46:43.000Z</time>
      </trkpt>
      <trkpt lat="49.35875" lon="1.02978">
        <ele>116.81662750244</ele>
        <time>2017-04-09T06:46:45.000Z</time>
      </trkpt>
      <trkpt lat="49.35864" lon="1.02978">
        <ele>117.04376220703</ele>
        <time>2017-04-09T06:46:47.000Z</time>
      </trkpt>
      <trkpt lat="49.35852" lon="1.02975">
        <ele>117.26721191406</ele>
        <time>2017-04-09T06:46:50.000Z</time>
      </trkpt>
      <trkpt lat="49.3584" lon="1.02973">
        <ele>117.48104095459</ele>
        <time>2017-04-09T06:46:53.000Z</time>
      </trkpt>
      <trkpt lat="49.35825" lon="1.02973">
        <ele>117.63954925537</ele>
        <time>2017-04-09T06:46:56.000Z</time>
      </trkpt>
      <trkpt lat="49.35813" lon="1.02973">
        <ele>117.7353515625</ele>
        <time>2017-04-09T06:46:59.000Z</time>
      </trkpt>
      <trkpt lat="49.35805" lon="1.0297">
        <ele>117.77659606934</ele>
        <time>2017-04-09T06:47:01.000Z</time>
        <extensions>
          <gpxtpx:TrackPointExtension xmlns:gpxtpx="http://www.garmin.com/xmlschemas/TrackPointExtension/v1">
            <gpxtpx:hr>144</gpxtpx:hr>
          </gpxtpx:TrackPointExtension>
        </extensions>
      </trkpt>
      <trkpt lat="49.35793" lon="1.02964">
        <ele>117.74318695068</ele>
        <time>2017-04-09T06:47:04.000Z</time>
        <extensions>
          <gpxtpx:TrackPointExtension xmlns:gpxtpx="http://www.garmin.com/xmlschemas/TrackPointExtension/v1">
            <gpxtpx:hr>144</gpxtpx:hr>
          </gpxtpx:TrackPointExtension>
        </extensions>
      </trkpt>
      <trkpt lat="49.3578" lon="1.02961">
        <ele>117.6376953125</ele>
        <time>2017-04-09T06:47:07.000Z</time>
        <extensions>
          <gpxtpx:TrackPointExtension xmlns:gpxtpx="http://www.garmin.com/xmlschemas/TrackPointExtension/v1">
            <gpxtpx:hr>145</gpxtpx:hr>
          </gpxtpx:TrackPointExtension>
        </extensions>
      </trkpt>
      <trkpt lat="49.3577" lon="1.02961">
        <ele>117.5068359375</ele>
        <time>2017-04-09T06:47:09.000Z</time>
        <extensions>
          <gpxtpx:TrackPointExtension xmlns:gpxtpx="http://www.garmin.com/xmlschemas/TrackPointExtension/v1">
            <gpxtpx:hr>155</gpxtpx:hr>
          </gpxtpx:TrackPointExtension>
        </extensions>
      </trkpt>
      <trkpt lat="49.35756" lon="1.0296">
        <ele>117.3701171875</ele>
        <time>2017-04-09T06:47:12.000Z</time>
        <extensions>
          <gpxtpx:TrackPointExtension xmlns:gpxtpx="http://www.garmin.com/xmlschemas/TrackPointExtension/v1">
            <gpxtpx:hr>155</gpxtpx:hr>
          </gpxtpx:TrackPointExtension>
        </extensions>
      </trkpt>
      <trkpt lat="49.35743" lon="1.02959">
        <ele>117.27933502197</ele>
        <time>2017-04-09T06:47:15.000Z</time>
        <extensions>
          <gpxtpx:TrackPointExtension xmlns:gpxtpx="http://www.garmin.com/xmlschemas/TrackPointExtension/v1">
            <gpxtpx:hr>152</gpxtpx:hr>
          </gpxtpx:TrackPointExtension>
        </extensions>
      </trkpt>
      <trkpt lat="49.35735" lon="1.0296">
        <ele>117.26835632324</ele>
        <time>2017-04-09T06:47:17.000Z</time>
        <extensions>
          <gpxtpx:TrackPointExtension xmlns:gpxtpx="http://www.garmin.com/xmlschemas/TrackPointExtension/v1">
            <gpxtpx:hr>149</gpxtpx:hr>
          </gpxtpx:TrackPointExtension>
        </extensions>
      </trkpt>
      <trkpt lat="49.35726" lon="1.02963">
        <ele>117.33763122559</ele>
        <time>2017-04-09T06:47:19.000Z</time>
        <extensions>
          <gpxtpx:TrackPointExtension xmlns:gpxtpx="http://www.garmin.com/xmlschemas/TrackPointExtension/v1">
            <gpxtpx:hr>130</gpxtpx:hr>
          </gpxtpx:TrackPointExtension>
        </extensions>
      </trkpt>
      <trkpt lat="49.35716" lon="1.02964">
        <ele>117.48972320557</ele>
        <time>2017-04-09T06:47:21.000Z</time>
        <extensions>
          <gpxtpx:TrackPointExtension xmlns:gpxtpx="http://www.garmin.com/xmlschemas/TrackPointExtension/v1">
            <gpxtpx:hr>129</gpxtpx:hr>
          </gpxtpx:TrackPointExtension>
        </extensions>
      </trkpt>
      <trkpt lat="49.35703" lon="1.02962">
        <ele>117.7559967041</ele>
        <time>2017-04-09T06:47:24.000Z</time>
      </trkpt>
      <trkpt lat="49.35688" lon="1.02961">
        <ele>118.08274078369</ele>
        <time>2017-04-09T06:47:27.000Z</time>
      </trkpt>
      <trkpt lat="49.35678" lon="1.02962">
        <ele>118.41636657715</ele>
        <time>2017-04-09T06:47:29.000Z</time>
      </trkpt>
      <trkpt lat="49.35664" lon="1.02958">
        <ele>118.78009033203</ele>
        <time>2017-04-09T06:47:32.000Z</time>
      </trkpt>
      <trkpt lat="49.35651" lon="1.02955">
        <ele>119.12581634521</ele>
        <time>2017-04-09T06:47:35.000Z</time>
      </trkpt>
      <trkpt lat="49.35637" lon="1.02954">
        <ele>119.42549133301</ele>
        <time>2017-04-09T06:47:38.000Z</time>
      </trkpt>
      <trkpt lat="49.35627" lon="1.02954">
        <ele>119.66178894043</ele>
        <time>2017-04-09T06:47:40.000Z</time>
      </trkpt>
      <trkpt lat="49.3562" lon="1.02954">
        <ele>119.85831451416</ele>
        <time>2017-04-09T06:47:42.000Z</time>
      </trkpt>
      <trkpt lat="49.35609" lon="1.02952">
        <ele>120.00482177734</ele>
        <time>2017-04-09T06:47:45.000Z</time>
      </trkpt>
      <trkpt lat="49.35599" lon="1.02952">
        <ele>120.13682556152</ele>
        <time>2017-04-09T06:47:47.000Z</time>
      </trkpt>
      <trkpt lat="49.35585" lon="1.02951">
        <ele>120.26900482178</ele>
        <time>2017-04-09T06:47:50.000Z</time>
      </trkpt>
      <trkpt lat="49.35577" lon="1.02951">
        <ele>120.38535308838</ele>
        <time>2017-04-09T06:47:52.000Z</time>
      </trkpt>
      <trkpt lat="49.35565" lon="1.02948">
        <ele>120.49709320068</ele>
        <time>2017-04-09T06:47:55.000Z</time>
      </trkpt>
      <trkpt lat="49.35556" lon="1.02947">
        <ele>120.58919525146</ele>
        <time>2017-04-09T06:47:57.000Z</time>
      </trkpt>
      <trkpt lat="49.35543" lon="1.02948">
        <ele>120.66062164307</ele>
        <time>2017-04-09T06:48:00.000Z</time>
        <extensions>
          <gpxtpx:TrackPointExtension xmlns:gpxtpx="http://www.garmin.com/xmlschemas/TrackPointExtension/v1">
            <gpxtpx:hr>150</gpxtpx:hr>
          </gpxtpx:TrackPointExtension>
        </extensions>
      </trkpt>
      <trkpt lat="49.35534" lon="1.02948">
        <ele>120.7020111084</ele>
        <time>2017-04-09T06:48:02.000Z</time>
        <extensions>
          <gpxtpx:TrackPointExtension xmlns:gpxtpx="http://www.garmin.com/xmlschemas/TrackPointExtension/v1">
            <gpxtpx:hr>151</gpxtpx:hr>
          </gpxtpx:TrackPointExtension>
        </extensions>
      </trkpt>
      <trkpt lat="49.35516" lon="1.02953">
        <ele>120.71594238281</ele>
        <time>2017-04-09T06:48:05.000Z</time>
      </trkpt>
      <trkpt lat="49.35503" lon="1.02954">
        <ele>120.7088470459</ele>
        <time>2017-04-09T06:48:08.000Z</time>
        <extensions>
          <gpxtpx:TrackPointExtension xmlns:gpxtpx="http://www.garmin.com/xmlschemas/TrackPointExtension/v1">
            <gpxtpx:hr>141</gpxtpx:hr>
          </gpxtpx:TrackPointExtension>
        </extensions>
      </trkpt>
      <trkpt lat="49.35488" lon="1.02956">
        <ele>120.69435119629</ele>
        <time>2017-04-09T06:48:11.000Z</time>
        <extensions>
          <gpxtpx:TrackPointExtension xmlns:gpxtpx="http://www.garmin.com/xmlschemas/TrackPointExtension/v1">
            <gpxtpx:hr>144</gpxtpx:hr>
          </gpxtpx:TrackPointExtension>
        </extensions>
      </trkpt>
      <trkpt lat="49.35475" lon="1.02949">
        <ele>120.73780822754</ele>
        <time>2017-04-09T06:48:14.000Z</time>
        <extensions>
          <gpxtpx:TrackPointExtension xmlns:gpxtpx="http://www.garmin.com/xmlschemas/TrackPointExtension/v1">
            <gpxtpx:hr>141</gpxtpx:hr>
          </gpxtpx:TrackPointExtension>
        </extensions>
      </trkpt>
      <trkpt lat="49.35462" lon="1.02943">
        <ele>120.82353210449</ele>
        <time>2017-04-09T06:48:17.000Z</time>
        <extensions>
          <gpxtpx:TrackPointExtension xmlns:gpxtpx="http://www.garmin.com/xmlschemas/TrackPointExtension/v1">
            <gpxtpx:hr>142</gpxtpx:hr>
          </gpxtpx:TrackPointExtension>
        </extensions>
      </trkpt>
      <trkpt lat="49.35456" lon="1.02935">
        <ele>120.97792816162</ele>
        <time>2017-04-09T06:48:19.000Z</time>
      </trkpt>
      <trkpt lat="49.35455" lon="1.0292">
        <ele>121.23376464844</ele>
        <time>2017-04-09T06:48:22.000Z</time>
      </trkpt>
      <trkpt lat="49.3546" lon="1.02903">
        <ele>121.58780670166</ele>
        <time>2017-04-09T06:48:25.000Z</time>
      </trkpt>
      <trkpt lat="49.35463" lon="1.02891">
        <ele>121.94416809082</ele>
        <time>2017-04-09T06:48:27.000Z</time>
      </trkpt>
      <trkpt lat="49.35468" lon="1.02873">
        <ele>122.35144042969</ele>
        <time>2017-04-09T06:48:30.000Z</time>
      </trkpt>
      <trkpt lat="49.35474" lon="1.02856">
        <ele>122.79709625244</ele>
        <time>2017-04-09T06:48:33.000Z</time>
      </trkpt>
      <trkpt lat="49.35478" lon="1.02844">
        <ele>123.20851135254</ele>
        <time>2017-04-09T06:48:35.000Z</time>
      </trkpt>
      <trkpt lat="49.35482" lon="1.02831">
        <ele>123.56764221191</ele>
        <time>2017-04-09T06:48:37.000Z</time>
      </trkpt>
      <trkpt lat="49.35485" lon="1.02817">
        <ele>123.84875488281</ele>
        <time>2017-04-09T06:48:39.000Z</time>
      </trkpt>
      <trkpt lat="49.3549" lon="1.02794">
        <ele>124.0146484375</ele>
        <time>2017-04-09T06:48:42.000Z</time>
      </trkpt>
      <trkpt lat="49.35495" lon="1.02778">
        <ele>124.08339691162</ele>
        <time>2017-04-09T06:48:45.000Z</time>
      </trkpt>
      <trkpt lat="49.35499" lon="1.02757">
        <ele>124.08911132812</ele>
        <time>2017-04-09T06:48:48.000Z</time>
      </trkpt>
      <trkpt lat="49.35504" lon="1.02742">
        <ele>124.03778076172</ele>
        <time>2017-04-09T06:48:51.000Z</time>
      </trkpt>
      <trkpt lat="49.3551" lon="1.02722">
        <ele>123.98433685303</ele>
        <time>2017-04-09T06:48:54.000Z</time>
      </trkpt>
      <trkpt lat="49.35516" lon="1.02699">
        <ele>123.93218994141</ele>
        <time>2017-04-09T06:48:57.000Z</time>
      </trkpt>
      <trkpt lat="49.35518" lon="1.02685">
        <ele>123.88509368896</ele>
        <time>2017-04-09T06:48:59.000Z</time>
      </trkpt>
      <trkpt lat="49.35519" lon="1.02658">
        <ele>123.82395935059</ele>
        <time>2017-04-09T06:49:02.000Z</time>
        <extensions>
          <gpxtpx:TrackPointExtension xmlns:gpxtpx="http://www.garmin.com/xmlschemas/TrackPointExtension/v1">
            <gpxtpx:hr>141</gpxtpx:hr>
          </gpxtpx:TrackPointExtension>
        </extensions>
      </trkpt>
      <trkpt lat="49.35519" lon="1.02629">
        <ele>123.71816253662</ele>
        <time>2017-04-09T06:49:05.000Z</time>
        <extensions>
          <gpxtpx:TrackPointExtension xmlns:gpxtpx="http://www.garmin.com/xmlschemas/TrackPointExtension/v1">
            <gpxtpx:hr>138</gpxtpx:hr>
          </gpxtpx:TrackPointExtension>
        </extensions>
      </trkpt>
      <trkpt lat="49.35515" lon="1.026">
        <ele>123.57511901855</ele>
        <time>2017-04-09T06:49:08.000Z</time>
        <extensions>
          <gpxtpx:TrackPointExtension xmlns:gpxtpx="http://www.garmin.com/xmlschemas/TrackPointExtension/v1">
            <gpxtpx:hr>137</gpxtpx:hr>
          </gpxtpx:TrackPointExtension>
        </extensions>
      </trkpt>
      <trkpt lat="49.35514" lon="1.02581">
        <ele>123.42049407959</ele>
        <time>2017-04-09T06:49:10.000Z</time>
        <extensions>
          <gpxtpx:TrackPointExtension xmlns:gpxtpx="http://www.garmin.com/xmlschemas/TrackPointExtension/v1">
            <gpxtpx:hr>142</gpxtpx:hr>
          </gpxtpx:TrackPointExtension>
        </extensions>
      </trkpt>
      <trkpt lat="49.35511" lon="1.0256">
        <ele>123.32027435303</ele>
        <time>2017-04-09T06:49:13.000Z</time>
        <extensions>
          <gpxtpx:TrackPointExtension xmlns:gpxtpx="http://www.garmin.com/xmlschemas/TrackPointExtension/v1">
            <gpxtpx:hr>149</gpxtpx:hr>
          </gpxtpx:TrackPointExtension>
        </extensions>
      </trkpt>
      <trkpt lat="49.35504" lon="1.02528">
        <ele>123.31518554688</ele>
        <time>2017-04-09T06:49:16.000Z</time>
        <extensions>
          <gpxtpx:TrackPointExtension xmlns:gpxtpx="http://www.garmin.com/xmlschemas/TrackPointExtension/v1">
            <gpxtpx:hr>151</gpxtpx:hr>
          </gpxtpx:TrackPointExtension>
        </extensions>
      </trkpt>
      <trkpt lat="49.35506" lon="1.02502">
        <ele>123.42580413818</ele>
        <time>2017-04-09T06:49:19.000Z</time>
        <extensions>
          <gpxtpx:TrackPointExtension xmlns:gpxtpx="http://www.garmin.com/xmlschemas/TrackPointExtension/v1">
            <gpxtpx:hr>139</gpxtpx:hr>
          </gpxtpx:TrackPointExtension>
        </extensions>
      </trkpt>
      <trkpt lat="49.35506" lon="1.02487">
        <ele>123.56468200684</ele>
        <time>2017-04-09T06:49:21.000Z</time>
        <extensions>
          <gpxtpx:TrackPointExtension xmlns:gpxtpx="http://www.garmin.com/xmlschemas/TrackPointExtension/v1">
            <gpxtpx:hr>148</gpxtpx:hr>
          </gpxtpx:TrackPointExtension>
        </extensions>
      </trkpt>
      <trkpt lat="49.35501" lon="1.02466">
        <ele>123.67887878418</ele>
        <time>2017-04-09T06:49:24.000Z</time>
      </trkpt>
      <trkpt lat="49.35495" lon="1.02444">
        <ele>123.71351623535</ele>
        <time>2017-04-09T06:49:27.000Z</time>
      </trkpt>
      <trkpt lat="49.35482" lon="1.02437">
        <ele>123.71189880371</ele>
        <time>2017-04-09T06:49:30.000Z</time>
      </trkpt>
      <trkpt lat="49.35474" lon="1.02431">
        <ele>123.67636871338</ele>
        <time>2017-04-09T06:49:32.000Z</time>
      </trkpt>
      <trkpt lat="49.35462" lon="1.02417">
        <ele>123.68906402588</ele>
        <time>2017-04-09T06:49:35.000Z</time>
      </trkpt>
      <trkpt lat="49.35457" lon="1.02404">
        <ele>123.7582244873</ele>
        <time>2017-04-09T06:49:37.000Z</time>
      </trkpt>
      <trkpt lat="49.35451" lon="1.02386">
        <ele>123.85786437988</ele>
        <time>2017-04-09T06:49:40.000Z</time>
      </trkpt>
      <trkpt lat="49.35444" lon="1.02366">
        <ele>123.91286468506</ele>
        <time>2017-04-09T06:49:43.000Z</time>
      </trkpt>
      <trkpt lat="49.3544" lon="1.02352">
        <ele>123.92741394043</ele>
        <time>2017-04-09T06:49:45.000Z</time>
      </trkpt>
      <trkpt lat="49.35437" lon="1.02338">
        <ele>123.9010848999</ele>
        <time>2017-04-09T06:49:47.000Z</time>
      </trkpt>
      <trkpt lat="49.35432" lon="1.02325">
        <ele>123.8978729248</ele>
        <time>2017-04-09T06:49:49.000Z</time>
      </trkpt>
      <trkpt lat="49.35427" lon="1.02312">
        <ele>123.93918609619</ele>
        <time>2017-04-09T06:49:51.000Z</time>
      </trkpt>
      <trkpt lat="49.35418" lon="1.02293">
        <ele>124.0479888916</ele>
        <time>2017-04-09T06:49:54.000Z</time>
      </trkpt>
      <trkpt lat="49.3541" lon="1.02273">
        <ele>124.25291442871</ele>
        <time>2017-04-09T06:49:57.000Z</time>
      </trkpt>
      <trkpt lat="49.35405" lon="1.02258">
        <ele>124.53517913818</ele>
        <time>2017-04-09T06:49:59.000Z</time>
      </trkpt>
      <trkpt lat="49.354" lon="1.02245">
        <ele>124.84352874756</ele>
        <time>2017-04-09T06:50:01.000Z</time>
      </trkpt>
      <trkpt lat="49.35395" lon="1.02231">
        <ele>125.17197418213</ele>
        <time>2017-04-09T06:50:03.000Z</time>
        <extensions>
          <gpxtpx:TrackPointExtension xmlns:gpxtpx="http://www.garmin.com/xmlschemas/TrackPointExtension/v1">
            <gpxtpx:hr>148</gpxtpx:hr>
          </gpxtpx:TrackPointExtension>
        </extensions>
      </trkpt>
      <trkpt lat="49.35386" lon="1.02208">
        <ele>125.51422119141</ele>
        <time>2017-04-09T06:50:06.000Z</time>
        <extensions>
          <gpxtpx:TrackPointExtension xmlns:gpxtpx="http://www.garmin.com/xmlschemas/TrackPointExtension/v1">
            <gpxtpx:hr>143</gpxtpx:hr>
          </gpxtpx:TrackPointExtension>
        </extensions>
      </trkpt>
      <trkpt lat="49.35379" lon="1.02186">
        <ele>125.813621521</ele>
        <time>2017-04-09T06:50:09.000Z</time>
        <extensions>
          <gpxtpx:TrackPointExtension xmlns:gpxtpx="http://www.garmin.com/xmlschemas/TrackPointExtension/v1">
            <gpxtpx:hr>152</gpxtpx:hr>
          </gpxtpx:TrackPointExtension>
        </extensions>
      </trkpt>
      <trkpt lat="49.35373" lon="1.02166">
        <ele>126.06994628906</ele>
        <time>2017-04-09T06:50:12.000Z</time>
        <extensions>
          <gpxtpx:TrackPointExtension xmlns:gpxtpx="http://www.garmin.com/xmlschemas/TrackPointExtension/v1">
            <gpxtpx:hr>136</gpxtpx:hr>
          </gpxtpx:TrackPointExtension>
        </extensions>
      </trkpt>
      <trkpt lat="49.35366" lon="1.02145">
        <ele>126.32674407959</ele>
        <time>2017-04-09T06:50:15.000Z</time>
        <extensions>
          <gpxtpx:TrackPointExtension xmlns:gpxtpx="http://www.garmin.com/xmlschemas/TrackPointExtension/v1">
            <gpxtpx:hr>103</gpxtpx:hr>
          </gpxtpx:TrackPointExtension>
        </extensions>
      </trkpt>
      <trkpt lat="49.35362" lon="1.0213">
        <ele>126.55417633057</ele>
        <time>2017-04-09T06:50:17.000Z</time>
        <extensions>
          <gpxtpx:TrackPointExtension xmlns:gpxtpx="http://www.garmin.com/xmlschemas/TrackPointExtension/v1">
            <gpxtpx:hr>112</gpxtpx:hr>
          </gpxtpx:TrackPointExtension>
        </extensions>
      </trkpt>
      <trkpt lat="49.35355" lon="1.02109">
        <ele>126.74171447754</ele>
        <time>2017-04-09T06:50:20.000Z</time>
      </trkpt>
      <trkpt lat="49.35347" lon="1.02091">
        <ele>126.90846252441</ele>
        <time>2017-04-09T06:50:23.000Z</time>
      </trkpt>
      <trkpt lat="49.35339" lon="1.02076">
        <ele>127.09173583984</ele>
        <time>2017-04-09T06:50:26.000Z</time>
      </trkpt>
      <trkpt lat="49.3533" lon="1.02068">
        <ele>127.286277771</ele>
        <time>2017-04-09T06:50:28.000Z</time>
      </trkpt>
      <trkpt lat="49.35318" lon="1.02059">
        <ele>127.64107513428</ele>
        <time>2017-04-09T06:50:31.000Z</time>
      </trkpt>
      <trkpt lat="49.35311" lon="1.02055">
        <ele>128.06510925293</ele>
        <time>2017-04-09T06:50:33.000Z</time>
      </trkpt>
      <trkpt lat="49.35298" lon="1.02046">
        <ele>128.66836547852</ele>
        <time>2017-04-09T06:50:36.000Z</time>
      </trkpt>
      <trkpt lat="49.35283" lon="1.02042">
        <ele>129.43301391602</ele>
        <time>2017-04-09T06:50:39.000Z</time>
      </trkpt>
      <trkpt lat="49.35273" lon="1.02038">
        <ele>130.25170898438</ele>
        <time>2017-04-09T06:50:41.000Z</time>
      </trkpt>
      <trkpt lat="49.35262" lon="1.02029">
        <ele>131.03797912598</ele>
        <time>2017-04-09T06:50:44.000Z</time>
      </trkpt>
      <trkpt lat="49.3525" lon="1.02023">
        <ele>131.87734985352</ele>
        <time>2017-04-09T06:50:47.000Z</time>
      </trkpt>
      <trkpt lat="49.35242" lon="1.02022">
        <ele>132.59465026855</ele>
        <time>2017-04-09T06:50:49.000Z</time>
      </trkpt>
      <trkpt lat="49.35233" lon="1.02017">
        <ele>133.20520019531</ele>
        <time>2017-04-09T06:50:51.000Z</time>
      </trkpt>
      <trkpt lat="49.35224" lon="1.02022">
        <ele>133.7582244873</ele>
        <time>2017-04-09T06:50:54.000Z</time>
      </trkpt>
      <trkpt lat="49.35221" lon="1.02031">
        <ele>134.1438293457</ele>
        <time>2017-04-09T06:50:56.000Z</time>
      </trkpt>
      <trkpt lat="49.35217" lon="1.02049">
        <ele>134.35556030273</ele>
        <time>2017-04-09T06:50:59.000Z</time>
      </trkpt>
      <trkpt lat="49.35211" lon="1.02064">
        <ele>134.50357055664</ele>
        <time>2017-04-09T06:51:02.000Z</time>
        <extensions>
          <gpxtpx:TrackPointExtension xmlns:gpxtpx="http://www.garmin.com/xmlschemas/TrackPointExtension/v1">
            <gpxtpx:hr>99</gpxtpx:hr>
          </gpxtpx:TrackPointExtension>
        </extensions>
      </trkpt>
      <trkpt lat="49.35209" lon="1.02074">
        <ele>134.56069946289</ele>
        <time>2017-04-09T06:51:04.000Z</time>
        <extensions>
          <gpxtpx:TrackPointExtension xmlns:gpxtpx="http://www.garmin.com/xmlschemas/TrackPointExtension/v1">
            <gpxtpx:hr>120</gpxtpx:hr>
          </gpxtpx:TrackPointExtension>
        </extensions>
      </trkpt>
      <trkpt lat="49.3521" lon="1.02086">
        <ele>134.53140258789</ele>
        <time>2017-04-09T06:51:07.000Z</time>
        <extensions>
          <gpxtpx:TrackPointExtension xmlns:gpxtpx="http://www.garmin.com/xmlschemas/TrackPointExtension/v1">
            <gpxtpx:hr>147</gpxtpx:hr>
          </gpxtpx:TrackPointExtension>
        </extensions>
      </trkpt>
      <trkpt lat="49.35207" lon="1.021">
        <ele>134.54600524902</ele>
        <time>2017-04-09T06:51:10.000Z</time>
        <extensions>
          <gpxtpx:TrackPointExtension xmlns:gpxtpx="http://www.garmin.com/xmlschemas/TrackPointExtension/v1">
            <gpxtpx:hr>154</gpxtpx:hr>
          </gpxtpx:TrackPointExtension>
        </extensions>
      </trkpt>
      <trkpt lat="49.35203" lon="1.0211">
        <ele>134.63626098633</ele>
        <time>2017-04-09T06:51:12.000Z</time>
        <extensions>
          <gpxtpx:TrackPointExtension xmlns:gpxtpx="http://www.garmin.com/xmlschemas/TrackPointExtension/v1">
            <gpxtpx:hr>146</gpxtpx:hr>
          </gpxtpx:TrackPointExtension>
        </extensions>
      </trkpt>
      <trkpt lat="49.35198" lon="1.02122">
        <ele>134.78364562988</ele>
        <time>2017-04-09T06:51:14.000Z</time>
        <extensions>
          <gpxtpx:TrackPointExtension xmlns:gpxtpx="http://www.garmin.com/xmlschemas/TrackPointExtension/v1">
            <gpxtpx:hr>150</gpxtpx:hr>
          </gpxtpx:TrackPointExtension>
        </extensions>
      </trkpt>
      <trkpt lat="49.35195" lon="1.02143">
        <ele>134.98056030273</ele>
        <time>2017-04-09T06:51:17.000Z</time>
        <extensions>
          <gpxtpx:TrackPointExtension xmlns:gpxtpx="http://www.garmin.com/xmlschemas/TrackPointExtension/v1">
            <gpxtpx:hr>149</gpxtpx:hr>
          </gpxtpx:TrackPointExtension>
        </extensions>
      </trkpt>
      <trkpt lat="49.35192" lon="1.02164">
        <ele>135.2423248291</ele>
        <time>2017-04-09T06:51:19.000Z</time>
        <extensions>
          <gpxtpx:TrackPointExtension xmlns:gpxtpx="http://www.garmin.com/xmlschemas/TrackPointExtension/v1">
            <gpxtpx:hr>127</gpxtpx:hr>
          </gpxtpx:TrackPointExtension>
        </extensions>
      </trkpt>
      <trkpt lat="49.35191" lon="1.0219">
        <ele>135.42002868652</ele>
        <time>2017-04-09T06:51:22.000Z</time>
      </trkpt>
      <trkpt lat="49.35185" lon="1.02215">
        <ele>135.53495788574</ele>
        <time>2017-04-09T06:51:25.000Z</time>
      </trkpt>
      <trkpt lat="49.35182" lon="1.02236">
        <ele>135.5602722168</ele>
        <time>2017-04-09T06:51:27.000Z</time>
      </trkpt>
      <trkpt lat="49.35176" lon="1.02251">
        <ele>135.54258728027</ele>
        <time>2017-04-09T06:51:29.000Z</time>
      </trkpt>
      <trkpt lat="49.35171" lon="1.02279">
        <ele>135.21719360352</ele>
        <time>2017-04-09T06:51:32.000Z</time>
      </trkpt>
      <trkpt lat="49.3517" lon="1.02304">
        <ele>134.64796447754</ele>
        <time>2017-04-09T06:51:35.000Z</time>
      </trkpt>
      <trkpt lat="49.35168" lon="1.02319">
        <ele>133.91088867188</ele>
        <time>2017-04-09T06:51:37.000Z</time>
      </trkpt>
      <trkpt lat="49.35168" lon="1.02337">
        <ele>132.99617004395</ele>
        <time>2017-04-09T06:51:39.000Z</time>
      </trkpt>
      <trkpt lat="49.35168" lon="1.02351">
        <ele>131.97761535645</ele>
        <time>2017-04-09T06:51:41.000Z</time>
      </trkpt>
      <trkpt lat="49.35165" lon="1.0238">
        <ele>131.01596069336</ele>
        <time>2017-04-09T06:51:44.000Z</time>
      </trkpt>
      <trkpt lat="49.35162" lon="1.02407">
        <ele>130.12692260742</ele>
        <time>2017-04-09T06:51:47.000Z</time>
      </trkpt>
      <trkpt lat="49.35156" lon="1.0243">
        <ele>129.2998046875</ele>
        <time>2017-04-09T06:51:49.000Z</time>
      </trkpt>
      <trkpt lat="49.35152" lon="1.02458">
        <ele>128.62307739258</ele>
        <time>2017-04-09T06:51:52.000Z</time>
      </trkpt>
      <trkpt lat="49.35151" lon="1.02474">
        <ele>128.02526855469</ele>
        <time>2017-04-09T06:51:54.000Z</time>
      </trkpt>
      <trkpt lat="49.35147" lon="1.025">
        <ele>127.5758895874</ele>
        <time>2017-04-09T06:51:57.000Z</time>
      </trkpt>
      <trkpt lat="49.35148" lon="1.02517">
        <ele>127.24954986572</ele>
        <time>2017-04-09T06:51:59.000Z</time>
      </trkpt>
      <trkpt lat="49.35158" lon="1.02534">
        <ele>127.00675201416</ele>
        <time>2017-04-09T06:52:02.000Z</time>
        <extensions>
          <gpxtpx:TrackPointExtension xmlns:gpxtpx="http://www.garmin.com/xmlschemas/TrackPointExtension/v1">
            <gpxtpx:hr>121</gpxtpx:hr>
          </gpxtpx:TrackPointExtension>
        </extensions>
      </trkpt>
      <trkpt lat="49.35167" lon="1.02547">
        <ele>126.77072906494</ele>
        <time>2017-04-09T06:52:04.000Z</time>
        <extensions>
          <gpxtpx:TrackPointExtension xmlns:gpxtpx="http://www.garmin.com/xmlschemas/TrackPointExtension/v1">
            <gpxtpx:hr>113</gpxtpx:hr>
          </gpxtpx:TrackPointExtension>
        </extensions>
      </trkpt>
      <trkpt lat="49.35174" lon="1.0256">
        <ele>126.50258636475</ele>
        <time>2017-04-09T06:52:06.000Z</time>
        <extensions>
          <gpxtpx:TrackPointExtension xmlns:gpxtpx="http://www.garmin.com/xmlschemas/TrackPointExtension/v1">
            <gpxtpx:hr>149</gpxtpx:hr>
          </gpxtpx:TrackPointExtension>
        </extensions>
      </trkpt>
      <trkpt lat="49.35184" lon="1.02579">
        <ele>126.24348449707</ele>
        <time>2017-04-09T06:52:09.000Z</time>
        <extensions>
          <gpxtpx:TrackPointExtension xmlns:gpxtpx="http://www.garmin.com/xmlschemas/TrackPointExtension/v1">
            <gpxtpx:hr>148</gpxtpx:hr>
          </gpxtpx:TrackPointExtension>
        </extensions>
      </trkpt>
      <trkpt lat="49.35193" lon="1.02593">
        <ele>126.0389251709</ele>
        <time>2017-04-09T06:52:11.000Z</time>
        <extensions>
          <gpxtpx:TrackPointExtension xmlns:gpxtpx="http://www.garmin.com/xmlschemas/TrackPointExtension/v1">
            <gpxtpx:hr>106</gpxtpx:hr>
          </gpxtpx:TrackPointExtension>
        </extensions>
      </trkpt>
      <trkpt lat="49.35206" lon="1.02606">
        <ele>125.83829498291</ele>
        <time>2017-04-09T06:52:14.000Z</time>
        <extensions>
          <gpxtpx:TrackPointExtension xmlns:gpxtpx="http://www.garmin.com/xmlschemas/TrackPointExtension/v1">
            <gpxtpx:hr>121</gpxtpx:hr>
          </gpxtpx:TrackPointExtension>
        </extensions>
      </trkpt>
      <trkpt lat="49.35222" lon="1.02609">
        <ele>125.74749755859</ele>
        <time>2017-04-09T06:52:17.000Z</time>
        <extensions>
          <gpxtpx:TrackPointExtension xmlns:gpxtpx="http://www.garmin.com/xmlschemas/TrackPointExtension/v1">
            <gpxtpx:hr>113</gpxtpx:hr>
          </gpxtpx:TrackPointExtension>
        </extensions>
      </trkpt>
      <trkpt lat="49.35238" lon="1.02607">
        <ele>125.82810974121</ele>
        <time>2017-04-09T06:52:20.000Z</time>
        <extensions>
          <gpxtpx:TrackPointExtension xmlns:gpxtpx="http://www.garmin.com/xmlschemas/TrackPointExtension/v1">
            <gpxtpx:hr>149</gpxtpx:hr>
          </gpxtpx:TrackPointExtension>
        </extensions>
      </trkpt>
      <trkpt lat="49.35254" lon="1.02609">
        <ele>126.0100479126</ele>
        <time>2017-04-09T06:52:23.000Z</time>
        <extensions>
          <gpxtpx:TrackPointExtension xmlns:gpxtpx="http://www.garmin.com/xmlschemas/TrackPointExtension/v1">
            <gpxtpx:hr>148</gpxtpx:hr>
          </gpxtpx:TrackPointExtension>
        </extensions>
      </trkpt>
      <trkpt lat="49.3527" lon="1.02615">
        <ele>126.1149520874</ele>
        <time>2017-04-09T06:52:26.000Z</time>
        <extensions>
          <gpxtpx:TrackPointExtension xmlns:gpxtpx="http://www.garmin.com/xmlschemas/TrackPointExtension/v1">
            <gpxtpx:hr>106</gpxtpx:hr>
          </gpxtpx:TrackPointExtension>
        </extensions>
      </trkpt>
      <trkpt lat="49.35282" lon="1.0262">
        <ele>126.1704864502</ele>
        <time>2017-04-09T06:52:29.000Z</time>
        <extensions>
          <gpxtpx:TrackPointExtension xmlns:gpxtpx="http://www.garmin.com/xmlschemas/TrackPointExtension/v1">
            <gpxtpx:hr>106</gpxtpx:hr>
          </gpxtpx:TrackPointExtension>
        </extensions>
      </trkpt>
      <trkpt lat="49.35293" lon="1.02626">
        <ele>126.09135437012</ele>
        <time>2017-04-09T06:52:32.000Z</time>
        <extensions>
          <gpxtpx:TrackPointExtension xmlns:gpxtpx="http://www.garmin.com/xmlschemas/TrackPointExtension/v1">
            <gpxtpx:hr>101</gpxtpx:hr>
          </gpxtpx:TrackPointExtension>
        </extensions>
      </trkpt>
      <trkpt lat="49.35298" lon="1.0263">
        <ele>125.86781311035</ele>
        <time>2017-04-09T06:52:34.000Z</time>
        <extensions>
          <gpxtpx:TrackPointExtension xmlns:gpxtpx="http://www.garmin.com/xmlschemas/TrackPointExtension/v1">
            <gpxtpx:hr>76</gpxtpx:hr>
          </gpxtpx:TrackPointExtension>
        </extensions>
      </trkpt>
      <trkpt lat="49.35301" lon="1.02643">
        <ele>125.5435333252</ele>
        <time>2017-04-09T06:52:37.000Z</time>
        <extensions>
          <gpxtpx:TrackPointExtension xmlns:gpxtpx="http://www.garmin.com/xmlschemas/TrackPointExtension/v1">
            <gpxtpx:hr>99</gpxtpx:hr>
          </gpxtpx:TrackPointExtension>
        </extensions>
      </trkpt>
      <trkpt lat="49.35301" lon="1.02658">
        <ele>125.27475738525</ele>
        <time>2017-04-09T06:52:40.000Z</time>
      </trkpt>
      <trkpt lat="49.35294" lon="1.02672">
        <ele>125.01959228516</ele>
        <time>2017-04-09T06:52:43.000Z</time>
      </trkpt>
      <trkpt lat="49.35287" lon="1.02678">
        <ele>124.80673980713</ele>
        <time>2017-04-09T06:52:45.000Z</time>
      </trkpt>
      <trkpt lat="49.35273" lon="1.02689">
        <ele>124.58351898193</ele>
        <time>2017-04-09T06:52:48.000Z</time>
      </trkpt>
      <trkpt lat="49.35268" lon="1.02699">
        <ele>124.39801025391</ele>
        <time>2017-04-09T06:52:50.000Z</time>
      </trkpt>
      <trkpt lat="49.35258" lon="1.02711">
        <ele>124.25337982178</ele>
        <time>2017-04-09T06:52:53.000Z</time>
      </trkpt>
      <trkpt lat="49.3525" lon="1.0272">
        <ele>124.1549911499</ele>
        <time>2017-04-09T06:52:55.000Z</time>
      </trkpt>
      <trkpt lat="49.35242" lon="1.0273">
        <ele>124.05583190918</ele>
        <time>2017-04-09T06:52:57.000Z</time>
      </trkpt>
      <trkpt lat="49.35234" lon="1.02741">
        <ele>123.97290039062</ele>
        <time>2017-04-09T06:52:59.000Z</time>
      </trkpt>
      <trkpt lat="49.35222" lon="1.02757">
        <ele>123.87274169922</ele>
        <time>2017-04-09T06:53:02.000Z</time>
        <extensions>
          <gpxtpx:TrackPointExtension xmlns:gpxtpx="http://www.garmin.com/xmlschemas/TrackPointExtension/v1">
            <gpxtpx:hr>140</gpxtpx:hr>
          </gpxtpx:TrackPointExtension>
        </extensions>
      </trkpt>
      <trkpt lat="49.35213" lon="1.02769">
        <ele>123.76977539062</ele>
        <time>2017-04-09T06:53:04.000Z</time>
        <extensions>
          <gpxtpx:TrackPointExtension xmlns:gpxtpx="http://www.garmin.com/xmlschemas/TrackPointExtension/v1">
            <gpxtpx:hr>144</gpxtpx:hr>
          </gpxtpx:TrackPointExtension>
        </extensions>
      </trkpt>
      <trkpt lat="49.35201" lon="1.02783">
        <ele>123.66523742676</ele>
        <time>2017-04-09T06:53:07.000Z</time>
      </trkpt>
      <trkpt lat="49.35191" lon="1.0279">
        <ele>123.58620452881</ele>
        <time>2017-04-09T06:53:09.000Z</time>
        <extensions>
          <gpxtpx:TrackPointExtension xmlns:gpxtpx="http://www.garmin.com/xmlschemas/TrackPointExtension/v1">
            <gpxtpx:hr>117</gpxtpx:hr>
          </gpxtpx:TrackPointExtension>
        </extensions>
      </trkpt>
      <trkpt lat="49.35182" lon="1.02802">
        <ele>123.54428863525</ele>
        <time>2017-04-09T06:53:11.000Z</time>
        <extensions>
          <gpxtpx:TrackPointExtension xmlns:gpxtpx="http://www.garmin.com/xmlschemas/TrackPointExtension/v1">
            <gpxtpx:hr>142</gpxtpx:hr>
          </gpxtpx:TrackPointExtension>
        </extensions>
      </trkpt>
      <trkpt lat="49.35168" lon="1.02818">
        <ele>123.57841491699</ele>
        <time>2017-04-09T06:53:14.000Z</time>
        <extensions>
          <gpxtpx:TrackPointExtension xmlns:gpxtpx="http://www.garmin.com/xmlschemas/TrackPointExtension/v1">
            <gpxtpx:hr>142</gpxtpx:hr>
          </gpxtpx:TrackPointExtension>
        </extensions>
      </trkpt>
      <trkpt lat="49.35152" lon="1.02823">
        <ele>123.68395996094</ele>
        <time>2017-04-09T06:53:17.000Z</time>
        <extensions>
          <gpxtpx:TrackPointExtension xmlns:gpxtpx="http://www.garmin.com/xmlschemas/TrackPointExtension/v1">
            <gpxtpx:hr>157</gpxtpx:hr>
          </gpxtpx:TrackPointExtension>
        </extensions>
      </trkpt>
      <trkpt lat="49.35138" lon="1.02838">
        <ele>123.87783050537</ele>
        <time>2017-04-09T06:53:20.000Z</time>
      </trkpt>
      <trkpt lat="49.35125" lon="1.02837">
        <ele>124.0915145874</ele>
        <time>2017-04-09T06:53:22.000Z</time>
      </trkpt>
      <trkpt lat="49.35104" lon="1.02841">
        <ele>124.338722229</ele>
        <time>2017-04-09T06:53:25.000Z</time>
      </trkpt>
      <trkpt lat="49.35094" lon="1.02859">
        <ele>124.5756072998</ele>
        <time>2017-04-09T06:53:27.000Z</time>
      </trkpt>
      <trkpt lat="49.35089" lon="1.02879">
        <ele>124.77349853516</ele>
        <time>2017-04-09T06:53:29.000Z</time>
      </trkpt>
      <trkpt lat="49.35081" lon="1.02906">
        <ele>124.89350891113</ele>
        <time>2017-04-09T06:53:32.000Z</time>
      </trkpt>
      <trkpt lat="49.35077" lon="1.02921">
        <ele>125.03293609619</ele>
        <time>2017-04-09T06:53:34.000Z</time>
      </trkpt>
      <trkpt lat="49.35066" lon="1.02938">
        <ele>125.21060943604</ele>
        <time>2017-04-09T06:53:37.000Z</time>
      </trkpt>
      <trkpt lat="49.35059" lon="1.0295">
        <ele>125.39666748047</ele>
        <time>2017-04-09T06:53:40.000Z</time>
      </trkpt>
      <trkpt lat="49.35055" lon="1.02954">
        <ele>125.58061218262</ele>
        <time>2017-04-09T06:53:42.000Z</time>
      </trkpt>
      <trkpt lat="49.35056" lon="1.02953">
        <ele>125.76181793213</ele>
        <time>2017-04-09T06:53:47.000Z</time>
      </trkpt>
      <trkpt lat="49.35051" lon="1.02954">
        <ele>125.90572357178</ele>
        <time>2017-04-09T06:53:50.000Z</time>
      </trkpt>
      <trkpt lat="49.35043" lon="1.0295">
        <ele>125.96291351318</ele>
        <time>2017-04-09T06:53:53.000Z</time>
      </trkpt>
      <trkpt lat="49.35032" lon="1.02941">
        <ele>125.99987792969</ele>
        <time>2017-04-09T06:53:56.000Z</time>
      </trkpt>
      <trkpt lat="49.3502" lon="1.02939">
        <ele>126.05643463135</ele>
        <time>2017-04-09T06:53:59.000Z</time>
      </trkpt>
      <trkpt lat="49.35012" lon="1.02935">
        <ele>126.14493560791</ele>
        <time>2017-04-09T06:54:01.000Z</time>
        <extensions>
          <gpxtpx:TrackPointExtension xmlns:gpxtpx="http://www.garmin.com/xmlschemas/TrackPointExtension/v1">
            <gpxtpx:hr>138</gpxtpx:hr>
          </gpxtpx:TrackPointExtension>
        </extensions>
      </trkpt>
      <trkpt lat="49.35001" lon="1.02925">
        <ele>126.30456542969</ele>
        <time>2017-04-09T06:54:04.000Z</time>
        <extensions>
          <gpxtpx:TrackPointExtension xmlns:gpxtpx="http://www.garmin.com/xmlschemas/TrackPointExtension/v1">
            <gpxtpx:hr>145</gpxtpx:hr>
          </gpxtpx:TrackPointExtension>
        </extensions>
      </trkpt>
      <trkpt lat="49.34988" lon="1.02921">
        <ele>126.60367584229</ele>
        <time>2017-04-09T06:54:07.000Z</time>
        <extensions>
          <gpxtpx:TrackPointExtension xmlns:gpxtpx="http://www.garmin.com/xmlschemas/TrackPointExtension/v1">
            <gpxtpx:hr>159</gpxtpx:hr>
          </gpxtpx:TrackPointExtension>
        </extensions>
      </trkpt>
      <trkpt lat="49.34974" lon="1.02914">
        <ele>127.01617431641</ele>
        <time>2017-04-09T06:54:10.000Z</time>
        <extensions>
          <gpxtpx:TrackPointExtension xmlns:gpxtpx="http://www.garmin.com/xmlschemas/TrackPointExtension/v1">
            <gpxtpx:hr>144</gpxtpx:hr>
          </gpxtpx:TrackPointExtension>
        </extensions>
      </trkpt>
      <trkpt lat="49.34966" lon="1.02907">
        <ele>127.4122543335</ele>
        <time>2017-04-09T06:54:12.000Z</time>
        <extensions>
          <gpxtpx:TrackPointExtension xmlns:gpxtpx="http://www.garmin.com/xmlschemas/TrackPointExtension/v1">
            <gpxtpx:hr>113</gpxtpx:hr>
          </gpxtpx:TrackPointExtension>
        </extensions>
      </trkpt>
      <trkpt lat="49.3495" lon="1.02901">
        <ele>127.85102844238</ele>
        <time>2017-04-09T06:54:15.000Z</time>
        <extensions>
          <gpxtpx:TrackPointExtension xmlns:gpxtpx="http://www.garmin.com/xmlschemas/TrackPointExtension/v1">
            <gpxtpx:hr>108</gpxtpx:hr>
          </gpxtpx:TrackPointExtension>
        </extensions>
      </trkpt>
      <trkpt lat="49.34941" lon="1.02897">
        <ele>128.23522949219</ele>
        <time>2017-04-09T06:54:17.000Z</time>
        <extensions>
          <gpxtpx:TrackPointExtension xmlns:gpxtpx="http://www.garmin.com/xmlschemas/TrackPointExtension/v1">
            <gpxtpx:hr>134</gpxtpx:hr>
          </gpxtpx:TrackPointExtension>
        </extensions>
      </trkpt>
      <trkpt lat="49.3493" lon="1.02891">
        <ele>128.48823547363</ele>
        <time>2017-04-09T06:54:19.000Z</time>
        <extensions>
          <gpxtpx:TrackPointExtension xmlns:gpxtpx="http://www.garmin.com/xmlschemas/TrackPointExtension/v1">
            <gpxtpx:hr>111</gpxtpx:hr>
          </gpxtpx:TrackPointExtension>
        </extensions>
      </trkpt>
      <trkpt lat="49.34917" lon="1.02882">
        <ele>128.55337524414</ele>
        <time>2017-04-09T06:54:22.000Z</time>
      </trkpt>
      <trkpt lat="49.34902" lon="1.02871">
        <ele>128.54090881348</ele>
        <time>2017-04-09T06:54:25.000Z</time>
      </trkpt>
      <trkpt lat="49.34892" lon="1.02867">
        <ele>128.46879577637</ele>
        <time>2017-04-09T06:54:27.000Z</time>
      </trkpt>
      <trkpt lat="49.34883" lon="1.02861">
        <ele>128.37382507324</ele>
        <time>2017-04-09T06:54:29.000Z</time>
      </trkpt>
      <trkpt lat="49.34869" lon="1.02854">
        <ele>128.30026245117</ele>
        <time>2017-04-09T06:54:32.000Z</time>
      </trkpt>
      <trkpt lat="49.34858" lon="1.0285">
        <ele>128.31755065918</ele>
        <time>2017-04-09T06:54:34.000Z</time>
      </trkpt>
      <trkpt lat="49.34848" lon="1.02846">
        <ele>128.45051574707</ele>
        <time>2017-04-09T06:54:36.000Z</time>
      </trkpt>
      <trkpt lat="49.34839" lon="1.02839">
        <ele>128.59365844727</ele>
        <time>2017-04-09T06:54:38.000Z</time>
      </trkpt>
      <trkpt lat="49.34828" lon="1.02835">
        <ele>128.80541992188</ele>
        <time>2017-04-09T06:54:40.000Z</time>
      </trkpt>
      <trkpt lat="49.34816" lon="1.02823">
        <ele>129.00283813477</ele>
        <time>2017-04-09T06:54:43.000Z</time>
      </trkpt>
      <trkpt lat="49.34805" lon="1.0281">
        <ele>129.15690612793</ele>
        <time>2017-04-09T06:54:46.000Z</time>
      </trkpt>
      <trkpt lat="49.34793" lon="1.02796">
        <ele>129.26643371582</ele>
        <time>2017-04-09T06:54:49.000Z</time>
      </trkpt>
      <trkpt lat="49.3478" lon="1.02784">
        <ele>129.38529968262</ele>
        <time>2017-04-09T06:54:52.000Z</time>
      </trkpt>
      <trkpt lat="49.34771" lon="1.02779">
        <ele>129.5026550293</ele>
        <time>2017-04-09T06:54:54.000Z</time>
      </trkpt>
      <trkpt lat="49.34762" lon="1.02773">
        <ele>129.65202331543</ele>
        <time>2017-04-09T06:54:56.000Z</time>
      </trkpt>
      <trkpt lat="49.34748" lon="1.02762">
        <ele>129.87678527832</ele>
        <time>2017-04-09T06:54:59.000Z</time>
      </trkpt>
      <trkpt lat="49.34732" lon="1.02756">
        <ele>130.12051391602</ele>
        <time>2017-04-09T06:55:02.000Z</time>
        <extensions>
          <gpxtpx:TrackPointExtension xmlns:gpxtpx="http://www.garmin.com/xmlschemas/TrackPointExtension/v1">
            <gpxtpx:hr>135</gpxtpx:hr>
          </gpxtpx:TrackPointExtension>
        </extensions>
      </trkpt>
      <trkpt lat="49.34718" lon="1.02749">
        <ele>130.36305236816</ele>
        <time>2017-04-09T06:55:05.000Z</time>
        <extensions>
          <gpxtpx:TrackPointExtension xmlns:gpxtpx="http://www.garmin.com/xmlschemas/TrackPointExtension/v1">
            <gpxtpx:hr>143</gpxtpx:hr>
          </gpxtpx:TrackPointExtension>
        </extensions>
      </trkpt>
      <trkpt lat="49.34704" lon="1.02738">
        <ele>130.50637817383</ele>
        <time>2017-04-09T06:55:08.000Z</time>
        <extensions>
          <gpxtpx:TrackPointExtension xmlns:gpxtpx="http://www.garmin.com/xmlschemas/TrackPointExtension/v1">
            <gpxtpx:hr>151</gpxtpx:hr>
          </gpxtpx:TrackPointExtension>
        </extensions>
      </trkpt>
      <trkpt lat="49.34692" lon="1.02727">
        <ele>130.53958129883</ele>
        <time>2017-04-09T06:55:11.000Z</time>
        <extensions>
          <gpxtpx:TrackPointExtension xmlns:gpxtpx="http://www.garmin.com/xmlschemas/TrackPointExtension/v1">
            <gpxtpx:hr>165</gpxtpx:hr>
          </gpxtpx:TrackPointExtension>
        </extensions>
      </trkpt>
      <trkpt lat="49.34684" lon="1.02718">
        <ele>130.42419433594</ele>
        <time>2017-04-09T06:55:13.000Z</time>
        <extensions>
          <gpxtpx:TrackPointExtension xmlns:gpxtpx="http://www.garmin.com/xmlschemas/TrackPointExtension/v1">
            <gpxtpx:hr>113</gpxtpx:hr>
          </gpxtpx:TrackPointExtension>
        </extensions>
      </trkpt>
      <trkpt lat="49.34678" lon="1.02708">
        <ele>130.19235229492</ele>
        <time>2017-04-09T06:55:15.000Z</time>
        <extensions>
          <gpxtpx:TrackPointExtension xmlns:gpxtpx="http://www.garmin.com/xmlschemas/TrackPointExtension/v1">
            <gpxtpx:hr>157</gpxtpx:hr>
          </gpxtpx:TrackPointExtension>
        </extensions>
      </trkpt>
      <trkpt lat="49.34666" lon="1.02699">
        <ele>129.84274291992</ele>
        <time>2017-04-09T06:55:18.000Z</time>
        <extensions>
          <gpxtpx:TrackPointExtension xmlns:gpxtpx="http://www.garmin.com/xmlschemas/TrackPointExtension/v1">
            <gpxtpx:hr>154</gpxtpx:hr>
          </gpxtpx:TrackPointExtension>
        </extensions>
      </trkpt>
      <trkpt lat="49.34655" lon="1.02687">
        <ele>129.48159790039</ele>
        <time>2017-04-09T06:55:21.000Z</time>
      </trkpt>
      <trkpt lat="49.34646" lon="1.02679">
        <ele>129.18676757812</ele>
        <time>2017-04-09T06:55:23.000Z</time>
      </trkpt>
      <trkpt lat="49.34632" lon="1.0267">
        <ele>129.04067993164</ele>
        <time>2017-04-09T06:55:26.000Z</time>
      </trkpt>
      <trkpt lat="49.34622" lon="1.02662">
        <ele>129.05715942383</ele>
        <time>2017-04-09T06:55:28.000Z</time>
      </trkpt>
      <trkpt lat="49.34605" lon="1.0265">
        <ele>129.26698303223</ele>
        <time>2017-04-09T06:55:31.000Z</time>
      </trkpt>
      <trkpt lat="49.34597" lon="1.02642">
        <ele>129.54214477539</ele>
        <time>2017-04-09T06:55:33.000Z</time>
      </trkpt>
      <trkpt lat="49.34583" lon="1.02632">
        <ele>129.84468078613</ele>
        <time>2017-04-09T06:55:36.000Z</time>
      </trkpt>
      <trkpt lat="49.34576" lon="1.02629">
        <ele>130.08828735352</ele>
        <time>2017-04-09T06:55:38.000Z</time>
      </trkpt>
      <trkpt lat="49.34561" lon="1.02622">
        <ele>130.25161743164</ele>
        <time>2017-04-09T06:55:41.000Z</time>
      </trkpt>
      <trkpt lat="49.34547" lon="1.02619">
        <ele>130.33004760742</ele>
        <time>2017-04-09T06:55:44.000Z</time>
      </trkpt>
      <trkpt lat="49.34534" lon="1.02612">
        <ele>130.34004211426</ele>
        <time>2017-04-09T06:55:47.000Z</time>
      </trkpt>
      <trkpt lat="49.34517" lon="1.02601">
        <ele>130.1789855957</ele>
        <time>2017-04-09T06:55:50.000Z</time>
      </trkpt>
      <trkpt lat="49.34505" lon="1.02595">
        <ele>129.91816711426</ele>
        <time>2017-04-09T06:55:53.000Z</time>
      </trkpt>
      <trkpt lat="49.34496" lon="1.02591">
        <ele>129.57852172852</ele>
        <time>2017-04-09T06:55:55.000Z</time>
      </trkpt>
      <trkpt lat="49.34485" lon="1.02595">
        <ele>129.22048950195</ele>
        <time>2017-04-09T06:55:58.000Z</time>
      </trkpt>
      <trkpt lat="49.34476" lon="1.02607">
        <ele>129.01933288574</ele>
        <time>2017-04-09T06:56:01.000Z</time>
        <extensions>
          <gpxtpx:TrackPointExtension xmlns:gpxtpx="http://www.garmin.com/xmlschemas/TrackPointExtension/v1">
            <gpxtpx:hr>153</gpxtpx:hr>
          </gpxtpx:TrackPointExtension>
        </extensions>
      </trkpt>
      <trkpt lat="49.34471" lon="1.02628">
        <ele>129.21611022949</ele>
        <time>2017-04-09T06:56:04.000Z</time>
      </trkpt>
      <trkpt lat="49.34469" lon="1.02641">
        <ele>129.65629577637</ele>
        <time>2017-04-09T06:56:06.000Z</time>
        <extensions>
          <gpxtpx:TrackPointExtension xmlns:gpxtpx="http://www.garmin.com/xmlschemas/TrackPointExtension/v1">
            <gpxtpx:hr>133</gpxtpx:hr>
          </gpxtpx:TrackPointExtension>
        </extensions>
      </trkpt>
      <trkpt lat="49.3447" lon="1.02661">
        <ele>130.45967102051</ele>
        <time>2017-04-09T06:56:09.000Z</time>
        <extensions>
          <gpxtpx:TrackPointExtension xmlns:gpxtpx="http://www.garmin.com/xmlschemas/TrackPointExtension/v1">
            <gpxtpx:hr>151</gpxtpx:hr>
          </gpxtpx:TrackPointExtension>
        </extensions>
      </trkpt>
      <trkpt lat="49.3447" lon="1.02673">
        <ele>131.35111999512</ele>
        <time>2017-04-09T06:56:11.000Z</time>
        <extensions>
          <gpxtpx:TrackPointExtension xmlns:gpxtpx="http://www.garmin.com/xmlschemas/TrackPointExtension/v1">
            <gpxtpx:hr>152</gpxtpx:hr>
          </gpxtpx:TrackPointExtension>
        </extensions>
      </trkpt>
      <trkpt lat="49.34465" lon="1.02695">
        <ele>132.07650756836</ele>
        <time>2017-04-09T06:56:14.000Z</time>
        <extensions>
          <gpxtpx:TrackPointExtension xmlns:gpxtpx="http://www.garmin.com/xmlschemas/TrackPointExtension/v1">
            <gpxtpx:hr>152</gpxtpx:hr>
          </gpxtpx:TrackPointExtension>
        </extensions>
      </trkpt>
      <trkpt lat="49.34463" lon="1.02714">
        <ele>132.52647399902</ele>
        <time>2017-04-09T06:56:17.000Z</time>
        <extensions>
          <gpxtpx:TrackPointExtension xmlns:gpxtpx="http://www.garmin.com/xmlschemas/TrackPointExtension/v1">
            <gpxtpx:hr>153</gpxtpx:hr>
          </gpxtpx:TrackPointExtension>
        </extensions>
      </trkpt>
      <trkpt lat="49.34459" lon="1.02734">
        <ele>132.76123046875</ele>
        <time>2017-04-09T06:56:20.000Z</time>
        <extensions>
          <gpxtpx:TrackPointExtension xmlns:gpxtpx="http://www.garmin.com/xmlschemas/TrackPointExtension/v1">
            <gpxtpx:hr>151</gpxtpx:hr>
          </gpxtpx:TrackPointExtension>
        </extensions>
      </trkpt>
      <trkpt lat="49.34456" lon="1.02746">
        <ele>132.68255615234</ele>
        <time>2017-04-09T06:56:22.000Z</time>
        <extensions>
          <gpxtpx:TrackPointExtension xmlns:gpxtpx="http://www.garmin.com/xmlschemas/TrackPointExtension/v1">
            <gpxtpx:hr>134</gpxtpx:hr>
          </gpxtpx:TrackPointExtension>
        </extensions>
      </trkpt>
      <trkpt lat="49.34451" lon="1.02762">
        <ele>132.42633056641</ele>
        <time>2017-04-09T06:56:25.000Z</time>
      </trkpt>
      <trkpt lat="49.3445" lon="1.02776">
        <ele>132.22338867188</ele>
        <time>2017-04-09T06:56:28.000Z</time>
      </trkpt>
      <trkpt lat="49.34446" lon="1.02786">
        <ele>131.98733520508</ele>
        <time>2017-04-09T06:56:30.000Z</time>
      </trkpt>
      <trkpt lat="49.34442" lon="1.02799">
        <ele>131.7827911377</ele>
        <time>2017-04-09T06:56:32.000Z</time>
      </trkpt>
      <trkpt lat="49.34436" lon="1.02817">
        <ele>131.60879516602</ele>
        <time>2017-04-09T06:56:35.000Z</time>
      </trkpt>
      <trkpt lat="49.34435" lon="1.02835">
        <ele>131.57165527344</ele>
        <time>2017-04-09T06:56:38.000Z</time>
      </trkpt>
      <trkpt lat="49.34431" lon="1.02849">
        <ele>131.52876281738</ele>
        <time>2017-04-09T06:56:40.000Z</time>
      </trkpt>
      <trkpt lat="49.34429" lon="1.02863">
        <ele>131.54090881348</ele>
        <time>2017-04-09T06:56:42.000Z</time>
      </trkpt>
      <trkpt lat="49.34421" lon="1.0288">
        <ele>131.57815551758</ele>
        <time>2017-04-09T06:56:45.000Z</time>
      </trkpt>
      <trkpt lat="49.3442" lon="1.0289">
        <ele>131.64286804199</ele>
        <time>2017-04-09T06:56:47.000Z</time>
      </trkpt>
      <trkpt lat="49.34417" lon="1.02907">
        <ele>131.69094848633</ele>
        <time>2017-04-09T06:56:50.000Z</time>
      </trkpt>
      <trkpt lat="49.34416" lon="1.02919">
        <ele>131.76469421387</ele>
        <time>2017-04-09T06:56:52.000Z</time>
      </trkpt>
      <trkpt lat="49.34417" lon="1.02931">
        <ele>131.83821105957</ele>
        <time>2017-04-09T06:56:54.000Z</time>
      </trkpt>
      <trkpt lat="49.34416" lon="1.02953">
        <ele>131.90858459473</ele>
        <time>2017-04-09T06:56:57.000Z</time>
      </trkpt>
      <trkpt lat="49.34411" lon="1.02977">
        <ele>131.90463256836</ele>
        <time>2017-04-09T06:57:00.000Z</time>
        <extensions>
          <gpxtpx:TrackPointExtension xmlns:gpxtpx="http://www.garmin.com/xmlschemas/TrackPointExtension/v1">
            <gpxtpx:hr>120</gpxtpx:hr>
          </gpxtpx:TrackPointExtension>
        </extensions>
      </trkpt>
      <trkpt lat="49.34405" lon="1.02995">
        <ele>131.81449890137</ele>
        <time>2017-04-09T06:57:03.000Z</time>
        <extensions>
          <gpxtpx:TrackPointExtension xmlns:gpxtpx="http://www.garmin.com/xmlschemas/TrackPointExtension/v1">
            <gpxtpx:hr>129</gpxtpx:hr>
          </gpxtpx:TrackPointExtension>
        </extensions>
      </trkpt>
      <trkpt lat="49.34402" lon="1.03008">
        <ele>131.65383911133</ele>
        <time>2017-04-09T06:57:05.000Z</time>
        <extensions>
          <gpxtpx:TrackPointExtension xmlns:gpxtpx="http://www.garmin.com/xmlschemas/TrackPointExtension/v1">
            <gpxtpx:hr>163</gpxtpx:hr>
          </gpxtpx:TrackPointExtension>
        </extensions>
      </trkpt>
      <trkpt lat="49.344" lon="1.03026">
        <ele>131.3910369873</ele>
        <time>2017-04-09T06:57:08.000Z</time>
        <extensions>
          <gpxtpx:TrackPointExtension xmlns:gpxtpx="http://www.garmin.com/xmlschemas/TrackPointExtension/v1">
            <gpxtpx:hr>183</gpxtpx:hr>
          </gpxtpx:TrackPointExtension>
        </extensions>
      </trkpt>
      <trkpt lat="49.34395" lon="1.03041">
        <ele>131.04273986816</ele>
        <time>2017-04-09T06:57:11.000Z</time>
        <extensions>
          <gpxtpx:TrackPointExtension xmlns:gpxtpx="http://www.garmin.com/xmlschemas/TrackPointExtension/v1">
            <gpxtpx:hr>158</gpxtpx:hr>
          </gpxtpx:TrackPointExtension>
        </extensions>
      </trkpt>
      <trkpt lat="49.34393" lon="1.0306">
        <ele>130.66995239258</ele>
        <time>2017-04-09T06:57:14.000Z</time>
        <extensions>
          <gpxtpx:TrackPointExtension xmlns:gpxtpx="http://www.garmin.com/xmlschemas/TrackPointExtension/v1">
            <gpxtpx:hr>128</gpxtpx:hr>
          </gpxtpx:TrackPointExtension>
        </extensions>
      </trkpt>
      <trkpt lat="49.34392" lon="1.03071">
        <ele>130.30648803711</ele>
        <time>2017-04-09T06:57:16.000Z</time>
        <extensions>
          <gpxtpx:TrackPointExtension xmlns:gpxtpx="http://www.garmin.com/xmlschemas/TrackPointExtension/v1">
            <gpxtpx:hr>114</gpxtpx:hr>
          </gpxtpx:TrackPointExtension>
        </extensions>
      </trkpt>
      <trkpt lat="49.34391" lon="1.03087">
        <ele>129.92549133301</ele>
        <time>2017-04-09T06:57:19.000Z</time>
        <extensions>
          <gpxtpx:TrackPointExtension xmlns:gpxtpx="http://www.garmin.com/xmlschemas/TrackPointExtension/v1">
            <gpxtpx:hr>136</gpxtpx:hr>
          </gpxtpx:TrackPointExtension>
        </extensions>
      </trkpt>
      <trkpt lat="49.34388" lon="1.03099">
        <ele>129.56538391113</ele>
        <time>2017-04-09T06:57:21.000Z</time>
        <extensions>
          <gpxtpx:TrackPointExtension xmlns:gpxtpx="http://www.garmin.com/xmlschemas/TrackPointExtension/v1">
            <gpxtpx:hr>166</gpxtpx:hr>
          </gpxtpx:TrackPointExtension>
        </extensions>
      </trkpt>
      <trkpt lat="49.34383" lon="1.03115">
        <ele>129.19319152832</ele>
        <time>2017-04-09T06:57:24.000Z</time>
        <extensions>
          <gpxtpx:TrackPointExtension xmlns:gpxtpx="http://www.garmin.com/xmlschemas/TrackPointExtension/v1">
            <gpxtpx:hr>150</gpxtpx:hr>
          </gpxtpx:TrackPointExtension>
        </extensions>
      </trkpt>
      <trkpt lat="49.34382" lon="1.03126">
        <ele>128.83906555176</ele>
        <time>2017-04-09T06:57:26.000Z</time>
      </trkpt>
      <trkpt lat="49.34379" lon="1.03143">
        <ele>128.43481445312</ele>
        <time>2017-04-09T06:57:29.000Z</time>
      </trkpt>
      <trkpt lat="49.34373" lon="1.0316">
        <ele>128.01376342773</ele>
        <time>2017-04-09T06:57:32.000Z</time>
      </trkpt>
      <trkpt lat="49.34368" lon="1.03178">
        <ele>127.6365737915</ele>
        <time>2017-04-09T06:57:35.000Z</time>
      </trkpt>
      <trkpt lat="49.34365" lon="1.03189">
        <ele>127.36330413818</ele>
        <time>2017-04-09T06:57:37.000Z</time>
      </trkpt>
      <trkpt lat="49.34364" lon="1.03207">
        <ele>127.15028381348</ele>
        <time>2017-04-09T06:57:40.000Z</time>
      </trkpt>
      <trkpt lat="49.34363" lon="1.03219">
        <ele>127.03049468994</ele>
        <time>2017-04-09T06:57:42.000Z</time>
      </trkpt>
      <trkpt lat="49.34362" lon="1.03237">
        <ele>127</ele>
        <time>2017-04-09T06:57:45.000Z</time>
      </trkpt>
      <trkpt lat="49.34358" lon="1.03255">
        <ele>126.99253845215</ele>
        <time>2017-04-09T06:57:48.000Z</time>
      </trkpt>
      <trkpt lat="49.34354" lon="1.03274">
        <ele>126.96453857422</ele>
        <time>2017-04-09T06:57:51.000Z</time>
      </trkpt>
      <trkpt lat="49.34353" lon="1.03293">
        <ele>126.91621398926</ele>
        <time>2017-04-09T06:57:54.000Z</time>
      </trkpt>
      <trkpt lat="49.34351" lon="1.03311">
        <ele>126.85245513916</ele>
        <time>2017-04-09T06:57:57.000Z</time>
      </trkpt>
      <trkpt lat="49.34345" lon="1.03334">
        <ele>126.79412841797</ele>
        <time>2017-04-09T06:58:00.000Z</time>
      </trkpt>
      <trkpt lat="49.34341" lon="1.03353">
        <ele>126.72187805176</ele>
        <time>2017-04-09T06:58:03.000Z</time>
        <extensions>
          <gpxtpx:TrackPointExtension xmlns:gpxtpx="http://www.garmin.com/xmlschemas/TrackPointExtension/v1">
            <gpxtpx:hr>125</gpxtpx:hr>
          </gpxtpx:TrackPointExtension>
        </extensions>
      </trkpt>
      <trkpt lat="49.34336" lon="1.03372">
        <ele>126.645652771</ele>
        <time>2017-04-09T06:58:06.000Z</time>
        <extensions>
          <gpxtpx:TrackPointExtension xmlns:gpxtpx="http://www.garmin.com/xmlschemas/TrackPointExtension/v1">
            <gpxtpx:hr>137</gpxtpx:hr>
          </gpxtpx:TrackPointExtension>
        </extensions>
      </trkpt>
      <trkpt lat="49.34334" lon="1.03382">
        <ele>126.57584381104</ele>
        <time>2017-04-09T06:58:08.000Z</time>
        <extensions>
          <gpxtpx:TrackPointExtension xmlns:gpxtpx="http://www.garmin.com/xmlschemas/TrackPointExtension/v1">
            <gpxtpx:hr>79</gpxtpx:hr>
          </gpxtpx:TrackPointExtension>
        </extensions>
      </trkpt>
      <trkpt lat="49.34332" lon="1.03399">
        <ele>126.48118591309</ele>
        <time>2017-04-09T06:58:11.000Z</time>
        <extensions>
          <gpxtpx:TrackPointExtension xmlns:gpxtpx="http://www.garmin.com/xmlschemas/TrackPointExtension/v1">
            <gpxtpx:hr>98</gpxtpx:hr>
          </gpxtpx:TrackPointExtension>
        </extensions>
      </trkpt>
      <trkpt lat="49.34328" lon="1.0342">
        <ele>126.34686279297</ele>
        <time>2017-04-09T06:58:14.000Z</time>
        <extensions>
          <gpxtpx:TrackPointExtension xmlns:gpxtpx="http://www.garmin.com/xmlschemas/TrackPointExtension/v1">
            <gpxtpx:hr>141</gpxtpx:hr>
          </gpxtpx:TrackPointExtension>
        </extensions>
      </trkpt>
      <trkpt lat="49.34324" lon="1.03441">
        <ele>126.29081726074</ele>
        <time>2017-04-09T06:58:17.000Z</time>
        <extensions>
          <gpxtpx:TrackPointExtension xmlns:gpxtpx="http://www.garmin.com/xmlschemas/TrackPointExtension/v1">
            <gpxtpx:hr>157</gpxtpx:hr>
          </gpxtpx:TrackPointExtension>
        </extensions>
      </trkpt>
      <trkpt lat="49.34321" lon="1.03453">
        <ele>126.29579925537</ele>
        <time>2017-04-09T06:58:19.000Z</time>
        <extensions>
          <gpxtpx:TrackPointExtension xmlns:gpxtpx="http://www.garmin.com/xmlschemas/TrackPointExtension/v1">
            <gpxtpx:hr>156</gpxtpx:hr>
          </gpxtpx:TrackPointExtension>
        </extensions>
      </trkpt>
      <trkpt lat="49.34319" lon="1.03467">
        <ele>126.35717773438</ele>
        <time>2017-04-09T06:58:21.000Z</time>
      </trkpt>
      <trkpt lat="49.34317" lon="1.03488">
        <ele>126.51882171631</ele>
        <time>2017-04-09T06:58:24.000Z</time>
      </trkpt>
      <trkpt lat="49.3432" lon="1.03502">
        <ele>126.76585388184</ele>
        <time>2017-04-09T06:58:26.000Z</time>
      </trkpt>
      <trkpt lat="49.34328" lon="1.03517">
        <ele>127.073097229</ele>
        <time>2017-04-09T06:58:29.000Z</time>
      </trkpt>
      <trkpt lat="49.34331" lon="1.03522">
        <ele>127.3903427124</ele>
        <time>2017-04-09T06:58:31.000Z</time>
      </trkpt>
      <trkpt lat="49.34338" lon="1.03525">
        <ele>127.677734375</ele>
        <time>2017-04-09T06:58:33.000Z</time>
      </trkpt>
      <trkpt lat="49.34342" lon="1.0353">
        <ele>127.93586730957</ele>
        <time>2017-04-09T06:58:35.000Z</time>
      </trkpt>
      <trkpt lat="49.34348" lon="1.03535">
        <ele>128.16458129883</ele>
        <time>2017-04-09T06:58:38.000Z</time>
      </trkpt>
      <trkpt lat="49.34352" lon="1.03545">
        <ele>128.35641479492</ele>
        <time>2017-04-09T06:58:41.000Z</time>
      </trkpt>
      <trkpt lat="49.34352" lon="1.03553">
        <ele>128.57223510742</ele>
        <time>2017-04-09T06:58:43.000Z</time>
      </trkpt>
      <trkpt lat="49.34343" lon="1.03557">
        <ele>128.85101318359</ele>
        <time>2017-04-09T06:58:46.000Z</time>
      </trkpt>
      <trkpt lat="49.34335" lon="1.03554">
        <ele>129.10188293457</ele>
        <time>2017-04-09T06:58:48.000Z</time>
      </trkpt>
      <trkpt lat="49.34325" lon="1.03548">
        <ele>129.28848266602</ele>
        <time>2017-04-09T06:58:51.000Z</time>
      </trkpt>
      <trkpt lat="49.34319" lon="1.03544">
        <ele>129.36462402344</ele>
        <time>2017-04-09T06:58:53.000Z</time>
      </trkpt>
      <trkpt lat="49.34313" lon="1.03539">
        <ele>129.33169555664</ele>
        <time>2017-04-09T06:58:56.000Z</time>
      </trkpt>
      <trkpt lat="49.34306" lon="1.03539">
        <ele>129.23226928711</ele>
        <time>2017-04-09T06:58:59.000Z</time>
      </trkpt>
      <trkpt lat="49.34301" lon="1.03538">
        <ele>129.13166809082</ele>
        <time>2017-04-09T06:59:01.000Z</time>
        <extensions>
          <gpxtpx:TrackPointExtension xmlns:gpxtpx="http://www.garmin.com/xmlschemas/TrackPointExtension/v1">
            <gpxtpx:hr>145</gpxtpx:hr>
          </gpxtpx:TrackPointExtension>
        </extensions>
      </trkpt>
      <trkpt lat="49.34292" lon="1.03536">
        <ele>129.05953979492</ele>
        <time>2017-04-09T06:59:04.000Z</time>
        <extensions>
          <gpxtpx:TrackPointExtension xmlns:gpxtpx="http://www.garmin.com/xmlschemas/TrackPointExtension/v1">
            <gpxtpx:hr>141</gpxtpx:hr>
          </gpxtpx:TrackPointExtension>
        </extensions>
      </trkpt>
      <trkpt lat="49.34287" lon="1.03533">
        <ele>129.00671386719</ele>
        <time>2017-04-09T06:59:06.000Z</time>
        <extensions>
          <gpxtpx:TrackPointExtension xmlns:gpxtpx="http://www.garmin.com/xmlschemas/TrackPointExtension/v1">
            <gpxtpx:hr>152</gpxtpx:hr>
          </gpxtpx:TrackPointExtension>
        </extensions>
      </trkpt>
      <trkpt lat="49.34279" lon="1.0353">
        <ele>128.97343444824</ele>
        <time>2017-04-09T06:59:09.000Z</time>
        <extensions>
          <gpxtpx:TrackPointExtension xmlns:gpxtpx="http://www.garmin.com/xmlschemas/TrackPointExtension/v1">
            <gpxtpx:hr>130</gpxtpx:hr>
          </gpxtpx:TrackPointExtension>
        </extensions>
      </trkpt>
      <trkpt lat="49.34268" lon="1.03527">
        <ele>128.92530822754</ele>
        <time>2017-04-09T06:59:12.000Z</time>
        <extensions>
          <gpxtpx:TrackPointExtension xmlns:gpxtpx="http://www.garmin.com/xmlschemas/TrackPointExtension/v1">
            <gpxtpx:hr>153</gpxtpx:hr>
          </gpxtpx:TrackPointExtension>
        </extensions>
      </trkpt>
      <trkpt lat="49.34257" lon="1.03523">
        <ele>128.87094116211</ele>
        <time>2017-04-09T06:59:15.000Z</time>
        <extensions>
          <gpxtpx:TrackPointExtension xmlns:gpxtpx="http://www.garmin.com/xmlschemas/TrackPointExtension/v1">
            <gpxtpx:hr>151</gpxtpx:hr>
          </gpxtpx:TrackPointExtension>
        </extensions>
      </trkpt>
      <trkpt lat="49.34244" lon="1.03518">
        <ele>128.90390014648</ele>
        <time>2017-04-09T06:59:18.000Z</time>
        <extensions>
          <gpxtpx:TrackPointExtension xmlns:gpxtpx="http://www.garmin.com/xmlschemas/TrackPointExtension/v1">
            <gpxtpx:hr>149</gpxtpx:hr>
          </gpxtpx:TrackPointExtension>
        </extensions>
      </trkpt>
      <trkpt lat="49.34228" lon="1.03513">
        <ele>129.17715454102</ele>
        <time>2017-04-09T06:59:21.000Z</time>
        <extensions>
          <gpxtpx:TrackPointExtension xmlns:gpxtpx="http://www.garmin.com/xmlschemas/TrackPointExtension/v1">
            <gpxtpx:hr>150</gpxtpx:hr>
          </gpxtpx:TrackPointExtension>
        </extensions>
      </trkpt>
      <trkpt lat="49.34216" lon="1.03509">
        <ele>129.63836669922</ele>
        <time>2017-04-09T06:59:23.000Z</time>
      </trkpt>
      <trkpt lat="49.34196" lon="1.03501">
        <ele>130.39323425293</ele>
        <time>2017-04-09T06:59:26.000Z</time>
      </trkpt>
      <trkpt lat="49.34174" lon="1.03492">
        <ele>131.5025177002</ele>
        <time>2017-04-09T06:59:29.000Z</time>
      </trkpt>
      <trkpt lat="49.34157" lon="1.03486">
        <ele>132.76181030273</ele>
        <time>2017-04-09T06:59:32.000Z</time>
      </trkpt>
      <trkpt lat="49.3415" lon="1.03491">
        <ele>133.85762023926</ele>
        <time>2017-04-09T06:59:34.000Z</time>
      </trkpt>
      <trkpt lat="49.34145" lon="1.03501">
        <ele>134.84469604492</ele>
        <time>2017-04-09T06:59:36.000Z</time>
      </trkpt>
      <trkpt lat="49.34143" lon="1.03514">
        <ele>135.62422180176</ele>
        <time>2017-04-09T06:59:38.000Z</time>
      </trkpt>
      <trkpt lat="49.34138" lon="1.03536">
        <ele>136.20176696777</ele>
        <time>2017-04-09T06:59:41.000Z</time>
      </trkpt>
      <trkpt lat="49.34137" lon="1.03549">
        <ele>136.62547302246</ele>
        <time>2017-04-09T06:59:43.000Z</time>
      </trkpt>
      <trkpt lat="49.34135" lon="1.03564">
        <ele>137.05950927734</ele>
        <time>2017-04-09T06:59:45.000Z</time>
      </trkpt>
      <trkpt lat="49.34135" lon="1.03579">
        <ele>137.50234985352</ele>
        <time>2017-04-09T06:59:48.000Z</time>
      </trkpt>
      <trkpt lat="49.34132" lon="1.03598">
        <ele>137.88009643555</ele>
        <time>2017-04-09T06:59:51.000Z</time>
      </trkpt>
      <trkpt lat="49.34127" lon="1.03622">
        <ele>138.09106445312</ele>
        <time>2017-04-09T06:59:54.000Z</time>
      </trkpt>
      <trkpt lat="49.34119" lon="1.03644">
        <ele>138.1873626709</ele>
        <time>2017-04-09T06:59:57.000Z</time>
      </trkpt>
      <trkpt lat="49.34115" lon="1.0366">
        <ele>138.16581726074</ele>
        <time>2017-04-09T06:59:59.000Z</time>
      </trkpt>
      <trkpt lat="49.34114" lon="1.03684">
        <ele>138.01359558105</ele>
        <time>2017-04-09T07:00:02.000Z</time>
        <extensions>
          <gpxtpx:TrackPointExtension xmlns:gpxtpx="http://www.garmin.com/xmlschemas/TrackPointExtension/v1">
            <gpxtpx:hr>150</gpxtpx:hr>
          </gpxtpx:TrackPointExtension>
        </extensions>
      </trkpt>
      <trkpt lat="49.34113" lon="1.03698">
        <ele>137.80612182617</ele>
        <time>2017-04-09T07:00:04.000Z</time>
        <extensions>
          <gpxtpx:TrackPointExtension xmlns:gpxtpx="http://www.garmin.com/xmlschemas/TrackPointExtension/v1">
            <gpxtpx:hr>152</gpxtpx:hr>
          </gpxtpx:TrackPointExtension>
        </extensions>
      </trkpt>
      <trkpt lat="49.34114" lon="1.03712">
        <ele>137.5894317627</ele>
        <time>2017-04-09T07:00:06.000Z</time>
        <extensions>
          <gpxtpx:TrackPointExtension xmlns:gpxtpx="http://www.garmin.com/xmlschemas/TrackPointExtension/v1">
            <gpxtpx:hr>152</gpxtpx:hr>
          </gpxtpx:TrackPointExtension>
        </extensions>
      </trkpt>
      <trkpt lat="49.34115" lon="1.03734">
        <ele>137.37161254883</ele>
        <time>2017-04-09T07:00:09.000Z</time>
        <extensions>
          <gpxtpx:TrackPointExtension xmlns:gpxtpx="http://www.garmin.com/xmlschemas/TrackPointExtension/v1">
            <gpxtpx:hr>154</gpxtpx:hr>
          </gpxtpx:TrackPointExtension>
        </extensions>
      </trkpt>
      <trkpt lat="49.34112" lon="1.03748">
        <ele>137.1442565918</ele>
        <time>2017-04-09T07:00:11.000Z</time>
        <extensions>
          <gpxtpx:TrackPointExtension xmlns:gpxtpx="http://www.garmin.com/xmlschemas/TrackPointExtension/v1">
            <gpxtpx:hr>155</gpxtpx:hr>
          </gpxtpx:TrackPointExtension>
        </extensions>
      </trkpt>
      <trkpt lat="49.34107" lon="1.03763">
        <ele>136.91073608398</ele>
        <time>2017-04-09T07:00:14.000Z</time>
        <extensions>
          <gpxtpx:TrackPointExtension xmlns:gpxtpx="http://www.garmin.com/xmlschemas/TrackPointExtension/v1">
            <gpxtpx:hr>157</gpxtpx:hr>
          </gpxtpx:TrackPointExtension>
        </extensions>
      </trkpt>
      <trkpt lat="49.34106" lon="1.03779">
        <ele>136.66535949707</ele>
        <time>2017-04-09T07:00:17.000Z</time>
        <extensions>
          <gpxtpx:TrackPointExtension xmlns:gpxtpx="http://www.garmin.com/xmlschemas/TrackPointExtension/v1">
            <gpxtpx:hr>158</gpxtpx:hr>
          </gpxtpx:TrackPointExtension>
        </extensions>
      </trkpt>
      <trkpt lat="49.34101" lon="1.03792">
        <ele>136.38999938965</ele>
        <time>2017-04-09T07:00:19.000Z</time>
        <extensions>
          <gpxtpx:TrackPointExtension xmlns:gpxtpx="http://www.garmin.com/xmlschemas/TrackPointExtension/v1">
            <gpxtpx:hr>152</gpxtpx:hr>
          </gpxtpx:TrackPointExtension>
        </extensions>
      </trkpt>
      <trkpt lat="49.34099" lon="1.03804">
        <ele>136.11799621582</ele>
        <time>2017-04-09T07:00:22.000Z</time>
        <extensions>
          <gpxtpx:TrackPointExtension xmlns:gpxtpx="http://www.garmin.com/xmlschemas/TrackPointExtension/v1">
            <gpxtpx:hr>154</gpxtpx:hr>
          </gpxtpx:TrackPointExtension>
        </extensions>
      </trkpt>
      <trkpt lat="49.34096" lon="1.03808">
        <ele>135.87780761719</ele>
        <time>2017-04-09T07:00:25.000Z</time>
      </trkpt>
      <trkpt lat="49.34093" lon="1.03813">
        <ele>135.68246459961</ele>
        <time>2017-04-09T07:00:27.000Z</time>
      </trkpt>
      <trkpt lat="49.3409" lon="1.03822">
        <ele>135.50729370117</ele>
        <time>2017-04-09T07:00:29.000Z</time>
      </trkpt>
      <trkpt lat="49.34088" lon="1.03838">
        <ele>135.34403991699</ele>
        <time>2017-04-09T07:00:31.000Z</time>
      </trkpt>
      <trkpt lat="49.34086" lon="1.03855">
        <ele>135.17742919922</ele>
        <time>2017-04-09T07:00:33.000Z</time>
      </trkpt>
      <trkpt lat="49.34086" lon="1.03874">
        <ele>134.982421875</ele>
        <time>2017-04-09T07:00:36.000Z</time>
      </trkpt>
      <trkpt lat="49.34087" lon="1.03896">
        <ele>134.75735473633</ele>
        <time>2017-04-09T07:00:39.000Z</time>
      </trkpt>
      <trkpt lat="49.34083" lon="1.03917">
        <ele>134.51794433594</ele>
        <time>2017-04-09T07:00:42.000Z</time>
      </trkpt>
      <trkpt lat="49.34077" lon="1.03935">
        <ele>134.41246032715</ele>
        <time>2017-04-09T07:00:45.000Z</time>
      </trkpt>
      <trkpt lat="49.34071" lon="1.03955">
        <ele>134.42793273926</ele>
        <time>2017-04-09T07:00:48.000Z</time>
      </trkpt>
      <trkpt lat="49.34065" lon="1.03973">
        <ele>134.54441833496</ele>
        <time>2017-04-09T07:00:51.000Z</time>
      </trkpt>
      <trkpt lat="49.34061" lon="1.03985">
        <ele>134.73731994629</ele>
        <time>2017-04-09T07:00:53.000Z</time>
      </trkpt>
      <trkpt lat="49.34055" lon="1.04002">
        <ele>135.00259399414</ele>
        <time>2017-04-09T07:00:56.000Z</time>
      </trkpt>
      <trkpt lat="49.34048" lon="1.0402">
        <ele>135.20742797852</ele>
        <time>2017-04-09T07:00:59.000Z</time>
      </trkpt>
      <trkpt lat="49.34042" lon="1.0404">
        <ele>135.33966064453</ele>
        <time>2017-04-09T07:01:02.000Z</time>
        <extensions>
          <gpxtpx:TrackPointExtension xmlns:gpxtpx="http://www.garmin.com/xmlschemas/TrackPointExtension/v1">
            <gpxtpx:hr>157</gpxtpx:hr>
          </gpxtpx:TrackPointExtension>
        </extensions>
      </trkpt>
      <trkpt lat="49.34036" lon="1.04058">
        <ele>135.3950958252</ele>
        <time>2017-04-09T07:01:05.000Z</time>
        <extensions>
          <gpxtpx:TrackPointExtension xmlns:gpxtpx="http://www.garmin.com/xmlschemas/TrackPointExtension/v1">
            <gpxtpx:hr>157</gpxtpx:hr>
          </gpxtpx:TrackPointExtension>
        </extensions>
      </trkpt>
      <trkpt lat="49.34031" lon="1.04076">
        <ele>135.38003540039</ele>
        <time>2017-04-09T07:01:08.000Z</time>
        <extensions>
          <gpxtpx:TrackPointExtension xmlns:gpxtpx="http://www.garmin.com/xmlschemas/TrackPointExtension/v1">
            <gpxtpx:hr>156</gpxtpx:hr>
          </gpxtpx:TrackPointExtension>
        </extensions>
      </trkpt>
      <trkpt lat="49.34026" lon="1.04089">
        <ele>135.27268981934</ele>
        <time>2017-04-09T07:01:11.000Z</time>
        <extensions>
          <gpxtpx:TrackPointExtension xmlns:gpxtpx="http://www.garmin.com/xmlschemas/TrackPointExtension/v1">
            <gpxtpx:hr>158</gpxtpx:hr>
          </gpxtpx:TrackPointExtension>
        </extensions>
      </trkpt>
      <trkpt lat="49.34022" lon="1.04101">
        <ele>135.07885742188</ele>
        <time>2017-04-09T07:01:13.000Z</time>
        <extensions>
          <gpxtpx:TrackPointExtension xmlns:gpxtpx="http://www.garmin.com/xmlschemas/TrackPointExtension/v1">
            <gpxtpx:hr>155</gpxtpx:hr>
          </gpxtpx:TrackPointExtension>
        </extensions>
      </trkpt>
      <trkpt lat="49.3402" lon="1.04114">
        <ele>134.82797241211</ele>
        <time>2017-04-09T07:01:15.000Z</time>
        <extensions>
          <gpxtpx:TrackPointExtension xmlns:gpxtpx="http://www.garmin.com/xmlschemas/TrackPointExtension/v1">
            <gpxtpx:hr>157</gpxtpx:hr>
          </gpxtpx:TrackPointExtension>
        </extensions>
      </trkpt>
      <trkpt lat="49.34012" lon="1.04139">
        <ele>134.48382568359</ele>
        <time>2017-04-09T07:01:18.000Z</time>
        <extensions>
          <gpxtpx:TrackPointExtension xmlns:gpxtpx="http://www.garmin.com/xmlschemas/TrackPointExtension/v1">
            <gpxtpx:hr>153</gpxtpx:hr>
          </gpxtpx:TrackPointExtension>
        </extensions>
      </trkpt>
      <trkpt lat="49.34007" lon="1.04158">
        <ele>134.10922241211</ele>
        <time>2017-04-09T07:01:21.000Z</time>
        <extensions>
          <gpxtpx:TrackPointExtension xmlns:gpxtpx="http://www.garmin.com/xmlschemas/TrackPointExtension/v1">
            <gpxtpx:hr>150</gpxtpx:hr>
          </gpxtpx:TrackPointExtension>
        </extensions>
      </trkpt>
      <trkpt lat="49.34003" lon="1.04171">
        <ele>133.75010681152</ele>
        <time>2017-04-09T07:01:23.000Z</time>
        <extensions>
          <gpxtpx:TrackPointExtension xmlns:gpxtpx="http://www.garmin.com/xmlschemas/TrackPointExtension/v1">
            <gpxtpx:hr>145</gpxtpx:hr>
          </gpxtpx:TrackPointExtension>
        </extensions>
      </trkpt>
      <trkpt lat="49.34" lon="1.04186">
        <ele>133.39823913574</ele>
        <time>2017-04-09T07:01:25.000Z</time>
        <extensions>
          <gpxtpx:TrackPointExtension xmlns:gpxtpx="http://www.garmin.com/xmlschemas/TrackPointExtension/v1">
            <gpxtpx:hr>156</gpxtpx:hr>
          </gpxtpx:TrackPointExtension>
        </extensions>
      </trkpt>
      <trkpt lat="49.3399" lon="1.04204">
        <ele>132.99072265625</ele>
        <time>2017-04-09T07:01:28.000Z</time>
      </trkpt>
      <trkpt lat="49.33989" lon="1.04215">
        <ele>132.65766906738</ele>
        <time>2017-04-09T07:01:30.000Z</time>
      </trkpt>
      <trkpt lat="49.33984" lon="1.04229">
        <ele>132.33483886719</ele>
        <time>2017-04-09T07:01:32.000Z</time>
      </trkpt>
      <trkpt lat="49.33977" lon="1.04249">
        <ele>131.96560668945</ele>
        <time>2017-04-09T07:01:35.000Z</time>
      </trkpt>
      <trkpt lat="49.33968" lon="1.04263">
        <ele>131.57772827148</ele>
        <time>2017-04-09T07:01:37.000Z</time>
      </trkpt>
      <trkpt lat="49.33962" lon="1.04282">
        <ele>131.2547454834</ele>
        <time>2017-04-09T07:01:40.000Z</time>
      </trkpt>
      <trkpt lat="49.33958" lon="1.04294">
        <ele>130.95254516602</ele>
        <time>2017-04-09T07:01:42.000Z</time>
      </trkpt>
      <trkpt lat="49.33952" lon="1.04313">
        <ele>130.69755554199</ele>
        <time>2017-04-09T07:01:45.000Z</time>
      </trkpt>
      <trkpt lat="49.33948" lon="1.04327">
        <ele>130.53329467773</ele>
        <time>2017-04-09T07:01:47.000Z</time>
      </trkpt>
      <trkpt lat="49.33941" lon="1.04351">
        <ele>130.31103515625</ele>
        <time>2017-04-09T07:01:50.000Z</time>
      </trkpt>
      <trkpt lat="49.33935" lon="1.04371">
        <ele>129.98271179199</ele>
        <time>2017-04-09T07:01:53.000Z</time>
      </trkpt>
      <trkpt lat="49.33931" lon="1.0439">
        <ele>129.53450012207</ele>
        <time>2017-04-09T07:01:55.000Z</time>
      </trkpt>
      <trkpt lat="49.33926" lon="1.04405">
        <ele>128.98579406738</ele>
        <time>2017-04-09T07:01:57.000Z</time>
      </trkpt>
      <trkpt lat="49.33915" lon="1.04426">
        <ele>128.27136230469</ele>
        <time>2017-04-09T07:02:00.000Z</time>
        <extensions>
          <gpxtpx:TrackPointExtension xmlns:gpxtpx="http://www.garmin.com/xmlschemas/TrackPointExtension/v1">
            <gpxtpx:hr>148</gpxtpx:hr>
          </gpxtpx:TrackPointExtension>
        </extensions>
      </trkpt>
      <trkpt lat="49.33905" lon="1.04454">
        <ele>127.57553863525</ele>
        <time>2017-04-09T07:02:03.000Z</time>
        <extensions>
          <gpxtpx:TrackPointExtension xmlns:gpxtpx="http://www.garmin.com/xmlschemas/TrackPointExtension/v1">
            <gpxtpx:hr>140</gpxtpx:hr>
          </gpxtpx:TrackPointExtension>
        </extensions>
      </trkpt>
      <trkpt lat="49.33902" lon="1.04466">
        <ele>126.98164367676</ele>
        <time>2017-04-09T07:02:05.000Z</time>
        <extensions>
          <gpxtpx:TrackPointExtension xmlns:gpxtpx="http://www.garmin.com/xmlschemas/TrackPointExtension/v1">
            <gpxtpx:hr>155</gpxtpx:hr>
          </gpxtpx:TrackPointExtension>
        </extensions>
      </trkpt>
      <trkpt lat="49.339" lon="1.04488">
        <ele>126.42781066895</ele>
        <time>2017-04-09T07:02:08.000Z</time>
        <extensions>
          <gpxtpx:TrackPointExtension xmlns:gpxtpx="http://www.garmin.com/xmlschemas/TrackPointExtension/v1">
            <gpxtpx:hr>144</gpxtpx:hr>
          </gpxtpx:TrackPointExtension>
        </extensions>
      </trkpt>
      <trkpt lat="49.33895" lon="1.04512">
        <ele>125.9507598877</ele>
        <time>2017-04-09T07:02:11.000Z</time>
        <extensions>
          <gpxtpx:TrackPointExtension xmlns:gpxtpx="http://www.garmin.com/xmlschemas/TrackPointExtension/v1">
            <gpxtpx:hr>147</gpxtpx:hr>
          </gpxtpx:TrackPointExtension>
        </extensions>
      </trkpt>
      <trkpt lat="49.33888" lon="1.04535">
        <ele>125.6612701416</ele>
        <time>2017-04-09T07:02:14.000Z</time>
        <extensions>
          <gpxtpx:TrackPointExtension xmlns:gpxtpx="http://www.garmin.com/xmlschemas/TrackPointExtension/v1">
            <gpxtpx:hr>114</gpxtpx:hr>
          </gpxtpx:TrackPointExtension>
        </extensions>
      </trkpt>
      <trkpt lat="49.33881" lon="1.04553">
        <ele>125.50035095215</ele>
        <time>2017-04-09T07:02:16.000Z</time>
        <extensions>
          <gpxtpx:TrackPointExtension xmlns:gpxtpx="http://www.garmin.com/xmlschemas/TrackPointExtension/v1">
            <gpxtpx:hr>143</gpxtpx:hr>
          </gpxtpx:TrackPointExtension>
        </extensions>
      </trkpt>
      <trkpt lat="49.33873" lon="1.04575">
        <ele>125.40698242188</ele>
        <time>2017-04-09T07:02:19.000Z</time>
        <extensions>
          <gpxtpx:TrackPointExtension xmlns:gpxtpx="http://www.garmin.com/xmlschemas/TrackPointExtension/v1">
            <gpxtpx:hr>146</gpxtpx:hr>
          </gpxtpx:TrackPointExtension>
        </extensions>
      </trkpt>
      <trkpt lat="49.33871" lon="1.04593">
        <ele>125.34352874756</ele>
        <time>2017-04-09T07:02:21.000Z</time>
        <extensions>
          <gpxtpx:TrackPointExtension xmlns:gpxtpx="http://www.garmin.com/xmlschemas/TrackPointExtension/v1">
            <gpxtpx:hr>146</gpxtpx:hr>
          </gpxtpx:TrackPointExtension>
        </extensions>
      </trkpt>
      <trkpt lat="49.33862" lon="1.04614">
        <ele>125.15816497803</ele>
        <time>2017-04-09T07:02:23.000Z</time>
      </trkpt>
      <trkpt lat="49.33851" lon="1.04643">
        <ele>124.65842437744</ele>
        <time>2017-04-09T07:02:26.000Z</time>
      </trkpt>
      <trkpt lat="49.33842" lon="1.04662">
        <ele>123.88726806641</ele>
        <time>2017-04-09T07:02:28.000Z</time>
      </trkpt>
      <trkpt lat="49.33836" lon="1.04683">
        <ele>122.62898254395</ele>
        <time>2017-04-09T07:02:31.000Z</time>
      </trkpt>
      <trkpt lat="49.33833" lon="1.04694">
        <ele>121.11054992676</ele>
        <time>2017-04-09T07:02:33.000Z</time>
      </trkpt>
      <trkpt lat="49.33839" lon="1.04707">
        <ele>119.57141113281</ele>
        <time>2017-04-09T07:02:36.000Z</time>
      </trkpt>
      <trkpt lat="49.33847" lon="1.04719">
        <ele>118.2010269165</ele>
        <time>2017-04-09T07:02:39.000Z</time>
      </trkpt>
      <trkpt lat="49.33854" lon="1.04742">
        <ele>116.77829742432</ele>
        <time>2017-04-09T07:02:42.000Z</time>
      </trkpt>
      <trkpt lat="49.33862" lon="1.04767">
        <ele>115.62469482422</ele>
        <time>2017-04-09T07:02:45.000Z</time>
      </trkpt>
      <trkpt lat="49.33867" lon="1.04783">
        <ele>114.70487976074</ele>
        <time>2017-04-09T07:02:47.000Z</time>
      </trkpt>
      <trkpt lat="49.33876" lon="1.04809">
        <ele>113.85341644287</ele>
        <time>2017-04-09T07:02:50.000Z</time>
      </trkpt>
      <trkpt lat="49.33886" lon="1.04835">
        <ele>113.07080078125</ele>
        <time>2017-04-09T07:02:53.000Z</time>
      </trkpt>
      <trkpt lat="49.33897" lon="1.04858">
        <ele>112.81214904785</ele>
        <time>2017-04-09T07:02:56.000Z</time>
      </trkpt>
      <trkpt lat="49.33907" lon="1.04884">
        <ele>112.96545410156</ele>
        <time>2017-04-09T07:02:59.000Z</time>
      </trkpt>
      <trkpt lat="49.33912" lon="1.04898">
        <ele>113.28401184082</ele>
        <time>2017-04-09T07:03:01.000Z</time>
        <extensions>
          <gpxtpx:TrackPointExtension xmlns:gpxtpx="http://www.garmin.com/xmlschemas/TrackPointExtension/v1">
            <gpxtpx:hr>147</gpxtpx:hr>
          </gpxtpx:TrackPointExtension>
        </extensions>
      </trkpt>
      <trkpt lat="49.33921" lon="1.04917">
        <ele>113.86612701416</ele>
        <time>2017-04-09T07:03:04.000Z</time>
        <extensions>
          <gpxtpx:TrackPointExtension xmlns:gpxtpx="http://www.garmin.com/xmlschemas/TrackPointExtension/v1">
            <gpxtpx:hr>131</gpxtpx:hr>
          </gpxtpx:TrackPointExtension>
        </extensions>
      </trkpt>
      <trkpt lat="49.33926" lon="1.0493">
        <ele>114.51838684082</ele>
        <time>2017-04-09T07:03:06.000Z</time>
        <extensions>
          <gpxtpx:TrackPointExtension xmlns:gpxtpx="http://www.garmin.com/xmlschemas/TrackPointExtension/v1">
            <gpxtpx:hr>145</gpxtpx:hr>
          </gpxtpx:TrackPointExtension>
        </extensions>
      </trkpt>
      <trkpt lat="49.33934" lon="1.04952">
        <ele>114.91461181641</ele>
        <time>2017-04-09T07:03:09.000Z</time>
        <extensions>
          <gpxtpx:TrackPointExtension xmlns:gpxtpx="http://www.garmin.com/xmlschemas/TrackPointExtension/v1">
            <gpxtpx:hr>169</gpxtpx:hr>
          </gpxtpx:TrackPointExtension>
        </extensions>
      </trkpt>
      <trkpt lat="49.33936" lon="1.04971">
        <ele>115.00769042969</ele>
        <time>2017-04-09T07:03:12.000Z</time>
        <extensions>
          <gpxtpx:TrackPointExtension xmlns:gpxtpx="http://www.garmin.com/xmlschemas/TrackPointExtension/v1">
            <gpxtpx:hr>144</gpxtpx:hr>
          </gpxtpx:TrackPointExtension>
        </extensions>
      </trkpt>
      <trkpt lat="49.33941" lon="1.04987">
        <ele>114.99615478516</ele>
        <time>2017-04-09T07:03:15.000Z</time>
        <extensions>
          <gpxtpx:TrackPointExtension xmlns:gpxtpx="http://www.garmin.com/xmlschemas/TrackPointExtension/v1">
            <gpxtpx:hr>147</gpxtpx:hr>
          </gpxtpx:TrackPointExtension>
        </extensions>
      </trkpt>
      <trkpt lat="49.33943" lon="1.05002">
        <ele>114.76496887207</ele>
        <time>2017-04-09T07:03:17.000Z</time>
        <extensions>
          <gpxtpx:TrackPointExtension xmlns:gpxtpx="http://www.garmin.com/xmlschemas/TrackPointExtension/v1">
            <gpxtpx:hr>155</gpxtpx:hr>
          </gpxtpx:TrackPointExtension>
        </extensions>
      </trkpt>
      <trkpt lat="49.33945" lon="1.05032">
        <ele>114.27586364746</ele>
        <time>2017-04-09T07:03:20.000Z</time>
        <extensions>
          <gpxtpx:TrackPointExtension xmlns:gpxtpx="http://www.garmin.com/xmlschemas/TrackPointExtension/v1">
            <gpxtpx:hr>145</gpxtpx:hr>
          </gpxtpx:TrackPointExtension>
        </extensions>
      </trkpt>
      <trkpt lat="49.33952" lon="1.05058">
        <ele>113.66839599609</ele>
        <time>2017-04-09T07:03:23.000Z</time>
        <extensions>
          <gpxtpx:TrackPointExtension xmlns:gpxtpx="http://www.garmin.com/xmlschemas/TrackPointExtension/v1">
            <gpxtpx:hr>146</gpxtpx:hr>
          </gpxtpx:TrackPointExtension>
        </extensions>
      </trkpt>
      <trkpt lat="49.33957" lon="1.05073">
        <ele>113.10605621338</ele>
        <time>2017-04-09T07:03:26.000Z</time>
        <extensions>
          <gpxtpx:TrackPointExtension xmlns:gpxtpx="http://www.garmin.com/xmlschemas/TrackPointExtension/v1">
            <gpxtpx:hr>136</gpxtpx:hr>
          </gpxtpx:TrackPointExtension>
        </extensions>
      </trkpt>
      <trkpt lat="49.3397" lon="1.05081">
        <ele>112.72204589844</ele>
        <time>2017-04-09T07:03:29.000Z</time>
      </trkpt>
      <trkpt lat="49.33981" lon="1.05084">
        <ele>112.56941986084</ele>
        <time>2017-04-09T07:03:32.000Z</time>
      </trkpt>
      <trkpt lat="49.33993" lon="1.0509">
        <ele>112.81037902832</ele>
        <time>2017-04-09T07:03:35.000Z</time>
      </trkpt>
      <trkpt lat="49.34" lon="1.05104">
        <ele>113.18347167969</ele>
        <time>2017-04-09T07:03:38.000Z</time>
      </trkpt>
      <trkpt lat="49.34001" lon="1.05123">
        <ele>113.43043518066</ele>
        <time>2017-04-09T07:03:41.000Z</time>
      </trkpt>
      <trkpt lat="49.34002" lon="1.05136">
        <ele>113.41239929199</ele>
        <time>2017-04-09T07:03:43.000Z</time>
      </trkpt>
      <trkpt lat="49.34002" lon="1.05153">
        <ele>113.0814666748</ele>
        <time>2017-04-09T07:03:45.000Z</time>
      </trkpt>
      <trkpt lat="49.33998" lon="1.0518">
        <ele>112.25700378418</ele>
        <time>2017-04-09T07:03:48.000Z</time>
      </trkpt>
      <trkpt lat="49.33996" lon="1.05199">
        <ele>111.17781066895</ele>
        <time>2017-04-09T07:03:50.000Z</time>
      </trkpt>
      <trkpt lat="49.33999" lon="1.05228">
        <ele>110.0092010498</ele>
        <time>2017-04-09T07:03:53.000Z</time>
      </trkpt>
      <trkpt lat="49.34003" lon="1.05243">
        <ele>108.83425140381</ele>
        <time>2017-04-09T07:03:55.000Z</time>
      </trkpt>
      <trkpt lat="49.34009" lon="1.05262">
        <ele>107.7166519165</ele>
        <time>2017-04-09T07:03:57.000Z</time>
      </trkpt>
      <trkpt lat="49.34023" lon="1.05275">
        <ele>107.01684570312</ele>
        <time>2017-04-09T07:04:00.000Z</time>
        <extensions>
          <gpxtpx:TrackPointExtension xmlns:gpxtpx="http://www.garmin.com/xmlschemas/TrackPointExtension/v1">
            <gpxtpx:hr>146</gpxtpx:hr>
          </gpxtpx:TrackPointExtension>
        </extensions>
      </trkpt>
      <trkpt lat="49.34031" lon="1.05281">
        <ele>106.64204406738</ele>
        <time>2017-04-09T07:04:02.000Z</time>
        <extensions>
          <gpxtpx:TrackPointExtension xmlns:gpxtpx="http://www.garmin.com/xmlschemas/TrackPointExtension/v1">
            <gpxtpx:hr>139</gpxtpx:hr>
          </gpxtpx:TrackPointExtension>
        </extensions>
      </trkpt>
      <trkpt lat="49.34037" lon="1.05286">
        <ele>106.57318115234</ele>
        <time>2017-04-09T07:04:04.000Z</time>
        <extensions>
          <gpxtpx:TrackPointExtension xmlns:gpxtpx="http://www.garmin.com/xmlschemas/TrackPointExtension/v1">
            <gpxtpx:hr>141</gpxtpx:hr>
          </gpxtpx:TrackPointExtension>
        </extensions>
      </trkpt>
      <trkpt lat="49.34041" lon="1.05295">
        <ele>106.6226348877</ele>
        <time>2017-04-09T07:04:06.000Z</time>
        <extensions>
          <gpxtpx:TrackPointExtension xmlns:gpxtpx="http://www.garmin.com/xmlschemas/TrackPointExtension/v1">
            <gpxtpx:hr>139</gpxtpx:hr>
          </gpxtpx:TrackPointExtension>
        </extensions>
      </trkpt>
      <trkpt lat="49.34049" lon="1.053">
        <ele>106.82041931152</ele>
        <time>2017-04-09T07:04:09.000Z</time>
        <extensions>
          <gpxtpx:TrackPointExtension xmlns:gpxtpx="http://www.garmin.com/xmlschemas/TrackPointExtension/v1">
            <gpxtpx:hr>153</gpxtpx:hr>
          </gpxtpx:TrackPointExtension>
        </extensions>
      </trkpt>
      <trkpt lat="49.34058" lon="1.053">
        <ele>107.05395507812</ele>
        <time>2017-04-09T07:04:12.000Z</time>
        <extensions>
          <gpxtpx:TrackPointExtension xmlns:gpxtpx="http://www.garmin.com/xmlschemas/TrackPointExtension/v1">
            <gpxtpx:hr>144</gpxtpx:hr>
          </gpxtpx:TrackPointExtension>
        </extensions>
      </trkpt>
      <trkpt lat="49.34071" lon="1.05296">
        <ele>107.42629241943</ele>
        <time>2017-04-09T07:04:15.000Z</time>
        <extensions>
          <gpxtpx:TrackPointExtension xmlns:gpxtpx="http://www.garmin.com/xmlschemas/TrackPointExtension/v1">
            <gpxtpx:hr>164</gpxtpx:hr>
          </gpxtpx:TrackPointExtension>
        </extensions>
      </trkpt>
      <trkpt lat="49.3408" lon="1.05295">
        <ele>107.87727355957</ele>
        <time>2017-04-09T07:04:17.000Z</time>
      </trkpt>
      <trkpt lat="49.34087" lon="1.053">
        <ele>108.37447357178</ele>
        <time>2017-04-09T07:04:20.000Z</time>
      </trkpt>
      <trkpt lat="49.34091" lon="1.0531">
        <ele>108.78471374512</ele>
        <time>2017-04-09T07:04:23.000Z</time>
      </trkpt>
      <trkpt lat="49.34092" lon="1.05323">
        <ele>109.00059509277</ele>
        <time>2017-04-09T07:04:25.000Z</time>
      </trkpt>
      <trkpt lat="49.34094" lon="1.05342">
        <ele>108.76132965088</ele>
        <time>2017-04-09T07:04:28.000Z</time>
      </trkpt>
      <trkpt lat="49.34094" lon="1.05354">
        <ele>108.10062408447</ele>
        <time>2017-04-09T07:04:30.000Z</time>
      </trkpt>
      <trkpt lat="49.34098" lon="1.05373">
        <ele>106.94372558594</ele>
        <time>2017-04-09T07:04:33.000Z</time>
      </trkpt>
      <trkpt lat="49.34101" lon="1.05386">
        <ele>105.51918792725</ele>
        <time>2017-04-09T07:04:35.000Z</time>
      </trkpt>
      <trkpt lat="49.34104" lon="1.054">
        <ele>103.83750152588</ele>
        <time>2017-04-09T07:04:37.000Z</time>
      </trkpt>
      <trkpt lat="49.34101" lon="1.05414">
        <ele>102.06327056885</ele>
        <time>2017-04-09T07:04:40.000Z</time>
      </trkpt>
      <trkpt lat="49.3409" lon="1.05421">
        <ele>100.34876251221</ele>
        <time>2017-04-09T07:04:43.000Z</time>
      </trkpt>
      <trkpt lat="49.34083" lon="1.05443">
        <ele>98.16170501709</ele>
        <time>2017-04-09T07:04:46.000Z</time>
      </trkpt>
      <trkpt lat="49.34076" lon="1.05473">
        <ele>94.934860229492</ele>
        <time>2017-04-09T07:04:49.000Z</time>
      </trkpt>
      <trkpt lat="49.34069" lon="1.05488">
        <ele>91.383941650391</ele>
        <time>2017-04-09T07:04:51.000Z</time>
      </trkpt>
      <trkpt lat="49.3406" lon="1.0551">
        <ele>87.424850463867</ele>
        <time>2017-04-09T07:04:54.000Z</time>
      </trkpt>
      <trkpt lat="49.34053" lon="1.05521">
        <ele>83.409950256348</ele>
        <time>2017-04-09T07:04:56.000Z</time>
      </trkpt>
      <trkpt lat="49.34037" lon="1.05531">
        <ele>80.022171020508</ele>
        <time>2017-04-09T07:04:59.000Z</time>
      </trkpt>
      <trkpt lat="49.34023" lon="1.0553">
        <ele>77.877906799316</ele>
        <time>2017-04-09T07:05:01.000Z</time>
        <extensions>
          <gpxtpx:TrackPointExtension xmlns:gpxtpx="http://www.garmin.com/xmlschemas/TrackPointExtension/v1">
            <gpxtpx:hr>121</gpxtpx:hr>
          </gpxtpx:TrackPointExtension>
        </extensions>
      </trkpt>
      <trkpt lat="49.34009" lon="1.05511">
        <ele>76.529937744141</ele>
        <time>2017-04-09T07:05:04.000Z</time>
        <extensions>
          <gpxtpx:TrackPointExtension xmlns:gpxtpx="http://www.garmin.com/xmlschemas/TrackPointExtension/v1">
            <gpxtpx:hr>140</gpxtpx:hr>
          </gpxtpx:TrackPointExtension>
        </extensions>
      </trkpt>
      <trkpt lat="49.33992" lon="1.05501">
        <ele>75.896011352539</ele>
        <time>2017-04-09T07:05:07.000Z</time>
        <extensions>
          <gpxtpx:TrackPointExtension xmlns:gpxtpx="http://www.garmin.com/xmlschemas/TrackPointExtension/v1">
            <gpxtpx:hr>142</gpxtpx:hr>
          </gpxtpx:TrackPointExtension>
        </extensions>
      </trkpt>
      <trkpt lat="49.33981" lon="1.05496">
        <ele>75.589950561523</ele>
        <time>2017-04-09T07:05:09.000Z</time>
        <extensions>
          <gpxtpx:TrackPointExtension xmlns:gpxtpx="http://www.garmin.com/xmlschemas/TrackPointExtension/v1">
            <gpxtpx:hr>147</gpxtpx:hr>
          </gpxtpx:TrackPointExtension>
        </extensions>
      </trkpt>
      <trkpt lat="49.33966" lon="1.05498">
        <ele>75.384559631348</ele>
        <time>2017-04-09T07:05:12.000Z</time>
        <extensions>
          <gpxtpx:TrackPointExtension xmlns:gpxtpx="http://www.garmin.com/xmlschemas/TrackPointExtension/v1">
            <gpxtpx:hr>144</gpxtpx:hr>
          </gpxtpx:TrackPointExtension>
        </extensions>
      </trkpt>
      <trkpt lat="49.33958" lon="1.05498">
        <ele>75.191513061523</ele>
        <time>2017-04-09T07:05:14.000Z</time>
        <extensions>
          <gpxtpx:TrackPointExtension xmlns:gpxtpx="http://www.garmin.com/xmlschemas/TrackPointExtension/v1">
            <gpxtpx:hr>144</gpxtpx:hr>
          </gpxtpx:TrackPointExtension>
        </extensions>
      </trkpt>
      <trkpt lat="49.3395" lon="1.05496">
        <ele>74.845893859863</ele>
        <time>2017-04-09T07:05:16.000Z</time>
        <extensions>
          <gpxtpx:TrackPointExtension xmlns:gpxtpx="http://www.garmin.com/xmlschemas/TrackPointExtension/v1">
            <gpxtpx:hr>148</gpxtpx:hr>
          </gpxtpx:TrackPointExtension>
        </extensions>
      </trkpt>
      <trkpt lat="49.33937" lon="1.05492">
        <ele>74.516418457031</ele>
        <time>2017-04-09T07:05:19.000Z</time>
        <extensions>
          <gpxtpx:TrackPointExtension xmlns:gpxtpx="http://www.garmin.com/xmlschemas/TrackPointExtension/v1">
            <gpxtpx:hr>150</gpxtpx:hr>
          </gpxtpx:TrackPointExtension>
        </extensions>
      </trkpt>
      <trkpt lat="49.33929" lon="1.05486">
        <ele>74.189559936523</ele>
        <time>2017-04-09T07:05:21.000Z</time>
        <extensions>
          <gpxtpx:TrackPointExtension xmlns:gpxtpx="http://www.garmin.com/xmlschemas/TrackPointExtension/v1">
            <gpxtpx:hr>152</gpxtpx:hr>
          </gpxtpx:TrackPointExtension>
        </extensions>
      </trkpt>
      <trkpt lat="49.3392" lon="1.05482">
        <ele>74.048652648926</ele>
        <time>2017-04-09T07:05:23.000Z</time>
      </trkpt>
      <trkpt lat="49.33913" lon="1.05477">
        <ele>74.083679199219</ele>
        <time>2017-04-09T07:05:25.000Z</time>
      </trkpt>
      <trkpt lat="49.33902" lon="1.05465">
        <ele>74.422012329102</ele>
        <time>2017-04-09T07:05:28.000Z</time>
      </trkpt>
      <trkpt lat="49.33892" lon="1.05453">
        <ele>74.988128662109</ele>
        <time>2017-04-09T07:05:31.000Z</time>
      </trkpt>
      <trkpt lat="49.33884" lon="1.05443">
        <ele>75.600730895996</ele>
        <time>2017-04-09T07:05:33.000Z</time>
      </trkpt>
      <trkpt lat="49.33876" lon="1.05431">
        <ele>76.265724182129</ele>
        <time>2017-04-09T07:05:35.000Z</time>
      </trkpt>
      <trkpt lat="49.33868" lon="1.05412">
        <ele>76.896987915039</ele>
        <time>2017-04-09T07:05:38.000Z</time>
      </trkpt>
      <trkpt lat="49.33864" lon="1.05401">
        <ele>77.387008666992</ele>
        <time>2017-04-09T07:05:40.000Z</time>
      </trkpt>
      <trkpt lat="49.33857" lon="1.05381">
        <ele>77.884201049805</ele>
        <time>2017-04-09T07:05:43.000Z</time>
      </trkpt>
      <trkpt lat="49.33853" lon="1.05365">
        <ele>78.427047729492</ele>
        <time>2017-04-09T07:05:46.000Z</time>
      </trkpt>
      <trkpt lat="49.33847" lon="1.0535">
        <ele>78.934524536133</ele>
        <time>2017-04-09T07:05:49.000Z</time>
      </trkpt>
      <trkpt lat="49.33845" lon="1.05341">
        <ele>79.425888061523</ele>
        <time>2017-04-09T07:05:51.000Z</time>
      </trkpt>
      <trkpt lat="49.33842" lon="1.05331">
        <ele>79.753456115723</ele>
        <time>2017-04-09T07:05:53.000Z</time>
      </trkpt>
      <trkpt lat="49.33841" lon="1.05321">
        <ele>79.86051940918</ele>
        <time>2017-04-09T07:05:55.000Z</time>
      </trkpt>
      <trkpt lat="49.33839" lon="1.05302">
        <ele>79.818626403809</ele>
        <time>2017-04-09T07:05:58.000Z</time>
      </trkpt>
      <trkpt lat="49.33836" lon="1.05285">
        <ele>79.672927856445</ele>
        <time>2017-04-09T07:06:01.000Z</time>
        <extensions>
          <gpxtpx:TrackPointExtension xmlns:gpxtpx="http://www.garmin.com/xmlschemas/TrackPointExtension/v1">
            <gpxtpx:hr>152</gpxtpx:hr>
          </gpxtpx:TrackPointExtension>
        </extensions>
      </trkpt>
      <trkpt lat="49.33833" lon="1.05268">
        <ele>79.434722900391</ele>
        <time>2017-04-09T07:06:04.000Z</time>
        <extensions>
          <gpxtpx:TrackPointExtension xmlns:gpxtpx="http://www.garmin.com/xmlschemas/TrackPointExtension/v1">
            <gpxtpx:hr>151</gpxtpx:hr>
          </gpxtpx:TrackPointExtension>
        </extensions>
      </trkpt>
      <trkpt lat="49.3383" lon="1.05257">
        <ele>79.277671813965</ele>
        <time>2017-04-09T07:06:06.000Z</time>
        <extensions>
          <gpxtpx:TrackPointExtension xmlns:gpxtpx="http://www.garmin.com/xmlschemas/TrackPointExtension/v1">
            <gpxtpx:hr>150</gpxtpx:hr>
          </gpxtpx:TrackPointExtension>
        </extensions>
      </trkpt>
      <trkpt lat="49.33828" lon="1.05244">
        <ele>79.246910095215</ele>
        <time>2017-04-09T07:06:08.000Z</time>
        <extensions>
          <gpxtpx:TrackPointExtension xmlns:gpxtpx="http://www.garmin.com/xmlschemas/TrackPointExtension/v1">
            <gpxtpx:hr>151</gpxtpx:hr>
          </gpxtpx:TrackPointExtension>
        </extensions>
      </trkpt>
      <trkpt lat="49.33825" lon="1.05225">
        <ele>79.474838256836</ele>
        <time>2017-04-09T07:06:11.000Z</time>
        <extensions>
          <gpxtpx:TrackPointExtension xmlns:gpxtpx="http://www.garmin.com/xmlschemas/TrackPointExtension/v1">
            <gpxtpx:hr>150</gpxtpx:hr>
          </gpxtpx:TrackPointExtension>
        </extensions>
      </trkpt>
      <trkpt lat="49.3382" lon="1.05207">
        <ele>80.029098510742</ele>
        <time>2017-04-09T07:06:14.000Z</time>
        <extensions>
          <gpxtpx:TrackPointExtension xmlns:gpxtpx="http://www.garmin.com/xmlschemas/TrackPointExtension/v1">
            <gpxtpx:hr>151</gpxtpx:hr>
          </gpxtpx:TrackPointExtension>
        </extensions>
      </trkpt>
      <trkpt lat="49.33818" lon="1.05194">
        <ele>80.7822265625</ele>
        <time>2017-04-09T07:06:16.000Z</time>
        <extensions>
          <gpxtpx:TrackPointExtension xmlns:gpxtpx="http://www.garmin.com/xmlschemas/TrackPointExtension/v1">
            <gpxtpx:hr>153</gpxtpx:hr>
          </gpxtpx:TrackPointExtension>
        </extensions>
      </trkpt>
      <trkpt lat="49.33817" lon="1.05175">
        <ele>81.679321289062</ele>
        <time>2017-04-09T07:06:19.000Z</time>
        <extensions>
          <gpxtpx:TrackPointExtension xmlns:gpxtpx="http://www.garmin.com/xmlschemas/TrackPointExtension/v1">
            <gpxtpx:hr>155</gpxtpx:hr>
          </gpxtpx:TrackPointExtension>
        </extensions>
      </trkpt>
      <trkpt lat="49.33814" lon="1.05158">
        <ele>82.665222167969</ele>
        <time>2017-04-09T07:06:22.000Z</time>
        <extensions>
          <gpxtpx:TrackPointExtension xmlns:gpxtpx="http://www.garmin.com/xmlschemas/TrackPointExtension/v1">
            <gpxtpx:hr>159</gpxtpx:hr>
          </gpxtpx:TrackPointExtension>
        </extensions>
      </trkpt>
      <trkpt lat="49.33811" lon="1.05148">
        <ele>83.516868591309</ele>
        <time>2017-04-09T07:06:24.000Z</time>
      </trkpt>
      <trkpt lat="49.33804" lon="1.05147">
        <ele>84.141845703125</ele>
        <time>2017-04-09T07:06:27.000Z</time>
      </trkpt>
      <trkpt lat="49.33802" lon="1.05155">
        <ele>84.536743164062</ele>
        <time>2017-04-09T07:06:29.000Z</time>
      </trkpt>
      <trkpt lat="49.33802" lon="1.05166">
        <ele>84.632400512695</ele>
        <time>2017-04-09T07:06:32.000Z</time>
      </trkpt>
      <trkpt lat="49.33802" lon="1.05169">
        <ele>84.50553894043</ele>
        <time>2017-04-09T07:06:34.000Z</time>
      </trkpt>
      <trkpt lat="49.33802" lon="1.05177">
        <ele>84.211441040039</ele>
        <time>2017-04-09T07:06:37.000Z</time>
      </trkpt>
      <trkpt lat="49.33803" lon="1.05182">
        <ele>83.879257202148</ele>
        <time>2017-04-09T07:06:39.000Z</time>
      </trkpt>
      <trkpt lat="49.33804" lon="1.05191">
        <ele>83.554306030273</ele>
        <time>2017-04-09T07:06:42.000Z</time>
      </trkpt>
      <trkpt lat="49.33805" lon="1.05203">
        <ele>83.223724365234</ele>
        <time>2017-04-09T07:06:45.000Z</time>
      </trkpt>
      <trkpt lat="49.33806" lon="1.05216">
        <ele>82.810577392578</ele>
        <time>2017-04-09T07:06:48.000Z</time>
      </trkpt>
      <trkpt lat="49.33804" lon="1.05226">
        <ele>82.387199401855</ele>
        <time>2017-04-09T07:06:50.000Z</time>
      </trkpt>
      <trkpt lat="49.33802" lon="1.05234">
        <ele>81.957214355469</ele>
        <time>2017-04-09T07:06:52.000Z</time>
      </trkpt>
      <trkpt lat="49.33799" lon="1.05244">
        <ele>81.551292419434</ele>
        <time>2017-04-09T07:06:55.000Z</time>
      </trkpt>
      <trkpt lat="49.33796" lon="1.05251">
        <ele>81.232643127441</ele>
        <time>2017-04-09T07:06:58.000Z</time>
      </trkpt>
      <trkpt lat="49.33796" lon="1.0526">
        <ele>81.061164855957</ele>
        <time>2017-04-09T07:07:01.000Z</time>
        <extensions>
          <gpxtpx:TrackPointExtension xmlns:gpxtpx="http://www.garmin.com/xmlschemas/TrackPointExtension/v1">
            <gpxtpx:hr>159</gpxtpx:hr>
          </gpxtpx:TrackPointExtension>
        </extensions>
      </trkpt>
      <trkpt lat="49.33793" lon="1.05269">
        <ele>81.02229309082</ele>
        <time>2017-04-09T07:07:04.000Z</time>
        <extensions>
          <gpxtpx:TrackPointExtension xmlns:gpxtpx="http://www.garmin.com/xmlschemas/TrackPointExtension/v1">
            <gpxtpx:hr>160</gpxtpx:hr>
          </gpxtpx:TrackPointExtension>
        </extensions>
      </trkpt>
      <trkpt lat="49.33792" lon="1.05275">
        <ele>81.06657409668</ele>
        <time>2017-04-09T07:07:06.000Z</time>
        <extensions>
          <gpxtpx:TrackPointExtension xmlns:gpxtpx="http://www.garmin.com/xmlschemas/TrackPointExtension/v1">
            <gpxtpx:hr>159</gpxtpx:hr>
          </gpxtpx:TrackPointExtension>
        </extensions>
      </trkpt>
      <trkpt lat="49.33791" lon="1.05284">
        <ele>81.221168518066</ele>
        <time>2017-04-09T07:07:09.000Z</time>
        <extensions>
          <gpxtpx:TrackPointExtension xmlns:gpxtpx="http://www.garmin.com/xmlschemas/TrackPointExtension/v1">
            <gpxtpx:hr>162</gpxtpx:hr>
          </gpxtpx:TrackPointExtension>
        </extensions>
      </trkpt>
      <trkpt lat="49.3379" lon="1.05291">
        <ele>81.4296875</ele>
        <time>2017-04-09T07:07:12.000Z</time>
        <extensions>
          <gpxtpx:TrackPointExtension xmlns:gpxtpx="http://www.garmin.com/xmlschemas/TrackPointExtension/v1">
            <gpxtpx:hr>162</gpxtpx:hr>
          </gpxtpx:TrackPointExtension>
        </extensions>
      </trkpt>
      <trkpt lat="49.33789" lon="1.05297">
        <ele>81.643348693848</ele>
        <time>2017-04-09T07:07:14.000Z</time>
        <extensions>
          <gpxtpx:TrackPointExtension xmlns:gpxtpx="http://www.garmin.com/xmlschemas/TrackPointExtension/v1">
            <gpxtpx:hr>162</gpxtpx:hr>
          </gpxtpx:TrackPointExtension>
        </extensions>
      </trkpt>
      <trkpt lat="49.33788" lon="1.05308">
        <ele>81.876449584961</ele>
        <time>2017-04-09T07:07:17.000Z</time>
        <extensions>
          <gpxtpx:TrackPointExtension xmlns:gpxtpx="http://www.garmin.com/xmlschemas/TrackPointExtension/v1">
            <gpxtpx:hr>162</gpxtpx:hr>
          </gpxtpx:TrackPointExtension>
        </extensions>
      </trkpt>
      <trkpt lat="49.33787" lon="1.05314">
        <ele>82.119476318359</ele>
        <time>2017-04-09T07:07:19.000Z</time>
      </trkpt>
      <trkpt lat="49.33784" lon="1.05323">
        <ele>82.393943786621</ele>
        <time>2017-04-09T07:07:22.000Z</time>
      </trkpt>
      <trkpt lat="49.33782" lon="1.05329">
        <ele>82.708847045898</ele>
        <time>2017-04-09T07:07:24.000Z</time>
      </trkpt>
      <trkpt lat="49.33781" lon="1.05341">
        <ele>83.057762145996</ele>
        <time>2017-04-09T07:07:27.000Z</time>
      </trkpt>
      <trkpt lat="49.33781" lon="1.05348">
        <ele>83.343994140625</ele>
        <time>2017-04-09T07:07:29.000Z</time>
      </trkpt>
      <trkpt lat="49.33781" lon="1.05356">
        <ele>83.603492736816</ele>
        <time>2017-04-09T07:07:31.000Z</time>
      </trkpt>
      <trkpt lat="49.33781" lon="1.05365">
        <ele>83.772232055664</ele>
        <time>2017-04-09T07:07:34.000Z</time>
      </trkpt>
      <trkpt lat="49.33781" lon="1.05374">
        <ele>83.884147644043</ele>
        <time>2017-04-09T07:07:37.000Z</time>
      </trkpt>
      <trkpt lat="49.33781" lon="1.0538">
        <ele>83.95964050293</ele>
        <time>2017-04-09T07:07:39.000Z</time>
      </trkpt>
      <trkpt lat="49.33779" lon="1.05386">
        <ele>84.08309173584</ele>
        <time>2017-04-09T07:07:41.000Z</time>
      </trkpt>
      <trkpt lat="49.33776" lon="1.05393">
        <ele>84.285034179688</ele>
        <time>2017-04-09T07:07:43.000Z</time>
      </trkpt>
      <trkpt lat="49.33773" lon="1.05401">
        <ele>84.60572052002</ele>
        <time>2017-04-09T07:07:46.000Z</time>
      </trkpt>
      <trkpt lat="49.3377" lon="1.05411">
        <ele>85.057632446289</ele>
        <time>2017-04-09T07:07:49.000Z</time>
      </trkpt>
      <trkpt lat="49.33772" lon="1.05422">
        <ele>85.527732849121</ele>
        <time>2017-04-09T07:07:52.000Z</time>
      </trkpt>
      <trkpt lat="49.33774" lon="1.05428">
        <ele>85.960494995117</ele>
        <time>2017-04-09T07:07:54.000Z</time>
      </trkpt>
      <trkpt lat="49.33777" lon="1.05436">
        <ele>86.289794921875</ele>
        <time>2017-04-09T07:07:57.000Z</time>
      </trkpt>
      <trkpt lat="49.33776" lon="1.05445">
        <ele>86.677032470703</ele>
        <time>2017-04-09T07:08:00.000Z</time>
        <extensions>
          <gpxtpx:TrackPointExtension xmlns:gpxtpx="http://www.garmin.com/xmlschemas/TrackPointExtension/v1">
            <gpxtpx:hr>164</gpxtpx:hr>
          </gpxtpx:TrackPointExtension>
        </extensions>
      </trkpt>
      <trkpt lat="49.33778" lon="1.05454">
        <ele>87.00252532959</ele>
        <time>2017-04-09T07:08:03.000Z</time>
        <extensions>
          <gpxtpx:TrackPointExtension xmlns:gpxtpx="http://www.garmin.com/xmlschemas/TrackPointExtension/v1">
            <gpxtpx:hr>164</gpxtpx:hr>
          </gpxtpx:TrackPointExtension>
        </extensions>
      </trkpt>
      <trkpt lat="49.3378" lon="1.0546">
        <ele>87.264694213867</ele>
        <time>2017-04-09T07:08:05.000Z</time>
        <extensions>
          <gpxtpx:TrackPointExtension xmlns:gpxtpx="http://www.garmin.com/xmlschemas/TrackPointExtension/v1">
            <gpxtpx:hr>166</gpxtpx:hr>
          </gpxtpx:TrackPointExtension>
        </extensions>
      </trkpt>
      <trkpt lat="49.33781" lon="1.05466">
        <ele>87.543899536133</ele>
        <time>2017-04-09T07:08:08.000Z</time>
        <extensions>
          <gpxtpx:TrackPointExtension xmlns:gpxtpx="http://www.garmin.com/xmlschemas/TrackPointExtension/v1">
            <gpxtpx:hr>166</gpxtpx:hr>
          </gpxtpx:TrackPointExtension>
        </extensions>
      </trkpt>
      <trkpt lat="49.33781" lon="1.05471">
        <ele>87.915687561035</ele>
        <time>2017-04-09T07:08:10.000Z</time>
        <extensions>
          <gpxtpx:TrackPointExtension xmlns:gpxtpx="http://www.garmin.com/xmlschemas/TrackPointExtension/v1">
            <gpxtpx:hr>166</gpxtpx:hr>
          </gpxtpx:TrackPointExtension>
        </extensions>
      </trkpt>
      <trkpt lat="49.33782" lon="1.05478">
        <ele>88.206985473633</ele>
        <time>2017-04-09T07:08:13.000Z</time>
        <extensions>
          <gpxtpx:TrackPointExtension xmlns:gpxtpx="http://www.garmin.com/xmlschemas/TrackPointExtension/v1">
            <gpxtpx:hr>168</gpxtpx:hr>
          </gpxtpx:TrackPointExtension>
        </extensions>
      </trkpt>
      <trkpt lat="49.33781" lon="1.05483">
        <ele>88.495407104492</ele>
        <time>2017-04-09T07:08:15.000Z</time>
        <extensions>
          <gpxtpx:TrackPointExtension xmlns:gpxtpx="http://www.garmin.com/xmlschemas/TrackPointExtension/v1">
            <gpxtpx:hr>169</gpxtpx:hr>
          </gpxtpx:TrackPointExtension>
        </extensions>
      </trkpt>
      <trkpt lat="49.33781" lon="1.05487">
        <ele>88.879470825195</ele>
        <time>2017-04-09T07:08:17.000Z</time>
        <extensions>
          <gpxtpx:TrackPointExtension xmlns:gpxtpx="http://www.garmin.com/xmlschemas/TrackPointExtension/v1">
            <gpxtpx:hr>169</gpxtpx:hr>
          </gpxtpx:TrackPointExtension>
        </extensions>
      </trkpt>
      <trkpt lat="49.3378" lon="1.05493">
        <ele>89.35880279541</ele>
        <time>2017-04-09T07:08:20.000Z</time>
      </trkpt>
      <trkpt lat="49.3378" lon="1.05498">
        <ele>89.832801818848</ele>
        <time>2017-04-09T07:08:22.000Z</time>
      </trkpt>
      <trkpt lat="49.33781" lon="1.05506">
        <ele>90.342628479004</ele>
        <time>2017-04-09T07:08:25.000Z</time>
      </trkpt>
      <trkpt lat="49.3378" lon="1.05511">
        <ele>90.91332244873</ele>
        <time>2017-04-09T07:08:27.000Z</time>
      </trkpt>
      <trkpt lat="49.3378" lon="1.05516">
        <ele>91.522842407227</ele>
        <time>2017-04-09T07:08:29.000Z</time>
      </trkpt>
      <trkpt lat="49.3378" lon="1.05521">
        <ele>92.121788024902</ele>
        <time>2017-04-09T07:08:31.000Z</time>
      </trkpt>
      <trkpt lat="49.33779" lon="1.05528">
        <ele>92.813430786133</ele>
        <time>2017-04-09T07:08:34.000Z</time>
      </trkpt>
      <trkpt lat="49.3378" lon="1.05535">
        <ele>93.511451721191</ele>
        <time>2017-04-09T07:08:37.000Z</time>
      </trkpt>
      <trkpt lat="49.33781" lon="1.05538">
        <ele>94.12996673584</ele>
        <time>2017-04-09T07:08:39.000Z</time>
      </trkpt>
      <trkpt lat="49.3378" lon="1.05543">
        <ele>94.750984191895</ele>
        <time>2017-04-09T07:08:41.000Z</time>
      </trkpt>
      <trkpt lat="49.3378" lon="1.0555">
        <ele>95.41480255127</ele>
        <time>2017-04-09T07:08:44.000Z</time>
      </trkpt>
      <trkpt lat="49.33778" lon="1.05556">
        <ele>96.125717163086</ele>
        <time>2017-04-09T07:08:47.000Z</time>
      </trkpt>
      <trkpt lat="49.33775" lon="1.05562">
        <ele>96.962844848633</ele>
        <time>2017-04-09T07:08:50.000Z</time>
      </trkpt>
      <trkpt lat="49.33773" lon="1.05567">
        <ele>97.882270812988</ele>
        <time>2017-04-09T07:08:53.000Z</time>
      </trkpt>
      <trkpt lat="49.33771" lon="1.05572">
        <ele>98.896385192871</ele>
        <time>2017-04-09T07:08:56.000Z</time>
      </trkpt>
      <trkpt lat="49.33769" lon="1.05576">
        <ele>99.887603759766</ele>
        <time>2017-04-09T07:08:58.000Z</time>
      </trkpt>
      <trkpt lat="49.33768" lon="1.05579">
        <ele>100.79250335693</ele>
        <time>2017-04-09T07:09:00.000Z</time>
        <extensions>
          <gpxtpx:TrackPointExtension xmlns:gpxtpx="http://www.garmin.com/xmlschemas/TrackPointExtension/v1">
            <gpxtpx:hr>167</gpxtpx:hr>
          </gpxtpx:TrackPointExtension>
        </extensions>
      </trkpt>
      <trkpt lat="49.33765" lon="1.05585">
        <ele>101.6491317749</ele>
        <time>2017-04-09T07:09:03.000Z</time>
        <extensions>
          <gpxtpx:TrackPointExtension xmlns:gpxtpx="http://www.garmin.com/xmlschemas/TrackPointExtension/v1">
            <gpxtpx:hr>166</gpxtpx:hr>
          </gpxtpx:TrackPointExtension>
        </extensions>
      </trkpt>
      <trkpt lat="49.33762" lon="1.05587">
        <ele>102.47562408447</ele>
        <time>2017-04-09T07:09:05.000Z</time>
        <extensions>
          <gpxtpx:TrackPointExtension xmlns:gpxtpx="http://www.garmin.com/xmlschemas/TrackPointExtension/v1">
            <gpxtpx:hr>165</gpxtpx:hr>
          </gpxtpx:TrackPointExtension>
        </extensions>
      </trkpt>
      <trkpt lat="49.33757" lon="1.05591">
        <ele>103.25419616699</ele>
        <time>2017-04-09T07:09:08.000Z</time>
        <extensions>
          <gpxtpx:TrackPointExtension xmlns:gpxtpx="http://www.garmin.com/xmlschemas/TrackPointExtension/v1">
            <gpxtpx:hr>165</gpxtpx:hr>
          </gpxtpx:TrackPointExtension>
        </extensions>
      </trkpt>
      <trkpt lat="49.33755" lon="1.05592">
        <ele>103.95915222168</ele>
        <time>2017-04-09T07:09:10.000Z</time>
        <extensions>
          <gpxtpx:TrackPointExtension xmlns:gpxtpx="http://www.garmin.com/xmlschemas/TrackPointExtension/v1">
            <gpxtpx:hr>162</gpxtpx:hr>
          </gpxtpx:TrackPointExtension>
        </extensions>
      </trkpt>
      <trkpt lat="49.33749" lon="1.05593">
        <ele>104.73001861572</ele>
        <time>2017-04-09T07:09:13.000Z</time>
        <extensions>
          <gpxtpx:TrackPointExtension xmlns:gpxtpx="http://www.garmin.com/xmlschemas/TrackPointExtension/v1">
            <gpxtpx:hr>159</gpxtpx:hr>
          </gpxtpx:TrackPointExtension>
        </extensions>
      </trkpt>
      <trkpt lat="49.33746" lon="1.05592">
        <ele>105.34327697754</ele>
        <time>2017-04-09T07:09:15.000Z</time>
        <extensions>
          <gpxtpx:TrackPointExtension xmlns:gpxtpx="http://www.garmin.com/xmlschemas/TrackPointExtension/v1">
            <gpxtpx:hr>155</gpxtpx:hr>
          </gpxtpx:TrackPointExtension>
        </extensions>
      </trkpt>
      <trkpt lat="49.3374" lon="1.05589">
        <ele>105.96797943115</ele>
        <time>2017-04-09T07:09:18.000Z</time>
        <extensions>
          <gpxtpx:TrackPointExtension xmlns:gpxtpx="http://www.garmin.com/xmlschemas/TrackPointExtension/v1">
            <gpxtpx:hr>153</gpxtpx:hr>
          </gpxtpx:TrackPointExtension>
        </extensions>
      </trkpt>
      <trkpt lat="49.33735" lon="1.05587">
        <ele>106.52126312256</ele>
        <time>2017-04-09T07:09:21.000Z</time>
        <extensions>
          <gpxtpx:TrackPointExtension xmlns:gpxtpx="http://www.garmin.com/xmlschemas/TrackPointExtension/v1">
            <gpxtpx:hr>149</gpxtpx:hr>
          </gpxtpx:TrackPointExtension>
        </extensions>
      </trkpt>
      <trkpt lat="49.33732" lon="1.05584">
        <ele>107.07220458984</ele>
        <time>2017-04-09T07:09:24.000Z</time>
      </trkpt>
      <trkpt lat="49.33728" lon="1.0558">
        <ele>107.45286560059</ele>
        <time>2017-04-09T07:09:27.000Z</time>
      </trkpt>
      <trkpt lat="49.33724" lon="1.05578">
        <ele>107.83347320557</ele>
        <time>2017-04-09T07:09:30.000Z</time>
      </trkpt>
      <trkpt lat="49.3372" lon="1.05574">
        <ele>108.12638092041</ele>
        <time>2017-04-09T07:09:33.000Z</time>
      </trkpt>
      <trkpt lat="49.33716" lon="1.0557">
        <ele>108.35075378418</ele>
        <time>2017-04-09T07:09:36.000Z</time>
      </trkpt>
      <trkpt lat="49.33713" lon="1.05567">
        <ele>108.55812835693</ele>
        <time>2017-04-09T07:09:38.000Z</time>
      </trkpt>
      <trkpt lat="49.3371" lon="1.05566">
        <ele>108.78297424316</ele>
        <time>2017-04-09T07:09:40.000Z</time>
      </trkpt>
      <trkpt lat="49.33709" lon="1.05564">
        <ele>108.95881652832</ele>
        <time>2017-04-09T07:09:42.000Z</time>
      </trkpt>
      <trkpt lat="49.33707" lon="1.05559">
        <ele>109.09499359131</ele>
        <time>2017-04-09T07:09:45.000Z</time>
      </trkpt>
      <trkpt lat="49.33704" lon="1.05556">
        <ele>109.23099517822</ele>
        <time>2017-04-09T07:09:47.000Z</time>
      </trkpt>
      <trkpt lat="49.33701" lon="1.0555">
        <ele>109.35418701172</ele>
        <time>2017-04-09T07:09:50.000Z</time>
      </trkpt>
      <trkpt lat="49.33699" lon="1.05546">
        <ele>109.45230865479</ele>
        <time>2017-04-09T07:09:52.000Z</time>
      </trkpt>
      <trkpt lat="49.33694" lon="1.0554">
        <ele>109.61772155762</ele>
        <time>2017-04-09T07:09:55.000Z</time>
      </trkpt>
      <trkpt lat="49.33691" lon="1.05536">
        <ele>109.84725189209</ele>
        <time>2017-04-09T07:09:58.000Z</time>
      </trkpt>
      <trkpt lat="49.3369" lon="1.05532">
        <ele>110.06669616699</ele>
        <time>2017-04-09T07:10:00.000Z</time>
        <extensions>
          <gpxtpx:TrackPointExtension xmlns:gpxtpx="http://www.garmin.com/xmlschemas/TrackPointExtension/v1">
            <gpxtpx:hr>147</gpxtpx:hr>
          </gpxtpx:TrackPointExtension>
        </extensions>
      </trkpt>
      <trkpt lat="49.33688" lon="1.05528">
        <ele>110.27150726318</ele>
        <time>2017-04-09T07:10:02.000Z</time>
        <extensions>
          <gpxtpx:TrackPointExtension xmlns:gpxtpx="http://www.garmin.com/xmlschemas/TrackPointExtension/v1">
            <gpxtpx:hr>147</gpxtpx:hr>
          </gpxtpx:TrackPointExtension>
        </extensions>
      </trkpt>
      <trkpt lat="49.33685" lon="1.05523">
        <ele>110.52391052246</ele>
        <time>2017-04-09T07:10:05.000Z</time>
        <extensions>
          <gpxtpx:TrackPointExtension xmlns:gpxtpx="http://www.garmin.com/xmlschemas/TrackPointExtension/v1">
            <gpxtpx:hr>150</gpxtpx:hr>
          </gpxtpx:TrackPointExtension>
        </extensions>
      </trkpt>
      <trkpt lat="49.33682" lon="1.05519">
        <ele>110.77683258057</ele>
        <time>2017-04-09T07:10:08.000Z</time>
        <extensions>
          <gpxtpx:TrackPointExtension xmlns:gpxtpx="http://www.garmin.com/xmlschemas/TrackPointExtension/v1">
            <gpxtpx:hr>149</gpxtpx:hr>
          </gpxtpx:TrackPointExtension>
        </extensions>
      </trkpt>
      <trkpt lat="49.3368" lon="1.05517">
        <ele>111.04642486572</ele>
        <time>2017-04-09T07:10:18.000Z</time>
        <extensions>
          <gpxtpx:TrackPointExtension xmlns:gpxtpx="http://www.garmin.com/xmlschemas/TrackPointExtension/v1">
            <gpxtpx:hr>147</gpxtpx:hr>
          </gpxtpx:TrackPointExtension>
        </extensions>
      </trkpt>
      <trkpt lat="49.33677" lon="1.05513">
        <ele>111.37879943848</ele>
        <time>2017-04-09T07:10:21.000Z</time>
        <extensions>
          <gpxtpx:TrackPointExtension xmlns:gpxtpx="http://www.garmin.com/xmlschemas/TrackPointExtension/v1">
            <gpxtpx:hr>148</gpxtpx:hr>
          </gpxtpx:TrackPointExtension>
        </extensions>
      </trkpt>
      <trkpt lat="49.33673" lon="1.05506">
        <ele>111.82680511475</ele>
        <time>2017-04-09T07:10:24.000Z</time>
        <extensions>
          <gpxtpx:TrackPointExtension xmlns:gpxtpx="http://www.garmin.com/xmlschemas/TrackPointExtension/v1">
            <gpxtpx:hr>147</gpxtpx:hr>
          </gpxtpx:TrackPointExtension>
        </extensions>
      </trkpt>
      <trkpt lat="49.3367" lon="1.05502">
        <ele>112.29074859619</ele>
        <time>2017-04-09T07:10:26.000Z</time>
        <extensions>
          <gpxtpx:TrackPointExtension xmlns:gpxtpx="http://www.garmin.com/xmlschemas/TrackPointExtension/v1">
            <gpxtpx:hr>147</gpxtpx:hr>
          </gpxtpx:TrackPointExtension>
        </extensions>
      </trkpt>
      <trkpt lat="49.33664" lon="1.05496">
        <ele>112.83515930176</ele>
        <time>2017-04-09T07:10:29.000Z</time>
        <extensions>
          <gpxtpx:TrackPointExtension xmlns:gpxtpx="http://www.garmin.com/xmlschemas/TrackPointExtension/v1">
            <gpxtpx:hr>149</gpxtpx:hr>
          </gpxtpx:TrackPointExtension>
        </extensions>
      </trkpt>
      <trkpt lat="49.3366" lon="1.05492">
        <ele>113.32029724121</ele>
        <time>2017-04-09T07:10:31.000Z</time>
      </trkpt>
      <trkpt lat="49.33655" lon="1.05487">
        <ele>113.7569732666</ele>
        <time>2017-04-09T07:10:34.000Z</time>
      </trkpt>
      <trkpt lat="49.33649" lon="1.05477">
        <ele>114.09293365479</ele>
        <time>2017-04-09T07:10:37.000Z</time>
      </trkpt>
      <trkpt lat="49.33643" lon="1.05467">
        <ele>114.41544342041</ele>
        <time>2017-04-09T07:10:40.000Z</time>
      </trkpt>
      <trkpt lat="49.33639" lon="1.05461">
        <ele>114.63352203369</ele>
        <time>2017-04-09T07:10:42.000Z</time>
      </trkpt>
      <trkpt lat="49.33635" lon="1.05454">
        <ele>114.89033508301</ele>
        <time>2017-04-09T07:10:44.000Z</time>
      </trkpt>
      <trkpt lat="49.33629" lon="1.05444">
        <ele>115.19567871094</ele>
        <time>2017-04-09T07:10:47.000Z</time>
      </trkpt>
      <trkpt lat="49.33625" lon="1.05437">
        <ele>115.53247070312</ele>
        <time>2017-04-09T07:10:49.000Z</time>
      </trkpt>
      <trkpt lat="49.33621" lon="1.05431">
        <ele>115.87099456787</ele>
        <time>2017-04-09T07:10:51.000Z</time>
      </trkpt>
      <trkpt lat="49.33614" lon="1.05426">
        <ele>116.29643249512</ele>
        <time>2017-04-09T07:10:54.000Z</time>
      </trkpt>
      <trkpt lat="49.33604" lon="1.05426">
        <ele>116.8123550415</ele>
        <time>2017-04-09T07:10:57.000Z</time>
      </trkpt>
      <trkpt lat="49.33597" lon="1.05428">
        <ele>117.34243011475</ele>
        <time>2017-04-09T07:10:59.000Z</time>
      </trkpt>
      <trkpt lat="49.33591" lon="1.05428">
        <ele>117.89994049072</ele>
        <time>2017-04-09T07:11:01.000Z</time>
        <extensions>
          <gpxtpx:TrackPointExtension xmlns:gpxtpx="http://www.garmin.com/xmlschemas/TrackPointExtension/v1">
            <gpxtpx:hr>150</gpxtpx:hr>
          </gpxtpx:TrackPointExtension>
        </extensions>
      </trkpt>
      <trkpt lat="49.33583" lon="1.05429">
        <ele>118.48815917969</ele>
        <time>2017-04-09T07:11:03.000Z</time>
        <extensions>
          <gpxtpx:TrackPointExtension xmlns:gpxtpx="http://www.garmin.com/xmlschemas/TrackPointExtension/v1">
            <gpxtpx:hr>149</gpxtpx:hr>
          </gpxtpx:TrackPointExtension>
        </extensions>
      </trkpt>
      <trkpt lat="49.33574" lon="1.05434">
        <ele>118.88752746582</ele>
        <time>2017-04-09T07:11:06.000Z</time>
        <extensions>
          <gpxtpx:TrackPointExtension xmlns:gpxtpx="http://www.garmin.com/xmlschemas/TrackPointExtension/v1">
            <gpxtpx:hr>145</gpxtpx:hr>
          </gpxtpx:TrackPointExtension>
        </extensions>
      </trkpt>
      <trkpt lat="49.33566" lon="1.05438">
        <ele>119.09566497803</ele>
        <time>2017-04-09T07:11:09.000Z</time>
        <extensions>
          <gpxtpx:TrackPointExtension xmlns:gpxtpx="http://www.garmin.com/xmlschemas/TrackPointExtension/v1">
            <gpxtpx:hr>144</gpxtpx:hr>
          </gpxtpx:TrackPointExtension>
        </extensions>
      </trkpt>
      <trkpt lat="49.33555" lon="1.05445">
        <ele>119.13737487793</ele>
        <time>2017-04-09T07:11:12.000Z</time>
        <extensions>
          <gpxtpx:TrackPointExtension xmlns:gpxtpx="http://www.garmin.com/xmlschemas/TrackPointExtension/v1">
            <gpxtpx:hr>140</gpxtpx:hr>
          </gpxtpx:TrackPointExtension>
        </extensions>
      </trkpt>
      <trkpt lat="49.3354" lon="1.05453">
        <ele>119.0064239502</ele>
        <time>2017-04-09T07:11:15.000Z</time>
        <extensions>
          <gpxtpx:TrackPointExtension xmlns:gpxtpx="http://www.garmin.com/xmlschemas/TrackPointExtension/v1">
            <gpxtpx:hr>141</gpxtpx:hr>
          </gpxtpx:TrackPointExtension>
        </extensions>
      </trkpt>
      <trkpt lat="49.33526" lon="1.05458">
        <ele>118.73024749756</ele>
        <time>2017-04-09T07:11:18.000Z</time>
        <extensions>
          <gpxtpx:TrackPointExtension xmlns:gpxtpx="http://www.garmin.com/xmlschemas/TrackPointExtension/v1">
            <gpxtpx:hr>141</gpxtpx:hr>
          </gpxtpx:TrackPointExtension>
        </extensions>
      </trkpt>
      <trkpt lat="49.3352" lon="1.05464">
        <ele>118.46687316895</ele>
        <time>2017-04-09T07:11:20.000Z</time>
        <extensions>
          <gpxtpx:TrackPointExtension xmlns:gpxtpx="http://www.garmin.com/xmlschemas/TrackPointExtension/v1">
            <gpxtpx:hr>142</gpxtpx:hr>
          </gpxtpx:TrackPointExtension>
        </extensions>
      </trkpt>
      <trkpt lat="49.33512" lon="1.05469">
        <ele>118.21169281006</ele>
        <time>2017-04-09T07:11:22.000Z</time>
      </trkpt>
      <trkpt lat="49.33495" lon="1.05468">
        <ele>117.99405670166</ele>
        <time>2017-04-09T07:11:25.000Z</time>
      </trkpt>
      <trkpt lat="49.3348" lon="1.05458">
        <ele>117.85166168213</ele>
        <time>2017-04-09T07:11:28.000Z</time>
      </trkpt>
      <trkpt lat="49.33471" lon="1.05451">
        <ele>117.78287506104</ele>
        <time>2017-04-09T07:11:30.000Z</time>
      </trkpt>
      <trkpt lat="49.33464" lon="1.05443">
        <ele>117.81037902832</ele>
        <time>2017-04-09T07:11:32.000Z</time>
      </trkpt>
      <trkpt lat="49.33452" lon="1.05441">
        <ele>117.88417053223</ele>
        <time>2017-04-09T07:11:35.000Z</time>
      </trkpt>
      <trkpt lat="49.33445" lon="1.05439">
        <ele>117.99759674072</ele>
        <time>2017-04-09T07:11:37.000Z</time>
      </trkpt>
      <trkpt lat="49.33434" lon="1.05433">
        <ele>118.18041992188</ele>
        <time>2017-04-09T07:11:40.000Z</time>
      </trkpt>
      <trkpt lat="49.33429" lon="1.05427">
        <ele>118.42752838135</ele>
        <time>2017-04-09T07:11:42.000Z</time>
      </trkpt>
      <trkpt lat="49.33424" lon="1.0542">
        <ele>118.73160552979</ele>
        <time>2017-04-09T07:11:44.000Z</time>
      </trkpt>
      <trkpt lat="49.33419" lon="1.0541">
        <ele>119.12398529053</ele>
        <time>2017-04-09T07:11:47.000Z</time>
      </trkpt>
      <trkpt lat="49.33415" lon="1.05403">
        <ele>119.53011322021</ele>
        <time>2017-04-09T07:11:49.000Z</time>
      </trkpt>
      <trkpt lat="49.33407" lon="1.05395">
        <ele>119.8462677002</ele>
        <time>2017-04-09T07:11:52.000Z</time>
      </trkpt>
      <trkpt lat="49.33397" lon="1.05391">
        <ele>120.01043701172</ele>
        <time>2017-04-09T07:11:55.000Z</time>
      </trkpt>
      <trkpt lat="49.33391" lon="1.05388">
        <ele>120.04521179199</ele>
        <time>2017-04-09T07:11:57.000Z</time>
      </trkpt>
      <trkpt lat="49.33383" lon="1.05373">
        <ele>120.03281402588</ele>
        <time>2017-04-09T07:12:00.000Z</time>
        <extensions>
          <gpxtpx:TrackPointExtension xmlns:gpxtpx="http://www.garmin.com/xmlschemas/TrackPointExtension/v1">
            <gpxtpx:hr>143</gpxtpx:hr>
          </gpxtpx:TrackPointExtension>
        </extensions>
      </trkpt>
      <trkpt lat="49.33376" lon="1.05355">
        <ele>120.10504150391</ele>
        <time>2017-04-09T07:12:03.000Z</time>
        <extensions>
          <gpxtpx:TrackPointExtension xmlns:gpxtpx="http://www.garmin.com/xmlschemas/TrackPointExtension/v1">
            <gpxtpx:hr>145</gpxtpx:hr>
          </gpxtpx:TrackPointExtension>
        </extensions>
      </trkpt>
      <trkpt lat="49.33368" lon="1.05339">
        <ele>120.30600738525</ele>
        <time>2017-04-09T07:12:06.000Z</time>
      </trkpt>
      <trkpt lat="49.33361" lon="1.05322">
        <ele>120.62480163574</ele>
        <time>2017-04-09T07:12:09.000Z</time>
        <extensions>
          <gpxtpx:TrackPointExtension xmlns:gpxtpx="http://www.garmin.com/xmlschemas/TrackPointExtension/v1">
            <gpxtpx:hr>148</gpxtpx:hr>
          </gpxtpx:TrackPointExtension>
        </extensions>
      </trkpt>
      <trkpt lat="49.33356" lon="1.05307">
        <ele>120.98372650146</ele>
        <time>2017-04-09T07:12:12.000Z</time>
        <extensions>
          <gpxtpx:TrackPointExtension xmlns:gpxtpx="http://www.garmin.com/xmlschemas/TrackPointExtension/v1">
            <gpxtpx:hr>151</gpxtpx:hr>
          </gpxtpx:TrackPointExtension>
        </extensions>
      </trkpt>
      <trkpt lat="49.3335" lon="1.05293">
        <ele>121.30726623535</ele>
        <time>2017-04-09T07:12:15.000Z</time>
        <extensions>
          <gpxtpx:TrackPointExtension xmlns:gpxtpx="http://www.garmin.com/xmlschemas/TrackPointExtension/v1">
            <gpxtpx:hr>148</gpxtpx:hr>
          </gpxtpx:TrackPointExtension>
        </extensions>
      </trkpt>
      <trkpt lat="49.33345" lon="1.05276">
        <ele>121.55024719238</ele>
        <time>2017-04-09T07:12:18.000Z</time>
        <extensions>
          <gpxtpx:TrackPointExtension xmlns:gpxtpx="http://www.garmin.com/xmlschemas/TrackPointExtension/v1">
            <gpxtpx:hr>149</gpxtpx:hr>
          </gpxtpx:TrackPointExtension>
        </extensions>
      </trkpt>
      <trkpt lat="49.33341" lon="1.05264">
        <ele>121.69891357422</ele>
        <time>2017-04-09T07:12:20.000Z</time>
      </trkpt>
      <trkpt lat="49.33335" lon="1.05247">
        <ele>121.81648254395</ele>
        <time>2017-04-09T07:12:23.000Z</time>
      </trkpt>
      <trkpt lat="49.33332" lon="1.05235">
        <ele>121.9320526123</ele>
        <time>2017-04-09T07:12:25.000Z</time>
      </trkpt>
      <trkpt lat="49.33331" lon="1.05223">
        <ele>122.05621337891</ele>
        <time>2017-04-09T07:12:27.000Z</time>
      </trkpt>
      <trkpt lat="49.33328" lon="1.05204">
        <ele>122.19464111328</ele>
        <time>2017-04-09T07:12:30.000Z</time>
      </trkpt>
      <trkpt lat="49.33324" lon="1.05193">
        <ele>122.34187316895</ele>
        <time>2017-04-09T07:12:32.000Z</time>
      </trkpt>
      <trkpt lat="49.3332" lon="1.05181">
        <ele>122.491065979</ele>
        <time>2017-04-09T07:12:34.000Z</time>
      </trkpt>
      <trkpt lat="49.33312" lon="1.05166">
        <ele>122.66021728516</ele>
        <time>2017-04-09T07:12:37.000Z</time>
      </trkpt>
      <trkpt lat="49.33307" lon="1.0515">
        <ele>122.83791351318</ele>
        <time>2017-04-09T07:12:40.000Z</time>
      </trkpt>
      <trkpt lat="49.33304" lon="1.05138">
        <ele>123.00187683105</ele>
        <time>2017-04-09T07:12:42.000Z</time>
      </trkpt>
      <trkpt lat="49.33299" lon="1.0512">
        <ele>123.18424987793</ele>
        <time>2017-04-09T07:12:45.000Z</time>
      </trkpt>
      <trkpt lat="49.33295" lon="1.05101">
        <ele>123.38134765625</ele>
        <time>2017-04-09T07:12:48.000Z</time>
      </trkpt>
      <trkpt lat="49.33293" lon="1.05089">
        <ele>123.56481933594</ele>
        <time>2017-04-09T07:12:50.000Z</time>
      </trkpt>
      <trkpt lat="49.33294" lon="1.05074">
        <ele>123.70268249512</ele>
        <time>2017-04-09T07:12:53.000Z</time>
      </trkpt>
      <trkpt lat="49.33295" lon="1.05055">
        <ele>123.76596832275</ele>
        <time>2017-04-09T07:12:56.000Z</time>
      </trkpt>
      <trkpt lat="49.33296" lon="1.05033">
        <ele>123.73136901855</ele>
        <time>2017-04-09T07:12:59.000Z</time>
      </trkpt>
      <trkpt lat="49.33297" lon="1.05018">
        <ele>123.61631011963</ele>
        <time>2017-04-09T07:13:01.000Z</time>
        <extensions>
          <gpxtpx:TrackPointExtension xmlns:gpxtpx="http://www.garmin.com/xmlschemas/TrackPointExtension/v1">
            <gpxtpx:hr>150</gpxtpx:hr>
          </gpxtpx:TrackPointExtension>
        </extensions>
      </trkpt>
      <trkpt lat="49.33298" lon="1.05002">
        <ele>123.43605804443</ele>
        <time>2017-04-09T07:13:03.000Z</time>
        <extensions>
          <gpxtpx:TrackPointExtension xmlns:gpxtpx="http://www.garmin.com/xmlschemas/TrackPointExtension/v1">
            <gpxtpx:hr>149</gpxtpx:hr>
          </gpxtpx:TrackPointExtension>
        </extensions>
      </trkpt>
      <trkpt lat="49.333" lon="1.04987">
        <ele>123.27071380615</ele>
        <time>2017-04-09T07:13:05.000Z</time>
        <extensions>
          <gpxtpx:TrackPointExtension xmlns:gpxtpx="http://www.garmin.com/xmlschemas/TrackPointExtension/v1">
            <gpxtpx:hr>147</gpxtpx:hr>
          </gpxtpx:TrackPointExtension>
        </extensions>
      </trkpt>
      <trkpt lat="49.33303" lon="1.04965">
        <ele>123.16874694824</ele>
        <time>2017-04-09T07:13:08.000Z</time>
        <extensions>
          <gpxtpx:TrackPointExtension xmlns:gpxtpx="http://www.garmin.com/xmlschemas/TrackPointExtension/v1">
            <gpxtpx:hr>146</gpxtpx:hr>
          </gpxtpx:TrackPointExtension>
        </extensions>
      </trkpt>
      <trkpt lat="49.33305" lon="1.04951">
        <ele>123.13027191162</ele>
        <time>2017-04-09T07:13:10.000Z</time>
        <extensions>
          <gpxtpx:TrackPointExtension xmlns:gpxtpx="http://www.garmin.com/xmlschemas/TrackPointExtension/v1">
            <gpxtpx:hr>144</gpxtpx:hr>
          </gpxtpx:TrackPointExtension>
        </extensions>
      </trkpt>
      <trkpt lat="49.33307" lon="1.04937">
        <ele>123.13730621338</ele>
        <time>2017-04-09T07:13:12.000Z</time>
        <extensions>
          <gpxtpx:TrackPointExtension xmlns:gpxtpx="http://www.garmin.com/xmlschemas/TrackPointExtension/v1">
            <gpxtpx:hr>142</gpxtpx:hr>
          </gpxtpx:TrackPointExtension>
        </extensions>
      </trkpt>
      <trkpt lat="49.33308" lon="1.04916">
        <ele>123.19554138184</ele>
        <time>2017-04-09T07:13:15.000Z</time>
        <extensions>
          <gpxtpx:TrackPointExtension xmlns:gpxtpx="http://www.garmin.com/xmlschemas/TrackPointExtension/v1">
            <gpxtpx:hr>139</gpxtpx:hr>
          </gpxtpx:TrackPointExtension>
        </extensions>
      </trkpt>
      <trkpt lat="49.33309" lon="1.04895">
        <ele>123.34336090088</ele>
        <time>2017-04-09T07:13:18.000Z</time>
      </trkpt>
      <trkpt lat="49.3331" lon="1.04883">
        <ele>123.53254699707</ele>
        <time>2017-04-09T07:13:20.000Z</time>
        <extensions>
          <gpxtpx:TrackPointExtension xmlns:gpxtpx="http://www.garmin.com/xmlschemas/TrackPointExtension/v1">
            <gpxtpx:hr>140</gpxtpx:hr>
          </gpxtpx:TrackPointExtension>
        </extensions>
      </trkpt>
      <trkpt lat="49.33312" lon="1.0487">
        <ele>123.76831054688</ele>
        <time>2017-04-09T07:13:22.000Z</time>
      </trkpt>
      <trkpt lat="49.33315" lon="1.04849">
        <ele>124.08685302734</ele>
        <time>2017-04-09T07:13:25.000Z</time>
      </trkpt>
      <trkpt lat="49.33316" lon="1.04836">
        <ele>124.45261383057</ele>
        <time>2017-04-09T07:13:27.000Z</time>
      </trkpt>
      <trkpt lat="49.33318" lon="1.04823">
        <ele>124.79447937012</ele>
        <time>2017-04-09T07:13:29.000Z</time>
      </trkpt>
      <trkpt lat="49.3332" lon="1.04799">
        <ele>125.22945404053</ele>
        <time>2017-04-09T07:13:32.000Z</time>
      </trkpt>
      <trkpt lat="49.33321" lon="1.04779">
        <ele>125.73371887207</ele>
        <time>2017-04-09T07:13:35.000Z</time>
      </trkpt>
      <trkpt lat="49.33323" lon="1.04761">
        <ele>126.27075195312</ele>
        <time>2017-04-09T07:13:38.000Z</time>
      </trkpt>
      <trkpt lat="49.33321" lon="1.04739">
        <ele>126.7830581665</ele>
        <time>2017-04-09T07:13:41.000Z</time>
      </trkpt>
      <trkpt lat="49.33319" lon="1.04719">
        <ele>127.15856933594</ele>
        <time>2017-04-09T07:13:44.000Z</time>
      </trkpt>
      <trkpt lat="49.33315" lon="1.04701">
        <ele>127.31730651855</ele>
        <time>2017-04-09T07:13:47.000Z</time>
      </trkpt>
      <trkpt lat="49.3331" lon="1.04681">
        <ele>127.26955413818</ele>
        <time>2017-04-09T07:13:50.000Z</time>
      </trkpt>
      <trkpt lat="49.33305" lon="1.04669">
        <ele>127.03763580322</ele>
        <time>2017-04-09T07:13:52.000Z</time>
      </trkpt>
      <trkpt lat="49.33297" lon="1.04649">
        <ele>126.63313293457</ele>
        <time>2017-04-09T07:13:55.000Z</time>
      </trkpt>
      <trkpt lat="49.3329" lon="1.04632">
        <ele>126.18398284912</ele>
        <time>2017-04-09T07:13:58.000Z</time>
      </trkpt>
      <trkpt lat="49.33279" lon="1.04618">
        <ele>125.71278381348</ele>
        <time>2017-04-09T07:14:01.000Z</time>
        <extensions>
          <gpxtpx:TrackPointExtension xmlns:gpxtpx="http://www.garmin.com/xmlschemas/TrackPointExtension/v1">
            <gpxtpx:hr>137</gpxtpx:hr>
          </gpxtpx:TrackPointExtension>
        </extensions>
      </trkpt>
      <trkpt lat="49.33274" lon="1.04607">
        <ele>125.26804351807</ele>
        <time>2017-04-09T07:14:03.000Z</time>
        <extensions>
          <gpxtpx:TrackPointExtension xmlns:gpxtpx="http://www.garmin.com/xmlschemas/TrackPointExtension/v1">
            <gpxtpx:hr>140</gpxtpx:hr>
          </gpxtpx:TrackPointExtension>
        </extensions>
      </trkpt>
      <trkpt lat="49.33268" lon="1.0459">
        <ele>124.81744384766</ele>
        <time>2017-04-09T07:14:06.000Z</time>
        <extensions>
          <gpxtpx:TrackPointExtension xmlns:gpxtpx="http://www.garmin.com/xmlschemas/TrackPointExtension/v1">
            <gpxtpx:hr>138</gpxtpx:hr>
          </gpxtpx:TrackPointExtension>
        </extensions>
      </trkpt>
      <trkpt lat="49.33264" lon="1.04579">
        <ele>124.51014709473</ele>
        <time>2017-04-09T07:14:08.000Z</time>
      </trkpt>
      <trkpt lat="49.33258" lon="1.04568">
        <ele>124.38661193848</ele>
        <time>2017-04-09T07:14:10.000Z</time>
        <extensions>
          <gpxtpx:TrackPointExtension xmlns:gpxtpx="http://www.garmin.com/xmlschemas/TrackPointExtension/v1">
            <gpxtpx:hr>140</gpxtpx:hr>
          </gpxtpx:TrackPointExtension>
        </extensions>
      </trkpt>
      <trkpt lat="49.33254" lon="1.04555">
        <ele>124.44087982178</ele>
        <time>2017-04-09T07:14:12.000Z</time>
        <extensions>
          <gpxtpx:TrackPointExtension xmlns:gpxtpx="http://www.garmin.com/xmlschemas/TrackPointExtension/v1">
            <gpxtpx:hr>140</gpxtpx:hr>
          </gpxtpx:TrackPointExtension>
        </extensions>
      </trkpt>
      <trkpt lat="49.33249" lon="1.04539">
        <ele>124.66562652588</ele>
        <time>2017-04-09T07:14:15.000Z</time>
      </trkpt>
      <trkpt lat="49.33243" lon="1.04527">
        <ele>125.01591491699</ele>
        <time>2017-04-09T07:14:17.000Z</time>
      </trkpt>
      <trkpt lat="49.33238" lon="1.04507">
        <ele>125.47822570801</ele>
        <time>2017-04-09T07:14:20.000Z</time>
      </trkpt>
      <trkpt lat="49.33237" lon="1.04482">
        <ele>125.96956634521</ele>
        <time>2017-04-09T07:14:23.000Z</time>
      </trkpt>
      <trkpt lat="49.3324" lon="1.04459">
        <ele>126.4471206665</ele>
        <time>2017-04-09T07:14:26.000Z</time>
      </trkpt>
      <trkpt lat="49.33242" lon="1.04448">
        <ele>126.84413909912</ele>
        <time>2017-04-09T07:14:28.000Z</time>
      </trkpt>
      <trkpt lat="49.33244" lon="1.0443">
        <ele>127.23486328125</ele>
        <time>2017-04-09T07:14:31.000Z</time>
      </trkpt>
      <trkpt lat="49.33247" lon="1.0441">
        <ele>127.60688781738</ele>
        <time>2017-04-09T07:14:34.000Z</time>
      </trkpt>
      <trkpt lat="49.33248" lon="1.04397">
        <ele>127.99908447266</ele>
        <time>2017-04-09T07:14:36.000Z</time>
      </trkpt>
      <trkpt lat="49.33248" lon="1.04377">
        <ele>128.50439453125</ele>
        <time>2017-04-09T07:14:39.000Z</time>
      </trkpt>
      <trkpt lat="49.33249" lon="1.04357">
        <ele>129.16584777832</ele>
        <time>2017-04-09T07:14:41.000Z</time>
      </trkpt>
      <trkpt lat="49.33244" lon="1.04338">
        <ele>129.9440612793</ele>
        <time>2017-04-09T07:14:44.000Z</time>
      </trkpt>
      <trkpt lat="49.33242" lon="1.04325">
        <ele>130.65759277344</ele>
        <time>2017-04-09T07:14:46.000Z</time>
      </trkpt>
      <trkpt lat="49.3324" lon="1.04307">
        <ele>131.23661804199</ele>
        <time>2017-04-09T07:14:48.000Z</time>
      </trkpt>
      <trkpt lat="49.33238" lon="1.04281">
        <ele>131.61137390137</ele>
        <time>2017-04-09T07:14:51.000Z</time>
      </trkpt>
      <trkpt lat="49.33239" lon="1.04265">
        <ele>131.79420471191</ele>
        <time>2017-04-09T07:14:53.000Z</time>
      </trkpt>
      <trkpt lat="49.33239" lon="1.04245">
        <ele>131.76766967773</ele>
        <time>2017-04-09T07:14:56.000Z</time>
      </trkpt>
      <trkpt lat="49.33241" lon="1.04225">
        <ele>131.57305908203</ele>
        <time>2017-04-09T07:14:59.000Z</time>
      </trkpt>
      <trkpt lat="49.33236" lon="1.04205">
        <ele>131.2356262207</ele>
        <time>2017-04-09T07:15:02.000Z</time>
        <extensions>
          <gpxtpx:TrackPointExtension xmlns:gpxtpx="http://www.garmin.com/xmlschemas/TrackPointExtension/v1">
            <gpxtpx:hr>137</gpxtpx:hr>
          </gpxtpx:TrackPointExtension>
        </extensions>
      </trkpt>
      <trkpt lat="49.33236" lon="1.04183">
        <ele>130.75874328613</ele>
        <time>2017-04-09T07:15:05.000Z</time>
        <extensions>
          <gpxtpx:TrackPointExtension xmlns:gpxtpx="http://www.garmin.com/xmlschemas/TrackPointExtension/v1">
            <gpxtpx:hr>137</gpxtpx:hr>
          </gpxtpx:TrackPointExtension>
        </extensions>
      </trkpt>
      <trkpt lat="49.33238" lon="1.04162">
        <ele>130.18649291992</ele>
        <time>2017-04-09T07:15:08.000Z</time>
        <extensions>
          <gpxtpx:TrackPointExtension xmlns:gpxtpx="http://www.garmin.com/xmlschemas/TrackPointExtension/v1">
            <gpxtpx:hr>136</gpxtpx:hr>
          </gpxtpx:TrackPointExtension>
        </extensions>
      </trkpt>
      <trkpt lat="49.33241" lon="1.04149">
        <ele>129.69221496582</ele>
        <time>2017-04-09T07:15:10.000Z</time>
      </trkpt>
      <trkpt lat="49.33242" lon="1.04134">
        <ele>129.36923217773</ele>
        <time>2017-04-09T07:15:12.000Z</time>
        <extensions>
          <gpxtpx:TrackPointExtension xmlns:gpxtpx="http://www.garmin.com/xmlschemas/TrackPointExtension/v1">
            <gpxtpx:hr>135</gpxtpx:hr>
          </gpxtpx:TrackPointExtension>
        </extensions>
      </trkpt>
      <trkpt lat="49.33244" lon="1.04118">
        <ele>129.24011230469</ele>
        <time>2017-04-09T07:15:14.000Z</time>
        <extensions>
          <gpxtpx:TrackPointExtension xmlns:gpxtpx="http://www.garmin.com/xmlschemas/TrackPointExtension/v1">
            <gpxtpx:hr>134</gpxtpx:hr>
          </gpxtpx:TrackPointExtension>
        </extensions>
      </trkpt>
      <trkpt lat="49.33243" lon="1.04098">
        <ele>129.31265258789</ele>
        <time>2017-04-09T07:15:17.000Z</time>
        <extensions>
          <gpxtpx:TrackPointExtension xmlns:gpxtpx="http://www.garmin.com/xmlschemas/TrackPointExtension/v1">
            <gpxtpx:hr>132</gpxtpx:hr>
          </gpxtpx:TrackPointExtension>
        </extensions>
      </trkpt>
      <trkpt lat="49.33241" lon="1.04083">
        <ele>129.50988769531</ele>
        <time>2017-04-09T07:15:19.000Z</time>
        <extensions>
          <gpxtpx:TrackPointExtension xmlns:gpxtpx="http://www.garmin.com/xmlschemas/TrackPointExtension/v1">
            <gpxtpx:hr>133</gpxtpx:hr>
          </gpxtpx:TrackPointExtension>
        </extensions>
      </trkpt>
      <trkpt lat="49.33245" lon="1.04055">
        <ele>129.61865234375</ele>
        <time>2017-04-09T07:15:22.000Z</time>
      </trkpt>
      <trkpt lat="49.33245" lon="1.04036">
        <ele>129.64593505859</ele>
        <time>2017-04-09T07:15:24.000Z</time>
      </trkpt>
      <trkpt lat="49.33242" lon="1.04015">
        <ele>129.59323120117</ele>
        <time>2017-04-09T07:15:26.000Z</time>
      </trkpt>
      <trkpt lat="49.33235" lon="1.03993">
        <ele>129.44714355469</ele>
        <time>2017-04-09T07:15:29.000Z</time>
      </trkpt>
      <trkpt lat="49.33233" lon="1.03969">
        <ele>129.1742401123</ele>
        <time>2017-04-09T07:15:32.000Z</time>
      </trkpt>
      <trkpt lat="49.33227" lon="1.03951">
        <ele>128.89810180664</ele>
        <time>2017-04-09T07:15:34.000Z</time>
      </trkpt>
      <trkpt lat="49.33225" lon="1.03933">
        <ele>128.59495544434</ele>
        <time>2017-04-09T07:15:36.000Z</time>
      </trkpt>
      <trkpt lat="49.3322" lon="1.03914">
        <ele>128.27490234375</ele>
        <time>2017-04-09T07:15:39.000Z</time>
      </trkpt>
      <trkpt lat="49.33211" lon="1.03905">
        <ele>128.00228881836</ele>
        <time>2017-04-09T07:15:41.000Z</time>
      </trkpt>
      <trkpt lat="49.33207" lon="1.0389">
        <ele>127.77363586426</ele>
        <time>2017-04-09T07:15:43.000Z</time>
      </trkpt>
      <trkpt lat="49.33202" lon="1.03866">
        <ele>127.52724456787</ele>
        <time>2017-04-09T07:15:46.000Z</time>
      </trkpt>
      <trkpt lat="49.33197" lon="1.03843">
        <ele>127.29648590088</ele>
        <time>2017-04-09T07:15:49.000Z</time>
      </trkpt>
      <trkpt lat="49.33192" lon="1.0383">
        <ele>127.08239746094</ele>
        <time>2017-04-09T07:15:51.000Z</time>
      </trkpt>
      <trkpt lat="49.33185" lon="1.03808">
        <ele>126.72275543213</ele>
        <time>2017-04-09T07:15:54.000Z</time>
      </trkpt>
      <trkpt lat="49.33181" lon="1.03784">
        <ele>126.237159729</ele>
        <time>2017-04-09T07:15:57.000Z</time>
      </trkpt>
      <trkpt lat="49.33179" lon="1.03769">
        <ele>125.73213195801</ele>
        <time>2017-04-09T07:15:59.000Z</time>
      </trkpt>
      <trkpt lat="49.33176" lon="1.03748">
        <ele>125.15458679199</ele>
        <time>2017-04-09T07:16:02.000Z</time>
        <extensions>
          <gpxtpx:TrackPointExtension xmlns:gpxtpx="http://www.garmin.com/xmlschemas/TrackPointExtension/v1">
            <gpxtpx:hr>136</gpxtpx:hr>
          </gpxtpx:TrackPointExtension>
        </extensions>
      </trkpt>
      <trkpt lat="49.33171" lon="1.03737">
        <ele>124.63215637207</ele>
        <time>2017-04-09T07:16:04.000Z</time>
        <extensions>
          <gpxtpx:TrackPointExtension xmlns:gpxtpx="http://www.garmin.com/xmlschemas/TrackPointExtension/v1">
            <gpxtpx:hr>138</gpxtpx:hr>
          </gpxtpx:TrackPointExtension>
        </extensions>
      </trkpt>
      <trkpt lat="49.33163" lon="1.03719">
        <ele>124.21636962891</ele>
        <time>2017-04-09T07:16:07.000Z</time>
        <extensions>
          <gpxtpx:TrackPointExtension xmlns:gpxtpx="http://www.garmin.com/xmlschemas/TrackPointExtension/v1">
            <gpxtpx:hr>137</gpxtpx:hr>
          </gpxtpx:TrackPointExtension>
        </extensions>
      </trkpt>
      <trkpt lat="49.33157" lon="1.03692">
        <ele>123.84173583984</ele>
        <time>2017-04-09T07:16:10.000Z</time>
        <extensions>
          <gpxtpx:TrackPointExtension xmlns:gpxtpx="http://www.garmin.com/xmlschemas/TrackPointExtension/v1">
            <gpxtpx:hr>139</gpxtpx:hr>
          </gpxtpx:TrackPointExtension>
        </extensions>
      </trkpt>
      <trkpt lat="49.33154" lon="1.03672">
        <ele>123.46917724609</ele>
        <time>2017-04-09T07:16:13.000Z</time>
        <extensions>
          <gpxtpx:TrackPointExtension xmlns:gpxtpx="http://www.garmin.com/xmlschemas/TrackPointExtension/v1">
            <gpxtpx:hr>142</gpxtpx:hr>
          </gpxtpx:TrackPointExtension>
        </extensions>
      </trkpt>
      <trkpt lat="49.33146" lon="1.03647">
        <ele>123.24333190918</ele>
        <time>2017-04-09T07:16:16.000Z</time>
        <extensions>
          <gpxtpx:TrackPointExtension xmlns:gpxtpx="http://www.garmin.com/xmlschemas/TrackPointExtension/v1">
            <gpxtpx:hr>143</gpxtpx:hr>
          </gpxtpx:TrackPointExtension>
        </extensions>
      </trkpt>
      <trkpt lat="49.33136" lon="1.03627">
        <ele>123.12434387207</ele>
        <time>2017-04-09T07:16:19.000Z</time>
        <extensions>
          <gpxtpx:TrackPointExtension xmlns:gpxtpx="http://www.garmin.com/xmlschemas/TrackPointExtension/v1">
            <gpxtpx:hr>145</gpxtpx:hr>
          </gpxtpx:TrackPointExtension>
        </extensions>
      </trkpt>
      <trkpt lat="49.33127" lon="1.03614">
        <ele>123.17460632324</ele>
        <time>2017-04-09T07:16:21.000Z</time>
        <extensions>
          <gpxtpx:TrackPointExtension xmlns:gpxtpx="http://www.garmin.com/xmlschemas/TrackPointExtension/v1">
            <gpxtpx:hr>144</gpxtpx:hr>
          </gpxtpx:TrackPointExtension>
        </extensions>
      </trkpt>
      <trkpt lat="49.3312" lon="1.03602">
        <ele>123.44423675537</ele>
        <time>2017-04-09T07:16:23.000Z</time>
      </trkpt>
      <trkpt lat="49.33111" lon="1.03581">
        <ele>123.90925598145</ele>
        <time>2017-04-09T07:16:26.000Z</time>
      </trkpt>
      <trkpt lat="49.33104" lon="1.0357">
        <ele>124.41969299316</ele>
        <time>2017-04-09T07:16:28.000Z</time>
      </trkpt>
      <trkpt lat="49.33096" lon="1.03551">
        <ele>124.84860992432</ele>
        <time>2017-04-09T07:16:31.000Z</time>
      </trkpt>
      <trkpt lat="49.33088" lon="1.0353">
        <ele>125.17440032959</ele>
        <time>2017-04-09T07:16:34.000Z</time>
      </trkpt>
      <trkpt lat="49.33081" lon="1.03516">
        <ele>125.43507385254</ele>
        <time>2017-04-09T07:16:36.000Z</time>
      </trkpt>
      <trkpt lat="49.33075" lon="1.03503">
        <ele>125.57928466797</ele>
        <time>2017-04-09T07:16:38.000Z</time>
      </trkpt>
      <trkpt lat="49.33063" lon="1.03489">
        <ele>125.65754699707</ele>
        <time>2017-04-09T07:16:41.000Z</time>
      </trkpt>
      <trkpt lat="49.3306" lon="1.03472">
        <ele>125.49725341797</ele>
        <time>2017-04-09T07:16:43.000Z</time>
      </trkpt>
      <trkpt lat="49.33052" lon="1.0345">
        <ele>125.090675354</ele>
        <time>2017-04-09T07:16:46.000Z</time>
      </trkpt>
      <trkpt lat="49.33046" lon="1.03436">
        <ele>124.56079101562</ele>
        <time>2017-04-09T07:16:48.000Z</time>
      </trkpt>
      <trkpt lat="49.33037" lon="1.03421">
        <ele>123.95263671875</ele>
        <time>2017-04-09T07:16:50.000Z</time>
      </trkpt>
      <trkpt lat="49.33027" lon="1.034">
        <ele>123.39255523682</ele>
        <time>2017-04-09T07:16:53.000Z</time>
      </trkpt>
      <trkpt lat="49.33021" lon="1.03387">
        <ele>123.09246826172</ele>
        <time>2017-04-09T07:16:55.000Z</time>
      </trkpt>
      <trkpt lat="49.33014" lon="1.03366">
        <ele>123.07132720947</ele>
        <time>2017-04-09T07:16:58.000Z</time>
      </trkpt>
      <trkpt lat="49.33012" lon="1.03349">
        <ele>123.14487457275</ele>
        <time>2017-04-09T07:17:00.000Z</time>
        <extensions>
          <gpxtpx:TrackPointExtension xmlns:gpxtpx="http://www.garmin.com/xmlschemas/TrackPointExtension/v1">
            <gpxtpx:hr>144</gpxtpx:hr>
          </gpxtpx:TrackPointExtension>
        </extensions>
      </trkpt>
      <trkpt lat="49.33012" lon="1.03334">
        <ele>123.27345275879</ele>
        <time>2017-04-09T07:17:02.000Z</time>
        <extensions>
          <gpxtpx:TrackPointExtension xmlns:gpxtpx="http://www.garmin.com/xmlschemas/TrackPointExtension/v1">
            <gpxtpx:hr>143</gpxtpx:hr>
          </gpxtpx:TrackPointExtension>
        </extensions>
      </trkpt>
      <trkpt lat="49.33018" lon="1.03314">
        <ele>123.25656890869</ele>
        <time>2017-04-09T07:17:05.000Z</time>
        <extensions>
          <gpxtpx:TrackPointExtension xmlns:gpxtpx="http://www.garmin.com/xmlschemas/TrackPointExtension/v1">
            <gpxtpx:hr>144</gpxtpx:hr>
          </gpxtpx:TrackPointExtension>
        </extensions>
      </trkpt>
      <trkpt lat="49.33015" lon="1.033">
        <ele>123.17803955078</ele>
        <time>2017-04-09T07:17:08.000Z</time>
        <extensions>
          <gpxtpx:TrackPointExtension xmlns:gpxtpx="http://www.garmin.com/xmlschemas/TrackPointExtension/v1">
            <gpxtpx:hr>146</gpxtpx:hr>
          </gpxtpx:TrackPointExtension>
        </extensions>
      </trkpt>
      <trkpt lat="49.33011" lon="1.03301">
        <ele>123.08406829834</ele>
        <time>2017-04-09T07:17:10.000Z</time>
        <extensions>
          <gpxtpx:TrackPointExtension xmlns:gpxtpx="http://www.garmin.com/xmlschemas/TrackPointExtension/v1">
            <gpxtpx:hr>149</gpxtpx:hr>
          </gpxtpx:TrackPointExtension>
        </extensions>
      </trkpt>
      <trkpt lat="49.3301" lon="1.0331">
        <ele>123.03269958496</ele>
        <time>2017-04-09T07:17:12.000Z</time>
      </trkpt>
      <trkpt lat="49.33009" lon="1.03322">
        <ele>123.03942871094</ele>
        <time>2017-04-09T07:17:14.000Z</time>
        <extensions>
          <gpxtpx:TrackPointExtension xmlns:gpxtpx="http://www.garmin.com/xmlschemas/TrackPointExtension/v1">
            <gpxtpx:hr>151</gpxtpx:hr>
          </gpxtpx:TrackPointExtension>
        </extensions>
      </trkpt>
      <trkpt lat="49.33007" lon="1.03338">
        <ele>123.20333099365</ele>
        <time>2017-04-09T07:17:17.000Z</time>
      </trkpt>
      <trkpt lat="49.33004" lon="1.03354">
        <ele>123.43280029297</ele>
        <time>2017-04-09T07:17:20.000Z</time>
      </trkpt>
      <trkpt lat="49.32999" lon="1.03372">
        <ele>123.72196960449</ele>
        <time>2017-04-09T07:17:23.000Z</time>
      </trkpt>
      <trkpt lat="49.32996" lon="1.03382">
        <ele>124.03413391113</ele>
        <time>2017-04-09T07:17:25.000Z</time>
      </trkpt>
      <trkpt lat="49.32991" lon="1.034">
        <ele>124.41255187988</ele>
        <time>2017-04-09T07:17:28.000Z</time>
      </trkpt>
      <trkpt lat="49.32984" lon="1.03415">
        <ele>124.83374023438</ele>
        <time>2017-04-09T07:17:31.000Z</time>
      </trkpt>
      <trkpt lat="49.32982" lon="1.03424">
        <ele>125.29598236084</ele>
        <time>2017-04-09T07:17:33.000Z</time>
      </trkpt>
      <trkpt lat="49.32981" lon="1.03434">
        <ele>125.77459716797</ele>
        <time>2017-04-09T07:17:35.000Z</time>
      </trkpt>
      <trkpt lat="49.32979" lon="1.03443">
        <ele>126.30959320068</ele>
        <time>2017-04-09T07:17:37.000Z</time>
      </trkpt>
      <trkpt lat="49.32977" lon="1.03461">
        <ele>126.94647216797</ele>
        <time>2017-04-09T07:17:40.000Z</time>
      </trkpt>
      <trkpt lat="49.32973" lon="1.03477">
        <ele>127.64616394043</ele>
        <time>2017-04-09T07:17:43.000Z</time>
      </trkpt>
      <trkpt lat="49.32969" lon="1.03489">
        <ele>128.3424987793</ele>
        <time>2017-04-09T07:17:45.000Z</time>
      </trkpt>
      <trkpt lat="49.32966" lon="1.035">
        <ele>129.00494384766</ele>
        <time>2017-04-09T07:17:47.000Z</time>
      </trkpt>
      <trkpt lat="49.32964" lon="1.03511">
        <ele>129.61888122559</ele>
        <time>2017-04-09T07:17:49.000Z</time>
      </trkpt>
      <trkpt lat="49.32961" lon="1.03525">
        <ele>130.12805175781</ele>
        <time>2017-04-09T07:17:52.000Z</time>
      </trkpt>
      <trkpt lat="49.32948" lon="1.0354">
        <ele>130.54220581055</ele>
        <time>2017-04-09T07:17:55.000Z</time>
      </trkpt>
      <trkpt lat="49.32941" lon="1.03543">
        <ele>130.8591003418</ele>
        <time>2017-04-09T07:17:57.000Z</time>
      </trkpt>
      <trkpt lat="49.3293" lon="1.03549">
        <ele>131.12147521973</ele>
        <time>2017-04-09T07:18:00.000Z</time>
      </trkpt>
      <trkpt lat="49.32922" lon="1.03553">
        <ele>131.34237670898</ele>
        <time>2017-04-09T07:18:03.000Z</time>
        <extensions>
          <gpxtpx:TrackPointExtension xmlns:gpxtpx="http://www.garmin.com/xmlschemas/TrackPointExtension/v1">
            <gpxtpx:hr>152</gpxtpx:hr>
          </gpxtpx:TrackPointExtension>
        </extensions>
      </trkpt>
      <trkpt lat="49.32915" lon="1.03553">
        <ele>131.39477539062</ele>
        <time>2017-04-09T07:18:05.000Z</time>
        <extensions>
          <gpxtpx:TrackPointExtension xmlns:gpxtpx="http://www.garmin.com/xmlschemas/TrackPointExtension/v1">
            <gpxtpx:hr>150</gpxtpx:hr>
          </gpxtpx:TrackPointExtension>
        </extensions>
      </trkpt>
      <trkpt lat="49.3291" lon="1.03549">
        <ele>131.06555175781</ele>
        <time>2017-04-09T07:18:07.000Z</time>
        <extensions>
          <gpxtpx:TrackPointExtension xmlns:gpxtpx="http://www.garmin.com/xmlschemas/TrackPointExtension/v1">
            <gpxtpx:hr>148</gpxtpx:hr>
          </gpxtpx:TrackPointExtension>
        </extensions>
      </trkpt>
      <trkpt lat="49.32905" lon="1.03538">
        <ele>130.37460327148</ele>
        <time>2017-04-09T07:18:10.000Z</time>
        <extensions>
          <gpxtpx:TrackPointExtension xmlns:gpxtpx="http://www.garmin.com/xmlschemas/TrackPointExtension/v1">
            <gpxtpx:hr>147</gpxtpx:hr>
          </gpxtpx:TrackPointExtension>
        </extensions>
      </trkpt>
      <trkpt lat="49.32901" lon="1.03521">
        <ele>129.28414916992</ele>
        <time>2017-04-09T07:18:13.000Z</time>
        <extensions>
          <gpxtpx:TrackPointExtension xmlns:gpxtpx="http://www.garmin.com/xmlschemas/TrackPointExtension/v1">
            <gpxtpx:hr>146</gpxtpx:hr>
          </gpxtpx:TrackPointExtension>
        </extensions>
      </trkpt>
      <trkpt lat="49.32897" lon="1.03504">
        <ele>127.7963104248</ele>
        <time>2017-04-09T07:18:16.000Z</time>
        <extensions>
          <gpxtpx:TrackPointExtension xmlns:gpxtpx="http://www.garmin.com/xmlschemas/TrackPointExtension/v1">
            <gpxtpx:hr>149</gpxtpx:hr>
          </gpxtpx:TrackPointExtension>
        </extensions>
      </trkpt>
      <trkpt lat="49.32893" lon="1.03494">
        <ele>126.20283508301</ele>
        <time>2017-04-09T07:18:18.000Z</time>
        <extensions>
          <gpxtpx:TrackPointExtension xmlns:gpxtpx="http://www.garmin.com/xmlschemas/TrackPointExtension/v1">
            <gpxtpx:hr>147</gpxtpx:hr>
          </gpxtpx:TrackPointExtension>
        </extensions>
      </trkpt>
      <trkpt lat="49.3289" lon="1.03479">
        <ele>124.84843444824</ele>
        <time>2017-04-09T07:18:20.000Z</time>
      </trkpt>
      <trkpt lat="49.32888" lon="1.03466">
        <ele>123.887840271</ele>
        <time>2017-04-09T07:18:22.000Z</time>
      </trkpt>
      <trkpt lat="49.32882" lon="1.03448">
        <ele>123.19860839844</ele>
        <time>2017-04-09T07:18:25.000Z</time>
      </trkpt>
      <trkpt lat="49.32879" lon="1.03441">
        <ele>122.83681488037</ele>
        <time>2017-04-09T07:18:27.000Z</time>
      </trkpt>
      <trkpt lat="49.32878" lon="1.03429">
        <ele>122.73359680176</ele>
        <time>2017-04-09T07:18:30.000Z</time>
      </trkpt>
      <trkpt lat="49.32878" lon="1.03408">
        <ele>122.83190917969</ele>
        <time>2017-04-09T07:18:33.000Z</time>
      </trkpt>
      <trkpt lat="49.32881" lon="1.03387">
        <ele>122.90256500244</ele>
        <time>2017-04-09T07:18:36.000Z</time>
      </trkpt>
      <trkpt lat="49.32878" lon="1.03374">
        <ele>122.94636535645</ele>
        <time>2017-04-09T07:18:38.000Z</time>
      </trkpt>
      <trkpt lat="49.32878" lon="1.0336">
        <ele>123.00576019287</ele>
        <time>2017-04-09T07:18:40.000Z</time>
      </trkpt>
      <trkpt lat="49.3288" lon="1.03339">
        <ele>122.9952545166</ele>
        <time>2017-04-09T07:18:43.000Z</time>
      </trkpt>
      <trkpt lat="49.32883" lon="1.03323">
        <ele>122.8493270874</ele>
        <time>2017-04-09T07:18:45.000Z</time>
      </trkpt>
      <trkpt lat="49.32888" lon="1.03302">
        <ele>122.70509338379</ele>
        <time>2017-04-09T07:18:48.000Z</time>
      </trkpt>
      <trkpt lat="49.32888" lon="1.03288">
        <ele>122.59256744385</ele>
        <time>2017-04-09T07:18:50.000Z</time>
      </trkpt>
      <trkpt lat="49.32886" lon="1.03268">
        <ele>122.3500213623</ele>
        <time>2017-04-09T07:18:53.000Z</time>
      </trkpt>
      <trkpt lat="49.3289" lon="1.0325">
        <ele>122.09543609619</ele>
        <time>2017-04-09T07:18:56.000Z</time>
      </trkpt>
      <trkpt lat="49.3289" lon="1.03227">
        <ele>122.23359680176</ele>
        <time>2017-04-09T07:18:59.000Z</time>
      </trkpt>
      <trkpt lat="49.3289" lon="1.03214">
        <ele>122.57792663574</ele>
        <time>2017-04-09T07:19:01.000Z</time>
        <extensions>
          <gpxtpx:TrackPointExtension xmlns:gpxtpx="http://www.garmin.com/xmlschemas/TrackPointExtension/v1">
            <gpxtpx:hr>145</gpxtpx:hr>
          </gpxtpx:TrackPointExtension>
        </extensions>
      </trkpt>
      <trkpt lat="49.32886" lon="1.03202">
        <ele>123.13249206543</ele>
        <time>2017-04-09T07:19:04.000Z</time>
        <extensions>
          <gpxtpx:TrackPointExtension xmlns:gpxtpx="http://www.garmin.com/xmlschemas/TrackPointExtension/v1">
            <gpxtpx:hr>147</gpxtpx:hr>
          </gpxtpx:TrackPointExtension>
        </extensions>
      </trkpt>
      <trkpt lat="49.32884" lon="1.03192">
        <ele>123.96641540527</ele>
        <time>2017-04-09T07:19:06.000Z</time>
        <extensions>
          <gpxtpx:TrackPointExtension xmlns:gpxtpx="http://www.garmin.com/xmlschemas/TrackPointExtension/v1">
            <gpxtpx:hr>150</gpxtpx:hr>
          </gpxtpx:TrackPointExtension>
        </extensions>
      </trkpt>
      <trkpt lat="49.32877" lon="1.0318">
        <ele>124.88304138184</ele>
        <time>2017-04-09T07:19:08.000Z</time>
        <extensions>
          <gpxtpx:TrackPointExtension xmlns:gpxtpx="http://www.garmin.com/xmlschemas/TrackPointExtension/v1">
            <gpxtpx:hr>151</gpxtpx:hr>
          </gpxtpx:TrackPointExtension>
        </extensions>
      </trkpt>
      <trkpt lat="49.32866" lon="1.03159">
        <ele>125.43165588379</ele>
        <time>2017-04-09T07:19:11.000Z</time>
        <extensions>
          <gpxtpx:TrackPointExtension xmlns:gpxtpx="http://www.garmin.com/xmlschemas/TrackPointExtension/v1">
            <gpxtpx:hr>151</gpxtpx:hr>
          </gpxtpx:TrackPointExtension>
        </extensions>
      </trkpt>
      <trkpt lat="49.32862" lon="1.03145">
        <ele>125.68766021729</ele>
        <time>2017-04-09T07:19:13.000Z</time>
        <extensions>
          <gpxtpx:TrackPointExtension xmlns:gpxtpx="http://www.garmin.com/xmlschemas/TrackPointExtension/v1">
            <gpxtpx:hr>152</gpxtpx:hr>
          </gpxtpx:TrackPointExtension>
        </extensions>
      </trkpt>
      <trkpt lat="49.32853" lon="1.03124">
        <ele>125.71966552734</ele>
        <time>2017-04-09T07:19:16.000Z</time>
        <extensions>
          <gpxtpx:TrackPointExtension xmlns:gpxtpx="http://www.garmin.com/xmlschemas/TrackPointExtension/v1">
            <gpxtpx:hr>148</gpxtpx:hr>
          </gpxtpx:TrackPointExtension>
        </extensions>
      </trkpt>
      <trkpt lat="49.32848" lon="1.0311">
        <ele>125.60288238525</ele>
        <time>2017-04-09T07:19:18.000Z</time>
        <extensions>
          <gpxtpx:TrackPointExtension xmlns:gpxtpx="http://www.garmin.com/xmlschemas/TrackPointExtension/v1">
            <gpxtpx:hr>147</gpxtpx:hr>
          </gpxtpx:TrackPointExtension>
        </extensions>
      </trkpt>
      <trkpt lat="49.3284" lon="1.03097">
        <ele>125.38828277588</ele>
        <time>2017-04-09T07:19:20.000Z</time>
      </trkpt>
      <trkpt lat="49.32831" lon="1.03075">
        <ele>125.03792572021</ele>
        <time>2017-04-09T07:19:23.000Z</time>
      </trkpt>
      <trkpt lat="49.32828" lon="1.03063">
        <ele>124.55698394775</ele>
        <time>2017-04-09T07:19:25.000Z</time>
      </trkpt>
      <trkpt lat="49.32829" lon="1.03044">
        <ele>124.15018463135</ele>
        <time>2017-04-09T07:19:28.000Z</time>
      </trkpt>
      <trkpt lat="49.32831" lon="1.03023">
        <ele>123.88027191162</ele>
        <time>2017-04-09T07:19:31.000Z</time>
      </trkpt>
      <trkpt lat="49.32832" lon="1.03001">
        <ele>123.60270690918</ele>
        <time>2017-04-09T07:19:34.000Z</time>
      </trkpt>
      <trkpt lat="49.32829" lon="1.02982">
        <ele>123.51200866699</ele>
        <time>2017-04-09T07:19:37.000Z</time>
      </trkpt>
      <trkpt lat="49.32828" lon="1.0297">
        <ele>123.75520324707</ele>
        <time>2017-04-09T07:19:39.000Z</time>
      </trkpt>
      <trkpt lat="49.32826" lon="1.02956">
        <ele>124.14143371582</ele>
        <time>2017-04-09T07:19:41.000Z</time>
      </trkpt>
      <trkpt lat="49.32826" lon="1.02942">
        <ele>124.61468505859</ele>
        <time>2017-04-09T07:19:43.000Z</time>
      </trkpt>
      <trkpt lat="49.32835" lon="1.02926">
        <ele>125.58801269531</ele>
        <time>2017-04-09T07:19:46.000Z</time>
      </trkpt>
      <trkpt lat="49.32844" lon="1.02916">
        <ele>126.58561706543</ele>
        <time>2017-04-09T07:19:48.000Z</time>
      </trkpt>
      <trkpt lat="49.32853" lon="1.02907">
        <ele>127.40287017822</ele>
        <time>2017-04-09T07:19:50.000Z</time>
      </trkpt>
      <trkpt lat="49.32867" lon="1.02893">
        <ele>128.05830383301</ele>
        <time>2017-04-09T07:19:53.000Z</time>
      </trkpt>
      <trkpt lat="49.32877" lon="1.02887">
        <ele>128.51402282715</ele>
        <time>2017-04-09T07:19:55.000Z</time>
      </trkpt>
      <trkpt lat="49.32883" lon="1.0288">
        <ele>128.49795532227</ele>
        <time>2017-04-09T07:19:57.000Z</time>
      </trkpt>
      <trkpt lat="49.32896" lon="1.02876">
        <ele>128.39875793457</ele>
        <time>2017-04-09T07:20:00.000Z</time>
        <extensions>
          <gpxtpx:TrackPointExtension xmlns:gpxtpx="http://www.garmin.com/xmlschemas/TrackPointExtension/v1">
            <gpxtpx:hr>148</gpxtpx:hr>
          </gpxtpx:TrackPointExtension>
        </extensions>
      </trkpt>
      <trkpt lat="49.32902" lon="1.02869">
        <ele>128.36514282227</ele>
        <time>2017-04-09T07:20:02.000Z</time>
        <extensions>
          <gpxtpx:TrackPointExtension xmlns:gpxtpx="http://www.garmin.com/xmlschemas/TrackPointExtension/v1">
            <gpxtpx:hr>151</gpxtpx:hr>
          </gpxtpx:TrackPointExtension>
        </extensions>
      </trkpt>
      <trkpt lat="49.32905" lon="1.02853">
        <ele>128.4066619873</ele>
        <time>2017-04-09T07:20:05.000Z</time>
        <extensions>
          <gpxtpx:TrackPointExtension xmlns:gpxtpx="http://www.garmin.com/xmlschemas/TrackPointExtension/v1">
            <gpxtpx:hr>151</gpxtpx:hr>
          </gpxtpx:TrackPointExtension>
        </extensions>
      </trkpt>
      <trkpt lat="49.32906" lon="1.02833">
        <ele>128.49406433105</ele>
        <time>2017-04-09T07:20:08.000Z</time>
        <extensions>
          <gpxtpx:TrackPointExtension xmlns:gpxtpx="http://www.garmin.com/xmlschemas/TrackPointExtension/v1">
            <gpxtpx:hr>151</gpxtpx:hr>
          </gpxtpx:TrackPointExtension>
        </extensions>
      </trkpt>
      <trkpt lat="49.3291" lon="1.02814">
        <ele>128.63821411133</ele>
        <time>2017-04-09T07:20:11.000Z</time>
        <extensions>
          <gpxtpx:TrackPointExtension xmlns:gpxtpx="http://www.garmin.com/xmlschemas/TrackPointExtension/v1">
            <gpxtpx:hr>151</gpxtpx:hr>
          </gpxtpx:TrackPointExtension>
        </extensions>
      </trkpt>
      <trkpt lat="49.32913" lon="1.02802">
        <ele>128.81495666504</ele>
        <time>2017-04-09T07:20:13.000Z</time>
        <extensions>
          <gpxtpx:TrackPointExtension xmlns:gpxtpx="http://www.garmin.com/xmlschemas/TrackPointExtension/v1">
            <gpxtpx:hr>152</gpxtpx:hr>
          </gpxtpx:TrackPointExtension>
        </extensions>
      </trkpt>
      <trkpt lat="49.32912" lon="1.02792">
        <ele>128.99043273926</ele>
        <time>2017-04-09T07:20:15.000Z</time>
        <extensions>
          <gpxtpx:TrackPointExtension xmlns:gpxtpx="http://www.garmin.com/xmlschemas/TrackPointExtension/v1">
            <gpxtpx:hr>150</gpxtpx:hr>
          </gpxtpx:TrackPointExtension>
        </extensions>
      </trkpt>
      <trkpt lat="49.32905" lon="1.02783">
        <ele>129.10632324219</ele>
        <time>2017-04-09T07:20:17.000Z</time>
      </trkpt>
      <trkpt lat="49.32899" lon="1.02773">
        <ele>129.15815734863</ele>
        <time>2017-04-09T07:20:19.000Z</time>
      </trkpt>
      <trkpt lat="49.32888" lon="1.02758">
        <ele>129.06878662109</ele>
        <time>2017-04-09T07:20:22.000Z</time>
      </trkpt>
      <trkpt lat="49.32881" lon="1.0275">
        <ele>128.88070678711</ele>
        <time>2017-04-09T07:20:24.000Z</time>
      </trkpt>
      <trkpt lat="49.32872" lon="1.02738">
        <ele>128.76205444336</ele>
        <time>2017-04-09T07:20:27.000Z</time>
      </trkpt>
      <trkpt lat="49.32864" lon="1.02721">
        <ele>128.84843444824</ele>
        <time>2017-04-09T07:20:30.000Z</time>
      </trkpt>
      <trkpt lat="49.32861" lon="1.02706">
        <ele>129.14826965332</ele>
        <time>2017-04-09T07:20:33.000Z</time>
      </trkpt>
      <trkpt lat="49.32854" lon="1.02693">
        <ele>129.65411376953</ele>
        <time>2017-04-09T07:20:36.000Z</time>
      </trkpt>
      <trkpt lat="49.32849" lon="1.02677">
        <ele>130.38986206055</ele>
        <time>2017-04-09T07:20:38.000Z</time>
      </trkpt>
      <trkpt lat="49.32842" lon="1.02659">
        <ele>131.22790527344</ele>
        <time>2017-04-09T07:20:41.000Z</time>
      </trkpt>
      <trkpt lat="49.3284" lon="1.02646">
        <ele>132.05851745605</ele>
        <time>2017-04-09T07:20:43.000Z</time>
      </trkpt>
      <trkpt lat="49.32835" lon="1.0263">
        <ele>132.89920043945</ele>
        <time>2017-04-09T07:20:46.000Z</time>
      </trkpt>
      <trkpt lat="49.32826" lon="1.02618">
        <ele>133.30541992188</ele>
        <time>2017-04-09T07:20:49.000Z</time>
      </trkpt>
      <trkpt lat="49.3282" lon="1.0261">
        <ele>133.34953308105</ele>
        <time>2017-04-09T07:20:51.000Z</time>
      </trkpt>
      <trkpt lat="49.32813" lon="1.02596">
        <ele>133.11019897461</ele>
        <time>2017-04-09T07:20:54.000Z</time>
      </trkpt>
      <trkpt lat="49.3281" lon="1.02585">
        <ele>132.79402160645</ele>
        <time>2017-04-09T07:20:56.000Z</time>
      </trkpt>
      <trkpt lat="49.32805" lon="1.02571">
        <ele>132.16006469727</ele>
        <time>2017-04-09T07:20:59.000Z</time>
      </trkpt>
      <trkpt lat="49.32801" lon="1.02563">
        <ele>131.72422790527</ele>
        <time>2017-04-09T07:21:01.000Z</time>
        <extensions>
          <gpxtpx:TrackPointExtension xmlns:gpxtpx="http://www.garmin.com/xmlschemas/TrackPointExtension/v1">
            <gpxtpx:hr>148</gpxtpx:hr>
          </gpxtpx:TrackPointExtension>
        </extensions>
      </trkpt>
      <trkpt lat="49.32798" lon="1.02557">
        <ele>131.34312438965</ele>
        <time>2017-04-09T07:21:03.000Z</time>
        <extensions>
          <gpxtpx:TrackPointExtension xmlns:gpxtpx="http://www.garmin.com/xmlschemas/TrackPointExtension/v1">
            <gpxtpx:hr>149</gpxtpx:hr>
          </gpxtpx:TrackPointExtension>
        </extensions>
      </trkpt>
      <trkpt lat="49.32787" lon="1.02546">
        <ele>130.72579956055</ele>
        <time>2017-04-09T07:21:06.000Z</time>
        <extensions>
          <gpxtpx:TrackPointExtension xmlns:gpxtpx="http://www.garmin.com/xmlschemas/TrackPointExtension/v1">
            <gpxtpx:hr>151</gpxtpx:hr>
          </gpxtpx:TrackPointExtension>
        </extensions>
      </trkpt>
      <trkpt lat="49.32778" lon="1.02535">
        <ele>129.82318115234</ele>
        <time>2017-04-09T07:21:09.000Z</time>
        <extensions>
          <gpxtpx:TrackPointExtension xmlns:gpxtpx="http://www.garmin.com/xmlschemas/TrackPointExtension/v1">
            <gpxtpx:hr>151</gpxtpx:hr>
          </gpxtpx:TrackPointExtension>
        </extensions>
      </trkpt>
      <trkpt lat="49.32771" lon="1.0252">
        <ele>129.00199890137</ele>
        <time>2017-04-09T07:21:12.000Z</time>
        <extensions>
          <gpxtpx:TrackPointExtension xmlns:gpxtpx="http://www.garmin.com/xmlschemas/TrackPointExtension/v1">
            <gpxtpx:hr>149</gpxtpx:hr>
          </gpxtpx:TrackPointExtension>
        </extensions>
      </trkpt>
      <trkpt lat="49.32767" lon="1.02501">
        <ele>128.4423828125</ele>
        <time>2017-04-09T07:21:15.000Z</time>
        <extensions>
          <gpxtpx:TrackPointExtension xmlns:gpxtpx="http://www.garmin.com/xmlschemas/TrackPointExtension/v1">
            <gpxtpx:hr>147</gpxtpx:hr>
          </gpxtpx:TrackPointExtension>
        </extensions>
      </trkpt>
      <trkpt lat="49.32766" lon="1.02491">
        <ele>127.97536468506</ele>
        <time>2017-04-09T07:21:17.000Z</time>
        <extensions>
          <gpxtpx:TrackPointExtension xmlns:gpxtpx="http://www.garmin.com/xmlschemas/TrackPointExtension/v1">
            <gpxtpx:hr>145</gpxtpx:hr>
          </gpxtpx:TrackPointExtension>
        </extensions>
      </trkpt>
      <trkpt lat="49.32763" lon="1.02475">
        <ele>127.75129699707</ele>
        <time>2017-04-09T07:21:20.000Z</time>
        <extensions>
          <gpxtpx:TrackPointExtension xmlns:gpxtpx="http://www.garmin.com/xmlschemas/TrackPointExtension/v1">
            <gpxtpx:hr>144</gpxtpx:hr>
          </gpxtpx:TrackPointExtension>
        </extensions>
      </trkpt>
      <trkpt lat="49.32764" lon="1.02457">
        <ele>127.70422363281</ele>
        <time>2017-04-09T07:21:23.000Z</time>
        <extensions>
          <gpxtpx:TrackPointExtension xmlns:gpxtpx="http://www.garmin.com/xmlschemas/TrackPointExtension/v1">
            <gpxtpx:hr>146</gpxtpx:hr>
          </gpxtpx:TrackPointExtension>
        </extensions>
      </trkpt>
      <trkpt lat="49.32763" lon="1.02438">
        <ele>127.64660644531</ele>
        <time>2017-04-09T07:21:26.000Z</time>
      </trkpt>
      <trkpt lat="49.32763" lon="1.02424">
        <ele>127.4107208252</ele>
        <time>2017-04-09T07:21:28.000Z</time>
      </trkpt>
      <trkpt lat="49.32763" lon="1.02403">
        <ele>127.23696136475</ele>
        <time>2017-04-09T07:21:31.000Z</time>
      </trkpt>
      <trkpt lat="49.32765" lon="1.02383">
        <ele>127.23731994629</ele>
        <time>2017-04-09T07:21:34.000Z</time>
      </trkpt>
      <trkpt lat="49.32765" lon="1.0237">
        <ele>127.29289245605</ele>
        <time>2017-04-09T07:21:36.000Z</time>
      </trkpt>
      <trkpt lat="49.32758" lon="1.02352">
        <ele>127.4137802124</ele>
        <time>2017-04-09T07:21:39.000Z</time>
      </trkpt>
      <trkpt lat="49.32753" lon="1.02342">
        <ele>127.58497619629</ele>
        <time>2017-04-09T07:21:41.000Z</time>
      </trkpt>
      <trkpt lat="49.32745" lon="1.02325">
        <ele>127.45709228516</ele>
        <time>2017-04-09T07:21:44.000Z</time>
      </trkpt>
      <trkpt lat="49.32742" lon="1.02313">
        <ele>127.04228210449</ele>
        <time>2017-04-09T07:21:46.000Z</time>
      </trkpt>
      <trkpt lat="49.32741" lon="1.02293">
        <ele>126.44217681885</ele>
        <time>2017-04-09T07:21:49.000Z</time>
      </trkpt>
      <trkpt lat="49.32737" lon="1.02272">
        <ele>125.51281738281</ele>
        <time>2017-04-09T07:21:52.000Z</time>
      </trkpt>
      <trkpt lat="49.32739" lon="1.02248">
        <ele>124.55151367188</ele>
        <time>2017-04-09T07:21:55.000Z</time>
      </trkpt>
      <trkpt lat="49.32737" lon="1.02236">
        <ele>123.75825500488</ele>
        <time>2017-04-09T07:21:57.000Z</time>
      </trkpt>
      <trkpt lat="49.3274" lon="1.02221">
        <ele>123.30783843994</ele>
        <time>2017-04-09T07:21:59.000Z</time>
      </trkpt>
      <trkpt lat="49.3274" lon="1.02201">
        <ele>123.03477478027</ele>
        <time>2017-04-09T07:22:01.000Z</time>
        <extensions>
          <gpxtpx:TrackPointExtension xmlns:gpxtpx="http://www.garmin.com/xmlschemas/TrackPointExtension/v1">
            <gpxtpx:hr>149</gpxtpx:hr>
          </gpxtpx:TrackPointExtension>
        </extensions>
      </trkpt>
      <trkpt lat="49.32743" lon="1.0218">
        <ele>123.21331787109</ele>
        <time>2017-04-09T07:22:04.000Z</time>
        <extensions>
          <gpxtpx:TrackPointExtension xmlns:gpxtpx="http://www.garmin.com/xmlschemas/TrackPointExtension/v1">
            <gpxtpx:hr>150</gpxtpx:hr>
          </gpxtpx:TrackPointExtension>
        </extensions>
      </trkpt>
      <trkpt lat="49.32742" lon="1.02156">
        <ele>123.47778320312</ele>
        <time>2017-04-09T07:22:07.000Z</time>
        <extensions>
          <gpxtpx:TrackPointExtension xmlns:gpxtpx="http://www.garmin.com/xmlschemas/TrackPointExtension/v1">
            <gpxtpx:hr>152</gpxtpx:hr>
          </gpxtpx:TrackPointExtension>
        </extensions>
      </trkpt>
      <trkpt lat="49.32737" lon="1.02137">
        <ele>123.70632171631</ele>
        <time>2017-04-09T07:22:10.000Z</time>
        <extensions>
          <gpxtpx:TrackPointExtension xmlns:gpxtpx="http://www.garmin.com/xmlschemas/TrackPointExtension/v1">
            <gpxtpx:hr>151</gpxtpx:hr>
          </gpxtpx:TrackPointExtension>
        </extensions>
      </trkpt>
      <trkpt lat="49.32731" lon="1.02122">
        <ele>123.63557434082</ele>
        <time>2017-04-09T07:22:12.000Z</time>
        <extensions>
          <gpxtpx:TrackPointExtension xmlns:gpxtpx="http://www.garmin.com/xmlschemas/TrackPointExtension/v1">
            <gpxtpx:hr>152</gpxtpx:hr>
          </gpxtpx:TrackPointExtension>
        </extensions>
      </trkpt>
      <trkpt lat="49.32722" lon="1.02102">
        <ele>123.3553314209</ele>
        <time>2017-04-09T07:22:15.000Z</time>
        <extensions>
          <gpxtpx:TrackPointExtension xmlns:gpxtpx="http://www.garmin.com/xmlschemas/TrackPointExtension/v1">
            <gpxtpx:hr>152</gpxtpx:hr>
          </gpxtpx:TrackPointExtension>
        </extensions>
      </trkpt>
      <trkpt lat="49.32712" lon="1.02091">
        <ele>122.68782043457</ele>
        <time>2017-04-09T07:22:17.000Z</time>
        <extensions>
          <gpxtpx:TrackPointExtension xmlns:gpxtpx="http://www.garmin.com/xmlschemas/TrackPointExtension/v1">
            <gpxtpx:hr>149</gpxtpx:hr>
          </gpxtpx:TrackPointExtension>
        </extensions>
      </trkpt>
      <trkpt lat="49.32704" lon="1.02071">
        <ele>121.91524505615</ele>
        <time>2017-04-09T07:22:20.000Z</time>
      </trkpt>
      <trkpt lat="49.32695" lon="1.02046">
        <ele>121.37092590332</ele>
        <time>2017-04-09T07:22:23.000Z</time>
      </trkpt>
      <trkpt lat="49.32688" lon="1.02031">
        <ele>121.04917144775</ele>
        <time>2017-04-09T07:22:25.000Z</time>
      </trkpt>
      <trkpt lat="49.32676" lon="1.02006">
        <ele>121.1004486084</ele>
        <time>2017-04-09T07:22:28.000Z</time>
      </trkpt>
      <trkpt lat="49.32666" lon="1.01989">
        <ele>121.48774719238</ele>
        <time>2017-04-09T07:22:31.000Z</time>
      </trkpt>
      <trkpt lat="49.32656" lon="1.01978">
        <ele>121.77829742432</ele>
        <time>2017-04-09T07:22:33.000Z</time>
      </trkpt>
      <trkpt lat="49.32644" lon="1.01954">
        <ele>122.00883483887</ele>
        <time>2017-04-09T07:22:36.000Z</time>
      </trkpt>
      <trkpt lat="49.32642" lon="1.01936">
        <ele>122.42392730713</ele>
        <time>2017-04-09T07:22:38.000Z</time>
      </trkpt>
      <trkpt lat="49.32642" lon="1.01909">
        <ele>122.99235534668</ele>
        <time>2017-04-09T07:22:41.000Z</time>
      </trkpt>
      <trkpt lat="49.32646" lon="1.01889">
        <ele>123.57424163818</ele>
        <time>2017-04-09T07:22:44.000Z</time>
      </trkpt>
      <trkpt lat="49.32644" lon="1.01872">
        <ele>124.27479553223</ele>
        <time>2017-04-09T07:22:46.000Z</time>
      </trkpt>
      <trkpt lat="49.32645" lon="1.01845">
        <ele>125.02046203613</ele>
        <time>2017-04-09T07:22:49.000Z</time>
      </trkpt>
      <trkpt lat="49.32643" lon="1.0183">
        <ele>125.51983642578</ele>
        <time>2017-04-09T07:22:51.000Z</time>
      </trkpt>
      <trkpt lat="49.32631" lon="1.01807">
        <ele>125.59195709229</ele>
        <time>2017-04-09T07:22:54.000Z</time>
      </trkpt>
      <trkpt lat="49.32623" lon="1.01789">
        <ele>125.56893157959</ele>
        <time>2017-04-09T07:22:56.000Z</time>
      </trkpt>
      <trkpt lat="49.3261" lon="1.01769">
        <ele>125.56037902832</ele>
        <time>2017-04-09T07:22:59.000Z</time>
      </trkpt>
      <trkpt lat="49.32594" lon="1.01745">
        <ele>125.57550048828</ele>
        <time>2017-04-09T07:23:02.000Z</time>
        <extensions>
          <gpxtpx:TrackPointExtension xmlns:gpxtpx="http://www.garmin.com/xmlschemas/TrackPointExtension/v1">
            <gpxtpx:hr>146</gpxtpx:hr>
          </gpxtpx:TrackPointExtension>
        </extensions>
      </trkpt>
      <trkpt lat="49.32595" lon="1.01726">
        <ele>125.8889541626</ele>
        <time>2017-04-09T07:23:05.000Z</time>
        <extensions>
          <gpxtpx:TrackPointExtension xmlns:gpxtpx="http://www.garmin.com/xmlschemas/TrackPointExtension/v1">
            <gpxtpx:hr>145</gpxtpx:hr>
          </gpxtpx:TrackPointExtension>
        </extensions>
      </trkpt>
      <trkpt lat="49.326" lon="1.01716">
        <ele>126.45378112793</ele>
        <time>2017-04-09T07:23:07.000Z</time>
        <extensions>
          <gpxtpx:TrackPointExtension xmlns:gpxtpx="http://www.garmin.com/xmlschemas/TrackPointExtension/v1">
            <gpxtpx:hr>148</gpxtpx:hr>
          </gpxtpx:TrackPointExtension>
        </extensions>
      </trkpt>
      <trkpt lat="49.32609" lon="1.01711">
        <ele>127.13110351562</ele>
        <time>2017-04-09T07:23:10.000Z</time>
        <extensions>
          <gpxtpx:TrackPointExtension xmlns:gpxtpx="http://www.garmin.com/xmlschemas/TrackPointExtension/v1">
            <gpxtpx:hr>148</gpxtpx:hr>
          </gpxtpx:TrackPointExtension>
        </extensions>
      </trkpt>
      <trkpt lat="49.32616" lon="1.01702">
        <ele>127.94567871094</ele>
        <time>2017-04-09T07:23:12.000Z</time>
        <extensions>
          <gpxtpx:TrackPointExtension xmlns:gpxtpx="http://www.garmin.com/xmlschemas/TrackPointExtension/v1">
            <gpxtpx:hr>146</gpxtpx:hr>
          </gpxtpx:TrackPointExtension>
        </extensions>
      </trkpt>
      <trkpt lat="49.32626" lon="1.01694">
        <ele>128.77279663086</ele>
        <time>2017-04-09T07:23:15.000Z</time>
        <extensions>
          <gpxtpx:TrackPointExtension xmlns:gpxtpx="http://www.garmin.com/xmlschemas/TrackPointExtension/v1">
            <gpxtpx:hr>144</gpxtpx:hr>
          </gpxtpx:TrackPointExtension>
        </extensions>
      </trkpt>
      <trkpt lat="49.32632" lon="1.01688">
        <ele>129.36947631836</ele>
        <time>2017-04-09T07:23:17.000Z</time>
        <extensions>
          <gpxtpx:TrackPointExtension xmlns:gpxtpx="http://www.garmin.com/xmlschemas/TrackPointExtension/v1">
            <gpxtpx:hr>143</gpxtpx:hr>
          </gpxtpx:TrackPointExtension>
        </extensions>
      </trkpt>
      <trkpt lat="49.3264" lon="1.01677">
        <ele>129.90054321289</ele>
        <time>2017-04-09T07:23:20.000Z</time>
        <extensions>
          <gpxtpx:TrackPointExtension xmlns:gpxtpx="http://www.garmin.com/xmlschemas/TrackPointExtension/v1">
            <gpxtpx:hr>144</gpxtpx:hr>
          </gpxtpx:TrackPointExtension>
        </extensions>
      </trkpt>
      <trkpt lat="49.32644" lon="1.01671">
        <ele>130.36291503906</ele>
        <time>2017-04-09T07:23:22.000Z</time>
        <extensions>
          <gpxtpx:TrackPointExtension xmlns:gpxtpx="http://www.garmin.com/xmlschemas/TrackPointExtension/v1">
            <gpxtpx:hr>143</gpxtpx:hr>
          </gpxtpx:TrackPointExtension>
        </extensions>
      </trkpt>
      <trkpt lat="49.3266" lon="1.01656">
        <ele>130.72563171387</ele>
        <time>2017-04-09T07:23:25.000Z</time>
      </trkpt>
      <trkpt lat="49.32669" lon="1.01651">
        <ele>130.990234375</ele>
        <time>2017-04-09T07:23:27.000Z</time>
      </trkpt>
      <trkpt lat="49.32682" lon="1.01641">
        <ele>131.18070983887</ele>
        <time>2017-04-09T07:23:30.000Z</time>
      </trkpt>
      <trkpt lat="49.32692" lon="1.01635">
        <ele>131.2613067627</ele>
        <time>2017-04-09T07:23:33.000Z</time>
      </trkpt>
      <trkpt lat="49.32699" lon="1.0163">
        <ele>131.29382324219</ele>
        <time>2017-04-09T07:23:35.000Z</time>
      </trkpt>
      <trkpt lat="49.3271" lon="1.01624">
        <ele>131.28720092773</ele>
        <time>2017-04-09T07:23:38.000Z</time>
      </trkpt>
      <trkpt lat="49.32716" lon="1.01617">
        <ele>131.29144287109</ele>
        <time>2017-04-09T07:23:40.000Z</time>
      </trkpt>
      <trkpt lat="49.32728" lon="1.01609">
        <ele>131.31735229492</ele>
        <time>2017-04-09T07:23:43.000Z</time>
      </trkpt>
      <trkpt lat="49.32735" lon="1.01603">
        <ele>131.36250305176</ele>
        <time>2017-04-09T07:23:45.000Z</time>
      </trkpt>
      <trkpt lat="49.32743" lon="1.01597">
        <ele>131.42932128906</ele>
        <time>2017-04-09T07:23:47.000Z</time>
      </trkpt>
      <trkpt lat="49.32755" lon="1.01587">
        <ele>131.5845489502</ele>
        <time>2017-04-09T07:23:50.000Z</time>
      </trkpt>
      <trkpt lat="49.32763" lon="1.01581">
        <ele>131.81509399414</ele>
        <time>2017-04-09T07:23:52.000Z</time>
      </trkpt>
      <trkpt lat="49.3277" lon="1.01574">
        <ele>132.09660339355</ele>
        <time>2017-04-09T07:23:54.000Z</time>
      </trkpt>
      <trkpt lat="49.32783" lon="1.01566">
        <ele>132.45092773438</ele>
        <time>2017-04-09T07:23:57.000Z</time>
      </trkpt>
      <trkpt lat="49.32795" lon="1.01559">
        <ele>132.84782409668</ele>
        <time>2017-04-09T07:24:00.000Z</time>
        <extensions>
          <gpxtpx:TrackPointExtension xmlns:gpxtpx="http://www.garmin.com/xmlschemas/TrackPointExtension/v1">
            <gpxtpx:hr>143</gpxtpx:hr>
          </gpxtpx:TrackPointExtension>
        </extensions>
      </trkpt>
      <trkpt lat="49.32808" lon="1.0155">
        <ele>133.19390869141</ele>
        <time>2017-04-09T07:24:03.000Z</time>
        <extensions>
          <gpxtpx:TrackPointExtension xmlns:gpxtpx="http://www.garmin.com/xmlschemas/TrackPointExtension/v1">
            <gpxtpx:hr>143</gpxtpx:hr>
          </gpxtpx:TrackPointExtension>
        </extensions>
      </trkpt>
      <trkpt lat="49.32822" lon="1.0154">
        <ele>133.45965576172</ele>
        <time>2017-04-09T07:24:06.000Z</time>
        <extensions>
          <gpxtpx:TrackPointExtension xmlns:gpxtpx="http://www.garmin.com/xmlschemas/TrackPointExtension/v1">
            <gpxtpx:hr>141</gpxtpx:hr>
          </gpxtpx:TrackPointExtension>
        </extensions>
      </trkpt>
      <trkpt lat="49.3283" lon="1.01535">
        <ele>133.65455627441</ele>
        <time>2017-04-09T07:24:08.000Z</time>
        <extensions>
          <gpxtpx:TrackPointExtension xmlns:gpxtpx="http://www.garmin.com/xmlschemas/TrackPointExtension/v1">
            <gpxtpx:hr>141</gpxtpx:hr>
          </gpxtpx:TrackPointExtension>
        </extensions>
      </trkpt>
      <trkpt lat="49.3284" lon="1.01533">
        <ele>133.84268188477</ele>
        <time>2017-04-09T07:24:11.000Z</time>
        <extensions>
          <gpxtpx:TrackPointExtension xmlns:gpxtpx="http://www.garmin.com/xmlschemas/TrackPointExtension/v1">
            <gpxtpx:hr>141</gpxtpx:hr>
          </gpxtpx:TrackPointExtension>
        </extensions>
      </trkpt>
      <trkpt lat="49.32843" lon="1.01541">
        <ele>134.03271484375</ele>
        <time>2017-04-09T07:24:13.000Z</time>
        <extensions>
          <gpxtpx:TrackPointExtension xmlns:gpxtpx="http://www.garmin.com/xmlschemas/TrackPointExtension/v1">
            <gpxtpx:hr>142</gpxtpx:hr>
          </gpxtpx:TrackPointExtension>
        </extensions>
      </trkpt>
      <trkpt lat="49.32845" lon="1.01549">
        <ele>134.26071166992</ele>
        <time>2017-04-09T07:24:15.000Z</time>
        <extensions>
          <gpxtpx:TrackPointExtension xmlns:gpxtpx="http://www.garmin.com/xmlschemas/TrackPointExtension/v1">
            <gpxtpx:hr>144</gpxtpx:hr>
          </gpxtpx:TrackPointExtension>
        </extensions>
      </trkpt>
      <trkpt lat="49.32847" lon="1.0156">
        <ele>134.54061889648</ele>
        <time>2017-04-09T07:24:18.000Z</time>
        <extensions>
          <gpxtpx:TrackPointExtension xmlns:gpxtpx="http://www.garmin.com/xmlschemas/TrackPointExtension/v1">
            <gpxtpx:hr>142</gpxtpx:hr>
          </gpxtpx:TrackPointExtension>
        </extensions>
      </trkpt>
      <trkpt lat="49.32851" lon="1.01569">
        <ele>134.92623901367</ele>
        <time>2017-04-09T07:24:20.000Z</time>
      </trkpt>
      <trkpt lat="49.32859" lon="1.01583">
        <ele>135.38842773438</ele>
        <time>2017-04-09T07:24:23.000Z</time>
      </trkpt>
      <trkpt lat="49.32864" lon="1.01594">
        <ele>135.76025390625</ele>
        <time>2017-04-09T07:24:25.000Z</time>
      </trkpt>
      <trkpt lat="49.32868" lon="1.0161">
        <ele>135.94940185547</ele>
        <time>2017-04-09T07:24:28.000Z</time>
      </trkpt>
      <trkpt lat="49.32871" lon="1.0162">
        <ele>136.00866699219</ele>
        <time>2017-04-09T07:24:30.000Z</time>
      </trkpt>
      <trkpt lat="49.32877" lon="1.01634">
        <ele>135.8918762207</ele>
        <time>2017-04-09T07:24:33.000Z</time>
      </trkpt>
      <trkpt lat="49.32881" lon="1.0165">
        <ele>135.4935760498</ele>
        <time>2017-04-09T07:24:36.000Z</time>
      </trkpt>
      <trkpt lat="49.32888" lon="1.01667">
        <ele>135.00985717773</ele>
        <time>2017-04-09T07:24:39.000Z</time>
      </trkpt>
      <trkpt lat="49.32893" lon="1.01677">
        <ele>134.62391662598</ele>
        <time>2017-04-09T07:24:41.000Z</time>
      </trkpt>
      <trkpt lat="49.32899" lon="1.0168">
        <ele>134.33633422852</ele>
        <time>2017-04-09T07:24:44.000Z</time>
      </trkpt>
      <trkpt lat="49.32907" lon="1.01666">
        <ele>134.2403717041</ele>
        <time>2017-04-09T07:24:47.000Z</time>
      </trkpt>
      <trkpt lat="49.32915" lon="1.01655">
        <ele>134.45916748047</ele>
        <time>2017-04-09T07:24:49.000Z</time>
      </trkpt>
      <trkpt lat="49.32925" lon="1.01639">
        <ele>134.91383361816</ele>
        <time>2017-04-09T07:24:52.000Z</time>
      </trkpt>
      <trkpt lat="49.32931" lon="1.0163">
        <ele>135.42622375488</ele>
        <time>2017-04-09T07:24:54.000Z</time>
      </trkpt>
      <trkpt lat="49.32938" lon="1.01613">
        <ele>135.99856567383</ele>
        <time>2017-04-09T07:24:57.000Z</time>
      </trkpt>
      <trkpt lat="49.32943" lon="1.01605">
        <ele>136.46708679199</ele>
        <time>2017-04-09T07:24:59.000Z</time>
      </trkpt>
      <trkpt lat="49.32949" lon="1.01589">
        <ele>136.8279876709</ele>
        <time>2017-04-09T07:25:02.000Z</time>
        <extensions>
          <gpxtpx:TrackPointExtension xmlns:gpxtpx="http://www.garmin.com/xmlschemas/TrackPointExtension/v1">
            <gpxtpx:hr>139</gpxtpx:hr>
          </gpxtpx:TrackPointExtension>
        </extensions>
      </trkpt>
      <trkpt lat="49.32955" lon="1.01578">
        <ele>137.00932312012</ele>
        <time>2017-04-09T07:25:07.000Z</time>
        <extensions>
          <gpxtpx:TrackPointExtension xmlns:gpxtpx="http://www.garmin.com/xmlschemas/TrackPointExtension/v1">
            <gpxtpx:hr>141</gpxtpx:hr>
          </gpxtpx:TrackPointExtension>
        </extensions>
      </trkpt>
      <trkpt lat="49.32964" lon="1.01558">
        <ele>136.94519042969</ele>
        <time>2017-04-09T07:25:08.000Z</time>
        <extensions>
          <gpxtpx:TrackPointExtension xmlns:gpxtpx="http://www.garmin.com/xmlschemas/TrackPointExtension/v1">
            <gpxtpx:hr>136</gpxtpx:hr>
          </gpxtpx:TrackPointExtension>
        </extensions>
      </trkpt>
      <trkpt lat="49.32967" lon="1.01547">
        <ele>136.70492553711</ele>
        <time>2017-04-09T07:25:09.000Z</time>
        <extensions>
          <gpxtpx:TrackPointExtension xmlns:gpxtpx="http://www.garmin.com/xmlschemas/TrackPointExtension/v1">
            <gpxtpx:hr>135</gpxtpx:hr>
          </gpxtpx:TrackPointExtension>
        </extensions>
      </trkpt>
      <trkpt lat="49.32975" lon="1.01529">
        <ele>136.29948425293</ele>
        <time>2017-04-09T07:25:12.000Z</time>
        <extensions>
          <gpxtpx:TrackPointExtension xmlns:gpxtpx="http://www.garmin.com/xmlschemas/TrackPointExtension/v1">
            <gpxtpx:hr>134</gpxtpx:hr>
          </gpxtpx:TrackPointExtension>
        </extensions>
      </trkpt>
      <trkpt lat="49.32981" lon="1.01516">
        <ele>135.69076538086</ele>
        <time>2017-04-09T07:25:14.000Z</time>
        <extensions>
          <gpxtpx:TrackPointExtension xmlns:gpxtpx="http://www.garmin.com/xmlschemas/TrackPointExtension/v1">
            <gpxtpx:hr>130</gpxtpx:hr>
          </gpxtpx:TrackPointExtension>
        </extensions>
      </trkpt>
      <trkpt lat="49.32989" lon="1.01501">
        <ele>134.99394226074</ele>
        <time>2017-04-09T07:25:16.000Z</time>
        <extensions>
          <gpxtpx:TrackPointExtension xmlns:gpxtpx="http://www.garmin.com/xmlschemas/TrackPointExtension/v1">
            <gpxtpx:hr>130</gpxtpx:hr>
          </gpxtpx:TrackPointExtension>
        </extensions>
      </trkpt>
      <trkpt lat="49.32997" lon="1.01482">
        <ele>134.30810546875</ele>
        <time>2017-04-09T07:25:19.000Z</time>
        <extensions>
          <gpxtpx:TrackPointExtension xmlns:gpxtpx="http://www.garmin.com/xmlschemas/TrackPointExtension/v1">
            <gpxtpx:hr>129</gpxtpx:hr>
          </gpxtpx:TrackPointExtension>
        </extensions>
      </trkpt>
      <trkpt lat="49.33006" lon="1.01461">
        <ele>133.51147460938</ele>
        <time>2017-04-09T07:25:22.000Z</time>
      </trkpt>
      <trkpt lat="49.3301" lon="1.01447">
        <ele>132.76644897461</ele>
        <time>2017-04-09T07:25:24.000Z</time>
      </trkpt>
      <trkpt lat="49.3302" lon="1.0143">
        <ele>131.99084472656</ele>
        <time>2017-04-09T07:25:27.000Z</time>
      </trkpt>
      <trkpt lat="49.33026" lon="1.01419">
        <ele>131.27546691895</ele>
        <time>2017-04-09T07:25:29.000Z</time>
      </trkpt>
      <trkpt lat="49.33036" lon="1.01405">
        <ele>130.68977355957</ele>
        <time>2017-04-09T07:25:32.000Z</time>
      </trkpt>
      <trkpt lat="49.33049" lon="1.01393">
        <ele>130.2585144043</ele>
        <time>2017-04-09T07:25:35.000Z</time>
      </trkpt>
      <trkpt lat="49.33056" lon="1.01385">
        <ele>129.92855834961</ele>
        <time>2017-04-09T07:25:37.000Z</time>
      </trkpt>
      <trkpt lat="49.33067" lon="1.01375">
        <ele>129.76428222656</ele>
        <time>2017-04-09T07:25:40.000Z</time>
      </trkpt>
      <trkpt lat="49.33078" lon="1.01366">
        <ele>129.71884155273</ele>
        <time>2017-04-09T07:25:43.000Z</time>
      </trkpt>
      <trkpt lat="49.33088" lon="1.01361">
        <ele>129.75288391113</ele>
        <time>2017-04-09T07:25:45.000Z</time>
      </trkpt>
      <trkpt lat="49.33096" lon="1.01355">
        <ele>129.85083007812</ele>
        <time>2017-04-09T07:25:47.000Z</time>
      </trkpt>
      <trkpt lat="49.33109" lon="1.01349">
        <ele>129.96691894531</ele>
        <time>2017-04-09T07:25:50.000Z</time>
      </trkpt>
      <trkpt lat="49.33115" lon="1.01345">
        <ele>130.0824432373</ele>
        <time>2017-04-09T07:25:52.000Z</time>
      </trkpt>
      <trkpt lat="49.33129" lon="1.01334">
        <ele>130.19374084473</ele>
        <time>2017-04-09T07:25:55.000Z</time>
      </trkpt>
      <trkpt lat="49.33138" lon="1.01322">
        <ele>130.26644897461</ele>
        <time>2017-04-09T07:25:57.000Z</time>
      </trkpt>
      <trkpt lat="49.33149" lon="1.01312">
        <ele>130.28762817383</ele>
        <time>2017-04-09T07:25:59.000Z</time>
      </trkpt>
      <trkpt lat="49.33163" lon="1.01293">
        <ele>130.25674438477</ele>
        <time>2017-04-09T07:26:02.000Z</time>
        <extensions>
          <gpxtpx:TrackPointExtension xmlns:gpxtpx="http://www.garmin.com/xmlschemas/TrackPointExtension/v1">
            <gpxtpx:hr>130</gpxtpx:hr>
          </gpxtpx:TrackPointExtension>
        </extensions>
      </trkpt>
      <trkpt lat="49.3317" lon="1.0128">
        <ele>130.22917175293</ele>
        <time>2017-04-09T07:26:04.000Z</time>
        <extensions>
          <gpxtpx:TrackPointExtension xmlns:gpxtpx="http://www.garmin.com/xmlschemas/TrackPointExtension/v1">
            <gpxtpx:hr>128</gpxtpx:hr>
          </gpxtpx:TrackPointExtension>
        </extensions>
      </trkpt>
      <trkpt lat="49.33178" lon="1.01268">
        <ele>130.2386932373</ele>
        <time>2017-04-09T07:26:06.000Z</time>
        <extensions>
          <gpxtpx:TrackPointExtension xmlns:gpxtpx="http://www.garmin.com/xmlschemas/TrackPointExtension/v1">
            <gpxtpx:hr>126</gpxtpx:hr>
          </gpxtpx:TrackPointExtension>
        </extensions>
      </trkpt>
      <trkpt lat="49.33183" lon="1.01254">
        <ele>130.32276916504</ele>
        <time>2017-04-09T07:26:08.000Z</time>
        <extensions>
          <gpxtpx:TrackPointExtension xmlns:gpxtpx="http://www.garmin.com/xmlschemas/TrackPointExtension/v1">
            <gpxtpx:hr>128</gpxtpx:hr>
          </gpxtpx:TrackPointExtension>
        </extensions>
      </trkpt>
      <trkpt lat="49.33189" lon="1.0124">
        <ele>130.48213195801</ele>
        <time>2017-04-09T07:26:10.000Z</time>
        <extensions>
          <gpxtpx:TrackPointExtension xmlns:gpxtpx="http://www.garmin.com/xmlschemas/TrackPointExtension/v1">
            <gpxtpx:hr>132</gpxtpx:hr>
          </gpxtpx:TrackPointExtension>
        </extensions>
      </trkpt>
      <trkpt lat="49.33191" lon="1.01214">
        <ele>130.67001342773</ele>
        <time>2017-04-09T07:26:13.000Z</time>
        <extensions>
          <gpxtpx:TrackPointExtension xmlns:gpxtpx="http://www.garmin.com/xmlschemas/TrackPointExtension/v1">
            <gpxtpx:hr>132</gpxtpx:hr>
          </gpxtpx:TrackPointExtension>
        </extensions>
      </trkpt>
      <trkpt lat="49.33194" lon="1.01198">
        <ele>130.86729431152</ele>
        <time>2017-04-09T07:26:15.000Z</time>
        <extensions>
          <gpxtpx:TrackPointExtension xmlns:gpxtpx="http://www.garmin.com/xmlschemas/TrackPointExtension/v1">
            <gpxtpx:hr>131</gpxtpx:hr>
          </gpxtpx:TrackPointExtension>
        </extensions>
      </trkpt>
      <trkpt lat="49.33199" lon="1.01174">
        <ele>131.03793334961</ele>
        <time>2017-04-09T07:26:18.000Z</time>
        <extensions>
          <gpxtpx:TrackPointExtension xmlns:gpxtpx="http://www.garmin.com/xmlschemas/TrackPointExtension/v1">
            <gpxtpx:hr>130</gpxtpx:hr>
          </gpxtpx:TrackPointExtension>
        </extensions>
      </trkpt>
      <trkpt lat="49.33202" lon="1.01156">
        <ele>131.17042541504</ele>
        <time>2017-04-09T07:26:20.000Z</time>
        <extensions>
          <gpxtpx:TrackPointExtension xmlns:gpxtpx="http://www.garmin.com/xmlschemas/TrackPointExtension/v1">
            <gpxtpx:hr>127</gpxtpx:hr>
          </gpxtpx:TrackPointExtension>
        </extensions>
      </trkpt>
      <trkpt lat="49.3321" lon="1.01134">
        <ele>131.30752563477</ele>
        <time>2017-04-09T07:26:23.000Z</time>
      </trkpt>
      <trkpt lat="49.33208" lon="1.01122">
        <ele>131.4040222168</ele>
        <time>2017-04-09T07:26:25.000Z</time>
      </trkpt>
      <trkpt lat="49.33204" lon="1.01112">
        <ele>131.40090942383</ele>
        <time>2017-04-09T07:26:27.000Z</time>
      </trkpt>
      <trkpt lat="49.33199" lon="1.01091">
        <ele>131.25675964355</ele>
        <time>2017-04-09T07:26:30.000Z</time>
      </trkpt>
      <trkpt lat="49.33193" lon="1.01073">
        <ele>131.02769470215</ele>
        <time>2017-04-09T07:26:32.000Z</time>
      </trkpt>
      <trkpt lat="49.33181" lon="1.01048">
        <ele>130.62791442871</ele>
        <time>2017-04-09T07:26:35.000Z</time>
      </trkpt>
      <trkpt lat="49.33164" lon="1.01034">
        <ele>130.12063598633</ele>
        <time>2017-04-09T07:26:38.000Z</time>
      </trkpt>
      <trkpt lat="49.33156" lon="1.01026">
        <ele>129.64266967773</ele>
        <time>2017-04-09T07:26:40.000Z</time>
      </trkpt>
      <trkpt lat="49.33146" lon="1.01017">
        <ele>129.19007873535</ele>
        <time>2017-04-09T07:26:42.000Z</time>
      </trkpt>
      <trkpt lat="49.33136" lon="1.01007">
        <ele>128.7257232666</ele>
        <time>2017-04-09T07:26:44.000Z</time>
      </trkpt>
      <trkpt lat="49.33118" lon="1.00988">
        <ele>128.20608520508</ele>
        <time>2017-04-09T07:26:47.000Z</time>
      </trkpt>
      <trkpt lat="49.33095" lon="1.00971">
        <ele>127.63222503662</ele>
        <time>2017-04-09T07:26:50.000Z</time>
      </trkpt>
      <trkpt lat="49.33078" lon="1.0096">
        <ele>127.0668182373</ele>
        <time>2017-04-09T07:26:53.000Z</time>
      </trkpt>
      <trkpt lat="49.3307" lon="1.00956">
        <ele>126.67311859131</ele>
        <time>2017-04-09T07:26:55.000Z</time>
      </trkpt>
      <trkpt lat="49.3307" lon="1.00946">
        <ele>126.34400939941</ele>
        <time>2017-04-09T07:26:57.000Z</time>
      </trkpt>
      <trkpt lat="49.33066" lon="1.00932">
        <ele>126.25593566895</ele>
        <time>2017-04-09T07:27:00.000Z</time>
        <extensions>
          <gpxtpx:TrackPointExtension xmlns:gpxtpx="http://www.garmin.com/xmlschemas/TrackPointExtension/v1">
            <gpxtpx:hr>130</gpxtpx:hr>
          </gpxtpx:TrackPointExtension>
        </extensions>
      </trkpt>
      <trkpt lat="49.33062" lon="1.00924">
        <ele>126.44201660156</ele>
        <time>2017-04-09T07:27:02.000Z</time>
        <extensions>
          <gpxtpx:TrackPointExtension xmlns:gpxtpx="http://www.garmin.com/xmlschemas/TrackPointExtension/v1">
            <gpxtpx:hr>133</gpxtpx:hr>
          </gpxtpx:TrackPointExtension>
        </extensions>
      </trkpt>
      <trkpt lat="49.33058" lon="1.0091">
        <ele>126.71771240234</ele>
        <time>2017-04-09T07:27:05.000Z</time>
        <extensions>
          <gpxtpx:TrackPointExtension xmlns:gpxtpx="http://www.garmin.com/xmlschemas/TrackPointExtension/v1">
            <gpxtpx:hr>133</gpxtpx:hr>
          </gpxtpx:TrackPointExtension>
        </extensions>
      </trkpt>
      <trkpt lat="49.33052" lon="1.00895">
        <ele>126.95635986328</ele>
        <time>2017-04-09T07:27:08.000Z</time>
        <extensions>
          <gpxtpx:TrackPointExtension xmlns:gpxtpx="http://www.garmin.com/xmlschemas/TrackPointExtension/v1">
            <gpxtpx:hr>135</gpxtpx:hr>
          </gpxtpx:TrackPointExtension>
        </extensions>
      </trkpt>
      <trkpt lat="49.33051" lon="1.00884">
        <ele>127.21150970459</ele>
        <time>2017-04-09T07:27:11.000Z</time>
        <extensions>
          <gpxtpx:TrackPointExtension xmlns:gpxtpx="http://www.garmin.com/xmlschemas/TrackPointExtension/v1">
            <gpxtpx:hr>136</gpxtpx:hr>
          </gpxtpx:TrackPointExtension>
        </extensions>
      </trkpt>
      <trkpt lat="49.33052" lon="1.00874">
        <ele>127.32523345947</ele>
        <time>2017-04-09T07:27:13.000Z</time>
        <extensions>
          <gpxtpx:TrackPointExtension xmlns:gpxtpx="http://www.garmin.com/xmlschemas/TrackPointExtension/v1">
            <gpxtpx:hr>140</gpxtpx:hr>
          </gpxtpx:TrackPointExtension>
        </extensions>
      </trkpt>
      <trkpt lat="49.33051" lon="1.00858">
        <ele>127.33347320557</ele>
        <time>2017-04-09T07:27:16.000Z</time>
        <extensions>
          <gpxtpx:TrackPointExtension xmlns:gpxtpx="http://www.garmin.com/xmlschemas/TrackPointExtension/v1">
            <gpxtpx:hr>143</gpxtpx:hr>
          </gpxtpx:TrackPointExtension>
        </extensions>
      </trkpt>
      <trkpt lat="49.33046" lon="1.00841">
        <ele>127.37713623047</ele>
        <time>2017-04-09T07:27:19.000Z</time>
        <extensions>
          <gpxtpx:TrackPointExtension xmlns:gpxtpx="http://www.garmin.com/xmlschemas/TrackPointExtension/v1">
            <gpxtpx:hr>144</gpxtpx:hr>
          </gpxtpx:TrackPointExtension>
        </extensions>
      </trkpt>
      <trkpt lat="49.3304" lon="1.00824">
        <ele>127.36415863037</ele>
        <time>2017-04-09T07:27:22.000Z</time>
        <extensions>
          <gpxtpx:TrackPointExtension xmlns:gpxtpx="http://www.garmin.com/xmlschemas/TrackPointExtension/v1">
            <gpxtpx:hr>145</gpxtpx:hr>
          </gpxtpx:TrackPointExtension>
        </extensions>
      </trkpt>
      <trkpt lat="49.33032" lon="1.00804">
        <ele>127.21812438965</ele>
        <time>2017-04-09T07:27:25.000Z</time>
      </trkpt>
      <trkpt lat="49.3302" lon="1.00789">
        <ele>127.16872406006</ele>
        <time>2017-04-09T07:27:28.000Z</time>
      </trkpt>
      <trkpt lat="49.33014" lon="1.00781">
        <ele>127.12985992432</ele>
        <time>2017-04-09T07:27:30.000Z</time>
      </trkpt>
      <trkpt lat="49.33002" lon="1.00766">
        <ele>126.95079040527</ele>
        <time>2017-04-09T07:27:33.000Z</time>
      </trkpt>
      <trkpt lat="49.32986" lon="1.00755">
        <ele>126.8879776001</ele>
        <time>2017-04-09T07:27:36.000Z</time>
      </trkpt>
      <trkpt lat="49.32972" lon="1.00751">
        <ele>127.26766204834</ele>
        <time>2017-04-09T07:27:39.000Z</time>
      </trkpt>
      <trkpt lat="49.32966" lon="1.00746">
        <ele>127.68444824219</ele>
        <time>2017-04-09T07:27:41.000Z</time>
      </trkpt>
      <trkpt lat="49.32959" lon="1.00735">
        <ele>128.10269165039</ele>
        <time>2017-04-09T07:27:44.000Z</time>
      </trkpt>
      <trkpt lat="49.32952" lon="1.00725">
        <ele>128.57675170898</ele>
        <time>2017-04-09T07:27:47.000Z</time>
      </trkpt>
      <trkpt lat="49.32943" lon="1.00707">
        <ele>128.87283325195</ele>
        <time>2017-04-09T07:27:50.000Z</time>
      </trkpt>
      <trkpt lat="49.32941" lon="1.00693">
        <ele>128.64996337891</ele>
        <time>2017-04-09T07:27:52.000Z</time>
      </trkpt>
      <trkpt lat="49.32935" lon="1.00677">
        <ele>128.25662231445</ele>
        <time>2017-04-09T07:27:55.000Z</time>
      </trkpt>
      <trkpt lat="49.32921" lon="1.00671">
        <ele>128.21951293945</ele>
        <time>2017-04-09T07:27:58.000Z</time>
      </trkpt>
      <trkpt lat="49.32907" lon="1.00662">
        <ele>128.21176147461</ele>
        <time>2017-04-09T07:28:01.000Z</time>
        <extensions>
          <gpxtpx:TrackPointExtension xmlns:gpxtpx="http://www.garmin.com/xmlschemas/TrackPointExtension/v1">
            <gpxtpx:hr>146</gpxtpx:hr>
          </gpxtpx:TrackPointExtension>
        </extensions>
      </trkpt>
      <trkpt lat="49.32902" lon="1.00633">
        <ele>127.81114196777</ele>
        <time>2017-04-09T07:28:04.000Z</time>
        <extensions>
          <gpxtpx:TrackPointExtension xmlns:gpxtpx="http://www.garmin.com/xmlschemas/TrackPointExtension/v1">
            <gpxtpx:hr>146</gpxtpx:hr>
          </gpxtpx:TrackPointExtension>
        </extensions>
      </trkpt>
      <trkpt lat="49.32897" lon="1.00618">
        <ele>127.41609191895</ele>
        <time>2017-04-09T07:28:06.000Z</time>
        <extensions>
          <gpxtpx:TrackPointExtension xmlns:gpxtpx="http://www.garmin.com/xmlschemas/TrackPointExtension/v1">
            <gpxtpx:hr>144</gpxtpx:hr>
          </gpxtpx:TrackPointExtension>
        </extensions>
      </trkpt>
      <trkpt lat="49.32889" lon="1.00601">
        <ele>126.88764953613</ele>
        <time>2017-04-09T07:28:09.000Z</time>
        <extensions>
          <gpxtpx:TrackPointExtension xmlns:gpxtpx="http://www.garmin.com/xmlschemas/TrackPointExtension/v1">
            <gpxtpx:hr>142</gpxtpx:hr>
          </gpxtpx:TrackPointExtension>
        </extensions>
      </trkpt>
      <trkpt lat="49.32884" lon="1.00586">
        <ele>125.82707214355</ele>
        <time>2017-04-09T07:28:11.000Z</time>
        <extensions>
          <gpxtpx:TrackPointExtension xmlns:gpxtpx="http://www.garmin.com/xmlschemas/TrackPointExtension/v1">
            <gpxtpx:hr>143</gpxtpx:hr>
          </gpxtpx:TrackPointExtension>
        </extensions>
      </trkpt>
      <trkpt lat="49.3288" lon="1.00563">
        <ele>123.98539733887</ele>
        <time>2017-04-09T07:28:14.000Z</time>
        <extensions>
          <gpxtpx:TrackPointExtension xmlns:gpxtpx="http://www.garmin.com/xmlschemas/TrackPointExtension/v1">
            <gpxtpx:hr>142</gpxtpx:hr>
          </gpxtpx:TrackPointExtension>
        </extensions>
      </trkpt>
      <trkpt lat="49.32885" lon="1.00548">
        <ele>121.98408508301</ele>
        <time>2017-04-09T07:28:16.000Z</time>
        <extensions>
          <gpxtpx:TrackPointExtension xmlns:gpxtpx="http://www.garmin.com/xmlschemas/TrackPointExtension/v1">
            <gpxtpx:hr>139</gpxtpx:hr>
          </gpxtpx:TrackPointExtension>
        </extensions>
      </trkpt>
      <trkpt lat="49.32892" lon="1.00534">
        <ele>119.61492919922</ele>
        <time>2017-04-09T07:28:18.000Z</time>
        <extensions>
          <gpxtpx:TrackPointExtension xmlns:gpxtpx="http://www.garmin.com/xmlschemas/TrackPointExtension/v1">
            <gpxtpx:hr>140</gpxtpx:hr>
          </gpxtpx:TrackPointExtension>
        </extensions>
      </trkpt>
      <trkpt lat="49.3289" lon="1.00516">
        <ele>116.8217010498</ele>
        <time>2017-04-09T07:28:21.000Z</time>
        <extensions>
          <gpxtpx:TrackPointExtension xmlns:gpxtpx="http://www.garmin.com/xmlschemas/TrackPointExtension/v1">
            <gpxtpx:hr>140</gpxtpx:hr>
          </gpxtpx:TrackPointExtension>
        </extensions>
      </trkpt>
      <trkpt lat="49.32888" lon="1.00507">
        <ele>113.91645812988</ele>
        <time>2017-04-09T07:28:23.000Z</time>
        <extensions>
          <gpxtpx:TrackPointExtension xmlns:gpxtpx="http://www.garmin.com/xmlschemas/TrackPointExtension/v1">
            <gpxtpx:hr>139</gpxtpx:hr>
          </gpxtpx:TrackPointExtension>
        </extensions>
      </trkpt>
      <trkpt lat="49.32885" lon="1.00495">
        <ele>111.42417144775</ele>
        <time>2017-04-09T07:28:26.000Z</time>
      </trkpt>
      <trkpt lat="49.32878" lon="1.00487">
        <ele>109.4086151123</ele>
        <time>2017-04-09T07:28:28.000Z</time>
      </trkpt>
      <trkpt lat="49.32868" lon="1.00466">
        <ele>107.54679870605</ele>
        <time>2017-04-09T07:28:31.000Z</time>
      </trkpt>
      <trkpt lat="49.32867" lon="1.00452">
        <ele>106.0108795166</ele>
        <time>2017-04-09T07:28:33.000Z</time>
      </trkpt>
      <trkpt lat="49.32863" lon="1.00432">
        <ele>104.3607635498</ele>
        <time>2017-04-09T07:28:36.000Z</time>
      </trkpt>
      <trkpt lat="49.32857" lon="1.00421">
        <ele>102.90688323975</ele>
        <time>2017-04-09T07:28:39.000Z</time>
      </trkpt>
      <trkpt lat="49.32847" lon="1.00415">
        <ele>101.63578796387</ele>
        <time>2017-04-09T07:28:42.000Z</time>
      </trkpt>
      <trkpt lat="49.32842" lon="1.00411">
        <ele>100.76111602783</ele>
        <time>2017-04-09T07:28:44.000Z</time>
      </trkpt>
      <trkpt lat="49.32835" lon="1.0041">
        <ele>100.33776855469</ele>
        <time>2017-04-09T07:28:47.000Z</time>
      </trkpt>
      <trkpt lat="49.32821" lon="1.00397">
        <ele>99.933494567871</ele>
        <time>2017-04-09T07:28:50.000Z</time>
      </trkpt>
      <trkpt lat="49.3281" lon="1.00386">
        <ele>99.32413482666</ele>
        <time>2017-04-09T07:28:53.000Z</time>
      </trkpt>
      <trkpt lat="49.32802" lon="1.00386">
        <ele>98.637344360352</ele>
        <time>2017-04-09T07:28:55.000Z</time>
      </trkpt>
      <trkpt lat="49.32789" lon="1.00385">
        <ele>97.93098449707</ele>
        <time>2017-04-09T07:28:58.000Z</time>
      </trkpt>
      <trkpt lat="49.32777" lon="1.00383">
        <ele>97.076202392578</ele>
        <time>2017-04-09T07:29:01.000Z</time>
      </trkpt>
      <trkpt lat="49.32765" lon="1.00384">
        <ele>96.651306152344</ele>
        <time>2017-04-09T07:29:04.000Z</time>
        <extensions>
          <gpxtpx:TrackPointExtension xmlns:gpxtpx="http://www.garmin.com/xmlschemas/TrackPointExtension/v1">
            <gpxtpx:hr>139</gpxtpx:hr>
          </gpxtpx:TrackPointExtension>
        </extensions>
      </trkpt>
      <trkpt lat="49.32757" lon="1.00386">
        <ele>96.6201171875</ele>
        <time>2017-04-09T07:29:06.000Z</time>
        <extensions>
          <gpxtpx:TrackPointExtension xmlns:gpxtpx="http://www.garmin.com/xmlschemas/TrackPointExtension/v1">
            <gpxtpx:hr>140</gpxtpx:hr>
          </gpxtpx:TrackPointExtension>
        </extensions>
      </trkpt>
      <trkpt lat="49.3275" lon="1.00388">
        <ele>96.690231323242</ele>
        <time>2017-04-09T07:29:08.000Z</time>
        <extensions>
          <gpxtpx:TrackPointExtension xmlns:gpxtpx="http://www.garmin.com/xmlschemas/TrackPointExtension/v1">
            <gpxtpx:hr>144</gpxtpx:hr>
          </gpxtpx:TrackPointExtension>
        </extensions>
      </trkpt>
      <trkpt lat="49.32742" lon="1.00389">
        <ele>96.788505554199</ele>
        <time>2017-04-09T07:29:10.000Z</time>
        <extensions>
          <gpxtpx:TrackPointExtension xmlns:gpxtpx="http://www.garmin.com/xmlschemas/TrackPointExtension/v1">
            <gpxtpx:hr>148</gpxtpx:hr>
          </gpxtpx:TrackPointExtension>
        </extensions>
      </trkpt>
      <trkpt lat="49.3273" lon="1.00387">
        <ele>96.804161071777</ele>
        <time>2017-04-09T07:29:13.000Z</time>
        <extensions>
          <gpxtpx:TrackPointExtension xmlns:gpxtpx="http://www.garmin.com/xmlschemas/TrackPointExtension/v1">
            <gpxtpx:hr>153</gpxtpx:hr>
          </gpxtpx:TrackPointExtension>
        </extensions>
      </trkpt>
      <trkpt lat="49.32714" lon="1.00389">
        <ele>96.77018737793</ele>
        <time>2017-04-09T07:29:16.000Z</time>
        <extensions>
          <gpxtpx:TrackPointExtension xmlns:gpxtpx="http://www.garmin.com/xmlschemas/TrackPointExtension/v1">
            <gpxtpx:hr>156</gpxtpx:hr>
          </gpxtpx:TrackPointExtension>
        </extensions>
      </trkpt>
      <trkpt lat="49.32701" lon="1.00394">
        <ele>96.779281616211</ele>
        <time>2017-04-09T07:29:18.000Z</time>
        <extensions>
          <gpxtpx:TrackPointExtension xmlns:gpxtpx="http://www.garmin.com/xmlschemas/TrackPointExtension/v1">
            <gpxtpx:hr>153</gpxtpx:hr>
          </gpxtpx:TrackPointExtension>
        </extensions>
      </trkpt>
      <trkpt lat="49.32688" lon="1.00396">
        <ele>96.672523498535</ele>
        <time>2017-04-09T07:29:21.000Z</time>
      </trkpt>
      <trkpt lat="49.32676" lon="1.00393">
        <ele>96.41764831543</ele>
        <time>2017-04-09T07:29:24.000Z</time>
      </trkpt>
      <trkpt lat="49.32669" lon="1.0039">
        <ele>96.172401428223</ele>
        <time>2017-04-09T07:29:26.000Z</time>
      </trkpt>
      <trkpt lat="49.32659" lon="1.00387">
        <ele>95.702133178711</ele>
        <time>2017-04-09T07:29:29.000Z</time>
      </trkpt>
      <trkpt lat="49.32654" lon="1.00388">
        <ele>95.07495880127</ele>
        <time>2017-04-09T07:29:31.000Z</time>
      </trkpt>
      <trkpt lat="49.3265" lon="1.0039">
        <ele>94.465171813965</ele>
        <time>2017-04-09T07:29:34.000Z</time>
      </trkpt>
      <trkpt lat="49.32647" lon="1.00387">
        <ele>93.896484375</ele>
        <time>2017-04-09T07:29:36.000Z</time>
      </trkpt>
      <trkpt lat="49.32643" lon="1.00385">
        <ele>93.312713623047</ele>
        <time>2017-04-09T07:29:38.000Z</time>
      </trkpt>
      <trkpt lat="49.32638" lon="1.00374">
        <ele>92.610404968262</ele>
        <time>2017-04-09T07:29:41.000Z</time>
      </trkpt>
      <trkpt lat="49.32634" lon="1.00366">
        <ele>91.709701538086</ele>
        <time>2017-04-09T07:29:43.000Z</time>
      </trkpt>
      <trkpt lat="49.32626" lon="1.00357">
        <ele>90.472160339355</ele>
        <time>2017-04-09T07:29:46.000Z</time>
      </trkpt>
      <trkpt lat="49.32616" lon="1.0035">
        <ele>89.059387207031</ele>
        <time>2017-04-09T07:29:48.000Z</time>
      </trkpt>
      <trkpt lat="49.326" lon="1.00347">
        <ele>87.475914001465</ele>
        <time>2017-04-09T07:29:51.000Z</time>
      </trkpt>
      <trkpt lat="49.32592" lon="1.00347">
        <ele>86.166870117188</ele>
        <time>2017-04-09T07:29:53.000Z</time>
      </trkpt>
      <trkpt lat="49.32586" lon="1.00353">
        <ele>85.147506713867</ele>
        <time>2017-04-09T07:29:55.000Z</time>
      </trkpt>
      <trkpt lat="49.32581" lon="1.00367">
        <ele>84.676475524902</ele>
        <time>2017-04-09T07:29:58.000Z</time>
      </trkpt>
      <trkpt lat="49.32574" lon="1.00385">
        <ele>84.704971313477</ele>
        <time>2017-04-09T07:30:01.000Z</time>
        <extensions>
          <gpxtpx:TrackPointExtension xmlns:gpxtpx="http://www.garmin.com/xmlschemas/TrackPointExtension/v1">
            <gpxtpx:hr>151</gpxtpx:hr>
          </gpxtpx:TrackPointExtension>
        </extensions>
      </trkpt>
      <trkpt lat="49.32568" lon="1.00405">
        <ele>85.279525756836</ele>
        <time>2017-04-09T07:30:04.000Z</time>
        <extensions>
          <gpxtpx:TrackPointExtension xmlns:gpxtpx="http://www.garmin.com/xmlschemas/TrackPointExtension/v1">
            <gpxtpx:hr>148</gpxtpx:hr>
          </gpxtpx:TrackPointExtension>
        </extensions>
      </trkpt>
      <trkpt lat="49.32562" lon="1.00422">
        <ele>86.146827697754</ele>
        <time>2017-04-09T07:30:07.000Z</time>
        <extensions>
          <gpxtpx:TrackPointExtension xmlns:gpxtpx="http://www.garmin.com/xmlschemas/TrackPointExtension/v1">
            <gpxtpx:hr>147</gpxtpx:hr>
          </gpxtpx:TrackPointExtension>
        </extensions>
      </trkpt>
      <trkpt lat="49.32559" lon="1.0043">
        <ele>87.085098266602</ele>
        <time>2017-04-09T07:30:09.000Z</time>
        <extensions>
          <gpxtpx:TrackPointExtension xmlns:gpxtpx="http://www.garmin.com/xmlschemas/TrackPointExtension/v1">
            <gpxtpx:hr>145</gpxtpx:hr>
          </gpxtpx:TrackPointExtension>
        </extensions>
      </trkpt>
      <trkpt lat="49.32552" lon="1.00439">
        <ele>87.839210510254</ele>
        <time>2017-04-09T07:30:12.000Z</time>
        <extensions>
          <gpxtpx:TrackPointExtension xmlns:gpxtpx="http://www.garmin.com/xmlschemas/TrackPointExtension/v1">
            <gpxtpx:hr>141</gpxtpx:hr>
          </gpxtpx:TrackPointExtension>
        </extensions>
      </trkpt>
      <trkpt lat="49.32543" lon="1.00456">
        <ele>88.464157104492</ele>
        <time>2017-04-09T07:30:15.000Z</time>
        <extensions>
          <gpxtpx:TrackPointExtension xmlns:gpxtpx="http://www.garmin.com/xmlschemas/TrackPointExtension/v1">
            <gpxtpx:hr>141</gpxtpx:hr>
          </gpxtpx:TrackPointExtension>
        </extensions>
      </trkpt>
      <trkpt lat="49.32537" lon="1.00466">
        <ele>88.867088317871</ele>
        <time>2017-04-09T07:30:17.000Z</time>
        <extensions>
          <gpxtpx:TrackPointExtension xmlns:gpxtpx="http://www.garmin.com/xmlschemas/TrackPointExtension/v1">
            <gpxtpx:hr>151</gpxtpx:hr>
          </gpxtpx:TrackPointExtension>
        </extensions>
      </trkpt>
      <trkpt lat="49.32527" lon="1.00478">
        <ele>88.957786560059</ele>
        <time>2017-04-09T07:30:20.000Z</time>
        <extensions>
          <gpxtpx:TrackPointExtension xmlns:gpxtpx="http://www.garmin.com/xmlschemas/TrackPointExtension/v1">
            <gpxtpx:hr>148</gpxtpx:hr>
          </gpxtpx:TrackPointExtension>
        </extensions>
      </trkpt>
      <trkpt lat="49.32514" lon="1.00488">
        <ele>88.701469421387</ele>
        <time>2017-04-09T07:30:23.000Z</time>
        <extensions>
          <gpxtpx:TrackPointExtension xmlns:gpxtpx="http://www.garmin.com/xmlschemas/TrackPointExtension/v1">
            <gpxtpx:hr>147</gpxtpx:hr>
          </gpxtpx:TrackPointExtension>
        </extensions>
      </trkpt>
      <trkpt lat="49.32505" lon="1.00496">
        <ele>88.261497497559</ele>
        <time>2017-04-09T07:30:26.000Z</time>
        <extensions>
          <gpxtpx:TrackPointExtension xmlns:gpxtpx="http://www.garmin.com/xmlschemas/TrackPointExtension/v1">
            <gpxtpx:hr>145</gpxtpx:hr>
          </gpxtpx:TrackPointExtension>
        </extensions>
      </trkpt>
      <trkpt lat="49.32501" lon="1.00495">
        <ele>87.587417602539</ele>
        <time>2017-04-09T07:30:28.000Z</time>
        <extensions>
          <gpxtpx:TrackPointExtension xmlns:gpxtpx="http://www.garmin.com/xmlschemas/TrackPointExtension/v1">
            <gpxtpx:hr>141</gpxtpx:hr>
          </gpxtpx:TrackPointExtension>
        </extensions>
      </trkpt>
      <trkpt lat="49.32497" lon="1.00489">
        <ele>86.757705688477</ele>
        <time>2017-04-09T07:30:31.000Z</time>
        <extensions>
          <gpxtpx:TrackPointExtension xmlns:gpxtpx="http://www.garmin.com/xmlschemas/TrackPointExtension/v1">
            <gpxtpx:hr>141</gpxtpx:hr>
          </gpxtpx:TrackPointExtension>
        </extensions>
      </trkpt>
      <trkpt lat="49.32467" lon="1.00407">
        <ele>85.03556060791</ele>
        <time>2017-04-09T07:30:38.000Z</time>
        <extensions>
          <gpxtpx:TrackPointExtension xmlns:gpxtpx="http://www.garmin.com/xmlschemas/TrackPointExtension/v1">
            <gpxtpx:hr>142</gpxtpx:hr>
          </gpxtpx:TrackPointExtension>
        </extensions>
      </trkpt>
      <trkpt lat="49.3246" lon="1.00385">
        <ele>83.36393737793</ele>
        <time>2017-04-09T07:30:40.000Z</time>
        <extensions>
          <gpxtpx:TrackPointExtension xmlns:gpxtpx="http://www.garmin.com/xmlschemas/TrackPointExtension/v1">
            <gpxtpx:hr>138</gpxtpx:hr>
          </gpxtpx:TrackPointExtension>
        </extensions>
      </trkpt>
      <trkpt lat="49.3245" lon="1.00359">
        <ele>81.715896606445</ele>
        <time>2017-04-09T07:30:43.000Z</time>
        <extensions>
          <gpxtpx:TrackPointExtension xmlns:gpxtpx="http://www.garmin.com/xmlschemas/TrackPointExtension/v1">
            <gpxtpx:hr>139</gpxtpx:hr>
          </gpxtpx:TrackPointExtension>
        </extensions>
      </trkpt>
      <trkpt lat="49.32442" lon="1.00343">
        <ele>80.164321899414</ele>
        <time>2017-04-09T07:30:46.000Z</time>
      </trkpt>
      <trkpt lat="49.32439" lon="1.00336">
        <ele>78.735130310059</ele>
        <time>2017-04-09T07:30:49.000Z</time>
      </trkpt>
      <trkpt lat="49.32437" lon="1.00327">
        <ele>78.431686401367</ele>
        <time>2017-04-09T07:30:51.000Z</time>
      </trkpt>
      <trkpt lat="49.32435" lon="1.00317">
        <ele>78.537582397461</ele>
        <time>2017-04-09T07:30:54.000Z</time>
      </trkpt>
      <trkpt lat="49.32434" lon="1.00312">
        <ele>78.917671203613</ele>
        <time>2017-04-09T07:30:56.000Z</time>
      </trkpt>
      <trkpt lat="49.32432" lon="1.00307">
        <ele>79.469703674316</ele>
        <time>2017-04-09T07:30:59.000Z</time>
      </trkpt>
      <trkpt lat="49.32431" lon="1.00304">
        <ele>80.12321472168</ele>
        <time>2017-04-09T07:31:01.000Z</time>
        <extensions>
          <gpxtpx:TrackPointExtension xmlns:gpxtpx="http://www.garmin.com/xmlschemas/TrackPointExtension/v1">
            <gpxtpx:hr>141</gpxtpx:hr>
          </gpxtpx:TrackPointExtension>
        </extensions>
      </trkpt>
      <trkpt lat="49.3243" lon="1.00299">
        <ele>80.775161743164</ele>
        <time>2017-04-09T07:31:03.000Z</time>
        <extensions>
          <gpxtpx:TrackPointExtension xmlns:gpxtpx="http://www.garmin.com/xmlschemas/TrackPointExtension/v1">
            <gpxtpx:hr>145</gpxtpx:hr>
          </gpxtpx:TrackPointExtension>
        </extensions>
      </trkpt>
      <trkpt lat="49.32428" lon="1.00295">
        <ele>81.356788635254</ele>
        <time>2017-04-09T07:31:05.000Z</time>
        <extensions>
          <gpxtpx:TrackPointExtension xmlns:gpxtpx="http://www.garmin.com/xmlschemas/TrackPointExtension/v1">
            <gpxtpx:hr>147</gpxtpx:hr>
          </gpxtpx:TrackPointExtension>
        </extensions>
      </trkpt>
      <trkpt lat="49.32425" lon="1.00289">
        <ele>82.038681030273</ele>
        <time>2017-04-09T07:31:08.000Z</time>
        <extensions>
          <gpxtpx:TrackPointExtension xmlns:gpxtpx="http://www.garmin.com/xmlschemas/TrackPointExtension/v1">
            <gpxtpx:hr>152</gpxtpx:hr>
          </gpxtpx:TrackPointExtension>
        </extensions>
      </trkpt>
      <trkpt lat="49.32422" lon="1.00284">
        <ele>82.815658569336</ele>
        <time>2017-04-09T07:31:11.000Z</time>
        <extensions>
          <gpxtpx:TrackPointExtension xmlns:gpxtpx="http://www.garmin.com/xmlschemas/TrackPointExtension/v1">
            <gpxtpx:hr>159</gpxtpx:hr>
          </gpxtpx:TrackPointExtension>
        </extensions>
      </trkpt>
      <trkpt lat="49.3242" lon="1.00281">
        <ele>83.645065307617</ele>
        <time>2017-04-09T07:31:13.000Z</time>
        <extensions>
          <gpxtpx:TrackPointExtension xmlns:gpxtpx="http://www.garmin.com/xmlschemas/TrackPointExtension/v1">
            <gpxtpx:hr>163</gpxtpx:hr>
          </gpxtpx:TrackPointExtension>
        </extensions>
      </trkpt>
      <trkpt lat="49.3242" lon="1.00278">
        <ele>84.45085144043</ele>
        <time>2017-04-09T07:31:15.000Z</time>
        <extensions>
          <gpxtpx:TrackPointExtension xmlns:gpxtpx="http://www.garmin.com/xmlschemas/TrackPointExtension/v1">
            <gpxtpx:hr>161</gpxtpx:hr>
          </gpxtpx:TrackPointExtension>
        </extensions>
      </trkpt>
      <trkpt lat="49.32419" lon="1.00273">
        <ele>85.250869750977</ele>
        <time>2017-04-09T07:31:18.000Z</time>
        <extensions>
          <gpxtpx:TrackPointExtension xmlns:gpxtpx="http://www.garmin.com/xmlschemas/TrackPointExtension/v1">
            <gpxtpx:hr>162</gpxtpx:hr>
          </gpxtpx:TrackPointExtension>
        </extensions>
      </trkpt>
      <trkpt lat="49.32417" lon="1.00268">
        <ele>86.050552368164</ele>
        <time>2017-04-09T07:31:21.000Z</time>
        <extensions>
          <gpxtpx:TrackPointExtension xmlns:gpxtpx="http://www.garmin.com/xmlschemas/TrackPointExtension/v1">
            <gpxtpx:hr>163</gpxtpx:hr>
          </gpxtpx:TrackPointExtension>
        </extensions>
      </trkpt>
      <trkpt lat="49.32414" lon="1.00263">
        <ele>86.880348205566</ele>
        <time>2017-04-09T07:31:24.000Z</time>
      </trkpt>
      <trkpt lat="49.32413" lon="1.00259">
        <ele>87.707275390625</ele>
        <time>2017-04-09T07:31:26.000Z</time>
      </trkpt>
      <trkpt lat="49.32411" lon="1.00255">
        <ele>88.640083312988</ele>
        <time>2017-04-09T07:31:29.000Z</time>
      </trkpt>
      <trkpt lat="49.3241" lon="1.00252">
        <ele>89.585472106934</ele>
        <time>2017-04-09T07:31:32.000Z</time>
      </trkpt>
      <trkpt lat="49.32409" lon="1.00252">
        <ele>90.361404418945</ele>
        <time>2017-04-09T07:31:34.000Z</time>
      </trkpt>
      <trkpt lat="49.32409" lon="1.0025">
        <ele>90.948112487793</ele>
        <time>2017-04-09T07:31:37.000Z</time>
      </trkpt>
      <trkpt lat="49.32409" lon="1.00244">
        <ele>91.486892700195</ele>
        <time>2017-04-09T07:31:39.000Z</time>
      </trkpt>
      <trkpt lat="49.32408" lon="1.00242">
        <ele>91.901588439941</ele>
        <time>2017-04-09T07:31:41.000Z</time>
      </trkpt>
      <trkpt lat="49.32406" lon="1.00239">
        <ele>92.253349304199</ele>
        <time>2017-04-09T07:31:43.000Z</time>
      </trkpt>
      <trkpt lat="49.32405" lon="1.00237">
        <ele>92.647674560547</ele>
        <time>2017-04-09T07:31:46.000Z</time>
      </trkpt>
      <trkpt lat="49.32405" lon="1.00234">
        <ele>93.031799316406</ele>
        <time>2017-04-09T07:31:48.000Z</time>
      </trkpt>
      <trkpt lat="49.32406" lon="1.00231">
        <ele>93.341018676758</ele>
        <time>2017-04-09T07:31:51.000Z</time>
      </trkpt>
      <trkpt lat="49.32406" lon="1.00228">
        <ele>93.605331420898</ele>
        <time>2017-04-09T07:31:53.000Z</time>
      </trkpt>
      <trkpt lat="49.32407" lon="1.00226">
        <ele>93.803703308105</ele>
        <time>2017-04-09T07:31:55.000Z</time>
      </trkpt>
      <trkpt lat="49.32408" lon="1.00222">
        <ele>93.919631958008</ele>
        <time>2017-04-09T07:31:58.000Z</time>
      </trkpt>
      <trkpt lat="49.32408" lon="1.00221">
        <ele>94.034378051758</ele>
        <time>2017-04-09T07:32:00.000Z</time>
      </trkpt>
      <trkpt lat="49.32407" lon="1.00219">
        <ele>94.19393157959</ele>
        <time>2017-04-09T07:32:03.000Z</time>
        <extensions>
          <gpxtpx:TrackPointExtension xmlns:gpxtpx="http://www.garmin.com/xmlschemas/TrackPointExtension/v1">
            <gpxtpx:hr>163</gpxtpx:hr>
          </gpxtpx:TrackPointExtension>
        </extensions>
      </trkpt>
      <trkpt lat="49.32406" lon="1.00217">
        <ele>94.38045501709</ele>
        <time>2017-04-09T07:32:05.000Z</time>
        <extensions>
          <gpxtpx:TrackPointExtension xmlns:gpxtpx="http://www.garmin.com/xmlschemas/TrackPointExtension/v1">
            <gpxtpx:hr>162</gpxtpx:hr>
          </gpxtpx:TrackPointExtension>
        </extensions>
      </trkpt>
      <trkpt lat="49.32405" lon="1.00213">
        <ele>94.667587280273</ele>
        <time>2017-04-09T07:32:08.000Z</time>
        <extensions>
          <gpxtpx:TrackPointExtension xmlns:gpxtpx="http://www.garmin.com/xmlschemas/TrackPointExtension/v1">
            <gpxtpx:hr>161</gpxtpx:hr>
          </gpxtpx:TrackPointExtension>
        </extensions>
      </trkpt>
      <trkpt lat="49.32404" lon="1.0021">
        <ele>95.020050048828</ele>
        <time>2017-04-09T07:32:10.000Z</time>
        <extensions>
          <gpxtpx:TrackPointExtension xmlns:gpxtpx="http://www.garmin.com/xmlschemas/TrackPointExtension/v1">
            <gpxtpx:hr>161</gpxtpx:hr>
          </gpxtpx:TrackPointExtension>
        </extensions>
      </trkpt>
      <trkpt lat="49.32404" lon="1.00208">
        <ele>95.393112182617</ele>
        <time>2017-04-09T07:32:12.000Z</time>
        <extensions>
          <gpxtpx:TrackPointExtension xmlns:gpxtpx="http://www.garmin.com/xmlschemas/TrackPointExtension/v1">
            <gpxtpx:hr>159</gpxtpx:hr>
          </gpxtpx:TrackPointExtension>
        </extensions>
      </trkpt>
      <trkpt lat="49.32404" lon="1.00202">
        <ele>95.780982971191</ele>
        <time>2017-04-09T07:32:15.000Z</time>
        <extensions>
          <gpxtpx:TrackPointExtension xmlns:gpxtpx="http://www.garmin.com/xmlschemas/TrackPointExtension/v1">
            <gpxtpx:hr>156</gpxtpx:hr>
          </gpxtpx:TrackPointExtension>
        </extensions>
      </trkpt>
      <trkpt lat="49.32404" lon="1.00198">
        <ele>96.161575317383</ele>
        <time>2017-04-09T07:32:18.000Z</time>
      </trkpt>
      <trkpt lat="49.32402" lon="1.00194">
        <ele>96.555191040039</ele>
        <time>2017-04-09T07:32:21.000Z</time>
      </trkpt>
      <trkpt lat="49.32401" lon="1.00192">
        <ele>96.97403717041</ele>
        <time>2017-04-09T07:32:24.000Z</time>
      </trkpt>
      <trkpt lat="49.32401" lon="1.00192">
        <ele>96.97403717041</ele>
        <time>2017-04-09T07:32:34.000Z</time>
      </trkpt>
      <trkpt lat="49.32403" lon="1.00193">
        <ele>97.226280212402</ele>
        <time>2017-04-09T07:32:37.000Z</time>
      </trkpt>
      <trkpt lat="49.32403" lon="1.00193">
        <ele>97.226280212402</ele>
        <time>2017-04-09T07:32:47.000Z</time>
      </trkpt>
      <trkpt lat="49.32405" lon="1.00192">
        <ele>97.34895324707</ele>
        <time>2017-04-09T07:32:51.000Z</time>
      </trkpt>
      <trkpt lat="49.3241" lon="1.00188">
        <ele>97.287559509277</ele>
        <time>2017-04-09T07:32:54.000Z</time>
      </trkpt>
      <trkpt lat="49.32413" lon="1.00184">
        <ele>97.042907714844</ele>
        <time>2017-04-09T07:32:56.000Z</time>
      </trkpt>
      <trkpt lat="49.32418" lon="1.00172">
        <ele>96.651329040527</ele>
        <time>2017-04-09T07:32:59.000Z</time>
      </trkpt>
      <trkpt lat="49.32421" lon="1.00152">
        <ele>96.112724304199</ele>
        <time>2017-04-09T07:33:02.000Z</time>
        <extensions>
          <gpxtpx:TrackPointExtension xmlns:gpxtpx="http://www.garmin.com/xmlschemas/TrackPointExtension/v1">
            <gpxtpx:hr>152</gpxtpx:hr>
          </gpxtpx:TrackPointExtension>
        </extensions>
      </trkpt>
      <trkpt lat="49.32423" lon="1.0013">
        <ele>95.248176574707</ele>
        <time>2017-04-09T07:33:05.000Z</time>
        <extensions>
          <gpxtpx:TrackPointExtension xmlns:gpxtpx="http://www.garmin.com/xmlschemas/TrackPointExtension/v1">
            <gpxtpx:hr>146</gpxtpx:hr>
          </gpxtpx:TrackPointExtension>
        </extensions>
      </trkpt>
      <trkpt lat="49.32421" lon="1.00113">
        <ele>94.423690795898</ele>
        <time>2017-04-09T07:33:08.000Z</time>
        <extensions>
          <gpxtpx:TrackPointExtension xmlns:gpxtpx="http://www.garmin.com/xmlschemas/TrackPointExtension/v1">
            <gpxtpx:hr>142</gpxtpx:hr>
          </gpxtpx:TrackPointExtension>
        </extensions>
      </trkpt>
      <trkpt lat="49.32417" lon="1.00091">
        <ele>93.624649047852</ele>
        <time>2017-04-09T07:33:11.000Z</time>
        <extensions>
          <gpxtpx:TrackPointExtension xmlns:gpxtpx="http://www.garmin.com/xmlschemas/TrackPointExtension/v1">
            <gpxtpx:hr>145</gpxtpx:hr>
          </gpxtpx:TrackPointExtension>
        </extensions>
      </trkpt>
      <trkpt lat="49.32408" lon="1.00071">
        <ele>92.756790161133</ele>
        <time>2017-04-09T07:33:14.000Z</time>
        <extensions>
          <gpxtpx:TrackPointExtension xmlns:gpxtpx="http://www.garmin.com/xmlschemas/TrackPointExtension/v1">
            <gpxtpx:hr>145</gpxtpx:hr>
          </gpxtpx:TrackPointExtension>
        </extensions>
      </trkpt>
      <trkpt lat="49.32403" lon="1.00063">
        <ele>92.07731628418</ele>
        <time>2017-04-09T07:33:16.000Z</time>
        <extensions>
          <gpxtpx:TrackPointExtension xmlns:gpxtpx="http://www.garmin.com/xmlschemas/TrackPointExtension/v1">
            <gpxtpx:hr>143</gpxtpx:hr>
          </gpxtpx:TrackPointExtension>
        </extensions>
      </trkpt>
      <trkpt lat="49.32393" lon="1.00052">
        <ele>91.855377197266</ele>
        <time>2017-04-09T07:33:19.000Z</time>
        <extensions>
          <gpxtpx:TrackPointExtension xmlns:gpxtpx="http://www.garmin.com/xmlschemas/TrackPointExtension/v1">
            <gpxtpx:hr>141</gpxtpx:hr>
          </gpxtpx:TrackPointExtension>
        </extensions>
      </trkpt>
      <trkpt lat="49.32391" lon="1.00049">
        <ele>91.727737426758</ele>
        <time>2017-04-09T07:33:21.000Z</time>
        <extensions>
          <gpxtpx:TrackPointExtension xmlns:gpxtpx="http://www.garmin.com/xmlschemas/TrackPointExtension/v1">
            <gpxtpx:hr>137</gpxtpx:hr>
          </gpxtpx:TrackPointExtension>
        </extensions>
      </trkpt>
      <trkpt lat="49.32387" lon="1.00044">
        <ele>91.637649536133</ele>
        <time>2017-04-09T07:33:23.000Z</time>
        <extensions>
          <gpxtpx:TrackPointExtension xmlns:gpxtpx="http://www.garmin.com/xmlschemas/TrackPointExtension/v1">
            <gpxtpx:hr>134</gpxtpx:hr>
          </gpxtpx:TrackPointExtension>
        </extensions>
      </trkpt>
      <trkpt lat="49.32384" lon="1.0004">
        <ele>91.701942443848</ele>
        <time>2017-04-09T07:33:25.000Z</time>
      </trkpt>
      <trkpt lat="49.3238" lon="1.00035">
        <ele>91.85262298584</ele>
        <time>2017-04-09T07:33:28.000Z</time>
      </trkpt>
      <trkpt lat="49.32376" lon="1.00035">
        <ele>92.043991088867</ele>
        <time>2017-04-09T07:33:30.000Z</time>
      </trkpt>
      <trkpt lat="49.3237" lon="1.00032">
        <ele>92.415138244629</ele>
        <time>2017-04-09T07:33:33.000Z</time>
      </trkpt>
      <trkpt lat="49.32365" lon="1.00028">
        <ele>92.871353149414</ele>
        <time>2017-04-09T07:33:35.000Z</time>
      </trkpt>
      <trkpt lat="49.32359" lon="1.00016">
        <ele>93.315635681152</ele>
        <time>2017-04-09T07:33:38.000Z</time>
      </trkpt>
      <trkpt lat="49.32354" lon="1.00006">
        <ele>93.74186706543</ele>
        <time>2017-04-09T07:33:40.000Z</time>
      </trkpt>
      <trkpt lat="49.32346" lon="0.99992">
        <ele>94.142692565918</ele>
        <time>2017-04-09T07:33:43.000Z</time>
      </trkpt>
      <trkpt lat="49.32337" lon="0.99976">
        <ele>94.44441986084</ele>
        <time>2017-04-09T07:33:46.000Z</time>
      </trkpt>
      <trkpt lat="49.32334" lon="0.99962">
        <ele>94.585639953613</ele>
        <time>2017-04-09T07:33:48.000Z</time>
      </trkpt>
      <trkpt lat="49.32328" lon="0.9995">
        <ele>94.673439025879</ele>
        <time>2017-04-09T07:33:50.000Z</time>
      </trkpt>
      <trkpt lat="49.32322" lon="0.99938">
        <ele>94.764358520508</ele>
        <time>2017-04-09T07:33:52.000Z</time>
      </trkpt>
      <trkpt lat="49.32317" lon="0.9992">
        <ele>94.663764953613</ele>
        <time>2017-04-09T07:33:55.000Z</time>
      </trkpt>
      <trkpt lat="49.32319" lon="0.99902">
        <ele>94.06852722168</ele>
        <time>2017-04-09T07:33:58.000Z</time>
      </trkpt>
      <trkpt lat="49.3232" lon="0.99882">
        <ele>93.10124206543</ele>
        <time>2017-04-09T07:34:01.000Z</time>
        <extensions>
          <gpxtpx:TrackPointExtension xmlns:gpxtpx="http://www.garmin.com/xmlschemas/TrackPointExtension/v1">
            <gpxtpx:hr>132</gpxtpx:hr>
          </gpxtpx:TrackPointExtension>
        </extensions>
      </trkpt>
      <trkpt lat="49.3232" lon="0.9987">
        <ele>91.936462402344</ele>
        <time>2017-04-09T07:34:03.000Z</time>
        <extensions>
          <gpxtpx:TrackPointExtension xmlns:gpxtpx="http://www.garmin.com/xmlschemas/TrackPointExtension/v1">
            <gpxtpx:hr>128</gpxtpx:hr>
          </gpxtpx:TrackPointExtension>
        </extensions>
      </trkpt>
      <trkpt lat="49.3232" lon="0.9985">
        <ele>90.390800476074</ele>
        <time>2017-04-09T07:34:06.000Z</time>
        <extensions>
          <gpxtpx:TrackPointExtension xmlns:gpxtpx="http://www.garmin.com/xmlschemas/TrackPointExtension/v1">
            <gpxtpx:hr>130</gpxtpx:hr>
          </gpxtpx:TrackPointExtension>
        </extensions>
      </trkpt>
      <trkpt lat="49.32318" lon="0.99839">
        <ele>88.767517089844</ele>
        <time>2017-04-09T07:34:08.000Z</time>
        <extensions>
          <gpxtpx:TrackPointExtension xmlns:gpxtpx="http://www.garmin.com/xmlschemas/TrackPointExtension/v1">
            <gpxtpx:hr>129</gpxtpx:hr>
          </gpxtpx:TrackPointExtension>
        </extensions>
      </trkpt>
      <trkpt lat="49.32312" lon="0.99825">
        <ele>87.324851989746</ele>
        <time>2017-04-09T07:34:11.000Z</time>
        <extensions>
          <gpxtpx:TrackPointExtension xmlns:gpxtpx="http://www.garmin.com/xmlschemas/TrackPointExtension/v1">
            <gpxtpx:hr>132</gpxtpx:hr>
          </gpxtpx:TrackPointExtension>
        </extensions>
      </trkpt>
      <trkpt lat="49.32309" lon="0.99815">
        <ele>86.032455444336</ele>
        <time>2017-04-09T07:34:13.000Z</time>
        <extensions>
          <gpxtpx:TrackPointExtension xmlns:gpxtpx="http://www.garmin.com/xmlschemas/TrackPointExtension/v1">
            <gpxtpx:hr>134</gpxtpx:hr>
          </gpxtpx:TrackPointExtension>
        </extensions>
      </trkpt>
      <trkpt lat="49.32301" lon="0.99794">
        <ele>84.330795288086</ele>
        <time>2017-04-09T07:34:16.000Z</time>
        <extensions>
          <gpxtpx:TrackPointExtension xmlns:gpxtpx="http://www.garmin.com/xmlschemas/TrackPointExtension/v1">
            <gpxtpx:hr>134</gpxtpx:hr>
          </gpxtpx:TrackPointExtension>
        </extensions>
      </trkpt>
      <trkpt lat="49.32285" lon="0.99766">
        <ele>82.324172973633</ele>
        <time>2017-04-09T07:34:19.000Z</time>
        <extensions>
          <gpxtpx:TrackPointExtension xmlns:gpxtpx="http://www.garmin.com/xmlschemas/TrackPointExtension/v1">
            <gpxtpx:hr>131</gpxtpx:hr>
          </gpxtpx:TrackPointExtension>
        </extensions>
      </trkpt>
      <trkpt lat="49.32277" lon="0.99759">
        <ele>80.365058898926</ele>
        <time>2017-04-09T07:34:21.000Z</time>
        <extensions>
          <gpxtpx:TrackPointExtension xmlns:gpxtpx="http://www.garmin.com/xmlschemas/TrackPointExtension/v1">
            <gpxtpx:hr>124</gpxtpx:hr>
          </gpxtpx:TrackPointExtension>
        </extensions>
      </trkpt>
      <trkpt lat="49.3227" lon="0.99749">
        <ele>78.372085571289</ele>
        <time>2017-04-09T07:34:23.000Z</time>
      </trkpt>
      <trkpt lat="49.32267" lon="0.99746">
        <ele>76.616088867188</ele>
        <time>2017-04-09T07:34:25.000Z</time>
      </trkpt>
      <trkpt lat="49.32265" lon="0.99743">
        <ele>75.409103393555</ele>
        <time>2017-04-09T07:34:27.000Z</time>
      </trkpt>
      <trkpt lat="49.32261" lon="0.99733">
        <ele>74.515716552734</ele>
        <time>2017-04-09T07:34:30.000Z</time>
      </trkpt>
      <trkpt lat="49.32257" lon="0.9973">
        <ele>73.661437988281</ele>
        <time>2017-04-09T07:34:32.000Z</time>
      </trkpt>
      <trkpt lat="49.32256" lon="0.99727">
        <ele>72.937980651855</ele>
        <time>2017-04-09T07:34:35.000Z</time>
      </trkpt>
      <trkpt lat="49.32255" lon="0.99725">
        <ele>72.219032287598</ele>
        <time>2017-04-09T07:34:38.000Z</time>
      </trkpt>
      <trkpt lat="49.32251" lon="0.99725">
        <ele>71.673301696777</ele>
        <time>2017-04-09T07:34:46.000Z</time>
      </trkpt>
      <trkpt lat="49.32251" lon="0.99725">
        <ele>71.673301696777</ele>
        <time>2017-04-09T07:34:56.000Z</time>
      </trkpt>
      <trkpt lat="49.32249" lon="0.99723">
        <ele>71.446258544922</ele>
        <time>2017-04-09T07:35:04.000Z</time>
        <extensions>
          <gpxtpx:TrackPointExtension xmlns:gpxtpx="http://www.garmin.com/xmlschemas/TrackPointExtension/v1">
            <gpxtpx:hr>119</gpxtpx:hr>
          </gpxtpx:TrackPointExtension>
        </extensions>
      </trkpt>
      <trkpt lat="49.32249" lon="0.99723">
        <ele>71.446258544922</ele>
        <time>2017-04-09T07:35:14.000Z</time>
        <extensions>
          <gpxtpx:TrackPointExtension xmlns:gpxtpx="http://www.garmin.com/xmlschemas/TrackPointExtension/v1">
            <gpxtpx:hr>126</gpxtpx:hr>
          </gpxtpx:TrackPointExtension>
        </extensions>
      </trkpt>
      <trkpt lat="49.32246" lon="0.99724">
        <ele>71.411727905273</ele>
        <time>2017-04-09T07:35:24.000Z</time>
        <extensions>
          <gpxtpx:TrackPointExtension xmlns:gpxtpx="http://www.garmin.com/xmlschemas/TrackPointExtension/v1">
            <gpxtpx:hr>125</gpxtpx:hr>
          </gpxtpx:TrackPointExtension>
        </extensions>
      </trkpt>
      <trkpt lat="49.32246" lon="0.99722">
        <ele>71.403915405273</ele>
        <time>2017-04-09T07:35:27.000Z</time>
        <extensions>
          <gpxtpx:TrackPointExtension xmlns:gpxtpx="http://www.garmin.com/xmlschemas/TrackPointExtension/v1">
            <gpxtpx:hr>126</gpxtpx:hr>
          </gpxtpx:TrackPointExtension>
        </extensions>
      </trkpt>
      <trkpt lat="49.32246" lon="0.99715">
        <ele>71.078170776367</ele>
        <time>2017-04-09T07:35:30.000Z</time>
        <extensions>
          <gpxtpx:TrackPointExtension xmlns:gpxtpx="http://www.garmin.com/xmlschemas/TrackPointExtension/v1">
            <gpxtpx:hr>127</gpxtpx:hr>
          </gpxtpx:TrackPointExtension>
        </extensions>
      </trkpt>
      <trkpt lat="49.32242" lon="0.9971">
        <ele>70.488288879395</ele>
        <time>2017-04-09T07:35:32.000Z</time>
        <extensions>
          <gpxtpx:TrackPointExtension xmlns:gpxtpx="http://www.garmin.com/xmlschemas/TrackPointExtension/v1">
            <gpxtpx:hr>125</gpxtpx:hr>
          </gpxtpx:TrackPointExtension>
        </extensions>
      </trkpt>
      <trkpt lat="49.32234" lon="0.99703">
        <ele>69.729454040527</ele>
        <time>2017-04-09T07:35:35.000Z</time>
        <extensions>
          <gpxtpx:TrackPointExtension xmlns:gpxtpx="http://www.garmin.com/xmlschemas/TrackPointExtension/v1">
            <gpxtpx:hr>127</gpxtpx:hr>
          </gpxtpx:TrackPointExtension>
        </extensions>
      </trkpt>
      <trkpt lat="49.32224" lon="0.99695">
        <ele>68.667320251465</ele>
        <time>2017-04-09T07:35:38.000Z</time>
        <extensions>
          <gpxtpx:TrackPointExtension xmlns:gpxtpx="http://www.garmin.com/xmlschemas/TrackPointExtension/v1">
            <gpxtpx:hr>129</gpxtpx:hr>
          </gpxtpx:TrackPointExtension>
        </extensions>
      </trkpt>
      <trkpt lat="49.32211" lon="0.99687">
        <ele>67.55891418457</ele>
        <time>2017-04-09T07:35:41.000Z</time>
      </trkpt>
      <trkpt lat="49.32202" lon="0.99686">
        <ele>66.90608215332</ele>
        <time>2017-04-09T07:35:43.000Z</time>
      </trkpt>
      <trkpt lat="49.32194" lon="0.99684">
        <ele>66.511077880859</ele>
        <time>2017-04-09T07:35:46.000Z</time>
      </trkpt>
      <trkpt lat="49.32187" lon="0.9968">
        <ele>66.273880004883</ele>
        <time>2017-04-09T07:35:48.000Z</time>
      </trkpt>
      <trkpt lat="49.32177" lon="0.99675">
        <ele>66.170356750488</ele>
        <time>2017-04-09T07:35:51.000Z</time>
      </trkpt>
      <trkpt lat="49.32169" lon="0.99673">
        <ele>66.265731811523</ele>
        <time>2017-04-09T07:35:54.000Z</time>
      </trkpt>
      <trkpt lat="49.3216" lon="0.99671">
        <ele>66.303527832031</ele>
        <time>2017-04-09T07:35:57.000Z</time>
      </trkpt>
      <trkpt lat="49.32152" lon="0.99669">
        <ele>66.214576721191</ele>
        <time>2017-04-09T07:36:00.000Z</time>
        <extensions>
          <gpxtpx:TrackPointExtension xmlns:gpxtpx="http://www.garmin.com/xmlschemas/TrackPointExtension/v1">
            <gpxtpx:hr>132</gpxtpx:hr>
          </gpxtpx:TrackPointExtension>
        </extensions>
      </trkpt>
      <trkpt lat="49.32144" lon="0.99669">
        <ele>66.259407043457</ele>
        <time>2017-04-09T07:36:03.000Z</time>
        <extensions>
          <gpxtpx:TrackPointExtension xmlns:gpxtpx="http://www.garmin.com/xmlschemas/TrackPointExtension/v1">
            <gpxtpx:hr>133</gpxtpx:hr>
          </gpxtpx:TrackPointExtension>
        </extensions>
      </trkpt>
      <trkpt lat="49.32106" lon="0.99653">
        <ele>65.93888092041</ele>
        <time>2017-04-09T07:36:08.000Z</time>
        <extensions>
          <gpxtpx:TrackPointExtension xmlns:gpxtpx="http://www.garmin.com/xmlschemas/TrackPointExtension/v1">
            <gpxtpx:hr>131</gpxtpx:hr>
          </gpxtpx:TrackPointExtension>
        </extensions>
      </trkpt>
      <trkpt lat="49.32098" lon="0.99648">
        <ele>65.391159057617</ele>
        <time>2017-04-09T07:36:10.000Z</time>
        <extensions>
          <gpxtpx:TrackPointExtension xmlns:gpxtpx="http://www.garmin.com/xmlschemas/TrackPointExtension/v1">
            <gpxtpx:hr>131</gpxtpx:hr>
          </gpxtpx:TrackPointExtension>
        </extensions>
      </trkpt>
      <trkpt lat="49.32081" lon="0.99634">
        <ele>64.26921081543</ele>
        <time>2017-04-09T07:36:13.000Z</time>
        <extensions>
          <gpxtpx:TrackPointExtension xmlns:gpxtpx="http://www.garmin.com/xmlschemas/TrackPointExtension/v1">
            <gpxtpx:hr>131</gpxtpx:hr>
          </gpxtpx:TrackPointExtension>
        </extensions>
      </trkpt>
      <trkpt lat="49.32066" lon="0.99624">
        <ele>62.949474334717</ele>
        <time>2017-04-09T07:36:16.000Z</time>
        <extensions>
          <gpxtpx:TrackPointExtension xmlns:gpxtpx="http://www.garmin.com/xmlschemas/TrackPointExtension/v1">
            <gpxtpx:hr>131</gpxtpx:hr>
          </gpxtpx:TrackPointExtension>
        </extensions>
      </trkpt>
      <trkpt lat="49.32058" lon="0.9962">
        <ele>61.548328399658</ele>
        <time>2017-04-09T07:36:18.000Z</time>
        <extensions>
          <gpxtpx:TrackPointExtension xmlns:gpxtpx="http://www.garmin.com/xmlschemas/TrackPointExtension/v1">
            <gpxtpx:hr>133</gpxtpx:hr>
          </gpxtpx:TrackPointExtension>
        </extensions>
      </trkpt>
      <trkpt lat="49.32047" lon="0.99615">
        <ele>60.590251922607</ele>
        <time>2017-04-09T07:36:21.000Z</time>
        <extensions>
          <gpxtpx:TrackPointExtension xmlns:gpxtpx="http://www.garmin.com/xmlschemas/TrackPointExtension/v1">
            <gpxtpx:hr>132</gpxtpx:hr>
          </gpxtpx:TrackPointExtension>
        </extensions>
      </trkpt>
      <trkpt lat="49.3204" lon="0.99603">
        <ele>59.377891540527</ele>
        <time>2017-04-09T07:36:24.000Z</time>
      </trkpt>
      <trkpt lat="49.32026" lon="0.99597">
        <ele>58.703052520752</ele>
        <time>2017-04-09T07:36:27.000Z</time>
      </trkpt>
      <trkpt lat="49.32015" lon="0.9959">
        <ele>58.176879882812</ele>
        <time>2017-04-09T07:36:30.000Z</time>
      </trkpt>
      <trkpt lat="49.31999" lon="0.99585">
        <ele>57.745658874512</ele>
        <time>2017-04-09T07:36:33.000Z</time>
      </trkpt>
      <trkpt lat="49.31992" lon="0.99575">
        <ele>56.966850280762</ele>
        <time>2017-04-09T07:36:35.000Z</time>
      </trkpt>
      <trkpt lat="49.31981" lon="0.99563">
        <ele>56.233032226562</ele>
        <time>2017-04-09T07:36:38.000Z</time>
      </trkpt>
      <trkpt lat="49.31967" lon="0.99555">
        <ele>55.262382507324</ele>
        <time>2017-04-09T07:36:41.000Z</time>
      </trkpt>
      <trkpt lat="49.31965" lon="0.99543">
        <ele>53.844799041748</ele>
        <time>2017-04-09T07:36:43.000Z</time>
      </trkpt>
      <trkpt lat="49.31963" lon="0.99538">
        <ele>52.112190246582</ele>
        <time>2017-04-09T07:36:46.000Z</time>
      </trkpt>
      <trkpt lat="49.31963" lon="0.99538">
        <ele>52.112190246582</ele>
        <time>2017-04-09T07:36:56.000Z</time>
      </trkpt>
      <trkpt lat="49.31964" lon="0.99538">
        <ele>50.674705505371</ele>
        <time>2017-04-09T07:36:57.000Z</time>
      </trkpt>
      <trkpt lat="49.31966" lon="0.99536">
        <ele>49.494071960449</ele>
        <time>2017-04-09T07:37:00.000Z</time>
        <extensions>
          <gpxtpx:TrackPointExtension xmlns:gpxtpx="http://www.garmin.com/xmlschemas/TrackPointExtension/v1">
            <gpxtpx:hr>132</gpxtpx:hr>
          </gpxtpx:TrackPointExtension>
        </extensions>
      </trkpt>
      <trkpt lat="49.31965" lon="0.99534">
        <ele>48.459022521973</ele>
        <time>2017-04-09T07:37:02.000Z</time>
        <extensions>
          <gpxtpx:TrackPointExtension xmlns:gpxtpx="http://www.garmin.com/xmlschemas/TrackPointExtension/v1">
            <gpxtpx:hr>133</gpxtpx:hr>
          </gpxtpx:TrackPointExtension>
        </extensions>
      </trkpt>
      <trkpt lat="49.31962" lon="0.99528">
        <ele>47.699378967285</ele>
        <time>2017-04-09T07:37:04.000Z</time>
        <extensions>
          <gpxtpx:TrackPointExtension xmlns:gpxtpx="http://www.garmin.com/xmlschemas/TrackPointExtension/v1">
            <gpxtpx:hr>129</gpxtpx:hr>
          </gpxtpx:TrackPointExtension>
        </extensions>
      </trkpt>
      <trkpt lat="49.31957" lon="0.99522">
        <ele>46.880867004395</ele>
        <time>2017-04-09T07:37:06.000Z</time>
        <extensions>
          <gpxtpx:TrackPointExtension xmlns:gpxtpx="http://www.garmin.com/xmlschemas/TrackPointExtension/v1">
            <gpxtpx:hr>131</gpxtpx:hr>
          </gpxtpx:TrackPointExtension>
        </extensions>
      </trkpt>
      <trkpt lat="49.31949" lon="0.99513">
        <ele>45.732917785645</ele>
        <time>2017-04-09T07:37:08.000Z</time>
        <extensions>
          <gpxtpx:TrackPointExtension xmlns:gpxtpx="http://www.garmin.com/xmlschemas/TrackPointExtension/v1">
            <gpxtpx:hr>136</gpxtpx:hr>
          </gpxtpx:TrackPointExtension>
        </extensions>
      </trkpt>
      <trkpt lat="49.31929" lon="0.99498">
        <ele>44.022975921631</ele>
        <time>2017-04-09T07:37:11.000Z</time>
        <extensions>
          <gpxtpx:TrackPointExtension xmlns:gpxtpx="http://www.garmin.com/xmlschemas/TrackPointExtension/v1">
            <gpxtpx:hr>147</gpxtpx:hr>
          </gpxtpx:TrackPointExtension>
        </extensions>
      </trkpt>
      <trkpt lat="49.31921" lon="0.99492">
        <ele>42.222202301025</ele>
        <time>2017-04-09T07:37:13.000Z</time>
        <extensions>
          <gpxtpx:TrackPointExtension xmlns:gpxtpx="http://www.garmin.com/xmlschemas/TrackPointExtension/v1">
            <gpxtpx:hr>157</gpxtpx:hr>
          </gpxtpx:TrackPointExtension>
        </extensions>
      </trkpt>
      <trkpt lat="49.31916" lon="0.99491">
        <ele>40.60631942749</ele>
        <time>2017-04-09T07:37:16.000Z</time>
        <extensions>
          <gpxtpx:TrackPointExtension xmlns:gpxtpx="http://www.garmin.com/xmlschemas/TrackPointExtension/v1">
            <gpxtpx:hr>156</gpxtpx:hr>
          </gpxtpx:TrackPointExtension>
        </extensions>
      </trkpt>
      <trkpt lat="49.31911" lon="0.99487">
        <ele>38.967155456543</ele>
        <time>2017-04-09T07:37:18.000Z</time>
        <extensions>
          <gpxtpx:TrackPointExtension xmlns:gpxtpx="http://www.garmin.com/xmlschemas/TrackPointExtension/v1">
            <gpxtpx:hr>154</gpxtpx:hr>
          </gpxtpx:TrackPointExtension>
        </extensions>
      </trkpt>
      <trkpt lat="49.31905" lon="0.99487">
        <ele>37.558296203613</ele>
        <time>2017-04-09T07:37:21.000Z</time>
      </trkpt>
      <trkpt lat="49.31902" lon="0.99488">
        <ele>36.780395507812</ele>
        <time>2017-04-09T07:37:23.000Z</time>
      </trkpt>
      <trkpt lat="49.319" lon="0.99489">
        <ele>36.181900024414</ele>
        <time>2017-04-09T07:37:25.000Z</time>
      </trkpt>
      <trkpt lat="49.31898" lon="0.99487">
        <ele>35.530158996582</ele>
        <time>2017-04-09T07:37:28.000Z</time>
      </trkpt>
      <trkpt lat="49.31897" lon="0.9949">
        <ele>35.25150680542</ele>
        <time>2017-04-09T07:37:31.000Z</time>
      </trkpt>
      <trkpt lat="49.31896" lon="0.99494">
        <ele>35.222953796387</ele>
        <time>2017-04-09T07:37:33.000Z</time>
      </trkpt>
      <trkpt lat="49.31894" lon="0.99498">
        <ele>35.373626708984</ele>
        <time>2017-04-09T07:37:36.000Z</time>
      </trkpt>
      <trkpt lat="49.31892" lon="0.995">
        <ele>35.547828674316</ele>
        <time>2017-04-09T07:37:39.000Z</time>
      </trkpt>
      <trkpt lat="49.3189" lon="0.995">
        <ele>35.817577362061</ele>
        <time>2017-04-09T07:37:43.000Z</time>
      </trkpt>
      <trkpt lat="49.31888" lon="0.995">
        <ele>35.920845031738</ele>
        <time>2017-04-09T07:37:48.000Z</time>
      </trkpt>
      <trkpt lat="49.31881" lon="0.99502">
        <ele>35.792861938477</ele>
        <time>2017-04-09T07:37:51.000Z</time>
      </trkpt>
      <trkpt lat="49.31876" lon="0.99503">
        <ele>35.444458007812</ele>
        <time>2017-04-09T07:37:53.000Z</time>
      </trkpt>
      <trkpt lat="49.3187" lon="0.99504">
        <ele>34.970947265625</ele>
        <time>2017-04-09T07:37:55.000Z</time>
      </trkpt>
      <trkpt lat="49.31861" lon="0.99508">
        <ele>34.524780273438</ele>
        <time>2017-04-09T07:37:58.000Z</time>
      </trkpt>
      <trkpt lat="49.31852" lon="0.99516">
        <ele>34.319580078125</ele>
        <time>2017-04-09T07:38:01.000Z</time>
        <extensions>
          <gpxtpx:TrackPointExtension xmlns:gpxtpx="http://www.garmin.com/xmlschemas/TrackPointExtension/v1">
            <gpxtpx:hr>150</gpxtpx:hr>
          </gpxtpx:TrackPointExtension>
        </extensions>
      </trkpt>
      <trkpt lat="49.31846" lon="0.99523">
        <ele>34.472534179688</ele>
        <time>2017-04-09T07:38:04.000Z</time>
        <extensions>
          <gpxtpx:TrackPointExtension xmlns:gpxtpx="http://www.garmin.com/xmlschemas/TrackPointExtension/v1">
            <gpxtpx:hr>150</gpxtpx:hr>
          </gpxtpx:TrackPointExtension>
        </extensions>
      </trkpt>
      <trkpt lat="49.31844" lon="0.99528">
        <ele>34.947631835938</ele>
        <time>2017-04-09T07:38:06.000Z</time>
        <extensions>
          <gpxtpx:TrackPointExtension xmlns:gpxtpx="http://www.garmin.com/xmlschemas/TrackPointExtension/v1">
            <gpxtpx:hr>149</gpxtpx:hr>
          </gpxtpx:TrackPointExtension>
        </extensions>
      </trkpt>
      <trkpt lat="49.31833" lon="0.99539">
        <ele>35.801540374756</ele>
        <time>2017-04-09T07:38:09.000Z</time>
        <extensions>
          <gpxtpx:TrackPointExtension xmlns:gpxtpx="http://www.garmin.com/xmlschemas/TrackPointExtension/v1">
            <gpxtpx:hr>149</gpxtpx:hr>
          </gpxtpx:TrackPointExtension>
        </extensions>
      </trkpt>
      <trkpt lat="49.31824" lon="0.99549">
        <ele>36.843395233154</ele>
        <time>2017-04-09T07:38:12.000Z</time>
        <extensions>
          <gpxtpx:TrackPointExtension xmlns:gpxtpx="http://www.garmin.com/xmlschemas/TrackPointExtension/v1">
            <gpxtpx:hr>147</gpxtpx:hr>
          </gpxtpx:TrackPointExtension>
        </extensions>
      </trkpt>
      <trkpt lat="49.3181" lon="0.99565">
        <ele>37.841751098633</ele>
        <time>2017-04-09T07:38:15.000Z</time>
        <extensions>
          <gpxtpx:TrackPointExtension xmlns:gpxtpx="http://www.garmin.com/xmlschemas/TrackPointExtension/v1">
            <gpxtpx:hr>143</gpxtpx:hr>
          </gpxtpx:TrackPointExtension>
        </extensions>
      </trkpt>
      <trkpt lat="49.31801" lon="0.99575">
        <ele>38.632846832275</ele>
        <time>2017-04-09T07:38:17.000Z</time>
        <extensions>
          <gpxtpx:TrackPointExtension xmlns:gpxtpx="http://www.garmin.com/xmlschemas/TrackPointExtension/v1">
            <gpxtpx:hr>138</gpxtpx:hr>
          </gpxtpx:TrackPointExtension>
        </extensions>
      </trkpt>
      <trkpt lat="49.31789" lon="0.99589">
        <ele>39.160579681396</ele>
        <time>2017-04-09T07:38:20.000Z</time>
        <extensions>
          <gpxtpx:TrackPointExtension xmlns:gpxtpx="http://www.garmin.com/xmlschemas/TrackPointExtension/v1">
            <gpxtpx:hr>131</gpxtpx:hr>
          </gpxtpx:TrackPointExtension>
        </extensions>
      </trkpt>
      <trkpt lat="49.31782" lon="0.99597">
        <ele>39.366416931152</ele>
        <time>2017-04-09T07:38:22.000Z</time>
        <extensions>
          <gpxtpx:TrackPointExtension xmlns:gpxtpx="http://www.garmin.com/xmlschemas/TrackPointExtension/v1">
            <gpxtpx:hr>130</gpxtpx:hr>
          </gpxtpx:TrackPointExtension>
        </extensions>
      </trkpt>
      <trkpt lat="49.3177" lon="0.99613">
        <ele>39.412384033203</ele>
        <time>2017-04-09T07:38:25.000Z</time>
      </trkpt>
      <trkpt lat="49.31765" lon="0.99626">
        <ele>39.634330749512</ele>
        <time>2017-04-09T07:38:27.000Z</time>
      </trkpt>
      <trkpt lat="49.31756" lon="0.99641">
        <ele>39.937683105469</ele>
        <time>2017-04-09T07:38:30.000Z</time>
      </trkpt>
      <trkpt lat="49.3175" lon="0.99654">
        <ele>40.520599365234</ele>
        <time>2017-04-09T07:38:32.000Z</time>
      </trkpt>
      <trkpt lat="49.31745" lon="0.99661">
        <ele>41.328117370605</ele>
        <time>2017-04-09T07:38:35.000Z</time>
      </trkpt>
      <trkpt lat="49.31741" lon="0.9966">
        <ele>42.021102905273</ele>
        <time>2017-04-09T07:38:37.000Z</time>
      </trkpt>
      <trkpt lat="49.31738" lon="0.99657">
        <ele>42.247550964355</ele>
        <time>2017-04-09T07:38:39.000Z</time>
      </trkpt>
      <trkpt lat="49.31736" lon="0.99647">
        <ele>41.853507995605</ele>
        <time>2017-04-09T07:38:42.000Z</time>
      </trkpt>
      <trkpt lat="49.31733" lon="0.99641">
        <ele>40.934440612793</ele>
        <time>2017-04-09T07:38:45.000Z</time>
      </trkpt>
      <trkpt lat="49.31731" lon="0.99644">
        <ele>39.923263549805</ele>
        <time>2017-04-09T07:38:47.000Z</time>
      </trkpt>
      <trkpt lat="49.31728" lon="0.99649">
        <ele>39.172855377197</ele>
        <time>2017-04-09T07:38:49.000Z</time>
      </trkpt>
      <trkpt lat="49.31724" lon="0.99646">
        <ele>38.38419342041</ele>
        <time>2017-04-09T07:38:52.000Z</time>
      </trkpt>
      <trkpt lat="49.31725" lon="0.99637">
        <ele>37.72331237793</ele>
        <time>2017-04-09T07:38:54.000Z</time>
      </trkpt>
      <trkpt lat="49.31727" lon="0.99622">
        <ele>36.730537414551</ele>
        <time>2017-04-09T07:38:57.000Z</time>
      </trkpt>
      <trkpt lat="49.31731" lon="0.99603">
        <ele>34.91841506958</ele>
        <time>2017-04-09T07:39:00.000Z</time>
        <extensions>
          <gpxtpx:TrackPointExtension xmlns:gpxtpx="http://www.garmin.com/xmlschemas/TrackPointExtension/v1">
            <gpxtpx:hr>125</gpxtpx:hr>
          </gpxtpx:TrackPointExtension>
        </extensions>
      </trkpt>
      <trkpt lat="49.31739" lon="0.99574">
        <ele>31.958892822266</ele>
        <time>2017-04-09T07:39:03.000Z</time>
        <extensions>
          <gpxtpx:TrackPointExtension xmlns:gpxtpx="http://www.garmin.com/xmlschemas/TrackPointExtension/v1">
            <gpxtpx:hr>122</gpxtpx:hr>
          </gpxtpx:TrackPointExtension>
        </extensions>
      </trkpt>
      <trkpt lat="49.3175" lon="0.99553">
        <ele>28.715274810791</ele>
        <time>2017-04-09T07:39:05.000Z</time>
        <extensions>
          <gpxtpx:TrackPointExtension xmlns:gpxtpx="http://www.garmin.com/xmlschemas/TrackPointExtension/v1">
            <gpxtpx:hr>119</gpxtpx:hr>
          </gpxtpx:TrackPointExtension>
        </extensions>
      </trkpt>
      <trkpt lat="49.31767" lon="0.99528">
        <ele>25.660934448242</ele>
        <time>2017-04-09T07:39:08.000Z</time>
        <extensions>
          <gpxtpx:TrackPointExtension xmlns:gpxtpx="http://www.garmin.com/xmlschemas/TrackPointExtension/v1">
            <gpxtpx:hr>119</gpxtpx:hr>
          </gpxtpx:TrackPointExtension>
        </extensions>
      </trkpt>
      <trkpt lat="49.31779" lon="0.9951">
        <ele>22.975419998169</ele>
        <time>2017-04-09T07:39:10.000Z</time>
        <extensions>
          <gpxtpx:TrackPointExtension xmlns:gpxtpx="http://www.garmin.com/xmlschemas/TrackPointExtension/v1">
            <gpxtpx:hr>126</gpxtpx:hr>
          </gpxtpx:TrackPointExtension>
        </extensions>
      </trkpt>
      <trkpt lat="49.31796" lon="0.9948">
        <ele>20.929359436035</ele>
        <time>2017-04-09T07:39:13.000Z</time>
        <extensions>
          <gpxtpx:TrackPointExtension xmlns:gpxtpx="http://www.garmin.com/xmlschemas/TrackPointExtension/v1">
            <gpxtpx:hr>131</gpxtpx:hr>
          </gpxtpx:TrackPointExtension>
        </extensions>
      </trkpt>
      <trkpt lat="49.31806" lon="0.99459">
        <ele>19.781803131104</ele>
        <time>2017-04-09T07:39:16.000Z</time>
        <extensions>
          <gpxtpx:TrackPointExtension xmlns:gpxtpx="http://www.garmin.com/xmlschemas/TrackPointExtension/v1">
            <gpxtpx:hr>134</gpxtpx:hr>
          </gpxtpx:TrackPointExtension>
        </extensions>
      </trkpt>
      <trkpt lat="49.31816" lon="0.99444">
        <ele>19.02227973938</ele>
        <time>2017-04-09T07:39:19.000Z</time>
        <extensions>
          <gpxtpx:TrackPointExtension xmlns:gpxtpx="http://www.garmin.com/xmlschemas/TrackPointExtension/v1">
            <gpxtpx:hr>131</gpxtpx:hr>
          </gpxtpx:TrackPointExtension>
        </extensions>
      </trkpt>
      <trkpt lat="49.31824" lon="0.99439">
        <ele>18.41756439209</ele>
        <time>2017-04-09T07:39:21.000Z</time>
        <extensions>
          <gpxtpx:TrackPointExtension xmlns:gpxtpx="http://www.garmin.com/xmlschemas/TrackPointExtension/v1">
            <gpxtpx:hr>133</gpxtpx:hr>
          </gpxtpx:TrackPointExtension>
        </extensions>
      </trkpt>
      <trkpt lat="49.31836" lon="0.99427">
        <ele>17.916913986206</ele>
        <time>2017-04-09T07:39:24.000Z</time>
      </trkpt>
      <trkpt lat="49.31849" lon="0.99417">
        <ele>17.446826934814</ele>
        <time>2017-04-09T07:39:27.000Z</time>
      </trkpt>
      <trkpt lat="49.3186" lon="0.99406">
        <ele>17.205905914307</ele>
        <time>2017-04-09T07:39:30.000Z</time>
      </trkpt>
      <trkpt lat="49.31867" lon="0.99396">
        <ele>17.146018981934</ele>
        <time>2017-04-09T07:39:32.000Z</time>
      </trkpt>
      <trkpt lat="49.31881" lon="0.99388">
        <ele>17.275888442993</ele>
        <time>2017-04-09T07:39:35.000Z</time>
      </trkpt>
      <trkpt lat="49.31893" lon="0.99373">
        <ele>17.57719039917</ele>
        <time>2017-04-09T07:39:38.000Z</time>
      </trkpt>
      <trkpt lat="49.31902" lon="0.99363">
        <ele>17.92932510376</ele>
        <time>2017-04-09T07:39:41.000Z</time>
      </trkpt>
      <trkpt lat="49.31908" lon="0.99357">
        <ele>18.131511688232</ele>
        <time>2017-04-09T07:39:43.000Z</time>
      </trkpt>
      <trkpt lat="49.31909" lon="0.99352">
        <ele>18.232074737549</ele>
        <time>2017-04-09T07:39:46.000Z</time>
      </trkpt>
      <trkpt lat="49.31909" lon="0.99352">
        <ele>18.232074737549</ele>
        <time>2017-04-09T07:39:56.000Z</time>
      </trkpt>
      <trkpt lat="49.31909" lon="0.9935">
        <ele>18.140649795532</ele>
        <time>2017-04-09T07:40:37.000Z</time>
        <extensions>
          <gpxtpx:TrackPointExtension xmlns:gpxtpx="http://www.garmin.com/xmlschemas/TrackPointExtension/v1">
            <gpxtpx:hr>127</gpxtpx:hr>
          </gpxtpx:TrackPointExtension>
        </extensions>
      </trkpt>
      <trkpt lat="49.3191" lon="0.99345">
        <ele>17.972270965576</ele>
        <time>2017-04-09T07:40:39.000Z</time>
        <extensions>
          <gpxtpx:TrackPointExtension xmlns:gpxtpx="http://www.garmin.com/xmlschemas/TrackPointExtension/v1">
            <gpxtpx:hr>124</gpxtpx:hr>
          </gpxtpx:TrackPointExtension>
        </extensions>
      </trkpt>
      <trkpt lat="49.31914" lon="0.99329">
        <ele>17.663228988647</ele>
        <time>2017-04-09T07:40:42.000Z</time>
        <extensions>
          <gpxtpx:TrackPointExtension xmlns:gpxtpx="http://www.garmin.com/xmlschemas/TrackPointExtension/v1">
            <gpxtpx:hr>124</gpxtpx:hr>
          </gpxtpx:TrackPointExtension>
        </extensions>
      </trkpt>
      <trkpt lat="49.31919" lon="0.99314">
        <ele>17.39387512207</ele>
        <time>2017-04-09T07:40:44.000Z</time>
        <extensions>
          <gpxtpx:TrackPointExtension xmlns:gpxtpx="http://www.garmin.com/xmlschemas/TrackPointExtension/v1">
            <gpxtpx:hr>125</gpxtpx:hr>
          </gpxtpx:TrackPointExtension>
        </extensions>
      </trkpt>
      <trkpt lat="49.3193" lon="0.99291">
        <ele>17.431680679321</ele>
        <time>2017-04-09T07:40:47.000Z</time>
        <extensions>
          <gpxtpx:TrackPointExtension xmlns:gpxtpx="http://www.garmin.com/xmlschemas/TrackPointExtension/v1">
            <gpxtpx:hr>112</gpxtpx:hr>
          </gpxtpx:TrackPointExtension>
        </extensions>
      </trkpt>
      <trkpt lat="49.31936" lon="0.99277">
        <ele>17.587446212769</ele>
        <time>2017-04-09T07:40:49.000Z</time>
        <extensions>
          <gpxtpx:TrackPointExtension xmlns:gpxtpx="http://www.garmin.com/xmlschemas/TrackPointExtension/v1">
            <gpxtpx:hr>121</gpxtpx:hr>
          </gpxtpx:TrackPointExtension>
        </extensions>
      </trkpt>
      <trkpt lat="49.31947" lon="0.99254">
        <ele>17.894910812378</ele>
        <time>2017-04-09T07:40:52.000Z</time>
        <extensions>
          <gpxtpx:TrackPointExtension xmlns:gpxtpx="http://www.garmin.com/xmlschemas/TrackPointExtension/v1">
            <gpxtpx:hr>118</gpxtpx:hr>
          </gpxtpx:TrackPointExtension>
        </extensions>
      </trkpt>
      <trkpt lat="49.31959" lon="0.99232">
        <ele>18.472137451172</ele>
        <time>2017-04-09T07:40:55.000Z</time>
        <extensions>
          <gpxtpx:TrackPointExtension xmlns:gpxtpx="http://www.garmin.com/xmlschemas/TrackPointExtension/v1">
            <gpxtpx:hr>108</gpxtpx:hr>
          </gpxtpx:TrackPointExtension>
        </extensions>
      </trkpt>
      <trkpt lat="49.31974" lon="0.99206">
        <ele>19.018539428711</ele>
        <time>2017-04-09T07:40:58.000Z</time>
        <extensions>
          <gpxtpx:TrackPointExtension xmlns:gpxtpx="http://www.garmin.com/xmlschemas/TrackPointExtension/v1">
            <gpxtpx:hr>113</gpxtpx:hr>
          </gpxtpx:TrackPointExtension>
        </extensions>
      </trkpt>
      <trkpt lat="49.31982" lon="0.9919">
        <ele>19.204797744751</ele>
        <time>2017-04-09T07:41:00.000Z</time>
        <extensions>
          <gpxtpx:TrackPointExtension xmlns:gpxtpx="http://www.garmin.com/xmlschemas/TrackPointExtension/v1">
            <gpxtpx:hr>120</gpxtpx:hr>
          </gpxtpx:TrackPointExtension>
        </extensions>
      </trkpt>
      <trkpt lat="49.31989" lon="0.99173">
        <ele>19.095821380615</ele>
        <time>2017-04-09T07:41:02.000Z</time>
        <extensions>
          <gpxtpx:TrackPointExtension xmlns:gpxtpx="http://www.garmin.com/xmlschemas/TrackPointExtension/v1">
            <gpxtpx:hr>125</gpxtpx:hr>
          </gpxtpx:TrackPointExtension>
        </extensions>
      </trkpt>
      <trkpt lat="49.31998" lon="0.9915">
        <ele>18.68265914917</ele>
        <time>2017-04-09T07:41:05.000Z</time>
        <extensions>
          <gpxtpx:TrackPointExtension xmlns:gpxtpx="http://www.garmin.com/xmlschemas/TrackPointExtension/v1">
            <gpxtpx:hr>127</gpxtpx:hr>
          </gpxtpx:TrackPointExtension>
        </extensions>
      </trkpt>
      <trkpt lat="49.32011" lon="0.99124">
        <ele>18.493316650391</ele>
        <time>2017-04-09T07:41:08.000Z</time>
        <extensions>
          <gpxtpx:TrackPointExtension xmlns:gpxtpx="http://www.garmin.com/xmlschemas/TrackPointExtension/v1">
            <gpxtpx:hr>136</gpxtpx:hr>
          </gpxtpx:TrackPointExtension>
        </extensions>
      </trkpt>
      <trkpt lat="49.3202" lon="0.99109">
        <ele>18.667203903198</ele>
        <time>2017-04-09T07:41:10.000Z</time>
        <extensions>
          <gpxtpx:TrackPointExtension xmlns:gpxtpx="http://www.garmin.com/xmlschemas/TrackPointExtension/v1">
            <gpxtpx:hr>149</gpxtpx:hr>
          </gpxtpx:TrackPointExtension>
        </extensions>
      </trkpt>
      <trkpt lat="49.32027" lon="0.99093">
        <ele>19.126953125</ele>
        <time>2017-04-09T07:41:12.000Z</time>
        <extensions>
          <gpxtpx:TrackPointExtension xmlns:gpxtpx="http://www.garmin.com/xmlschemas/TrackPointExtension/v1">
            <gpxtpx:hr>156</gpxtpx:hr>
          </gpxtpx:TrackPointExtension>
        </extensions>
      </trkpt>
      <trkpt lat="49.32036" lon="0.99075">
        <ele>20.035348892212</ele>
        <time>2017-04-09T07:41:15.000Z</time>
        <extensions>
          <gpxtpx:TrackPointExtension xmlns:gpxtpx="http://www.garmin.com/xmlschemas/TrackPointExtension/v1">
            <gpxtpx:hr>157</gpxtpx:hr>
          </gpxtpx:TrackPointExtension>
        </extensions>
      </trkpt>
      <trkpt lat="49.32042" lon="0.99066">
        <ele>21.380764007568</ele>
        <time>2017-04-09T07:41:17.000Z</time>
        <extensions>
          <gpxtpx:TrackPointExtension xmlns:gpxtpx="http://www.garmin.com/xmlschemas/TrackPointExtension/v1">
            <gpxtpx:hr>160</gpxtpx:hr>
          </gpxtpx:TrackPointExtension>
        </extensions>
      </trkpt>
      <trkpt lat="49.32045" lon="0.99065">
        <ele>22.556484222412</ele>
        <time>2017-04-09T07:41:19.000Z</time>
        <extensions>
          <gpxtpx:TrackPointExtension xmlns:gpxtpx="http://www.garmin.com/xmlschemas/TrackPointExtension/v1">
            <gpxtpx:hr>162</gpxtpx:hr>
          </gpxtpx:TrackPointExtension>
        </extensions>
      </trkpt>
      <trkpt lat="49.32053" lon="0.99067">
        <ele>23.765630722046</ele>
        <time>2017-04-09T07:41:22.000Z</time>
      </trkpt>
      <trkpt lat="49.32053" lon="0.99065">
        <ele>24.783987045288</ele>
        <time>2017-04-09T07:41:25.000Z</time>
      </trkpt>
      <trkpt lat="49.32058" lon="0.9906">
        <ele>25.717031478882</ele>
        <time>2017-04-09T07:41:28.000Z</time>
      </trkpt>
      <trkpt lat="49.3206" lon="0.99058">
        <ele>26.499866485596</ele>
        <time>2017-04-09T07:41:30.000Z</time>
      </trkpt>
      <trkpt lat="49.32063" lon="0.99053">
        <ele>27.190557479858</ele>
        <time>2017-04-09T07:41:33.000Z</time>
      </trkpt>
      <trkpt lat="49.32066" lon="0.9905">
        <ele>27.529592514038</ele>
        <time>2017-04-09T07:41:35.000Z</time>
      </trkpt>
      <trkpt lat="49.32068" lon="0.99046">
        <ele>27.902648925781</ele>
        <time>2017-04-09T07:41:37.000Z</time>
      </trkpt>
      <trkpt lat="49.32071" lon="0.9904">
        <ele>28.12325668335</ele>
        <time>2017-04-09T07:41:39.000Z</time>
      </trkpt>
      <trkpt lat="49.32074" lon="0.99036">
        <ele>28.320789337158</ele>
        <time>2017-04-09T07:41:42.000Z</time>
      </trkpt>
      <trkpt lat="49.32077" lon="0.99034">
        <ele>28.488275527954</ele>
        <time>2017-04-09T07:41:44.000Z</time>
      </trkpt>
      <trkpt lat="49.32079" lon="0.99031">
        <ele>28.613794326782</ele>
        <time>2017-04-09T07:41:46.000Z</time>
      </trkpt>
      <trkpt lat="49.32082" lon="0.99026">
        <ele>28.738809585571</ele>
        <time>2017-04-09T07:41:49.000Z</time>
      </trkpt>
      <trkpt lat="49.32086" lon="0.99021">
        <ele>28.949634552002</ele>
        <time>2017-04-09T07:41:52.000Z</time>
      </trkpt>
      <trkpt lat="49.32089" lon="0.99016">
        <ele>29.221826553345</ele>
        <time>2017-04-09T07:41:55.000Z</time>
      </trkpt>
      <trkpt lat="49.32093" lon="0.99009">
        <ele>29.574504852295</ele>
        <time>2017-04-09T07:41:58.000Z</time>
      </trkpt>
      <trkpt lat="49.32097" lon="0.99002">
        <ele>29.980991363525</ele>
        <time>2017-04-09T07:42:01.000Z</time>
        <extensions>
          <gpxtpx:TrackPointExtension xmlns:gpxtpx="http://www.garmin.com/xmlschemas/TrackPointExtension/v1">
            <gpxtpx:hr>163</gpxtpx:hr>
          </gpxtpx:TrackPointExtension>
        </extensions>
      </trkpt>
      <trkpt lat="49.32099" lon="0.98995">
        <ele>30.383605957031</ele>
        <time>2017-04-09T07:42:04.000Z</time>
        <extensions>
          <gpxtpx:TrackPointExtension xmlns:gpxtpx="http://www.garmin.com/xmlschemas/TrackPointExtension/v1">
            <gpxtpx:hr>161</gpxtpx:hr>
          </gpxtpx:TrackPointExtension>
        </extensions>
      </trkpt>
      <trkpt lat="49.32102" lon="0.9899">
        <ele>30.842483520508</ele>
        <time>2017-04-09T07:42:11.000Z</time>
        <extensions>
          <gpxtpx:TrackPointExtension xmlns:gpxtpx="http://www.garmin.com/xmlschemas/TrackPointExtension/v1">
            <gpxtpx:hr>159</gpxtpx:hr>
          </gpxtpx:TrackPointExtension>
        </extensions>
      </trkpt>
      <trkpt lat="49.32103" lon="0.98987">
        <ele>31.237289428711</ele>
        <time>2017-04-09T07:42:20.000Z</time>
        <extensions>
          <gpxtpx:TrackPointExtension xmlns:gpxtpx="http://www.garmin.com/xmlschemas/TrackPointExtension/v1">
            <gpxtpx:hr>156</gpxtpx:hr>
          </gpxtpx:TrackPointExtension>
        </extensions>
      </trkpt>
      <trkpt lat="49.32104" lon="0.98984">
        <ele>31.543060302734</ele>
        <time>2017-04-09T07:42:22.000Z</time>
        <extensions>
          <gpxtpx:TrackPointExtension xmlns:gpxtpx="http://www.garmin.com/xmlschemas/TrackPointExtension/v1">
            <gpxtpx:hr>153</gpxtpx:hr>
          </gpxtpx:TrackPointExtension>
        </extensions>
      </trkpt>
      <trkpt lat="49.32106" lon="0.98981">
        <ele>31.822870254517</ele>
        <time>2017-04-09T07:42:24.000Z</time>
        <extensions>
          <gpxtpx:TrackPointExtension xmlns:gpxtpx="http://www.garmin.com/xmlschemas/TrackPointExtension/v1">
            <gpxtpx:hr>153</gpxtpx:hr>
          </gpxtpx:TrackPointExtension>
        </extensions>
      </trkpt>
      <trkpt lat="49.32108" lon="0.98974">
        <ele>32.124656677246</ele>
        <time>2017-04-09T07:42:27.000Z</time>
        <extensions>
          <gpxtpx:TrackPointExtension xmlns:gpxtpx="http://www.garmin.com/xmlschemas/TrackPointExtension/v1">
            <gpxtpx:hr>156</gpxtpx:hr>
          </gpxtpx:TrackPointExtension>
        </extensions>
      </trkpt>
      <trkpt lat="49.32111" lon="0.98967">
        <ele>32.409526824951</ele>
        <time>2017-04-09T07:42:30.000Z</time>
        <extensions>
          <gpxtpx:TrackPointExtension xmlns:gpxtpx="http://www.garmin.com/xmlschemas/TrackPointExtension/v1">
            <gpxtpx:hr>159</gpxtpx:hr>
          </gpxtpx:TrackPointExtension>
        </extensions>
      </trkpt>
      <trkpt lat="49.32112" lon="0.98964">
        <ele>32.654560089111</ele>
        <time>2017-04-09T07:42:32.000Z</time>
        <extensions>
          <gpxtpx:TrackPointExtension xmlns:gpxtpx="http://www.garmin.com/xmlschemas/TrackPointExtension/v1">
            <gpxtpx:hr>160</gpxtpx:hr>
          </gpxtpx:TrackPointExtension>
        </extensions>
      </trkpt>
      <trkpt lat="49.32112" lon="0.98959">
        <ele>32.789665222168</ele>
        <time>2017-04-09T07:42:35.000Z</time>
      </trkpt>
      <trkpt lat="49.32113" lon="0.98954">
        <ele>32.870018005371</ele>
        <time>2017-04-09T07:42:38.000Z</time>
      </trkpt>
      <trkpt lat="49.32112" lon="0.98949">
        <ele>32.777961730957</ele>
        <time>2017-04-09T07:42:40.000Z</time>
      </trkpt>
      <trkpt lat="49.32113" lon="0.98942">
        <ele>32.574226379395</ele>
        <time>2017-04-09T07:42:43.000Z</time>
      </trkpt>
      <trkpt lat="49.32115" lon="0.98939">
        <ele>32.429862976074</ele>
        <time>2017-04-09T07:42:45.000Z</time>
      </trkpt>
      <trkpt lat="49.32119" lon="0.9893">
        <ele>32.501235961914</ele>
        <time>2017-04-09T07:42:48.000Z</time>
      </trkpt>
      <trkpt lat="49.32121" lon="0.98925">
        <ele>32.670722961426</ele>
        <time>2017-04-09T07:42:50.000Z</time>
      </trkpt>
      <trkpt lat="49.32121" lon="0.98916">
        <ele>32.873039245605</ele>
        <time>2017-04-09T07:42:53.000Z</time>
      </trkpt>
      <trkpt lat="49.32121" lon="0.98912">
        <ele>32.969970703125</ele>
        <time>2017-04-09T07:42:55.000Z</time>
      </trkpt>
      <trkpt lat="49.32121" lon="0.98907">
        <ele>33.000316619873</ele>
        <time>2017-04-09T07:42:57.000Z</time>
      </trkpt>
      <trkpt lat="49.32124" lon="0.989">
        <ele>33.047035217285</ele>
        <time>2017-04-09T07:43:00.000Z</time>
        <extensions>
          <gpxtpx:TrackPointExtension xmlns:gpxtpx="http://www.garmin.com/xmlschemas/TrackPointExtension/v1">
            <gpxtpx:hr>160</gpxtpx:hr>
          </gpxtpx:TrackPointExtension>
        </extensions>
      </trkpt>
      <trkpt lat="49.32127" lon="0.98896">
        <ele>33.220905303955</ele>
        <time>2017-04-09T07:43:02.000Z</time>
        <extensions>
          <gpxtpx:TrackPointExtension xmlns:gpxtpx="http://www.garmin.com/xmlschemas/TrackPointExtension/v1">
            <gpxtpx:hr>164</gpxtpx:hr>
          </gpxtpx:TrackPointExtension>
        </extensions>
      </trkpt>
      <trkpt lat="49.32132" lon="0.9889">
        <ele>33.82177734375</ele>
        <time>2017-04-09T07:43:05.000Z</time>
        <extensions>
          <gpxtpx:TrackPointExtension xmlns:gpxtpx="http://www.garmin.com/xmlschemas/TrackPointExtension/v1">
            <gpxtpx:hr>162</gpxtpx:hr>
          </gpxtpx:TrackPointExtension>
        </extensions>
      </trkpt>
      <trkpt lat="49.32136" lon="0.98883">
        <ele>34.748931884766</ele>
        <time>2017-04-09T07:43:08.000Z</time>
        <extensions>
          <gpxtpx:TrackPointExtension xmlns:gpxtpx="http://www.garmin.com/xmlschemas/TrackPointExtension/v1">
            <gpxtpx:hr>159</gpxtpx:hr>
          </gpxtpx:TrackPointExtension>
        </extensions>
      </trkpt>
      <trkpt lat="49.32138" lon="0.98877">
        <ele>35.773490905762</ele>
        <time>2017-04-09T07:43:11.000Z</time>
        <extensions>
          <gpxtpx:TrackPointExtension xmlns:gpxtpx="http://www.garmin.com/xmlschemas/TrackPointExtension/v1">
            <gpxtpx:hr>158</gpxtpx:hr>
          </gpxtpx:TrackPointExtension>
        </extensions>
      </trkpt>
      <trkpt lat="49.32139" lon="0.98874">
        <ele>36.638557434082</ele>
        <time>2017-04-09T07:43:13.000Z</time>
        <extensions>
          <gpxtpx:TrackPointExtension xmlns:gpxtpx="http://www.garmin.com/xmlschemas/TrackPointExtension/v1">
            <gpxtpx:hr>157</gpxtpx:hr>
          </gpxtpx:TrackPointExtension>
        </extensions>
      </trkpt>
      <trkpt lat="49.32138" lon="0.98872">
        <ele>37.219440460205</ele>
        <time>2017-04-09T07:43:18.000Z</time>
        <extensions>
          <gpxtpx:TrackPointExtension xmlns:gpxtpx="http://www.garmin.com/xmlschemas/TrackPointExtension/v1">
            <gpxtpx:hr>157</gpxtpx:hr>
          </gpxtpx:TrackPointExtension>
        </extensions>
      </trkpt>
      <trkpt lat="49.32139" lon="0.98871">
        <ele>37.551551818848</ele>
        <time>2017-04-09T07:43:22.000Z</time>
        <extensions>
          <gpxtpx:TrackPointExtension xmlns:gpxtpx="http://www.garmin.com/xmlschemas/TrackPointExtension/v1">
            <gpxtpx:hr>153</gpxtpx:hr>
          </gpxtpx:TrackPointExtension>
        </extensions>
      </trkpt>
      <trkpt lat="49.32142" lon="0.98867">
        <ele>37.809928894043</ele>
        <time>2017-04-09T07:43:24.000Z</time>
        <extensions>
          <gpxtpx:TrackPointExtension xmlns:gpxtpx="http://www.garmin.com/xmlschemas/TrackPointExtension/v1">
            <gpxtpx:hr>155</gpxtpx:hr>
          </gpxtpx:TrackPointExtension>
        </extensions>
      </trkpt>
      <trkpt lat="49.32145" lon="0.98862">
        <ele>38.088005065918</ele>
        <time>2017-04-09T07:43:26.000Z</time>
      </trkpt>
      <trkpt lat="49.32145" lon="0.98853">
        <ele>38.334297180176</ele>
        <time>2017-04-09T07:43:29.000Z</time>
      </trkpt>
      <trkpt lat="49.32147" lon="0.98845">
        <ele>38.695873260498</ele>
        <time>2017-04-09T07:43:32.000Z</time>
      </trkpt>
      <trkpt lat="49.32148" lon="0.98841">
        <ele>39.046348571777</ele>
        <time>2017-04-09T07:43:34.000Z</time>
      </trkpt>
      <trkpt lat="49.3215" lon="0.98837">
        <ele>39.304874420166</ele>
        <time>2017-04-09T07:43:36.000Z</time>
      </trkpt>
      <trkpt lat="49.32152" lon="0.98831">
        <ele>39.46231842041</ele>
        <time>2017-04-09T07:43:39.000Z</time>
      </trkpt>
      <trkpt lat="49.32154" lon="0.98825">
        <ele>39.674674987793</ele>
        <time>2017-04-09T07:43:41.000Z</time>
      </trkpt>
      <trkpt lat="49.32156" lon="0.98816">
        <ele>39.821929931641</ele>
        <time>2017-04-09T07:43:43.000Z</time>
      </trkpt>
      <trkpt lat="49.32157" lon="0.98811">
        <ele>39.788108825684</ele>
        <time>2017-04-09T07:43:45.000Z</time>
      </trkpt>
      <trkpt lat="49.32155" lon="0.98803">
        <ele>39.426399230957</ele>
        <time>2017-04-09T07:43:48.000Z</time>
      </trkpt>
      <trkpt lat="49.32158" lon="0.98794">
        <ele>38.981437683105</ele>
        <time>2017-04-09T07:43:50.000Z</time>
      </trkpt>
      <trkpt lat="49.32162" lon="0.98785">
        <ele>38.565452575684</ele>
        <time>2017-04-09T07:43:53.000Z</time>
      </trkpt>
      <trkpt lat="49.32167" lon="0.98775">
        <ele>38.210681915283</ele>
        <time>2017-04-09T07:43:56.000Z</time>
      </trkpt>
      <trkpt lat="49.32169" lon="0.98769">
        <ele>37.941593170166</ele>
        <time>2017-04-09T07:43:58.000Z</time>
      </trkpt>
      <trkpt lat="49.32174" lon="0.9876">
        <ele>37.955406188965</ele>
        <time>2017-04-09T07:44:01.000Z</time>
        <extensions>
          <gpxtpx:TrackPointExtension xmlns:gpxtpx="http://www.garmin.com/xmlschemas/TrackPointExtension/v1">
            <gpxtpx:hr>156</gpxtpx:hr>
          </gpxtpx:TrackPointExtension>
        </extensions>
      </trkpt>
      <trkpt lat="49.32176" lon="0.98756">
        <ele>38.060607910156</ele>
        <time>2017-04-09T07:44:03.000Z</time>
        <extensions>
          <gpxtpx:TrackPointExtension xmlns:gpxtpx="http://www.garmin.com/xmlschemas/TrackPointExtension/v1">
            <gpxtpx:hr>158</gpxtpx:hr>
          </gpxtpx:TrackPointExtension>
        </extensions>
      </trkpt>
      <trkpt lat="49.32178" lon="0.98749">
        <ele>38.101757049561</ele>
        <time>2017-04-09T07:44:06.000Z</time>
        <extensions>
          <gpxtpx:TrackPointExtension xmlns:gpxtpx="http://www.garmin.com/xmlschemas/TrackPointExtension/v1">
            <gpxtpx:hr>156</gpxtpx:hr>
          </gpxtpx:TrackPointExtension>
        </extensions>
      </trkpt>
      <trkpt lat="49.32182" lon="0.98743">
        <ele>38.27534866333</ele>
        <time>2017-04-09T07:44:08.000Z</time>
        <extensions>
          <gpxtpx:TrackPointExtension xmlns:gpxtpx="http://www.garmin.com/xmlschemas/TrackPointExtension/v1">
            <gpxtpx:hr>154</gpxtpx:hr>
          </gpxtpx:TrackPointExtension>
        </extensions>
      </trkpt>
      <trkpt lat="49.32184" lon="0.98739">
        <ele>38.628810882568</ele>
        <time>2017-04-09T07:44:10.000Z</time>
        <extensions>
          <gpxtpx:TrackPointExtension xmlns:gpxtpx="http://www.garmin.com/xmlschemas/TrackPointExtension/v1">
            <gpxtpx:hr>151</gpxtpx:hr>
          </gpxtpx:TrackPointExtension>
        </extensions>
      </trkpt>
      <trkpt lat="49.32189" lon="0.98733">
        <ele>39.226547241211</ele>
        <time>2017-04-09T07:44:13.000Z</time>
        <extensions>
          <gpxtpx:TrackPointExtension xmlns:gpxtpx="http://www.garmin.com/xmlschemas/TrackPointExtension/v1">
            <gpxtpx:hr>151</gpxtpx:hr>
          </gpxtpx:TrackPointExtension>
        </extensions>
      </trkpt>
      <trkpt lat="49.32191" lon="0.98729">
        <ele>39.894477844238</ele>
        <time>2017-04-09T07:44:15.000Z</time>
        <extensions>
          <gpxtpx:TrackPointExtension xmlns:gpxtpx="http://www.garmin.com/xmlschemas/TrackPointExtension/v1">
            <gpxtpx:hr>153</gpxtpx:hr>
          </gpxtpx:TrackPointExtension>
        </extensions>
      </trkpt>
      <trkpt lat="49.32194" lon="0.98721">
        <ele>40.734100341797</ele>
        <time>2017-04-09T07:44:18.000Z</time>
        <extensions>
          <gpxtpx:TrackPointExtension xmlns:gpxtpx="http://www.garmin.com/xmlschemas/TrackPointExtension/v1">
            <gpxtpx:hr>156</gpxtpx:hr>
          </gpxtpx:TrackPointExtension>
        </extensions>
      </trkpt>
      <trkpt lat="49.32198" lon="0.98715">
        <ele>41.631378173828</ele>
        <time>2017-04-09T07:44:21.000Z</time>
        <extensions>
          <gpxtpx:TrackPointExtension xmlns:gpxtpx="http://www.garmin.com/xmlschemas/TrackPointExtension/v1">
            <gpxtpx:hr>159</gpxtpx:hr>
          </gpxtpx:TrackPointExtension>
        </extensions>
      </trkpt>
      <trkpt lat="49.32202" lon="0.98708">
        <ele>42.614521026611</ele>
        <time>2017-04-09T07:44:24.000Z</time>
      </trkpt>
      <trkpt lat="49.32205" lon="0.98701">
        <ele>43.507221221924</ele>
        <time>2017-04-09T07:44:27.000Z</time>
      </trkpt>
      <trkpt lat="49.32207" lon="0.98695">
        <ele>44.419055938721</ele>
        <time>2017-04-09T07:44:29.000Z</time>
      </trkpt>
      <trkpt lat="49.32208" lon="0.98689">
        <ele>45.19751739502</ele>
        <time>2017-04-09T07:44:31.000Z</time>
      </trkpt>
      <trkpt lat="49.32208" lon="0.9868">
        <ele>45.787300109863</ele>
        <time>2017-04-09T07:44:34.000Z</time>
      </trkpt>
      <trkpt lat="49.32208" lon="0.98675">
        <ele>46.121101379395</ele>
        <time>2017-04-09T07:44:36.000Z</time>
      </trkpt>
      <trkpt lat="49.32206" lon="0.9867">
        <ele>46.202186584473</ele>
        <time>2017-04-09T07:44:38.000Z</time>
      </trkpt>
      <trkpt lat="49.32205" lon="0.98665">
        <ele>46.16185760498</ele>
        <time>2017-04-09T07:44:40.000Z</time>
      </trkpt>
      <trkpt lat="49.32204" lon="0.98659">
        <ele>46.174030303955</ele>
        <time>2017-04-09T07:44:43.000Z</time>
      </trkpt>
      <trkpt lat="49.32203" lon="0.98656">
        <ele>46.129005432129</ele>
        <time>2017-04-09T07:44:45.000Z</time>
      </trkpt>
      <trkpt lat="49.32199" lon="0.9865">
        <ele>46.019950866699</ele>
        <time>2017-04-09T07:44:48.000Z</time>
      </trkpt>
      <trkpt lat="49.32193" lon="0.98645">
        <ele>45.827854156494</ele>
        <time>2017-04-09T07:44:51.000Z</time>
      </trkpt>
      <trkpt lat="49.32188" lon="0.9864">
        <ele>45.497997283936</ele>
        <time>2017-04-09T07:44:54.000Z</time>
      </trkpt>
      <trkpt lat="49.32185" lon="0.98638">
        <ele>45.004615783691</ele>
        <time>2017-04-09T07:44:56.000Z</time>
      </trkpt>
      <trkpt lat="49.3218" lon="0.98634">
        <ele>44.400238037109</ele>
        <time>2017-04-09T07:44:59.000Z</time>
      </trkpt>
      <trkpt lat="49.32177" lon="0.98632">
        <ele>43.793663024902</ele>
        <time>2017-04-09T07:45:01.000Z</time>
        <extensions>
          <gpxtpx:TrackPointExtension xmlns:gpxtpx="http://www.garmin.com/xmlschemas/TrackPointExtension/v1">
            <gpxtpx:hr>162</gpxtpx:hr>
          </gpxtpx:TrackPointExtension>
        </extensions>
      </trkpt>
      <trkpt lat="49.32172" lon="0.98628">
        <ele>43.252811431885</ele>
        <time>2017-04-09T07:45:04.000Z</time>
        <extensions>
          <gpxtpx:TrackPointExtension xmlns:gpxtpx="http://www.garmin.com/xmlschemas/TrackPointExtension/v1">
            <gpxtpx:hr>165</gpxtpx:hr>
          </gpxtpx:TrackPointExtension>
        </extensions>
      </trkpt>
      <trkpt lat="49.32169" lon="0.98623">
        <ele>42.84211730957</ele>
        <time>2017-04-09T07:45:06.000Z</time>
        <extensions>
          <gpxtpx:TrackPointExtension xmlns:gpxtpx="http://www.garmin.com/xmlschemas/TrackPointExtension/v1">
            <gpxtpx:hr>166</gpxtpx:hr>
          </gpxtpx:TrackPointExtension>
        </extensions>
      </trkpt>
      <trkpt lat="49.32166" lon="0.98618">
        <ele>42.538551330566</ele>
        <time>2017-04-09T07:45:09.000Z</time>
        <extensions>
          <gpxtpx:TrackPointExtension xmlns:gpxtpx="http://www.garmin.com/xmlschemas/TrackPointExtension/v1">
            <gpxtpx:hr>164</gpxtpx:hr>
          </gpxtpx:TrackPointExtension>
        </extensions>
      </trkpt>
      <trkpt lat="49.32165" lon="0.98613">
        <ele>42.46361541748</ele>
        <time>2017-04-09T07:45:11.000Z</time>
        <extensions>
          <gpxtpx:TrackPointExtension xmlns:gpxtpx="http://www.garmin.com/xmlschemas/TrackPointExtension/v1">
            <gpxtpx:hr>162</gpxtpx:hr>
          </gpxtpx:TrackPointExtension>
        </extensions>
      </trkpt>
      <trkpt lat="49.32167" lon="0.98606">
        <ele>42.729816436768</ele>
        <time>2017-04-09T07:45:14.000Z</time>
        <extensions>
          <gpxtpx:TrackPointExtension xmlns:gpxtpx="http://www.garmin.com/xmlschemas/TrackPointExtension/v1">
            <gpxtpx:hr>160</gpxtpx:hr>
          </gpxtpx:TrackPointExtension>
        </extensions>
      </trkpt>
      <trkpt lat="49.32169" lon="0.98599">
        <ele>43.350257873535</ele>
        <time>2017-04-09T07:45:17.000Z</time>
        <extensions>
          <gpxtpx:TrackPointExtension xmlns:gpxtpx="http://www.garmin.com/xmlschemas/TrackPointExtension/v1">
            <gpxtpx:hr>157</gpxtpx:hr>
          </gpxtpx:TrackPointExtension>
        </extensions>
      </trkpt>
      <trkpt lat="49.3217" lon="0.98592">
        <ele>44.175369262695</ele>
        <time>2017-04-09T07:45:19.000Z</time>
      </trkpt>
      <trkpt lat="49.32172" lon="0.98584">
        <ele>45.269832611084</ele>
        <time>2017-04-09T07:45:22.000Z</time>
      </trkpt>
      <trkpt lat="49.32173" lon="0.98577">
        <ele>46.425128936768</ele>
        <time>2017-04-09T07:45:25.000Z</time>
      </trkpt>
      <trkpt lat="49.32175" lon="0.98573">
        <ele>47.419239044189</ele>
        <time>2017-04-09T07:45:27.000Z</time>
      </trkpt>
      <trkpt lat="49.32177" lon="0.98569">
        <ele>48.306694030762</ele>
        <time>2017-04-09T07:45:29.000Z</time>
      </trkpt>
      <trkpt lat="49.32181" lon="0.98563">
        <ele>49.183731079102</ele>
        <time>2017-04-09T07:45:32.000Z</time>
      </trkpt>
      <trkpt lat="49.32183" lon="0.9856">
        <ele>49.874412536621</ele>
        <time>2017-04-09T07:45:34.000Z</time>
      </trkpt>
      <trkpt lat="49.32187" lon="0.98554">
        <ele>50.583465576172</ele>
        <time>2017-04-09T07:45:37.000Z</time>
      </trkpt>
      <trkpt lat="49.32191" lon="0.98547">
        <ele>51.384754180908</ele>
        <time>2017-04-09T07:45:40.000Z</time>
      </trkpt>
      <trkpt lat="49.32196" lon="0.98541">
        <ele>52.183177947998</ele>
        <time>2017-04-09T07:45:43.000Z</time>
      </trkpt>
      <trkpt lat="49.32198" lon="0.98533">
        <ele>52.941528320312</ele>
        <time>2017-04-09T07:45:46.000Z</time>
      </trkpt>
      <trkpt lat="49.32201" lon="0.98527">
        <ele>53.679443359375</ele>
        <time>2017-04-09T07:45:48.000Z</time>
      </trkpt>
      <trkpt lat="49.32203" lon="0.98517">
        <ele>54.376197814941</ele>
        <time>2017-04-09T07:45:51.000Z</time>
      </trkpt>
      <trkpt lat="49.32207" lon="0.98509">
        <ele>54.986274719238</ele>
        <time>2017-04-09T07:45:53.000Z</time>
      </trkpt>
      <trkpt lat="49.3221" lon="0.98501">
        <ele>55.539207458496</ele>
        <time>2017-04-09T07:45:55.000Z</time>
      </trkpt>
      <trkpt lat="49.32215" lon="0.98488">
        <ele>55.977607727051</ele>
        <time>2017-04-09T07:45:58.000Z</time>
      </trkpt>
      <trkpt lat="49.32218" lon="0.98479">
        <ele>56.319427490234</ele>
        <time>2017-04-09T07:46:00.000Z</time>
        <extensions>
          <gpxtpx:TrackPointExtension xmlns:gpxtpx="http://www.garmin.com/xmlschemas/TrackPointExtension/v1">
            <gpxtpx:hr>154</gpxtpx:hr>
          </gpxtpx:TrackPointExtension>
        </extensions>
      </trkpt>
      <trkpt lat="49.32221" lon="0.98468">
        <ele>56.527435302734</ele>
        <time>2017-04-09T07:46:02.000Z</time>
        <extensions>
          <gpxtpx:TrackPointExtension xmlns:gpxtpx="http://www.garmin.com/xmlschemas/TrackPointExtension/v1">
            <gpxtpx:hr>148</gpxtpx:hr>
          </gpxtpx:TrackPointExtension>
        </extensions>
      </trkpt>
      <trkpt lat="49.32228" lon="0.98461">
        <ele>56.68041229248</ele>
        <time>2017-04-09T07:46:05.000Z</time>
        <extensions>
          <gpxtpx:TrackPointExtension xmlns:gpxtpx="http://www.garmin.com/xmlschemas/TrackPointExtension/v1">
            <gpxtpx:hr>144</gpxtpx:hr>
          </gpxtpx:TrackPointExtension>
        </extensions>
      </trkpt>
      <trkpt lat="49.32235" lon="0.98455">
        <ele>56.793243408203</ele>
        <time>2017-04-09T07:46:08.000Z</time>
        <extensions>
          <gpxtpx:TrackPointExtension xmlns:gpxtpx="http://www.garmin.com/xmlschemas/TrackPointExtension/v1">
            <gpxtpx:hr>142</gpxtpx:hr>
          </gpxtpx:TrackPointExtension>
        </extensions>
      </trkpt>
      <trkpt lat="49.3224" lon="0.98446">
        <ele>56.889015197754</ele>
        <time>2017-04-09T07:46:11.000Z</time>
        <extensions>
          <gpxtpx:TrackPointExtension xmlns:gpxtpx="http://www.garmin.com/xmlschemas/TrackPointExtension/v1">
            <gpxtpx:hr>143</gpxtpx:hr>
          </gpxtpx:TrackPointExtension>
        </extensions>
      </trkpt>
      <trkpt lat="49.32243" lon="0.98434">
        <ele>56.977600097656</ele>
        <time>2017-04-09T07:46:14.000Z</time>
        <extensions>
          <gpxtpx:TrackPointExtension xmlns:gpxtpx="http://www.garmin.com/xmlschemas/TrackPointExtension/v1">
            <gpxtpx:hr>143</gpxtpx:hr>
          </gpxtpx:TrackPointExtension>
        </extensions>
      </trkpt>
      <trkpt lat="49.32246" lon="0.98422">
        <ele>57.039344787598</ele>
        <time>2017-04-09T07:46:17.000Z</time>
        <extensions>
          <gpxtpx:TrackPointExtension xmlns:gpxtpx="http://www.garmin.com/xmlschemas/TrackPointExtension/v1">
            <gpxtpx:hr>142</gpxtpx:hr>
          </gpxtpx:TrackPointExtension>
        </extensions>
      </trkpt>
      <trkpt lat="49.32248" lon="0.98415">
        <ele>57.023956298828</ele>
        <time>2017-04-09T07:46:19.000Z</time>
        <extensions>
          <gpxtpx:TrackPointExtension xmlns:gpxtpx="http://www.garmin.com/xmlschemas/TrackPointExtension/v1">
            <gpxtpx:hr>138</gpxtpx:hr>
          </gpxtpx:TrackPointExtension>
        </extensions>
      </trkpt>
      <trkpt lat="49.32249" lon="0.98411">
        <ele>56.933204650879</ele>
        <time>2017-04-09T07:46:22.000Z</time>
        <extensions>
          <gpxtpx:TrackPointExtension xmlns:gpxtpx="http://www.garmin.com/xmlschemas/TrackPointExtension/v1">
            <gpxtpx:hr>136</gpxtpx:hr>
          </gpxtpx:TrackPointExtension>
        </extensions>
      </trkpt>
      <trkpt lat="49.3225" lon="0.98411">
        <ele>56.843620300293</ele>
        <time>2017-04-09T07:46:26.000Z</time>
        <extensions>
          <gpxtpx:TrackPointExtension xmlns:gpxtpx="http://www.garmin.com/xmlschemas/TrackPointExtension/v1">
            <gpxtpx:hr>136</gpxtpx:hr>
          </gpxtpx:TrackPointExtension>
        </extensions>
      </trkpt>
      <trkpt lat="49.32253" lon="0.98408">
        <ele>56.796775817871</ele>
        <time>2017-04-09T07:46:29.000Z</time>
      </trkpt>
      <trkpt lat="49.32254" lon="0.98408">
        <ele>56.809211730957</ele>
        <time>2017-04-09T07:46:33.000Z</time>
      </trkpt>
      <trkpt lat="49.32257" lon="0.98407">
        <ele>56.886840820312</ele>
        <time>2017-04-09T07:46:36.000Z</time>
      </trkpt>
      <trkpt lat="49.32257" lon="0.98406">
        <ele>56.988098144531</ele>
        <time>2017-04-09T07:46:39.000Z</time>
      </trkpt>
      <trkpt lat="49.32257" lon="0.98406">
        <ele>56.988098144531</ele>
        <time>2017-04-09T07:46:49.000Z</time>
      </trkpt>
      <trkpt lat="49.32257" lon="0.98408">
        <ele>57.104736328125</ele>
        <time>2017-04-09T07:52:53.000Z</time>
        <extensions>
          <gpxtpx:TrackPointExtension xmlns:gpxtpx="http://www.garmin.com/xmlschemas/TrackPointExtension/v1">
            <gpxtpx:hr>110</gpxtpx:hr>
          </gpxtpx:TrackPointExtension>
        </extensions>
      </trkpt>
      <trkpt lat="49.32257" lon="0.98408">
        <ele>57.104736328125</ele>
        <time>2017-04-09T07:53:13.000Z</time>
        <extensions>
          <gpxtpx:TrackPointExtension xmlns:gpxtpx="http://www.garmin.com/xmlschemas/TrackPointExtension/v1">
            <gpxtpx:hr>110</gpxtpx:hr>
          </gpxtpx:TrackPointExtension>
        </extensions>
      </trkpt>
      <trkpt lat="49.32259" lon="0.98408">
        <ele>57.222290039062</ele>
        <time>2017-04-09T07:55:01.000Z</time>
        <extensions>
          <gpxtpx:TrackPointExtension xmlns:gpxtpx="http://www.garmin.com/xmlschemas/TrackPointExtension/v1">
            <gpxtpx:hr>111</gpxtpx:hr>
          </gpxtpx:TrackPointExtension>
        </extensions>
      </trkpt>
      <trkpt lat="49.32259" lon="0.98408">
        <ele>57.222290039062</ele>
        <time>2017-04-09T07:55:21.000Z</time>
        <extensions>
          <gpxtpx:TrackPointExtension xmlns:gpxtpx="http://www.garmin.com/xmlschemas/TrackPointExtension/v1">
            <gpxtpx:hr>100</gpxtpx:hr>
          </gpxtpx:TrackPointExtension>
        </extensions>
      </trkpt>
      <trkpt lat="49.3226" lon="0.98408">
        <ele>57.333740234375</ele>
        <time>2017-04-09T07:55:25.000Z</time>
        <extensions>
          <gpxtpx:TrackPointExtension xmlns:gpxtpx="http://www.garmin.com/xmlschemas/TrackPointExtension/v1">
            <gpxtpx:hr>111</gpxtpx:hr>
          </gpxtpx:TrackPointExtension>
        </extensions>
      </trkpt>
      <trkpt lat="49.32262" lon="0.98406">
        <ele>57.422973632812</ele>
        <time>2017-04-09T07:55:28.000Z</time>
        <extensions>
          <gpxtpx:TrackPointExtension xmlns:gpxtpx="http://www.garmin.com/xmlschemas/TrackPointExtension/v1">
            <gpxtpx:hr>114</gpxtpx:hr>
          </gpxtpx:TrackPointExtension>
        </extensions>
      </trkpt>
      <trkpt lat="49.32264" lon="0.98405">
        <ele>57.542846679688</ele>
        <time>2017-04-09T07:55:30.000Z</time>
        <extensions>
          <gpxtpx:TrackPointExtension xmlns:gpxtpx="http://www.garmin.com/xmlschemas/TrackPointExtension/v1">
            <gpxtpx:hr>117</gpxtpx:hr>
          </gpxtpx:TrackPointExtension>
        </extensions>
      </trkpt>
      <trkpt lat="49.32269" lon="0.98408">
        <ele>57.755920410156</ele>
        <time>2017-04-09T07:55:33.000Z</time>
        <extensions>
          <gpxtpx:TrackPointExtension xmlns:gpxtpx="http://www.garmin.com/xmlschemas/TrackPointExtension/v1">
            <gpxtpx:hr>122</gpxtpx:hr>
          </gpxtpx:TrackPointExtension>
        </extensions>
      </trkpt>
      <trkpt lat="49.32272" lon="0.98412">
        <ele>58.051452636719</ele>
        <time>2017-04-09T07:55:35.000Z</time>
        <extensions>
          <gpxtpx:TrackPointExtension xmlns:gpxtpx="http://www.garmin.com/xmlschemas/TrackPointExtension/v1">
            <gpxtpx:hr>127</gpxtpx:hr>
          </gpxtpx:TrackPointExtension>
        </extensions>
      </trkpt>
      <trkpt lat="49.32275" lon="0.98416">
        <ele>58.413391113281</ele>
        <time>2017-04-09T07:55:37.000Z</time>
        <extensions>
          <gpxtpx:TrackPointExtension xmlns:gpxtpx="http://www.garmin.com/xmlschemas/TrackPointExtension/v1">
            <gpxtpx:hr>128</gpxtpx:hr>
          </gpxtpx:TrackPointExtension>
        </extensions>
      </trkpt>
      <trkpt lat="49.32279" lon="0.98421">
        <ele>58.873718261719</ele>
        <time>2017-04-09T07:55:40.000Z</time>
        <extensions>
          <gpxtpx:TrackPointExtension xmlns:gpxtpx="http://www.garmin.com/xmlschemas/TrackPointExtension/v1">
            <gpxtpx:hr>130</gpxtpx:hr>
          </gpxtpx:TrackPointExtension>
        </extensions>
      </trkpt>
      <trkpt lat="49.32285" lon="0.98427">
        <ele>59.455505371094</ele>
        <time>2017-04-09T07:55:43.000Z</time>
      </trkpt>
      <trkpt lat="49.32289" lon="0.98433">
        <ele>60.04825592041</ele>
        <time>2017-04-09T07:55:46.000Z</time>
      </trkpt>
      <trkpt lat="49.32292" lon="0.98436">
        <ele>60.615905761719</ele>
        <time>2017-04-09T07:55:48.000Z</time>
      </trkpt>
      <trkpt lat="49.32299" lon="0.98442">
        <ele>61.277996063232</ele>
        <time>2017-04-09T07:55:51.000Z</time>
      </trkpt>
      <trkpt lat="49.32304" lon="0.98446">
        <ele>61.948097229004</ele>
        <time>2017-04-09T07:55:54.000Z</time>
      </trkpt>
      <trkpt lat="49.32309" lon="0.98449">
        <ele>62.60880279541</ele>
        <time>2017-04-09T07:55:57.000Z</time>
      </trkpt>
      <trkpt lat="49.32315" lon="0.98455">
        <ele>63.321117401123</ele>
        <time>2017-04-09T07:56:00.000Z</time>
        <extensions>
          <gpxtpx:TrackPointExtension xmlns:gpxtpx="http://www.garmin.com/xmlschemas/TrackPointExtension/v1">
            <gpxtpx:hr>133</gpxtpx:hr>
          </gpxtpx:TrackPointExtension>
        </extensions>
      </trkpt>
      <trkpt lat="49.32321" lon="0.98467">
        <ele>64.179565429688</ele>
        <time>2017-04-09T07:56:03.000Z</time>
        <extensions>
          <gpxtpx:TrackPointExtension xmlns:gpxtpx="http://www.garmin.com/xmlschemas/TrackPointExtension/v1">
            <gpxtpx:hr>137</gpxtpx:hr>
          </gpxtpx:TrackPointExtension>
        </extensions>
      </trkpt>
      <trkpt lat="49.32327" lon="0.98473">
        <ele>65.040878295898</ele>
        <time>2017-04-09T07:56:06.000Z</time>
        <extensions>
          <gpxtpx:TrackPointExtension xmlns:gpxtpx="http://www.garmin.com/xmlschemas/TrackPointExtension/v1">
            <gpxtpx:hr>140</gpxtpx:hr>
          </gpxtpx:TrackPointExtension>
        </extensions>
      </trkpt>
      <trkpt lat="49.32331" lon="0.98478">
        <ele>65.934631347656</ele>
        <time>2017-04-09T07:56:09.000Z</time>
        <extensions>
          <gpxtpx:TrackPointExtension xmlns:gpxtpx="http://www.garmin.com/xmlschemas/TrackPointExtension/v1">
            <gpxtpx:hr>143</gpxtpx:hr>
          </gpxtpx:TrackPointExtension>
        </extensions>
      </trkpt>
      <trkpt lat="49.32335" lon="0.98481">
        <ele>66.773002624512</ele>
        <time>2017-04-09T07:56:11.000Z</time>
        <extensions>
          <gpxtpx:TrackPointExtension xmlns:gpxtpx="http://www.garmin.com/xmlschemas/TrackPointExtension/v1">
            <gpxtpx:hr>145</gpxtpx:hr>
          </gpxtpx:TrackPointExtension>
        </extensions>
      </trkpt>
      <trkpt lat="49.32339" lon="0.98487">
        <ele>67.620895385742</ele>
        <time>2017-04-09T07:56:14.000Z</time>
        <extensions>
          <gpxtpx:TrackPointExtension xmlns:gpxtpx="http://www.garmin.com/xmlschemas/TrackPointExtension/v1">
            <gpxtpx:hr>146</gpxtpx:hr>
          </gpxtpx:TrackPointExtension>
        </extensions>
      </trkpt>
      <trkpt lat="49.32342" lon="0.98497">
        <ele>68.39013671875</ele>
        <time>2017-04-09T07:56:17.000Z</time>
      </trkpt>
      <trkpt lat="49.32344" lon="0.98506">
        <ele>69.085098266602</ele>
        <time>2017-04-09T07:56:20.000Z</time>
        <extensions>
          <gpxtpx:TrackPointExtension xmlns:gpxtpx="http://www.garmin.com/xmlschemas/TrackPointExtension/v1">
            <gpxtpx:hr>147</gpxtpx:hr>
          </gpxtpx:TrackPointExtension>
        </extensions>
      </trkpt>
      <trkpt lat="49.32344" lon="0.98515">
        <ele>69.673072814941</ele>
        <time>2017-04-09T07:56:23.000Z</time>
      </trkpt>
      <trkpt lat="49.32342" lon="0.98524">
        <ele>70.153457641602</ele>
        <time>2017-04-09T07:56:26.000Z</time>
      </trkpt>
      <trkpt lat="49.32339" lon="0.9853">
        <ele>70.417793273926</ele>
        <time>2017-04-09T07:56:28.000Z</time>
      </trkpt>
      <trkpt lat="49.32334" lon="0.98542">
        <ele>70.449020385742</ele>
        <time>2017-04-09T07:56:31.000Z</time>
      </trkpt>
      <trkpt lat="49.32335" lon="0.98554">
        <ele>70.447372436523</ele>
        <time>2017-04-09T07:56:34.000Z</time>
      </trkpt>
      <trkpt lat="49.32335" lon="0.98562">
        <ele>70.45393371582</ele>
        <time>2017-04-09T07:56:36.000Z</time>
      </trkpt>
      <trkpt lat="49.32333" lon="0.98571">
        <ele>70.471626281738</ele>
        <time>2017-04-09T07:56:39.000Z</time>
      </trkpt>
      <trkpt lat="49.32329" lon="0.98579">
        <ele>70.446479797363</ele>
        <time>2017-04-09T07:56:41.000Z</time>
      </trkpt>
      <trkpt lat="49.32325" lon="0.98589">
        <ele>70.49787902832</ele>
        <time>2017-04-09T07:56:44.000Z</time>
      </trkpt>
      <trkpt lat="49.32325" lon="0.98603">
        <ele>70.607154846191</ele>
        <time>2017-04-09T07:56:47.000Z</time>
      </trkpt>
      <trkpt lat="49.32325" lon="0.98613">
        <ele>70.759811401367</ele>
        <time>2017-04-09T07:56:49.000Z</time>
      </trkpt>
      <trkpt lat="49.32323" lon="0.98629">
        <ele>70.983200073242</ele>
        <time>2017-04-09T07:56:52.000Z</time>
      </trkpt>
      <trkpt lat="49.32323" lon="0.9864">
        <ele>71.400978088379</ele>
        <time>2017-04-09T07:56:55.000Z</time>
      </trkpt>
      <trkpt lat="49.32325" lon="0.98651">
        <ele>72.00333404541</ele>
        <time>2017-04-09T07:56:58.000Z</time>
      </trkpt>
      <trkpt lat="49.32326" lon="0.98657">
        <ele>72.570320129395</ele>
        <time>2017-04-09T07:57:00.000Z</time>
        <extensions>
          <gpxtpx:TrackPointExtension xmlns:gpxtpx="http://www.garmin.com/xmlschemas/TrackPointExtension/v1">
            <gpxtpx:hr>149</gpxtpx:hr>
          </gpxtpx:TrackPointExtension>
        </extensions>
      </trkpt>
      <trkpt lat="49.32328" lon="0.98669">
        <ele>73.216232299805</ele>
        <time>2017-04-09T07:57:03.000Z</time>
        <extensions>
          <gpxtpx:TrackPointExtension xmlns:gpxtpx="http://www.garmin.com/xmlschemas/TrackPointExtension/v1">
            <gpxtpx:hr>151</gpxtpx:hr>
          </gpxtpx:TrackPointExtension>
        </extensions>
      </trkpt>
      <trkpt lat="49.3233" lon="0.98678">
        <ele>73.931640625</ele>
        <time>2017-04-09T07:57:05.000Z</time>
        <extensions>
          <gpxtpx:TrackPointExtension xmlns:gpxtpx="http://www.garmin.com/xmlschemas/TrackPointExtension/v1">
            <gpxtpx:hr>149</gpxtpx:hr>
          </gpxtpx:TrackPointExtension>
        </extensions>
      </trkpt>
      <trkpt lat="49.32331" lon="0.98685">
        <ele>74.632164001465</ele>
        <time>2017-04-09T07:57:07.000Z</time>
        <extensions>
          <gpxtpx:TrackPointExtension xmlns:gpxtpx="http://www.garmin.com/xmlschemas/TrackPointExtension/v1">
            <gpxtpx:hr>147</gpxtpx:hr>
          </gpxtpx:TrackPointExtension>
        </extensions>
      </trkpt>
      <trkpt lat="49.32332" lon="0.98694">
        <ele>75.233711242676</ele>
        <time>2017-04-09T07:57:10.000Z</time>
        <extensions>
          <gpxtpx:TrackPointExtension xmlns:gpxtpx="http://www.garmin.com/xmlschemas/TrackPointExtension/v1">
            <gpxtpx:hr>150</gpxtpx:hr>
          </gpxtpx:TrackPointExtension>
        </extensions>
      </trkpt>
      <trkpt lat="49.32333" lon="0.98707">
        <ele>75.853591918945</ele>
        <time>2017-04-09T07:57:13.000Z</time>
        <extensions>
          <gpxtpx:TrackPointExtension xmlns:gpxtpx="http://www.garmin.com/xmlschemas/TrackPointExtension/v1">
            <gpxtpx:hr>153</gpxtpx:hr>
          </gpxtpx:TrackPointExtension>
        </extensions>
      </trkpt>
      <trkpt lat="49.3233" lon="0.9872">
        <ele>76.221633911133</ele>
        <time>2017-04-09T07:57:16.000Z</time>
      </trkpt>
      <trkpt lat="49.32324" lon="0.98734">
        <ele>76.198387145996</ele>
        <time>2017-04-09T07:57:19.000Z</time>
      </trkpt>
      <trkpt lat="49.32321" lon="0.98749">
        <ele>75.985549926758</ele>
        <time>2017-04-09T07:57:21.000Z</time>
      </trkpt>
      <trkpt lat="49.32332" lon="0.98798">
        <ele>76.396560668945</ele>
        <time>2017-04-09T07:57:25.000Z</time>
      </trkpt>
      <trkpt lat="49.3233" lon="0.98819">
        <ele>76.659118652344</ele>
        <time>2017-04-09T07:57:27.000Z</time>
      </trkpt>
      <trkpt lat="49.32322" lon="0.98836">
        <ele>76.797912597656</ele>
        <time>2017-04-09T07:57:29.000Z</time>
      </trkpt>
      <trkpt lat="49.32313" lon="0.98849">
        <ele>77.092895507812</ele>
        <time>2017-04-09T07:57:32.000Z</time>
      </trkpt>
      <trkpt lat="49.32312" lon="0.98857">
        <ele>77.541748046875</ele>
        <time>2017-04-09T07:57:35.000Z</time>
      </trkpt>
      <trkpt lat="49.32307" lon="0.98863">
        <ele>77.236373901367</ele>
        <time>2017-04-09T07:57:38.000Z</time>
      </trkpt>
      <trkpt lat="49.32305" lon="0.98861">
        <ele>76.876564025879</ele>
        <time>2017-04-09T07:57:41.000Z</time>
      </trkpt>
      <trkpt lat="49.32302" lon="0.98858">
        <ele>76.624420166016</ele>
        <time>2017-04-09T07:57:44.000Z</time>
      </trkpt>
      <trkpt lat="49.323" lon="0.98857">
        <ele>76.400497436523</ele>
        <time>2017-04-09T07:57:46.000Z</time>
      </trkpt>
      <trkpt lat="49.32296" lon="0.98857">
        <ele>76.002166748047</ele>
        <time>2017-04-09T07:57:48.000Z</time>
      </trkpt>
      <trkpt lat="49.32291" lon="0.98855">
        <ele>75.481948852539</ele>
        <time>2017-04-09T07:57:51.000Z</time>
      </trkpt>
      <trkpt lat="49.32288" lon="0.98856">
        <ele>74.967475891113</ele>
        <time>2017-04-09T07:57:53.000Z</time>
      </trkpt>
      <trkpt lat="49.32284" lon="0.98859">
        <ele>74.520858764648</ele>
        <time>2017-04-09T07:57:55.000Z</time>
      </trkpt>
      <trkpt lat="49.3228" lon="0.98859">
        <ele>74.026473999023</ele>
        <time>2017-04-09T07:57:58.000Z</time>
      </trkpt>
      <trkpt lat="49.32275" lon="0.98858">
        <ele>73.498733520508</ele>
        <time>2017-04-09T07:58:00.000Z</time>
        <extensions>
          <gpxtpx:TrackPointExtension xmlns:gpxtpx="http://www.garmin.com/xmlschemas/TrackPointExtension/v1">
            <gpxtpx:hr>153</gpxtpx:hr>
          </gpxtpx:TrackPointExtension>
        </extensions>
      </trkpt>
      <trkpt lat="49.3227" lon="0.98857">
        <ele>72.977439880371</ele>
        <time>2017-04-09T07:58:02.000Z</time>
        <extensions>
          <gpxtpx:TrackPointExtension xmlns:gpxtpx="http://www.garmin.com/xmlschemas/TrackPointExtension/v1">
            <gpxtpx:hr>152</gpxtpx:hr>
          </gpxtpx:TrackPointExtension>
        </extensions>
      </trkpt>
      <trkpt lat="49.32264" lon="0.98856">
        <ele>72.352188110352</ele>
        <time>2017-04-09T07:58:04.000Z</time>
      </trkpt>
      <trkpt lat="49.32255" lon="0.98858">
        <ele>71.578384399414</ele>
        <time>2017-04-09T07:58:07.000Z</time>
        <extensions>
          <gpxtpx:TrackPointExtension xmlns:gpxtpx="http://www.garmin.com/xmlschemas/TrackPointExtension/v1">
            <gpxtpx:hr>153</gpxtpx:hr>
          </gpxtpx:TrackPointExtension>
        </extensions>
      </trkpt>
      <trkpt lat="49.32251" lon="0.98867">
        <ele>71.054649353027</ele>
        <time>2017-04-09T07:58:10.000Z</time>
        <extensions>
          <gpxtpx:TrackPointExtension xmlns:gpxtpx="http://www.garmin.com/xmlschemas/TrackPointExtension/v1">
            <gpxtpx:hr>156</gpxtpx:hr>
          </gpxtpx:TrackPointExtension>
        </extensions>
      </trkpt>
      <trkpt lat="49.32252" lon="0.98875">
        <ele>70.909332275391</ele>
        <time>2017-04-09T07:58:13.000Z</time>
        <extensions>
          <gpxtpx:TrackPointExtension xmlns:gpxtpx="http://www.garmin.com/xmlschemas/TrackPointExtension/v1">
            <gpxtpx:hr>155</gpxtpx:hr>
          </gpxtpx:TrackPointExtension>
        </extensions>
      </trkpt>
      <trkpt lat="49.32253" lon="0.9888">
        <ele>71.072608947754</ele>
        <time>2017-04-09T07:58:15.000Z</time>
        <extensions>
          <gpxtpx:TrackPointExtension xmlns:gpxtpx="http://www.garmin.com/xmlschemas/TrackPointExtension/v1">
            <gpxtpx:hr>155</gpxtpx:hr>
          </gpxtpx:TrackPointExtension>
        </extensions>
      </trkpt>
      <trkpt lat="49.32254" lon="0.98886">
        <ele>71.588882446289</ele>
        <time>2017-04-09T07:58:18.000Z</time>
        <extensions>
          <gpxtpx:TrackPointExtension xmlns:gpxtpx="http://www.garmin.com/xmlschemas/TrackPointExtension/v1">
            <gpxtpx:hr>154</gpxtpx:hr>
          </gpxtpx:TrackPointExtension>
        </extensions>
      </trkpt>
      <trkpt lat="49.32254" lon="0.9889">
        <ele>72.37735748291</ele>
        <time>2017-04-09T07:58:20.000Z</time>
      </trkpt>
      <trkpt lat="49.32253" lon="0.98896">
        <ele>73.177612304688</ele>
        <time>2017-04-09T07:58:23.000Z</time>
      </trkpt>
      <trkpt lat="49.32252" lon="0.98902">
        <ele>73.871185302734</ele>
        <time>2017-04-09T07:58:25.000Z</time>
      </trkpt>
      <trkpt lat="49.3225" lon="0.98911">
        <ele>74.628479003906</ele>
        <time>2017-04-09T07:58:28.000Z</time>
      </trkpt>
      <trkpt lat="49.3225" lon="0.98916">
        <ele>75.351791381836</ele>
        <time>2017-04-09T07:58:30.000Z</time>
      </trkpt>
      <trkpt lat="49.32249" lon="0.98923">
        <ele>75.983596801758</ele>
        <time>2017-04-09T07:58:33.000Z</time>
      </trkpt>
      <trkpt lat="49.32246" lon="0.98932">
        <ele>76.440536499023</ele>
        <time>2017-04-09T07:58:36.000Z</time>
      </trkpt>
      <trkpt lat="49.32243" lon="0.98939">
        <ele>76.672225952148</ele>
        <time>2017-04-09T07:58:39.000Z</time>
      </trkpt>
      <trkpt lat="49.32242" lon="0.98945">
        <ele>76.710395812988</ele>
        <time>2017-04-09T07:58:41.000Z</time>
      </trkpt>
      <trkpt lat="49.3224" lon="0.98952">
        <ele>76.601654052734</ele>
        <time>2017-04-09T07:58:44.000Z</time>
      </trkpt>
      <trkpt lat="49.3224" lon="0.98958">
        <ele>76.535865783691</ele>
        <time>2017-04-09T07:58:46.000Z</time>
      </trkpt>
      <trkpt lat="49.32236" lon="0.98965">
        <ele>76.369247436523</ele>
        <time>2017-04-09T07:58:49.000Z</time>
      </trkpt>
      <trkpt lat="49.32234" lon="0.98973">
        <ele>76.262351989746</ele>
        <time>2017-04-09T07:58:52.000Z</time>
      </trkpt>
      <trkpt lat="49.32233" lon="0.98978">
        <ele>76.130706787109</ele>
        <time>2017-04-09T07:58:54.000Z</time>
      </trkpt>
      <trkpt lat="49.3223" lon="0.98986">
        <ele>75.933517456055</ele>
        <time>2017-04-09T07:58:57.000Z</time>
      </trkpt>
      <trkpt lat="49.32228" lon="0.98996">
        <ele>75.655487060547</ele>
        <time>2017-04-09T07:59:00.000Z</time>
        <extensions>
          <gpxtpx:TrackPointExtension xmlns:gpxtpx="http://www.garmin.com/xmlschemas/TrackPointExtension/v1">
            <gpxtpx:hr>153</gpxtpx:hr>
          </gpxtpx:TrackPointExtension>
        </extensions>
      </trkpt>
      <trkpt lat="49.32225" lon="0.99005">
        <ele>75.475372314453</ele>
        <time>2017-04-09T07:59:03.000Z</time>
        <extensions>
          <gpxtpx:TrackPointExtension xmlns:gpxtpx="http://www.garmin.com/xmlschemas/TrackPointExtension/v1">
            <gpxtpx:hr>151</gpxtpx:hr>
          </gpxtpx:TrackPointExtension>
        </extensions>
      </trkpt>
      <trkpt lat="49.32222" lon="0.99011">
        <ele>75.27840423584</ele>
        <time>2017-04-09T07:59:05.000Z</time>
        <extensions>
          <gpxtpx:TrackPointExtension xmlns:gpxtpx="http://www.garmin.com/xmlschemas/TrackPointExtension/v1">
            <gpxtpx:hr>149</gpxtpx:hr>
          </gpxtpx:TrackPointExtension>
        </extensions>
      </trkpt>
      <trkpt lat="49.32219" lon="0.99021">
        <ele>75.148063659668</ele>
        <time>2017-04-09T07:59:08.000Z</time>
        <extensions>
          <gpxtpx:TrackPointExtension xmlns:gpxtpx="http://www.garmin.com/xmlschemas/TrackPointExtension/v1">
            <gpxtpx:hr>147</gpxtpx:hr>
          </gpxtpx:TrackPointExtension>
        </extensions>
      </trkpt>
      <trkpt lat="49.32217" lon="0.99026">
        <ele>75.156326293945</ele>
        <time>2017-04-09T07:59:10.000Z</time>
        <extensions>
          <gpxtpx:TrackPointExtension xmlns:gpxtpx="http://www.garmin.com/xmlschemas/TrackPointExtension/v1">
            <gpxtpx:hr>148</gpxtpx:hr>
          </gpxtpx:TrackPointExtension>
        </extensions>
      </trkpt>
      <trkpt lat="49.32215" lon="0.99035">
        <ele>75.231155395508</ele>
        <time>2017-04-09T07:59:13.000Z</time>
      </trkpt>
      <trkpt lat="49.32212" lon="0.9904">
        <ele>75.291244506836</ele>
        <time>2017-04-09T07:59:15.000Z</time>
        <extensions>
          <gpxtpx:TrackPointExtension xmlns:gpxtpx="http://www.garmin.com/xmlschemas/TrackPointExtension/v1">
            <gpxtpx:hr>150</gpxtpx:hr>
          </gpxtpx:TrackPointExtension>
        </extensions>
      </trkpt>
      <trkpt lat="49.3221" lon="0.99045">
        <ele>75.429573059082</ele>
        <time>2017-04-09T07:59:17.000Z</time>
        <extensions>
          <gpxtpx:TrackPointExtension xmlns:gpxtpx="http://www.garmin.com/xmlschemas/TrackPointExtension/v1">
            <gpxtpx:hr>152</gpxtpx:hr>
          </gpxtpx:TrackPointExtension>
        </extensions>
      </trkpt>
      <trkpt lat="49.32209" lon="0.9905">
        <ele>75.57438659668</ele>
        <time>2017-04-09T07:59:20.000Z</time>
      </trkpt>
      <trkpt lat="49.32209" lon="0.99055">
        <ele>75.747138977051</ele>
        <time>2017-04-09T07:59:23.000Z</time>
      </trkpt>
      <trkpt lat="49.32207" lon="0.99063">
        <ele>75.98567199707</ele>
        <time>2017-04-09T07:59:26.000Z</time>
      </trkpt>
      <trkpt lat="49.32206" lon="0.9907">
        <ele>76.390808105469</ele>
        <time>2017-04-09T07:59:28.000Z</time>
      </trkpt>
      <trkpt lat="49.32204" lon="0.99083">
        <ele>77.018783569336</ele>
        <time>2017-04-09T07:59:31.000Z</time>
      </trkpt>
      <trkpt lat="49.32204" lon="0.99096">
        <ele>77.915145874023</ele>
        <time>2017-04-09T07:59:34.000Z</time>
      </trkpt>
      <trkpt lat="49.32203" lon="0.99105">
        <ele>78.816825866699</ele>
        <time>2017-04-09T07:59:37.000Z</time>
      </trkpt>
      <trkpt lat="49.32206" lon="0.99112">
        <ele>79.901138305664</ele>
        <time>2017-04-09T07:59:40.000Z</time>
      </trkpt>
      <trkpt lat="49.32206" lon="0.99125">
        <ele>81.191383361816</ele>
        <time>2017-04-09T07:59:43.000Z</time>
      </trkpt>
      <trkpt lat="49.32205" lon="0.99134">
        <ele>82.386657714844</ele>
        <time>2017-04-09T07:59:45.000Z</time>
      </trkpt>
      <trkpt lat="49.32204" lon="0.99145">
        <ele>83.446350097656</ele>
        <time>2017-04-09T07:59:48.000Z</time>
      </trkpt>
      <trkpt lat="49.32204" lon="0.99154">
        <ele>84.578857421875</ele>
        <time>2017-04-09T07:59:50.000Z</time>
      </trkpt>
      <trkpt lat="49.32202" lon="0.99164">
        <ele>85.577690124512</ele>
        <time>2017-04-09T07:59:53.000Z</time>
      </trkpt>
      <trkpt lat="49.32203" lon="0.99173">
        <ele>86.388282775879</ele>
        <time>2017-04-09T07:59:56.000Z</time>
      </trkpt>
      <trkpt lat="49.32203" lon="0.99182">
        <ele>87.085800170898</ele>
        <time>2017-04-09T07:59:59.000Z</time>
      </trkpt>
      <trkpt lat="49.322" lon="0.99188">
        <ele>87.517066955566</ele>
        <time>2017-04-09T08:00:01.000Z</time>
        <extensions>
          <gpxtpx:TrackPointExtension xmlns:gpxtpx="http://www.garmin.com/xmlschemas/TrackPointExtension/v1">
            <gpxtpx:hr>153</gpxtpx:hr>
          </gpxtpx:TrackPointExtension>
        </extensions>
      </trkpt>
      <trkpt lat="49.32195" lon="0.99194">
        <ele>87.589294433594</ele>
        <time>2017-04-09T08:00:03.000Z</time>
        <extensions>
          <gpxtpx:TrackPointExtension xmlns:gpxtpx="http://www.garmin.com/xmlschemas/TrackPointExtension/v1">
            <gpxtpx:hr>152</gpxtpx:hr>
          </gpxtpx:TrackPointExtension>
        </extensions>
      </trkpt>
      <trkpt lat="49.32192" lon="0.99204">
        <ele>87.485206604004</ele>
        <time>2017-04-09T08:00:06.000Z</time>
        <extensions>
          <gpxtpx:TrackPointExtension xmlns:gpxtpx="http://www.garmin.com/xmlschemas/TrackPointExtension/v1">
            <gpxtpx:hr>150</gpxtpx:hr>
          </gpxtpx:TrackPointExtension>
        </extensions>
      </trkpt>
      <trkpt lat="49.32193" lon="0.99214">
        <ele>87.348175048828</ele>
        <time>2017-04-09T08:00:09.000Z</time>
        <extensions>
          <gpxtpx:TrackPointExtension xmlns:gpxtpx="http://www.garmin.com/xmlschemas/TrackPointExtension/v1">
            <gpxtpx:hr>148</gpxtpx:hr>
          </gpxtpx:TrackPointExtension>
        </extensions>
      </trkpt>
      <trkpt lat="49.32192" lon="0.99224">
        <ele>87.22615814209</ele>
        <time>2017-04-09T08:00:12.000Z</time>
        <extensions>
          <gpxtpx:TrackPointExtension xmlns:gpxtpx="http://www.garmin.com/xmlschemas/TrackPointExtension/v1">
            <gpxtpx:hr>146</gpxtpx:hr>
          </gpxtpx:TrackPointExtension>
        </extensions>
      </trkpt>
      <trkpt lat="49.32191" lon="0.99236">
        <ele>87.247360229492</ele>
        <time>2017-04-09T08:00:15.000Z</time>
        <extensions>
          <gpxtpx:TrackPointExtension xmlns:gpxtpx="http://www.garmin.com/xmlschemas/TrackPointExtension/v1">
            <gpxtpx:hr>143</gpxtpx:hr>
          </gpxtpx:TrackPointExtension>
        </extensions>
      </trkpt>
      <trkpt lat="49.3219" lon="0.99246">
        <ele>87.493087768555</ele>
        <time>2017-04-09T08:00:17.000Z</time>
        <extensions>
          <gpxtpx:TrackPointExtension xmlns:gpxtpx="http://www.garmin.com/xmlschemas/TrackPointExtension/v1">
            <gpxtpx:hr>144</gpxtpx:hr>
          </gpxtpx:TrackPointExtension>
        </extensions>
      </trkpt>
      <trkpt lat="49.32192" lon="0.9926">
        <ele>87.829864501953</ele>
        <time>2017-04-09T08:00:20.000Z</time>
        <extensions>
          <gpxtpx:TrackPointExtension xmlns:gpxtpx="http://www.garmin.com/xmlschemas/TrackPointExtension/v1">
            <gpxtpx:hr>146</gpxtpx:hr>
          </gpxtpx:TrackPointExtension>
        </extensions>
      </trkpt>
      <trkpt lat="49.32195" lon="0.99269">
        <ele>88.122451782227</ele>
        <time>2017-04-09T08:00:22.000Z</time>
      </trkpt>
      <trkpt lat="49.32198" lon="0.9928">
        <ele>88.436134338379</ele>
        <time>2017-04-09T08:00:25.000Z</time>
      </trkpt>
      <trkpt lat="49.32198" lon="0.99284">
        <ele>88.678237915039</ele>
        <time>2017-04-09T08:00:27.000Z</time>
      </trkpt>
      <trkpt lat="49.32202" lon="0.99286">
        <ele>88.994300842285</ele>
        <time>2017-04-09T08:00:30.000Z</time>
      </trkpt>
      <trkpt lat="49.32206" lon="0.9929">
        <ele>89.329544067383</ele>
        <time>2017-04-09T08:00:33.000Z</time>
      </trkpt>
      <trkpt lat="49.32209" lon="0.99293">
        <ele>89.696136474609</ele>
        <time>2017-04-09T08:00:36.000Z</time>
      </trkpt>
      <trkpt lat="49.32211" lon="0.99294">
        <ele>90.047859191895</ele>
        <time>2017-04-09T08:00:38.000Z</time>
      </trkpt>
      <trkpt lat="49.32214" lon="0.99296">
        <ele>90.467575073242</ele>
        <time>2017-04-09T08:00:40.000Z</time>
      </trkpt>
      <trkpt lat="49.32215" lon="0.99297">
        <ele>90.818496704102</ele>
        <time>2017-04-09T08:00:43.000Z</time>
      </trkpt>
      <trkpt lat="49.32215" lon="0.99299">
        <ele>91.07315826416</ele>
        <time>2017-04-09T08:00:45.000Z</time>
      </trkpt>
      <trkpt lat="49.32215" lon="0.99301">
        <ele>91.216979980469</ele>
        <time>2017-04-09T08:00:47.000Z</time>
      </trkpt>
      <trkpt lat="49.32215" lon="0.99306">
        <ele>91.279144287109</ele>
        <time>2017-04-09T08:00:50.000Z</time>
      </trkpt>
      <trkpt lat="49.32217" lon="0.99309">
        <ele>91.301628112793</ele>
        <time>2017-04-09T08:00:52.000Z</time>
      </trkpt>
      <trkpt lat="49.32218" lon="0.99311">
        <ele>91.305236816406</ele>
        <time>2017-04-09T08:00:54.000Z</time>
      </trkpt>
      <trkpt lat="49.32222" lon="0.99314">
        <ele>91.428520202637</ele>
        <time>2017-04-09T08:00:57.000Z</time>
      </trkpt>
      <trkpt lat="49.32227" lon="0.9932">
        <ele>91.66748046875</ele>
        <time>2017-04-09T08:01:00.000Z</time>
        <extensions>
          <gpxtpx:TrackPointExtension xmlns:gpxtpx="http://www.garmin.com/xmlschemas/TrackPointExtension/v1">
            <gpxtpx:hr>147</gpxtpx:hr>
          </gpxtpx:TrackPointExtension>
        </extensions>
      </trkpt>
      <trkpt lat="49.32228" lon="0.99323">
        <ele>91.930976867676</ele>
        <time>2017-04-09T08:01:02.000Z</time>
        <extensions>
          <gpxtpx:TrackPointExtension xmlns:gpxtpx="http://www.garmin.com/xmlschemas/TrackPointExtension/v1">
            <gpxtpx:hr>146</gpxtpx:hr>
          </gpxtpx:TrackPointExtension>
        </extensions>
      </trkpt>
      <trkpt lat="49.3223" lon="0.99326">
        <ele>92.185256958008</ele>
        <time>2017-04-09T08:01:04.000Z</time>
        <extensions>
          <gpxtpx:TrackPointExtension xmlns:gpxtpx="http://www.garmin.com/xmlschemas/TrackPointExtension/v1">
            <gpxtpx:hr>148</gpxtpx:hr>
          </gpxtpx:TrackPointExtension>
        </extensions>
      </trkpt>
      <trkpt lat="49.32236" lon="0.99329">
        <ele>92.565872192383</ele>
        <time>2017-04-09T08:01:07.000Z</time>
        <extensions>
          <gpxtpx:TrackPointExtension xmlns:gpxtpx="http://www.garmin.com/xmlschemas/TrackPointExtension/v1">
            <gpxtpx:hr>149</gpxtpx:hr>
          </gpxtpx:TrackPointExtension>
        </extensions>
      </trkpt>
      <trkpt lat="49.32241" lon="0.9933">
        <ele>92.952606201172</ele>
        <time>2017-04-09T08:01:09.000Z</time>
        <extensions>
          <gpxtpx:TrackPointExtension xmlns:gpxtpx="http://www.garmin.com/xmlschemas/TrackPointExtension/v1">
            <gpxtpx:hr>150</gpxtpx:hr>
          </gpxtpx:TrackPointExtension>
        </extensions>
      </trkpt>
      <trkpt lat="49.32246" lon="0.99331">
        <ele>93.39860534668</ele>
        <time>2017-04-09T08:01:12.000Z</time>
        <extensions>
          <gpxtpx:TrackPointExtension xmlns:gpxtpx="http://www.garmin.com/xmlschemas/TrackPointExtension/v1">
            <gpxtpx:hr>151</gpxtpx:hr>
          </gpxtpx:TrackPointExtension>
        </extensions>
      </trkpt>
      <trkpt lat="49.32249" lon="0.99329">
        <ele>93.908363342285</ele>
        <time>2017-04-09T08:01:14.000Z</time>
        <extensions>
          <gpxtpx:TrackPointExtension xmlns:gpxtpx="http://www.garmin.com/xmlschemas/TrackPointExtension/v1">
            <gpxtpx:hr>154</gpxtpx:hr>
          </gpxtpx:TrackPointExtension>
        </extensions>
      </trkpt>
      <trkpt lat="49.32253" lon="0.9933">
        <ele>94.488700866699</ele>
        <time>2017-04-09T08:01:16.000Z</time>
        <extensions>
          <gpxtpx:TrackPointExtension xmlns:gpxtpx="http://www.garmin.com/xmlschemas/TrackPointExtension/v1">
            <gpxtpx:hr>156</gpxtpx:hr>
          </gpxtpx:TrackPointExtension>
        </extensions>
      </trkpt>
      <trkpt lat="49.32256" lon="0.99329">
        <ele>95.019485473633</ele>
        <time>2017-04-09T08:01:19.000Z</time>
        <extensions>
          <gpxtpx:TrackPointExtension xmlns:gpxtpx="http://www.garmin.com/xmlschemas/TrackPointExtension/v1">
            <gpxtpx:hr>155</gpxtpx:hr>
          </gpxtpx:TrackPointExtension>
        </extensions>
      </trkpt>
      <trkpt lat="49.32259" lon="0.99327">
        <ele>95.513549804688</ele>
        <time>2017-04-09T08:01:21.000Z</time>
      </trkpt>
      <trkpt lat="49.32265" lon="0.99322">
        <ele>96.069274902344</ele>
        <time>2017-04-09T08:01:24.000Z</time>
      </trkpt>
      <trkpt lat="49.32269" lon="0.9932">
        <ele>96.680450439453</ele>
        <time>2017-04-09T08:01:26.000Z</time>
      </trkpt>
      <trkpt lat="49.32274" lon="0.99317">
        <ele>97.35188293457</ele>
        <time>2017-04-09T08:01:29.000Z</time>
      </trkpt>
      <trkpt lat="49.32277" lon="0.99315">
        <ele>98.045852661133</ele>
        <time>2017-04-09T08:01:31.000Z</time>
      </trkpt>
      <trkpt lat="49.3228" lon="0.99312">
        <ele>98.77596282959</ele>
        <time>2017-04-09T08:01:34.000Z</time>
      </trkpt>
      <trkpt lat="49.32283" lon="0.99309">
        <ele>99.40926361084</ele>
        <time>2017-04-09T08:01:36.000Z</time>
      </trkpt>
      <trkpt lat="49.32286" lon="0.99308">
        <ele>99.992668151855</ele>
        <time>2017-04-09T08:01:38.000Z</time>
      </trkpt>
      <trkpt lat="49.32289" lon="0.99307">
        <ele>100.52390289307</ele>
        <time>2017-04-09T08:01:41.000Z</time>
      </trkpt>
      <trkpt lat="49.32291" lon="0.99306">
        <ele>101.01039123535</ele>
        <time>2017-04-09T08:01:43.000Z</time>
      </trkpt>
      <trkpt lat="49.32293" lon="0.99302">
        <ele>101.47623443604</ele>
        <time>2017-04-09T08:01:46.000Z</time>
      </trkpt>
      <trkpt lat="49.32295" lon="0.99299">
        <ele>101.94884490967</ele>
        <time>2017-04-09T08:01:48.000Z</time>
      </trkpt>
      <trkpt lat="49.32299" lon="0.99297">
        <ele>102.48118591309</ele>
        <time>2017-04-09T08:01:50.000Z</time>
      </trkpt>
      <trkpt lat="49.32306" lon="0.99296">
        <ele>103.12654876709</ele>
        <time>2017-04-09T08:01:53.000Z</time>
      </trkpt>
      <trkpt lat="49.32312" lon="0.99295">
        <ele>103.86045837402</ele>
        <time>2017-04-09T08:01:55.000Z</time>
      </trkpt>
      <trkpt lat="49.32316" lon="0.99294">
        <ele>104.65733337402</ele>
        <time>2017-04-09T08:01:57.000Z</time>
      </trkpt>
      <trkpt lat="49.32319" lon="0.99292">
        <ele>105.44747161865</ele>
        <time>2017-04-09T08:01:59.000Z</time>
      </trkpt>
      <trkpt lat="49.32324" lon="0.99289">
        <ele>106.29362487793</ele>
        <time>2017-04-09T08:02:02.000Z</time>
        <extensions>
          <gpxtpx:TrackPointExtension xmlns:gpxtpx="http://www.garmin.com/xmlschemas/TrackPointExtension/v1">
            <gpxtpx:hr>156</gpxtpx:hr>
          </gpxtpx:TrackPointExtension>
        </extensions>
      </trkpt>
      <trkpt lat="49.32329" lon="0.99286">
        <ele>107.11126708984</ele>
        <time>2017-04-09T08:02:05.000Z</time>
        <extensions>
          <gpxtpx:TrackPointExtension xmlns:gpxtpx="http://www.garmin.com/xmlschemas/TrackPointExtension/v1">
            <gpxtpx:hr>154</gpxtpx:hr>
          </gpxtpx:TrackPointExtension>
        </extensions>
      </trkpt>
      <trkpt lat="49.32335" lon="0.99284">
        <ele>107.98204040527</ele>
        <time>2017-04-09T08:02:08.000Z</time>
        <extensions>
          <gpxtpx:TrackPointExtension xmlns:gpxtpx="http://www.garmin.com/xmlschemas/TrackPointExtension/v1">
            <gpxtpx:hr>154</gpxtpx:hr>
          </gpxtpx:TrackPointExtension>
        </extensions>
      </trkpt>
      <trkpt lat="49.3234" lon="0.9928">
        <ele>108.8675994873</ele>
        <time>2017-04-09T08:02:11.000Z</time>
        <extensions>
          <gpxtpx:TrackPointExtension xmlns:gpxtpx="http://www.garmin.com/xmlschemas/TrackPointExtension/v1">
            <gpxtpx:hr>156</gpxtpx:hr>
          </gpxtpx:TrackPointExtension>
        </extensions>
      </trkpt>
      <trkpt lat="49.32343" lon="0.99277">
        <ele>109.74060058594</ele>
        <time>2017-04-09T08:02:13.000Z</time>
        <extensions>
          <gpxtpx:TrackPointExtension xmlns:gpxtpx="http://www.garmin.com/xmlschemas/TrackPointExtension/v1">
            <gpxtpx:hr>154</gpxtpx:hr>
          </gpxtpx:TrackPointExtension>
        </extensions>
      </trkpt>
      <trkpt lat="49.32345" lon="0.99273">
        <ele>110.52876281738</ele>
        <time>2017-04-09T08:02:15.000Z</time>
        <extensions>
          <gpxtpx:TrackPointExtension xmlns:gpxtpx="http://www.garmin.com/xmlschemas/TrackPointExtension/v1">
            <gpxtpx:hr>152</gpxtpx:hr>
          </gpxtpx:TrackPointExtension>
        </extensions>
      </trkpt>
      <trkpt lat="49.32348" lon="0.9927">
        <ele>111.23577880859</ele>
        <time>2017-04-09T08:02:18.000Z</time>
        <extensions>
          <gpxtpx:TrackPointExtension xmlns:gpxtpx="http://www.garmin.com/xmlschemas/TrackPointExtension/v1">
            <gpxtpx:hr>151</gpxtpx:hr>
          </gpxtpx:TrackPointExtension>
        </extensions>
      </trkpt>
      <trkpt lat="49.32351" lon="0.99267">
        <ele>111.81260681152</ele>
        <time>2017-04-09T08:02:20.000Z</time>
        <extensions>
          <gpxtpx:TrackPointExtension xmlns:gpxtpx="http://www.garmin.com/xmlschemas/TrackPointExtension/v1">
            <gpxtpx:hr>146</gpxtpx:hr>
          </gpxtpx:TrackPointExtension>
        </extensions>
      </trkpt>
      <trkpt lat="49.32352" lon="0.99263">
        <ele>112.31008148193</ele>
        <time>2017-04-09T08:02:22.000Z</time>
      </trkpt>
      <trkpt lat="49.32357" lon="0.99259">
        <ele>112.85778808594</ele>
        <time>2017-04-09T08:02:25.000Z</time>
      </trkpt>
      <trkpt lat="49.32361" lon="0.99256">
        <ele>113.40163421631</ele>
        <time>2017-04-09T08:02:27.000Z</time>
      </trkpt>
      <trkpt lat="49.32368" lon="0.99253">
        <ele>113.98249816895</ele>
        <time>2017-04-09T08:02:30.000Z</time>
      </trkpt>
      <trkpt lat="49.3237" lon="0.9925">
        <ele>114.54754638672</ele>
        <time>2017-04-09T08:02:32.000Z</time>
      </trkpt>
      <trkpt lat="49.32375" lon="0.99244">
        <ele>115.02601623535</ele>
        <time>2017-04-09T08:02:35.000Z</time>
      </trkpt>
      <trkpt lat="49.3238" lon="0.99241">
        <ele>115.39463043213</ele>
        <time>2017-04-09T08:02:38.000Z</time>
      </trkpt>
      <trkpt lat="49.32384" lon="0.9924">
        <ele>115.70109558105</ele>
        <time>2017-04-09T08:02:41.000Z</time>
      </trkpt>
      <trkpt lat="49.32386" lon="0.9924">
        <ele>115.90695953369</ele>
        <time>2017-04-09T08:02:43.000Z</time>
      </trkpt>
      <trkpt lat="49.32388" lon="0.99243">
        <ele>116.09928894043</ele>
        <time>2017-04-09T08:02:45.000Z</time>
      </trkpt>
      <trkpt lat="49.32392" lon="0.9925">
        <ele>116.40888977051</ele>
        <time>2017-04-09T08:02:48.000Z</time>
      </trkpt>
      <trkpt lat="49.32397" lon="0.99257">
        <ele>116.68599700928</ele>
        <time>2017-04-09T08:02:51.000Z</time>
      </trkpt>
      <trkpt lat="49.324" lon="0.99262">
        <ele>116.91532897949</ele>
        <time>2017-04-09T08:02:53.000Z</time>
      </trkpt>
      <trkpt lat="49.32401" lon="0.99267">
        <ele>117.071434021</ele>
        <time>2017-04-09T08:02:56.000Z</time>
      </trkpt>
      <trkpt lat="49.32406" lon="0.99271">
        <ele>117.2156829834</ele>
        <time>2017-04-09T08:02:59.000Z</time>
      </trkpt>
      <trkpt lat="49.32412" lon="0.99275">
        <ele>117.30836486816</ele>
        <time>2017-04-09T08:03:02.000Z</time>
        <extensions>
          <gpxtpx:TrackPointExtension xmlns:gpxtpx="http://www.garmin.com/xmlschemas/TrackPointExtension/v1">
            <gpxtpx:hr>144</gpxtpx:hr>
          </gpxtpx:TrackPointExtension>
        </extensions>
      </trkpt>
      <trkpt lat="49.32417" lon="0.99278">
        <ele>117.45587158203</ele>
        <time>2017-04-09T08:03:04.000Z</time>
        <extensions>
          <gpxtpx:TrackPointExtension xmlns:gpxtpx="http://www.garmin.com/xmlschemas/TrackPointExtension/v1">
            <gpxtpx:hr>143</gpxtpx:hr>
          </gpxtpx:TrackPointExtension>
        </extensions>
      </trkpt>
      <trkpt lat="49.32422" lon="0.99282">
        <ele>117.58503723145</ele>
        <time>2017-04-09T08:03:07.000Z</time>
        <extensions>
          <gpxtpx:TrackPointExtension xmlns:gpxtpx="http://www.garmin.com/xmlschemas/TrackPointExtension/v1">
            <gpxtpx:hr>141</gpxtpx:hr>
          </gpxtpx:TrackPointExtension>
        </extensions>
      </trkpt>
      <trkpt lat="49.32428" lon="0.99284">
        <ele>117.744140625</ele>
        <time>2017-04-09T08:03:09.000Z</time>
        <extensions>
          <gpxtpx:TrackPointExtension xmlns:gpxtpx="http://www.garmin.com/xmlschemas/TrackPointExtension/v1">
            <gpxtpx:hr>138</gpxtpx:hr>
          </gpxtpx:TrackPointExtension>
        </extensions>
      </trkpt>
      <trkpt lat="49.32434" lon="0.99286">
        <ele>117.85510253906</ele>
        <time>2017-04-09T08:03:12.000Z</time>
        <extensions>
          <gpxtpx:TrackPointExtension xmlns:gpxtpx="http://www.garmin.com/xmlschemas/TrackPointExtension/v1">
            <gpxtpx:hr>139</gpxtpx:hr>
          </gpxtpx:TrackPointExtension>
        </extensions>
      </trkpt>
      <trkpt lat="49.32437" lon="0.99286">
        <ele>117.8968963623</ele>
        <time>2017-04-09T08:03:14.000Z</time>
        <extensions>
          <gpxtpx:TrackPointExtension xmlns:gpxtpx="http://www.garmin.com/xmlschemas/TrackPointExtension/v1">
            <gpxtpx:hr>137</gpxtpx:hr>
          </gpxtpx:TrackPointExtension>
        </extensions>
      </trkpt>
      <trkpt lat="49.32439" lon="0.99289">
        <ele>117.86392974854</ele>
        <time>2017-04-09T08:03:16.000Z</time>
        <extensions>
          <gpxtpx:TrackPointExtension xmlns:gpxtpx="http://www.garmin.com/xmlschemas/TrackPointExtension/v1">
            <gpxtpx:hr>135</gpxtpx:hr>
          </gpxtpx:TrackPointExtension>
        </extensions>
      </trkpt>
      <trkpt lat="49.32443" lon="0.99293">
        <ele>117.84492492676</ele>
        <time>2017-04-09T08:03:19.000Z</time>
        <extensions>
          <gpxtpx:TrackPointExtension xmlns:gpxtpx="http://www.garmin.com/xmlschemas/TrackPointExtension/v1">
            <gpxtpx:hr>136</gpxtpx:hr>
          </gpxtpx:TrackPointExtension>
        </extensions>
      </trkpt>
      <trkpt lat="49.32447" lon="0.99296">
        <ele>117.83103179932</ele>
        <time>2017-04-09T08:03:21.000Z</time>
        <extensions>
          <gpxtpx:TrackPointExtension xmlns:gpxtpx="http://www.garmin.com/xmlschemas/TrackPointExtension/v1">
            <gpxtpx:hr>135</gpxtpx:hr>
          </gpxtpx:TrackPointExtension>
        </extensions>
      </trkpt>
      <trkpt lat="49.3245" lon="0.99298">
        <ele>117.82154846191</ele>
        <time>2017-04-09T08:03:23.000Z</time>
      </trkpt>
      <trkpt lat="49.32457" lon="0.99304">
        <ele>117.81070709229</ele>
        <time>2017-04-09T08:03:26.000Z</time>
      </trkpt>
      <trkpt lat="49.32459" lon="0.99308">
        <ele>117.80830383301</ele>
        <time>2017-04-09T08:03:28.000Z</time>
      </trkpt>
      <trkpt lat="49.32465" lon="0.99312">
        <ele>117.83040618896</ele>
        <time>2017-04-09T08:03:31.000Z</time>
      </trkpt>
      <trkpt lat="49.3247" lon="0.99316">
        <ele>117.87314605713</ele>
        <time>2017-04-09T08:03:33.000Z</time>
      </trkpt>
      <trkpt lat="49.32474" lon="0.99322">
        <ele>117.93110656738</ele>
        <time>2017-04-09T08:03:35.000Z</time>
      </trkpt>
      <trkpt lat="49.32476" lon="0.99329">
        <ele>117.99812316895</ele>
        <time>2017-04-09T08:03:37.000Z</time>
      </trkpt>
      <trkpt lat="49.32479" lon="0.99339">
        <ele>118.02419281006</ele>
        <time>2017-04-09T08:03:40.000Z</time>
      </trkpt>
      <trkpt lat="49.32483" lon="0.99343">
        <ele>118.0185546875</ele>
        <time>2017-04-09T08:03:42.000Z</time>
      </trkpt>
      <trkpt lat="49.32488" lon="0.99347">
        <ele>118.01491546631</ele>
        <time>2017-04-09T08:03:45.000Z</time>
      </trkpt>
      <trkpt lat="49.32495" lon="0.99354">
        <ele>118.01768493652</ele>
        <time>2017-04-09T08:03:48.000Z</time>
      </trkpt>
      <trkpt lat="49.325" lon="0.99359">
        <ele>118.05738830566</ele>
        <time>2017-04-09T08:03:51.000Z</time>
      </trkpt>
      <trkpt lat="49.32504" lon="0.99363">
        <ele>118.16673278809</ele>
        <time>2017-04-09T08:03:53.000Z</time>
      </trkpt>
      <trkpt lat="49.32506" lon="0.99368">
        <ele>118.28701019287</ele>
        <time>2017-04-09T08:03:56.000Z</time>
      </trkpt>
      <trkpt lat="49.32508" lon="0.99374">
        <ele>118.39241027832</ele>
        <time>2017-04-09T08:03:58.000Z</time>
      </trkpt>
      <trkpt lat="49.32513" lon="0.99377">
        <ele>118.518409729</ele>
        <time>2017-04-09T08:04:00.000Z</time>
        <extensions>
          <gpxtpx:TrackPointExtension xmlns:gpxtpx="http://www.garmin.com/xmlschemas/TrackPointExtension/v1">
            <gpxtpx:hr>137</gpxtpx:hr>
          </gpxtpx:TrackPointExtension>
        </extensions>
      </trkpt>
      <trkpt lat="49.32521" lon="0.99379">
        <ele>118.68572998047</ele>
        <time>2017-04-09T08:04:03.000Z</time>
        <extensions>
          <gpxtpx:TrackPointExtension xmlns:gpxtpx="http://www.garmin.com/xmlschemas/TrackPointExtension/v1">
            <gpxtpx:hr>138</gpxtpx:hr>
          </gpxtpx:TrackPointExtension>
        </extensions>
      </trkpt>
      <trkpt lat="49.32524" lon="0.99381">
        <ele>118.857421875</ele>
        <time>2017-04-09T08:04:05.000Z</time>
        <extensions>
          <gpxtpx:TrackPointExtension xmlns:gpxtpx="http://www.garmin.com/xmlschemas/TrackPointExtension/v1">
            <gpxtpx:hr>141</gpxtpx:hr>
          </gpxtpx:TrackPointExtension>
        </extensions>
      </trkpt>
      <trkpt lat="49.32528" lon="0.99383">
        <ele>119.08583831787</ele>
        <time>2017-04-09T08:04:07.000Z</time>
        <extensions>
          <gpxtpx:TrackPointExtension xmlns:gpxtpx="http://www.garmin.com/xmlschemas/TrackPointExtension/v1">
            <gpxtpx:hr>143</gpxtpx:hr>
          </gpxtpx:TrackPointExtension>
        </extensions>
      </trkpt>
      <trkpt lat="49.32533" lon="0.99386">
        <ele>119.36141204834</ele>
        <time>2017-04-09T08:04:09.000Z</time>
        <extensions>
          <gpxtpx:TrackPointExtension xmlns:gpxtpx="http://www.garmin.com/xmlschemas/TrackPointExtension/v1">
            <gpxtpx:hr>146</gpxtpx:hr>
          </gpxtpx:TrackPointExtension>
        </extensions>
      </trkpt>
      <trkpt lat="49.32537" lon="0.99394">
        <ele>119.65299987793</ele>
        <time>2017-04-09T08:04:12.000Z</time>
      </trkpt>
      <trkpt lat="49.32541" lon="0.99398">
        <ele>119.90018463135</ele>
        <time>2017-04-09T08:04:14.000Z</time>
        <extensions>
          <gpxtpx:TrackPointExtension xmlns:gpxtpx="http://www.garmin.com/xmlschemas/TrackPointExtension/v1">
            <gpxtpx:hr>148</gpxtpx:hr>
          </gpxtpx:TrackPointExtension>
        </extensions>
      </trkpt>
      <trkpt lat="49.32548" lon="0.99402">
        <ele>120.22511291504</ele>
        <time>2017-04-09T08:04:17.000Z</time>
        <extensions>
          <gpxtpx:TrackPointExtension xmlns:gpxtpx="http://www.garmin.com/xmlschemas/TrackPointExtension/v1">
            <gpxtpx:hr>148</gpxtpx:hr>
          </gpxtpx:TrackPointExtension>
        </extensions>
      </trkpt>
      <trkpt lat="49.32555" lon="0.99406">
        <ele>120.60109710693</ele>
        <time>2017-04-09T08:04:19.000Z</time>
      </trkpt>
      <trkpt lat="49.32559" lon="0.99409">
        <ele>121.0047454834</ele>
        <time>2017-04-09T08:04:21.000Z</time>
      </trkpt>
      <trkpt lat="49.32563" lon="0.99412">
        <ele>121.42069244385</ele>
        <time>2017-04-09T08:04:23.000Z</time>
      </trkpt>
      <trkpt lat="49.32573" lon="0.99414">
        <ele>121.94264984131</ele>
        <time>2017-04-09T08:04:26.000Z</time>
      </trkpt>
      <trkpt lat="49.32581" lon="0.99412">
        <ele>122.47944641113</ele>
        <time>2017-04-09T08:04:28.000Z</time>
      </trkpt>
      <trkpt lat="49.32589" lon="0.99412">
        <ele>122.85691070557</ele>
        <time>2017-04-09T08:04:31.000Z</time>
      </trkpt>
      <trkpt lat="49.32595" lon="0.99422">
        <ele>122.96339416504</ele>
        <time>2017-04-09T08:04:34.000Z</time>
      </trkpt>
      <trkpt lat="49.32601" lon="0.99427">
        <ele>122.83107757568</ele>
        <time>2017-04-09T08:04:37.000Z</time>
      </trkpt>
      <trkpt lat="49.32609" lon="0.99436">
        <ele>122.29013824463</ele>
        <time>2017-04-09T08:04:40.000Z</time>
      </trkpt>
      <trkpt lat="49.32615" lon="0.9944">
        <ele>121.50512695312</ele>
        <time>2017-04-09T08:04:42.000Z</time>
      </trkpt>
      <trkpt lat="49.32619" lon="0.99442">
        <ele>120.69993591309</ele>
        <time>2017-04-09T08:04:44.000Z</time>
      </trkpt>
      <trkpt lat="49.32622" lon="0.99448">
        <ele>119.99391174316</ele>
        <time>2017-04-09T08:04:47.000Z</time>
      </trkpt>
      <trkpt lat="49.32619" lon="0.99456">
        <ele>119.37528991699</ele>
        <time>2017-04-09T08:04:50.000Z</time>
      </trkpt>
      <trkpt lat="49.32614" lon="0.99462">
        <ele>118.94716644287</ele>
        <time>2017-04-09T08:04:53.000Z</time>
      </trkpt>
      <trkpt lat="49.32608" lon="0.99464">
        <ele>118.62277984619</ele>
        <time>2017-04-09T08:04:56.000Z</time>
      </trkpt>
      <trkpt lat="49.32602" lon="0.99465">
        <ele>118.35438537598</ele>
        <time>2017-04-09T08:04:58.000Z</time>
      </trkpt>
      <trkpt lat="49.32595" lon="0.99466">
        <ele>118.17244720459</ele>
        <time>2017-04-09T08:05:01.000Z</time>
        <extensions>
          <gpxtpx:TrackPointExtension xmlns:gpxtpx="http://www.garmin.com/xmlschemas/TrackPointExtension/v1">
            <gpxtpx:hr>145</gpxtpx:hr>
          </gpxtpx:TrackPointExtension>
        </extensions>
      </trkpt>
      <trkpt lat="49.32588" lon="0.99468">
        <ele>118.02729797363</ele>
        <time>2017-04-09T08:05:04.000Z</time>
        <extensions>
          <gpxtpx:TrackPointExtension xmlns:gpxtpx="http://www.garmin.com/xmlschemas/TrackPointExtension/v1">
            <gpxtpx:hr>147</gpxtpx:hr>
          </gpxtpx:TrackPointExtension>
        </extensions>
      </trkpt>
      <trkpt lat="49.32584" lon="0.99471">
        <ele>117.87325286865</ele>
        <time>2017-04-09T08:05:06.000Z</time>
        <extensions>
          <gpxtpx:TrackPointExtension xmlns:gpxtpx="http://www.garmin.com/xmlschemas/TrackPointExtension/v1">
            <gpxtpx:hr>146</gpxtpx:hr>
          </gpxtpx:TrackPointExtension>
        </extensions>
      </trkpt>
      <trkpt lat="49.32579" lon="0.9948">
        <ele>117.42594146729</ele>
        <time>2017-04-09T08:05:09.000Z</time>
        <extensions>
          <gpxtpx:TrackPointExtension xmlns:gpxtpx="http://www.garmin.com/xmlschemas/TrackPointExtension/v1">
            <gpxtpx:hr>146</gpxtpx:hr>
          </gpxtpx:TrackPointExtension>
        </extensions>
      </trkpt>
      <trkpt lat="49.32563" lon="0.99506">
        <ele>116.01832580566</ele>
        <time>2017-04-09T08:05:13.000Z</time>
        <extensions>
          <gpxtpx:TrackPointExtension xmlns:gpxtpx="http://www.garmin.com/xmlschemas/TrackPointExtension/v1">
            <gpxtpx:hr>149</gpxtpx:hr>
          </gpxtpx:TrackPointExtension>
        </extensions>
      </trkpt>
      <trkpt lat="49.3256" lon="0.99529">
        <ele>114.10546875</ele>
        <time>2017-04-09T08:05:16.000Z</time>
        <extensions>
          <gpxtpx:TrackPointExtension xmlns:gpxtpx="http://www.garmin.com/xmlschemas/TrackPointExtension/v1">
            <gpxtpx:hr>153</gpxtpx:hr>
          </gpxtpx:TrackPointExtension>
        </extensions>
      </trkpt>
      <trkpt lat="49.32563" lon="0.99548">
        <ele>112.01133728027</ele>
        <time>2017-04-09T08:05:19.000Z</time>
        <extensions>
          <gpxtpx:TrackPointExtension xmlns:gpxtpx="http://www.garmin.com/xmlschemas/TrackPointExtension/v1">
            <gpxtpx:hr>155</gpxtpx:hr>
          </gpxtpx:TrackPointExtension>
        </extensions>
      </trkpt>
      <trkpt lat="49.32568" lon="0.99554">
        <ele>110.05143737793</ele>
        <time>2017-04-09T08:05:22.000Z</time>
        <extensions>
          <gpxtpx:TrackPointExtension xmlns:gpxtpx="http://www.garmin.com/xmlschemas/TrackPointExtension/v1">
            <gpxtpx:hr>156</gpxtpx:hr>
          </gpxtpx:TrackPointExtension>
        </extensions>
      </trkpt>
      <trkpt lat="49.32573" lon="0.9956">
        <ele>108.4365234375</ele>
        <time>2017-04-09T08:05:24.000Z</time>
        <extensions>
          <gpxtpx:TrackPointExtension xmlns:gpxtpx="http://www.garmin.com/xmlschemas/TrackPointExtension/v1">
            <gpxtpx:hr>156</gpxtpx:hr>
          </gpxtpx:TrackPointExtension>
        </extensions>
      </trkpt>
      <trkpt lat="49.32578" lon="0.9957">
        <ele>107.8466796875</ele>
        <time>2017-04-09T08:05:27.000Z</time>
      </trkpt>
      <trkpt lat="49.32587" lon="0.99588">
        <ele>107.771484375</ele>
        <time>2017-04-09T08:05:30.000Z</time>
      </trkpt>
      <trkpt lat="49.32588" lon="0.99607">
        <ele>107.73266601562</ele>
        <time>2017-04-09T08:05:33.000Z</time>
      </trkpt>
      <trkpt lat="49.32586" lon="0.99619">
        <ele>107.45002746582</ele>
        <time>2017-04-09T08:05:36.000Z</time>
      </trkpt>
      <trkpt lat="49.32591" lon="0.99635">
        <ele>107.05322265625</ele>
        <time>2017-04-09T08:05:39.000Z</time>
      </trkpt>
      <trkpt lat="49.32595" lon="0.9964">
        <ele>106.67319488525</ele>
        <time>2017-04-09T08:05:41.000Z</time>
      </trkpt>
      <trkpt lat="49.326" lon="0.99646">
        <ele>106.35115814209</ele>
        <time>2017-04-09T08:05:44.000Z</time>
      </trkpt>
      <trkpt lat="49.32603" lon="0.99652">
        <ele>106.2215423584</ele>
        <time>2017-04-09T08:05:46.000Z</time>
      </trkpt>
      <trkpt lat="49.32605" lon="0.99662">
        <ele>106.26265716553</ele>
        <time>2017-04-09T08:05:48.000Z</time>
      </trkpt>
      <trkpt lat="49.32608" lon="0.99686">
        <ele>106.3212890625</ele>
        <time>2017-04-09T08:05:51.000Z</time>
      </trkpt>
      <trkpt lat="49.32611" lon="0.99708">
        <ele>106.29514312744</ele>
        <time>2017-04-09T08:05:54.000Z</time>
      </trkpt>
      <trkpt lat="49.32613" lon="0.99718">
        <ele>106.22800445557</ele>
        <time>2017-04-09T08:05:56.000Z</time>
      </trkpt>
      <trkpt lat="49.32617" lon="0.99724">
        <ele>106.22021484375</ele>
        <time>2017-04-09T08:05:58.000Z</time>
      </trkpt>
      <trkpt lat="49.32621" lon="0.99736">
        <ele>106.29724121094</ele>
        <time>2017-04-09T08:06:01.000Z</time>
        <extensions>
          <gpxtpx:TrackPointExtension xmlns:gpxtpx="http://www.garmin.com/xmlschemas/TrackPointExtension/v1">
            <gpxtpx:hr>157</gpxtpx:hr>
          </gpxtpx:TrackPointExtension>
        </extensions>
      </trkpt>
      <trkpt lat="49.32624" lon="0.99749">
        <ele>106.44216156006</ele>
        <time>2017-04-09T08:06:04.000Z</time>
        <extensions>
          <gpxtpx:TrackPointExtension xmlns:gpxtpx="http://www.garmin.com/xmlschemas/TrackPointExtension/v1">
            <gpxtpx:hr>160</gpxtpx:hr>
          </gpxtpx:TrackPointExtension>
        </extensions>
      </trkpt>
      <trkpt lat="49.32627" lon="0.99756">
        <ele>106.63669586182</ele>
        <time>2017-04-09T08:06:06.000Z</time>
        <extensions>
          <gpxtpx:TrackPointExtension xmlns:gpxtpx="http://www.garmin.com/xmlschemas/TrackPointExtension/v1">
            <gpxtpx:hr>160</gpxtpx:hr>
          </gpxtpx:TrackPointExtension>
        </extensions>
      </trkpt>
      <trkpt lat="49.32631" lon="0.99763">
        <ele>106.86106109619</ele>
        <time>2017-04-09T08:06:08.000Z</time>
      </trkpt>
      <trkpt lat="49.32632" lon="0.99768">
        <ele>107.01973724365</ele>
        <time>2017-04-09T08:06:10.000Z</time>
        <extensions>
          <gpxtpx:TrackPointExtension xmlns:gpxtpx="http://www.garmin.com/xmlschemas/TrackPointExtension/v1">
            <gpxtpx:hr>161</gpxtpx:hr>
          </gpxtpx:TrackPointExtension>
        </extensions>
      </trkpt>
      <trkpt lat="49.32634" lon="0.99781">
        <ele>107.04753112793</ele>
        <time>2017-04-09T08:06:13.000Z</time>
        <extensions>
          <gpxtpx:TrackPointExtension xmlns:gpxtpx="http://www.garmin.com/xmlschemas/TrackPointExtension/v1">
            <gpxtpx:hr>158</gpxtpx:hr>
          </gpxtpx:TrackPointExtension>
        </extensions>
      </trkpt>
      <trkpt lat="49.32637" lon="0.99792">
        <ele>107.09741210938</ele>
        <time>2017-04-09T08:06:16.000Z</time>
        <extensions>
          <gpxtpx:TrackPointExtension xmlns:gpxtpx="http://www.garmin.com/xmlschemas/TrackPointExtension/v1">
            <gpxtpx:hr>155</gpxtpx:hr>
          </gpxtpx:TrackPointExtension>
        </extensions>
      </trkpt>
      <trkpt lat="49.3264" lon="0.998">
        <ele>107.1268157959</ele>
        <time>2017-04-09T08:06:18.000Z</time>
        <extensions>
          <gpxtpx:TrackPointExtension xmlns:gpxtpx="http://www.garmin.com/xmlschemas/TrackPointExtension/v1">
            <gpxtpx:hr>154</gpxtpx:hr>
          </gpxtpx:TrackPointExtension>
        </extensions>
      </trkpt>
      <trkpt lat="49.32641" lon="0.99809">
        <ele>107.07136535645</ele>
        <time>2017-04-09T08:06:21.000Z</time>
      </trkpt>
      <trkpt lat="49.32646" lon="0.99821">
        <ele>107.10495758057</ele>
        <time>2017-04-09T08:06:24.000Z</time>
      </trkpt>
      <trkpt lat="49.3265" lon="0.99832">
        <ele>107.30418395996</ele>
        <time>2017-04-09T08:06:27.000Z</time>
      </trkpt>
      <trkpt lat="49.32653" lon="0.99848">
        <ele>107.35984039307</ele>
        <time>2017-04-09T08:06:30.000Z</time>
      </trkpt>
      <trkpt lat="49.32655" lon="0.99859">
        <ele>107.37735748291</ele>
        <time>2017-04-09T08:06:33.000Z</time>
      </trkpt>
      <trkpt lat="49.3266" lon="0.9987">
        <ele>107.50793457031</ele>
        <time>2017-04-09T08:06:36.000Z</time>
      </trkpt>
      <trkpt lat="49.32665" lon="0.99889">
        <ele>107.59741210938</ele>
        <time>2017-04-09T08:06:39.000Z</time>
      </trkpt>
      <trkpt lat="49.32665" lon="0.99909">
        <ele>107.40324401855</ele>
        <time>2017-04-09T08:06:41.000Z</time>
      </trkpt>
      <trkpt lat="49.32671" lon="0.99929">
        <ele>107.09117126465</ele>
        <time>2017-04-09T08:06:44.000Z</time>
      </trkpt>
      <trkpt lat="49.32681" lon="0.99935">
        <ele>106.71144866943</ele>
        <time>2017-04-09T08:06:46.000Z</time>
      </trkpt>
      <trkpt lat="49.32684" lon="0.99947">
        <ele>106.00505065918</ele>
        <time>2017-04-09T08:06:49.000Z</time>
      </trkpt>
      <trkpt lat="49.32692" lon="0.99959">
        <ele>105.00748443604</ele>
        <time>2017-04-09T08:06:52.000Z</time>
      </trkpt>
      <trkpt lat="49.32697" lon="0.99959">
        <ele>104.20639801025</ele>
        <time>2017-04-09T08:06:55.000Z</time>
      </trkpt>
      <trkpt lat="49.327" lon="0.99955">
        <ele>103.73637390137</ele>
        <time>2017-04-09T08:06:57.000Z</time>
      </trkpt>
      <trkpt lat="49.32703" lon="0.9995">
        <ele>103.50378417969</ele>
        <time>2017-04-09T08:07:00.000Z</time>
        <extensions>
          <gpxtpx:TrackPointExtension xmlns:gpxtpx="http://www.garmin.com/xmlschemas/TrackPointExtension/v1">
            <gpxtpx:hr>158</gpxtpx:hr>
          </gpxtpx:TrackPointExtension>
        </extensions>
      </trkpt>
      <trkpt lat="49.32706" lon="0.99948">
        <ele>103.5643081665</ele>
        <time>2017-04-09T08:07:02.000Z</time>
        <extensions>
          <gpxtpx:TrackPointExtension xmlns:gpxtpx="http://www.garmin.com/xmlschemas/TrackPointExtension/v1">
            <gpxtpx:hr>159</gpxtpx:hr>
          </gpxtpx:TrackPointExtension>
        </extensions>
      </trkpt>
      <trkpt lat="49.32708" lon="0.99948">
        <ele>103.87089538574</ele>
        <time>2017-04-09T08:07:04.000Z</time>
        <extensions>
          <gpxtpx:TrackPointExtension xmlns:gpxtpx="http://www.garmin.com/xmlschemas/TrackPointExtension/v1">
            <gpxtpx:hr>159</gpxtpx:hr>
          </gpxtpx:TrackPointExtension>
        </extensions>
      </trkpt>
      <trkpt lat="49.3271" lon="0.99949">
        <ele>104.14672851562</ele>
        <time>2017-04-09T08:07:08.000Z</time>
        <extensions>
          <gpxtpx:TrackPointExtension xmlns:gpxtpx="http://www.garmin.com/xmlschemas/TrackPointExtension/v1">
            <gpxtpx:hr>160</gpxtpx:hr>
          </gpxtpx:TrackPointExtension>
        </extensions>
      </trkpt>
      <trkpt lat="49.32713" lon="0.99947">
        <ele>104.38146972656</ele>
        <time>2017-04-09T08:07:11.000Z</time>
        <extensions>
          <gpxtpx:TrackPointExtension xmlns:gpxtpx="http://www.garmin.com/xmlschemas/TrackPointExtension/v1">
            <gpxtpx:hr>163</gpxtpx:hr>
          </gpxtpx:TrackPointExtension>
        </extensions>
      </trkpt>
      <trkpt lat="49.32718" lon="0.99944">
        <ele>104.55587005615</ele>
        <time>2017-04-09T08:07:13.000Z</time>
      </trkpt>
      <trkpt lat="49.32724" lon="0.99941">
        <ele>104.77761077881</ele>
        <time>2017-04-09T08:07:16.000Z</time>
        <extensions>
          <gpxtpx:TrackPointExtension xmlns:gpxtpx="http://www.garmin.com/xmlschemas/TrackPointExtension/v1">
            <gpxtpx:hr>162</gpxtpx:hr>
          </gpxtpx:TrackPointExtension>
        </extensions>
      </trkpt>
      <trkpt lat="49.32726" lon="0.9994">
        <ele>105.03372955322</ele>
        <time>2017-04-09T08:07:19.000Z</time>
      </trkpt>
      <trkpt lat="49.32734" lon="0.99938">
        <ele>105.39860534668</ele>
        <time>2017-04-09T08:07:22.000Z</time>
      </trkpt>
      <trkpt lat="49.32737" lon="0.99937">
        <ele>105.72709655762</ele>
        <time>2017-04-09T08:07:24.000Z</time>
      </trkpt>
      <trkpt lat="49.32743" lon="0.99937">
        <ele>106.00355529785</ele>
        <time>2017-04-09T08:07:27.000Z</time>
      </trkpt>
      <trkpt lat="49.32751" lon="0.99934">
        <ele>106.28874206543</ele>
        <time>2017-04-09T08:07:30.000Z</time>
      </trkpt>
      <trkpt lat="49.32758" lon="0.99929">
        <ele>106.72315979004</ele>
        <time>2017-04-09T08:07:33.000Z</time>
      </trkpt>
      <trkpt lat="49.32763" lon="0.99925">
        <ele>107.19282531738</ele>
        <time>2017-04-09T08:07:35.000Z</time>
      </trkpt>
      <trkpt lat="49.32767" lon="0.99922">
        <ele>107.75004577637</ele>
        <time>2017-04-09T08:07:37.000Z</time>
      </trkpt>
      <trkpt lat="49.32774" lon="0.99914">
        <ele>108.48588562012</ele>
        <time>2017-04-09T08:07:40.000Z</time>
      </trkpt>
      <trkpt lat="49.32779" lon="0.99909">
        <ele>109.26518249512</ele>
        <time>2017-04-09T08:07:42.000Z</time>
      </trkpt>
      <trkpt lat="49.32785" lon="0.99904">
        <ele>110.014793396</ele>
        <time>2017-04-09T08:07:45.000Z</time>
      </trkpt>
      <trkpt lat="49.32788" lon="0.99899">
        <ele>110.75876617432</ele>
        <time>2017-04-09T08:07:47.000Z</time>
      </trkpt>
      <trkpt lat="49.32792" lon="0.99894">
        <ele>111.54100036621</ele>
        <time>2017-04-09T08:07:49.000Z</time>
      </trkpt>
      <trkpt lat="49.32795" lon="0.99887">
        <ele>112.3013458252</ele>
        <time>2017-04-09T08:07:52.000Z</time>
      </trkpt>
      <trkpt lat="49.328" lon="0.99887">
        <ele>112.97202301025</ele>
        <time>2017-04-09T08:07:55.000Z</time>
      </trkpt>
      <trkpt lat="49.32804" lon="0.99898">
        <ele>113.27026367188</ele>
        <time>2017-04-09T08:07:58.000Z</time>
      </trkpt>
      <trkpt lat="49.32808" lon="0.99907">
        <ele>113.26442718506</ele>
        <time>2017-04-09T08:08:00.000Z</time>
        <extensions>
          <gpxtpx:TrackPointExtension xmlns:gpxtpx="http://www.garmin.com/xmlschemas/TrackPointExtension/v1">
            <gpxtpx:hr>160</gpxtpx:hr>
          </gpxtpx:TrackPointExtension>
        </extensions>
      </trkpt>
      <trkpt lat="49.32812" lon="0.99918">
        <ele>112.8913192749</ele>
        <time>2017-04-09T08:08:02.000Z</time>
        <extensions>
          <gpxtpx:TrackPointExtension xmlns:gpxtpx="http://www.garmin.com/xmlschemas/TrackPointExtension/v1">
            <gpxtpx:hr>157</gpxtpx:hr>
          </gpxtpx:TrackPointExtension>
        </extensions>
      </trkpt>
      <trkpt lat="49.32818" lon="0.99932">
        <ele>112.15486907959</ele>
        <time>2017-04-09T08:08:04.000Z</time>
        <extensions>
          <gpxtpx:TrackPointExtension xmlns:gpxtpx="http://www.garmin.com/xmlschemas/TrackPointExtension/v1">
            <gpxtpx:hr>153</gpxtpx:hr>
          </gpxtpx:TrackPointExtension>
        </extensions>
      </trkpt>
      <trkpt lat="49.32825" lon="0.99955">
        <ele>111.07946777344</ele>
        <time>2017-04-09T08:08:07.000Z</time>
        <extensions>
          <gpxtpx:TrackPointExtension xmlns:gpxtpx="http://www.garmin.com/xmlschemas/TrackPointExtension/v1">
            <gpxtpx:hr>149</gpxtpx:hr>
          </gpxtpx:TrackPointExtension>
        </extensions>
      </trkpt>
      <trkpt lat="49.32835" lon="0.99973">
        <ele>110.06119537354</ele>
        <time>2017-04-09T08:08:09.000Z</time>
        <extensions>
          <gpxtpx:TrackPointExtension xmlns:gpxtpx="http://www.garmin.com/xmlschemas/TrackPointExtension/v1">
            <gpxtpx:hr>148</gpxtpx:hr>
          </gpxtpx:TrackPointExtension>
        </extensions>
      </trkpt>
      <trkpt lat="49.32849" lon="1.00008">
        <ele>108.7906036377</ele>
        <time>2017-04-09T08:08:12.000Z</time>
        <extensions>
          <gpxtpx:TrackPointExtension xmlns:gpxtpx="http://www.garmin.com/xmlschemas/TrackPointExtension/v1">
            <gpxtpx:hr>148</gpxtpx:hr>
          </gpxtpx:TrackPointExtension>
        </extensions>
      </trkpt>
      <trkpt lat="49.32858" lon="1.00036">
        <ele>107.26112365723</ele>
        <time>2017-04-09T08:08:15.000Z</time>
        <extensions>
          <gpxtpx:TrackPointExtension xmlns:gpxtpx="http://www.garmin.com/xmlschemas/TrackPointExtension/v1">
            <gpxtpx:hr>155</gpxtpx:hr>
          </gpxtpx:TrackPointExtension>
        </extensions>
      </trkpt>
      <trkpt lat="49.32868" lon="1.00052">
        <ele>105.6845703125</ele>
        <time>2017-04-09T08:08:18.000Z</time>
        <extensions>
          <gpxtpx:TrackPointExtension xmlns:gpxtpx="http://www.garmin.com/xmlschemas/TrackPointExtension/v1">
            <gpxtpx:hr>163</gpxtpx:hr>
          </gpxtpx:TrackPointExtension>
        </extensions>
      </trkpt>
      <trkpt lat="49.32871" lon="1.00068">
        <ele>104.09765625</ele>
        <time>2017-04-09T08:08:20.000Z</time>
        <extensions>
          <gpxtpx:TrackPointExtension xmlns:gpxtpx="http://www.garmin.com/xmlschemas/TrackPointExtension/v1">
            <gpxtpx:hr>167</gpxtpx:hr>
          </gpxtpx:TrackPointExtension>
        </extensions>
      </trkpt>
      <trkpt lat="49.32878" lon="1.00083">
        <ele>102.43259429932</ele>
        <time>2017-04-09T08:08:22.000Z</time>
      </trkpt>
      <trkpt lat="49.32882" lon="1.00102">
        <ele>100.86170959473</ele>
        <time>2017-04-09T08:08:25.000Z</time>
      </trkpt>
      <trkpt lat="49.32886" lon="1.00103">
        <ele>99.792663574219</ele>
        <time>2017-04-09T08:08:28.000Z</time>
      </trkpt>
      <trkpt lat="49.32892" lon="1.00103">
        <ele>99.034858703613</ele>
        <time>2017-04-09T08:08:31.000Z</time>
      </trkpt>
      <trkpt lat="49.32896" lon="1.00106">
        <ele>98.54402923584</ele>
        <time>2017-04-09T08:08:33.000Z</time>
      </trkpt>
      <trkpt lat="49.32898" lon="1.00105">
        <ele>98.325210571289</ele>
        <time>2017-04-09T08:08:35.000Z</time>
      </trkpt>
      <trkpt lat="49.32898" lon="1.00107">
        <ele>98.412330627441</ele>
        <time>2017-04-09T08:08:38.000Z</time>
      </trkpt>
      <trkpt lat="49.32903" lon="1.00109">
        <ele>98.488952636719</ele>
        <time>2017-04-09T08:08:41.000Z</time>
      </trkpt>
      <trkpt lat="49.32907" lon="1.00107">
        <ele>98.573020935059</ele>
        <time>2017-04-09T08:08:44.000Z</time>
      </trkpt>
      <trkpt lat="49.32909" lon="1.00105">
        <ele>98.738327026367</ele>
        <time>2017-04-09T08:08:47.000Z</time>
      </trkpt>
      <trkpt lat="49.32911" lon="1.00104">
        <ele>98.897918701172</ele>
        <time>2017-04-09T08:08:49.000Z</time>
      </trkpt>
      <trkpt lat="49.32913" lon="1.00104">
        <ele>99.130905151367</ele>
        <time>2017-04-09T08:08:51.000Z</time>
      </trkpt>
      <trkpt lat="49.32916" lon="1.00105">
        <ele>99.365188598633</ele>
        <time>2017-04-09T08:08:54.000Z</time>
      </trkpt>
      <trkpt lat="49.32921" lon="1.00104">
        <ele>99.564102172852</ele>
        <time>2017-04-09T08:08:57.000Z</time>
      </trkpt>
      <trkpt lat="49.32923" lon="1.00105">
        <ele>99.708854675293</ele>
        <time>2017-04-09T08:08:59.000Z</time>
      </trkpt>
      <trkpt lat="49.32924" lon="1.00106">
        <ele>99.801528930664</ele>
        <time>2017-04-09T08:09:01.000Z</time>
        <extensions>
          <gpxtpx:TrackPointExtension xmlns:gpxtpx="http://www.garmin.com/xmlschemas/TrackPointExtension/v1">
            <gpxtpx:hr>169</gpxtpx:hr>
          </gpxtpx:TrackPointExtension>
        </extensions>
      </trkpt>
      <trkpt lat="49.32925" lon="1.00109">
        <ele>99.804870605469</ele>
        <time>2017-04-09T08:09:04.000Z</time>
        <extensions>
          <gpxtpx:TrackPointExtension xmlns:gpxtpx="http://www.garmin.com/xmlschemas/TrackPointExtension/v1">
            <gpxtpx:hr>168</gpxtpx:hr>
          </gpxtpx:TrackPointExtension>
        </extensions>
      </trkpt>
      <trkpt lat="49.32928" lon="1.0011">
        <ele>99.804977416992</ele>
        <time>2017-04-09T08:09:06.000Z</time>
        <extensions>
          <gpxtpx:TrackPointExtension xmlns:gpxtpx="http://www.garmin.com/xmlschemas/TrackPointExtension/v1">
            <gpxtpx:hr>167</gpxtpx:hr>
          </gpxtpx:TrackPointExtension>
        </extensions>
      </trkpt>
      <trkpt lat="49.32933" lon="1.00114">
        <ele>99.708084106445</ele>
        <time>2017-04-09T08:09:09.000Z</time>
        <extensions>
          <gpxtpx:TrackPointExtension xmlns:gpxtpx="http://www.garmin.com/xmlschemas/TrackPointExtension/v1">
            <gpxtpx:hr>166</gpxtpx:hr>
          </gpxtpx:TrackPointExtension>
        </extensions>
      </trkpt>
      <trkpt lat="49.32939" lon="1.00115">
        <ele>99.648872375488</ele>
        <time>2017-04-09T08:09:12.000Z</time>
        <extensions>
          <gpxtpx:TrackPointExtension xmlns:gpxtpx="http://www.garmin.com/xmlschemas/TrackPointExtension/v1">
            <gpxtpx:hr>165</gpxtpx:hr>
          </gpxtpx:TrackPointExtension>
        </extensions>
      </trkpt>
      <trkpt lat="49.32941" lon="1.00119">
        <ele>99.562026977539</ele>
        <time>2017-04-09T08:09:15.000Z</time>
        <extensions>
          <gpxtpx:TrackPointExtension xmlns:gpxtpx="http://www.garmin.com/xmlschemas/TrackPointExtension/v1">
            <gpxtpx:hr>163</gpxtpx:hr>
          </gpxtpx:TrackPointExtension>
        </extensions>
      </trkpt>
      <trkpt lat="49.32946" lon="1.00122">
        <ele>99.502883911133</ele>
        <time>2017-04-09T08:09:18.000Z</time>
        <extensions>
          <gpxtpx:TrackPointExtension xmlns:gpxtpx="http://www.garmin.com/xmlschemas/TrackPointExtension/v1">
            <gpxtpx:hr>163</gpxtpx:hr>
          </gpxtpx:TrackPointExtension>
        </extensions>
      </trkpt>
      <trkpt lat="49.32952" lon="1.00121">
        <ele>99.527587890625</ele>
        <time>2017-04-09T08:09:21.000Z</time>
        <extensions>
          <gpxtpx:TrackPointExtension xmlns:gpxtpx="http://www.garmin.com/xmlschemas/TrackPointExtension/v1">
            <gpxtpx:hr>166</gpxtpx:hr>
          </gpxtpx:TrackPointExtension>
        </extensions>
      </trkpt>
      <trkpt lat="49.32958" lon="1.0012">
        <ele>99.680137634277</ele>
        <time>2017-04-09T08:09:23.000Z</time>
      </trkpt>
      <trkpt lat="49.32965" lon="1.00118">
        <ele>99.886100769043</ele>
        <time>2017-04-09T08:09:26.000Z</time>
      </trkpt>
      <trkpt lat="49.32968" lon="1.00117">
        <ele>100.1957244873</ele>
        <time>2017-04-09T08:09:28.000Z</time>
      </trkpt>
      <trkpt lat="49.32973" lon="1.00115">
        <ele>100.6183013916</ele>
        <time>2017-04-09T08:09:31.000Z</time>
      </trkpt>
      <trkpt lat="49.32977" lon="1.00113">
        <ele>101.00405883789</ele>
        <time>2017-04-09T08:09:33.000Z</time>
      </trkpt>
      <trkpt lat="49.3298" lon="1.00113">
        <ele>101.34325408936</ele>
        <time>2017-04-09T08:09:39.000Z</time>
      </trkpt>
      <trkpt lat="49.32985" lon="1.00108">
        <ele>101.69958496094</ele>
        <time>2017-04-09T08:09:42.000Z</time>
      </trkpt>
      <trkpt lat="49.32987" lon="1.00104">
        <ele>102.09741973877</ele>
        <time>2017-04-09T08:09:44.000Z</time>
      </trkpt>
      <trkpt lat="49.32988" lon="1.00098">
        <ele>102.50538635254</ele>
        <time>2017-04-09T08:09:47.000Z</time>
      </trkpt>
      <trkpt lat="49.32988" lon="1.00093">
        <ele>102.92607116699</ele>
        <time>2017-04-09T08:09:49.000Z</time>
      </trkpt>
      <trkpt lat="49.32989" lon="1.00087">
        <ele>103.41296386719</ele>
        <time>2017-04-09T08:09:51.000Z</time>
      </trkpt>
      <trkpt lat="49.32991" lon="1.00078">
        <ele>103.90705871582</ele>
        <time>2017-04-09T08:09:54.000Z</time>
      </trkpt>
      <trkpt lat="49.32991" lon="1.00076">
        <ele>104.33652496338</ele>
        <time>2017-04-09T08:09:56.000Z</time>
      </trkpt>
      <trkpt lat="49.32993" lon="1.0007">
        <ele>104.73097229004</ele>
        <time>2017-04-09T08:09:59.000Z</time>
      </trkpt>
      <trkpt lat="49.32994" lon="1.00065">
        <ele>105.10633850098</ele>
        <time>2017-04-09T08:10:01.000Z</time>
        <extensions>
          <gpxtpx:TrackPointExtension xmlns:gpxtpx="http://www.garmin.com/xmlschemas/TrackPointExtension/v1">
            <gpxtpx:hr>166</gpxtpx:hr>
          </gpxtpx:TrackPointExtension>
        </extensions>
      </trkpt>
      <trkpt lat="49.32994" lon="1.00061">
        <ele>105.42092132568</ele>
        <time>2017-04-09T08:10:03.000Z</time>
        <extensions>
          <gpxtpx:TrackPointExtension xmlns:gpxtpx="http://www.garmin.com/xmlschemas/TrackPointExtension/v1">
            <gpxtpx:hr>165</gpxtpx:hr>
          </gpxtpx:TrackPointExtension>
        </extensions>
      </trkpt>
      <trkpt lat="49.32994" lon="1.00054">
        <ele>105.69157409668</ele>
        <time>2017-04-09T08:10:06.000Z</time>
        <extensions>
          <gpxtpx:TrackPointExtension xmlns:gpxtpx="http://www.garmin.com/xmlschemas/TrackPointExtension/v1">
            <gpxtpx:hr>161</gpxtpx:hr>
          </gpxtpx:TrackPointExtension>
        </extensions>
      </trkpt>
      <trkpt lat="49.32995" lon="1.00049">
        <ele>105.98612213135</ele>
        <time>2017-04-09T08:10:08.000Z</time>
        <extensions>
          <gpxtpx:TrackPointExtension xmlns:gpxtpx="http://www.garmin.com/xmlschemas/TrackPointExtension/v1">
            <gpxtpx:hr>162</gpxtpx:hr>
          </gpxtpx:TrackPointExtension>
        </extensions>
      </trkpt>
      <trkpt lat="49.32995" lon="1.00039">
        <ele>106.31047058105</ele>
        <time>2017-04-09T08:10:11.000Z</time>
        <extensions>
          <gpxtpx:TrackPointExtension xmlns:gpxtpx="http://www.garmin.com/xmlschemas/TrackPointExtension/v1">
            <gpxtpx:hr>162</gpxtpx:hr>
          </gpxtpx:TrackPointExtension>
        </extensions>
      </trkpt>
      <trkpt lat="49.32994" lon="1.00032">
        <ele>106.65960693359</ele>
        <time>2017-04-09T08:10:14.000Z</time>
        <extensions>
          <gpxtpx:TrackPointExtension xmlns:gpxtpx="http://www.garmin.com/xmlschemas/TrackPointExtension/v1">
            <gpxtpx:hr>161</gpxtpx:hr>
          </gpxtpx:TrackPointExtension>
        </extensions>
      </trkpt>
      <trkpt lat="49.32992" lon="1.00026">
        <ele>107.02354431152</ele>
        <time>2017-04-09T08:10:17.000Z</time>
        <extensions>
          <gpxtpx:TrackPointExtension xmlns:gpxtpx="http://www.garmin.com/xmlschemas/TrackPointExtension/v1">
            <gpxtpx:hr>160</gpxtpx:hr>
          </gpxtpx:TrackPointExtension>
        </extensions>
      </trkpt>
      <trkpt lat="49.32991" lon="1.00016">
        <ele>107.41654968262</ele>
        <time>2017-04-09T08:10:20.000Z</time>
        <extensions>
          <gpxtpx:TrackPointExtension xmlns:gpxtpx="http://www.garmin.com/xmlschemas/TrackPointExtension/v1">
            <gpxtpx:hr>161</gpxtpx:hr>
          </gpxtpx:TrackPointExtension>
        </extensions>
      </trkpt>
      <trkpt lat="49.32991" lon="1.00008">
        <ele>107.840675354</ele>
        <time>2017-04-09T08:10:22.000Z</time>
      </trkpt>
      <trkpt lat="49.32993" lon="0.99998">
        <ele>108.26456451416</ele>
        <time>2017-04-09T08:10:25.000Z</time>
      </trkpt>
      <trkpt lat="49.32992" lon="0.9999">
        <ele>108.69337463379</ele>
        <time>2017-04-09T08:10:28.000Z</time>
      </trkpt>
      <trkpt lat="49.32993" lon="0.99981">
        <ele>109.14449310303</ele>
        <time>2017-04-09T08:10:31.000Z</time>
      </trkpt>
      <trkpt lat="49.32994" lon="0.99974">
        <ele>109.55867767334</ele>
        <time>2017-04-09T08:10:33.000Z</time>
      </trkpt>
      <trkpt lat="49.32995" lon="0.99967">
        <ele>109.95196533203</ele>
        <time>2017-04-09T08:10:35.000Z</time>
      </trkpt>
      <trkpt lat="49.32996" lon="0.99958">
        <ele>110.33294677734</ele>
        <time>2017-04-09T08:10:38.000Z</time>
      </trkpt>
      <trkpt lat="49.32998" lon="0.99951">
        <ele>110.68566894531</ele>
        <time>2017-04-09T08:10:40.000Z</time>
      </trkpt>
      <trkpt lat="49.33001" lon="0.99946">
        <ele>111.01963806152</ele>
        <time>2017-04-09T08:10:43.000Z</time>
      </trkpt>
      <trkpt lat="49.33003" lon="0.99939">
        <ele>111.37406158447</ele>
        <time>2017-04-09T08:10:46.000Z</time>
      </trkpt>
      <trkpt lat="49.33006" lon="0.99932">
        <ele>111.76145172119</ele>
        <time>2017-04-09T08:10:49.000Z</time>
      </trkpt>
      <trkpt lat="49.33009" lon="0.99926">
        <ele>112.14054870605</ele>
        <time>2017-04-09T08:10:51.000Z</time>
      </trkpt>
      <trkpt lat="49.33014" lon="0.99916">
        <ele>112.60711669922</ele>
        <time>2017-04-09T08:10:54.000Z</time>
      </trkpt>
      <trkpt lat="49.33016" lon="0.99907">
        <ele>113.10760498047</ele>
        <time>2017-04-09T08:10:56.000Z</time>
      </trkpt>
      <trkpt lat="49.33018" lon="0.99897">
        <ele>113.62440490723</ele>
        <time>2017-04-09T08:10:59.000Z</time>
      </trkpt>
      <trkpt lat="49.33019" lon="0.99889">
        <ele>114.11938476562</ele>
        <time>2017-04-09T08:11:02.000Z</time>
        <extensions>
          <gpxtpx:TrackPointExtension xmlns:gpxtpx="http://www.garmin.com/xmlschemas/TrackPointExtension/v1">
            <gpxtpx:hr>159</gpxtpx:hr>
          </gpxtpx:TrackPointExtension>
        </extensions>
      </trkpt>
      <trkpt lat="49.33023" lon="0.99884">
        <ele>114.6138458252</ele>
        <time>2017-04-09T08:11:05.000Z</time>
        <extensions>
          <gpxtpx:TrackPointExtension xmlns:gpxtpx="http://www.garmin.com/xmlschemas/TrackPointExtension/v1">
            <gpxtpx:hr>157</gpxtpx:hr>
          </gpxtpx:TrackPointExtension>
        </extensions>
      </trkpt>
      <trkpt lat="49.33028" lon="0.99881">
        <ele>115.03401184082</ele>
        <time>2017-04-09T08:11:07.000Z</time>
        <extensions>
          <gpxtpx:TrackPointExtension xmlns:gpxtpx="http://www.garmin.com/xmlschemas/TrackPointExtension/v1">
            <gpxtpx:hr>155</gpxtpx:hr>
          </gpxtpx:TrackPointExtension>
        </extensions>
      </trkpt>
      <trkpt lat="49.33033" lon="0.99871">
        <ele>115.46765136719</ele>
        <time>2017-04-09T08:11:10.000Z</time>
        <extensions>
          <gpxtpx:TrackPointExtension xmlns:gpxtpx="http://www.garmin.com/xmlschemas/TrackPointExtension/v1">
            <gpxtpx:hr>152</gpxtpx:hr>
          </gpxtpx:TrackPointExtension>
        </extensions>
      </trkpt>
      <trkpt lat="49.33035" lon="0.9986">
        <ele>115.89778137207</ele>
        <time>2017-04-09T08:11:13.000Z</time>
        <extensions>
          <gpxtpx:TrackPointExtension xmlns:gpxtpx="http://www.garmin.com/xmlschemas/TrackPointExtension/v1">
            <gpxtpx:hr>150</gpxtpx:hr>
          </gpxtpx:TrackPointExtension>
        </extensions>
      </trkpt>
      <trkpt lat="49.33036" lon="0.99852">
        <ele>116.31921386719</ele>
        <time>2017-04-09T08:11:16.000Z</time>
        <extensions>
          <gpxtpx:TrackPointExtension xmlns:gpxtpx="http://www.garmin.com/xmlschemas/TrackPointExtension/v1">
            <gpxtpx:hr>151</gpxtpx:hr>
          </gpxtpx:TrackPointExtension>
        </extensions>
      </trkpt>
      <trkpt lat="49.33034" lon="0.99846">
        <ele>116.69427490234</ele>
        <time>2017-04-09T08:11:19.000Z</time>
        <extensions>
          <gpxtpx:TrackPointExtension xmlns:gpxtpx="http://www.garmin.com/xmlschemas/TrackPointExtension/v1">
            <gpxtpx:hr>150</gpxtpx:hr>
          </gpxtpx:TrackPointExtension>
        </extensions>
      </trkpt>
      <trkpt lat="49.3303" lon="0.99843">
        <ele>117.00541687012</ele>
        <time>2017-04-09T08:11:22.000Z</time>
        <extensions>
          <gpxtpx:TrackPointExtension xmlns:gpxtpx="http://www.garmin.com/xmlschemas/TrackPointExtension/v1">
            <gpxtpx:hr>150</gpxtpx:hr>
          </gpxtpx:TrackPointExtension>
        </extensions>
      </trkpt>
      <trkpt lat="49.33031" lon="0.9984">
        <ele>117.23820495605</ele>
        <time>2017-04-09T08:11:24.000Z</time>
        <extensions>
          <gpxtpx:TrackPointExtension xmlns:gpxtpx="http://www.garmin.com/xmlschemas/TrackPointExtension/v1">
            <gpxtpx:hr>153</gpxtpx:hr>
          </gpxtpx:TrackPointExtension>
        </extensions>
      </trkpt>
      <trkpt lat="49.3304" lon="0.99839">
        <ele>117.42247009277</ele>
        <time>2017-04-09T08:11:27.000Z</time>
      </trkpt>
      <trkpt lat="49.33046" lon="0.99837">
        <ele>117.58206939697</ele>
        <time>2017-04-09T08:11:29.000Z</time>
      </trkpt>
      <trkpt lat="49.3305" lon="0.99833">
        <ele>117.75489807129</ele>
        <time>2017-04-09T08:11:31.000Z</time>
      </trkpt>
      <trkpt lat="49.33052" lon="0.99827">
        <ele>117.98857116699</ele>
        <time>2017-04-09T08:11:33.000Z</time>
      </trkpt>
      <trkpt lat="49.33056" lon="0.9982">
        <ele>118.24853515625</ele>
        <time>2017-04-09T08:11:35.000Z</time>
      </trkpt>
      <trkpt lat="49.33063" lon="0.99817">
        <ele>118.49636077881</ele>
        <time>2017-04-09T08:11:38.000Z</time>
      </trkpt>
      <trkpt lat="49.3307" lon="0.99824">
        <ele>118.68129730225</ele>
        <time>2017-04-09T08:11:41.000Z</time>
      </trkpt>
      <trkpt lat="49.33076" lon="0.99825">
        <ele>118.83870697021</ele>
        <time>2017-04-09T08:11:44.000Z</time>
      </trkpt>
      <trkpt lat="49.33081" lon="0.9982">
        <ele>118.9637298584</ele>
        <time>2017-04-09T08:11:47.000Z</time>
      </trkpt>
      <trkpt lat="49.33089" lon="0.99813">
        <ele>119.11540222168</ele>
        <time>2017-04-09T08:11:50.000Z</time>
      </trkpt>
      <trkpt lat="49.33097" lon="0.99806">
        <ele>119.30763244629</ele>
        <time>2017-04-09T08:11:53.000Z</time>
      </trkpt>
      <trkpt lat="49.33102" lon="0.99799">
        <ele>119.57795715332</ele>
        <time>2017-04-09T08:11:56.000Z</time>
      </trkpt>
      <trkpt lat="49.33107" lon="0.99792">
        <ele>119.88452148438</ele>
        <time>2017-04-09T08:11:59.000Z</time>
      </trkpt>
      <trkpt lat="49.3311" lon="0.99787">
        <ele>120.18461608887</ele>
        <time>2017-04-09T08:12:01.000Z</time>
        <extensions>
          <gpxtpx:TrackPointExtension xmlns:gpxtpx="http://www.garmin.com/xmlschemas/TrackPointExtension/v1">
            <gpxtpx:hr>153</gpxtpx:hr>
          </gpxtpx:TrackPointExtension>
        </extensions>
      </trkpt>
      <trkpt lat="49.33115" lon="0.99779">
        <ele>120.43479156494</ele>
        <time>2017-04-09T08:12:04.000Z</time>
        <extensions>
          <gpxtpx:TrackPointExtension xmlns:gpxtpx="http://www.garmin.com/xmlschemas/TrackPointExtension/v1">
            <gpxtpx:hr>155</gpxtpx:hr>
          </gpxtpx:TrackPointExtension>
        </extensions>
      </trkpt>
      <trkpt lat="49.33118" lon="0.9977">
        <ele>120.61877441406</ele>
        <time>2017-04-09T08:12:07.000Z</time>
        <extensions>
          <gpxtpx:TrackPointExtension xmlns:gpxtpx="http://www.garmin.com/xmlschemas/TrackPointExtension/v1">
            <gpxtpx:hr>154</gpxtpx:hr>
          </gpxtpx:TrackPointExtension>
        </extensions>
      </trkpt>
      <trkpt lat="49.33121" lon="0.99761">
        <ele>120.759765625</ele>
        <time>2017-04-09T08:12:10.000Z</time>
      </trkpt>
      <trkpt lat="49.33126" lon="0.99756">
        <ele>120.87271881104</ele>
        <time>2017-04-09T08:12:12.000Z</time>
        <extensions>
          <gpxtpx:TrackPointExtension xmlns:gpxtpx="http://www.garmin.com/xmlschemas/TrackPointExtension/v1">
            <gpxtpx:hr>154</gpxtpx:hr>
          </gpxtpx:TrackPointExtension>
        </extensions>
      </trkpt>
      <trkpt lat="49.33134" lon="0.99753">
        <ele>120.99716949463</ele>
        <time>2017-04-09T08:12:15.000Z</time>
        <extensions>
          <gpxtpx:TrackPointExtension xmlns:gpxtpx="http://www.garmin.com/xmlschemas/TrackPointExtension/v1">
            <gpxtpx:hr>154</gpxtpx:hr>
          </gpxtpx:TrackPointExtension>
        </extensions>
      </trkpt>
      <trkpt lat="49.33143" lon="0.99751">
        <ele>121.12355804443</ele>
        <time>2017-04-09T08:12:18.000Z</time>
        <extensions>
          <gpxtpx:TrackPointExtension xmlns:gpxtpx="http://www.garmin.com/xmlschemas/TrackPointExtension/v1">
            <gpxtpx:hr>153</gpxtpx:hr>
          </gpxtpx:TrackPointExtension>
        </extensions>
      </trkpt>
      <trkpt lat="49.33148" lon="0.99749">
        <ele>121.26815032959</ele>
        <time>2017-04-09T08:12:20.000Z</time>
        <extensions>
          <gpxtpx:TrackPointExtension xmlns:gpxtpx="http://www.garmin.com/xmlschemas/TrackPointExtension/v1">
            <gpxtpx:hr>152</gpxtpx:hr>
          </gpxtpx:TrackPointExtension>
        </extensions>
      </trkpt>
      <trkpt lat="49.33155" lon="0.99739">
        <ele>121.5092010498</ele>
        <time>2017-04-09T08:12:23.000Z</time>
        <extensions>
          <gpxtpx:TrackPointExtension xmlns:gpxtpx="http://www.garmin.com/xmlschemas/TrackPointExtension/v1">
            <gpxtpx:hr>150</gpxtpx:hr>
          </gpxtpx:TrackPointExtension>
        </extensions>
      </trkpt>
      <trkpt lat="49.33156" lon="0.99732">
        <ele>121.78446960449</ele>
        <time>2017-04-09T08:12:25.000Z</time>
      </trkpt>
      <trkpt lat="49.33155" lon="0.99726">
        <ele>122.07508850098</ele>
        <time>2017-04-09T08:12:27.000Z</time>
      </trkpt>
      <trkpt lat="49.33157" lon="0.99716">
        <ele>122.40992736816</ele>
        <time>2017-04-09T08:12:30.000Z</time>
      </trkpt>
      <trkpt lat="49.33162" lon="0.99709">
        <ele>122.77507019043</ele>
        <time>2017-04-09T08:12:32.000Z</time>
      </trkpt>
      <trkpt lat="49.33167" lon="0.99704">
        <ele>123.08140563965</ele>
        <time>2017-04-09T08:12:34.000Z</time>
      </trkpt>
      <trkpt lat="49.33173" lon="0.99702">
        <ele>123.41136169434</ele>
        <time>2017-04-09T08:12:36.000Z</time>
      </trkpt>
      <trkpt lat="49.33183" lon="0.99706">
        <ele>123.78198242188</ele>
        <time>2017-04-09T08:12:39.000Z</time>
      </trkpt>
      <trkpt lat="49.33193" lon="0.99705">
        <ele>124.2082901001</ele>
        <time>2017-04-09T08:12:42.000Z</time>
      </trkpt>
      <trkpt lat="49.33202" lon="0.99706">
        <ele>124.6697769165</ele>
        <time>2017-04-09T08:12:45.000Z</time>
      </trkpt>
      <trkpt lat="49.33204" lon="0.99711">
        <ele>125.06318664551</ele>
        <time>2017-04-09T08:12:47.000Z</time>
      </trkpt>
      <trkpt lat="49.3321" lon="0.99714">
        <ele>125.41523742676</ele>
        <time>2017-04-09T08:12:50.000Z</time>
      </trkpt>
      <trkpt lat="49.33214" lon="0.9971">
        <ele>125.75134277344</ele>
        <time>2017-04-09T08:12:52.000Z</time>
      </trkpt>
      <trkpt lat="49.33221" lon="0.99706">
        <ele>126.07852935791</ele>
        <time>2017-04-09T08:12:55.000Z</time>
      </trkpt>
      <trkpt lat="49.33225" lon="0.99705">
        <ele>126.36643218994</ele>
        <time>2017-04-09T08:12:57.000Z</time>
      </trkpt>
      <trkpt lat="49.33229" lon="0.99703">
        <ele>126.75085449219</ele>
        <time>2017-04-09T08:13:00.000Z</time>
        <extensions>
          <gpxtpx:TrackPointExtension xmlns:gpxtpx="http://www.garmin.com/xmlschemas/TrackPointExtension/v1">
            <gpxtpx:hr>147</gpxtpx:hr>
          </gpxtpx:TrackPointExtension>
        </extensions>
      </trkpt>
      <trkpt lat="49.33232" lon="0.99704">
        <ele>127.11463928223</ele>
        <time>2017-04-09T08:13:02.000Z</time>
        <extensions>
          <gpxtpx:TrackPointExtension xmlns:gpxtpx="http://www.garmin.com/xmlschemas/TrackPointExtension/v1">
            <gpxtpx:hr>143</gpxtpx:hr>
          </gpxtpx:TrackPointExtension>
        </extensions>
      </trkpt>
      <trkpt lat="49.33235" lon="0.99705">
        <ele>127.42242431641</ele>
        <time>2017-04-09T08:13:09.000Z</time>
        <extensions>
          <gpxtpx:TrackPointExtension xmlns:gpxtpx="http://www.garmin.com/xmlschemas/TrackPointExtension/v1">
            <gpxtpx:hr>146</gpxtpx:hr>
          </gpxtpx:TrackPointExtension>
        </extensions>
      </trkpt>
      <trkpt lat="49.33235" lon="0.99705">
        <ele>127.42242431641</ele>
        <time>2017-04-09T08:13:29.000Z</time>
        <extensions>
          <gpxtpx:TrackPointExtension xmlns:gpxtpx="http://www.garmin.com/xmlschemas/TrackPointExtension/v1">
            <gpxtpx:hr>144</gpxtpx:hr>
          </gpxtpx:TrackPointExtension>
        </extensions>
      </trkpt>
      <trkpt lat="49.33236" lon="0.99706">
        <ele>127.6019744873</ele>
        <time>2017-04-09T08:13:30.000Z</time>
        <extensions>
          <gpxtpx:TrackPointExtension xmlns:gpxtpx="http://www.garmin.com/xmlschemas/TrackPointExtension/v1">
            <gpxtpx:hr>142</gpxtpx:hr>
          </gpxtpx:TrackPointExtension>
        </extensions>
      </trkpt>
      <trkpt lat="49.33237" lon="0.9971">
        <ele>127.68180084229</ele>
        <time>2017-04-09T08:13:33.000Z</time>
        <extensions>
          <gpxtpx:TrackPointExtension xmlns:gpxtpx="http://www.garmin.com/xmlschemas/TrackPointExtension/v1">
            <gpxtpx:hr>135</gpxtpx:hr>
          </gpxtpx:TrackPointExtension>
        </extensions>
      </trkpt>
      <trkpt lat="49.33238" lon="0.99711">
        <ele>127.68981933594</ele>
        <time>2017-04-09T08:13:36.000Z</time>
        <extensions>
          <gpxtpx:TrackPointExtension xmlns:gpxtpx="http://www.garmin.com/xmlschemas/TrackPointExtension/v1">
            <gpxtpx:hr>134</gpxtpx:hr>
          </gpxtpx:TrackPointExtension>
        </extensions>
      </trkpt>
      <trkpt lat="49.33242" lon="0.9971">
        <ele>127.74251556396</ele>
        <time>2017-04-09T08:13:49.000Z</time>
        <extensions>
          <gpxtpx:TrackPointExtension xmlns:gpxtpx="http://www.garmin.com/xmlschemas/TrackPointExtension/v1">
            <gpxtpx:hr>135</gpxtpx:hr>
          </gpxtpx:TrackPointExtension>
        </extensions>
      </trkpt>
      <trkpt lat="49.33244" lon="0.99709">
        <ele>127.79689788818</ele>
        <time>2017-04-09T08:13:52.000Z</time>
        <extensions>
          <gpxtpx:TrackPointExtension xmlns:gpxtpx="http://www.garmin.com/xmlschemas/TrackPointExtension/v1">
            <gpxtpx:hr>132</gpxtpx:hr>
          </gpxtpx:TrackPointExtension>
        </extensions>
      </trkpt>
      <trkpt lat="49.33245" lon="0.99709">
        <ele>127.86238861084</ele>
        <time>2017-04-09T08:14:06.000Z</time>
        <extensions>
          <gpxtpx:TrackPointExtension xmlns:gpxtpx="http://www.garmin.com/xmlschemas/TrackPointExtension/v1">
            <gpxtpx:hr>131</gpxtpx:hr>
          </gpxtpx:TrackPointExtension>
        </extensions>
      </trkpt>
      <trkpt lat="49.33245" lon="0.99714">
        <ele>127.91249084473</ele>
        <time>2017-04-09T08:14:08.000Z</time>
        <extensions>
          <gpxtpx:TrackPointExtension xmlns:gpxtpx="http://www.garmin.com/xmlschemas/TrackPointExtension/v1">
            <gpxtpx:hr>129</gpxtpx:hr>
          </gpxtpx:TrackPointExtension>
        </extensions>
      </trkpt>
      <trkpt lat="49.33245" lon="0.9972">
        <ele>127.88342285156</ele>
        <time>2017-04-09T08:14:10.000Z</time>
        <extensions>
          <gpxtpx:TrackPointExtension xmlns:gpxtpx="http://www.garmin.com/xmlschemas/TrackPointExtension/v1">
            <gpxtpx:hr>121</gpxtpx:hr>
          </gpxtpx:TrackPointExtension>
        </extensions>
      </trkpt>
      <trkpt lat="49.33247" lon="0.99733">
        <ele>127.66800689697</ele>
        <time>2017-04-09T08:14:13.000Z</time>
        <extensions>
          <gpxtpx:TrackPointExtension xmlns:gpxtpx="http://www.garmin.com/xmlschemas/TrackPointExtension/v1">
            <gpxtpx:hr>124</gpxtpx:hr>
          </gpxtpx:TrackPointExtension>
        </extensions>
      </trkpt>
      <trkpt lat="49.33249" lon="0.99746">
        <ele>127.2978515625</ele>
        <time>2017-04-09T08:14:16.000Z</time>
        <extensions>
          <gpxtpx:TrackPointExtension xmlns:gpxtpx="http://www.garmin.com/xmlschemas/TrackPointExtension/v1">
            <gpxtpx:hr>126</gpxtpx:hr>
          </gpxtpx:TrackPointExtension>
        </extensions>
      </trkpt>
      <trkpt lat="49.33251" lon="0.99758">
        <ele>126.92976379395</ele>
        <time>2017-04-09T08:14:19.000Z</time>
        <extensions>
          <gpxtpx:TrackPointExtension xmlns:gpxtpx="http://www.garmin.com/xmlschemas/TrackPointExtension/v1">
            <gpxtpx:hr>129</gpxtpx:hr>
          </gpxtpx:TrackPointExtension>
        </extensions>
      </trkpt>
      <trkpt lat="49.33255" lon="0.99769">
        <ele>126.69929504395</ele>
        <time>2017-04-09T08:14:22.000Z</time>
        <extensions>
          <gpxtpx:TrackPointExtension xmlns:gpxtpx="http://www.garmin.com/xmlschemas/TrackPointExtension/v1">
            <gpxtpx:hr>132</gpxtpx:hr>
          </gpxtpx:TrackPointExtension>
        </extensions>
      </trkpt>
      <trkpt lat="49.33259" lon="0.99781">
        <ele>126.61003112793</ele>
        <time>2017-04-09T08:14:25.000Z</time>
        <extensions>
          <gpxtpx:TrackPointExtension xmlns:gpxtpx="http://www.garmin.com/xmlschemas/TrackPointExtension/v1">
            <gpxtpx:hr>134</gpxtpx:hr>
          </gpxtpx:TrackPointExtension>
        </extensions>
      </trkpt>
      <trkpt lat="49.33264" lon="0.99795">
        <ele>126.70292663574</ele>
        <time>2017-04-09T08:14:28.000Z</time>
      </trkpt>
      <trkpt lat="49.33268" lon="0.99804">
        <ele>126.9541015625</ele>
        <time>2017-04-09T08:14:30.000Z</time>
      </trkpt>
      <trkpt lat="49.33271" lon="0.99813">
        <ele>127.21183013916</ele>
        <time>2017-04-09T08:14:32.000Z</time>
      </trkpt>
      <trkpt lat="49.33274" lon="0.99823">
        <ele>127.40860748291</ele>
        <time>2017-04-09T08:14:34.000Z</time>
      </trkpt>
      <trkpt lat="49.33279" lon="0.9984">
        <ele>127.5288848877</ele>
        <time>2017-04-09T08:14:37.000Z</time>
      </trkpt>
      <trkpt lat="49.33286" lon="0.99856">
        <ele>127.55381774902</ele>
        <time>2017-04-09T08:14:40.000Z</time>
      </trkpt>
      <trkpt lat="49.3329" lon="0.99866">
        <ele>127.52079772949</ele>
        <time>2017-04-09T08:14:42.000Z</time>
      </trkpt>
      <trkpt lat="49.33297" lon="0.99883">
        <ele>127.41188049316</ele>
        <time>2017-04-09T08:14:45.000Z</time>
      </trkpt>
      <trkpt lat="49.33301" lon="0.99893">
        <ele>127.24454498291</ele>
        <time>2017-04-09T08:14:47.000Z</time>
      </trkpt>
      <trkpt lat="49.33308" lon="0.9991">
        <ele>127.01733398438</ele>
        <time>2017-04-09T08:14:50.000Z</time>
      </trkpt>
      <trkpt lat="49.33312" lon="0.99922">
        <ele>126.76918792725</ele>
        <time>2017-04-09T08:14:52.000Z</time>
      </trkpt>
      <trkpt lat="49.33317" lon="0.99938">
        <ele>126.44283294678</ele>
        <time>2017-04-09T08:14:55.000Z</time>
      </trkpt>
      <trkpt lat="49.33323" lon="0.99955">
        <ele>126.06777191162</ele>
        <time>2017-04-09T08:14:58.000Z</time>
      </trkpt>
      <trkpt lat="49.33327" lon="0.99966">
        <ele>125.65407562256</ele>
        <time>2017-04-09T08:15:00.000Z</time>
        <extensions>
          <gpxtpx:TrackPointExtension xmlns:gpxtpx="http://www.garmin.com/xmlschemas/TrackPointExtension/v1">
            <gpxtpx:hr>136</gpxtpx:hr>
          </gpxtpx:TrackPointExtension>
        </extensions>
      </trkpt>
      <trkpt lat="49.33332" lon="0.99985">
        <ele>125.20916748047</ele>
        <time>2017-04-09T08:15:03.000Z</time>
        <extensions>
          <gpxtpx:TrackPointExtension xmlns:gpxtpx="http://www.garmin.com/xmlschemas/TrackPointExtension/v1">
            <gpxtpx:hr>137</gpxtpx:hr>
          </gpxtpx:TrackPointExtension>
        </extensions>
      </trkpt>
      <trkpt lat="49.33332" lon="0.99998">
        <ele>124.77724456787</ele>
        <time>2017-04-09T08:15:05.000Z</time>
        <extensions>
          <gpxtpx:TrackPointExtension xmlns:gpxtpx="http://www.garmin.com/xmlschemas/TrackPointExtension/v1">
            <gpxtpx:hr>136</gpxtpx:hr>
          </gpxtpx:TrackPointExtension>
        </extensions>
      </trkpt>
      <trkpt lat="49.33336" lon="1.00016">
        <ele>124.3809967041</ele>
        <time>2017-04-09T08:15:08.000Z</time>
      </trkpt>
      <trkpt lat="49.3334" lon="1.00028">
        <ele>124.05284118652</ele>
        <time>2017-04-09T08:15:10.000Z</time>
        <extensions>
          <gpxtpx:TrackPointExtension xmlns:gpxtpx="http://www.garmin.com/xmlschemas/TrackPointExtension/v1">
            <gpxtpx:hr>135</gpxtpx:hr>
          </gpxtpx:TrackPointExtension>
        </extensions>
      </trkpt>
      <trkpt lat="49.33347" lon="1.00047">
        <ele>123.74282073975</ele>
        <time>2017-04-09T08:15:13.000Z</time>
        <extensions>
          <gpxtpx:TrackPointExtension xmlns:gpxtpx="http://www.garmin.com/xmlschemas/TrackPointExtension/v1">
            <gpxtpx:hr>133</gpxtpx:hr>
          </gpxtpx:TrackPointExtension>
        </extensions>
      </trkpt>
      <trkpt lat="49.33352" lon="1.0006">
        <ele>123.48933410645</ele>
        <time>2017-04-09T08:15:15.000Z</time>
        <extensions>
          <gpxtpx:TrackPointExtension xmlns:gpxtpx="http://www.garmin.com/xmlschemas/TrackPointExtension/v1">
            <gpxtpx:hr>134</gpxtpx:hr>
          </gpxtpx:TrackPointExtension>
        </extensions>
      </trkpt>
      <trkpt lat="49.33356" lon="1.00073">
        <ele>123.23337554932</ele>
        <time>2017-04-09T08:15:17.000Z</time>
        <extensions>
          <gpxtpx:TrackPointExtension xmlns:gpxtpx="http://www.garmin.com/xmlschemas/TrackPointExtension/v1">
            <gpxtpx:hr>135</gpxtpx:hr>
          </gpxtpx:TrackPointExtension>
        </extensions>
      </trkpt>
      <trkpt lat="49.33363" lon="1.00092">
        <ele>123.03359222412</ele>
        <time>2017-04-09T08:15:20.000Z</time>
        <extensions>
          <gpxtpx:TrackPointExtension xmlns:gpxtpx="http://www.garmin.com/xmlschemas/TrackPointExtension/v1">
            <gpxtpx:hr>131</gpxtpx:hr>
          </gpxtpx:TrackPointExtension>
        </extensions>
      </trkpt>
      <trkpt lat="49.33372" lon="1.00111">
        <ele>122.88590240479</ele>
        <time>2017-04-09T08:15:23.000Z</time>
      </trkpt>
      <trkpt lat="49.33377" lon="1.00124">
        <ele>122.80473327637</ele>
        <time>2017-04-09T08:15:25.000Z</time>
      </trkpt>
      <trkpt lat="49.33381" lon="1.00137">
        <ele>122.75939941406</ele>
        <time>2017-04-09T08:15:27.000Z</time>
      </trkpt>
      <trkpt lat="49.33387" lon="1.00158">
        <ele>122.74644470215</ele>
        <time>2017-04-09T08:15:30.000Z</time>
      </trkpt>
      <trkpt lat="49.33389" lon="1.00172">
        <ele>122.76020812988</ele>
        <time>2017-04-09T08:15:32.000Z</time>
      </trkpt>
      <trkpt lat="49.33397" lon="1.00194">
        <ele>122.83908843994</ele>
        <time>2017-04-09T08:15:35.000Z</time>
      </trkpt>
      <trkpt lat="49.33402" lon="1.00215">
        <ele>122.97946929932</ele>
        <time>2017-04-09T08:15:38.000Z</time>
      </trkpt>
      <trkpt lat="49.33409" lon="1.00235">
        <ele>123.18544769287</ele>
        <time>2017-04-09T08:15:41.000Z</time>
      </trkpt>
      <trkpt lat="49.33416" lon="1.00256">
        <ele>123.40002441406</ele>
        <time>2017-04-09T08:15:44.000Z</time>
      </trkpt>
      <trkpt lat="49.33421" lon="1.00271">
        <ele>123.52132415771</ele>
        <time>2017-04-09T08:15:46.000Z</time>
      </trkpt>
      <trkpt lat="49.33427" lon="1.00293">
        <ele>123.47298431396</ele>
        <time>2017-04-09T08:15:49.000Z</time>
      </trkpt>
      <trkpt lat="49.33434" lon="1.00314">
        <ele>123.31744384766</ele>
        <time>2017-04-09T08:15:52.000Z</time>
      </trkpt>
      <trkpt lat="49.33438" lon="1.00327">
        <ele>123.09354400635</ele>
        <time>2017-04-09T08:15:54.000Z</time>
      </trkpt>
      <trkpt lat="49.33441" lon="1.0034">
        <ele>122.98481750488</ele>
        <time>2017-04-09T08:15:56.000Z</time>
      </trkpt>
      <trkpt lat="49.33447" lon="1.00361">
        <ele>123.32025146484</ele>
        <time>2017-04-09T08:15:59.000Z</time>
      </trkpt>
      <trkpt lat="49.33454" lon="1.0038">
        <ele>124.08992004395</ele>
        <time>2017-04-09T08:16:02.000Z</time>
        <extensions>
          <gpxtpx:TrackPointExtension xmlns:gpxtpx="http://www.garmin.com/xmlschemas/TrackPointExtension/v1">
            <gpxtpx:hr>135</gpxtpx:hr>
          </gpxtpx:TrackPointExtension>
        </extensions>
      </trkpt>
      <trkpt lat="49.3346" lon="1.00399">
        <ele>125.22743988037</ele>
        <time>2017-04-09T08:16:05.000Z</time>
        <extensions>
          <gpxtpx:TrackPointExtension xmlns:gpxtpx="http://www.garmin.com/xmlschemas/TrackPointExtension/v1">
            <gpxtpx:hr>135</gpxtpx:hr>
          </gpxtpx:TrackPointExtension>
        </extensions>
      </trkpt>
      <trkpt lat="49.33465" lon="1.00412">
        <ele>126.6056060791</ele>
        <time>2017-04-09T08:16:07.000Z</time>
        <extensions>
          <gpxtpx:TrackPointExtension xmlns:gpxtpx="http://www.garmin.com/xmlschemas/TrackPointExtension/v1">
            <gpxtpx:hr>136</gpxtpx:hr>
          </gpxtpx:TrackPointExtension>
        </extensions>
      </trkpt>
      <trkpt lat="49.33468" lon="1.00424">
        <ele>128.08486938477</ele>
        <time>2017-04-09T08:16:09.000Z</time>
        <extensions>
          <gpxtpx:TrackPointExtension xmlns:gpxtpx="http://www.garmin.com/xmlschemas/TrackPointExtension/v1">
            <gpxtpx:hr>138</gpxtpx:hr>
          </gpxtpx:TrackPointExtension>
        </extensions>
      </trkpt>
      <trkpt lat="49.33474" lon="1.00437">
        <ele>129.47204589844</ele>
        <time>2017-04-09T08:16:11.000Z</time>
        <extensions>
          <gpxtpx:TrackPointExtension xmlns:gpxtpx="http://www.garmin.com/xmlschemas/TrackPointExtension/v1">
            <gpxtpx:hr>141</gpxtpx:hr>
          </gpxtpx:TrackPointExtension>
        </extensions>
      </trkpt>
      <trkpt lat="49.33479" lon="1.0045">
        <ele>130.78170776367</ele>
        <time>2017-04-09T08:16:13.000Z</time>
      </trkpt>
      <trkpt lat="49.33485" lon="1.00469">
        <ele>132.15040588379</ele>
        <time>2017-04-09T08:16:16.000Z</time>
        <extensions>
          <gpxtpx:TrackPointExtension xmlns:gpxtpx="http://www.garmin.com/xmlschemas/TrackPointExtension/v1">
            <gpxtpx:hr>144</gpxtpx:hr>
          </gpxtpx:TrackPointExtension>
        </extensions>
      </trkpt>
      <trkpt lat="49.33488" lon="1.00481">
        <ele>133.52635192871</ele>
        <time>2017-04-09T08:16:18.000Z</time>
        <extensions>
          <gpxtpx:TrackPointExtension xmlns:gpxtpx="http://www.garmin.com/xmlschemas/TrackPointExtension/v1">
            <gpxtpx:hr>142</gpxtpx:hr>
          </gpxtpx:TrackPointExtension>
        </extensions>
      </trkpt>
      <trkpt lat="49.33495" lon="1.00499">
        <ele>135.10092163086</ele>
        <time>2017-04-09T08:16:21.000Z</time>
      </trkpt>
      <trkpt lat="49.33503" lon="1.00518">
        <ele>136.43069458008</ele>
        <time>2017-04-09T08:16:24.000Z</time>
      </trkpt>
      <trkpt lat="49.3351" lon="1.00535">
        <ele>137.44364929199</ele>
        <time>2017-04-09T08:16:27.000Z</time>
      </trkpt>
      <trkpt lat="49.33517" lon="1.00555">
        <ele>138.02288818359</ele>
        <time>2017-04-09T08:16:30.000Z</time>
      </trkpt>
      <trkpt lat="49.33522" lon="1.00576">
        <ele>138.32112121582</ele>
        <time>2017-04-09T08:16:33.000Z</time>
      </trkpt>
      <trkpt lat="49.33529" lon="1.00589">
        <ele>138.22897338867</ele>
        <time>2017-04-09T08:16:35.000Z</time>
      </trkpt>
      <trkpt lat="49.33534" lon="1.00607">
        <ele>138.17581176758</ele>
        <time>2017-04-09T08:16:38.000Z</time>
      </trkpt>
      <trkpt lat="49.33538" lon="1.00627">
        <ele>138.22441101074</ele>
        <time>2017-04-09T08:16:41.000Z</time>
      </trkpt>
      <trkpt lat="49.33542" lon="1.00639">
        <ele>138.3648223877</ele>
        <time>2017-04-09T08:16:43.000Z</time>
      </trkpt>
      <trkpt lat="49.33549" lon="1.00656">
        <ele>138.63114929199</ele>
        <time>2017-04-09T08:16:46.000Z</time>
      </trkpt>
      <trkpt lat="49.33556" lon="1.00674">
        <ele>138.95942687988</ele>
        <time>2017-04-09T08:16:49.000Z</time>
      </trkpt>
      <trkpt lat="49.3356" lon="1.00685">
        <ele>139.26956176758</ele>
        <time>2017-04-09T08:16:51.000Z</time>
      </trkpt>
      <trkpt lat="49.33564" lon="1.00703">
        <ele>139.5535736084</ele>
        <time>2017-04-09T08:16:54.000Z</time>
      </trkpt>
      <trkpt lat="49.33568" lon="1.00715">
        <ele>139.8062286377</ele>
        <time>2017-04-09T08:16:56.000Z</time>
      </trkpt>
      <trkpt lat="49.33575" lon="1.00736">
        <ele>139.97122192383</ele>
        <time>2017-04-09T08:16:59.000Z</time>
      </trkpt>
      <trkpt lat="49.33578" lon="1.0075">
        <ele>140.03254699707</ele>
        <time>2017-04-09T08:17:01.000Z</time>
        <extensions>
          <gpxtpx:TrackPointExtension xmlns:gpxtpx="http://www.garmin.com/xmlschemas/TrackPointExtension/v1">
            <gpxtpx:hr>142</gpxtpx:hr>
          </gpxtpx:TrackPointExtension>
        </extensions>
      </trkpt>
      <trkpt lat="49.33582" lon="1.00764">
        <ele>140.08387756348</ele>
        <time>2017-04-09T08:17:03.000Z</time>
        <extensions>
          <gpxtpx:TrackPointExtension xmlns:gpxtpx="http://www.garmin.com/xmlschemas/TrackPointExtension/v1">
            <gpxtpx:hr>144</gpxtpx:hr>
          </gpxtpx:TrackPointExtension>
        </extensions>
      </trkpt>
      <trkpt lat="49.33587" lon="1.00775">
        <ele>140.10067749023</ele>
        <time>2017-04-09T08:17:05.000Z</time>
        <extensions>
          <gpxtpx:TrackPointExtension xmlns:gpxtpx="http://www.garmin.com/xmlschemas/TrackPointExtension/v1">
            <gpxtpx:hr>143</gpxtpx:hr>
          </gpxtpx:TrackPointExtension>
        </extensions>
      </trkpt>
      <trkpt lat="49.33591" lon="1.00787">
        <ele>140.09896850586</ele>
        <time>2017-04-09T08:17:07.000Z</time>
        <extensions>
          <gpxtpx:TrackPointExtension xmlns:gpxtpx="http://www.garmin.com/xmlschemas/TrackPointExtension/v1">
            <gpxtpx:hr>143</gpxtpx:hr>
          </gpxtpx:TrackPointExtension>
        </extensions>
      </trkpt>
      <trkpt lat="49.33597" lon="1.00803">
        <ele>140.07405090332</ele>
        <time>2017-04-09T08:17:10.000Z</time>
        <extensions>
          <gpxtpx:TrackPointExtension xmlns:gpxtpx="http://www.garmin.com/xmlschemas/TrackPointExtension/v1">
            <gpxtpx:hr>143</gpxtpx:hr>
          </gpxtpx:TrackPointExtension>
        </extensions>
      </trkpt>
      <trkpt lat="49.33605" lon="1.0082">
        <ele>140.03744506836</ele>
        <time>2017-04-09T08:17:13.000Z</time>
        <extensions>
          <gpxtpx:TrackPointExtension xmlns:gpxtpx="http://www.garmin.com/xmlschemas/TrackPointExtension/v1">
            <gpxtpx:hr>144</gpxtpx:hr>
          </gpxtpx:TrackPointExtension>
        </extensions>
      </trkpt>
      <trkpt lat="49.33611" lon="1.00839">
        <ele>139.96551513672</ele>
        <time>2017-04-09T08:17:16.000Z</time>
        <extensions>
          <gpxtpx:TrackPointExtension xmlns:gpxtpx="http://www.garmin.com/xmlschemas/TrackPointExtension/v1">
            <gpxtpx:hr>144</gpxtpx:hr>
          </gpxtpx:TrackPointExtension>
        </extensions>
      </trkpt>
      <trkpt lat="49.33614" lon="1.00852">
        <ele>139.92655944824</ele>
        <time>2017-04-09T08:17:18.000Z</time>
        <extensions>
          <gpxtpx:TrackPointExtension xmlns:gpxtpx="http://www.garmin.com/xmlschemas/TrackPointExtension/v1">
            <gpxtpx:hr>144</gpxtpx:hr>
          </gpxtpx:TrackPointExtension>
        </extensions>
      </trkpt>
      <trkpt lat="49.33619" lon="1.00871">
        <ele>139.91966247559</ele>
        <time>2017-04-09T08:17:21.000Z</time>
        <extensions>
          <gpxtpx:TrackPointExtension xmlns:gpxtpx="http://www.garmin.com/xmlschemas/TrackPointExtension/v1">
            <gpxtpx:hr>141</gpxtpx:hr>
          </gpxtpx:TrackPointExtension>
        </extensions>
      </trkpt>
      <trkpt lat="49.33625" lon="1.00892">
        <ele>139.92776489258</ele>
        <time>2017-04-09T08:17:24.000Z</time>
      </trkpt>
      <trkpt lat="49.3363" lon="1.0091">
        <ele>139.95935058594</ele>
        <time>2017-04-09T08:17:27.000Z</time>
      </trkpt>
      <trkpt lat="49.33636" lon="1.00922">
        <ele>139.94273376465</ele>
        <time>2017-04-09T08:17:29.000Z</time>
      </trkpt>
      <trkpt lat="49.33641" lon="1.00942">
        <ele>139.9354095459</ele>
        <time>2017-04-09T08:17:32.000Z</time>
      </trkpt>
      <trkpt lat="49.33644" lon="1.00953">
        <ele>139.93515014648</ele>
        <time>2017-04-09T08:17:34.000Z</time>
      </trkpt>
      <trkpt lat="49.3364" lon="1.00964">
        <ele>140.04864501953</ele>
        <time>2017-04-09T08:17:36.000Z</time>
      </trkpt>
      <trkpt lat="49.33632" lon="1.00973">
        <ele>140.29191589355</ele>
        <time>2017-04-09T08:17:39.000Z</time>
      </trkpt>
      <trkpt lat="49.33623" lon="1.00979">
        <ele>140.68879699707</ele>
        <time>2017-04-09T08:17:41.000Z</time>
      </trkpt>
      <trkpt lat="49.33612" lon="1.0099">
        <ele>141.15768432617</ele>
        <time>2017-04-09T08:17:44.000Z</time>
      </trkpt>
      <trkpt lat="49.336" lon="1.00998">
        <ele>141.6647644043</ele>
        <time>2017-04-09T08:17:46.000Z</time>
      </trkpt>
      <trkpt lat="49.3359" lon="1.01007">
        <ele>142.10485839844</ele>
        <time>2017-04-09T08:17:48.000Z</time>
      </trkpt>
      <trkpt lat="49.33575" lon="1.01016">
        <ele>142.38925170898</ele>
        <time>2017-04-09T08:17:51.000Z</time>
      </trkpt>
      <trkpt lat="49.33562" lon="1.01021">
        <ele>142.49533081055</ele>
        <time>2017-04-09T08:17:54.000Z</time>
      </trkpt>
      <trkpt lat="49.3355" lon="1.01031">
        <ele>142.41325378418</ele>
        <time>2017-04-09T08:17:57.000Z</time>
      </trkpt>
      <trkpt lat="49.3354" lon="1.01046">
        <ele>142.17155456543</ele>
        <time>2017-04-09T08:18:00.000Z</time>
        <extensions>
          <gpxtpx:TrackPointExtension xmlns:gpxtpx="http://www.garmin.com/xmlschemas/TrackPointExtension/v1">
            <gpxtpx:hr>140</gpxtpx:hr>
          </gpxtpx:TrackPointExtension>
        </extensions>
      </trkpt>
      <trkpt lat="49.33533" lon="1.01059">
        <ele>141.83081054688</ele>
        <time>2017-04-09T08:18:02.000Z</time>
      </trkpt>
      <trkpt lat="49.33524" lon="1.01083">
        <ele>141.42147827148</ele>
        <time>2017-04-09T08:18:05.000Z</time>
        <extensions>
          <gpxtpx:TrackPointExtension xmlns:gpxtpx="http://www.garmin.com/xmlschemas/TrackPointExtension/v1">
            <gpxtpx:hr>134</gpxtpx:hr>
          </gpxtpx:TrackPointExtension>
        </extensions>
      </trkpt>
      <trkpt lat="49.33517" lon="1.01102">
        <ele>140.83413696289</ele>
        <time>2017-04-09T08:18:08.000Z</time>
        <extensions>
          <gpxtpx:TrackPointExtension xmlns:gpxtpx="http://www.garmin.com/xmlschemas/TrackPointExtension/v1">
            <gpxtpx:hr>141</gpxtpx:hr>
          </gpxtpx:TrackPointExtension>
        </extensions>
      </trkpt>
      <trkpt lat="49.33513" lon="1.01115">
        <ele>140.13082885742</ele>
        <time>2017-04-09T08:18:10.000Z</time>
        <extensions>
          <gpxtpx:TrackPointExtension xmlns:gpxtpx="http://www.garmin.com/xmlschemas/TrackPointExtension/v1">
            <gpxtpx:hr>150</gpxtpx:hr>
          </gpxtpx:TrackPointExtension>
        </extensions>
      </trkpt>
      <trkpt lat="49.33511" lon="1.01135">
        <ele>139.24531555176</ele>
        <time>2017-04-09T08:18:13.000Z</time>
        <extensions>
          <gpxtpx:TrackPointExtension xmlns:gpxtpx="http://www.garmin.com/xmlschemas/TrackPointExtension/v1">
            <gpxtpx:hr>148</gpxtpx:hr>
          </gpxtpx:TrackPointExtension>
        </extensions>
      </trkpt>
      <trkpt lat="49.33507" lon="1.01144">
        <ele>138.24990844727</ele>
        <time>2017-04-09T08:18:15.000Z</time>
        <extensions>
          <gpxtpx:TrackPointExtension xmlns:gpxtpx="http://www.garmin.com/xmlschemas/TrackPointExtension/v1">
            <gpxtpx:hr>144</gpxtpx:hr>
          </gpxtpx:TrackPointExtension>
        </extensions>
      </trkpt>
      <trkpt lat="49.33501" lon="1.01161">
        <ele>137.03657531738</ele>
        <time>2017-04-09T08:18:18.000Z</time>
      </trkpt>
      <trkpt lat="49.335" lon="1.01172">
        <ele>135.96235656738</ele>
        <time>2017-04-09T08:18:21.000Z</time>
      </trkpt>
      <trkpt lat="49.33498" lon="1.01178">
        <ele>135.06457519531</ele>
        <time>2017-04-09T08:18:23.000Z</time>
      </trkpt>
      <trkpt lat="49.33497" lon="1.01181">
        <ele>134.4234161377</ele>
        <time>2017-04-09T08:18:26.000Z</time>
      </trkpt>
      <trkpt lat="49.33488" lon="1.01192">
        <ele>133.90884399414</ele>
        <time>2017-04-09T08:18:34.000Z</time>
      </trkpt>
      <trkpt lat="49.33482" lon="1.012">
        <ele>133.70300292969</ele>
        <time>2017-04-09T08:18:37.000Z</time>
      </trkpt>
      <trkpt lat="49.33482" lon="1.0121">
        <ele>133.6192779541</ele>
        <time>2017-04-09T08:18:39.000Z</time>
      </trkpt>
      <trkpt lat="49.33481" lon="1.01222">
        <ele>133.56745910645</ele>
        <time>2017-04-09T08:18:41.000Z</time>
      </trkpt>
      <trkpt lat="49.33481" lon="1.01236">
        <ele>133.54098510742</ele>
        <time>2017-04-09T08:18:44.000Z</time>
      </trkpt>
      <trkpt lat="49.3348" lon="1.01247">
        <ele>133.57400512695</ele>
        <time>2017-04-09T08:18:47.000Z</time>
      </trkpt>
      <trkpt lat="49.33479" lon="1.01258">
        <ele>133.62397766113</ele>
        <time>2017-04-09T08:18:50.000Z</time>
      </trkpt>
      <trkpt lat="49.33478" lon="1.01265">
        <ele>133.66270446777</ele>
        <time>2017-04-09T08:18:52.000Z</time>
      </trkpt>
      <trkpt lat="49.33475" lon="1.01275">
        <ele>133.70608520508</ele>
        <time>2017-04-09T08:18:55.000Z</time>
      </trkpt>
      <trkpt lat="49.33474" lon="1.01283">
        <ele>133.73263549805</ele>
        <time>2017-04-09T08:18:57.000Z</time>
      </trkpt>
      <trkpt lat="49.3347" lon="1.01292">
        <ele>133.78048706055</ele>
        <time>2017-04-09T08:19:00.000Z</time>
        <extensions>
          <gpxtpx:TrackPointExtension xmlns:gpxtpx="http://www.garmin.com/xmlschemas/TrackPointExtension/v1">
            <gpxtpx:hr>145</gpxtpx:hr>
          </gpxtpx:TrackPointExtension>
        </extensions>
      </trkpt>
      <trkpt lat="49.33467" lon="1.01301">
        <ele>133.85050964355</ele>
        <time>2017-04-09T08:19:02.000Z</time>
        <extensions>
          <gpxtpx:TrackPointExtension xmlns:gpxtpx="http://www.garmin.com/xmlschemas/TrackPointExtension/v1">
            <gpxtpx:hr>146</gpxtpx:hr>
          </gpxtpx:TrackPointExtension>
        </extensions>
      </trkpt>
      <trkpt lat="49.33464" lon="1.01308">
        <ele>133.95529174805</ele>
        <time>2017-04-09T08:19:04.000Z</time>
        <extensions>
          <gpxtpx:TrackPointExtension xmlns:gpxtpx="http://www.garmin.com/xmlschemas/TrackPointExtension/v1">
            <gpxtpx:hr>143</gpxtpx:hr>
          </gpxtpx:TrackPointExtension>
        </extensions>
      </trkpt>
      <trkpt lat="49.33461" lon="1.01321">
        <ele>134.06782531738</ele>
        <time>2017-04-09T08:19:07.000Z</time>
        <extensions>
          <gpxtpx:TrackPointExtension xmlns:gpxtpx="http://www.garmin.com/xmlschemas/TrackPointExtension/v1">
            <gpxtpx:hr>143</gpxtpx:hr>
          </gpxtpx:TrackPointExtension>
        </extensions>
      </trkpt>
      <trkpt lat="49.33459" lon="1.01326">
        <ele>134.21160888672</ele>
        <time>2017-04-09T08:19:09.000Z</time>
        <extensions>
          <gpxtpx:TrackPointExtension xmlns:gpxtpx="http://www.garmin.com/xmlschemas/TrackPointExtension/v1">
            <gpxtpx:hr>141</gpxtpx:hr>
          </gpxtpx:TrackPointExtension>
        </extensions>
      </trkpt>
      <trkpt lat="49.33451" lon="1.01326">
        <ele>134.41513061523</ele>
        <time>2017-04-09T08:19:12.000Z</time>
        <extensions>
          <gpxtpx:TrackPointExtension xmlns:gpxtpx="http://www.garmin.com/xmlschemas/TrackPointExtension/v1">
            <gpxtpx:hr>137</gpxtpx:hr>
          </gpxtpx:TrackPointExtension>
        </extensions>
      </trkpt>
      <trkpt lat="49.33446" lon="1.01322">
        <ele>134.64060974121</ele>
        <time>2017-04-09T08:19:15.000Z</time>
        <extensions>
          <gpxtpx:TrackPointExtension xmlns:gpxtpx="http://www.garmin.com/xmlschemas/TrackPointExtension/v1">
            <gpxtpx:hr>133</gpxtpx:hr>
          </gpxtpx:TrackPointExtension>
        </extensions>
      </trkpt>
      <trkpt lat="49.33444" lon="1.01319">
        <ele>134.85514831543</ele>
        <time>2017-04-09T08:19:18.000Z</time>
        <extensions>
          <gpxtpx:TrackPointExtension xmlns:gpxtpx="http://www.garmin.com/xmlschemas/TrackPointExtension/v1">
            <gpxtpx:hr>129</gpxtpx:hr>
          </gpxtpx:TrackPointExtension>
        </extensions>
      </trkpt>
      <trkpt lat="49.33442" lon="1.01315">
        <ele>135.06120300293</ele>
        <time>2017-04-09T08:19:20.000Z</time>
        <extensions>
          <gpxtpx:TrackPointExtension xmlns:gpxtpx="http://www.garmin.com/xmlschemas/TrackPointExtension/v1">
            <gpxtpx:hr>131</gpxtpx:hr>
          </gpxtpx:TrackPointExtension>
        </extensions>
      </trkpt>
      <trkpt lat="49.3344" lon="1.01309">
        <ele>135.25508117676</ele>
        <time>2017-04-09T08:19:23.000Z</time>
      </trkpt>
      <trkpt lat="49.3344" lon="1.01305">
        <ele>135.35052490234</ele>
        <time>2017-04-09T08:19:25.000Z</time>
      </trkpt>
      <trkpt lat="49.33438" lon="1.01298">
        <ele>135.41011047363</ele>
        <time>2017-04-09T08:19:28.000Z</time>
      </trkpt>
      <trkpt lat="49.33434" lon="1.01293">
        <ele>135.4868927002</ele>
        <time>2017-04-09T08:19:31.000Z</time>
      </trkpt>
      <trkpt lat="49.3343" lon="1.01287">
        <ele>135.57092285156</ele>
        <time>2017-04-09T08:19:34.000Z</time>
      </trkpt>
      <trkpt lat="49.33428" lon="1.01283">
        <ele>135.65628051758</ele>
        <time>2017-04-09T08:19:36.000Z</time>
      </trkpt>
      <trkpt lat="49.33426" lon="1.0128">
        <ele>135.75772094727</ele>
        <time>2017-04-09T08:19:38.000Z</time>
      </trkpt>
      <trkpt lat="49.33423" lon="1.01274">
        <ele>135.85960388184</ele>
        <time>2017-04-09T08:19:41.000Z</time>
      </trkpt>
      <trkpt lat="49.33421" lon="1.01267">
        <ele>135.93087768555</ele>
        <time>2017-04-09T08:19:44.000Z</time>
      </trkpt>
      <trkpt lat="49.3342" lon="1.01261">
        <ele>135.97549438477</ele>
        <time>2017-04-09T08:19:47.000Z</time>
      </trkpt>
      <trkpt lat="49.33419" lon="1.01257">
        <ele>135.99438476562</ele>
        <time>2017-04-09T08:19:49.000Z</time>
      </trkpt>
      <trkpt lat="49.33417" lon="1.01247">
        <ele>135.96513366699</ele>
        <time>2017-04-09T08:19:52.000Z</time>
        <extensions>
          <gpxtpx:TrackPointExtension xmlns:gpxtpx="http://www.garmin.com/xmlschemas/TrackPointExtension/v1">
            <gpxtpx:hr>145</gpxtpx:hr>
          </gpxtpx:TrackPointExtension>
        </extensions>
      </trkpt>
      <trkpt lat="49.33412" lon="1.01234">
        <ele>135.81173706055</ele>
        <time>2017-04-09T08:19:55.000Z</time>
        <extensions>
          <gpxtpx:TrackPointExtension xmlns:gpxtpx="http://www.garmin.com/xmlschemas/TrackPointExtension/v1">
            <gpxtpx:hr>146</gpxtpx:hr>
          </gpxtpx:TrackPointExtension>
        </extensions>
      </trkpt>
      <trkpt lat="49.33405" lon="1.01217">
        <ele>135.50210571289</ele>
        <time>2017-04-09T08:19:58.000Z</time>
        <extensions>
          <gpxtpx:TrackPointExtension xmlns:gpxtpx="http://www.garmin.com/xmlschemas/TrackPointExtension/v1">
            <gpxtpx:hr>143</gpxtpx:hr>
          </gpxtpx:TrackPointExtension>
        </extensions>
      </trkpt>
      <trkpt lat="49.33394" lon="1.01201">
        <ele>135.0657043457</ele>
        <time>2017-04-09T08:20:01.000Z</time>
        <extensions>
          <gpxtpx:TrackPointExtension xmlns:gpxtpx="http://www.garmin.com/xmlschemas/TrackPointExtension/v1">
            <gpxtpx:hr>132</gpxtpx:hr>
          </gpxtpx:TrackPointExtension>
        </extensions>
      </trkpt>
      <trkpt lat="49.33376" lon="1.01186">
        <ele>134.53921508789</ele>
        <time>2017-04-09T08:20:04.000Z</time>
        <extensions>
          <gpxtpx:TrackPointExtension xmlns:gpxtpx="http://www.garmin.com/xmlschemas/TrackPointExtension/v1">
            <gpxtpx:hr>132</gpxtpx:hr>
          </gpxtpx:TrackPointExtension>
        </extensions>
      </trkpt>
      <trkpt lat="49.33362" lon="1.01171">
        <ele>133.90579223633</ele>
        <time>2017-04-09T08:20:07.000Z</time>
        <extensions>
          <gpxtpx:TrackPointExtension xmlns:gpxtpx="http://www.garmin.com/xmlschemas/TrackPointExtension/v1">
            <gpxtpx:hr>133</gpxtpx:hr>
          </gpxtpx:TrackPointExtension>
        </extensions>
      </trkpt>
      <trkpt lat="49.33344" lon="1.01163">
        <ele>133.38052368164</ele>
        <time>2017-04-09T08:20:10.000Z</time>
        <extensions>
          <gpxtpx:TrackPointExtension xmlns:gpxtpx="http://www.garmin.com/xmlschemas/TrackPointExtension/v1">
            <gpxtpx:hr>134</gpxtpx:hr>
          </gpxtpx:TrackPointExtension>
        </extensions>
      </trkpt>
      <trkpt lat="49.33334" lon="1.01159">
        <ele>133.02493286133</ele>
        <time>2017-04-09T08:20:12.000Z</time>
        <extensions>
          <gpxtpx:TrackPointExtension xmlns:gpxtpx="http://www.garmin.com/xmlschemas/TrackPointExtension/v1">
            <gpxtpx:hr>139</gpxtpx:hr>
          </gpxtpx:TrackPointExtension>
        </extensions>
      </trkpt>
      <trkpt lat="49.33324" lon="1.01159">
        <ele>132.84791564941</ele>
        <time>2017-04-09T08:20:14.000Z</time>
        <extensions>
          <gpxtpx:TrackPointExtension xmlns:gpxtpx="http://www.garmin.com/xmlschemas/TrackPointExtension/v1">
            <gpxtpx:hr>140</gpxtpx:hr>
          </gpxtpx:TrackPointExtension>
        </extensions>
      </trkpt>
      <trkpt lat="49.33307" lon="1.01152">
        <ele>132.81532287598</ele>
        <time>2017-04-09T08:20:17.000Z</time>
        <extensions>
          <gpxtpx:TrackPointExtension xmlns:gpxtpx="http://www.garmin.com/xmlschemas/TrackPointExtension/v1">
            <gpxtpx:hr>138</gpxtpx:hr>
          </gpxtpx:TrackPointExtension>
        </extensions>
      </trkpt>
      <trkpt lat="49.33291" lon="1.01147">
        <ele>132.97673034668</ele>
        <time>2017-04-09T08:20:20.000Z</time>
        <extensions>
          <gpxtpx:TrackPointExtension xmlns:gpxtpx="http://www.garmin.com/xmlschemas/TrackPointExtension/v1">
            <gpxtpx:hr>138</gpxtpx:hr>
          </gpxtpx:TrackPointExtension>
        </extensions>
      </trkpt>
      <trkpt lat="49.33282" lon="1.01148">
        <ele>133.18891906738</ele>
        <time>2017-04-09T08:20:22.000Z</time>
        <extensions>
          <gpxtpx:TrackPointExtension xmlns:gpxtpx="http://www.garmin.com/xmlschemas/TrackPointExtension/v1">
            <gpxtpx:hr>141</gpxtpx:hr>
          </gpxtpx:TrackPointExtension>
        </extensions>
      </trkpt>
      <trkpt lat="49.33276" lon="1.01156">
        <ele>133.45889282227</ele>
        <time>2017-04-09T08:20:24.000Z</time>
      </trkpt>
      <trkpt lat="49.33268" lon="1.01173">
        <ele>133.79473876953</ele>
        <time>2017-04-09T08:20:27.000Z</time>
      </trkpt>
      <trkpt lat="49.33261" lon="1.01183">
        <ele>134.1089630127</ele>
        <time>2017-04-09T08:20:29.000Z</time>
      </trkpt>
      <trkpt lat="49.33256" lon="1.0119">
        <ele>134.36938476562</ele>
        <time>2017-04-09T08:20:31.000Z</time>
      </trkpt>
      <trkpt lat="49.33247" lon="1.01197">
        <ele>134.52954101562</ele>
        <time>2017-04-09T08:20:34.000Z</time>
      </trkpt>
      <trkpt lat="49.33239" lon="1.01203">
        <ele>134.49450683594</ele>
        <time>2017-04-09T08:20:36.000Z</time>
      </trkpt>
      <trkpt lat="49.33235" lon="1.0121">
        <ele>134.2850189209</ele>
        <time>2017-04-09T08:20:39.000Z</time>
      </trkpt>
      <trkpt lat="49.33234" lon="1.01216">
        <ele>134.0373840332</ele>
        <time>2017-04-09T08:20:41.000Z</time>
      </trkpt>
      <trkpt lat="49.33239" lon="1.01223">
        <ele>133.82675170898</ele>
        <time>2017-04-09T08:20:43.000Z</time>
      </trkpt>
      <trkpt lat="49.33241" lon="1.01234">
        <ele>133.67115783691</ele>
        <time>2017-04-09T08:20:45.000Z</time>
      </trkpt>
      <trkpt lat="49.33245" lon="1.01253">
        <ele>133.62739562988</ele>
        <time>2017-04-09T08:20:48.000Z</time>
      </trkpt>
      <trkpt lat="49.33248" lon="1.01263">
        <ele>133.59855651855</ele>
        <time>2017-04-09T08:20:50.000Z</time>
      </trkpt>
      <trkpt lat="49.33251" lon="1.01273">
        <ele>133.54727172852</ele>
        <time>2017-04-09T08:20:52.000Z</time>
      </trkpt>
      <trkpt lat="49.33255" lon="1.01284">
        <ele>133.44668579102</ele>
        <time>2017-04-09T08:20:54.000Z</time>
      </trkpt>
      <trkpt lat="49.33261" lon="1.013">
        <ele>133.31713867188</ele>
        <time>2017-04-09T08:20:57.000Z</time>
      </trkpt>
      <trkpt lat="49.33264" lon="1.01312">
        <ele>133.16751098633</ele>
        <time>2017-04-09T08:20:59.000Z</time>
      </trkpt>
      <trkpt lat="49.33267" lon="1.01323">
        <ele>133.03665161133</ele>
        <time>2017-04-09T08:21:01.000Z</time>
      </trkpt>
      <trkpt lat="49.33271" lon="1.01338">
        <ele>132.90534973145</ele>
        <time>2017-04-09T08:21:04.000Z</time>
        <extensions>
          <gpxtpx:TrackPointExtension xmlns:gpxtpx="http://www.garmin.com/xmlschemas/TrackPointExtension/v1">
            <gpxtpx:hr>143</gpxtpx:hr>
          </gpxtpx:TrackPointExtension>
        </extensions>
      </trkpt>
      <trkpt lat="49.33276" lon="1.01354">
        <ele>132.73538208008</ele>
        <time>2017-04-09T08:21:07.000Z</time>
        <extensions>
          <gpxtpx:TrackPointExtension xmlns:gpxtpx="http://www.garmin.com/xmlschemas/TrackPointExtension/v1">
            <gpxtpx:hr>141</gpxtpx:hr>
          </gpxtpx:TrackPointExtension>
        </extensions>
      </trkpt>
      <trkpt lat="49.33272" lon="1.01367">
        <ele>132.43995666504</ele>
        <time>2017-04-09T08:21:10.000Z</time>
        <extensions>
          <gpxtpx:TrackPointExtension xmlns:gpxtpx="http://www.garmin.com/xmlschemas/TrackPointExtension/v1">
            <gpxtpx:hr>139</gpxtpx:hr>
          </gpxtpx:TrackPointExtension>
        </extensions>
      </trkpt>
      <trkpt lat="49.33263" lon="1.01378">
        <ele>132.03128051758</ele>
        <time>2017-04-09T08:21:13.000Z</time>
        <extensions>
          <gpxtpx:TrackPointExtension xmlns:gpxtpx="http://www.garmin.com/xmlschemas/TrackPointExtension/v1">
            <gpxtpx:hr>141</gpxtpx:hr>
          </gpxtpx:TrackPointExtension>
        </extensions>
      </trkpt>
      <trkpt lat="49.33256" lon="1.0139">
        <ele>131.56062316895</ele>
        <time>2017-04-09T08:21:16.000Z</time>
        <extensions>
          <gpxtpx:TrackPointExtension xmlns:gpxtpx="http://www.garmin.com/xmlschemas/TrackPointExtension/v1">
            <gpxtpx:hr>141</gpxtpx:hr>
          </gpxtpx:TrackPointExtension>
        </extensions>
      </trkpt>
      <trkpt lat="49.3325" lon="1.01398">
        <ele>131.08584594727</ele>
        <time>2017-04-09T08:21:18.000Z</time>
      </trkpt>
      <trkpt lat="49.33244" lon="1.01411">
        <ele>130.60618591309</ele>
        <time>2017-04-09T08:21:21.000Z</time>
      </trkpt>
      <trkpt lat="49.33241" lon="1.01418">
        <ele>130.24771118164</ele>
        <time>2017-04-09T08:21:23.000Z</time>
      </trkpt>
      <trkpt lat="49.33237" lon="1.01426">
        <ele>129.98968505859</ele>
        <time>2017-04-09T08:21:25.000Z</time>
      </trkpt>
      <trkpt lat="49.3323" lon="1.01437">
        <ele>129.77073669434</ele>
        <time>2017-04-09T08:21:28.000Z</time>
      </trkpt>
      <trkpt lat="49.33226" lon="1.01444">
        <ele>129.5616607666</ele>
        <time>2017-04-09T08:21:30.000Z</time>
      </trkpt>
      <trkpt lat="49.3322" lon="1.01462">
        <ele>129.36099243164</ele>
        <time>2017-04-09T08:21:33.000Z</time>
      </trkpt>
      <trkpt lat="49.33215" lon="1.01473">
        <ele>129.158203125</ele>
        <time>2017-04-09T08:21:35.000Z</time>
      </trkpt>
      <trkpt lat="49.33208" lon="1.01483">
        <ele>128.9616394043</ele>
        <time>2017-04-09T08:21:37.000Z</time>
      </trkpt>
      <trkpt lat="49.33198" lon="1.01498">
        <ele>128.77146911621</ele>
        <time>2017-04-09T08:21:40.000Z</time>
      </trkpt>
      <trkpt lat="49.33187" lon="1.01507">
        <ele>128.60702514648</ele>
        <time>2017-04-09T08:21:43.000Z</time>
      </trkpt>
      <trkpt lat="49.3318" lon="1.01515">
        <ele>128.50918579102</ele>
        <time>2017-04-09T08:21:45.000Z</time>
      </trkpt>
      <trkpt lat="49.33171" lon="1.01528">
        <ele>128.49073791504</ele>
        <time>2017-04-09T08:21:48.000Z</time>
      </trkpt>
      <trkpt lat="49.33167" lon="1.01537">
        <ele>128.54620361328</ele>
        <time>2017-04-09T08:21:50.000Z</time>
      </trkpt>
      <trkpt lat="49.33161" lon="1.01554">
        <ele>128.7292175293</ele>
        <time>2017-04-09T08:21:53.000Z</time>
      </trkpt>
      <trkpt lat="49.33153" lon="1.01577">
        <ele>129.02578735352</ele>
        <time>2017-04-09T08:21:56.000Z</time>
      </trkpt>
      <trkpt lat="49.33147" lon="1.01589">
        <ele>129.3462677002</ele>
        <time>2017-04-09T08:21:58.000Z</time>
      </trkpt>
      <trkpt lat="49.33144" lon="1.01609">
        <ele>129.64004516602</ele>
        <time>2017-04-09T08:22:01.000Z</time>
        <extensions>
          <gpxtpx:TrackPointExtension xmlns:gpxtpx="http://www.garmin.com/xmlschemas/TrackPointExtension/v1">
            <gpxtpx:hr>141</gpxtpx:hr>
          </gpxtpx:TrackPointExtension>
        </extensions>
      </trkpt>
      <trkpt lat="49.33149" lon="1.01621">
        <ele>129.91465759277</ele>
        <time>2017-04-09T08:22:03.000Z</time>
        <extensions>
          <gpxtpx:TrackPointExtension xmlns:gpxtpx="http://www.garmin.com/xmlschemas/TrackPointExtension/v1">
            <gpxtpx:hr>143</gpxtpx:hr>
          </gpxtpx:TrackPointExtension>
        </extensions>
      </trkpt>
      <trkpt lat="49.33155" lon="1.01636">
        <ele>130.14682006836</ele>
        <time>2017-04-09T08:22:06.000Z</time>
        <extensions>
          <gpxtpx:TrackPointExtension xmlns:gpxtpx="http://www.garmin.com/xmlschemas/TrackPointExtension/v1">
            <gpxtpx:hr>143</gpxtpx:hr>
          </gpxtpx:TrackPointExtension>
        </extensions>
      </trkpt>
      <trkpt lat="49.33159" lon="1.0165">
        <ele>130.30989074707</ele>
        <time>2017-04-09T08:22:08.000Z</time>
        <extensions>
          <gpxtpx:TrackPointExtension xmlns:gpxtpx="http://www.garmin.com/xmlschemas/TrackPointExtension/v1">
            <gpxtpx:hr>145</gpxtpx:hr>
          </gpxtpx:TrackPointExtension>
        </extensions>
      </trkpt>
      <trkpt lat="49.33164" lon="1.01667">
        <ele>130.49118041992</ele>
        <time>2017-04-09T08:22:11.000Z</time>
        <extensions>
          <gpxtpx:TrackPointExtension xmlns:gpxtpx="http://www.garmin.com/xmlschemas/TrackPointExtension/v1">
            <gpxtpx:hr>145</gpxtpx:hr>
          </gpxtpx:TrackPointExtension>
        </extensions>
      </trkpt>
      <trkpt lat="49.33168" lon="1.01685">
        <ele>130.69319152832</ele>
        <time>2017-04-09T08:22:14.000Z</time>
        <extensions>
          <gpxtpx:TrackPointExtension xmlns:gpxtpx="http://www.garmin.com/xmlschemas/TrackPointExtension/v1">
            <gpxtpx:hr>144</gpxtpx:hr>
          </gpxtpx:TrackPointExtension>
        </extensions>
      </trkpt>
      <trkpt lat="49.3317" lon="1.01702">
        <ele>130.89352416992</ele>
        <time>2017-04-09T08:22:17.000Z</time>
        <extensions>
          <gpxtpx:TrackPointExtension xmlns:gpxtpx="http://www.garmin.com/xmlschemas/TrackPointExtension/v1">
            <gpxtpx:hr>141</gpxtpx:hr>
          </gpxtpx:TrackPointExtension>
        </extensions>
      </trkpt>
      <trkpt lat="49.33174" lon="1.01718">
        <ele>131.05612182617</ele>
        <time>2017-04-09T08:22:20.000Z</time>
      </trkpt>
      <trkpt lat="49.33178" lon="1.01732">
        <ele>131.17085266113</ele>
        <time>2017-04-09T08:22:23.000Z</time>
      </trkpt>
      <trkpt lat="49.33182" lon="1.01742">
        <ele>131.21453857422</ele>
        <time>2017-04-09T08:22:25.000Z</time>
      </trkpt>
      <trkpt lat="49.33186" lon="1.01754">
        <ele>131.19970703125</ele>
        <time>2017-04-09T08:22:27.000Z</time>
      </trkpt>
      <trkpt lat="49.33193" lon="1.0177">
        <ele>131.12448120117</ele>
        <time>2017-04-09T08:22:30.000Z</time>
      </trkpt>
      <trkpt lat="49.33197" lon="1.01785">
        <ele>131.0461730957</ele>
        <time>2017-04-09T08:22:33.000Z</time>
      </trkpt>
      <trkpt lat="49.33202" lon="1.01795">
        <ele>130.98371887207</ele>
        <time>2017-04-09T08:22:35.000Z</time>
      </trkpt>
      <trkpt lat="49.3321" lon="1.01805">
        <ele>130.94595336914</ele>
        <time>2017-04-09T08:22:38.000Z</time>
      </trkpt>
      <trkpt lat="49.33214" lon="1.01811">
        <ele>130.94348144531</ele>
        <time>2017-04-09T08:22:40.000Z</time>
      </trkpt>
      <trkpt lat="49.33218" lon="1.01825">
        <ele>131.05099487305</ele>
        <time>2017-04-09T08:22:43.000Z</time>
      </trkpt>
      <trkpt lat="49.3322" lon="1.01832">
        <ele>131.19711303711</ele>
        <time>2017-04-09T08:22:45.000Z</time>
      </trkpt>
      <trkpt lat="49.33225" lon="1.01842">
        <ele>131.35452270508</ele>
        <time>2017-04-09T08:22:47.000Z</time>
      </trkpt>
      <trkpt lat="49.33239" lon="1.0186">
        <ele>131.53192138672</ele>
        <time>2017-04-09T08:22:50.000Z</time>
      </trkpt>
      <trkpt lat="49.33243" lon="1.0187">
        <ele>131.70202636719</ele>
        <time>2017-04-09T08:22:52.000Z</time>
      </trkpt>
      <trkpt lat="49.3325" lon="1.01879">
        <ele>131.81730651855</ele>
        <time>2017-04-09T08:22:54.000Z</time>
      </trkpt>
      <trkpt lat="49.33255" lon="1.01888">
        <ele>131.84492492676</ele>
        <time>2017-04-09T08:22:56.000Z</time>
      </trkpt>
      <trkpt lat="49.33263" lon="1.01904">
        <ele>131.76341247559</ele>
        <time>2017-04-09T08:22:59.000Z</time>
      </trkpt>
      <trkpt lat="49.3327" lon="1.01919">
        <ele>131.53959655762</ele>
        <time>2017-04-09T08:23:02.000Z</time>
        <extensions>
          <gpxtpx:TrackPointExtension xmlns:gpxtpx="http://www.garmin.com/xmlschemas/TrackPointExtension/v1">
            <gpxtpx:hr>139</gpxtpx:hr>
          </gpxtpx:TrackPointExtension>
        </extensions>
      </trkpt>
      <trkpt lat="49.33275" lon="1.01927">
        <ele>131.20498657227</ele>
        <time>2017-04-09T08:23:04.000Z</time>
        <extensions>
          <gpxtpx:TrackPointExtension xmlns:gpxtpx="http://www.garmin.com/xmlschemas/TrackPointExtension/v1">
            <gpxtpx:hr>136</gpxtpx:hr>
          </gpxtpx:TrackPointExtension>
        </extensions>
      </trkpt>
      <trkpt lat="49.33284" lon="1.01939">
        <ele>130.70530700684</ele>
        <time>2017-04-09T08:23:07.000Z</time>
        <extensions>
          <gpxtpx:TrackPointExtension xmlns:gpxtpx="http://www.garmin.com/xmlschemas/TrackPointExtension/v1">
            <gpxtpx:hr>137</gpxtpx:hr>
          </gpxtpx:TrackPointExtension>
        </extensions>
      </trkpt>
      <trkpt lat="49.33287" lon="1.01944">
        <ele>130.20614624023</ele>
        <time>2017-04-09T08:23:09.000Z</time>
        <extensions>
          <gpxtpx:TrackPointExtension xmlns:gpxtpx="http://www.garmin.com/xmlschemas/TrackPointExtension/v1">
            <gpxtpx:hr>137</gpxtpx:hr>
          </gpxtpx:TrackPointExtension>
        </extensions>
      </trkpt>
      <trkpt lat="49.33287" lon="1.01946">
        <ele>129.7880859375</ele>
        <time>2017-04-09T08:23:11.000Z</time>
        <extensions>
          <gpxtpx:TrackPointExtension xmlns:gpxtpx="http://www.garmin.com/xmlschemas/TrackPointExtension/v1">
            <gpxtpx:hr>136</gpxtpx:hr>
          </gpxtpx:TrackPointExtension>
        </extensions>
      </trkpt>
      <trkpt lat="49.33286" lon="1.01947">
        <ele>129.48526000977</ele>
        <time>2017-04-09T08:23:14.000Z</time>
      </trkpt>
      <trkpt lat="49.3328" lon="1.01947">
        <ele>129.34005737305</ele>
        <time>2017-04-09T08:23:17.000Z</time>
        <extensions>
          <gpxtpx:TrackPointExtension xmlns:gpxtpx="http://www.garmin.com/xmlschemas/TrackPointExtension/v1">
            <gpxtpx:hr>138</gpxtpx:hr>
          </gpxtpx:TrackPointExtension>
        </extensions>
      </trkpt>
      <trkpt lat="49.3327" lon="1.0195">
        <ele>129.41804504395</ele>
        <time>2017-04-09T08:23:20.000Z</time>
      </trkpt>
      <trkpt lat="49.33261" lon="1.01954">
        <ele>129.59898376465</ele>
        <time>2017-04-09T08:23:22.000Z</time>
      </trkpt>
      <trkpt lat="49.33247" lon="1.01961">
        <ele>129.8365020752</ele>
        <time>2017-04-09T08:23:25.000Z</time>
      </trkpt>
      <trkpt lat="49.33235" lon="1.01963">
        <ele>130.04287719727</ele>
        <time>2017-04-09T08:23:28.000Z</time>
      </trkpt>
      <trkpt lat="49.33224" lon="1.01963">
        <ele>130.18081665039</ele>
        <time>2017-04-09T08:23:31.000Z</time>
      </trkpt>
      <trkpt lat="49.33216" lon="1.01962">
        <ele>130.24253845215</ele>
        <time>2017-04-09T08:23:33.000Z</time>
      </trkpt>
      <trkpt lat="49.33205" lon="1.01957">
        <ele>130.26533508301</ele>
        <time>2017-04-09T08:23:36.000Z</time>
      </trkpt>
      <trkpt lat="49.33197" lon="1.01954">
        <ele>130.25064086914</ele>
        <time>2017-04-09T08:23:38.000Z</time>
      </trkpt>
      <trkpt lat="49.33186" lon="1.01947">
        <ele>130.27981567383</ele>
        <time>2017-04-09T08:23:41.000Z</time>
      </trkpt>
      <trkpt lat="49.33173" lon="1.01939">
        <ele>130.34242248535</ele>
        <time>2017-04-09T08:23:44.000Z</time>
      </trkpt>
      <trkpt lat="49.33165" lon="1.01934">
        <ele>130.42282104492</ele>
        <time>2017-04-09T08:23:46.000Z</time>
      </trkpt>
      <trkpt lat="49.33157" lon="1.0193">
        <ele>130.52229309082</ele>
        <time>2017-04-09T08:23:48.000Z</time>
      </trkpt>
      <trkpt lat="49.33146" lon="1.01927">
        <ele>130.6537322998</ele>
        <time>2017-04-09T08:23:51.000Z</time>
      </trkpt>
      <trkpt lat="49.3313" lon="1.01924">
        <ele>130.81600952148</ele>
        <time>2017-04-09T08:23:54.000Z</time>
      </trkpt>
      <trkpt lat="49.33116" lon="1.01923">
        <ele>130.9963684082</ele>
        <time>2017-04-09T08:23:57.000Z</time>
      </trkpt>
      <trkpt lat="49.33101" lon="1.01921">
        <ele>131.2095489502</ele>
        <time>2017-04-09T08:24:00.000Z</time>
      </trkpt>
      <trkpt lat="49.3309" lon="1.0192">
        <ele>131.41323852539</ele>
        <time>2017-04-09T08:24:02.000Z</time>
        <extensions>
          <gpxtpx:TrackPointExtension xmlns:gpxtpx="http://www.garmin.com/xmlschemas/TrackPointExtension/v1">
            <gpxtpx:hr>138</gpxtpx:hr>
          </gpxtpx:TrackPointExtension>
        </extensions>
      </trkpt>
      <trkpt lat="49.33073" lon="1.01921">
        <ele>131.63456726074</ele>
        <time>2017-04-09T08:24:05.000Z</time>
        <extensions>
          <gpxtpx:TrackPointExtension xmlns:gpxtpx="http://www.garmin.com/xmlschemas/TrackPointExtension/v1">
            <gpxtpx:hr>137</gpxtpx:hr>
          </gpxtpx:TrackPointExtension>
        </extensions>
      </trkpt>
      <trkpt lat="49.3306" lon="1.01917">
        <ele>131.89549255371</ele>
        <time>2017-04-09T08:24:08.000Z</time>
        <extensions>
          <gpxtpx:TrackPointExtension xmlns:gpxtpx="http://www.garmin.com/xmlschemas/TrackPointExtension/v1">
            <gpxtpx:hr>137</gpxtpx:hr>
          </gpxtpx:TrackPointExtension>
        </extensions>
      </trkpt>
      <trkpt lat="49.33046" lon="1.01914">
        <ele>132.17880249023</ele>
        <time>2017-04-09T08:24:11.000Z</time>
        <extensions>
          <gpxtpx:TrackPointExtension xmlns:gpxtpx="http://www.garmin.com/xmlschemas/TrackPointExtension/v1">
            <gpxtpx:hr>139</gpxtpx:hr>
          </gpxtpx:TrackPointExtension>
        </extensions>
      </trkpt>
      <trkpt lat="49.33037" lon="1.01907">
        <ele>132.43569946289</ele>
        <time>2017-04-09T08:24:13.000Z</time>
        <extensions>
          <gpxtpx:TrackPointExtension xmlns:gpxtpx="http://www.garmin.com/xmlschemas/TrackPointExtension/v1">
            <gpxtpx:hr>140</gpxtpx:hr>
          </gpxtpx:TrackPointExtension>
        </extensions>
      </trkpt>
      <trkpt lat="49.33022" lon="1.01903">
        <ele>132.71243286133</ele>
        <time>2017-04-09T08:24:16.000Z</time>
        <extensions>
          <gpxtpx:TrackPointExtension xmlns:gpxtpx="http://www.garmin.com/xmlschemas/TrackPointExtension/v1">
            <gpxtpx:hr>138</gpxtpx:hr>
          </gpxtpx:TrackPointExtension>
        </extensions>
      </trkpt>
      <trkpt lat="49.33007" lon="1.01907">
        <ele>133.01783752441</ele>
        <time>2017-04-09T08:24:19.000Z</time>
        <extensions>
          <gpxtpx:TrackPointExtension xmlns:gpxtpx="http://www.garmin.com/xmlschemas/TrackPointExtension/v1">
            <gpxtpx:hr>140</gpxtpx:hr>
          </gpxtpx:TrackPointExtension>
        </extensions>
      </trkpt>
      <trkpt lat="49.33" lon="1.01917">
        <ele>133.30917358398</ele>
        <time>2017-04-09T08:24:21.000Z</time>
      </trkpt>
      <trkpt lat="49.32991" lon="1.01925">
        <ele>133.46272277832</ele>
        <time>2017-04-09T08:24:23.000Z</time>
      </trkpt>
      <trkpt lat="49.3298" lon="1.01941">
        <ele>133.47785949707</ele>
        <time>2017-04-09T08:24:26.000Z</time>
      </trkpt>
      <trkpt lat="49.32975" lon="1.01964">
        <ele>133.30859375</ele>
        <time>2017-04-09T08:24:29.000Z</time>
      </trkpt>
      <trkpt lat="49.32986" lon="1.01985">
        <ele>132.91494750977</ele>
        <time>2017-04-09T08:24:32.000Z</time>
      </trkpt>
      <trkpt lat="49.32991" lon="1.01998">
        <ele>132.35665893555</ele>
        <time>2017-04-09T08:24:34.000Z</time>
      </trkpt>
      <trkpt lat="49.32999" lon="1.02019">
        <ele>131.79426574707</ele>
        <time>2017-04-09T08:24:37.000Z</time>
      </trkpt>
      <trkpt lat="49.33005" lon="1.02041">
        <ele>131.25936889648</ele>
        <time>2017-04-09T08:24:40.000Z</time>
      </trkpt>
      <trkpt lat="49.33012" lon="1.02053">
        <ele>130.77575683594</ele>
        <time>2017-04-09T08:24:42.000Z</time>
      </trkpt>
      <trkpt lat="49.33019" lon="1.02075">
        <ele>130.29481506348</ele>
        <time>2017-04-09T08:24:45.000Z</time>
      </trkpt>
      <trkpt lat="49.33023" lon="1.02088">
        <ele>129.8132019043</ele>
        <time>2017-04-09T08:24:47.000Z</time>
      </trkpt>
      <trkpt lat="49.33028" lon="1.0211">
        <ele>129.2763671875</ele>
        <time>2017-04-09T08:24:50.000Z</time>
      </trkpt>
      <trkpt lat="49.33032" lon="1.02127">
        <ele>128.72763061523</ele>
        <time>2017-04-09T08:24:52.000Z</time>
      </trkpt>
      <trkpt lat="49.33038" lon="1.02141">
        <ele>128.16989135742</ele>
        <time>2017-04-09T08:24:54.000Z</time>
      </trkpt>
      <trkpt lat="49.33043" lon="1.02164">
        <ele>127.62561035156</ele>
        <time>2017-04-09T08:24:57.000Z</time>
      </trkpt>
      <trkpt lat="49.33051" lon="1.02188">
        <ele>127.11396789551</ele>
        <time>2017-04-09T08:25:00.000Z</time>
        <extensions>
          <gpxtpx:TrackPointExtension xmlns:gpxtpx="http://www.garmin.com/xmlschemas/TrackPointExtension/v1">
            <gpxtpx:hr>144</gpxtpx:hr>
          </gpxtpx:TrackPointExtension>
        </extensions>
      </trkpt>
      <trkpt lat="49.33058" lon="1.0221">
        <ele>126.71559906006</ele>
        <time>2017-04-09T08:25:03.000Z</time>
      </trkpt>
      <trkpt lat="49.33064" lon="1.0223">
        <ele>126.41502380371</ele>
        <time>2017-04-09T08:25:06.000Z</time>
        <extensions>
          <gpxtpx:TrackPointExtension xmlns:gpxtpx="http://www.garmin.com/xmlschemas/TrackPointExtension/v1">
            <gpxtpx:hr>144</gpxtpx:hr>
          </gpxtpx:TrackPointExtension>
        </extensions>
      </trkpt>
      <trkpt lat="49.3307" lon="1.02252">
        <ele>126.22611999512</ele>
        <time>2017-04-09T08:25:09.000Z</time>
        <extensions>
          <gpxtpx:TrackPointExtension xmlns:gpxtpx="http://www.garmin.com/xmlschemas/TrackPointExtension/v1">
            <gpxtpx:hr>146</gpxtpx:hr>
          </gpxtpx:TrackPointExtension>
        </extensions>
      </trkpt>
      <trkpt lat="49.33075" lon="1.02267">
        <ele>126.18040466309</ele>
        <time>2017-04-09T08:25:11.000Z</time>
        <extensions>
          <gpxtpx:TrackPointExtension xmlns:gpxtpx="http://www.garmin.com/xmlschemas/TrackPointExtension/v1">
            <gpxtpx:hr>145</gpxtpx:hr>
          </gpxtpx:TrackPointExtension>
        </extensions>
      </trkpt>
      <trkpt lat="49.33083" lon="1.02288">
        <ele>126.22685241699</ele>
        <time>2017-04-09T08:25:14.000Z</time>
        <extensions>
          <gpxtpx:TrackPointExtension xmlns:gpxtpx="http://www.garmin.com/xmlschemas/TrackPointExtension/v1">
            <gpxtpx:hr>143</gpxtpx:hr>
          </gpxtpx:TrackPointExtension>
        </extensions>
      </trkpt>
      <trkpt lat="49.33091" lon="1.02309">
        <ele>126.32851409912</ele>
        <time>2017-04-09T08:25:17.000Z</time>
        <extensions>
          <gpxtpx:TrackPointExtension xmlns:gpxtpx="http://www.garmin.com/xmlschemas/TrackPointExtension/v1">
            <gpxtpx:hr>140</gpxtpx:hr>
          </gpxtpx:TrackPointExtension>
        </extensions>
      </trkpt>
      <trkpt lat="49.33097" lon="1.02332">
        <ele>126.47428894043</ele>
        <time>2017-04-09T08:25:20.000Z</time>
      </trkpt>
      <trkpt lat="49.33102" lon="1.02348">
        <ele>126.6047744751</ele>
        <time>2017-04-09T08:25:22.000Z</time>
      </trkpt>
      <trkpt lat="49.33109" lon="1.02369">
        <ele>126.69404602051</ele>
        <time>2017-04-09T08:25:25.000Z</time>
      </trkpt>
      <trkpt lat="49.33113" lon="1.02382">
        <ele>126.72263336182</ele>
        <time>2017-04-09T08:25:27.000Z</time>
      </trkpt>
      <trkpt lat="49.33122" lon="1.02405">
        <ele>126.63940429688</ele>
        <time>2017-04-09T08:25:30.000Z</time>
      </trkpt>
      <trkpt lat="49.3313" lon="1.02428">
        <ele>126.44918060303</ele>
        <time>2017-04-09T08:25:33.000Z</time>
      </trkpt>
      <trkpt lat="49.33136" lon="1.02449">
        <ele>126.25650787354</ele>
        <time>2017-04-09T08:25:36.000Z</time>
      </trkpt>
      <trkpt lat="49.33141" lon="1.02464">
        <ele>126.07118988037</ele>
        <time>2017-04-09T08:25:38.000Z</time>
      </trkpt>
      <trkpt lat="49.33146" lon="1.02489">
        <ele>125.93090820312</ele>
        <time>2017-04-09T08:25:41.000Z</time>
      </trkpt>
      <trkpt lat="49.33143" lon="1.02507">
        <ele>125.92038726807</ele>
        <time>2017-04-09T08:25:43.000Z</time>
      </trkpt>
      <trkpt lat="49.33142" lon="1.02529">
        <ele>126.01224517822</ele>
        <time>2017-04-09T08:25:46.000Z</time>
      </trkpt>
      <trkpt lat="49.33142" lon="1.02545">
        <ele>126.12197113037</ele>
        <time>2017-04-09T08:25:48.000Z</time>
      </trkpt>
      <trkpt lat="49.33142" lon="1.02561">
        <ele>126.25966644287</ele>
        <time>2017-04-09T08:25:50.000Z</time>
      </trkpt>
      <trkpt lat="49.33138" lon="1.02585">
        <ele>126.41931152344</ele>
        <time>2017-04-09T08:25:53.000Z</time>
      </trkpt>
      <trkpt lat="49.33134" lon="1.0261">
        <ele>126.58435058594</ele>
        <time>2017-04-09T08:25:56.000Z</time>
      </trkpt>
      <trkpt lat="49.33131" lon="1.02625">
        <ele>126.74336242676</ele>
        <time>2017-04-09T08:25:58.000Z</time>
      </trkpt>
      <trkpt lat="49.3313" lon="1.02649">
        <ele>126.92441558838</ele>
        <time>2017-04-09T08:26:01.000Z</time>
        <extensions>
          <gpxtpx:TrackPointExtension xmlns:gpxtpx="http://www.garmin.com/xmlschemas/TrackPointExtension/v1">
            <gpxtpx:hr>139</gpxtpx:hr>
          </gpxtpx:TrackPointExtension>
        </extensions>
      </trkpt>
      <trkpt lat="49.33128" lon="1.02665">
        <ele>127.11820983887</ele>
        <time>2017-04-09T08:26:03.000Z</time>
        <extensions>
          <gpxtpx:TrackPointExtension xmlns:gpxtpx="http://www.garmin.com/xmlschemas/TrackPointExtension/v1">
            <gpxtpx:hr>139</gpxtpx:hr>
          </gpxtpx:TrackPointExtension>
        </extensions>
      </trkpt>
      <trkpt lat="49.33129" lon="1.0269">
        <ele>127.35192871094</ele>
        <time>2017-04-09T08:26:06.000Z</time>
        <extensions>
          <gpxtpx:TrackPointExtension xmlns:gpxtpx="http://www.garmin.com/xmlschemas/TrackPointExtension/v1">
            <gpxtpx:hr>140</gpxtpx:hr>
          </gpxtpx:TrackPointExtension>
        </extensions>
      </trkpt>
      <trkpt lat="49.33126" lon="1.02717">
        <ele>127.6305770874</ele>
        <time>2017-04-09T08:26:09.000Z</time>
        <extensions>
          <gpxtpx:TrackPointExtension xmlns:gpxtpx="http://www.garmin.com/xmlschemas/TrackPointExtension/v1">
            <gpxtpx:hr>143</gpxtpx:hr>
          </gpxtpx:TrackPointExtension>
        </extensions>
      </trkpt>
      <trkpt lat="49.33118" lon="1.02739">
        <ele>127.99664306641</ele>
        <time>2017-04-09T08:26:12.000Z</time>
        <extensions>
          <gpxtpx:TrackPointExtension xmlns:gpxtpx="http://www.garmin.com/xmlschemas/TrackPointExtension/v1">
            <gpxtpx:hr>147</gpxtpx:hr>
          </gpxtpx:TrackPointExtension>
        </extensions>
      </trkpt>
      <trkpt lat="49.33112" lon="1.02759">
        <ele>128.33312988281</ele>
        <time>2017-04-09T08:26:15.000Z</time>
        <extensions>
          <gpxtpx:TrackPointExtension xmlns:gpxtpx="http://www.garmin.com/xmlschemas/TrackPointExtension/v1">
            <gpxtpx:hr>147</gpxtpx:hr>
          </gpxtpx:TrackPointExtension>
        </extensions>
      </trkpt>
      <trkpt lat="49.33108" lon="1.02778">
        <ele>128.52105712891</ele>
        <time>2017-04-09T08:26:18.000Z</time>
        <extensions>
          <gpxtpx:TrackPointExtension xmlns:gpxtpx="http://www.garmin.com/xmlschemas/TrackPointExtension/v1">
            <gpxtpx:hr>146</gpxtpx:hr>
          </gpxtpx:TrackPointExtension>
        </extensions>
      </trkpt>
      <trkpt lat="49.33104" lon="1.02801">
        <ele>128.48429870605</ele>
        <time>2017-04-09T08:26:21.000Z</time>
        <extensions>
          <gpxtpx:TrackPointExtension xmlns:gpxtpx="http://www.garmin.com/xmlschemas/TrackPointExtension/v1">
            <gpxtpx:hr>144</gpxtpx:hr>
          </gpxtpx:TrackPointExtension>
        </extensions>
      </trkpt>
      <trkpt lat="49.33101" lon="1.02825">
        <ele>128.18298339844</ele>
        <time>2017-04-09T08:26:24.000Z</time>
        <extensions>
          <gpxtpx:TrackPointExtension xmlns:gpxtpx="http://www.garmin.com/xmlschemas/TrackPointExtension/v1">
            <gpxtpx:hr>143</gpxtpx:hr>
          </gpxtpx:TrackPointExtension>
        </extensions>
      </trkpt>
      <trkpt lat="49.33098" lon="1.02852">
        <ele>127.6748046875</ele>
        <time>2017-04-09T08:26:27.000Z</time>
      </trkpt>
      <trkpt lat="49.33095" lon="1.02879">
        <ele>127.10905456543</ele>
        <time>2017-04-09T08:26:30.000Z</time>
      </trkpt>
      <trkpt lat="49.33091" lon="1.02903">
        <ele>126.6282119751</ele>
        <time>2017-04-09T08:26:33.000Z</time>
      </trkpt>
      <trkpt lat="49.33088" lon="1.02919">
        <ele>126.26037597656</ele>
        <time>2017-04-09T08:26:35.000Z</time>
      </trkpt>
      <trkpt lat="49.3308" lon="1.02941">
        <ele>125.98679351807</ele>
        <time>2017-04-09T08:26:38.000Z</time>
      </trkpt>
      <trkpt lat="49.33075" lon="1.02964">
        <ele>125.69248199463</ele>
        <time>2017-04-09T08:26:41.000Z</time>
      </trkpt>
      <trkpt lat="49.33072" lon="1.02986">
        <ele>125.31467437744</ele>
        <time>2017-04-09T08:26:44.000Z</time>
      </trkpt>
      <trkpt lat="49.33069" lon="1.0301">
        <ele>124.87324523926</ele>
        <time>2017-04-09T08:26:47.000Z</time>
      </trkpt>
      <trkpt lat="49.33064" lon="1.03027">
        <ele>124.45460510254</ele>
        <time>2017-04-09T08:26:49.000Z</time>
      </trkpt>
      <trkpt lat="49.33058" lon="1.03049">
        <ele>124.11948394775</ele>
        <time>2017-04-09T08:26:52.000Z</time>
      </trkpt>
      <trkpt lat="49.33056" lon="1.03063">
        <ele>123.91194152832</ele>
        <time>2017-04-09T08:26:54.000Z</time>
      </trkpt>
      <trkpt lat="49.33049" lon="1.03085">
        <ele>123.90118408203</ele>
        <time>2017-04-09T08:26:57.000Z</time>
      </trkpt>
      <trkpt lat="49.33046" lon="1.03097">
        <ele>123.9757232666</ele>
        <time>2017-04-09T08:26:59.000Z</time>
      </trkpt>
      <trkpt lat="49.33041" lon="1.03111">
        <ele>124.0686416626</ele>
        <time>2017-04-09T08:27:01.000Z</time>
        <extensions>
          <gpxtpx:TrackPointExtension xmlns:gpxtpx="http://www.garmin.com/xmlschemas/TrackPointExtension/v1">
            <gpxtpx:hr>140</gpxtpx:hr>
          </gpxtpx:TrackPointExtension>
        </extensions>
      </trkpt>
      <trkpt lat="49.33034" lon="1.03131">
        <ele>124.16680908203</ele>
        <time>2017-04-09T08:27:04.000Z</time>
        <extensions>
          <gpxtpx:TrackPointExtension xmlns:gpxtpx="http://www.garmin.com/xmlschemas/TrackPointExtension/v1">
            <gpxtpx:hr>143</gpxtpx:hr>
          </gpxtpx:TrackPointExtension>
        </extensions>
      </trkpt>
      <trkpt lat="49.33027" lon="1.03151">
        <ele>124.28996276855</ele>
        <time>2017-04-09T08:27:07.000Z</time>
        <extensions>
          <gpxtpx:TrackPointExtension xmlns:gpxtpx="http://www.garmin.com/xmlschemas/TrackPointExtension/v1">
            <gpxtpx:hr>146</gpxtpx:hr>
          </gpxtpx:TrackPointExtension>
        </extensions>
      </trkpt>
      <trkpt lat="49.33027" lon="1.03162">
        <ele>124.3279800415</ele>
        <time>2017-04-09T08:27:09.000Z</time>
        <extensions>
          <gpxtpx:TrackPointExtension xmlns:gpxtpx="http://www.garmin.com/xmlschemas/TrackPointExtension/v1">
            <gpxtpx:hr>146</gpxtpx:hr>
          </gpxtpx:TrackPointExtension>
        </extensions>
      </trkpt>
      <trkpt lat="49.33033" lon="1.03165">
        <ele>124.29628753662</ele>
        <time>2017-04-09T08:27:12.000Z</time>
        <extensions>
          <gpxtpx:TrackPointExtension xmlns:gpxtpx="http://www.garmin.com/xmlschemas/TrackPointExtension/v1">
            <gpxtpx:hr>144</gpxtpx:hr>
          </gpxtpx:TrackPointExtension>
        </extensions>
      </trkpt>
      <trkpt lat="49.33039" lon="1.03163">
        <ele>124.19721984863</ele>
        <time>2017-04-09T08:27:14.000Z</time>
        <extensions>
          <gpxtpx:TrackPointExtension xmlns:gpxtpx="http://www.garmin.com/xmlschemas/TrackPointExtension/v1">
            <gpxtpx:hr>144</gpxtpx:hr>
          </gpxtpx:TrackPointExtension>
        </extensions>
      </trkpt>
      <trkpt lat="49.33045" lon="1.0316">
        <ele>124.01279449463</ele>
        <time>2017-04-09T08:27:16.000Z</time>
        <extensions>
          <gpxtpx:TrackPointExtension xmlns:gpxtpx="http://www.garmin.com/xmlschemas/TrackPointExtension/v1">
            <gpxtpx:hr>145</gpxtpx:hr>
          </gpxtpx:TrackPointExtension>
        </extensions>
      </trkpt>
      <trkpt lat="49.33053" lon="1.03157">
        <ele>123.69995117188</ele>
        <time>2017-04-09T08:27:19.000Z</time>
        <extensions>
          <gpxtpx:TrackPointExtension xmlns:gpxtpx="http://www.garmin.com/xmlschemas/TrackPointExtension/v1">
            <gpxtpx:hr>145</gpxtpx:hr>
          </gpxtpx:TrackPointExtension>
        </extensions>
      </trkpt>
      <trkpt lat="49.33062" lon="1.03149">
        <ele>123.33664703369</ele>
        <time>2017-04-09T08:27:22.000Z</time>
      </trkpt>
      <trkpt lat="49.33072" lon="1.03138">
        <ele>122.9935760498</ele>
        <time>2017-04-09T08:27:25.000Z</time>
      </trkpt>
      <trkpt lat="49.33082" lon="1.03129">
        <ele>122.64792633057</ele>
        <time>2017-04-09T08:27:28.000Z</time>
      </trkpt>
      <trkpt lat="49.33092" lon="1.03119">
        <ele>122.38800048828</ele>
        <time>2017-04-09T08:27:31.000Z</time>
      </trkpt>
      <trkpt lat="49.33103" lon="1.03108">
        <ele>122.24195861816</ele>
        <time>2017-04-09T08:27:34.000Z</time>
      </trkpt>
      <trkpt lat="49.33115" lon="1.03096">
        <ele>122.19533538818</ele>
        <time>2017-04-09T08:27:37.000Z</time>
      </trkpt>
      <trkpt lat="49.33128" lon="1.03085">
        <ele>122.2237701416</ele>
        <time>2017-04-09T08:27:40.000Z</time>
      </trkpt>
      <trkpt lat="49.33135" lon="1.03078">
        <ele>122.32482910156</ele>
        <time>2017-04-09T08:27:42.000Z</time>
      </trkpt>
      <trkpt lat="49.33147" lon="1.03066">
        <ele>122.42649078369</ele>
        <time>2017-04-09T08:27:45.000Z</time>
      </trkpt>
      <trkpt lat="49.33159" lon="1.03054">
        <ele>122.53263092041</ele>
        <time>2017-04-09T08:27:48.000Z</time>
      </trkpt>
      <trkpt lat="49.33165" lon="1.03046">
        <ele>122.64064025879</ele>
        <time>2017-04-09T08:27:50.000Z</time>
      </trkpt>
      <trkpt lat="49.33177" lon="1.03034">
        <ele>122.83587646484</ele>
        <time>2017-04-09T08:27:53.000Z</time>
      </trkpt>
      <trkpt lat="49.33186" lon="1.03027">
        <ele>123.10186767578</ele>
        <time>2017-04-09T08:27:55.000Z</time>
      </trkpt>
      <trkpt lat="49.33197" lon="1.03017">
        <ele>123.47196960449</ele>
        <time>2017-04-09T08:27:58.000Z</time>
      </trkpt>
      <trkpt lat="49.3321" lon="1.03006">
        <ele>123.98073577881</ele>
        <time>2017-04-09T08:28:01.000Z</time>
        <extensions>
          <gpxtpx:TrackPointExtension xmlns:gpxtpx="http://www.garmin.com/xmlschemas/TrackPointExtension/v1">
            <gpxtpx:hr>146</gpxtpx:hr>
          </gpxtpx:TrackPointExtension>
        </extensions>
      </trkpt>
      <trkpt lat="49.33217" lon="1.02997">
        <ele>124.56376647949</ele>
        <time>2017-04-09T08:28:03.000Z</time>
        <extensions>
          <gpxtpx:TrackPointExtension xmlns:gpxtpx="http://www.garmin.com/xmlschemas/TrackPointExtension/v1">
            <gpxtpx:hr>143</gpxtpx:hr>
          </gpxtpx:TrackPointExtension>
        </extensions>
      </trkpt>
      <trkpt lat="49.33229" lon="1.02983">
        <ele>125.13510894775</ele>
        <time>2017-04-09T08:28:06.000Z</time>
        <extensions>
          <gpxtpx:TrackPointExtension xmlns:gpxtpx="http://www.garmin.com/xmlschemas/TrackPointExtension/v1">
            <gpxtpx:hr>143</gpxtpx:hr>
          </gpxtpx:TrackPointExtension>
        </extensions>
      </trkpt>
      <trkpt lat="49.33236" lon="1.02973">
        <ele>125.67038726807</ele>
        <time>2017-04-09T08:28:08.000Z</time>
        <extensions>
          <gpxtpx:TrackPointExtension xmlns:gpxtpx="http://www.garmin.com/xmlschemas/TrackPointExtension/v1">
            <gpxtpx:hr>143</gpxtpx:hr>
          </gpxtpx:TrackPointExtension>
        </extensions>
      </trkpt>
      <trkpt lat="49.33249" lon="1.02961">
        <ele>126.17028808594</ele>
        <time>2017-04-09T08:28:11.000Z</time>
        <extensions>
          <gpxtpx:TrackPointExtension xmlns:gpxtpx="http://www.garmin.com/xmlschemas/TrackPointExtension/v1">
            <gpxtpx:hr>141</gpxtpx:hr>
          </gpxtpx:TrackPointExtension>
        </extensions>
      </trkpt>
      <trkpt lat="49.33257" lon="1.02955">
        <ele>126.44026184082</ele>
        <time>2017-04-09T08:28:13.000Z</time>
        <extensions>
          <gpxtpx:TrackPointExtension xmlns:gpxtpx="http://www.garmin.com/xmlschemas/TrackPointExtension/v1">
            <gpxtpx:hr>139</gpxtpx:hr>
          </gpxtpx:TrackPointExtension>
        </extensions>
      </trkpt>
      <trkpt lat="49.33262" lon="1.02946">
        <ele>126.57082366943</ele>
        <time>2017-04-09T08:28:15.000Z</time>
        <extensions>
          <gpxtpx:TrackPointExtension xmlns:gpxtpx="http://www.garmin.com/xmlschemas/TrackPointExtension/v1">
            <gpxtpx:hr>140</gpxtpx:hr>
          </gpxtpx:TrackPointExtension>
        </extensions>
      </trkpt>
      <trkpt lat="49.33273" lon="1.02936">
        <ele>126.52624511719</ele>
        <time>2017-04-09T08:28:18.000Z</time>
      </trkpt>
      <trkpt lat="49.33287" lon="1.02923">
        <ele>126.34912109375</ele>
        <time>2017-04-09T08:28:21.000Z</time>
      </trkpt>
      <trkpt lat="49.33297" lon="1.02913">
        <ele>126.0103302002</ele>
        <time>2017-04-09T08:28:23.000Z</time>
      </trkpt>
      <trkpt lat="49.33311" lon="1.02903">
        <ele>125.62851715088</ele>
        <time>2017-04-09T08:28:26.000Z</time>
      </trkpt>
      <trkpt lat="49.33319" lon="1.02894">
        <ele>125.24168395996</ele>
        <time>2017-04-09T08:28:28.000Z</time>
      </trkpt>
      <trkpt lat="49.33331" lon="1.02884">
        <ele>124.91847991943</ele>
        <time>2017-04-09T08:28:30.000Z</time>
      </trkpt>
      <trkpt lat="49.33342" lon="1.02872">
        <ele>124.61163330078</ele>
        <time>2017-04-09T08:28:32.000Z</time>
      </trkpt>
      <trkpt lat="49.33359" lon="1.02856">
        <ele>124.24688720703</ele>
        <time>2017-04-09T08:28:35.000Z</time>
      </trkpt>
      <trkpt lat="49.33375" lon="1.02842">
        <ele>123.86340332031</ele>
        <time>2017-04-09T08:28:38.000Z</time>
      </trkpt>
      <trkpt lat="49.33385" lon="1.02831">
        <ele>123.45429992676</ele>
        <time>2017-04-09T08:28:40.000Z</time>
      </trkpt>
      <trkpt lat="49.33397" lon="1.0282">
        <ele>122.94763183594</ele>
        <time>2017-04-09T08:28:42.000Z</time>
      </trkpt>
      <trkpt lat="49.33412" lon="1.02803">
        <ele>122.36639404297</ele>
        <time>2017-04-09T08:28:45.000Z</time>
      </trkpt>
      <trkpt lat="49.33427" lon="1.0279">
        <ele>121.88055419922</ele>
        <time>2017-04-09T08:28:48.000Z</time>
      </trkpt>
      <trkpt lat="49.33437" lon="1.02781">
        <ele>121.52668762207</ele>
        <time>2017-04-09T08:28:50.000Z</time>
      </trkpt>
      <trkpt lat="49.3345" lon="1.02765">
        <ele>121.27745056152</ele>
        <time>2017-04-09T08:28:53.000Z</time>
      </trkpt>
      <trkpt lat="49.33462" lon="1.02757">
        <ele>121.18985748291</ele>
        <time>2017-04-09T08:28:55.000Z</time>
      </trkpt>
      <trkpt lat="49.33471" lon="1.02748">
        <ele>121.29196929932</ele>
        <time>2017-04-09T08:28:57.000Z</time>
      </trkpt>
      <trkpt lat="49.33479" lon="1.02739">
        <ele>121.47338867188</ele>
        <time>2017-04-09T08:28:59.000Z</time>
      </trkpt>
      <trkpt lat="49.3349" lon="1.0273">
        <ele>121.69144439697</ele>
        <time>2017-04-09T08:29:01.000Z</time>
        <extensions>
          <gpxtpx:TrackPointExtension xmlns:gpxtpx="http://www.garmin.com/xmlschemas/TrackPointExtension/v1">
            <gpxtpx:hr>143</gpxtpx:hr>
          </gpxtpx:TrackPointExtension>
        </extensions>
      </trkpt>
      <trkpt lat="49.33505" lon="1.02715">
        <ele>121.93227386475</ele>
        <time>2017-04-09T08:29:04.000Z</time>
        <extensions>
          <gpxtpx:TrackPointExtension xmlns:gpxtpx="http://www.garmin.com/xmlschemas/TrackPointExtension/v1">
            <gpxtpx:hr>143</gpxtpx:hr>
          </gpxtpx:TrackPointExtension>
        </extensions>
      </trkpt>
      <trkpt lat="49.33515" lon="1.02707">
        <ele>122.16204833984</ele>
        <time>2017-04-09T08:29:06.000Z</time>
        <extensions>
          <gpxtpx:TrackPointExtension xmlns:gpxtpx="http://www.garmin.com/xmlschemas/TrackPointExtension/v1">
            <gpxtpx:hr>144</gpxtpx:hr>
          </gpxtpx:TrackPointExtension>
        </extensions>
      </trkpt>
      <trkpt lat="49.3353" lon="1.02694">
        <ele>122.38397216797</ele>
        <time>2017-04-09T08:29:09.000Z</time>
        <extensions>
          <gpxtpx:TrackPointExtension xmlns:gpxtpx="http://www.garmin.com/xmlschemas/TrackPointExtension/v1">
            <gpxtpx:hr>145</gpxtpx:hr>
          </gpxtpx:TrackPointExtension>
        </extensions>
      </trkpt>
      <trkpt lat="49.33544" lon="1.0268">
        <ele>122.58653259277</ele>
        <time>2017-04-09T08:29:12.000Z</time>
        <extensions>
          <gpxtpx:TrackPointExtension xmlns:gpxtpx="http://www.garmin.com/xmlschemas/TrackPointExtension/v1">
            <gpxtpx:hr>145</gpxtpx:hr>
          </gpxtpx:TrackPointExtension>
        </extensions>
      </trkpt>
      <trkpt lat="49.33553" lon="1.0267">
        <ele>122.75286865234</ele>
        <time>2017-04-09T08:29:14.000Z</time>
        <extensions>
          <gpxtpx:TrackPointExtension xmlns:gpxtpx="http://www.garmin.com/xmlschemas/TrackPointExtension/v1">
            <gpxtpx:hr>145</gpxtpx:hr>
          </gpxtpx:TrackPointExtension>
        </extensions>
      </trkpt>
      <trkpt lat="49.33568" lon="1.02657">
        <ele>122.88482666016</ele>
        <time>2017-04-09T08:29:17.000Z</time>
        <extensions>
          <gpxtpx:TrackPointExtension xmlns:gpxtpx="http://www.garmin.com/xmlschemas/TrackPointExtension/v1">
            <gpxtpx:hr>143</gpxtpx:hr>
          </gpxtpx:TrackPointExtension>
        </extensions>
      </trkpt>
      <trkpt lat="49.33582" lon="1.02643">
        <ele>123.02172851562</ele>
        <time>2017-04-09T08:29:20.000Z</time>
        <extensions>
          <gpxtpx:TrackPointExtension xmlns:gpxtpx="http://www.garmin.com/xmlschemas/TrackPointExtension/v1">
            <gpxtpx:hr>139</gpxtpx:hr>
          </gpxtpx:TrackPointExtension>
        </extensions>
      </trkpt>
      <trkpt lat="49.33593" lon="1.02635">
        <ele>123.1566619873</ele>
        <time>2017-04-09T08:29:22.000Z</time>
        <extensions>
          <gpxtpx:TrackPointExtension xmlns:gpxtpx="http://www.garmin.com/xmlschemas/TrackPointExtension/v1">
            <gpxtpx:hr>137</gpxtpx:hr>
          </gpxtpx:TrackPointExtension>
        </extensions>
      </trkpt>
      <trkpt lat="49.33603" lon="1.02626">
        <ele>123.31571960449</ele>
        <time>2017-04-09T08:29:24.000Z</time>
      </trkpt>
      <trkpt lat="49.33615" lon="1.02613">
        <ele>123.54832458496</ele>
        <time>2017-04-09T08:29:27.000Z</time>
      </trkpt>
      <trkpt lat="49.33629" lon="1.02607">
        <ele>123.82362365723</ele>
        <time>2017-04-09T08:29:30.000Z</time>
      </trkpt>
      <trkpt lat="49.33641" lon="1.02609">
        <ele>124.09511566162</ele>
        <time>2017-04-09T08:29:33.000Z</time>
      </trkpt>
      <trkpt lat="49.33646" lon="1.02619">
        <ele>124.28985595703</ele>
        <time>2017-04-09T08:29:35.000Z</time>
      </trkpt>
      <trkpt lat="49.33654" lon="1.02633">
        <ele>124.36212158203</ele>
        <time>2017-04-09T08:29:38.000Z</time>
      </trkpt>
      <trkpt lat="49.33659" lon="1.02644">
        <ele>124.28486633301</ele>
        <time>2017-04-09T08:29:40.000Z</time>
      </trkpt>
      <trkpt lat="49.33665" lon="1.02658">
        <ele>124.05141448975</ele>
        <time>2017-04-09T08:29:43.000Z</time>
      </trkpt>
      <trkpt lat="49.3367" lon="1.02666">
        <ele>123.71772766113</ele>
        <time>2017-04-09T08:29:45.000Z</time>
      </trkpt>
      <trkpt lat="49.33675" lon="1.02675">
        <ele>123.37284851074</ele>
        <time>2017-04-09T08:29:47.000Z</time>
      </trkpt>
      <trkpt lat="49.33683" lon="1.02689">
        <ele>123.01937103271</ele>
        <time>2017-04-09T08:29:50.000Z</time>
      </trkpt>
      <trkpt lat="49.33691" lon="1.02705">
        <ele>122.65061950684</ele>
        <time>2017-04-09T08:29:53.000Z</time>
      </trkpt>
      <trkpt lat="49.33701" lon="1.02724">
        <ele>122.28536224365</ele>
        <time>2017-04-09T08:29:56.000Z</time>
      </trkpt>
      <trkpt lat="49.3371" lon="1.02737">
        <ele>121.9347076416</ele>
        <time>2017-04-09T08:29:58.000Z</time>
      </trkpt>
      <trkpt lat="49.33716" lon="1.02752">
        <ele>121.58371734619</ele>
        <time>2017-04-09T08:30:00.000Z</time>
        <extensions>
          <gpxtpx:TrackPointExtension xmlns:gpxtpx="http://www.garmin.com/xmlschemas/TrackPointExtension/v1">
            <gpxtpx:hr>133</gpxtpx:hr>
          </gpxtpx:TrackPointExtension>
        </extensions>
      </trkpt>
      <trkpt lat="49.33723" lon="1.02764">
        <ele>121.26496887207</ele>
        <time>2017-04-09T08:30:02.000Z</time>
        <extensions>
          <gpxtpx:TrackPointExtension xmlns:gpxtpx="http://www.garmin.com/xmlschemas/TrackPointExtension/v1">
            <gpxtpx:hr>133</gpxtpx:hr>
          </gpxtpx:TrackPointExtension>
        </extensions>
      </trkpt>
      <trkpt lat="49.33733" lon="1.02782">
        <ele>120.942527771</ele>
        <time>2017-04-09T08:30:05.000Z</time>
        <extensions>
          <gpxtpx:TrackPointExtension xmlns:gpxtpx="http://www.garmin.com/xmlschemas/TrackPointExtension/v1">
            <gpxtpx:hr>131</gpxtpx:hr>
          </gpxtpx:TrackPointExtension>
        </extensions>
      </trkpt>
      <trkpt lat="49.33743" lon="1.02804">
        <ele>120.59580993652</ele>
        <time>2017-04-09T08:30:08.000Z</time>
        <extensions>
          <gpxtpx:TrackPointExtension xmlns:gpxtpx="http://www.garmin.com/xmlschemas/TrackPointExtension/v1">
            <gpxtpx:hr>132</gpxtpx:hr>
          </gpxtpx:TrackPointExtension>
        </extensions>
      </trkpt>
      <trkpt lat="49.33749" lon="1.02818">
        <ele>120.22721099854</ele>
        <time>2017-04-09T08:30:10.000Z</time>
        <extensions>
          <gpxtpx:TrackPointExtension xmlns:gpxtpx="http://www.garmin.com/xmlschemas/TrackPointExtension/v1">
            <gpxtpx:hr>130</gpxtpx:hr>
          </gpxtpx:TrackPointExtension>
        </extensions>
      </trkpt>
      <trkpt lat="49.33759" lon="1.0284">
        <ele>119.81730651855</ele>
        <time>2017-04-09T08:30:13.000Z</time>
        <extensions>
          <gpxtpx:TrackPointExtension xmlns:gpxtpx="http://www.garmin.com/xmlschemas/TrackPointExtension/v1">
            <gpxtpx:hr>125</gpxtpx:hr>
          </gpxtpx:TrackPointExtension>
        </extensions>
      </trkpt>
      <trkpt lat="49.33765" lon="1.02853">
        <ele>119.45436859131</ele>
        <time>2017-04-09T08:30:15.000Z</time>
        <extensions>
          <gpxtpx:TrackPointExtension xmlns:gpxtpx="http://www.garmin.com/xmlschemas/TrackPointExtension/v1">
            <gpxtpx:hr>132</gpxtpx:hr>
          </gpxtpx:TrackPointExtension>
        </extensions>
      </trkpt>
      <trkpt lat="49.33774" lon="1.02877">
        <ele>119.19535827637</ele>
        <time>2017-04-09T08:30:18.000Z</time>
        <extensions>
          <gpxtpx:TrackPointExtension xmlns:gpxtpx="http://www.garmin.com/xmlschemas/TrackPointExtension/v1">
            <gpxtpx:hr>134</gpxtpx:hr>
          </gpxtpx:TrackPointExtension>
        </extensions>
      </trkpt>
      <trkpt lat="49.33787" lon="1.02894">
        <ele>119.08158111572</ele>
        <time>2017-04-09T08:30:21.000Z</time>
        <extensions>
          <gpxtpx:TrackPointExtension xmlns:gpxtpx="http://www.garmin.com/xmlschemas/TrackPointExtension/v1">
            <gpxtpx:hr>134</gpxtpx:hr>
          </gpxtpx:TrackPointExtension>
        </extensions>
      </trkpt>
      <trkpt lat="49.33794" lon="1.02905">
        <ele>119.08168792725</ele>
        <time>2017-04-09T08:30:23.000Z</time>
      </trkpt>
      <trkpt lat="49.33804" lon="1.02924">
        <ele>119.29182434082</ele>
        <time>2017-04-09T08:30:26.000Z</time>
      </trkpt>
      <trkpt lat="49.33811" lon="1.02937">
        <ele>119.64886474609</ele>
        <time>2017-04-09T08:30:28.000Z</time>
      </trkpt>
      <trkpt lat="49.3382" lon="1.02949">
        <ele>120.15625</ele>
        <time>2017-04-09T08:30:30.000Z</time>
      </trkpt>
      <trkpt lat="49.3383" lon="1.02971">
        <ele>120.94026947021</ele>
        <time>2017-04-09T08:30:33.000Z</time>
      </trkpt>
      <trkpt lat="49.33835" lon="1.02985">
        <ele>121.9136505127</ele>
        <time>2017-04-09T08:30:35.000Z</time>
      </trkpt>
      <trkpt lat="49.33841" lon="1.03002">
        <ele>123.12138366699</ele>
        <time>2017-04-09T08:30:38.000Z</time>
      </trkpt>
      <trkpt lat="49.33844" lon="1.03013">
        <ele>124.38195800781</ele>
        <time>2017-04-09T08:30:41.000Z</time>
      </trkpt>
      <trkpt lat="49.33849" lon="1.03024">
        <ele>125.71092224121</ele>
        <time>2017-04-09T08:30:44.000Z</time>
      </trkpt>
      <trkpt lat="49.33853" lon="1.03033">
        <ele>126.9295425415</ele>
        <time>2017-04-09T08:30:47.000Z</time>
      </trkpt>
      <trkpt lat="49.33856" lon="1.03044">
        <ele>128.12026977539</ele>
        <time>2017-04-09T08:30:50.000Z</time>
      </trkpt>
      <trkpt lat="49.3386" lon="1.03053">
        <ele>129.13157653809</ele>
        <time>2017-04-09T08:30:53.000Z</time>
      </trkpt>
      <trkpt lat="49.33862" lon="1.03061">
        <ele>130.06686401367</ele>
        <time>2017-04-09T08:30:55.000Z</time>
      </trkpt>
      <trkpt lat="49.3386" lon="1.03069">
        <ele>130.84133911133</ele>
        <time>2017-04-09T08:30:57.000Z</time>
      </trkpt>
      <trkpt lat="49.33858" lon="1.03077">
        <ele>131.48246765137</ele>
        <time>2017-04-09T08:30:59.000Z</time>
      </trkpt>
      <trkpt lat="49.33856" lon="1.03083">
        <ele>131.96882629395</ele>
        <time>2017-04-09T08:31:02.000Z</time>
        <extensions>
          <gpxtpx:TrackPointExtension xmlns:gpxtpx="http://www.garmin.com/xmlschemas/TrackPointExtension/v1">
            <gpxtpx:hr>131</gpxtpx:hr>
          </gpxtpx:TrackPointExtension>
        </extensions>
      </trkpt>
      <trkpt lat="49.33852" lon="1.03083">
        <ele>132.21520996094</ele>
        <time>2017-04-09T08:31:05.000Z</time>
        <extensions>
          <gpxtpx:TrackPointExtension xmlns:gpxtpx="http://www.garmin.com/xmlschemas/TrackPointExtension/v1">
            <gpxtpx:hr>132</gpxtpx:hr>
          </gpxtpx:TrackPointExtension>
        </extensions>
      </trkpt>
      <trkpt lat="49.3385" lon="1.03087">
        <ele>132.33032226562</ele>
        <time>2017-04-09T08:31:16.000Z</time>
        <extensions>
          <gpxtpx:TrackPointExtension xmlns:gpxtpx="http://www.garmin.com/xmlschemas/TrackPointExtension/v1">
            <gpxtpx:hr>133</gpxtpx:hr>
          </gpxtpx:TrackPointExtension>
        </extensions>
      </trkpt>
      <trkpt lat="49.33851" lon="1.03087">
        <ele>132.38500976562</ele>
        <time>2017-04-09T08:31:36.000Z</time>
        <extensions>
          <gpxtpx:TrackPointExtension xmlns:gpxtpx="http://www.garmin.com/xmlschemas/TrackPointExtension/v1">
            <gpxtpx:hr>130</gpxtpx:hr>
          </gpxtpx:TrackPointExtension>
        </extensions>
      </trkpt>
      <trkpt lat="49.33851" lon="1.03089">
        <ele>132.38725280762</ele>
        <time>2017-04-09T08:31:39.000Z</time>
        <extensions>
          <gpxtpx:TrackPointExtension xmlns:gpxtpx="http://www.garmin.com/xmlschemas/TrackPointExtension/v1">
            <gpxtpx:hr>127</gpxtpx:hr>
          </gpxtpx:TrackPointExtension>
        </extensions>
      </trkpt>
      <trkpt lat="49.33852" lon="1.03096">
        <ele>132.38500976562</ele>
        <time>2017-04-09T08:31:42.000Z</time>
        <extensions>
          <gpxtpx:TrackPointExtension xmlns:gpxtpx="http://www.garmin.com/xmlschemas/TrackPointExtension/v1">
            <gpxtpx:hr>128</gpxtpx:hr>
          </gpxtpx:TrackPointExtension>
        </extensions>
      </trkpt>
      <trkpt lat="49.3385" lon="1.03105">
        <ele>132.46206665039</ele>
        <time>2017-04-09T08:31:44.000Z</time>
        <extensions>
          <gpxtpx:TrackPointExtension xmlns:gpxtpx="http://www.garmin.com/xmlschemas/TrackPointExtension/v1">
            <gpxtpx:hr>125</gpxtpx:hr>
          </gpxtpx:TrackPointExtension>
        </extensions>
      </trkpt>
      <trkpt lat="49.33844" lon="1.03123">
        <ele>132.54231262207</ele>
        <time>2017-04-09T08:31:47.000Z</time>
        <extensions>
          <gpxtpx:TrackPointExtension xmlns:gpxtpx="http://www.garmin.com/xmlschemas/TrackPointExtension/v1">
            <gpxtpx:hr>123</gpxtpx:hr>
          </gpxtpx:TrackPointExtension>
        </extensions>
      </trkpt>
      <trkpt lat="49.33837" lon="1.03137">
        <ele>132.58020019531</ele>
        <time>2017-04-09T08:31:50.000Z</time>
      </trkpt>
      <trkpt lat="49.33829" lon="1.03162">
        <ele>132.5863494873</ele>
        <time>2017-04-09T08:31:53.000Z</time>
      </trkpt>
      <trkpt lat="49.33825" lon="1.03174">
        <ele>132.5139465332</ele>
        <time>2017-04-09T08:31:55.000Z</time>
      </trkpt>
      <trkpt lat="49.33821" lon="1.03189">
        <ele>132.42352294922</ele>
        <time>2017-04-09T08:31:57.000Z</time>
      </trkpt>
      <trkpt lat="49.33816" lon="1.0321">
        <ele>132.30651855469</ele>
        <time>2017-04-09T08:32:00.000Z</time>
        <extensions>
          <gpxtpx:TrackPointExtension xmlns:gpxtpx="http://www.garmin.com/xmlschemas/TrackPointExtension/v1">
            <gpxtpx:hr>125</gpxtpx:hr>
          </gpxtpx:TrackPointExtension>
        </extensions>
      </trkpt>
      <trkpt lat="49.33815" lon="1.03228">
        <ele>132.26890563965</ele>
        <time>2017-04-09T08:32:02.000Z</time>
        <extensions>
          <gpxtpx:TrackPointExtension xmlns:gpxtpx="http://www.garmin.com/xmlschemas/TrackPointExtension/v1">
            <gpxtpx:hr>127</gpxtpx:hr>
          </gpxtpx:TrackPointExtension>
        </extensions>
      </trkpt>
      <trkpt lat="49.33814" lon="1.03241">
        <ele>132.26670837402</ele>
        <time>2017-04-09T08:32:04.000Z</time>
        <extensions>
          <gpxtpx:TrackPointExtension xmlns:gpxtpx="http://www.garmin.com/xmlschemas/TrackPointExtension/v1">
            <gpxtpx:hr>131</gpxtpx:hr>
          </gpxtpx:TrackPointExtension>
        </extensions>
      </trkpt>
      <trkpt lat="49.33816" lon="1.03264">
        <ele>132.37118530273</ele>
        <time>2017-04-09T08:32:07.000Z</time>
        <extensions>
          <gpxtpx:TrackPointExtension xmlns:gpxtpx="http://www.garmin.com/xmlschemas/TrackPointExtension/v1">
            <gpxtpx:hr>135</gpxtpx:hr>
          </gpxtpx:TrackPointExtension>
        </extensions>
      </trkpt>
      <trkpt lat="49.33812" lon="1.03279">
        <ele>132.44033813477</ele>
        <time>2017-04-09T08:32:09.000Z</time>
        <extensions>
          <gpxtpx:TrackPointExtension xmlns:gpxtpx="http://www.garmin.com/xmlschemas/TrackPointExtension/v1">
            <gpxtpx:hr>140</gpxtpx:hr>
          </gpxtpx:TrackPointExtension>
        </extensions>
      </trkpt>
      <trkpt lat="49.33812" lon="1.03293">
        <ele>132.55032348633</ele>
        <time>2017-04-09T08:32:11.000Z</time>
        <extensions>
          <gpxtpx:TrackPointExtension xmlns:gpxtpx="http://www.garmin.com/xmlschemas/TrackPointExtension/v1">
            <gpxtpx:hr>144</gpxtpx:hr>
          </gpxtpx:TrackPointExtension>
        </extensions>
      </trkpt>
      <trkpt lat="49.33814" lon="1.03311">
        <ele>132.6416015625</ele>
        <time>2017-04-09T08:32:14.000Z</time>
        <extensions>
          <gpxtpx:TrackPointExtension xmlns:gpxtpx="http://www.garmin.com/xmlschemas/TrackPointExtension/v1">
            <gpxtpx:hr>144</gpxtpx:hr>
          </gpxtpx:TrackPointExtension>
        </extensions>
      </trkpt>
      <trkpt lat="49.33818" lon="1.03324">
        <ele>132.76864624023</ele>
        <time>2017-04-09T08:32:17.000Z</time>
        <extensions>
          <gpxtpx:TrackPointExtension xmlns:gpxtpx="http://www.garmin.com/xmlschemas/TrackPointExtension/v1">
            <gpxtpx:hr>147</gpxtpx:hr>
          </gpxtpx:TrackPointExtension>
        </extensions>
      </trkpt>
      <trkpt lat="49.33828" lon="1.03333">
        <ele>132.95455932617</ele>
        <time>2017-04-09T08:32:20.000Z</time>
      </trkpt>
      <trkpt lat="49.33841" lon="1.03338">
        <ele>133.35466003418</ele>
        <time>2017-04-09T08:32:23.000Z</time>
      </trkpt>
      <trkpt lat="49.33848" lon="1.0334">
        <ele>133.84896850586</ele>
        <time>2017-04-09T08:32:25.000Z</time>
      </trkpt>
      <trkpt lat="49.33855" lon="1.03342">
        <ele>134.39511108398</ele>
        <time>2017-04-09T08:32:27.000Z</time>
      </trkpt>
      <trkpt lat="49.33865" lon="1.03345">
        <ele>135.01715087891</ele>
        <time>2017-04-09T08:32:30.000Z</time>
      </trkpt>
      <trkpt lat="49.33871" lon="1.03347">
        <ele>135.59394836426</ele>
        <time>2017-04-09T08:32:32.000Z</time>
      </trkpt>
      <trkpt lat="49.33881" lon="1.03353">
        <ele>136.10525512695</ele>
        <time>2017-04-09T08:32:35.000Z</time>
      </trkpt>
      <trkpt lat="49.33887" lon="1.03357">
        <ele>136.57725524902</ele>
        <time>2017-04-09T08:32:37.000Z</time>
      </trkpt>
      <trkpt lat="49.33894" lon="1.0336">
        <ele>137.01748657227</ele>
        <time>2017-04-09T08:32:39.000Z</time>
      </trkpt>
      <trkpt lat="49.33902" lon="1.03363">
        <ele>137.40139770508</ele>
        <time>2017-04-09T08:32:41.000Z</time>
      </trkpt>
      <trkpt lat="49.33911" lon="1.03368">
        <ele>137.77725219727</ele>
        <time>2017-04-09T08:32:44.000Z</time>
      </trkpt>
      <trkpt lat="49.33923" lon="1.03374">
        <ele>138.08274841309</ele>
        <time>2017-04-09T08:32:47.000Z</time>
      </trkpt>
      <trkpt lat="49.33934" lon="1.03379">
        <ele>138.32717895508</ele>
        <time>2017-04-09T08:32:50.000Z</time>
      </trkpt>
      <trkpt lat="49.33944" lon="1.03381">
        <ele>138.5298614502</ele>
        <time>2017-04-09T08:32:53.000Z</time>
      </trkpt>
      <trkpt lat="49.33952" lon="1.03383">
        <ele>138.66630554199</ele>
        <time>2017-04-09T08:32:56.000Z</time>
      </trkpt>
      <trkpt lat="49.3396" lon="1.03387">
        <ele>138.72219848633</ele>
        <time>2017-04-09T08:32:58.000Z</time>
      </trkpt>
      <trkpt lat="49.33972" lon="1.03393">
        <ele>138.73014831543</ele>
        <time>2017-04-09T08:33:01.000Z</time>
        <extensions>
          <gpxtpx:TrackPointExtension xmlns:gpxtpx="http://www.garmin.com/xmlschemas/TrackPointExtension/v1">
            <gpxtpx:hr>148</gpxtpx:hr>
          </gpxtpx:TrackPointExtension>
        </extensions>
      </trkpt>
      <trkpt lat="49.33981" lon="1.03396">
        <ele>138.74154663086</ele>
        <time>2017-04-09T08:33:03.000Z</time>
        <extensions>
          <gpxtpx:TrackPointExtension xmlns:gpxtpx="http://www.garmin.com/xmlschemas/TrackPointExtension/v1">
            <gpxtpx:hr>148</gpxtpx:hr>
          </gpxtpx:TrackPointExtension>
        </extensions>
      </trkpt>
      <trkpt lat="49.33989" lon="1.034">
        <ele>138.72598266602</ele>
        <time>2017-04-09T08:33:05.000Z</time>
        <extensions>
          <gpxtpx:TrackPointExtension xmlns:gpxtpx="http://www.garmin.com/xmlschemas/TrackPointExtension/v1">
            <gpxtpx:hr>147</gpxtpx:hr>
          </gpxtpx:TrackPointExtension>
        </extensions>
      </trkpt>
      <trkpt lat="49.34001" lon="1.03406">
        <ele>138.66749572754</ele>
        <time>2017-04-09T08:33:08.000Z</time>
      </trkpt>
      <trkpt lat="49.34008" lon="1.03408">
        <ele>138.59719848633</ele>
        <time>2017-04-09T08:33:10.000Z</time>
        <extensions>
          <gpxtpx:TrackPointExtension xmlns:gpxtpx="http://www.garmin.com/xmlschemas/TrackPointExtension/v1">
            <gpxtpx:hr>145</gpxtpx:hr>
          </gpxtpx:TrackPointExtension>
        </extensions>
      </trkpt>
      <trkpt lat="49.34016" lon="1.03411">
        <ele>138.51147460938</ele>
        <time>2017-04-09T08:33:12.000Z</time>
        <extensions>
          <gpxtpx:TrackPointExtension xmlns:gpxtpx="http://www.garmin.com/xmlschemas/TrackPointExtension/v1">
            <gpxtpx:hr>144</gpxtpx:hr>
          </gpxtpx:TrackPointExtension>
        </extensions>
      </trkpt>
      <trkpt lat="49.34028" lon="1.03418">
        <ele>138.36782836914</ele>
        <time>2017-04-09T08:33:15.000Z</time>
        <extensions>
          <gpxtpx:TrackPointExtension xmlns:gpxtpx="http://www.garmin.com/xmlschemas/TrackPointExtension/v1">
            <gpxtpx:hr>140</gpxtpx:hr>
          </gpxtpx:TrackPointExtension>
        </extensions>
      </trkpt>
      <trkpt lat="49.34038" lon="1.03425">
        <ele>138.24459838867</ele>
        <time>2017-04-09T08:33:18.000Z</time>
        <extensions>
          <gpxtpx:TrackPointExtension xmlns:gpxtpx="http://www.garmin.com/xmlschemas/TrackPointExtension/v1">
            <gpxtpx:hr>140</gpxtpx:hr>
          </gpxtpx:TrackPointExtension>
        </extensions>
      </trkpt>
      <trkpt lat="49.3405" lon="1.03431">
        <ele>138.16540527344</ele>
        <time>2017-04-09T08:33:21.000Z</time>
      </trkpt>
      <trkpt lat="49.34058" lon="1.03435">
        <ele>138.11520385742</ele>
        <time>2017-04-09T08:33:23.000Z</time>
      </trkpt>
      <trkpt lat="49.34066" lon="1.0344">
        <ele>138.1071472168</ele>
        <time>2017-04-09T08:33:25.000Z</time>
      </trkpt>
      <trkpt lat="49.34075" lon="1.03445">
        <ele>138.16682434082</ele>
        <time>2017-04-09T08:33:28.000Z</time>
      </trkpt>
      <trkpt lat="49.34086" lon="1.03449">
        <ele>138.21249389648</ele>
        <time>2017-04-09T08:33:31.000Z</time>
      </trkpt>
      <trkpt lat="49.34098" lon="1.03454">
        <ele>138.15756225586</ele>
        <time>2017-04-09T08:33:34.000Z</time>
      </trkpt>
      <trkpt lat="49.34109" lon="1.03459">
        <ele>138.01300048828</ele>
        <time>2017-04-09T08:33:37.000Z</time>
      </trkpt>
      <trkpt lat="49.34118" lon="1.03461">
        <ele>137.78587341309</ele>
        <time>2017-04-09T08:33:39.000Z</time>
      </trkpt>
      <trkpt lat="49.34132" lon="1.03466">
        <ele>137.4232635498</ele>
        <time>2017-04-09T08:33:42.000Z</time>
      </trkpt>
      <trkpt lat="49.34145" lon="1.03473">
        <ele>136.95487976074</ele>
        <time>2017-04-09T08:33:45.000Z</time>
      </trkpt>
      <trkpt lat="49.34152" lon="1.03476">
        <ele>136.51942443848</ele>
        <time>2017-04-09T08:33:47.000Z</time>
      </trkpt>
      <trkpt lat="49.34161" lon="1.0348">
        <ele>136.08871459961</ele>
        <time>2017-04-09T08:33:49.000Z</time>
      </trkpt>
      <trkpt lat="49.34168" lon="1.03484">
        <ele>135.64205932617</ele>
        <time>2017-04-09T08:33:51.000Z</time>
      </trkpt>
      <trkpt lat="49.34181" lon="1.03491">
        <ele>135.09762573242</ele>
        <time>2017-04-09T08:33:54.000Z</time>
      </trkpt>
      <trkpt lat="49.34193" lon="1.03498">
        <ele>134.45608520508</ele>
        <time>2017-04-09T08:33:57.000Z</time>
      </trkpt>
      <trkpt lat="49.34206" lon="1.03502">
        <ele>133.66703796387</ele>
        <time>2017-04-09T08:34:00.000Z</time>
        <extensions>
          <gpxtpx:TrackPointExtension xmlns:gpxtpx="http://www.garmin.com/xmlschemas/TrackPointExtension/v1">
            <gpxtpx:hr>143</gpxtpx:hr>
          </gpxtpx:TrackPointExtension>
        </extensions>
      </trkpt>
      <trkpt lat="49.3422" lon="1.03505">
        <ele>132.7544708252</ele>
        <time>2017-04-09T08:34:03.000Z</time>
        <extensions>
          <gpxtpx:TrackPointExtension xmlns:gpxtpx="http://www.garmin.com/xmlschemas/TrackPointExtension/v1">
            <gpxtpx:hr>146</gpxtpx:hr>
          </gpxtpx:TrackPointExtension>
        </extensions>
      </trkpt>
      <trkpt lat="49.34228" lon="1.03508">
        <ele>131.80958557129</ele>
        <time>2017-04-09T08:34:05.000Z</time>
        <extensions>
          <gpxtpx:TrackPointExtension xmlns:gpxtpx="http://www.garmin.com/xmlschemas/TrackPointExtension/v1">
            <gpxtpx:hr>145</gpxtpx:hr>
          </gpxtpx:TrackPointExtension>
        </extensions>
      </trkpt>
      <trkpt lat="49.3424" lon="1.03513">
        <ele>130.91743469238</ele>
        <time>2017-04-09T08:34:08.000Z</time>
        <extensions>
          <gpxtpx:TrackPointExtension xmlns:gpxtpx="http://www.garmin.com/xmlschemas/TrackPointExtension/v1">
            <gpxtpx:hr>143</gpxtpx:hr>
          </gpxtpx:TrackPointExtension>
        </extensions>
      </trkpt>
      <trkpt lat="49.34247" lon="1.03516">
        <ele>130.13549804688</ele>
        <time>2017-04-09T08:34:11.000Z</time>
        <extensions>
          <gpxtpx:TrackPointExtension xmlns:gpxtpx="http://www.garmin.com/xmlschemas/TrackPointExtension/v1">
            <gpxtpx:hr>141</gpxtpx:hr>
          </gpxtpx:TrackPointExtension>
        </extensions>
      </trkpt>
      <trkpt lat="49.34255" lon="1.03519">
        <ele>129.5198059082</ele>
        <time>2017-04-09T08:34:14.000Z</time>
        <extensions>
          <gpxtpx:TrackPointExtension xmlns:gpxtpx="http://www.garmin.com/xmlschemas/TrackPointExtension/v1">
            <gpxtpx:hr>136</gpxtpx:hr>
          </gpxtpx:TrackPointExtension>
        </extensions>
      </trkpt>
      <trkpt lat="49.34264" lon="1.03523">
        <ele>129.12033081055</ele>
        <time>2017-04-09T08:34:17.000Z</time>
        <extensions>
          <gpxtpx:TrackPointExtension xmlns:gpxtpx="http://www.garmin.com/xmlschemas/TrackPointExtension/v1">
            <gpxtpx:hr>133</gpxtpx:hr>
          </gpxtpx:TrackPointExtension>
        </extensions>
      </trkpt>
      <trkpt lat="49.34273" lon="1.03528">
        <ele>128.85757446289</ele>
        <time>2017-04-09T08:34:20.000Z</time>
        <extensions>
          <gpxtpx:TrackPointExtension xmlns:gpxtpx="http://www.garmin.com/xmlschemas/TrackPointExtension/v1">
            <gpxtpx:hr>130</gpxtpx:hr>
          </gpxtpx:TrackPointExtension>
        </extensions>
      </trkpt>
      <trkpt lat="49.3428" lon="1.03532">
        <ele>128.78343200684</ele>
        <time>2017-04-09T08:34:23.000Z</time>
        <extensions>
          <gpxtpx:TrackPointExtension xmlns:gpxtpx="http://www.garmin.com/xmlschemas/TrackPointExtension/v1">
            <gpxtpx:hr>130</gpxtpx:hr>
          </gpxtpx:TrackPointExtension>
        </extensions>
      </trkpt>
      <trkpt lat="49.34286" lon="1.03535">
        <ele>128.82322692871</ele>
        <time>2017-04-09T08:34:25.000Z</time>
        <extensions>
          <gpxtpx:TrackPointExtension xmlns:gpxtpx="http://www.garmin.com/xmlschemas/TrackPointExtension/v1">
            <gpxtpx:hr>129</gpxtpx:hr>
          </gpxtpx:TrackPointExtension>
        </extensions>
      </trkpt>
      <trkpt lat="49.34296" lon="1.03538">
        <ele>128.91012573242</ele>
        <time>2017-04-09T08:34:28.000Z</time>
      </trkpt>
      <trkpt lat="49.34303" lon="1.0354">
        <ele>128.99038696289</ele>
        <time>2017-04-09T08:34:30.000Z</time>
      </trkpt>
      <trkpt lat="49.34314" lon="1.03543">
        <ele>129.06663513184</ele>
        <time>2017-04-09T08:34:33.000Z</time>
      </trkpt>
      <trkpt lat="49.34328" lon="1.03553">
        <ele>129.19422912598</ele>
        <time>2017-04-09T08:34:36.000Z</time>
      </trkpt>
      <trkpt lat="49.3434" lon="1.0356">
        <ele>129.34294128418</ele>
        <time>2017-04-09T08:34:38.000Z</time>
      </trkpt>
      <trkpt lat="49.34353" lon="1.03568">
        <ele>129.49304199219</ele>
        <time>2017-04-09T08:34:41.000Z</time>
      </trkpt>
      <trkpt lat="49.34366" lon="1.03573">
        <ele>129.62683105469</ele>
        <time>2017-04-09T08:34:43.000Z</time>
      </trkpt>
      <trkpt lat="49.34382" lon="1.0358">
        <ele>129.72734069824</ele>
        <time>2017-04-09T08:34:46.000Z</time>
      </trkpt>
      <trkpt lat="49.34391" lon="1.03585">
        <ele>129.76306152344</ele>
        <time>2017-04-09T08:34:48.000Z</time>
      </trkpt>
      <trkpt lat="49.34404" lon="1.03591">
        <ele>129.78344726562</ele>
        <time>2017-04-09T08:34:51.000Z</time>
      </trkpt>
      <trkpt lat="49.34416" lon="1.03596">
        <ele>129.80513000488</ele>
        <time>2017-04-09T08:34:54.000Z</time>
      </trkpt>
      <trkpt lat="49.34427" lon="1.03602">
        <ele>129.84001159668</ele>
        <time>2017-04-09T08:34:57.000Z</time>
      </trkpt>
      <trkpt lat="49.34443" lon="1.03608">
        <ele>129.84761047363</ele>
        <time>2017-04-09T08:35:00.000Z</time>
        <extensions>
          <gpxtpx:TrackPointExtension xmlns:gpxtpx="http://www.garmin.com/xmlschemas/TrackPointExtension/v1">
            <gpxtpx:hr>133</gpxtpx:hr>
          </gpxtpx:TrackPointExtension>
        </extensions>
      </trkpt>
      <trkpt lat="49.3446" lon="1.03615">
        <ele>129.80155944824</ele>
        <time>2017-04-09T08:35:03.000Z</time>
        <extensions>
          <gpxtpx:TrackPointExtension xmlns:gpxtpx="http://www.garmin.com/xmlschemas/TrackPointExtension/v1">
            <gpxtpx:hr>135</gpxtpx:hr>
          </gpxtpx:TrackPointExtension>
        </extensions>
      </trkpt>
      <trkpt lat="49.34471" lon="1.03619">
        <ele>129.69708251953</ele>
        <time>2017-04-09T08:35:05.000Z</time>
        <extensions>
          <gpxtpx:TrackPointExtension xmlns:gpxtpx="http://www.garmin.com/xmlschemas/TrackPointExtension/v1">
            <gpxtpx:hr>135</gpxtpx:hr>
          </gpxtpx:TrackPointExtension>
        </extensions>
      </trkpt>
      <trkpt lat="49.34484" lon="1.03627">
        <ele>129.57595825195</ele>
        <time>2017-04-09T08:35:08.000Z</time>
        <extensions>
          <gpxtpx:TrackPointExtension xmlns:gpxtpx="http://www.garmin.com/xmlschemas/TrackPointExtension/v1">
            <gpxtpx:hr>134</gpxtpx:hr>
          </gpxtpx:TrackPointExtension>
        </extensions>
      </trkpt>
      <trkpt lat="49.34502" lon="1.03637">
        <ele>129.4320526123</ele>
        <time>2017-04-09T08:35:11.000Z</time>
        <extensions>
          <gpxtpx:TrackPointExtension xmlns:gpxtpx="http://www.garmin.com/xmlschemas/TrackPointExtension/v1">
            <gpxtpx:hr>134</gpxtpx:hr>
          </gpxtpx:TrackPointExtension>
        </extensions>
      </trkpt>
      <trkpt lat="49.34517" lon="1.03644">
        <ele>129.41806030273</ele>
        <time>2017-04-09T08:35:14.000Z</time>
        <extensions>
          <gpxtpx:TrackPointExtension xmlns:gpxtpx="http://www.garmin.com/xmlschemas/TrackPointExtension/v1">
            <gpxtpx:hr>132</gpxtpx:hr>
          </gpxtpx:TrackPointExtension>
        </extensions>
      </trkpt>
      <trkpt lat="49.34532" lon="1.0365">
        <ele>129.49668884277</ele>
        <time>2017-04-09T08:35:17.000Z</time>
        <extensions>
          <gpxtpx:TrackPointExtension xmlns:gpxtpx="http://www.garmin.com/xmlschemas/TrackPointExtension/v1">
            <gpxtpx:hr>136</gpxtpx:hr>
          </gpxtpx:TrackPointExtension>
        </extensions>
      </trkpt>
      <trkpt lat="49.34548" lon="1.03657">
        <ele>129.64921569824</ele>
        <time>2017-04-09T08:35:20.000Z</time>
        <extensions>
          <gpxtpx:TrackPointExtension xmlns:gpxtpx="http://www.garmin.com/xmlschemas/TrackPointExtension/v1">
            <gpxtpx:hr>139</gpxtpx:hr>
          </gpxtpx:TrackPointExtension>
        </extensions>
      </trkpt>
      <trkpt lat="49.34566" lon="1.03665">
        <ele>129.81930541992</ele>
        <time>2017-04-09T08:35:23.000Z</time>
      </trkpt>
      <trkpt lat="49.34587" lon="1.03675">
        <ele>129.89918518066</ele>
        <time>2017-04-09T08:35:26.000Z</time>
      </trkpt>
      <trkpt lat="49.34601" lon="1.03681">
        <ele>129.81074523926</ele>
        <time>2017-04-09T08:35:28.000Z</time>
      </trkpt>
      <trkpt lat="49.34624" lon="1.03692">
        <ele>129.5196685791</ele>
        <time>2017-04-09T08:35:31.000Z</time>
      </trkpt>
      <trkpt lat="49.34635" lon="1.03697">
        <ele>129.10980224609</ele>
        <time>2017-04-09T08:35:33.000Z</time>
      </trkpt>
      <trkpt lat="49.34652" lon="1.03703">
        <ele>128.57633972168</ele>
        <time>2017-04-09T08:35:36.000Z</time>
      </trkpt>
      <trkpt lat="49.34665" lon="1.03709">
        <ele>128.04373168945</ele>
        <time>2017-04-09T08:35:38.000Z</time>
      </trkpt>
      <trkpt lat="49.34685" lon="1.03713">
        <ele>127.40981292725</ele>
        <time>2017-04-09T08:35:41.000Z</time>
      </trkpt>
      <trkpt lat="49.34704" lon="1.0371">
        <ele>126.79479980469</ele>
        <time>2017-04-09T08:35:44.000Z</time>
      </trkpt>
      <trkpt lat="49.34719" lon="1.0369">
        <ele>126.23625183105</ele>
        <time>2017-04-09T08:35:47.000Z</time>
      </trkpt>
      <trkpt lat="49.34728" lon="1.03678">
        <ele>125.75577545166</ele>
        <time>2017-04-09T08:35:49.000Z</time>
      </trkpt>
      <trkpt lat="49.34737" lon="1.03666">
        <ele>125.3129119873</ele>
        <time>2017-04-09T08:35:51.000Z</time>
      </trkpt>
      <trkpt lat="49.3475" lon="1.03649">
        <ele>125.1515045166</ele>
        <time>2017-04-09T08:35:54.000Z</time>
      </trkpt>
      <trkpt lat="49.34758" lon="1.03638">
        <ele>125.23044586182</ele>
        <time>2017-04-09T08:35:56.000Z</time>
      </trkpt>
      <trkpt lat="49.34768" lon="1.03622">
        <ele>125.43464660645</ele>
        <time>2017-04-09T08:35:59.000Z</time>
      </trkpt>
      <trkpt lat="49.34777" lon="1.03611">
        <ele>125.69551086426</ele>
        <time>2017-04-09T08:36:01.000Z</time>
        <extensions>
          <gpxtpx:TrackPointExtension xmlns:gpxtpx="http://www.garmin.com/xmlschemas/TrackPointExtension/v1">
            <gpxtpx:hr>139</gpxtpx:hr>
          </gpxtpx:TrackPointExtension>
        </extensions>
      </trkpt>
      <trkpt lat="49.34784" lon="1.036">
        <ele>126.02138519287</ele>
        <time>2017-04-09T08:36:03.000Z</time>
        <extensions>
          <gpxtpx:TrackPointExtension xmlns:gpxtpx="http://www.garmin.com/xmlschemas/TrackPointExtension/v1">
            <gpxtpx:hr>142</gpxtpx:hr>
          </gpxtpx:TrackPointExtension>
        </extensions>
      </trkpt>
      <trkpt lat="49.34795" lon="1.03582">
        <ele>126.22945404053</ele>
        <time>2017-04-09T08:36:06.000Z</time>
        <extensions>
          <gpxtpx:TrackPointExtension xmlns:gpxtpx="http://www.garmin.com/xmlschemas/TrackPointExtension/v1">
            <gpxtpx:hr>141</gpxtpx:hr>
          </gpxtpx:TrackPointExtension>
        </extensions>
      </trkpt>
      <trkpt lat="49.34805" lon="1.03565">
        <ele>126.35473632812</ele>
        <time>2017-04-09T08:36:09.000Z</time>
        <extensions>
          <gpxtpx:TrackPointExtension xmlns:gpxtpx="http://www.garmin.com/xmlschemas/TrackPointExtension/v1">
            <gpxtpx:hr>141</gpxtpx:hr>
          </gpxtpx:TrackPointExtension>
        </extensions>
      </trkpt>
      <trkpt lat="49.34813" lon="1.03549">
        <ele>126.4040145874</ele>
        <time>2017-04-09T08:36:12.000Z</time>
        <extensions>
          <gpxtpx:TrackPointExtension xmlns:gpxtpx="http://www.garmin.com/xmlschemas/TrackPointExtension/v1">
            <gpxtpx:hr>143</gpxtpx:hr>
          </gpxtpx:TrackPointExtension>
        </extensions>
      </trkpt>
      <trkpt lat="49.34824" lon="1.03531">
        <ele>126.41819000244</ele>
        <time>2017-04-09T08:36:15.000Z</time>
        <extensions>
          <gpxtpx:TrackPointExtension xmlns:gpxtpx="http://www.garmin.com/xmlschemas/TrackPointExtension/v1">
            <gpxtpx:hr>141</gpxtpx:hr>
          </gpxtpx:TrackPointExtension>
        </extensions>
      </trkpt>
      <trkpt lat="49.3483" lon="1.03519">
        <ele>126.4193572998</ele>
        <time>2017-04-09T08:36:17.000Z</time>
        <extensions>
          <gpxtpx:TrackPointExtension xmlns:gpxtpx="http://www.garmin.com/xmlschemas/TrackPointExtension/v1">
            <gpxtpx:hr>142</gpxtpx:hr>
          </gpxtpx:TrackPointExtension>
        </extensions>
      </trkpt>
      <trkpt lat="49.34841" lon="1.035">
        <ele>126.52236175537</ele>
        <time>2017-04-09T08:36:20.000Z</time>
        <extensions>
          <gpxtpx:TrackPointExtension xmlns:gpxtpx="http://www.garmin.com/xmlschemas/TrackPointExtension/v1">
            <gpxtpx:hr>140</gpxtpx:hr>
          </gpxtpx:TrackPointExtension>
        </extensions>
      </trkpt>
      <trkpt lat="49.34847" lon="1.03479">
        <ele>126.7142791748</ele>
        <time>2017-04-09T08:36:23.000Z</time>
        <extensions>
          <gpxtpx:TrackPointExtension xmlns:gpxtpx="http://www.garmin.com/xmlschemas/TrackPointExtension/v1">
            <gpxtpx:hr>140</gpxtpx:hr>
          </gpxtpx:TrackPointExtension>
        </extensions>
      </trkpt>
      <trkpt lat="49.34853" lon="1.03465">
        <ele>126.95003509521</ele>
        <time>2017-04-09T08:36:25.000Z</time>
      </trkpt>
      <trkpt lat="49.34861" lon="1.03445">
        <ele>127.27386474609</ele>
        <time>2017-04-09T08:36:28.000Z</time>
      </trkpt>
      <trkpt lat="49.34867" lon="1.03431">
        <ele>127.66389465332</ele>
        <time>2017-04-09T08:36:30.000Z</time>
      </trkpt>
      <trkpt lat="49.34873" lon="1.0341">
        <ele>128.06762695312</ele>
        <time>2017-04-09T08:36:33.000Z</time>
      </trkpt>
      <trkpt lat="49.34881" lon="1.03388">
        <ele>128.44764709473</ele>
        <time>2017-04-09T08:36:36.000Z</time>
      </trkpt>
      <trkpt lat="49.34886" lon="1.03366">
        <ele>128.85716247559</ele>
        <time>2017-04-09T08:36:39.000Z</time>
      </trkpt>
      <trkpt lat="49.34891" lon="1.03351">
        <ele>129.23837280273</ele>
        <time>2017-04-09T08:36:41.000Z</time>
      </trkpt>
      <trkpt lat="49.34898" lon="1.03328">
        <ele>129.58666992188</ele>
        <time>2017-04-09T08:36:44.000Z</time>
      </trkpt>
      <trkpt lat="49.34906" lon="1.03306">
        <ele>129.6944732666</ele>
        <time>2017-04-09T08:36:47.000Z</time>
      </trkpt>
      <trkpt lat="49.34914" lon="1.03281">
        <ele>129.55285644531</ele>
        <time>2017-04-09T08:36:50.000Z</time>
      </trkpt>
      <trkpt lat="49.34922" lon="1.03258">
        <ele>129.22184753418</ele>
        <time>2017-04-09T08:36:53.000Z</time>
      </trkpt>
      <trkpt lat="49.3493" lon="1.03238">
        <ele>128.82211303711</ele>
        <time>2017-04-09T08:36:56.000Z</time>
      </trkpt>
      <trkpt lat="49.34933" lon="1.03225">
        <ele>128.40420532227</ele>
        <time>2017-04-09T08:36:58.000Z</time>
      </trkpt>
      <trkpt lat="49.34941" lon="1.03201">
        <ele>128.13150024414</ele>
        <time>2017-04-09T08:37:01.000Z</time>
        <extensions>
          <gpxtpx:TrackPointExtension xmlns:gpxtpx="http://www.garmin.com/xmlschemas/TrackPointExtension/v1">
            <gpxtpx:hr>142</gpxtpx:hr>
          </gpxtpx:TrackPointExtension>
        </extensions>
      </trkpt>
      <trkpt lat="49.34948" lon="1.03187">
        <ele>128.01965332031</ele>
        <time>2017-04-09T08:37:03.000Z</time>
      </trkpt>
      <trkpt lat="49.34955" lon="1.03163">
        <ele>127.9727935791</ele>
        <time>2017-04-09T08:37:06.000Z</time>
        <extensions>
          <gpxtpx:TrackPointExtension xmlns:gpxtpx="http://www.garmin.com/xmlschemas/TrackPointExtension/v1">
            <gpxtpx:hr>143</gpxtpx:hr>
          </gpxtpx:TrackPointExtension>
        </extensions>
      </trkpt>
      <trkpt lat="49.34962" lon="1.03142">
        <ele>127.78871154785</ele>
        <time>2017-04-09T08:37:09.000Z</time>
        <extensions>
          <gpxtpx:TrackPointExtension xmlns:gpxtpx="http://www.garmin.com/xmlschemas/TrackPointExtension/v1">
            <gpxtpx:hr>145</gpxtpx:hr>
          </gpxtpx:TrackPointExtension>
        </extensions>
      </trkpt>
      <trkpt lat="49.34967" lon="1.03128">
        <ele>127.48903656006</ele>
        <time>2017-04-09T08:37:11.000Z</time>
        <extensions>
          <gpxtpx:TrackPointExtension xmlns:gpxtpx="http://www.garmin.com/xmlschemas/TrackPointExtension/v1">
            <gpxtpx:hr>146</gpxtpx:hr>
          </gpxtpx:TrackPointExtension>
        </extensions>
      </trkpt>
      <trkpt lat="49.34973" lon="1.03115">
        <ele>127.07545471191</ele>
        <time>2017-04-09T08:37:13.000Z</time>
        <extensions>
          <gpxtpx:TrackPointExtension xmlns:gpxtpx="http://www.garmin.com/xmlschemas/TrackPointExtension/v1">
            <gpxtpx:hr>148</gpxtpx:hr>
          </gpxtpx:TrackPointExtension>
        </extensions>
      </trkpt>
      <trkpt lat="49.34979" lon="1.03116">
        <ele>126.64638519287</ele>
        <time>2017-04-09T08:37:16.000Z</time>
      </trkpt>
      <trkpt lat="49.34978" lon="1.03123">
        <ele>126.30954742432</ele>
        <time>2017-04-09T08:37:18.000Z</time>
      </trkpt>
      <trkpt lat="49.34976" lon="1.03133">
        <ele>126.21293640137</ele>
        <time>2017-04-09T08:37:20.000Z</time>
      </trkpt>
      <trkpt lat="49.34974" lon="1.03142">
        <ele>126.31539154053</ele>
        <time>2017-04-09T08:37:22.000Z</time>
      </trkpt>
      <trkpt lat="49.34971" lon="1.03153">
        <ele>126.61973571777</ele>
        <time>2017-04-09T08:37:24.000Z</time>
      </trkpt>
      <trkpt lat="49.34968" lon="1.03164">
        <ele>127.02939605713</ele>
        <time>2017-04-09T08:37:26.000Z</time>
      </trkpt>
      <trkpt lat="49.34964" lon="1.03178">
        <ele>127.39345550537</ele>
        <time>2017-04-09T08:37:28.000Z</time>
      </trkpt>
      <trkpt lat="49.34959" lon="1.03197">
        <ele>127.67414855957</ele>
        <time>2017-04-09T08:37:31.000Z</time>
      </trkpt>
      <trkpt lat="49.34954" lon="1.0321">
        <ele>127.87136077881</ele>
        <time>2017-04-09T08:37:33.000Z</time>
      </trkpt>
      <trkpt lat="49.34948" lon="1.03232">
        <ele>127.9806060791</ele>
        <time>2017-04-09T08:37:36.000Z</time>
      </trkpt>
      <trkpt lat="49.34943" lon="1.03255">
        <ele>128.01133728027</ele>
        <time>2017-04-09T08:37:39.000Z</time>
      </trkpt>
      <trkpt lat="49.34937" lon="1.03276">
        <ele>128.07385253906</ele>
        <time>2017-04-09T08:37:42.000Z</time>
      </trkpt>
      <trkpt lat="49.34934" lon="1.03294">
        <ele>128.17936706543</ele>
        <time>2017-04-09T08:37:45.000Z</time>
      </trkpt>
      <trkpt lat="49.34932" lon="1.03306">
        <ele>128.31343078613</ele>
        <time>2017-04-09T08:37:47.000Z</time>
      </trkpt>
      <trkpt lat="49.34929" lon="1.03326">
        <ele>128.49694824219</ele>
        <time>2017-04-09T08:37:50.000Z</time>
      </trkpt>
      <trkpt lat="49.34927" lon="1.03348">
        <ele>128.61563110352</ele>
        <time>2017-04-09T08:37:53.000Z</time>
      </trkpt>
      <trkpt lat="49.34925" lon="1.03368">
        <ele>128.58438110352</ele>
        <time>2017-04-09T08:37:56.000Z</time>
      </trkpt>
      <trkpt lat="49.34924" lon="1.03383">
        <ele>128.44216918945</ele>
        <time>2017-04-09T08:37:58.000Z</time>
      </trkpt>
      <trkpt lat="49.34922" lon="1.03405">
        <ele>128.16458129883</ele>
        <time>2017-04-09T08:38:01.000Z</time>
        <extensions>
          <gpxtpx:TrackPointExtension xmlns:gpxtpx="http://www.garmin.com/xmlschemas/TrackPointExtension/v1">
            <gpxtpx:hr>149</gpxtpx:hr>
          </gpxtpx:TrackPointExtension>
        </extensions>
      </trkpt>
      <trkpt lat="49.34921" lon="1.03417">
        <ele>127.77821350098</ele>
        <time>2017-04-09T08:38:03.000Z</time>
        <extensions>
          <gpxtpx:TrackPointExtension xmlns:gpxtpx="http://www.garmin.com/xmlschemas/TrackPointExtension/v1">
            <gpxtpx:hr>150</gpxtpx:hr>
          </gpxtpx:TrackPointExtension>
        </extensions>
      </trkpt>
      <trkpt lat="49.3492" lon="1.03438">
        <ele>127.34787750244</ele>
        <time>2017-04-09T08:38:06.000Z</time>
        <extensions>
          <gpxtpx:TrackPointExtension xmlns:gpxtpx="http://www.garmin.com/xmlschemas/TrackPointExtension/v1">
            <gpxtpx:hr>149</gpxtpx:hr>
          </gpxtpx:TrackPointExtension>
        </extensions>
      </trkpt>
      <trkpt lat="49.34919" lon="1.03453">
        <ele>126.94313812256</ele>
        <time>2017-04-09T08:38:08.000Z</time>
        <extensions>
          <gpxtpx:TrackPointExtension xmlns:gpxtpx="http://www.garmin.com/xmlschemas/TrackPointExtension/v1">
            <gpxtpx:hr>147</gpxtpx:hr>
          </gpxtpx:TrackPointExtension>
        </extensions>
      </trkpt>
      <trkpt lat="49.3492" lon="1.03475">
        <ele>126.50500488281</ele>
        <time>2017-04-09T08:38:11.000Z</time>
        <extensions>
          <gpxtpx:TrackPointExtension xmlns:gpxtpx="http://www.garmin.com/xmlschemas/TrackPointExtension/v1">
            <gpxtpx:hr>144</gpxtpx:hr>
          </gpxtpx:TrackPointExtension>
        </extensions>
      </trkpt>
      <trkpt lat="49.34916" lon="1.03489">
        <ele>126.10249328613</ele>
        <time>2017-04-09T08:38:13.000Z</time>
        <extensions>
          <gpxtpx:TrackPointExtension xmlns:gpxtpx="http://www.garmin.com/xmlschemas/TrackPointExtension/v1">
            <gpxtpx:hr>144</gpxtpx:hr>
          </gpxtpx:TrackPointExtension>
        </extensions>
      </trkpt>
      <trkpt lat="49.34916" lon="1.03502">
        <ele>125.71125793457</ele>
        <time>2017-04-09T08:38:15.000Z</time>
        <extensions>
          <gpxtpx:TrackPointExtension xmlns:gpxtpx="http://www.garmin.com/xmlschemas/TrackPointExtension/v1">
            <gpxtpx:hr>144</gpxtpx:hr>
          </gpxtpx:TrackPointExtension>
        </extensions>
      </trkpt>
      <trkpt lat="49.34914" lon="1.03516">
        <ele>125.41780853271</ele>
        <time>2017-04-09T08:38:17.000Z</time>
        <extensions>
          <gpxtpx:TrackPointExtension xmlns:gpxtpx="http://www.garmin.com/xmlschemas/TrackPointExtension/v1">
            <gpxtpx:hr>141</gpxtpx:hr>
          </gpxtpx:TrackPointExtension>
        </extensions>
      </trkpt>
      <trkpt lat="49.34915" lon="1.03537">
        <ele>125.19213867188</ele>
        <time>2017-04-09T08:38:20.000Z</time>
      </trkpt>
      <trkpt lat="49.34915" lon="1.03552">
        <ele>125.06538391113</ele>
        <time>2017-04-09T08:38:22.000Z</time>
      </trkpt>
      <trkpt lat="49.34914" lon="1.03573">
        <ele>125.0037612915</ele>
        <time>2017-04-09T08:38:25.000Z</time>
      </trkpt>
      <trkpt lat="49.34914" lon="1.03588">
        <ele>124.99931335449</ele>
        <time>2017-04-09T08:38:27.000Z</time>
      </trkpt>
      <trkpt lat="49.34914" lon="1.03615">
        <ele>125.05167388916</ele>
        <time>2017-04-09T08:38:30.000Z</time>
      </trkpt>
      <trkpt lat="49.34912" lon="1.03632">
        <ele>125.14218902588</ele>
        <time>2017-04-09T08:38:32.000Z</time>
      </trkpt>
      <trkpt lat="49.34912" lon="1.03659">
        <ele>125.29660797119</ele>
        <time>2017-04-09T08:38:35.000Z</time>
      </trkpt>
      <trkpt lat="49.34912" lon="1.03678">
        <ele>125.49513244629</ele>
        <time>2017-04-09T08:38:37.000Z</time>
      </trkpt>
      <trkpt lat="49.34911" lon="1.03707">
        <ele>125.74914550781</ele>
        <time>2017-04-09T08:38:40.000Z</time>
      </trkpt>
      <trkpt lat="49.3491" lon="1.03727">
        <ele>125.9884185791</ele>
        <time>2017-04-09T08:38:42.000Z</time>
      </trkpt>
      <trkpt lat="49.34908" lon="1.03758">
        <ele>126.20819091797</ele>
        <time>2017-04-09T08:38:45.000Z</time>
      </trkpt>
      <trkpt lat="49.34908" lon="1.0378">
        <ele>126.28456878662</ele>
        <time>2017-04-09T08:38:47.000Z</time>
      </trkpt>
      <trkpt lat="49.34907" lon="1.03801">
        <ele>126.25019836426</ele>
        <time>2017-04-09T08:38:49.000Z</time>
      </trkpt>
      <trkpt lat="49.34906" lon="1.03823">
        <ele>126.07954406738</ele>
        <time>2017-04-09T08:38:51.000Z</time>
      </trkpt>
      <trkpt lat="49.34902" lon="1.03858">
        <ele>125.87050628662</ele>
        <time>2017-04-09T08:38:54.000Z</time>
      </trkpt>
      <trkpt lat="49.349" lon="1.03881">
        <ele>125.68232727051</ele>
        <time>2017-04-09T08:38:56.000Z</time>
      </trkpt>
      <trkpt lat="49.34895" lon="1.03914">
        <ele>125.65411376953</ele>
        <time>2017-04-09T08:38:59.000Z</time>
      </trkpt>
      <trkpt lat="49.34891" lon="1.03937">
        <ele>125.79817962646</ele>
        <time>2017-04-09T08:39:01.000Z</time>
        <extensions>
          <gpxtpx:TrackPointExtension xmlns:gpxtpx="http://www.garmin.com/xmlschemas/TrackPointExtension/v1">
            <gpxtpx:hr>140</gpxtpx:hr>
          </gpxtpx:TrackPointExtension>
        </extensions>
      </trkpt>
      <trkpt lat="49.34885" lon="1.03971">
        <ele>126.13305664062</ele>
        <time>2017-04-09T08:39:04.000Z</time>
        <extensions>
          <gpxtpx:TrackPointExtension xmlns:gpxtpx="http://www.garmin.com/xmlschemas/TrackPointExtension/v1">
            <gpxtpx:hr>139</gpxtpx:hr>
          </gpxtpx:TrackPointExtension>
        </extensions>
      </trkpt>
      <trkpt lat="49.34878" lon="1.04004">
        <ele>126.51076507568</ele>
        <time>2017-04-09T08:39:07.000Z</time>
        <extensions>
          <gpxtpx:TrackPointExtension xmlns:gpxtpx="http://www.garmin.com/xmlschemas/TrackPointExtension/v1">
            <gpxtpx:hr>140</gpxtpx:hr>
          </gpxtpx:TrackPointExtension>
        </extensions>
      </trkpt>
      <trkpt lat="49.34874" lon="1.04027">
        <ele>126.73046875</ele>
        <time>2017-04-09T08:39:09.000Z</time>
        <extensions>
          <gpxtpx:TrackPointExtension xmlns:gpxtpx="http://www.garmin.com/xmlschemas/TrackPointExtension/v1">
            <gpxtpx:hr>138</gpxtpx:hr>
          </gpxtpx:TrackPointExtension>
        </extensions>
      </trkpt>
      <trkpt lat="49.34869" lon="1.0406">
        <ele>126.67198181152</ele>
        <time>2017-04-09T08:39:12.000Z</time>
        <extensions>
          <gpxtpx:TrackPointExtension xmlns:gpxtpx="http://www.garmin.com/xmlschemas/TrackPointExtension/v1">
            <gpxtpx:hr>139</gpxtpx:hr>
          </gpxtpx:TrackPointExtension>
        </extensions>
      </trkpt>
      <trkpt lat="49.34864" lon="1.04083">
        <ele>126.37518310547</ele>
        <time>2017-04-09T08:39:14.000Z</time>
        <extensions>
          <gpxtpx:TrackPointExtension xmlns:gpxtpx="http://www.garmin.com/xmlschemas/TrackPointExtension/v1">
            <gpxtpx:hr>138</gpxtpx:hr>
          </gpxtpx:TrackPointExtension>
        </extensions>
      </trkpt>
      <trkpt lat="49.34861" lon="1.04117">
        <ele>125.92723083496</ele>
        <time>2017-04-09T08:39:17.000Z</time>
        <extensions>
          <gpxtpx:TrackPointExtension xmlns:gpxtpx="http://www.garmin.com/xmlschemas/TrackPointExtension/v1">
            <gpxtpx:hr>138</gpxtpx:hr>
          </gpxtpx:TrackPointExtension>
        </extensions>
      </trkpt>
      <trkpt lat="49.34857" lon="1.04137">
        <ele>125.40554046631</ele>
        <time>2017-04-09T08:39:19.000Z</time>
        <extensions>
          <gpxtpx:TrackPointExtension xmlns:gpxtpx="http://www.garmin.com/xmlschemas/TrackPointExtension/v1">
            <gpxtpx:hr>131</gpxtpx:hr>
          </gpxtpx:TrackPointExtension>
        </extensions>
      </trkpt>
      <trkpt lat="49.34852" lon="1.04168">
        <ele>124.94925689697</ele>
        <time>2017-04-09T08:39:22.000Z</time>
        <extensions>
          <gpxtpx:TrackPointExtension xmlns:gpxtpx="http://www.garmin.com/xmlschemas/TrackPointExtension/v1">
            <gpxtpx:hr>131</gpxtpx:hr>
          </gpxtpx:TrackPointExtension>
        </extensions>
      </trkpt>
      <trkpt lat="49.34845" lon="1.04196">
        <ele>124.60119628906</ele>
        <time>2017-04-09T08:39:25.000Z</time>
      </trkpt>
      <trkpt lat="49.34841" lon="1.04217">
        <ele>124.32607269287</ele>
        <time>2017-04-09T08:39:27.000Z</time>
      </trkpt>
      <trkpt lat="49.34835" lon="1.04251">
        <ele>123.96146392822</ele>
        <time>2017-04-09T08:39:30.000Z</time>
      </trkpt>
      <trkpt lat="49.34829" lon="1.04282">
        <ele>123.549659729</ele>
        <time>2017-04-09T08:39:33.000Z</time>
      </trkpt>
      <trkpt lat="49.34825" lon="1.04302">
        <ele>123.15928649902</ele>
        <time>2017-04-09T08:39:35.000Z</time>
      </trkpt>
      <trkpt lat="49.34819" lon="1.04332">
        <ele>122.80204772949</ele>
        <time>2017-04-09T08:39:38.000Z</time>
      </trkpt>
      <trkpt lat="49.34813" lon="1.04361">
        <ele>122.39007568359</ele>
        <time>2017-04-09T08:39:41.000Z</time>
      </trkpt>
      <trkpt lat="49.3481" lon="1.0438">
        <ele>122.01261901855</ele>
        <time>2017-04-09T08:39:43.000Z</time>
      </trkpt>
      <trkpt lat="49.34811" lon="1.04405">
        <ele>121.58925628662</ele>
        <time>2017-04-09T08:39:46.000Z</time>
      </trkpt>
      <trkpt lat="49.34823" lon="1.0442">
        <ele>121.11701965332</ele>
        <time>2017-04-09T08:39:49.000Z</time>
      </trkpt>
      <trkpt lat="49.34832" lon="1.04426">
        <ele>120.68190002441</ele>
        <time>2017-04-09T08:39:51.000Z</time>
      </trkpt>
      <trkpt lat="49.34846" lon="1.04443">
        <ele>120.38938903809</ele>
        <time>2017-04-09T08:39:54.000Z</time>
      </trkpt>
      <trkpt lat="49.34864" lon="1.04455">
        <ele>120.17021179199</ele>
        <time>2017-04-09T08:39:57.000Z</time>
      </trkpt>
      <trkpt lat="49.34885" lon="1.04469">
        <ele>119.99969482422</ele>
        <time>2017-04-09T08:40:00.000Z</time>
        <extensions>
          <gpxtpx:TrackPointExtension xmlns:gpxtpx="http://www.garmin.com/xmlschemas/TrackPointExtension/v1">
            <gpxtpx:hr>132</gpxtpx:hr>
          </gpxtpx:TrackPointExtension>
        </extensions>
      </trkpt>
      <trkpt lat="49.34904" lon="1.04485">
        <ele>119.76029205322</ele>
        <time>2017-04-09T08:40:03.000Z</time>
        <extensions>
          <gpxtpx:TrackPointExtension xmlns:gpxtpx="http://www.garmin.com/xmlschemas/TrackPointExtension/v1">
            <gpxtpx:hr>132</gpxtpx:hr>
          </gpxtpx:TrackPointExtension>
        </extensions>
      </trkpt>
      <trkpt lat="49.34915" lon="1.04493">
        <ele>119.42874908447</ele>
        <time>2017-04-09T08:40:05.000Z</time>
        <extensions>
          <gpxtpx:TrackPointExtension xmlns:gpxtpx="http://www.garmin.com/xmlschemas/TrackPointExtension/v1">
            <gpxtpx:hr>134</gpxtpx:hr>
          </gpxtpx:TrackPointExtension>
        </extensions>
      </trkpt>
      <trkpt lat="49.34929" lon="1.04504">
        <ele>118.86403656006</ele>
        <time>2017-04-09T08:40:07.000Z</time>
        <extensions>
          <gpxtpx:TrackPointExtension xmlns:gpxtpx="http://www.garmin.com/xmlschemas/TrackPointExtension/v1">
            <gpxtpx:hr>132</gpxtpx:hr>
          </gpxtpx:TrackPointExtension>
        </extensions>
      </trkpt>
      <trkpt lat="49.34946" lon="1.04515">
        <ele>118.10146331787</ele>
        <time>2017-04-09T08:40:10.000Z</time>
        <extensions>
          <gpxtpx:TrackPointExtension xmlns:gpxtpx="http://www.garmin.com/xmlschemas/TrackPointExtension/v1">
            <gpxtpx:hr>133</gpxtpx:hr>
          </gpxtpx:TrackPointExtension>
        </extensions>
      </trkpt>
      <trkpt lat="49.34953" lon="1.04522">
        <ele>117.30593109131</ele>
        <time>2017-04-09T08:40:12.000Z</time>
        <extensions>
          <gpxtpx:TrackPointExtension xmlns:gpxtpx="http://www.garmin.com/xmlschemas/TrackPointExtension/v1">
            <gpxtpx:hr>136</gpxtpx:hr>
          </gpxtpx:TrackPointExtension>
        </extensions>
      </trkpt>
      <trkpt lat="49.34972" lon="1.04536">
        <ele>116.4217376709</ele>
        <time>2017-04-09T08:40:15.000Z</time>
        <extensions>
          <gpxtpx:TrackPointExtension xmlns:gpxtpx="http://www.garmin.com/xmlschemas/TrackPointExtension/v1">
            <gpxtpx:hr>138</gpxtpx:hr>
          </gpxtpx:TrackPointExtension>
        </extensions>
      </trkpt>
      <trkpt lat="49.34991" lon="1.04547">
        <ele>115.40822601318</ele>
        <time>2017-04-09T08:40:18.000Z</time>
        <extensions>
          <gpxtpx:TrackPointExtension xmlns:gpxtpx="http://www.garmin.com/xmlschemas/TrackPointExtension/v1">
            <gpxtpx:hr>138</gpxtpx:hr>
          </gpxtpx:TrackPointExtension>
        </extensions>
      </trkpt>
      <trkpt lat="49.35012" lon="1.04564">
        <ele>114.34269714355</ele>
        <time>2017-04-09T08:40:21.000Z</time>
      </trkpt>
      <trkpt lat="49.35024" lon="1.04571">
        <ele>113.37159729004</ele>
        <time>2017-04-09T08:40:23.000Z</time>
      </trkpt>
      <trkpt lat="49.35031" lon="1.04579">
        <ele>112.42279052734</ele>
        <time>2017-04-09T08:40:26.000Z</time>
      </trkpt>
      <trkpt lat="49.35034" lon="1.04594">
        <ele>111.69770812988</ele>
        <time>2017-04-09T08:40:29.000Z</time>
      </trkpt>
      <trkpt lat="49.35031" lon="1.04605">
        <ele>111.25705718994</ele>
        <time>2017-04-09T08:40:31.000Z</time>
      </trkpt>
      <trkpt lat="49.35028" lon="1.04624">
        <ele>111.12892913818</ele>
        <time>2017-04-09T08:40:34.000Z</time>
      </trkpt>
      <trkpt lat="49.35021" lon="1.04647">
        <ele>111.17822265625</ele>
        <time>2017-04-09T08:40:37.000Z</time>
      </trkpt>
      <trkpt lat="49.35016" lon="1.04671">
        <ele>111.33455657959</ele>
        <time>2017-04-09T08:40:40.000Z</time>
      </trkpt>
      <trkpt lat="49.35012" lon="1.04693">
        <ele>111.465965271</ele>
        <time>2017-04-09T08:40:43.000Z</time>
      </trkpt>
      <trkpt lat="49.35008" lon="1.04714">
        <ele>111.5171661377</ele>
        <time>2017-04-09T08:40:46.000Z</time>
      </trkpt>
      <trkpt lat="49.35006" lon="1.04726">
        <ele>111.49597167969</ele>
        <time>2017-04-09T08:40:48.000Z</time>
      </trkpt>
      <trkpt lat="49.35001" lon="1.0474">
        <ele>111.39123535156</ele>
        <time>2017-04-09T08:40:50.000Z</time>
      </trkpt>
      <trkpt lat="49.34997" lon="1.04754">
        <ele>111.23054504395</ele>
        <time>2017-04-09T08:40:52.000Z</time>
      </trkpt>
      <trkpt lat="49.34991" lon="1.04775">
        <ele>111.07149505615</ele>
        <time>2017-04-09T08:40:55.000Z</time>
      </trkpt>
      <trkpt lat="49.34984" lon="1.04796">
        <ele>110.9139175415</ele>
        <time>2017-04-09T08:40:58.000Z</time>
      </trkpt>
      <trkpt lat="49.34977" lon="1.04817">
        <ele>110.75202941895</ele>
        <time>2017-04-09T08:41:01.000Z</time>
        <extensions>
          <gpxtpx:TrackPointExtension xmlns:gpxtpx="http://www.garmin.com/xmlschemas/TrackPointExtension/v1">
            <gpxtpx:hr>141</gpxtpx:hr>
          </gpxtpx:TrackPointExtension>
        </extensions>
      </trkpt>
      <trkpt lat="49.34973" lon="1.04831">
        <ele>110.59913635254</ele>
        <time>2017-04-09T08:41:03.000Z</time>
        <extensions>
          <gpxtpx:TrackPointExtension xmlns:gpxtpx="http://www.garmin.com/xmlschemas/TrackPointExtension/v1">
            <gpxtpx:hr>142</gpxtpx:hr>
          </gpxtpx:TrackPointExtension>
        </extensions>
      </trkpt>
      <trkpt lat="49.34969" lon="1.04847">
        <ele>110.40476989746</ele>
        <time>2017-04-09T08:41:05.000Z</time>
        <extensions>
          <gpxtpx:TrackPointExtension xmlns:gpxtpx="http://www.garmin.com/xmlschemas/TrackPointExtension/v1">
            <gpxtpx:hr>143</gpxtpx:hr>
          </gpxtpx:TrackPointExtension>
        </extensions>
      </trkpt>
      <trkpt lat="49.34962" lon="1.04871">
        <ele>110.12910461426</ele>
        <time>2017-04-09T08:41:08.000Z</time>
        <extensions>
          <gpxtpx:TrackPointExtension xmlns:gpxtpx="http://www.garmin.com/xmlschemas/TrackPointExtension/v1">
            <gpxtpx:hr>143</gpxtpx:hr>
          </gpxtpx:TrackPointExtension>
        </extensions>
      </trkpt>
      <trkpt lat="49.34957" lon="1.04887">
        <ele>109.79831695557</ele>
        <time>2017-04-09T08:41:10.000Z</time>
        <extensions>
          <gpxtpx:TrackPointExtension xmlns:gpxtpx="http://www.garmin.com/xmlschemas/TrackPointExtension/v1">
            <gpxtpx:hr>142</gpxtpx:hr>
          </gpxtpx:TrackPointExtension>
        </extensions>
      </trkpt>
      <trkpt lat="49.34949" lon="1.04911">
        <ele>109.35166168213</ele>
        <time>2017-04-09T08:41:13.000Z</time>
        <extensions>
          <gpxtpx:TrackPointExtension xmlns:gpxtpx="http://www.garmin.com/xmlschemas/TrackPointExtension/v1">
            <gpxtpx:hr>144</gpxtpx:hr>
          </gpxtpx:TrackPointExtension>
        </extensions>
      </trkpt>
      <trkpt lat="49.34943" lon="1.04925">
        <ele>108.87662506104</ele>
        <time>2017-04-09T08:41:15.000Z</time>
        <extensions>
          <gpxtpx:TrackPointExtension xmlns:gpxtpx="http://www.garmin.com/xmlschemas/TrackPointExtension/v1">
            <gpxtpx:hr>144</gpxtpx:hr>
          </gpxtpx:TrackPointExtension>
        </extensions>
      </trkpt>
      <trkpt lat="49.34937" lon="1.0495">
        <ele>108.46128082275</ele>
        <time>2017-04-09T08:41:18.000Z</time>
        <extensions>
          <gpxtpx:TrackPointExtension xmlns:gpxtpx="http://www.garmin.com/xmlschemas/TrackPointExtension/v1">
            <gpxtpx:hr>144</gpxtpx:hr>
          </gpxtpx:TrackPointExtension>
        </extensions>
      </trkpt>
      <trkpt lat="49.3493" lon="1.04973">
        <ele>108.16843414307</ele>
        <time>2017-04-09T08:41:21.000Z</time>
        <extensions>
          <gpxtpx:TrackPointExtension xmlns:gpxtpx="http://www.garmin.com/xmlschemas/TrackPointExtension/v1">
            <gpxtpx:hr>144</gpxtpx:hr>
          </gpxtpx:TrackPointExtension>
        </extensions>
      </trkpt>
      <trkpt lat="49.34925" lon="1.04989">
        <ele>107.9725112915</ele>
        <time>2017-04-09T08:41:23.000Z</time>
      </trkpt>
      <trkpt lat="49.34918" lon="1.05012">
        <ele>107.96077728271</ele>
        <time>2017-04-09T08:41:26.000Z</time>
      </trkpt>
      <trkpt lat="49.34913" lon="1.05029">
        <ele>108.04331207275</ele>
        <time>2017-04-09T08:41:28.000Z</time>
      </trkpt>
      <trkpt lat="49.34904" lon="1.05053">
        <ele>108.20107269287</ele>
        <time>2017-04-09T08:41:31.000Z</time>
      </trkpt>
      <trkpt lat="49.34899" lon="1.05071">
        <ele>108.39965820312</ele>
        <time>2017-04-09T08:41:33.000Z</time>
      </trkpt>
      <trkpt lat="49.34892" lon="1.05096">
        <ele>108.57298278809</ele>
        <time>2017-04-09T08:41:36.000Z</time>
      </trkpt>
      <trkpt lat="49.34887" lon="1.05112">
        <ele>108.66153717041</ele>
        <time>2017-04-09T08:41:38.000Z</time>
      </trkpt>
      <trkpt lat="49.34881" lon="1.05126">
        <ele>108.66947174072</ele>
        <time>2017-04-09T08:41:40.000Z</time>
      </trkpt>
      <trkpt lat="49.34874" lon="1.05143">
        <ele>108.58925628662</ele>
        <time>2017-04-09T08:41:42.000Z</time>
      </trkpt>
      <trkpt lat="49.34869" lon="1.05161">
        <ele>108.45310211182</ele>
        <time>2017-04-09T08:41:44.000Z</time>
      </trkpt>
      <trkpt lat="49.34862" lon="1.05184">
        <ele>108.27309417725</ele>
        <time>2017-04-09T08:41:47.000Z</time>
      </trkpt>
      <trkpt lat="49.34859" lon="1.05199">
        <ele>108.0810546875</ele>
        <time>2017-04-09T08:41:49.000Z</time>
      </trkpt>
      <trkpt lat="49.34853" lon="1.05208">
        <ele>107.9058380127</ele>
        <time>2017-04-09T08:41:51.000Z</time>
      </trkpt>
      <trkpt lat="49.34842" lon="1.05199">
        <ele>107.84785461426</ele>
        <time>2017-04-09T08:41:54.000Z</time>
      </trkpt>
      <trkpt lat="49.34836" lon="1.05196">
        <ele>107.85272216797</ele>
        <time>2017-04-09T08:41:56.000Z</time>
      </trkpt>
      <trkpt lat="49.34829" lon="1.05201">
        <ele>107.93318939209</ele>
        <time>2017-04-09T08:41:59.000Z</time>
      </trkpt>
      <trkpt lat="49.34823" lon="1.05214">
        <ele>108.0389251709</ele>
        <time>2017-04-09T08:42:02.000Z</time>
        <extensions>
          <gpxtpx:TrackPointExtension xmlns:gpxtpx="http://www.garmin.com/xmlschemas/TrackPointExtension/v1">
            <gpxtpx:hr>142</gpxtpx:hr>
          </gpxtpx:TrackPointExtension>
        </extensions>
      </trkpt>
      <trkpt lat="49.3482" lon="1.05226">
        <ele>108.12281799316</ele>
        <time>2017-04-09T08:42:04.000Z</time>
        <extensions>
          <gpxtpx:TrackPointExtension xmlns:gpxtpx="http://www.garmin.com/xmlschemas/TrackPointExtension/v1">
            <gpxtpx:hr>144</gpxtpx:hr>
          </gpxtpx:TrackPointExtension>
        </extensions>
      </trkpt>
      <trkpt lat="49.34813" lon="1.05248">
        <ele>108.07382965088</ele>
        <time>2017-04-09T08:42:07.000Z</time>
        <extensions>
          <gpxtpx:TrackPointExtension xmlns:gpxtpx="http://www.garmin.com/xmlschemas/TrackPointExtension/v1">
            <gpxtpx:hr>142</gpxtpx:hr>
          </gpxtpx:TrackPointExtension>
        </extensions>
      </trkpt>
      <trkpt lat="49.3481" lon="1.05261">
        <ele>107.95713806152</ele>
        <time>2017-04-09T08:42:09.000Z</time>
        <extensions>
          <gpxtpx:TrackPointExtension xmlns:gpxtpx="http://www.garmin.com/xmlschemas/TrackPointExtension/v1">
            <gpxtpx:hr>140</gpxtpx:hr>
          </gpxtpx:TrackPointExtension>
        </extensions>
      </trkpt>
      <trkpt lat="49.34803" lon="1.0528">
        <ele>107.82761383057</ele>
        <time>2017-04-09T08:42:12.000Z</time>
        <extensions>
          <gpxtpx:TrackPointExtension xmlns:gpxtpx="http://www.garmin.com/xmlschemas/TrackPointExtension/v1">
            <gpxtpx:hr>140</gpxtpx:hr>
          </gpxtpx:TrackPointExtension>
        </extensions>
      </trkpt>
      <trkpt lat="49.34795" lon="1.05294">
        <ele>107.75926208496</ele>
        <time>2017-04-09T08:42:15.000Z</time>
        <extensions>
          <gpxtpx:TrackPointExtension xmlns:gpxtpx="http://www.garmin.com/xmlschemas/TrackPointExtension/v1">
            <gpxtpx:hr>138</gpxtpx:hr>
          </gpxtpx:TrackPointExtension>
        </extensions>
      </trkpt>
      <trkpt lat="49.34801" lon="1.05308">
        <ele>107.63399505615</ele>
        <time>2017-04-09T08:42:18.000Z</time>
        <extensions>
          <gpxtpx:TrackPointExtension xmlns:gpxtpx="http://www.garmin.com/xmlschemas/TrackPointExtension/v1">
            <gpxtpx:hr>140</gpxtpx:hr>
          </gpxtpx:TrackPointExtension>
        </extensions>
      </trkpt>
      <trkpt lat="49.34818" lon="1.05317">
        <ele>107.32759094238</ele>
        <time>2017-04-09T08:42:21.000Z</time>
        <extensions>
          <gpxtpx:TrackPointExtension xmlns:gpxtpx="http://www.garmin.com/xmlschemas/TrackPointExtension/v1">
            <gpxtpx:hr>140</gpxtpx:hr>
          </gpxtpx:TrackPointExtension>
        </extensions>
      </trkpt>
      <trkpt lat="49.34834" lon="1.05331">
        <ele>106.80688476562</ele>
        <time>2017-04-09T08:42:24.000Z</time>
      </trkpt>
      <trkpt lat="49.34845" lon="1.05342">
        <ele>106.19258117676</ele>
        <time>2017-04-09T08:42:27.000Z</time>
      </trkpt>
      <trkpt lat="49.3485" lon="1.05355">
        <ele>105.50517272949</ele>
        <time>2017-04-09T08:42:30.000Z</time>
      </trkpt>
      <trkpt lat="49.34848" lon="1.05368">
        <ele>104.91898345947</ele>
        <time>2017-04-09T08:42:32.000Z</time>
      </trkpt>
      <trkpt lat="49.34843" lon="1.05392">
        <ele>104.58878326416</ele>
        <time>2017-04-09T08:42:35.000Z</time>
      </trkpt>
      <trkpt lat="49.34841" lon="1.05409">
        <ele>104.50508880615</ele>
        <time>2017-04-09T08:42:37.000Z</time>
      </trkpt>
      <trkpt lat="49.34839" lon="1.05427">
        <ele>104.56272125244</ele>
        <time>2017-04-09T08:42:39.000Z</time>
      </trkpt>
      <trkpt lat="49.34835" lon="1.05454">
        <ele>104.76667785645</ele>
        <time>2017-04-09T08:42:42.000Z</time>
      </trkpt>
      <trkpt lat="49.3483" lon="1.05474">
        <ele>105.0294342041</ele>
        <time>2017-04-09T08:42:44.000Z</time>
      </trkpt>
      <trkpt lat="49.34827" lon="1.05504">
        <ele>105.3140411377</ele>
        <time>2017-04-09T08:42:47.000Z</time>
      </trkpt>
      <trkpt lat="49.34826" lon="1.05532">
        <ele>105.58192443848</ele>
        <time>2017-04-09T08:42:50.000Z</time>
      </trkpt>
      <trkpt lat="49.34821" lon="1.05558">
        <ele>105.79121398926</ele>
        <time>2017-04-09T08:42:53.000Z</time>
      </trkpt>
      <trkpt lat="49.3482" lon="1.05572">
        <ele>105.88808441162</ele>
        <time>2017-04-09T08:42:55.000Z</time>
      </trkpt>
      <trkpt lat="49.34818" lon="1.05601">
        <ele>105.86421203613</ele>
        <time>2017-04-09T08:42:58.000Z</time>
      </trkpt>
      <trkpt lat="49.34815" lon="1.05619">
        <ele>105.7361831665</ele>
        <time>2017-04-09T08:43:00.000Z</time>
        <extensions>
          <gpxtpx:TrackPointExtension xmlns:gpxtpx="http://www.garmin.com/xmlschemas/TrackPointExtension/v1">
            <gpxtpx:hr>140</gpxtpx:hr>
          </gpxtpx:TrackPointExtension>
        </extensions>
      </trkpt>
      <trkpt lat="49.34813" lon="1.05638">
        <ele>105.5618057251</ele>
        <time>2017-04-09T08:43:02.000Z</time>
        <extensions>
          <gpxtpx:TrackPointExtension xmlns:gpxtpx="http://www.garmin.com/xmlschemas/TrackPointExtension/v1">
            <gpxtpx:hr>140</gpxtpx:hr>
          </gpxtpx:TrackPointExtension>
        </extensions>
      </trkpt>
      <trkpt lat="49.34811" lon="1.05658">
        <ele>105.34788513184</ele>
        <time>2017-04-09T08:43:04.000Z</time>
        <extensions>
          <gpxtpx:TrackPointExtension xmlns:gpxtpx="http://www.garmin.com/xmlschemas/TrackPointExtension/v1">
            <gpxtpx:hr>137</gpxtpx:hr>
          </gpxtpx:TrackPointExtension>
        </extensions>
      </trkpt>
      <trkpt lat="49.34808" lon="1.05688">
        <ele>105.06286621094</ele>
        <time>2017-04-09T08:43:07.000Z</time>
        <extensions>
          <gpxtpx:TrackPointExtension xmlns:gpxtpx="http://www.garmin.com/xmlschemas/TrackPointExtension/v1">
            <gpxtpx:hr>135</gpxtpx:hr>
          </gpxtpx:TrackPointExtension>
        </extensions>
      </trkpt>
      <trkpt lat="49.34805" lon="1.05719">
        <ele>104.74963378906</ele>
        <time>2017-04-09T08:43:10.000Z</time>
        <extensions>
          <gpxtpx:TrackPointExtension xmlns:gpxtpx="http://www.garmin.com/xmlschemas/TrackPointExtension/v1">
            <gpxtpx:hr>136</gpxtpx:hr>
          </gpxtpx:TrackPointExtension>
        </extensions>
      </trkpt>
      <trkpt lat="49.34803" lon="1.05739">
        <ele>104.43208312988</ele>
        <time>2017-04-09T08:43:12.000Z</time>
        <extensions>
          <gpxtpx:TrackPointExtension xmlns:gpxtpx="http://www.garmin.com/xmlschemas/TrackPointExtension/v1">
            <gpxtpx:hr>135</gpxtpx:hr>
          </gpxtpx:TrackPointExtension>
        </extensions>
      </trkpt>
      <trkpt lat="49.348" lon="1.05769">
        <ele>104.077293396</ele>
        <time>2017-04-09T08:43:15.000Z</time>
        <extensions>
          <gpxtpx:TrackPointExtension xmlns:gpxtpx="http://www.garmin.com/xmlschemas/TrackPointExtension/v1">
            <gpxtpx:hr>135</gpxtpx:hr>
          </gpxtpx:TrackPointExtension>
        </extensions>
      </trkpt>
      <trkpt lat="49.34797" lon="1.0579">
        <ele>103.71562194824</ele>
        <time>2017-04-09T08:43:17.000Z</time>
        <extensions>
          <gpxtpx:TrackPointExtension xmlns:gpxtpx="http://www.garmin.com/xmlschemas/TrackPointExtension/v1">
            <gpxtpx:hr>134</gpxtpx:hr>
          </gpxtpx:TrackPointExtension>
        </extensions>
      </trkpt>
      <trkpt lat="49.34795" lon="1.05811">
        <ele>103.37878417969</ele>
        <time>2017-04-09T08:43:19.000Z</time>
        <extensions>
          <gpxtpx:TrackPointExtension xmlns:gpxtpx="http://www.garmin.com/xmlschemas/TrackPointExtension/v1">
            <gpxtpx:hr>130</gpxtpx:hr>
          </gpxtpx:TrackPointExtension>
        </extensions>
      </trkpt>
      <trkpt lat="49.34792" lon="1.05833">
        <ele>103.07141113281</ele>
        <time>2017-04-09T08:43:21.000Z</time>
        <extensions>
          <gpxtpx:TrackPointExtension xmlns:gpxtpx="http://www.garmin.com/xmlschemas/TrackPointExtension/v1">
            <gpxtpx:hr>132</gpxtpx:hr>
          </gpxtpx:TrackPointExtension>
        </extensions>
      </trkpt>
      <trkpt lat="49.34788" lon="1.05866">
        <ele>102.70524597168</ele>
        <time>2017-04-09T08:43:24.000Z</time>
      </trkpt>
      <trkpt lat="49.34785" lon="1.05889">
        <ele>102.34587097168</ele>
        <time>2017-04-09T08:43:26.000Z</time>
      </trkpt>
      <trkpt lat="49.34784" lon="1.05911">
        <ele>101.96360015869</ele>
        <time>2017-04-09T08:43:28.000Z</time>
      </trkpt>
      <trkpt lat="49.3478" lon="1.05934">
        <ele>101.46269226074</ele>
        <time>2017-04-09T08:43:30.000Z</time>
      </trkpt>
      <trkpt lat="49.34776" lon="1.05968">
        <ele>100.70632171631</ele>
        <time>2017-04-09T08:43:33.000Z</time>
      </trkpt>
      <trkpt lat="49.34772" lon="1.05992">
        <ele>99.847412109375</ele>
        <time>2017-04-09T08:43:35.000Z</time>
      </trkpt>
      <trkpt lat="49.34768" lon="1.06026">
        <ele>98.860641479492</ele>
        <time>2017-04-09T08:43:38.000Z</time>
      </trkpt>
      <trkpt lat="49.34763" lon="1.0606">
        <ele>97.779922485352</ele>
        <time>2017-04-09T08:43:41.000Z</time>
      </trkpt>
      <trkpt lat="49.3476" lon="1.06082">
        <ele>96.762222290039</ele>
        <time>2017-04-09T08:43:43.000Z</time>
      </trkpt>
      <trkpt lat="49.3476" lon="1.06105">
        <ele>95.940811157227</ele>
        <time>2017-04-09T08:43:45.000Z</time>
      </trkpt>
      <trkpt lat="49.3476" lon="1.06124">
        <ele>95.243133544922</ele>
        <time>2017-04-09T08:43:47.000Z</time>
      </trkpt>
      <trkpt lat="49.34755" lon="1.06138">
        <ele>94.675079345703</ele>
        <time>2017-04-09T08:43:50.000Z</time>
      </trkpt>
      <trkpt lat="49.34747" lon="1.06138">
        <ele>94.276473999023</ele>
        <time>2017-04-09T08:43:52.000Z</time>
      </trkpt>
      <trkpt lat="49.3474" lon="1.06133">
        <ele>94.03246307373</ele>
        <time>2017-04-09T08:43:54.000Z</time>
      </trkpt>
      <trkpt lat="49.3473" lon="1.06127">
        <ele>93.947151184082</ele>
        <time>2017-04-09T08:43:56.000Z</time>
      </trkpt>
      <trkpt lat="49.34721" lon="1.06121">
        <ele>94.004165649414</ele>
        <time>2017-04-09T08:43:58.000Z</time>
      </trkpt>
      <trkpt lat="49.34708" lon="1.06114">
        <ele>94.20849609375</ele>
        <time>2017-04-09T08:44:01.000Z</time>
        <extensions>
          <gpxtpx:TrackPointExtension xmlns:gpxtpx="http://www.garmin.com/xmlschemas/TrackPointExtension/v1">
            <gpxtpx:hr>138</gpxtpx:hr>
          </gpxtpx:TrackPointExtension>
        </extensions>
      </trkpt>
      <trkpt lat="49.34699" lon="1.06107">
        <ele>94.47412109375</ele>
        <time>2017-04-09T08:44:03.000Z</time>
        <extensions>
          <gpxtpx:TrackPointExtension xmlns:gpxtpx="http://www.garmin.com/xmlschemas/TrackPointExtension/v1">
            <gpxtpx:hr>138</gpxtpx:hr>
          </gpxtpx:TrackPointExtension>
        </extensions>
      </trkpt>
      <trkpt lat="49.3469" lon="1.06101">
        <ele>94.746887207031</ele>
        <time>2017-04-09T08:44:05.000Z</time>
        <extensions>
          <gpxtpx:TrackPointExtension xmlns:gpxtpx="http://www.garmin.com/xmlschemas/TrackPointExtension/v1">
            <gpxtpx:hr>138</gpxtpx:hr>
          </gpxtpx:TrackPointExtension>
        </extensions>
      </trkpt>
      <trkpt lat="49.34676" lon="1.06092">
        <ele>95.047149658203</ele>
        <time>2017-04-09T08:44:08.000Z</time>
        <extensions>
          <gpxtpx:TrackPointExtension xmlns:gpxtpx="http://www.garmin.com/xmlschemas/TrackPointExtension/v1">
            <gpxtpx:hr>138</gpxtpx:hr>
          </gpxtpx:TrackPointExtension>
        </extensions>
      </trkpt>
      <trkpt lat="49.34661" lon="1.06081">
        <ele>95.346206665039</ele>
        <time>2017-04-09T08:44:11.000Z</time>
        <extensions>
          <gpxtpx:TrackPointExtension xmlns:gpxtpx="http://www.garmin.com/xmlschemas/TrackPointExtension/v1">
            <gpxtpx:hr>137</gpxtpx:hr>
          </gpxtpx:TrackPointExtension>
        </extensions>
      </trkpt>
      <trkpt lat="49.3465" lon="1.06074">
        <ele>95.573364257812</ele>
        <time>2017-04-09T08:44:13.000Z</time>
        <extensions>
          <gpxtpx:TrackPointExtension xmlns:gpxtpx="http://www.garmin.com/xmlschemas/TrackPointExtension/v1">
            <gpxtpx:hr>131</gpxtpx:hr>
          </gpxtpx:TrackPointExtension>
        </extensions>
      </trkpt>
      <trkpt lat="49.34637" lon="1.06064">
        <ele>95.730941772461</ele>
        <time>2017-04-09T08:44:16.000Z</time>
        <extensions>
          <gpxtpx:TrackPointExtension xmlns:gpxtpx="http://www.garmin.com/xmlschemas/TrackPointExtension/v1">
            <gpxtpx:hr>129</gpxtpx:hr>
          </gpxtpx:TrackPointExtension>
        </extensions>
      </trkpt>
      <trkpt lat="49.34623" lon="1.06053">
        <ele>95.805061340332</ele>
        <time>2017-04-09T08:44:19.000Z</time>
        <extensions>
          <gpxtpx:TrackPointExtension xmlns:gpxtpx="http://www.garmin.com/xmlschemas/TrackPointExtension/v1">
            <gpxtpx:hr>125</gpxtpx:hr>
          </gpxtpx:TrackPointExtension>
        </extensions>
      </trkpt>
      <trkpt lat="49.34615" lon="1.06047">
        <ele>95.77579498291</ele>
        <time>2017-04-09T08:44:21.000Z</time>
      </trkpt>
      <trkpt lat="49.34603" lon="1.06038">
        <ele>95.644248962402</ele>
        <time>2017-04-09T08:44:24.000Z</time>
      </trkpt>
      <trkpt lat="49.346" lon="1.06038">
        <ele>95.495277404785</ele>
        <time>2017-04-09T08:44:26.000Z</time>
      </trkpt>
      <trkpt lat="49.34599" lon="1.06039">
        <ele>95.346084594727</ele>
        <time>2017-04-09T08:44:29.000Z</time>
      </trkpt>
      <trkpt lat="49.34599" lon="1.06039">
        <ele>95.346084594727</ele>
        <time>2017-04-09T08:44:49.000Z</time>
      </trkpt>
      <trkpt lat="49.34598" lon="1.06038">
        <ele>95.228988647461</ele>
        <time>2017-04-09T08:47:13.000Z</time>
        <extensions>
          <gpxtpx:TrackPointExtension xmlns:gpxtpx="http://www.garmin.com/xmlschemas/TrackPointExtension/v1">
            <gpxtpx:hr>114</gpxtpx:hr>
          </gpxtpx:TrackPointExtension>
        </extensions>
      </trkpt>
      <trkpt lat="49.34597" lon="1.06037">
        <ele>95.136390686035</ele>
        <time>2017-04-09T08:47:15.000Z</time>
        <extensions>
          <gpxtpx:TrackPointExtension xmlns:gpxtpx="http://www.garmin.com/xmlschemas/TrackPointExtension/v1">
            <gpxtpx:hr>121</gpxtpx:hr>
          </gpxtpx:TrackPointExtension>
        </extensions>
      </trkpt>
      <trkpt lat="49.34597" lon="1.06039">
        <ele>95.088638305664</ele>
        <time>2017-04-09T08:47:28.000Z</time>
        <extensions>
          <gpxtpx:TrackPointExtension xmlns:gpxtpx="http://www.garmin.com/xmlschemas/TrackPointExtension/v1">
            <gpxtpx:hr>111</gpxtpx:hr>
          </gpxtpx:TrackPointExtension>
        </extensions>
      </trkpt>
      <trkpt lat="49.34594" lon="1.06038">
        <ele>95.045539855957</ele>
        <time>2017-04-09T08:47:31.000Z</time>
        <extensions>
          <gpxtpx:TrackPointExtension xmlns:gpxtpx="http://www.garmin.com/xmlschemas/TrackPointExtension/v1">
            <gpxtpx:hr>117</gpxtpx:hr>
          </gpxtpx:TrackPointExtension>
        </extensions>
      </trkpt>
      <trkpt lat="49.34593" lon="1.06037">
        <ele>95.013824462891</ele>
        <time>2017-04-09T08:47:33.000Z</time>
        <extensions>
          <gpxtpx:TrackPointExtension xmlns:gpxtpx="http://www.garmin.com/xmlschemas/TrackPointExtension/v1">
            <gpxtpx:hr>116</gpxtpx:hr>
          </gpxtpx:TrackPointExtension>
        </extensions>
      </trkpt>
      <trkpt lat="49.34589" lon="1.06044">
        <ele>94.927314758301</ele>
        <time>2017-04-09T08:47:36.000Z</time>
        <extensions>
          <gpxtpx:TrackPointExtension xmlns:gpxtpx="http://www.garmin.com/xmlschemas/TrackPointExtension/v1">
            <gpxtpx:hr>118</gpxtpx:hr>
          </gpxtpx:TrackPointExtension>
        </extensions>
      </trkpt>
      <trkpt lat="49.34588" lon="1.06062">
        <ele>94.792625427246</ele>
        <time>2017-04-09T08:47:39.000Z</time>
        <extensions>
          <gpxtpx:TrackPointExtension xmlns:gpxtpx="http://www.garmin.com/xmlschemas/TrackPointExtension/v1">
            <gpxtpx:hr>117</gpxtpx:hr>
          </gpxtpx:TrackPointExtension>
        </extensions>
      </trkpt>
      <trkpt lat="49.34592" lon="1.06077">
        <ele>94.646408081055</ele>
        <time>2017-04-09T08:47:41.000Z</time>
        <extensions>
          <gpxtpx:TrackPointExtension xmlns:gpxtpx="http://www.garmin.com/xmlschemas/TrackPointExtension/v1">
            <gpxtpx:hr>122</gpxtpx:hr>
          </gpxtpx:TrackPointExtension>
        </extensions>
      </trkpt>
      <trkpt lat="49.34597" lon="1.06099">
        <ele>94.384201049805</ele>
        <time>2017-04-09T08:47:44.000Z</time>
        <extensions>
          <gpxtpx:TrackPointExtension xmlns:gpxtpx="http://www.garmin.com/xmlschemas/TrackPointExtension/v1">
            <gpxtpx:hr>126</gpxtpx:hr>
          </gpxtpx:TrackPointExtension>
        </extensions>
      </trkpt>
      <trkpt lat="49.34605" lon="1.06122">
        <ele>93.972625732422</ele>
        <time>2017-04-09T08:47:47.000Z</time>
        <extensions>
          <gpxtpx:TrackPointExtension xmlns:gpxtpx="http://www.garmin.com/xmlschemas/TrackPointExtension/v1">
            <gpxtpx:hr>126</gpxtpx:hr>
          </gpxtpx:TrackPointExtension>
        </extensions>
      </trkpt>
      <trkpt lat="49.34608" lon="1.0614">
        <ele>93.495010375977</ele>
        <time>2017-04-09T08:47:49.000Z</time>
      </trkpt>
      <trkpt lat="49.34607" lon="1.06167">
        <ele>92.842559814453</ele>
        <time>2017-04-09T08:47:52.000Z</time>
      </trkpt>
      <trkpt lat="49.34605" lon="1.06179">
        <ele>92.094276428223</ele>
        <time>2017-04-09T08:47:54.000Z</time>
      </trkpt>
      <trkpt lat="49.34595" lon="1.06198">
        <ele>91.253662109375</ele>
        <time>2017-04-09T08:47:57.000Z</time>
      </trkpt>
      <trkpt lat="49.34587" lon="1.06211">
        <ele>90.39697265625</ele>
        <time>2017-04-09T08:47:59.000Z</time>
      </trkpt>
      <trkpt lat="49.34573" lon="1.0623">
        <ele>89.44197845459</ele>
        <time>2017-04-09T08:48:02.000Z</time>
        <extensions>
          <gpxtpx:TrackPointExtension xmlns:gpxtpx="http://www.garmin.com/xmlschemas/TrackPointExtension/v1">
            <gpxtpx:hr>129</gpxtpx:hr>
          </gpxtpx:TrackPointExtension>
        </extensions>
      </trkpt>
      <trkpt lat="49.34565" lon="1.06247">
        <ele>88.549087524414</ele>
        <time>2017-04-09T08:48:04.000Z</time>
        <extensions>
          <gpxtpx:TrackPointExtension xmlns:gpxtpx="http://www.garmin.com/xmlschemas/TrackPointExtension/v1">
            <gpxtpx:hr>127</gpxtpx:hr>
          </gpxtpx:TrackPointExtension>
        </extensions>
      </trkpt>
      <trkpt lat="49.34556" lon="1.06274">
        <ele>87.571533203125</ele>
        <time>2017-04-09T08:48:07.000Z</time>
        <extensions>
          <gpxtpx:TrackPointExtension xmlns:gpxtpx="http://www.garmin.com/xmlschemas/TrackPointExtension/v1">
            <gpxtpx:hr>124</gpxtpx:hr>
          </gpxtpx:TrackPointExtension>
        </extensions>
      </trkpt>
      <trkpt lat="49.34546" lon="1.06303">
        <ele>86.59139251709</ele>
        <time>2017-04-09T08:48:10.000Z</time>
        <extensions>
          <gpxtpx:TrackPointExtension xmlns:gpxtpx="http://www.garmin.com/xmlschemas/TrackPointExtension/v1">
            <gpxtpx:hr>123</gpxtpx:hr>
          </gpxtpx:TrackPointExtension>
        </extensions>
      </trkpt>
      <trkpt lat="49.34538" lon="1.06325">
        <ele>85.599235534668</ele>
        <time>2017-04-09T08:48:12.000Z</time>
        <extensions>
          <gpxtpx:TrackPointExtension xmlns:gpxtpx="http://www.garmin.com/xmlschemas/TrackPointExtension/v1">
            <gpxtpx:hr>121</gpxtpx:hr>
          </gpxtpx:TrackPointExtension>
        </extensions>
      </trkpt>
      <trkpt lat="49.34532" lon="1.06345">
        <ele>84.757606506348</ele>
        <time>2017-04-09T08:48:14.000Z</time>
        <extensions>
          <gpxtpx:TrackPointExtension xmlns:gpxtpx="http://www.garmin.com/xmlschemas/TrackPointExtension/v1">
            <gpxtpx:hr>124</gpxtpx:hr>
          </gpxtpx:TrackPointExtension>
        </extensions>
      </trkpt>
      <trkpt lat="49.34523" lon="1.06373">
        <ele>84.082336425781</ele>
        <time>2017-04-09T08:48:17.000Z</time>
        <extensions>
          <gpxtpx:TrackPointExtension xmlns:gpxtpx="http://www.garmin.com/xmlschemas/TrackPointExtension/v1">
            <gpxtpx:hr>131</gpxtpx:hr>
          </gpxtpx:TrackPointExtension>
        </extensions>
      </trkpt>
      <trkpt lat="49.34512" lon="1.06405">
        <ele>83.60718536377</ele>
        <time>2017-04-09T08:48:20.000Z</time>
        <extensions>
          <gpxtpx:TrackPointExtension xmlns:gpxtpx="http://www.garmin.com/xmlschemas/TrackPointExtension/v1">
            <gpxtpx:hr>138</gpxtpx:hr>
          </gpxtpx:TrackPointExtension>
        </extensions>
      </trkpt>
      <trkpt lat="49.34507" lon="1.06425">
        <ele>83.373947143555</ele>
        <time>2017-04-09T08:48:22.000Z</time>
        <extensions>
          <gpxtpx:TrackPointExtension xmlns:gpxtpx="http://www.garmin.com/xmlschemas/TrackPointExtension/v1">
            <gpxtpx:hr>140</gpxtpx:hr>
          </gpxtpx:TrackPointExtension>
        </extensions>
      </trkpt>
      <trkpt lat="49.34498" lon="1.06453">
        <ele>83.327178955078</ele>
        <time>2017-04-09T08:48:25.000Z</time>
      </trkpt>
      <trkpt lat="49.34491" lon="1.06468">
        <ele>83.353141784668</ele>
        <time>2017-04-09T08:48:27.000Z</time>
      </trkpt>
      <trkpt lat="49.34477" lon="1.06476">
        <ele>83.325134277344</ele>
        <time>2017-04-09T08:48:29.000Z</time>
      </trkpt>
      <trkpt lat="49.34465" lon="1.06489">
        <ele>83.272926330566</ele>
        <time>2017-04-09T08:48:31.000Z</time>
      </trkpt>
      <trkpt lat="49.34451" lon="1.06511">
        <ele>83.22078704834</ele>
        <time>2017-04-09T08:48:34.000Z</time>
      </trkpt>
      <trkpt lat="49.34439" lon="1.06518">
        <ele>83.154800415039</ele>
        <time>2017-04-09T08:48:37.000Z</time>
      </trkpt>
      <trkpt lat="49.34431" lon="1.06527">
        <ele>83.113845825195</ele>
        <time>2017-04-09T08:48:39.000Z</time>
      </trkpt>
      <trkpt lat="49.34422" lon="1.06539">
        <ele>83.174644470215</ele>
        <time>2017-04-09T08:48:42.000Z</time>
      </trkpt>
      <trkpt lat="49.34417" lon="1.06557">
        <ele>83.380668640137</ele>
        <time>2017-04-09T08:48:45.000Z</time>
      </trkpt>
      <trkpt lat="49.34415" lon="1.0658">
        <ele>83.729164123535</ele>
        <time>2017-04-09T08:48:48.000Z</time>
      </trkpt>
      <trkpt lat="49.34414" lon="1.06601">
        <ele>84.148788452148</ele>
        <time>2017-04-09T08:48:51.000Z</time>
      </trkpt>
      <trkpt lat="49.34415" lon="1.06616">
        <ele>84.57804107666</ele>
        <time>2017-04-09T08:48:53.000Z</time>
      </trkpt>
      <trkpt lat="49.3441" lon="1.0664">
        <ele>85.00032043457</ele>
        <time>2017-04-09T08:48:56.000Z</time>
      </trkpt>
      <trkpt lat="49.34412" lon="1.0666">
        <ele>85.355827331543</ele>
        <time>2017-04-09T08:48:59.000Z</time>
      </trkpt>
      <trkpt lat="49.34422" lon="1.06684">
        <ele>85.419174194336</ele>
        <time>2017-04-09T08:49:02.000Z</time>
        <extensions>
          <gpxtpx:TrackPointExtension xmlns:gpxtpx="http://www.garmin.com/xmlschemas/TrackPointExtension/v1">
            <gpxtpx:hr>140</gpxtpx:hr>
          </gpxtpx:TrackPointExtension>
        </extensions>
      </trkpt>
      <trkpt lat="49.34425" lon="1.06707">
        <ele>85.231430053711</ele>
        <time>2017-04-09T08:49:05.000Z</time>
        <extensions>
          <gpxtpx:TrackPointExtension xmlns:gpxtpx="http://www.garmin.com/xmlschemas/TrackPointExtension/v1">
            <gpxtpx:hr>145</gpxtpx:hr>
          </gpxtpx:TrackPointExtension>
        </extensions>
      </trkpt>
      <trkpt lat="49.3443" lon="1.06722">
        <ele>84.882781982422</ele>
        <time>2017-04-09T08:49:07.000Z</time>
        <extensions>
          <gpxtpx:TrackPointExtension xmlns:gpxtpx="http://www.garmin.com/xmlschemas/TrackPointExtension/v1">
            <gpxtpx:hr>146</gpxtpx:hr>
          </gpxtpx:TrackPointExtension>
        </extensions>
      </trkpt>
      <trkpt lat="49.34436" lon="1.06744">
        <ele>84.310066223145</ele>
        <time>2017-04-09T08:49:10.000Z</time>
        <extensions>
          <gpxtpx:TrackPointExtension xmlns:gpxtpx="http://www.garmin.com/xmlschemas/TrackPointExtension/v1">
            <gpxtpx:hr>147</gpxtpx:hr>
          </gpxtpx:TrackPointExtension>
        </extensions>
      </trkpt>
      <trkpt lat="49.34443" lon="1.06755">
        <ele>83.617614746094</ele>
        <time>2017-04-09T08:49:12.000Z</time>
        <extensions>
          <gpxtpx:TrackPointExtension xmlns:gpxtpx="http://www.garmin.com/xmlschemas/TrackPointExtension/v1">
            <gpxtpx:hr>147</gpxtpx:hr>
          </gpxtpx:TrackPointExtension>
        </extensions>
      </trkpt>
      <trkpt lat="49.34449" lon="1.0677">
        <ele>83.049911499023</ele>
        <time>2017-04-09T08:49:14.000Z</time>
      </trkpt>
      <trkpt lat="49.34451" lon="1.06785">
        <ele>82.67561340332</ele>
        <time>2017-04-09T08:49:16.000Z</time>
        <extensions>
          <gpxtpx:TrackPointExtension xmlns:gpxtpx="http://www.garmin.com/xmlschemas/TrackPointExtension/v1">
            <gpxtpx:hr>146</gpxtpx:hr>
          </gpxtpx:TrackPointExtension>
        </extensions>
      </trkpt>
      <trkpt lat="49.34454" lon="1.06804">
        <ele>82.432723999023</ele>
        <time>2017-04-09T08:49:19.000Z</time>
        <extensions>
          <gpxtpx:TrackPointExtension xmlns:gpxtpx="http://www.garmin.com/xmlschemas/TrackPointExtension/v1">
            <gpxtpx:hr>147</gpxtpx:hr>
          </gpxtpx:TrackPointExtension>
        </extensions>
      </trkpt>
      <trkpt lat="49.34462" lon="1.06827">
        <ele>82.373802185059</ele>
        <time>2017-04-09T08:49:22.000Z</time>
      </trkpt>
      <trkpt lat="49.34466" lon="1.06848">
        <ele>82.329238891602</ele>
        <time>2017-04-09T08:49:25.000Z</time>
      </trkpt>
      <trkpt lat="49.34475" lon="1.06856">
        <ele>82.253372192383</ele>
        <time>2017-04-09T08:49:28.000Z</time>
      </trkpt>
      <trkpt lat="49.34489" lon="1.06868">
        <ele>82.117813110352</ele>
        <time>2017-04-09T08:49:31.000Z</time>
      </trkpt>
      <trkpt lat="49.34497" lon="1.06873">
        <ele>81.946815490723</ele>
        <time>2017-04-09T08:49:33.000Z</time>
      </trkpt>
      <trkpt lat="49.34511" lon="1.06877">
        <ele>81.689430236816</ele>
        <time>2017-04-09T08:49:36.000Z</time>
      </trkpt>
      <trkpt lat="49.34521" lon="1.06878">
        <ele>81.422813415527</ele>
        <time>2017-04-09T08:49:38.000Z</time>
      </trkpt>
      <trkpt lat="49.34531" lon="1.06877">
        <ele>81.141166687012</ele>
        <time>2017-04-09T08:49:40.000Z</time>
      </trkpt>
      <trkpt lat="49.34546" lon="1.0688">
        <ele>80.811828613281</ele>
        <time>2017-04-09T08:49:43.000Z</time>
      </trkpt>
      <trkpt lat="49.34556" lon="1.0689">
        <ele>80.409072875977</ele>
        <time>2017-04-09T08:49:45.000Z</time>
      </trkpt>
      <trkpt lat="49.34571" lon="1.06906">
        <ele>79.923568725586</ele>
        <time>2017-04-09T08:49:48.000Z</time>
      </trkpt>
      <trkpt lat="49.34581" lon="1.06911">
        <ele>79.402305603027</ele>
        <time>2017-04-09T08:49:50.000Z</time>
      </trkpt>
      <trkpt lat="49.34592" lon="1.06916">
        <ele>78.837898254395</ele>
        <time>2017-04-09T08:49:52.000Z</time>
      </trkpt>
      <trkpt lat="49.34604" lon="1.06934">
        <ele>78.38249206543</ele>
        <time>2017-04-09T08:49:55.000Z</time>
      </trkpt>
      <trkpt lat="49.34614" lon="1.06955">
        <ele>78.072853088379</ele>
        <time>2017-04-09T08:49:58.000Z</time>
      </trkpt>
      <trkpt lat="49.34625" lon="1.06968">
        <ele>77.941909790039</ele>
        <time>2017-04-09T08:50:00.000Z</time>
        <extensions>
          <gpxtpx:TrackPointExtension xmlns:gpxtpx="http://www.garmin.com/xmlschemas/TrackPointExtension/v1">
            <gpxtpx:hr>146</gpxtpx:hr>
          </gpxtpx:TrackPointExtension>
        </extensions>
      </trkpt>
      <trkpt lat="49.34632" lon="1.06981">
        <ele>77.947036743164</ele>
        <time>2017-04-09T08:50:02.000Z</time>
        <extensions>
          <gpxtpx:TrackPointExtension xmlns:gpxtpx="http://www.garmin.com/xmlschemas/TrackPointExtension/v1">
            <gpxtpx:hr>146</gpxtpx:hr>
          </gpxtpx:TrackPointExtension>
        </extensions>
      </trkpt>
      <trkpt lat="49.34638" lon="1.06998">
        <ele>78.130004882812</ele>
        <time>2017-04-09T08:50:04.000Z</time>
        <extensions>
          <gpxtpx:TrackPointExtension xmlns:gpxtpx="http://www.garmin.com/xmlschemas/TrackPointExtension/v1">
            <gpxtpx:hr>144</gpxtpx:hr>
          </gpxtpx:TrackPointExtension>
        </extensions>
      </trkpt>
      <trkpt lat="49.34644" lon="1.0702">
        <ele>78.36360168457</ele>
        <time>2017-04-09T08:50:07.000Z</time>
        <extensions>
          <gpxtpx:TrackPointExtension xmlns:gpxtpx="http://www.garmin.com/xmlschemas/TrackPointExtension/v1">
            <gpxtpx:hr>144</gpxtpx:hr>
          </gpxtpx:TrackPointExtension>
        </extensions>
      </trkpt>
      <trkpt lat="49.34644" lon="1.07039">
        <ele>78.617935180664</ele>
        <time>2017-04-09T08:50:09.000Z</time>
        <extensions>
          <gpxtpx:TrackPointExtension xmlns:gpxtpx="http://www.garmin.com/xmlschemas/TrackPointExtension/v1">
            <gpxtpx:hr>145</gpxtpx:hr>
          </gpxtpx:TrackPointExtension>
        </extensions>
      </trkpt>
      <trkpt lat="49.34649" lon="1.07061">
        <ele>78.903938293457</ele>
        <time>2017-04-09T08:50:12.000Z</time>
        <extensions>
          <gpxtpx:TrackPointExtension xmlns:gpxtpx="http://www.garmin.com/xmlschemas/TrackPointExtension/v1">
            <gpxtpx:hr>144</gpxtpx:hr>
          </gpxtpx:TrackPointExtension>
        </extensions>
      </trkpt>
      <trkpt lat="49.34665" lon="1.07075">
        <ele>79.052688598633</ele>
        <time>2017-04-09T08:50:15.000Z</time>
        <extensions>
          <gpxtpx:TrackPointExtension xmlns:gpxtpx="http://www.garmin.com/xmlschemas/TrackPointExtension/v1">
            <gpxtpx:hr>143</gpxtpx:hr>
          </gpxtpx:TrackPointExtension>
        </extensions>
      </trkpt>
      <trkpt lat="49.3467" lon="1.07088">
        <ele>79.040428161621</ele>
        <time>2017-04-09T08:50:17.000Z</time>
        <extensions>
          <gpxtpx:TrackPointExtension xmlns:gpxtpx="http://www.garmin.com/xmlschemas/TrackPointExtension/v1">
            <gpxtpx:hr>144</gpxtpx:hr>
          </gpxtpx:TrackPointExtension>
        </extensions>
      </trkpt>
      <trkpt lat="49.34673" lon="1.07104">
        <ele>78.85334777832</ele>
        <time>2017-04-09T08:50:19.000Z</time>
        <extensions>
          <gpxtpx:TrackPointExtension xmlns:gpxtpx="http://www.garmin.com/xmlschemas/TrackPointExtension/v1">
            <gpxtpx:hr>142</gpxtpx:hr>
          </gpxtpx:TrackPointExtension>
        </extensions>
      </trkpt>
      <trkpt lat="49.34673" lon="1.07124">
        <ele>78.519775390625</ele>
        <time>2017-04-09T08:50:21.000Z</time>
        <extensions>
          <gpxtpx:TrackPointExtension xmlns:gpxtpx="http://www.garmin.com/xmlschemas/TrackPointExtension/v1">
            <gpxtpx:hr>139</gpxtpx:hr>
          </gpxtpx:TrackPointExtension>
        </extensions>
      </trkpt>
      <trkpt lat="49.34677" lon="1.07149">
        <ele>77.991271972656</ele>
        <time>2017-04-09T08:50:24.000Z</time>
      </trkpt>
      <trkpt lat="49.3468" lon="1.07172">
        <ele>77.447532653809</ele>
        <time>2017-04-09T08:50:27.000Z</time>
      </trkpt>
      <trkpt lat="49.34684" lon="1.07186">
        <ele>76.907188415527</ele>
        <time>2017-04-09T08:50:29.000Z</time>
      </trkpt>
      <trkpt lat="49.34689" lon="1.07209">
        <ele>76.375564575195</ele>
        <time>2017-04-09T08:50:32.000Z</time>
      </trkpt>
      <trkpt lat="49.3469" lon="1.07228">
        <ele>75.864433288574</ele>
        <time>2017-04-09T08:50:34.000Z</time>
      </trkpt>
      <trkpt lat="49.34689" lon="1.07253">
        <ele>75.432723999023</ele>
        <time>2017-04-09T08:50:37.000Z</time>
      </trkpt>
      <trkpt lat="49.34693" lon="1.07274">
        <ele>75.016525268555</ele>
        <time>2017-04-09T08:50:40.000Z</time>
      </trkpt>
      <trkpt lat="49.3469" lon="1.07295">
        <ele>74.600692749023</ele>
        <time>2017-04-09T08:50:43.000Z</time>
      </trkpt>
      <trkpt lat="49.34687" lon="1.07311">
        <ele>74.230545043945</ele>
        <time>2017-04-09T08:50:45.000Z</time>
      </trkpt>
      <trkpt lat="49.34681" lon="1.07333">
        <ele>73.826049804688</ele>
        <time>2017-04-09T08:50:48.000Z</time>
      </trkpt>
      <trkpt lat="49.34679" lon="1.07347">
        <ele>73.384475708008</ele>
        <time>2017-04-09T08:50:50.000Z</time>
      </trkpt>
      <trkpt lat="49.34689" lon="1.07358">
        <ele>72.937698364258</ele>
        <time>2017-04-09T08:50:53.000Z</time>
      </trkpt>
      <trkpt lat="49.34695" lon="1.07363">
        <ele>72.520278930664</ele>
        <time>2017-04-09T08:50:55.000Z</time>
      </trkpt>
      <trkpt lat="49.347" lon="1.07365">
        <ele>72.13720703125</ele>
        <time>2017-04-09T08:50:57.000Z</time>
      </trkpt>
      <trkpt lat="49.34711" lon="1.07371">
        <ele>71.770057678223</ele>
        <time>2017-04-09T08:51:00.000Z</time>
        <extensions>
          <gpxtpx:TrackPointExtension xmlns:gpxtpx="http://www.garmin.com/xmlschemas/TrackPointExtension/v1">
            <gpxtpx:hr>135</gpxtpx:hr>
          </gpxtpx:TrackPointExtension>
        </extensions>
      </trkpt>
      <trkpt lat="49.34721" lon="1.07376">
        <ele>71.439353942871</ele>
        <time>2017-04-09T08:51:02.000Z</time>
        <extensions>
          <gpxtpx:TrackPointExtension xmlns:gpxtpx="http://www.garmin.com/xmlschemas/TrackPointExtension/v1">
            <gpxtpx:hr>130</gpxtpx:hr>
          </gpxtpx:TrackPointExtension>
        </extensions>
      </trkpt>
      <trkpt lat="49.34734" lon="1.07381">
        <ele>71.119987487793</ele>
        <time>2017-04-09T08:51:05.000Z</time>
        <extensions>
          <gpxtpx:TrackPointExtension xmlns:gpxtpx="http://www.garmin.com/xmlschemas/TrackPointExtension/v1">
            <gpxtpx:hr>128</gpxtpx:hr>
          </gpxtpx:TrackPointExtension>
        </extensions>
      </trkpt>
      <trkpt lat="49.34747" lon="1.07388">
        <ele>70.729507446289</ele>
        <time>2017-04-09T08:51:08.000Z</time>
        <extensions>
          <gpxtpx:TrackPointExtension xmlns:gpxtpx="http://www.garmin.com/xmlschemas/TrackPointExtension/v1">
            <gpxtpx:hr>132</gpxtpx:hr>
          </gpxtpx:TrackPointExtension>
        </extensions>
      </trkpt>
      <trkpt lat="49.34758" lon="1.07394">
        <ele>70.20597076416</ele>
        <time>2017-04-09T08:51:11.000Z</time>
        <extensions>
          <gpxtpx:TrackPointExtension xmlns:gpxtpx="http://www.garmin.com/xmlschemas/TrackPointExtension/v1">
            <gpxtpx:hr>135</gpxtpx:hr>
          </gpxtpx:TrackPointExtension>
        </extensions>
      </trkpt>
      <trkpt lat="49.34764" lon="1.07393">
        <ele>69.692947387695</ele>
        <time>2017-04-09T08:51:13.000Z</time>
        <extensions>
          <gpxtpx:TrackPointExtension xmlns:gpxtpx="http://www.garmin.com/xmlschemas/TrackPointExtension/v1">
            <gpxtpx:hr>134</gpxtpx:hr>
          </gpxtpx:TrackPointExtension>
        </extensions>
      </trkpt>
      <trkpt lat="49.34774" lon="1.07392">
        <ele>69.134727478027</ele>
        <time>2017-04-09T08:51:15.000Z</time>
        <extensions>
          <gpxtpx:TrackPointExtension xmlns:gpxtpx="http://www.garmin.com/xmlschemas/TrackPointExtension/v1">
            <gpxtpx:hr>137</gpxtpx:hr>
          </gpxtpx:TrackPointExtension>
        </extensions>
      </trkpt>
      <trkpt lat="49.34779" lon="1.07385">
        <ele>68.697326660156</ele>
        <time>2017-04-09T08:51:17.000Z</time>
        <extensions>
          <gpxtpx:TrackPointExtension xmlns:gpxtpx="http://www.garmin.com/xmlschemas/TrackPointExtension/v1">
            <gpxtpx:hr>140</gpxtpx:hr>
          </gpxtpx:TrackPointExtension>
        </extensions>
      </trkpt>
      <trkpt lat="49.34782" lon="1.0738">
        <ele>68.397491455078</ele>
        <time>2017-04-09T08:51:19.000Z</time>
        <extensions>
          <gpxtpx:TrackPointExtension xmlns:gpxtpx="http://www.garmin.com/xmlschemas/TrackPointExtension/v1">
            <gpxtpx:hr>147</gpxtpx:hr>
          </gpxtpx:TrackPointExtension>
        </extensions>
      </trkpt>
      <trkpt lat="49.34787" lon="1.07372">
        <ele>68.302734375</ele>
        <time>2017-04-09T08:51:22.000Z</time>
      </trkpt>
      <trkpt lat="49.34788" lon="1.07369">
        <ele>68.294189453125</ele>
        <time>2017-04-09T08:51:25.000Z</time>
      </trkpt>
      <trkpt lat="49.34789" lon="1.07363">
        <ele>68.463409423828</ele>
        <time>2017-04-09T08:51:33.000Z</time>
      </trkpt>
      <trkpt lat="49.3479" lon="1.07359">
        <ele>68.643463134766</ele>
        <time>2017-04-09T08:51:36.000Z</time>
      </trkpt>
      <trkpt lat="49.3479" lon="1.07354">
        <ele>68.857849121094</ele>
        <time>2017-04-09T08:51:38.000Z</time>
      </trkpt>
      <trkpt lat="49.34795" lon="1.07342">
        <ele>69.1181640625</ele>
        <time>2017-04-09T08:51:41.000Z</time>
      </trkpt>
      <trkpt lat="49.34799" lon="1.07328">
        <ele>69.439308166504</ele>
        <time>2017-04-09T08:51:44.000Z</time>
      </trkpt>
      <trkpt lat="49.348" lon="1.07318">
        <ele>69.733016967773</ele>
        <time>2017-04-09T08:51:46.000Z</time>
      </trkpt>
      <trkpt lat="49.34798" lon="1.0731">
        <ele>70.024856567383</ele>
        <time>2017-04-09T08:51:48.000Z</time>
      </trkpt>
      <trkpt lat="49.34797" lon="1.07301">
        <ele>70.324417114258</ele>
        <time>2017-04-09T08:51:51.000Z</time>
      </trkpt>
      <trkpt lat="49.34793" lon="1.07295">
        <ele>70.592208862305</ele>
        <time>2017-04-09T08:51:53.000Z</time>
      </trkpt>
      <trkpt lat="49.34789" lon="1.07289">
        <ele>70.853164672852</ele>
        <time>2017-04-09T08:51:56.000Z</time>
      </trkpt>
      <trkpt lat="49.34786" lon="1.0728">
        <ele>71.135787963867</ele>
        <time>2017-04-09T08:51:59.000Z</time>
      </trkpt>
      <trkpt lat="49.34782" lon="1.07271">
        <ele>71.449089050293</ele>
        <time>2017-04-09T08:52:01.000Z</time>
        <extensions>
          <gpxtpx:TrackPointExtension xmlns:gpxtpx="http://www.garmin.com/xmlschemas/TrackPointExtension/v1">
            <gpxtpx:hr>150</gpxtpx:hr>
          </gpxtpx:TrackPointExtension>
        </extensions>
      </trkpt>
      <trkpt lat="49.34779" lon="1.07261">
        <ele>71.774719238281</ele>
        <time>2017-04-09T08:52:03.000Z</time>
        <extensions>
          <gpxtpx:TrackPointExtension xmlns:gpxtpx="http://www.garmin.com/xmlschemas/TrackPointExtension/v1">
            <gpxtpx:hr>148</gpxtpx:hr>
          </gpxtpx:TrackPointExtension>
        </extensions>
      </trkpt>
      <trkpt lat="49.34772" lon="1.07247">
        <ele>72.141738891602</ele>
        <time>2017-04-09T08:52:06.000Z</time>
        <extensions>
          <gpxtpx:TrackPointExtension xmlns:gpxtpx="http://www.garmin.com/xmlschemas/TrackPointExtension/v1">
            <gpxtpx:hr>149</gpxtpx:hr>
          </gpxtpx:TrackPointExtension>
        </extensions>
      </trkpt>
      <trkpt lat="49.34766" lon="1.07234">
        <ele>72.47087097168</ele>
        <time>2017-04-09T08:52:08.000Z</time>
        <extensions>
          <gpxtpx:TrackPointExtension xmlns:gpxtpx="http://www.garmin.com/xmlschemas/TrackPointExtension/v1">
            <gpxtpx:hr>150</gpxtpx:hr>
          </gpxtpx:TrackPointExtension>
        </extensions>
      </trkpt>
      <trkpt lat="49.3476" lon="1.07227">
        <ele>72.783302307129</ele>
        <time>2017-04-09T08:52:11.000Z</time>
        <extensions>
          <gpxtpx:TrackPointExtension xmlns:gpxtpx="http://www.garmin.com/xmlschemas/TrackPointExtension/v1">
            <gpxtpx:hr>150</gpxtpx:hr>
          </gpxtpx:TrackPointExtension>
        </extensions>
      </trkpt>
      <trkpt lat="49.34758" lon="1.07221">
        <ele>73.034362792969</ele>
        <time>2017-04-09T08:52:13.000Z</time>
        <extensions>
          <gpxtpx:TrackPointExtension xmlns:gpxtpx="http://www.garmin.com/xmlschemas/TrackPointExtension/v1">
            <gpxtpx:hr>149</gpxtpx:hr>
          </gpxtpx:TrackPointExtension>
        </extensions>
      </trkpt>
      <trkpt lat="49.34755" lon="1.07208">
        <ele>73.208610534668</ele>
        <time>2017-04-09T08:52:16.000Z</time>
        <extensions>
          <gpxtpx:TrackPointExtension xmlns:gpxtpx="http://www.garmin.com/xmlschemas/TrackPointExtension/v1">
            <gpxtpx:hr>150</gpxtpx:hr>
          </gpxtpx:TrackPointExtension>
        </extensions>
      </trkpt>
      <trkpt lat="49.34749" lon="1.07198">
        <ele>73.301216125488</ele>
        <time>2017-04-09T08:52:19.000Z</time>
        <extensions>
          <gpxtpx:TrackPointExtension xmlns:gpxtpx="http://www.garmin.com/xmlschemas/TrackPointExtension/v1">
            <gpxtpx:hr>152</gpxtpx:hr>
          </gpxtpx:TrackPointExtension>
        </extensions>
      </trkpt>
      <trkpt lat="49.34742" lon="1.07189">
        <ele>73.38996887207</ele>
        <time>2017-04-09T08:52:22.000Z</time>
      </trkpt>
      <trkpt lat="49.34735" lon="1.07179">
        <ele>73.480834960938</ele>
        <time>2017-04-09T08:52:25.000Z</time>
      </trkpt>
      <trkpt lat="49.3473" lon="1.0717">
        <ele>73.601531982422</ele>
        <time>2017-04-09T08:52:27.000Z</time>
      </trkpt>
      <trkpt lat="49.34724" lon="1.0716">
        <ele>73.770401000977</ele>
        <time>2017-04-09T08:52:29.000Z</time>
      </trkpt>
      <trkpt lat="49.34718" lon="1.0715">
        <ele>73.97346496582</ele>
        <time>2017-04-09T08:52:32.000Z</time>
      </trkpt>
      <trkpt lat="49.34714" lon="1.07143">
        <ele>74.192054748535</ele>
        <time>2017-04-09T08:52:34.000Z</time>
      </trkpt>
      <trkpt lat="49.3471" lon="1.07132">
        <ele>74.417785644531</ele>
        <time>2017-04-09T08:52:37.000Z</time>
      </trkpt>
      <trkpt lat="49.34708" lon="1.07122">
        <ele>74.632675170898</ele>
        <time>2017-04-09T08:52:39.000Z</time>
      </trkpt>
      <trkpt lat="49.34705" lon="1.0711">
        <ele>74.847229003906</ele>
        <time>2017-04-09T08:52:42.000Z</time>
      </trkpt>
      <trkpt lat="49.34703" lon="1.07097">
        <ele>75.051261901855</ele>
        <time>2017-04-09T08:52:45.000Z</time>
      </trkpt>
      <trkpt lat="49.34705" lon="1.07087">
        <ele>75.183250427246</ele>
        <time>2017-04-09T08:52:47.000Z</time>
      </trkpt>
      <trkpt lat="49.34707" lon="1.07074">
        <ele>75.239303588867</ele>
        <time>2017-04-09T08:52:50.000Z</time>
      </trkpt>
      <trkpt lat="49.34705" lon="1.07066">
        <ele>75.31175994873</ele>
        <time>2017-04-09T08:52:52.000Z</time>
      </trkpt>
      <trkpt lat="49.34702" lon="1.07055">
        <ele>75.409362792969</ele>
        <time>2017-04-09T08:52:55.000Z</time>
      </trkpt>
      <trkpt lat="49.347" lon="1.07046">
        <ele>75.491416931152</ele>
        <time>2017-04-09T08:52:57.000Z</time>
      </trkpt>
      <trkpt lat="49.34698" lon="1.07034">
        <ele>75.641441345215</ele>
        <time>2017-04-09T08:53:00.000Z</time>
        <extensions>
          <gpxtpx:TrackPointExtension xmlns:gpxtpx="http://www.garmin.com/xmlschemas/TrackPointExtension/v1">
            <gpxtpx:hr>152</gpxtpx:hr>
          </gpxtpx:TrackPointExtension>
        </extensions>
      </trkpt>
      <trkpt lat="49.34699" lon="1.07025">
        <ele>75.809913635254</ele>
        <time>2017-04-09T08:53:02.000Z</time>
        <extensions>
          <gpxtpx:TrackPointExtension xmlns:gpxtpx="http://www.garmin.com/xmlschemas/TrackPointExtension/v1">
            <gpxtpx:hr>152</gpxtpx:hr>
          </gpxtpx:TrackPointExtension>
        </extensions>
      </trkpt>
      <trkpt lat="49.34699" lon="1.07011">
        <ele>75.933937072754</ele>
        <time>2017-04-09T08:53:05.000Z</time>
        <extensions>
          <gpxtpx:TrackPointExtension xmlns:gpxtpx="http://www.garmin.com/xmlschemas/TrackPointExtension/v1">
            <gpxtpx:hr>151</gpxtpx:hr>
          </gpxtpx:TrackPointExtension>
        </extensions>
      </trkpt>
      <trkpt lat="49.34699" lon="1.06997">
        <ele>75.985977172852</ele>
        <time>2017-04-09T08:53:08.000Z</time>
        <extensions>
          <gpxtpx:TrackPointExtension xmlns:gpxtpx="http://www.garmin.com/xmlschemas/TrackPointExtension/v1">
            <gpxtpx:hr>147</gpxtpx:hr>
          </gpxtpx:TrackPointExtension>
        </extensions>
      </trkpt>
      <trkpt lat="49.34698" lon="1.06982">
        <ele>75.941734313965</ele>
        <time>2017-04-09T08:53:11.000Z</time>
        <extensions>
          <gpxtpx:TrackPointExtension xmlns:gpxtpx="http://www.garmin.com/xmlschemas/TrackPointExtension/v1">
            <gpxtpx:hr>144</gpxtpx:hr>
          </gpxtpx:TrackPointExtension>
        </extensions>
      </trkpt>
      <trkpt lat="49.34697" lon="1.06972">
        <ele>75.812377929688</ele>
        <time>2017-04-09T08:53:13.000Z</time>
        <extensions>
          <gpxtpx:TrackPointExtension xmlns:gpxtpx="http://www.garmin.com/xmlschemas/TrackPointExtension/v1">
            <gpxtpx:hr>144</gpxtpx:hr>
          </gpxtpx:TrackPointExtension>
        </extensions>
      </trkpt>
      <trkpt lat="49.347" lon="1.06956">
        <ele>75.574417114258</ele>
        <time>2017-04-09T08:53:16.000Z</time>
        <extensions>
          <gpxtpx:TrackPointExtension xmlns:gpxtpx="http://www.garmin.com/xmlschemas/TrackPointExtension/v1">
            <gpxtpx:hr>141</gpxtpx:hr>
          </gpxtpx:TrackPointExtension>
        </extensions>
      </trkpt>
      <trkpt lat="49.34702" lon="1.06942">
        <ele>75.252304077148</ele>
        <time>2017-04-09T08:53:18.000Z</time>
        <extensions>
          <gpxtpx:TrackPointExtension xmlns:gpxtpx="http://www.garmin.com/xmlschemas/TrackPointExtension/v1">
            <gpxtpx:hr>146</gpxtpx:hr>
          </gpxtpx:TrackPointExtension>
        </extensions>
      </trkpt>
      <trkpt lat="49.34706" lon="1.06923">
        <ele>74.802917480469</ele>
        <time>2017-04-09T08:53:20.000Z</time>
      </trkpt>
      <trkpt lat="49.34715" lon="1.06908">
        <ele>74.322868347168</ele>
        <time>2017-04-09T08:53:23.000Z</time>
      </trkpt>
      <trkpt lat="49.34727" lon="1.06904">
        <ele>73.785751342773</ele>
        <time>2017-04-09T08:53:26.000Z</time>
      </trkpt>
      <trkpt lat="49.3474" lon="1.06912">
        <ele>73.282127380371</ele>
        <time>2017-04-09T08:53:29.000Z</time>
      </trkpt>
      <trkpt lat="49.34752" lon="1.06921">
        <ele>72.812705993652</ele>
        <time>2017-04-09T08:53:32.000Z</time>
      </trkpt>
      <trkpt lat="49.34758" lon="1.06925">
        <ele>72.497528076172</ele>
        <time>2017-04-09T08:53:34.000Z</time>
      </trkpt>
      <trkpt lat="49.34767" lon="1.06924">
        <ele>72.29955291748</ele>
        <time>2017-04-09T08:53:37.000Z</time>
      </trkpt>
      <trkpt lat="49.34772" lon="1.06914">
        <ele>72.20295715332</ele>
        <time>2017-04-09T08:53:39.000Z</time>
      </trkpt>
      <trkpt lat="49.34779" lon="1.06894">
        <ele>72.193183898926</ele>
        <time>2017-04-09T08:53:42.000Z</time>
      </trkpt>
      <trkpt lat="49.34786" lon="1.06877">
        <ele>72.254234313965</ele>
        <time>2017-04-09T08:53:45.000Z</time>
      </trkpt>
      <trkpt lat="49.34792" lon="1.0686">
        <ele>72.326644897461</ele>
        <time>2017-04-09T08:53:48.000Z</time>
      </trkpt>
      <trkpt lat="49.34798" lon="1.06852">
        <ele>72.416656494141</ele>
        <time>2017-04-09T08:53:50.000Z</time>
      </trkpt>
      <trkpt lat="49.34804" lon="1.06839">
        <ele>72.554039001465</ele>
        <time>2017-04-09T08:53:53.000Z</time>
      </trkpt>
      <trkpt lat="49.34808" lon="1.06829">
        <ele>72.735221862793</ele>
        <time>2017-04-09T08:53:55.000Z</time>
      </trkpt>
      <trkpt lat="49.34812" lon="1.06817">
        <ele>72.966537475586</ele>
        <time>2017-04-09T08:53:58.000Z</time>
      </trkpt>
      <trkpt lat="49.34816" lon="1.06806">
        <ele>73.228408813477</ele>
        <time>2017-04-09T08:54:01.000Z</time>
        <extensions>
          <gpxtpx:TrackPointExtension xmlns:gpxtpx="http://www.garmin.com/xmlschemas/TrackPointExtension/v1">
            <gpxtpx:hr>144</gpxtpx:hr>
          </gpxtpx:TrackPointExtension>
        </extensions>
      </trkpt>
      <trkpt lat="49.34821" lon="1.06796">
        <ele>73.515983581543</ele>
        <time>2017-04-09T08:54:04.000Z</time>
        <extensions>
          <gpxtpx:TrackPointExtension xmlns:gpxtpx="http://www.garmin.com/xmlschemas/TrackPointExtension/v1">
            <gpxtpx:hr>143</gpxtpx:hr>
          </gpxtpx:TrackPointExtension>
        </extensions>
      </trkpt>
      <trkpt lat="49.34825" lon="1.06785">
        <ele>73.808670043945</ele>
        <time>2017-04-09T08:54:07.000Z</time>
        <extensions>
          <gpxtpx:TrackPointExtension xmlns:gpxtpx="http://www.garmin.com/xmlschemas/TrackPointExtension/v1">
            <gpxtpx:hr>143</gpxtpx:hr>
          </gpxtpx:TrackPointExtension>
        </extensions>
      </trkpt>
      <trkpt lat="49.34829" lon="1.06775">
        <ele>74.100761413574</ele>
        <time>2017-04-09T08:54:10.000Z</time>
        <extensions>
          <gpxtpx:TrackPointExtension xmlns:gpxtpx="http://www.garmin.com/xmlschemas/TrackPointExtension/v1">
            <gpxtpx:hr>143</gpxtpx:hr>
          </gpxtpx:TrackPointExtension>
        </extensions>
      </trkpt>
      <trkpt lat="49.34831" lon="1.06767">
        <ele>74.347923278809</ele>
        <time>2017-04-09T08:54:12.000Z</time>
        <extensions>
          <gpxtpx:TrackPointExtension xmlns:gpxtpx="http://www.garmin.com/xmlschemas/TrackPointExtension/v1">
            <gpxtpx:hr>142</gpxtpx:hr>
          </gpxtpx:TrackPointExtension>
        </extensions>
      </trkpt>
      <trkpt lat="49.34834" lon="1.06752">
        <ele>74.591835021973</ele>
        <time>2017-04-09T08:54:15.000Z</time>
      </trkpt>
      <trkpt lat="49.34837" lon="1.06739">
        <ele>74.938583374023</ele>
        <time>2017-04-09T08:54:18.000Z</time>
        <extensions>
          <gpxtpx:TrackPointExtension xmlns:gpxtpx="http://www.garmin.com/xmlschemas/TrackPointExtension/v1">
            <gpxtpx:hr>141</gpxtpx:hr>
          </gpxtpx:TrackPointExtension>
        </extensions>
      </trkpt>
      <trkpt lat="49.34842" lon="1.06725">
        <ele>75.423233032227</ele>
        <time>2017-04-09T08:54:21.000Z</time>
        <extensions>
          <gpxtpx:TrackPointExtension xmlns:gpxtpx="http://www.garmin.com/xmlschemas/TrackPointExtension/v1">
            <gpxtpx:hr>141</gpxtpx:hr>
          </gpxtpx:TrackPointExtension>
        </extensions>
      </trkpt>
      <trkpt lat="49.34844" lon="1.06714">
        <ele>75.980140686035</ele>
        <time>2017-04-09T08:54:23.000Z</time>
      </trkpt>
      <trkpt lat="49.34848" lon="1.067">
        <ele>76.676170349121</ele>
        <time>2017-04-09T08:54:26.000Z</time>
      </trkpt>
      <trkpt lat="49.34853" lon="1.06685">
        <ele>77.488388061523</ele>
        <time>2017-04-09T08:54:29.000Z</time>
      </trkpt>
      <trkpt lat="49.34856" lon="1.06671">
        <ele>78.27555847168</ele>
        <time>2017-04-09T08:54:32.000Z</time>
      </trkpt>
      <trkpt lat="49.34859" lon="1.06661">
        <ele>78.957725524902</ele>
        <time>2017-04-09T08:54:34.000Z</time>
      </trkpt>
      <trkpt lat="49.34866" lon="1.06649">
        <ele>79.629135131836</ele>
        <time>2017-04-09T08:54:37.000Z</time>
      </trkpt>
      <trkpt lat="49.3487" lon="1.06635">
        <ele>80.209457397461</ele>
        <time>2017-04-09T08:54:40.000Z</time>
      </trkpt>
      <trkpt lat="49.34872" lon="1.06626">
        <ele>80.646858215332</ele>
        <time>2017-04-09T08:54:42.000Z</time>
      </trkpt>
      <trkpt lat="49.34875" lon="1.06612">
        <ele>80.983612060547</ele>
        <time>2017-04-09T08:54:45.000Z</time>
      </trkpt>
      <trkpt lat="49.34877" lon="1.06597">
        <ele>81.269493103027</ele>
        <time>2017-04-09T08:54:48.000Z</time>
      </trkpt>
      <trkpt lat="49.3488" lon="1.06586">
        <ele>81.476181030273</ele>
        <time>2017-04-09T08:54:50.000Z</time>
      </trkpt>
      <trkpt lat="49.34884" lon="1.06577">
        <ele>81.66047668457</ele>
        <time>2017-04-09T08:54:52.000Z</time>
      </trkpt>
      <trkpt lat="49.34889" lon="1.06572">
        <ele>81.858154296875</ele>
        <time>2017-04-09T08:54:54.000Z</time>
      </trkpt>
      <trkpt lat="49.34895" lon="1.06561">
        <ele>82.068687438965</ele>
        <time>2017-04-09T08:54:57.000Z</time>
      </trkpt>
      <trkpt lat="49.34902" lon="1.06549">
        <ele>82.27033996582</ele>
        <time>2017-04-09T08:55:00.000Z</time>
        <extensions>
          <gpxtpx:TrackPointExtension xmlns:gpxtpx="http://www.garmin.com/xmlschemas/TrackPointExtension/v1">
            <gpxtpx:hr>139</gpxtpx:hr>
          </gpxtpx:TrackPointExtension>
        </extensions>
      </trkpt>
      <trkpt lat="49.34906" lon="1.06541">
        <ele>82.447395324707</ele>
        <time>2017-04-09T08:55:02.000Z</time>
        <extensions>
          <gpxtpx:TrackPointExtension xmlns:gpxtpx="http://www.garmin.com/xmlschemas/TrackPointExtension/v1">
            <gpxtpx:hr>143</gpxtpx:hr>
          </gpxtpx:TrackPointExtension>
        </extensions>
      </trkpt>
      <trkpt lat="49.34911" lon="1.06533">
        <ele>82.563919067383</ele>
        <time>2017-04-09T08:55:04.000Z</time>
        <extensions>
          <gpxtpx:TrackPointExtension xmlns:gpxtpx="http://www.garmin.com/xmlschemas/TrackPointExtension/v1">
            <gpxtpx:hr>144</gpxtpx:hr>
          </gpxtpx:TrackPointExtension>
        </extensions>
      </trkpt>
      <trkpt lat="49.34917" lon="1.06521">
        <ele>82.613555908203</ele>
        <time>2017-04-09T08:55:07.000Z</time>
      </trkpt>
      <trkpt lat="49.34922" lon="1.06514">
        <ele>82.671249389648</ele>
        <time>2017-04-09T08:55:09.000Z</time>
        <extensions>
          <gpxtpx:TrackPointExtension xmlns:gpxtpx="http://www.garmin.com/xmlschemas/TrackPointExtension/v1">
            <gpxtpx:hr>144</gpxtpx:hr>
          </gpxtpx:TrackPointExtension>
        </extensions>
      </trkpt>
      <trkpt lat="49.34926" lon="1.06505">
        <ele>82.746398925781</ele>
        <time>2017-04-09T08:55:11.000Z</time>
      </trkpt>
      <trkpt lat="49.34932" lon="1.06494">
        <ele>82.904251098633</ele>
        <time>2017-04-09T08:55:14.000Z</time>
      </trkpt>
      <trkpt lat="49.34935" lon="1.06484">
        <ele>83.133224487305</ele>
        <time>2017-04-09T08:55:16.000Z</time>
      </trkpt>
      <trkpt lat="49.3494" lon="1.0647">
        <ele>83.469688415527</ele>
        <time>2017-04-09T08:55:19.000Z</time>
      </trkpt>
      <trkpt lat="49.34943" lon="1.06461">
        <ele>83.804344177246</ele>
        <time>2017-04-09T08:55:21.000Z</time>
      </trkpt>
      <trkpt lat="49.34945" lon="1.06444">
        <ele>84.1484375</ele>
        <time>2017-04-09T08:55:24.000Z</time>
      </trkpt>
      <trkpt lat="49.34946" lon="1.06433">
        <ele>84.421875</ele>
        <time>2017-04-09T08:55:26.000Z</time>
      </trkpt>
      <trkpt lat="49.34948" lon="1.06417">
        <ele>84.671875</ele>
        <time>2017-04-09T08:55:29.000Z</time>
      </trkpt>
      <trkpt lat="49.34949" lon="1.06406">
        <ele>84.860069274902</ele>
        <time>2017-04-09T08:55:31.000Z</time>
      </trkpt>
      <trkpt lat="49.34954" lon="1.0639">
        <ele>85.057144165039</ele>
        <time>2017-04-09T08:55:34.000Z</time>
      </trkpt>
      <trkpt lat="49.34957" lon="1.0638">
        <ele>85.245346069336</ele>
        <time>2017-04-09T08:55:36.000Z</time>
      </trkpt>
      <trkpt lat="49.34961" lon="1.06366">
        <ele>85.442085266113</ele>
        <time>2017-04-09T08:55:39.000Z</time>
      </trkpt>
      <trkpt lat="49.34963" lon="1.06349">
        <ele>85.600288391113</ele>
        <time>2017-04-09T08:55:42.000Z</time>
      </trkpt>
      <trkpt lat="49.34965" lon="1.06339">
        <ele>85.724502563477</ele>
        <time>2017-04-09T08:55:44.000Z</time>
      </trkpt>
      <trkpt lat="49.34969" lon="1.06325">
        <ele>85.803344726562</ele>
        <time>2017-04-09T08:55:47.000Z</time>
      </trkpt>
      <trkpt lat="49.34975" lon="1.06311">
        <ele>85.853736877441</ele>
        <time>2017-04-09T08:55:50.000Z</time>
      </trkpt>
      <trkpt lat="49.34979" lon="1.06302">
        <ele>85.880813598633</ele>
        <time>2017-04-09T08:55:52.000Z</time>
      </trkpt>
      <trkpt lat="49.34984" lon="1.06294">
        <ele>85.901550292969</ele>
        <time>2017-04-09T08:55:54.000Z</time>
      </trkpt>
      <trkpt lat="49.34991" lon="1.06283">
        <ele>85.904914855957</ele>
        <time>2017-04-09T08:55:57.000Z</time>
      </trkpt>
      <trkpt lat="49.34998" lon="1.06273">
        <ele>85.842880249023</ele>
        <time>2017-04-09T08:56:00.000Z</time>
        <extensions>
          <gpxtpx:TrackPointExtension xmlns:gpxtpx="http://www.garmin.com/xmlschemas/TrackPointExtension/v1">
            <gpxtpx:hr>144</gpxtpx:hr>
          </gpxtpx:TrackPointExtension>
        </extensions>
      </trkpt>
      <trkpt lat="49.35002" lon="1.06267">
        <ele>85.751533508301</ele>
        <time>2017-04-09T08:56:02.000Z</time>
        <extensions>
          <gpxtpx:TrackPointExtension xmlns:gpxtpx="http://www.garmin.com/xmlschemas/TrackPointExtension/v1">
            <gpxtpx:hr>141</gpxtpx:hr>
          </gpxtpx:TrackPointExtension>
        </extensions>
      </trkpt>
      <trkpt lat="49.35007" lon="1.06256">
        <ele>85.671737670898</ele>
        <time>2017-04-09T08:56:05.000Z</time>
        <extensions>
          <gpxtpx:TrackPointExtension xmlns:gpxtpx="http://www.garmin.com/xmlschemas/TrackPointExtension/v1">
            <gpxtpx:hr>141</gpxtpx:hr>
          </gpxtpx:TrackPointExtension>
        </extensions>
      </trkpt>
      <trkpt lat="49.35011" lon="1.0625">
        <ele>85.616622924805</ele>
        <time>2017-04-09T08:56:07.000Z</time>
        <extensions>
          <gpxtpx:TrackPointExtension xmlns:gpxtpx="http://www.garmin.com/xmlschemas/TrackPointExtension/v1">
            <gpxtpx:hr>141</gpxtpx:hr>
          </gpxtpx:TrackPointExtension>
        </extensions>
      </trkpt>
      <trkpt lat="49.35015" lon="1.06242">
        <ele>85.627662658691</ele>
        <time>2017-04-09T08:56:09.000Z</time>
        <extensions>
          <gpxtpx:TrackPointExtension xmlns:gpxtpx="http://www.garmin.com/xmlschemas/TrackPointExtension/v1">
            <gpxtpx:hr>140</gpxtpx:hr>
          </gpxtpx:TrackPointExtension>
        </extensions>
      </trkpt>
      <trkpt lat="49.35022" lon="1.0623">
        <ele>85.736022949219</ele>
        <time>2017-04-09T08:56:12.000Z</time>
        <extensions>
          <gpxtpx:TrackPointExtension xmlns:gpxtpx="http://www.garmin.com/xmlschemas/TrackPointExtension/v1">
            <gpxtpx:hr>141</gpxtpx:hr>
          </gpxtpx:TrackPointExtension>
        </extensions>
      </trkpt>
      <trkpt lat="49.35026" lon="1.06221">
        <ele>85.883865356445</ele>
        <time>2017-04-09T08:56:14.000Z</time>
        <extensions>
          <gpxtpx:TrackPointExtension xmlns:gpxtpx="http://www.garmin.com/xmlschemas/TrackPointExtension/v1">
            <gpxtpx:hr>139</gpxtpx:hr>
          </gpxtpx:TrackPointExtension>
        </extensions>
      </trkpt>
      <trkpt lat="49.35032" lon="1.06208">
        <ele>86.034713745117</ele>
        <time>2017-04-09T08:56:17.000Z</time>
        <extensions>
          <gpxtpx:TrackPointExtension xmlns:gpxtpx="http://www.garmin.com/xmlschemas/TrackPointExtension/v1">
            <gpxtpx:hr>140</gpxtpx:hr>
          </gpxtpx:TrackPointExtension>
        </extensions>
      </trkpt>
      <trkpt lat="49.35036" lon="1.062">
        <ele>86.176597595215</ele>
        <time>2017-04-09T08:56:19.000Z</time>
        <extensions>
          <gpxtpx:TrackPointExtension xmlns:gpxtpx="http://www.garmin.com/xmlschemas/TrackPointExtension/v1">
            <gpxtpx:hr>143</gpxtpx:hr>
          </gpxtpx:TrackPointExtension>
        </extensions>
      </trkpt>
      <trkpt lat="49.35039" lon="1.0619">
        <ele>86.271179199219</ele>
        <time>2017-04-09T08:56:21.000Z</time>
      </trkpt>
      <trkpt lat="49.35043" lon="1.06181">
        <ele>86.309288024902</ele>
        <time>2017-04-09T08:56:23.000Z</time>
      </trkpt>
      <trkpt lat="49.35051" lon="1.06167">
        <ele>86.306274414062</ele>
        <time>2017-04-09T08:56:26.000Z</time>
      </trkpt>
      <trkpt lat="49.35054" lon="1.0616">
        <ele>86.353775024414</ele>
        <time>2017-04-09T08:56:28.000Z</time>
      </trkpt>
      <trkpt lat="49.35058" lon="1.06156">
        <ele>86.433670043945</ele>
        <time>2017-04-09T08:56:30.000Z</time>
      </trkpt>
      <trkpt lat="49.35061" lon="1.06152">
        <ele>86.550979614258</ele>
        <time>2017-04-09T08:56:32.000Z</time>
      </trkpt>
      <trkpt lat="49.35065" lon="1.06149">
        <ele>86.702041625977</ele>
        <time>2017-04-09T08:56:35.000Z</time>
      </trkpt>
      <trkpt lat="49.35066" lon="1.06147">
        <ele>86.880065917969</ele>
        <time>2017-04-09T08:56:37.000Z</time>
      </trkpt>
      <trkpt lat="49.35067" lon="1.06145">
        <ele>87.005149841309</ele>
        <time>2017-04-09T08:56:39.000Z</time>
      </trkpt>
      <trkpt lat="49.35066" lon="1.06141">
        <ele>87.107200622559</ele>
        <time>2017-04-09T08:56:42.000Z</time>
      </trkpt>
      <trkpt lat="49.35066" lon="1.06137">
        <ele>87.200355529785</ele>
        <time>2017-04-09T08:56:44.000Z</time>
      </trkpt>
      <trkpt lat="49.35067" lon="1.06131">
        <ele>87.297500610352</ele>
        <time>2017-04-09T08:56:47.000Z</time>
      </trkpt>
      <trkpt lat="49.3507" lon="1.0613">
        <ele>87.385757446289</ele>
        <time>2017-04-09T08:56:49.000Z</time>
      </trkpt>
      <trkpt lat="49.35073" lon="1.06133">
        <ele>87.440528869629</ele>
        <time>2017-04-09T08:56:52.000Z</time>
      </trkpt>
      <trkpt lat="49.35077" lon="1.06137">
        <ele>87.458763122559</ele>
        <time>2017-04-09T08:56:55.000Z</time>
      </trkpt>
      <trkpt lat="49.35081" lon="1.06142">
        <ele>87.441879272461</ele>
        <time>2017-04-09T08:56:58.000Z</time>
      </trkpt>
      <trkpt lat="49.35085" lon="1.06145">
        <ele>87.401336669922</ele>
        <time>2017-04-09T08:57:00.000Z</time>
        <extensions>
          <gpxtpx:TrackPointExtension xmlns:gpxtpx="http://www.garmin.com/xmlschemas/TrackPointExtension/v1">
            <gpxtpx:hr>152</gpxtpx:hr>
          </gpxtpx:TrackPointExtension>
        </extensions>
      </trkpt>
      <trkpt lat="49.35087" lon="1.0615">
        <ele>87.373611450195</ele>
        <time>2017-04-09T08:57:02.000Z</time>
        <extensions>
          <gpxtpx:TrackPointExtension xmlns:gpxtpx="http://www.garmin.com/xmlschemas/TrackPointExtension/v1">
            <gpxtpx:hr>162</gpxtpx:hr>
          </gpxtpx:TrackPointExtension>
        </extensions>
      </trkpt>
      <trkpt lat="49.35089" lon="1.06155">
        <ele>87.383689880371</ele>
        <time>2017-04-09T08:57:04.000Z</time>
        <extensions>
          <gpxtpx:TrackPointExtension xmlns:gpxtpx="http://www.garmin.com/xmlschemas/TrackPointExtension/v1">
            <gpxtpx:hr>167</gpxtpx:hr>
          </gpxtpx:TrackPointExtension>
        </extensions>
      </trkpt>
      <trkpt lat="49.35093" lon="1.06162">
        <ele>87.434173583984</ele>
        <time>2017-04-09T08:57:07.000Z</time>
        <extensions>
          <gpxtpx:TrackPointExtension xmlns:gpxtpx="http://www.garmin.com/xmlschemas/TrackPointExtension/v1">
            <gpxtpx:hr>166</gpxtpx:hr>
          </gpxtpx:TrackPointExtension>
        </extensions>
      </trkpt>
      <trkpt lat="49.35097" lon="1.06167">
        <ele>87.543342590332</ele>
        <time>2017-04-09T08:57:10.000Z</time>
        <extensions>
          <gpxtpx:TrackPointExtension xmlns:gpxtpx="http://www.garmin.com/xmlschemas/TrackPointExtension/v1">
            <gpxtpx:hr>163</gpxtpx:hr>
          </gpxtpx:TrackPointExtension>
        </extensions>
      </trkpt>
      <trkpt lat="49.35099" lon="1.0617">
        <ele>87.676452636719</ele>
        <time>2017-04-09T08:57:12.000Z</time>
        <extensions>
          <gpxtpx:TrackPointExtension xmlns:gpxtpx="http://www.garmin.com/xmlschemas/TrackPointExtension/v1">
            <gpxtpx:hr>162</gpxtpx:hr>
          </gpxtpx:TrackPointExtension>
        </extensions>
      </trkpt>
      <trkpt lat="49.35102" lon="1.06173">
        <ele>87.838088989258</ele>
        <time>2017-04-09T08:57:14.000Z</time>
        <extensions>
          <gpxtpx:TrackPointExtension xmlns:gpxtpx="http://www.garmin.com/xmlschemas/TrackPointExtension/v1">
            <gpxtpx:hr>158</gpxtpx:hr>
          </gpxtpx:TrackPointExtension>
        </extensions>
      </trkpt>
      <trkpt lat="49.35104" lon="1.06176">
        <ele>88.01505279541</ele>
        <time>2017-04-09T08:57:16.000Z</time>
      </trkpt>
      <trkpt lat="49.35107" lon="1.06177">
        <ele>88.203742980957</ele>
        <time>2017-04-09T08:57:18.000Z</time>
      </trkpt>
      <trkpt lat="49.3511" lon="1.06179">
        <ele>88.390060424805</ele>
        <time>2017-04-09T08:57:21.000Z</time>
      </trkpt>
      <trkpt lat="49.35114" lon="1.06184">
        <ele>88.589904785156</ele>
        <time>2017-04-09T08:57:24.000Z</time>
      </trkpt>
      <trkpt lat="49.35117" lon="1.06187">
        <ele>88.774848937988</ele>
        <time>2017-04-09T08:57:26.000Z</time>
      </trkpt>
      <trkpt lat="49.35118" lon="1.0619">
        <ele>88.943893432617</ele>
        <time>2017-04-09T08:57:28.000Z</time>
      </trkpt>
      <trkpt lat="49.35118" lon="1.06196">
        <ele>89.080192565918</ele>
        <time>2017-04-09T08:57:31.000Z</time>
      </trkpt>
      <trkpt lat="49.35118" lon="1.06205">
        <ele>89.188125610352</ele>
        <time>2017-04-09T08:57:34.000Z</time>
      </trkpt>
      <trkpt lat="49.35117" lon="1.0621">
        <ele>89.253005981445</ele>
        <time>2017-04-09T08:57:36.000Z</time>
      </trkpt>
      <trkpt lat="49.35116" lon="1.06214">
        <ele>89.289840698242</ele>
        <time>2017-04-09T08:57:38.000Z</time>
      </trkpt>
      <trkpt lat="49.35114" lon="1.0622">
        <ele>89.313400268555</ele>
        <time>2017-04-09T08:57:41.000Z</time>
      </trkpt>
      <trkpt lat="49.35113" lon="1.06225">
        <ele>89.341735839844</ele>
        <time>2017-04-09T08:57:43.000Z</time>
      </trkpt>
      <trkpt lat="49.35111" lon="1.06234">
        <ele>89.374946594238</ele>
        <time>2017-04-09T08:57:46.000Z</time>
      </trkpt>
      <trkpt lat="49.3511" lon="1.0624">
        <ele>89.421905517578</ele>
        <time>2017-04-09T08:57:48.000Z</time>
      </trkpt>
      <trkpt lat="49.35106" lon="1.06247">
        <ele>89.489334106445</ele>
        <time>2017-04-09T08:57:50.000Z</time>
      </trkpt>
      <trkpt lat="49.35102" lon="1.06257">
        <ele>89.589561462402</ele>
        <time>2017-04-09T08:57:53.000Z</time>
      </trkpt>
      <trkpt lat="49.35101" lon="1.06265">
        <ele>89.710800170898</ele>
        <time>2017-04-09T08:57:55.000Z</time>
      </trkpt>
      <trkpt lat="49.35101" lon="1.06274">
        <ele>89.838668823242</ele>
        <time>2017-04-09T08:57:58.000Z</time>
      </trkpt>
      <trkpt lat="49.351" lon="1.06279">
        <ele>89.974014282227</ele>
        <time>2017-04-09T08:58:00.000Z</time>
        <extensions>
          <gpxtpx:TrackPointExtension xmlns:gpxtpx="http://www.garmin.com/xmlschemas/TrackPointExtension/v1">
            <gpxtpx:hr>154</gpxtpx:hr>
          </gpxtpx:TrackPointExtension>
        </extensions>
      </trkpt>
      <trkpt lat="49.35097" lon="1.06283">
        <ele>90.11222076416</ele>
        <time>2017-04-09T08:58:02.000Z</time>
        <extensions>
          <gpxtpx:TrackPointExtension xmlns:gpxtpx="http://www.garmin.com/xmlschemas/TrackPointExtension/v1">
            <gpxtpx:hr>149</gpxtpx:hr>
          </gpxtpx:TrackPointExtension>
        </extensions>
      </trkpt>
      <trkpt lat="49.35094" lon="1.06291">
        <ele>90.259078979492</ele>
        <time>2017-04-09T08:58:05.000Z</time>
        <extensions>
          <gpxtpx:TrackPointExtension xmlns:gpxtpx="http://www.garmin.com/xmlschemas/TrackPointExtension/v1">
            <gpxtpx:hr>146</gpxtpx:hr>
          </gpxtpx:TrackPointExtension>
        </extensions>
      </trkpt>
      <trkpt lat="49.35089" lon="1.063">
        <ele>90.455581665039</ele>
        <time>2017-04-09T08:58:08.000Z</time>
        <extensions>
          <gpxtpx:TrackPointExtension xmlns:gpxtpx="http://www.garmin.com/xmlschemas/TrackPointExtension/v1">
            <gpxtpx:hr>144</gpxtpx:hr>
          </gpxtpx:TrackPointExtension>
        </extensions>
      </trkpt>
      <trkpt lat="49.35085" lon="1.06307">
        <ele>90.69393157959</ele>
        <time>2017-04-09T08:58:10.000Z</time>
        <extensions>
          <gpxtpx:TrackPointExtension xmlns:gpxtpx="http://www.garmin.com/xmlschemas/TrackPointExtension/v1">
            <gpxtpx:hr>143</gpxtpx:hr>
          </gpxtpx:TrackPointExtension>
        </extensions>
      </trkpt>
      <trkpt lat="49.35078" lon="1.06318">
        <ele>90.91268157959</ele>
        <time>2017-04-09T08:58:13.000Z</time>
        <extensions>
          <gpxtpx:TrackPointExtension xmlns:gpxtpx="http://www.garmin.com/xmlschemas/TrackPointExtension/v1">
            <gpxtpx:hr>140</gpxtpx:hr>
          </gpxtpx:TrackPointExtension>
        </extensions>
      </trkpt>
      <trkpt lat="49.35069" lon="1.06326">
        <ele>91.031188964844</ele>
        <time>2017-04-09T08:58:16.000Z</time>
        <extensions>
          <gpxtpx:TrackPointExtension xmlns:gpxtpx="http://www.garmin.com/xmlschemas/TrackPointExtension/v1">
            <gpxtpx:hr>136</gpxtpx:hr>
          </gpxtpx:TrackPointExtension>
        </extensions>
      </trkpt>
      <trkpt lat="49.35062" lon="1.06326">
        <ele>91.019660949707</ele>
        <time>2017-04-09T08:58:18.000Z</time>
        <extensions>
          <gpxtpx:TrackPointExtension xmlns:gpxtpx="http://www.garmin.com/xmlschemas/TrackPointExtension/v1">
            <gpxtpx:hr>135</gpxtpx:hr>
          </gpxtpx:TrackPointExtension>
        </extensions>
      </trkpt>
      <trkpt lat="49.35054" lon="1.06328">
        <ele>90.851188659668</ele>
        <time>2017-04-09T08:58:20.000Z</time>
        <extensions>
          <gpxtpx:TrackPointExtension xmlns:gpxtpx="http://www.garmin.com/xmlschemas/TrackPointExtension/v1">
            <gpxtpx:hr>133</gpxtpx:hr>
          </gpxtpx:TrackPointExtension>
        </extensions>
      </trkpt>
      <trkpt lat="49.35046" lon="1.06333">
        <ele>90.542510986328</ele>
        <time>2017-04-09T08:58:23.000Z</time>
        <extensions>
          <gpxtpx:TrackPointExtension xmlns:gpxtpx="http://www.garmin.com/xmlschemas/TrackPointExtension/v1">
            <gpxtpx:hr>128</gpxtpx:hr>
          </gpxtpx:TrackPointExtension>
        </extensions>
      </trkpt>
      <trkpt lat="49.35043" lon="1.06344">
        <ele>90.228561401367</ele>
        <time>2017-04-09T08:58:26.000Z</time>
      </trkpt>
      <trkpt lat="49.35041" lon="1.0635">
        <ele>89.989463806152</ele>
        <time>2017-04-09T08:58:28.000Z</time>
      </trkpt>
      <trkpt lat="49.35039" lon="1.06353">
        <ele>89.822555541992</ele>
        <time>2017-04-09T08:58:31.000Z</time>
      </trkpt>
      <trkpt lat="49.35039" lon="1.06353">
        <ele>89.822555541992</ele>
        <time>2017-04-09T08:58:51.000Z</time>
      </trkpt>
      <trkpt lat="49.35037" lon="1.06358">
        <ele>89.743423461914</ele>
        <time>2017-04-09T08:59:19.000Z</time>
        <extensions>
          <gpxtpx:TrackPointExtension xmlns:gpxtpx="http://www.garmin.com/xmlschemas/TrackPointExtension/v1">
            <gpxtpx:hr>129</gpxtpx:hr>
          </gpxtpx:TrackPointExtension>
        </extensions>
      </trkpt>
      <trkpt lat="49.35035" lon="1.06362">
        <ele>89.735778808594</ele>
        <time>2017-04-09T08:59:21.000Z</time>
        <extensions>
          <gpxtpx:TrackPointExtension xmlns:gpxtpx="http://www.garmin.com/xmlschemas/TrackPointExtension/v1">
            <gpxtpx:hr>123</gpxtpx:hr>
          </gpxtpx:TrackPointExtension>
        </extensions>
      </trkpt>
      <trkpt lat="49.35033" lon="1.06373">
        <ele>89.752014160156</ele>
        <time>2017-04-09T08:59:24.000Z</time>
        <extensions>
          <gpxtpx:TrackPointExtension xmlns:gpxtpx="http://www.garmin.com/xmlschemas/TrackPointExtension/v1">
            <gpxtpx:hr>125</gpxtpx:hr>
          </gpxtpx:TrackPointExtension>
        </extensions>
      </trkpt>
      <trkpt lat="49.35028" lon="1.0638">
        <ele>89.760787963867</ele>
        <time>2017-04-09T08:59:27.000Z</time>
        <extensions>
          <gpxtpx:TrackPointExtension xmlns:gpxtpx="http://www.garmin.com/xmlschemas/TrackPointExtension/v1">
            <gpxtpx:hr>123</gpxtpx:hr>
          </gpxtpx:TrackPointExtension>
        </extensions>
      </trkpt>
      <trkpt lat="49.35024" lon="1.06388">
        <ele>89.792343139648</ele>
        <time>2017-04-09T08:59:29.000Z</time>
        <extensions>
          <gpxtpx:TrackPointExtension xmlns:gpxtpx="http://www.garmin.com/xmlschemas/TrackPointExtension/v1">
            <gpxtpx:hr>128</gpxtpx:hr>
          </gpxtpx:TrackPointExtension>
        </extensions>
      </trkpt>
      <trkpt lat="49.3502" lon="1.06396">
        <ele>89.824157714844</ele>
        <time>2017-04-09T08:59:31.000Z</time>
        <extensions>
          <gpxtpx:TrackPointExtension xmlns:gpxtpx="http://www.garmin.com/xmlschemas/TrackPointExtension/v1">
            <gpxtpx:hr>130</gpxtpx:hr>
          </gpxtpx:TrackPointExtension>
        </extensions>
      </trkpt>
      <trkpt lat="49.35014" lon="1.0641">
        <ele>89.909271240234</ele>
        <time>2017-04-09T08:59:34.000Z</time>
        <extensions>
          <gpxtpx:TrackPointExtension xmlns:gpxtpx="http://www.garmin.com/xmlschemas/TrackPointExtension/v1">
            <gpxtpx:hr>133</gpxtpx:hr>
          </gpxtpx:TrackPointExtension>
        </extensions>
      </trkpt>
      <trkpt lat="49.35006" lon="1.06431">
        <ele>89.970901489258</ele>
        <time>2017-04-09T08:59:37.000Z</time>
        <extensions>
          <gpxtpx:TrackPointExtension xmlns:gpxtpx="http://www.garmin.com/xmlschemas/TrackPointExtension/v1">
            <gpxtpx:hr>136</gpxtpx:hr>
          </gpxtpx:TrackPointExtension>
        </extensions>
      </trkpt>
      <trkpt lat="49.35" lon="1.06447">
        <ele>90.011901855469</ele>
        <time>2017-04-09T08:59:39.000Z</time>
      </trkpt>
      <trkpt lat="49.35004" lon="1.06458">
        <ele>90.062568664551</ele>
        <time>2017-04-09T08:59:41.000Z</time>
      </trkpt>
      <trkpt lat="49.34999" lon="1.06468">
        <ele>90.075271606445</ele>
        <time>2017-04-09T08:59:44.000Z</time>
      </trkpt>
      <trkpt lat="49.3499" lon="1.06483">
        <ele>89.849609375</ele>
        <time>2017-04-09T08:59:47.000Z</time>
      </trkpt>
      <trkpt lat="49.34989" lon="1.06485">
        <ele>89.6015625</ele>
        <time>2017-04-09T08:59:49.000Z</time>
      </trkpt>
      <trkpt lat="49.34982" lon="1.06491">
        <ele>89.255859375</ele>
        <time>2017-04-09T08:59:52.000Z</time>
      </trkpt>
      <trkpt lat="49.34976" lon="1.06514">
        <ele>88.822860717773</ele>
        <time>2017-04-09T08:59:55.000Z</time>
      </trkpt>
      <trkpt lat="49.34966" lon="1.06526">
        <ele>88.261474609375</ele>
        <time>2017-04-09T08:59:58.000Z</time>
      </trkpt>
      <trkpt lat="49.34956" lon="1.06532">
        <ele>87.731346130371</ele>
        <time>2017-04-09T09:00:00.000Z</time>
        <extensions>
          <gpxtpx:TrackPointExtension xmlns:gpxtpx="http://www.garmin.com/xmlschemas/TrackPointExtension/v1">
            <gpxtpx:hr>135</gpxtpx:hr>
          </gpxtpx:TrackPointExtension>
        </extensions>
      </trkpt>
      <trkpt lat="49.3495" lon="1.06546">
        <ele>87.164428710938</ele>
        <time>2017-04-09T09:00:02.000Z</time>
        <extensions>
          <gpxtpx:TrackPointExtension xmlns:gpxtpx="http://www.garmin.com/xmlschemas/TrackPointExtension/v1">
            <gpxtpx:hr>134</gpxtpx:hr>
          </gpxtpx:TrackPointExtension>
        </extensions>
      </trkpt>
      <trkpt lat="49.34946" lon="1.06561">
        <ele>86.716331481934</ele>
        <time>2017-04-09T09:00:05.000Z</time>
        <extensions>
          <gpxtpx:TrackPointExtension xmlns:gpxtpx="http://www.garmin.com/xmlschemas/TrackPointExtension/v1">
            <gpxtpx:hr>138</gpxtpx:hr>
          </gpxtpx:TrackPointExtension>
        </extensions>
      </trkpt>
      <trkpt lat="49.34947" lon="1.06574">
        <ele>86.397529602051</ele>
        <time>2017-04-09T09:00:07.000Z</time>
        <extensions>
          <gpxtpx:TrackPointExtension xmlns:gpxtpx="http://www.garmin.com/xmlschemas/TrackPointExtension/v1">
            <gpxtpx:hr>140</gpxtpx:hr>
          </gpxtpx:TrackPointExtension>
        </extensions>
      </trkpt>
      <trkpt lat="49.34942" lon="1.06584">
        <ele>86.197761535645</ele>
        <time>2017-04-09T09:00:09.000Z</time>
        <extensions>
          <gpxtpx:TrackPointExtension xmlns:gpxtpx="http://www.garmin.com/xmlschemas/TrackPointExtension/v1">
            <gpxtpx:hr>139</gpxtpx:hr>
          </gpxtpx:TrackPointExtension>
        </extensions>
      </trkpt>
      <trkpt lat="49.34937" lon="1.06602">
        <ele>86.104690551758</ele>
        <time>2017-04-09T09:00:12.000Z</time>
        <extensions>
          <gpxtpx:TrackPointExtension xmlns:gpxtpx="http://www.garmin.com/xmlschemas/TrackPointExtension/v1">
            <gpxtpx:hr>140</gpxtpx:hr>
          </gpxtpx:TrackPointExtension>
        </extensions>
      </trkpt>
      <trkpt lat="49.34935" lon="1.0661">
        <ele>86.039352416992</ele>
        <time>2017-04-09T09:00:14.000Z</time>
        <extensions>
          <gpxtpx:TrackPointExtension xmlns:gpxtpx="http://www.garmin.com/xmlschemas/TrackPointExtension/v1">
            <gpxtpx:hr>142</gpxtpx:hr>
          </gpxtpx:TrackPointExtension>
        </extensions>
      </trkpt>
      <trkpt lat="49.34931" lon="1.06616">
        <ele>85.941337585449</ele>
        <time>2017-04-09T09:00:16.000Z</time>
        <extensions>
          <gpxtpx:TrackPointExtension xmlns:gpxtpx="http://www.garmin.com/xmlschemas/TrackPointExtension/v1">
            <gpxtpx:hr>139</gpxtpx:hr>
          </gpxtpx:TrackPointExtension>
        </extensions>
      </trkpt>
      <trkpt lat="49.34917" lon="1.06627">
        <ele>85.588607788086</ele>
        <time>2017-04-09T09:00:19.000Z</time>
        <extensions>
          <gpxtpx:TrackPointExtension xmlns:gpxtpx="http://www.garmin.com/xmlschemas/TrackPointExtension/v1">
            <gpxtpx:hr>137</gpxtpx:hr>
          </gpxtpx:TrackPointExtension>
        </extensions>
      </trkpt>
      <trkpt lat="49.34908" lon="1.06644">
        <ele>85.162780761719</ele>
        <time>2017-04-09T09:00:22.000Z</time>
        <extensions>
          <gpxtpx:TrackPointExtension xmlns:gpxtpx="http://www.garmin.com/xmlschemas/TrackPointExtension/v1">
            <gpxtpx:hr>141</gpxtpx:hr>
          </gpxtpx:TrackPointExtension>
        </extensions>
      </trkpt>
      <trkpt lat="49.34901" lon="1.06667">
        <ele>84.713218688965</ele>
        <time>2017-04-09T09:00:25.000Z</time>
      </trkpt>
      <trkpt lat="49.34901" lon="1.06678">
        <ele>84.295532226562</ele>
        <time>2017-04-09T09:00:27.000Z</time>
      </trkpt>
      <trkpt lat="49.34901" lon="1.06688">
        <ele>83.887969970703</ele>
        <time>2017-04-09T09:00:30.000Z</time>
      </trkpt>
      <trkpt lat="49.34897" lon="1.06698">
        <ele>83.589149475098</ele>
        <time>2017-04-09T09:00:33.000Z</time>
      </trkpt>
      <trkpt lat="49.34889" lon="1.06709">
        <ele>83.224937438965</ele>
        <time>2017-04-09T09:00:36.000Z</time>
      </trkpt>
      <trkpt lat="49.34883" lon="1.06722">
        <ele>82.770248413086</ele>
        <time>2017-04-09T09:00:39.000Z</time>
      </trkpt>
      <trkpt lat="49.34878" lon="1.06736">
        <ele>82.155166625977</ele>
        <time>2017-04-09T09:00:42.000Z</time>
      </trkpt>
      <trkpt lat="49.34875" lon="1.06751">
        <ele>81.462532043457</ele>
        <time>2017-04-09T09:00:45.000Z</time>
      </trkpt>
      <trkpt lat="49.34875" lon="1.06764">
        <ele>80.813697814941</ele>
        <time>2017-04-09T09:00:47.000Z</time>
      </trkpt>
      <trkpt lat="49.34872" lon="1.0678">
        <ele>80.233604431152</ele>
        <time>2017-04-09T09:00:50.000Z</time>
      </trkpt>
      <trkpt lat="49.34871" lon="1.06797">
        <ele>79.748031616211</ele>
        <time>2017-04-09T09:00:53.000Z</time>
      </trkpt>
      <trkpt lat="49.3487" lon="1.06811">
        <ele>79.359893798828</ele>
        <time>2017-04-09T09:00:56.000Z</time>
      </trkpt>
      <trkpt lat="49.34866" lon="1.06827">
        <ele>78.942291259766</ele>
        <time>2017-04-09T09:00:59.000Z</time>
      </trkpt>
      <trkpt lat="49.34863" lon="1.06844">
        <ele>78.422775268555</ele>
        <time>2017-04-09T09:01:02.000Z</time>
        <extensions>
          <gpxtpx:TrackPointExtension xmlns:gpxtpx="http://www.garmin.com/xmlschemas/TrackPointExtension/v1">
            <gpxtpx:hr>140</gpxtpx:hr>
          </gpxtpx:TrackPointExtension>
        </extensions>
      </trkpt>
      <trkpt lat="49.34861" lon="1.06853">
        <ele>77.897827148438</ele>
        <time>2017-04-09T09:01:04.000Z</time>
        <extensions>
          <gpxtpx:TrackPointExtension xmlns:gpxtpx="http://www.garmin.com/xmlschemas/TrackPointExtension/v1">
            <gpxtpx:hr>138</gpxtpx:hr>
          </gpxtpx:TrackPointExtension>
        </extensions>
      </trkpt>
      <trkpt lat="49.34851" lon="1.06867">
        <ele>77.172523498535</ele>
        <time>2017-04-09T09:01:07.000Z</time>
        <extensions>
          <gpxtpx:TrackPointExtension xmlns:gpxtpx="http://www.garmin.com/xmlschemas/TrackPointExtension/v1">
            <gpxtpx:hr>138</gpxtpx:hr>
          </gpxtpx:TrackPointExtension>
        </extensions>
      </trkpt>
      <trkpt lat="49.34843" lon="1.06883">
        <ele>76.279144287109</ele>
        <time>2017-04-09T09:01:10.000Z</time>
        <extensions>
          <gpxtpx:TrackPointExtension xmlns:gpxtpx="http://www.garmin.com/xmlschemas/TrackPointExtension/v1">
            <gpxtpx:hr>135</gpxtpx:hr>
          </gpxtpx:TrackPointExtension>
        </extensions>
      </trkpt>
      <trkpt lat="49.34837" lon="1.069">
        <ele>75.383666992188</ele>
        <time>2017-04-09T09:01:13.000Z</time>
        <extensions>
          <gpxtpx:TrackPointExtension xmlns:gpxtpx="http://www.garmin.com/xmlschemas/TrackPointExtension/v1">
            <gpxtpx:hr>133</gpxtpx:hr>
          </gpxtpx:TrackPointExtension>
        </extensions>
      </trkpt>
      <trkpt lat="49.34831" lon="1.06918">
        <ele>74.523178100586</ele>
        <time>2017-04-09T09:01:16.000Z</time>
        <extensions>
          <gpxtpx:TrackPointExtension xmlns:gpxtpx="http://www.garmin.com/xmlschemas/TrackPointExtension/v1">
            <gpxtpx:hr>132</gpxtpx:hr>
          </gpxtpx:TrackPointExtension>
        </extensions>
      </trkpt>
      <trkpt lat="49.34825" lon="1.06936">
        <ele>73.687698364258</ele>
        <time>2017-04-09T09:01:19.000Z</time>
        <extensions>
          <gpxtpx:TrackPointExtension xmlns:gpxtpx="http://www.garmin.com/xmlschemas/TrackPointExtension/v1">
            <gpxtpx:hr>137</gpxtpx:hr>
          </gpxtpx:TrackPointExtension>
        </extensions>
      </trkpt>
      <trkpt lat="49.34819" lon="1.0696">
        <ele>73.031478881836</ele>
        <time>2017-04-09T09:01:22.000Z</time>
      </trkpt>
      <trkpt lat="49.34814" lon="1.06979">
        <ele>72.554794311523</ele>
        <time>2017-04-09T09:01:25.000Z</time>
      </trkpt>
      <trkpt lat="49.34812" lon="1.06999">
        <ele>72.165565490723</ele>
        <time>2017-04-09T09:01:28.000Z</time>
      </trkpt>
      <trkpt lat="49.34815" lon="1.07022">
        <ele>71.964447021484</ele>
        <time>2017-04-09T09:01:31.000Z</time>
      </trkpt>
      <trkpt lat="49.34813" lon="1.07035">
        <ele>71.91056060791</ele>
        <time>2017-04-09T09:01:34.000Z</time>
      </trkpt>
      <trkpt lat="49.34822" lon="1.07041">
        <ele>71.984329223633</ele>
        <time>2017-04-09T09:01:37.000Z</time>
      </trkpt>
      <trkpt lat="49.34831" lon="1.07052">
        <ele>72.195877075195</ele>
        <time>2017-04-09T09:01:40.000Z</time>
      </trkpt>
      <trkpt lat="49.34843" lon="1.0706">
        <ele>72.495140075684</ele>
        <time>2017-04-09T09:01:43.000Z</time>
      </trkpt>
      <trkpt lat="49.3485" lon="1.07068">
        <ele>72.739486694336</ele>
        <time>2017-04-09T09:01:45.000Z</time>
      </trkpt>
      <trkpt lat="49.34858" lon="1.07085">
        <ele>72.967010498047</ele>
        <time>2017-04-09T09:01:48.000Z</time>
        <extensions>
          <gpxtpx:TrackPointExtension xmlns:gpxtpx="http://www.garmin.com/xmlschemas/TrackPointExtension/v1">
            <gpxtpx:hr>140</gpxtpx:hr>
          </gpxtpx:TrackPointExtension>
        </extensions>
      </trkpt>
      <trkpt lat="49.34866" lon="1.07101">
        <ele>73.081985473633</ele>
        <time>2017-04-09T09:01:51.000Z</time>
        <extensions>
          <gpxtpx:TrackPointExtension xmlns:gpxtpx="http://www.garmin.com/xmlschemas/TrackPointExtension/v1">
            <gpxtpx:hr>138</gpxtpx:hr>
          </gpxtpx:TrackPointExtension>
        </extensions>
      </trkpt>
      <trkpt lat="49.34872" lon="1.07109">
        <ele>73.084365844727</ele>
        <time>2017-04-09T09:01:53.000Z</time>
        <extensions>
          <gpxtpx:TrackPointExtension xmlns:gpxtpx="http://www.garmin.com/xmlschemas/TrackPointExtension/v1">
            <gpxtpx:hr>138</gpxtpx:hr>
          </gpxtpx:TrackPointExtension>
        </extensions>
      </trkpt>
      <trkpt lat="49.34876" lon="1.07118">
        <ele>73.035659790039</ele>
        <time>2017-04-09T09:01:55.000Z</time>
        <extensions>
          <gpxtpx:TrackPointExtension xmlns:gpxtpx="http://www.garmin.com/xmlschemas/TrackPointExtension/v1">
            <gpxtpx:hr>135</gpxtpx:hr>
          </gpxtpx:TrackPointExtension>
        </extensions>
      </trkpt>
      <trkpt lat="49.34883" lon="1.0714">
        <ele>72.962707519531</ele>
        <time>2017-04-09T09:01:58.000Z</time>
        <extensions>
          <gpxtpx:TrackPointExtension xmlns:gpxtpx="http://www.garmin.com/xmlschemas/TrackPointExtension/v1">
            <gpxtpx:hr>133</gpxtpx:hr>
          </gpxtpx:TrackPointExtension>
        </extensions>
      </trkpt>
      <trkpt lat="49.34888" lon="1.07163">
        <ele>72.877731323242</ele>
        <time>2017-04-09T09:02:01.000Z</time>
        <extensions>
          <gpxtpx:TrackPointExtension xmlns:gpxtpx="http://www.garmin.com/xmlschemas/TrackPointExtension/v1">
            <gpxtpx:hr>141</gpxtpx:hr>
          </gpxtpx:TrackPointExtension>
        </extensions>
      </trkpt>
      <trkpt lat="49.34896" lon="1.07185">
        <ele>72.855285644531</ele>
        <time>2017-04-09T09:02:04.000Z</time>
        <extensions>
          <gpxtpx:TrackPointExtension xmlns:gpxtpx="http://www.garmin.com/xmlschemas/TrackPointExtension/v1">
            <gpxtpx:hr>141</gpxtpx:hr>
          </gpxtpx:TrackPointExtension>
        </extensions>
      </trkpt>
      <trkpt lat="49.34903" lon="1.07198">
        <ele>72.847747802734</ele>
        <time>2017-04-09T09:02:06.000Z</time>
        <extensions>
          <gpxtpx:TrackPointExtension xmlns:gpxtpx="http://www.garmin.com/xmlschemas/TrackPointExtension/v1">
            <gpxtpx:hr>139</gpxtpx:hr>
          </gpxtpx:TrackPointExtension>
        </extensions>
      </trkpt>
      <trkpt lat="49.34911" lon="1.07216">
        <ele>72.817100524902</ele>
        <time>2017-04-09T09:02:09.000Z</time>
        <extensions>
          <gpxtpx:TrackPointExtension xmlns:gpxtpx="http://www.garmin.com/xmlschemas/TrackPointExtension/v1">
            <gpxtpx:hr>138</gpxtpx:hr>
          </gpxtpx:TrackPointExtension>
        </extensions>
      </trkpt>
      <trkpt lat="49.3491" lon="1.07231">
        <ele>72.713539123535</ele>
        <time>2017-04-09T09:02:11.000Z</time>
        <extensions>
          <gpxtpx:TrackPointExtension xmlns:gpxtpx="http://www.garmin.com/xmlschemas/TrackPointExtension/v1">
            <gpxtpx:hr>136</gpxtpx:hr>
          </gpxtpx:TrackPointExtension>
        </extensions>
      </trkpt>
      <trkpt lat="49.34912" lon="1.07253">
        <ele>72.496459960938</ele>
        <time>2017-04-09T09:02:14.000Z</time>
        <extensions>
          <gpxtpx:TrackPointExtension xmlns:gpxtpx="http://www.garmin.com/xmlschemas/TrackPointExtension/v1">
            <gpxtpx:hr>133</gpxtpx:hr>
          </gpxtpx:TrackPointExtension>
        </extensions>
      </trkpt>
      <trkpt lat="49.34914" lon="1.07266">
        <ele>72.266830444336</ele>
        <time>2017-04-09T09:02:16.000Z</time>
        <extensions>
          <gpxtpx:TrackPointExtension xmlns:gpxtpx="http://www.garmin.com/xmlschemas/TrackPointExtension/v1">
            <gpxtpx:hr>129</gpxtpx:hr>
          </gpxtpx:TrackPointExtension>
        </extensions>
      </trkpt>
      <trkpt lat="49.34914" lon="1.07287">
        <ele>71.998733520508</ele>
        <time>2017-04-09T09:02:19.000Z</time>
        <extensions>
          <gpxtpx:TrackPointExtension xmlns:gpxtpx="http://www.garmin.com/xmlschemas/TrackPointExtension/v1">
            <gpxtpx:hr>129</gpxtpx:hr>
          </gpxtpx:TrackPointExtension>
        </extensions>
      </trkpt>
      <trkpt lat="49.34916" lon="1.073">
        <ele>71.743583679199</ele>
        <time>2017-04-09T09:02:21.000Z</time>
        <extensions>
          <gpxtpx:TrackPointExtension xmlns:gpxtpx="http://www.garmin.com/xmlschemas/TrackPointExtension/v1">
            <gpxtpx:hr>131</gpxtpx:hr>
          </gpxtpx:TrackPointExtension>
        </extensions>
      </trkpt>
      <trkpt lat="49.34916" lon="1.07311">
        <ele>71.538009643555</ele>
        <time>2017-04-09T09:02:23.000Z</time>
        <extensions>
          <gpxtpx:TrackPointExtension xmlns:gpxtpx="http://www.garmin.com/xmlschemas/TrackPointExtension/v1">
            <gpxtpx:hr>134</gpxtpx:hr>
          </gpxtpx:TrackPointExtension>
        </extensions>
      </trkpt>
      <trkpt lat="49.34916" lon="1.07331">
        <ele>71.367851257324</ele>
        <time>2017-04-09T09:02:26.000Z</time>
      </trkpt>
      <trkpt lat="49.34918" lon="1.07351">
        <ele>71.232727050781</ele>
        <time>2017-04-09T09:02:29.000Z</time>
      </trkpt>
      <trkpt lat="49.3492" lon="1.07365">
        <ele>71.157691955566</ele>
        <time>2017-04-09T09:02:31.000Z</time>
      </trkpt>
      <trkpt lat="49.34919" lon="1.07388">
        <ele>71.09440612793</ele>
        <time>2017-04-09T09:02:34.000Z</time>
      </trkpt>
      <trkpt lat="49.34912" lon="1.07403">
        <ele>70.965126037598</ele>
        <time>2017-04-09T09:02:37.000Z</time>
      </trkpt>
      <trkpt lat="49.34905" lon="1.07416">
        <ele>70.744293212891</ele>
        <time>2017-04-09T09:02:39.000Z</time>
      </trkpt>
      <trkpt lat="49.34908" lon="1.07427">
        <ele>70.51872253418</ele>
        <time>2017-04-09T09:02:41.000Z</time>
      </trkpt>
      <trkpt lat="49.34903" lon="1.07451">
        <ele>70.114135742188</ele>
        <time>2017-04-09T09:02:44.000Z</time>
      </trkpt>
      <trkpt lat="49.34898" lon="1.07479">
        <ele>69.547439575195</ele>
        <time>2017-04-09T09:02:47.000Z</time>
      </trkpt>
      <trkpt lat="49.34896" lon="1.075">
        <ele>68.977203369141</ele>
        <time>2017-04-09T09:02:50.000Z</time>
      </trkpt>
      <trkpt lat="49.34897" lon="1.07514">
        <ele>68.47770690918</ele>
        <time>2017-04-09T09:02:53.000Z</time>
      </trkpt>
      <trkpt lat="49.34897" lon="1.0752">
        <ele>67.930442810059</ele>
        <time>2017-04-09T09:02:55.000Z</time>
      </trkpt>
      <trkpt lat="49.34886" lon="1.07536">
        <ele>67.353408813477</ele>
        <time>2017-04-09T09:02:58.000Z</time>
      </trkpt>
      <trkpt lat="49.3488" lon="1.07545">
        <ele>66.847023010254</ele>
        <time>2017-04-09T09:03:00.000Z</time>
        <extensions>
          <gpxtpx:TrackPointExtension xmlns:gpxtpx="http://www.garmin.com/xmlschemas/TrackPointExtension/v1">
            <gpxtpx:hr>133</gpxtpx:hr>
          </gpxtpx:TrackPointExtension>
        </extensions>
      </trkpt>
      <trkpt lat="49.34877" lon="1.07556">
        <ele>66.34839630127</ele>
        <time>2017-04-09T09:03:03.000Z</time>
        <extensions>
          <gpxtpx:TrackPointExtension xmlns:gpxtpx="http://www.garmin.com/xmlschemas/TrackPointExtension/v1">
            <gpxtpx:hr>139</gpxtpx:hr>
          </gpxtpx:TrackPointExtension>
        </extensions>
      </trkpt>
      <trkpt lat="49.34879" lon="1.07565">
        <ele>65.888427734375</ele>
        <time>2017-04-09T09:03:06.000Z</time>
        <extensions>
          <gpxtpx:TrackPointExtension xmlns:gpxtpx="http://www.garmin.com/xmlschemas/TrackPointExtension/v1">
            <gpxtpx:hr>142</gpxtpx:hr>
          </gpxtpx:TrackPointExtension>
        </extensions>
      </trkpt>
      <trkpt lat="49.3488" lon="1.07573">
        <ele>65.436729431152</ele>
        <time>2017-04-09T09:03:08.000Z</time>
        <extensions>
          <gpxtpx:TrackPointExtension xmlns:gpxtpx="http://www.garmin.com/xmlschemas/TrackPointExtension/v1">
            <gpxtpx:hr>144</gpxtpx:hr>
          </gpxtpx:TrackPointExtension>
        </extensions>
      </trkpt>
      <trkpt lat="49.34879" lon="1.07581">
        <ele>65.137100219727</ele>
        <time>2017-04-09T09:03:10.000Z</time>
        <extensions>
          <gpxtpx:TrackPointExtension xmlns:gpxtpx="http://www.garmin.com/xmlschemas/TrackPointExtension/v1">
            <gpxtpx:hr>148</gpxtpx:hr>
          </gpxtpx:TrackPointExtension>
        </extensions>
      </trkpt>
      <trkpt lat="49.34875" lon="1.07595">
        <ele>64.884414672852</ele>
        <time>2017-04-09T09:03:13.000Z</time>
        <extensions>
          <gpxtpx:TrackPointExtension xmlns:gpxtpx="http://www.garmin.com/xmlschemas/TrackPointExtension/v1">
            <gpxtpx:hr>150</gpxtpx:hr>
          </gpxtpx:TrackPointExtension>
        </extensions>
      </trkpt>
      <trkpt lat="49.34874" lon="1.07605">
        <ele>64.69246673584</ele>
        <time>2017-04-09T09:03:15.000Z</time>
        <extensions>
          <gpxtpx:TrackPointExtension xmlns:gpxtpx="http://www.garmin.com/xmlschemas/TrackPointExtension/v1">
            <gpxtpx:hr>151</gpxtpx:hr>
          </gpxtpx:TrackPointExtension>
        </extensions>
      </trkpt>
      <trkpt lat="49.34874" lon="1.07613">
        <ele>64.523818969727</ele>
        <time>2017-04-09T09:03:17.000Z</time>
        <extensions>
          <gpxtpx:TrackPointExtension xmlns:gpxtpx="http://www.garmin.com/xmlschemas/TrackPointExtension/v1">
            <gpxtpx:hr>151</gpxtpx:hr>
          </gpxtpx:TrackPointExtension>
        </extensions>
      </trkpt>
      <trkpt lat="49.34878" lon="1.07626">
        <ele>64.416877746582</ele>
        <time>2017-04-09T09:03:20.000Z</time>
        <extensions>
          <gpxtpx:TrackPointExtension xmlns:gpxtpx="http://www.garmin.com/xmlschemas/TrackPointExtension/v1">
            <gpxtpx:hr>150</gpxtpx:hr>
          </gpxtpx:TrackPointExtension>
        </extensions>
      </trkpt>
      <trkpt lat="49.34883" lon="1.07633">
        <ele>64.416625976562</ele>
        <time>2017-04-09T09:03:22.000Z</time>
      </trkpt>
      <trkpt lat="49.34892" lon="1.07644">
        <ele>64.56893157959</ele>
        <time>2017-04-09T09:03:25.000Z</time>
      </trkpt>
      <trkpt lat="49.34895" lon="1.07654">
        <ele>64.795555114746</ele>
        <time>2017-04-09T09:03:27.000Z</time>
      </trkpt>
      <trkpt lat="49.34898" lon="1.07667">
        <ele>65.07780456543</ele>
        <time>2017-04-09T09:03:29.000Z</time>
      </trkpt>
      <trkpt lat="49.34903" lon="1.07677">
        <ele>65.329917907715</ele>
        <time>2017-04-09T09:03:31.000Z</time>
      </trkpt>
      <trkpt lat="49.34908" lon="1.07683">
        <ele>65.543983459473</ele>
        <time>2017-04-09T09:03:34.000Z</time>
      </trkpt>
      <trkpt lat="49.34913" lon="1.07684">
        <ele>65.735458374023</ele>
        <time>2017-04-09T09:03:36.000Z</time>
      </trkpt>
      <trkpt lat="49.34922" lon="1.07682">
        <ele>65.949523925781</ele>
        <time>2017-04-09T09:03:39.000Z</time>
      </trkpt>
      <trkpt lat="49.34927" lon="1.0768">
        <ele>66.142433166504</ele>
        <time>2017-04-09T09:03:42.000Z</time>
      </trkpt>
      <trkpt lat="49.34936" lon="1.07679">
        <ele>66.359825134277</ele>
        <time>2017-04-09T09:03:45.000Z</time>
      </trkpt>
      <trkpt lat="49.3494" lon="1.07678">
        <ele>66.569534301758</ele>
        <time>2017-04-09T09:03:47.000Z</time>
      </trkpt>
      <trkpt lat="49.34947" lon="1.07679">
        <ele>66.717483520508</ele>
        <time>2017-04-09T09:03:50.000Z</time>
      </trkpt>
      <trkpt lat="49.34952" lon="1.07681">
        <ele>66.782722473145</ele>
        <time>2017-04-09T09:03:52.000Z</time>
      </trkpt>
      <trkpt lat="49.34956" lon="1.07683">
        <ele>66.814720153809</ele>
        <time>2017-04-09T09:03:55.000Z</time>
      </trkpt>
      <trkpt lat="49.3496" lon="1.07683">
        <ele>66.829116821289</ele>
        <time>2017-04-09T09:03:57.000Z</time>
      </trkpt>
      <trkpt lat="49.34963" lon="1.07686">
        <ele>66.808349609375</ele>
        <time>2017-04-09T09:03:59.000Z</time>
      </trkpt>
      <trkpt lat="49.34969" lon="1.07691">
        <ele>66.749099731445</ele>
        <time>2017-04-09T09:04:02.000Z</time>
        <extensions>
          <gpxtpx:TrackPointExtension xmlns:gpxtpx="http://www.garmin.com/xmlschemas/TrackPointExtension/v1">
            <gpxtpx:hr>149</gpxtpx:hr>
          </gpxtpx:TrackPointExtension>
        </extensions>
      </trkpt>
      <trkpt lat="49.34974" lon="1.07687">
        <ele>66.737953186035</ele>
        <time>2017-04-09T09:04:05.000Z</time>
        <extensions>
          <gpxtpx:TrackPointExtension xmlns:gpxtpx="http://www.garmin.com/xmlschemas/TrackPointExtension/v1">
            <gpxtpx:hr>151</gpxtpx:hr>
          </gpxtpx:TrackPointExtension>
        </extensions>
      </trkpt>
      <trkpt lat="49.34974" lon="1.07684">
        <ele>66.765632629395</ele>
        <time>2017-04-09T09:04:07.000Z</time>
        <extensions>
          <gpxtpx:TrackPointExtension xmlns:gpxtpx="http://www.garmin.com/xmlschemas/TrackPointExtension/v1">
            <gpxtpx:hr>153</gpxtpx:hr>
          </gpxtpx:TrackPointExtension>
        </extensions>
      </trkpt>
      <trkpt lat="49.34975" lon="1.07678">
        <ele>66.84245300293</ele>
        <time>2017-04-09T09:04:10.000Z</time>
        <extensions>
          <gpxtpx:TrackPointExtension xmlns:gpxtpx="http://www.garmin.com/xmlschemas/TrackPointExtension/v1">
            <gpxtpx:hr>155</gpxtpx:hr>
          </gpxtpx:TrackPointExtension>
        </extensions>
      </trkpt>
      <trkpt lat="49.34978" lon="1.07675">
        <ele>66.976272583008</ele>
        <time>2017-04-09T09:04:13.000Z</time>
        <extensions>
          <gpxtpx:TrackPointExtension xmlns:gpxtpx="http://www.garmin.com/xmlschemas/TrackPointExtension/v1">
            <gpxtpx:hr>156</gpxtpx:hr>
          </gpxtpx:TrackPointExtension>
        </extensions>
      </trkpt>
      <trkpt lat="49.34983" lon="1.07671">
        <ele>67.181228637695</ele>
        <time>2017-04-09T09:04:16.000Z</time>
        <extensions>
          <gpxtpx:TrackPointExtension xmlns:gpxtpx="http://www.garmin.com/xmlschemas/TrackPointExtension/v1">
            <gpxtpx:hr>156</gpxtpx:hr>
          </gpxtpx:TrackPointExtension>
        </extensions>
      </trkpt>
      <trkpt lat="49.34992" lon="1.07673">
        <ele>67.34952545166</ele>
        <time>2017-04-09T09:04:19.000Z</time>
        <extensions>
          <gpxtpx:TrackPointExtension xmlns:gpxtpx="http://www.garmin.com/xmlschemas/TrackPointExtension/v1">
            <gpxtpx:hr>157</gpxtpx:hr>
          </gpxtpx:TrackPointExtension>
        </extensions>
      </trkpt>
      <trkpt lat="49.35" lon="1.07676">
        <ele>67.469589233398</ele>
        <time>2017-04-09T09:04:22.000Z</time>
      </trkpt>
      <trkpt lat="49.35005" lon="1.07681">
        <ele>67.477073669434</ele>
        <time>2017-04-09T09:04:24.000Z</time>
      </trkpt>
      <trkpt lat="49.35007" lon="1.07687">
        <ele>67.389785766602</ele>
        <time>2017-04-09T09:04:26.000Z</time>
      </trkpt>
      <trkpt lat="49.35011" lon="1.0769">
        <ele>67.221374511719</ele>
        <time>2017-04-09T09:04:28.000Z</time>
      </trkpt>
      <trkpt lat="49.35015" lon="1.07694">
        <ele>67.010620117188</ele>
        <time>2017-04-09T09:04:30.000Z</time>
      </trkpt>
      <trkpt lat="49.35017" lon="1.07706">
        <ele>66.718994140625</ele>
        <time>2017-04-09T09:04:33.000Z</time>
      </trkpt>
      <trkpt lat="49.35018" lon="1.07714">
        <ele>66.427513122559</ele>
        <time>2017-04-09T09:04:35.000Z</time>
      </trkpt>
      <trkpt lat="49.35023" lon="1.07716">
        <ele>66.183547973633</ele>
        <time>2017-04-09T09:04:38.000Z</time>
      </trkpt>
      <trkpt lat="49.35029" lon="1.07716">
        <ele>65.981216430664</ele>
        <time>2017-04-09T09:04:40.000Z</time>
      </trkpt>
      <trkpt lat="49.35032" lon="1.07722">
        <ele>65.787330627441</ele>
        <time>2017-04-09T09:04:42.000Z</time>
      </trkpt>
      <trkpt lat="49.35034" lon="1.07729">
        <ele>65.653549194336</ele>
        <time>2017-04-09T09:04:44.000Z</time>
      </trkpt>
      <trkpt lat="49.35038" lon="1.07736">
        <ele>65.553115844727</ele>
        <time>2017-04-09T09:04:47.000Z</time>
      </trkpt>
      <trkpt lat="49.35035" lon="1.07739">
        <ele>65.438423156738</ele>
        <time>2017-04-09T09:04:50.000Z</time>
      </trkpt>
      <trkpt lat="49.3503" lon="1.07737">
        <ele>65.315292358398</ele>
        <time>2017-04-09T09:04:52.000Z</time>
      </trkpt>
      <trkpt lat="49.35027" lon="1.07739">
        <ele>65.195678710938</ele>
        <time>2017-04-09T09:04:54.000Z</time>
      </trkpt>
      <trkpt lat="49.35025" lon="1.07746">
        <ele>65.061576843262</ele>
        <time>2017-04-09T09:04:56.000Z</time>
      </trkpt>
      <trkpt lat="49.35031" lon="1.07753">
        <ele>64.930618286133</ele>
        <time>2017-04-09T09:04:59.000Z</time>
      </trkpt>
      <trkpt lat="49.35038" lon="1.07758">
        <ele>64.823577880859</ele>
        <time>2017-04-09T09:05:02.000Z</time>
        <extensions>
          <gpxtpx:TrackPointExtension xmlns:gpxtpx="http://www.garmin.com/xmlschemas/TrackPointExtension/v1">
            <gpxtpx:hr>157</gpxtpx:hr>
          </gpxtpx:TrackPointExtension>
        </extensions>
      </trkpt>
      <trkpt lat="49.35036" lon="1.07766">
        <ele>64.66039276123</ele>
        <time>2017-04-09T09:05:05.000Z</time>
        <extensions>
          <gpxtpx:TrackPointExtension xmlns:gpxtpx="http://www.garmin.com/xmlschemas/TrackPointExtension/v1">
            <gpxtpx:hr>155</gpxtpx:hr>
          </gpxtpx:TrackPointExtension>
        </extensions>
      </trkpt>
      <trkpt lat="49.35032" lon="1.07771">
        <ele>64.472282409668</ele>
        <time>2017-04-09T09:05:08.000Z</time>
        <extensions>
          <gpxtpx:TrackPointExtension xmlns:gpxtpx="http://www.garmin.com/xmlschemas/TrackPointExtension/v1">
            <gpxtpx:hr>155</gpxtpx:hr>
          </gpxtpx:TrackPointExtension>
        </extensions>
      </trkpt>
      <trkpt lat="49.3503" lon="1.0778">
        <ele>64.269737243652</ele>
        <time>2017-04-09T09:05:11.000Z</time>
        <extensions>
          <gpxtpx:TrackPointExtension xmlns:gpxtpx="http://www.garmin.com/xmlschemas/TrackPointExtension/v1">
            <gpxtpx:hr>152</gpxtpx:hr>
          </gpxtpx:TrackPointExtension>
        </extensions>
      </trkpt>
      <trkpt lat="49.3503" lon="1.07788">
        <ele>64.043891906738</ele>
        <time>2017-04-09T09:05:13.000Z</time>
        <extensions>
          <gpxtpx:TrackPointExtension xmlns:gpxtpx="http://www.garmin.com/xmlschemas/TrackPointExtension/v1">
            <gpxtpx:hr>149</gpxtpx:hr>
          </gpxtpx:TrackPointExtension>
        </extensions>
      </trkpt>
      <trkpt lat="49.35033" lon="1.07793">
        <ele>63.790519714355</ele>
        <time>2017-04-09T09:05:16.000Z</time>
        <extensions>
          <gpxtpx:TrackPointExtension xmlns:gpxtpx="http://www.garmin.com/xmlschemas/TrackPointExtension/v1">
            <gpxtpx:hr>146</gpxtpx:hr>
          </gpxtpx:TrackPointExtension>
        </extensions>
      </trkpt>
      <trkpt lat="49.35033" lon="1.078">
        <ele>63.550495147705</ele>
        <time>2017-04-09T09:05:29.000Z</time>
        <extensions>
          <gpxtpx:TrackPointExtension xmlns:gpxtpx="http://www.garmin.com/xmlschemas/TrackPointExtension/v1">
            <gpxtpx:hr>146</gpxtpx:hr>
          </gpxtpx:TrackPointExtension>
        </extensions>
      </trkpt>
      <trkpt lat="49.35035" lon="1.07807">
        <ele>63.319721221924</ele>
        <time>2017-04-09T09:05:31.000Z</time>
        <extensions>
          <gpxtpx:TrackPointExtension xmlns:gpxtpx="http://www.garmin.com/xmlschemas/TrackPointExtension/v1">
            <gpxtpx:hr>146</gpxtpx:hr>
          </gpxtpx:TrackPointExtension>
        </extensions>
      </trkpt>
      <trkpt lat="49.35036" lon="1.0781">
        <ele>63.131935119629</ele>
        <time>2017-04-09T09:05:34.000Z</time>
      </trkpt>
      <trkpt lat="49.35044" lon="1.07815">
        <ele>62.966796875</ele>
        <time>2017-04-09T09:05:37.000Z</time>
      </trkpt>
      <trkpt lat="49.35051" lon="1.07816">
        <ele>62.830108642578</ele>
        <time>2017-04-09T09:05:39.000Z</time>
      </trkpt>
      <trkpt lat="49.35061" lon="1.07815">
        <ele>62.75806427002</ele>
        <time>2017-04-09T09:05:42.000Z</time>
      </trkpt>
      <trkpt lat="49.35069" lon="1.07807">
        <ele>62.810081481934</ele>
        <time>2017-04-09T09:05:45.000Z</time>
      </trkpt>
      <trkpt lat="49.35069" lon="1.07799">
        <ele>62.954296112061</ele>
        <time>2017-04-09T09:05:47.000Z</time>
      </trkpt>
      <trkpt lat="49.35064" lon="1.07789">
        <ele>63.200122833252</ele>
        <time>2017-04-09T09:05:50.000Z</time>
      </trkpt>
      <trkpt lat="49.35066" lon="1.07775">
        <ele>63.568397521973</ele>
        <time>2017-04-09T09:05:53.000Z</time>
      </trkpt>
      <trkpt lat="49.35073" lon="1.07761">
        <ele>64.063247680664</ele>
        <time>2017-04-09T09:05:56.000Z</time>
      </trkpt>
      <trkpt lat="49.35074" lon="1.0775">
        <ele>64.582229614258</ele>
        <time>2017-04-09T09:05:58.000Z</time>
      </trkpt>
      <trkpt lat="49.35073" lon="1.07739">
        <ele>65.045555114746</ele>
        <time>2017-04-09T09:06:00.000Z</time>
        <extensions>
          <gpxtpx:TrackPointExtension xmlns:gpxtpx="http://www.garmin.com/xmlschemas/TrackPointExtension/v1">
            <gpxtpx:hr>149</gpxtpx:hr>
          </gpxtpx:TrackPointExtension>
        </extensions>
      </trkpt>
      <trkpt lat="49.35074" lon="1.07732">
        <ele>65.440330505371</ele>
        <time>2017-04-09T09:06:02.000Z</time>
        <extensions>
          <gpxtpx:TrackPointExtension xmlns:gpxtpx="http://www.garmin.com/xmlschemas/TrackPointExtension/v1">
            <gpxtpx:hr>151</gpxtpx:hr>
          </gpxtpx:TrackPointExtension>
        </extensions>
      </trkpt>
      <trkpt lat="49.35074" lon="1.07716">
        <ele>65.730262756348</ele>
        <time>2017-04-09T09:06:05.000Z</time>
        <extensions>
          <gpxtpx:TrackPointExtension xmlns:gpxtpx="http://www.garmin.com/xmlschemas/TrackPointExtension/v1">
            <gpxtpx:hr>151</gpxtpx:hr>
          </gpxtpx:TrackPointExtension>
        </extensions>
      </trkpt>
      <trkpt lat="49.35073" lon="1.07706">
        <ele>65.886650085449</ele>
        <time>2017-04-09T09:06:07.000Z</time>
        <extensions>
          <gpxtpx:TrackPointExtension xmlns:gpxtpx="http://www.garmin.com/xmlschemas/TrackPointExtension/v1">
            <gpxtpx:hr>151</gpxtpx:hr>
          </gpxtpx:TrackPointExtension>
        </extensions>
      </trkpt>
      <trkpt lat="49.35073" lon="1.07698">
        <ele>65.946975708008</ele>
        <time>2017-04-09T09:06:09.000Z</time>
        <extensions>
          <gpxtpx:TrackPointExtension xmlns:gpxtpx="http://www.garmin.com/xmlschemas/TrackPointExtension/v1">
            <gpxtpx:hr>153</gpxtpx:hr>
          </gpxtpx:TrackPointExtension>
        </extensions>
      </trkpt>
      <trkpt lat="49.35072" lon="1.0769">
        <ele>66.00496673584</ele>
        <time>2017-04-09T09:06:11.000Z</time>
        <extensions>
          <gpxtpx:TrackPointExtension xmlns:gpxtpx="http://www.garmin.com/xmlschemas/TrackPointExtension/v1">
            <gpxtpx:hr>155</gpxtpx:hr>
          </gpxtpx:TrackPointExtension>
        </extensions>
      </trkpt>
      <trkpt lat="49.35072" lon="1.07678">
        <ele>66.069679260254</ele>
        <time>2017-04-09T09:06:14.000Z</time>
        <extensions>
          <gpxtpx:TrackPointExtension xmlns:gpxtpx="http://www.garmin.com/xmlschemas/TrackPointExtension/v1">
            <gpxtpx:hr>152</gpxtpx:hr>
          </gpxtpx:TrackPointExtension>
        </extensions>
      </trkpt>
      <trkpt lat="49.35072" lon="1.07664">
        <ele>66.143028259277</ele>
        <time>2017-04-09T09:06:17.000Z</time>
        <extensions>
          <gpxtpx:TrackPointExtension xmlns:gpxtpx="http://www.garmin.com/xmlschemas/TrackPointExtension/v1">
            <gpxtpx:hr>151</gpxtpx:hr>
          </gpxtpx:TrackPointExtension>
        </extensions>
      </trkpt>
      <trkpt lat="49.35073" lon="1.07654">
        <ele>66.24821472168</ele>
        <time>2017-04-09T09:06:19.000Z</time>
      </trkpt>
      <trkpt lat="49.35073" lon="1.07642">
        <ele>66.396179199219</ele>
        <time>2017-04-09T09:06:21.000Z</time>
      </trkpt>
      <trkpt lat="49.35072" lon="1.07627">
        <ele>66.602523803711</ele>
        <time>2017-04-09T09:06:24.000Z</time>
      </trkpt>
      <trkpt lat="49.35072" lon="1.07616">
        <ele>66.845588684082</ele>
        <time>2017-04-09T09:06:27.000Z</time>
      </trkpt>
      <trkpt lat="49.35067" lon="1.07609">
        <ele>67.109870910645</ele>
        <time>2017-04-09T09:06:30.000Z</time>
      </trkpt>
      <trkpt lat="49.35061" lon="1.07604">
        <ele>67.36653137207</ele>
        <time>2017-04-09T09:06:33.000Z</time>
      </trkpt>
      <trkpt lat="49.35059" lon="1.07598">
        <ele>67.603981018066</ele>
        <time>2017-04-09T09:06:36.000Z</time>
      </trkpt>
      <trkpt lat="49.35061" lon="1.07597">
        <ele>67.773597717285</ele>
        <time>2017-04-09T09:06:39.000Z</time>
      </trkpt>
      <trkpt lat="49.35065" lon="1.07595">
        <ele>67.886276245117</ele>
        <time>2017-04-09T09:06:43.000Z</time>
      </trkpt>
      <trkpt lat="49.35064" lon="1.07592">
        <ele>67.965629577637</ele>
        <time>2017-04-09T09:06:46.000Z</time>
      </trkpt>
      <trkpt lat="49.35061" lon="1.07587">
        <ele>68.038772583008</ele>
        <time>2017-04-09T09:06:50.000Z</time>
      </trkpt>
      <trkpt lat="49.35059" lon="1.07585">
        <ele>68.093612670898</ele>
        <time>2017-04-09T09:06:53.000Z</time>
      </trkpt>
      <trkpt lat="49.35058" lon="1.07581">
        <ele>68.158615112305</ele>
        <time>2017-04-09T09:06:56.000Z</time>
      </trkpt>
      <trkpt lat="49.3506" lon="1.07572">
        <ele>68.237800598145</ele>
        <time>2017-04-09T09:06:59.000Z</time>
      </trkpt>
      <trkpt lat="49.35067" lon="1.07566">
        <ele>68.302795410156</ele>
        <time>2017-04-09T09:07:02.000Z</time>
        <extensions>
          <gpxtpx:TrackPointExtension xmlns:gpxtpx="http://www.garmin.com/xmlschemas/TrackPointExtension/v1">
            <gpxtpx:hr>151</gpxtpx:hr>
          </gpxtpx:TrackPointExtension>
        </extensions>
      </trkpt>
      <trkpt lat="49.35073" lon="1.07562">
        <ele>68.332504272461</ele>
        <time>2017-04-09T09:07:04.000Z</time>
        <extensions>
          <gpxtpx:TrackPointExtension xmlns:gpxtpx="http://www.garmin.com/xmlschemas/TrackPointExtension/v1">
            <gpxtpx:hr>150</gpxtpx:hr>
          </gpxtpx:TrackPointExtension>
        </extensions>
      </trkpt>
      <trkpt lat="49.35081" lon="1.07558">
        <ele>68.345840454102</ele>
        <time>2017-04-09T09:07:06.000Z</time>
        <extensions>
          <gpxtpx:TrackPointExtension xmlns:gpxtpx="http://www.garmin.com/xmlschemas/TrackPointExtension/v1">
            <gpxtpx:hr>148</gpxtpx:hr>
          </gpxtpx:TrackPointExtension>
        </extensions>
      </trkpt>
      <trkpt lat="49.35081" lon="1.07553">
        <ele>68.358154296875</ele>
        <time>2017-04-09T09:07:08.000Z</time>
        <extensions>
          <gpxtpx:TrackPointExtension xmlns:gpxtpx="http://www.garmin.com/xmlschemas/TrackPointExtension/v1">
            <gpxtpx:hr>147</gpxtpx:hr>
          </gpxtpx:TrackPointExtension>
        </extensions>
      </trkpt>
      <trkpt lat="49.35077" lon="1.07541">
        <ele>68.392501831055</ele>
        <time>2017-04-09T09:07:11.000Z</time>
        <extensions>
          <gpxtpx:TrackPointExtension xmlns:gpxtpx="http://www.garmin.com/xmlschemas/TrackPointExtension/v1">
            <gpxtpx:hr>149</gpxtpx:hr>
          </gpxtpx:TrackPointExtension>
        </extensions>
      </trkpt>
      <trkpt lat="49.35075" lon="1.07533">
        <ele>68.446929931641</ele>
        <time>2017-04-09T09:07:13.000Z</time>
      </trkpt>
      <trkpt lat="49.35072" lon="1.07526">
        <ele>68.524772644043</ele>
        <time>2017-04-09T09:07:16.000Z</time>
        <extensions>
          <gpxtpx:TrackPointExtension xmlns:gpxtpx="http://www.garmin.com/xmlschemas/TrackPointExtension/v1">
            <gpxtpx:hr>148</gpxtpx:hr>
          </gpxtpx:TrackPointExtension>
        </extensions>
      </trkpt>
      <trkpt lat="49.3507" lon="1.0752">
        <ele>68.61865234375</ele>
        <time>2017-04-09T09:07:18.000Z</time>
        <extensions>
          <gpxtpx:TrackPointExtension xmlns:gpxtpx="http://www.garmin.com/xmlschemas/TrackPointExtension/v1">
            <gpxtpx:hr>149</gpxtpx:hr>
          </gpxtpx:TrackPointExtension>
        </extensions>
      </trkpt>
      <trkpt lat="49.35066" lon="1.07511">
        <ele>68.721229553223</ele>
        <time>2017-04-09T09:07:21.000Z</time>
      </trkpt>
      <trkpt lat="49.35067" lon="1.07504">
        <ele>68.804954528809</ele>
        <time>2017-04-09T09:07:23.000Z</time>
      </trkpt>
      <trkpt lat="49.35072" lon="1.07494">
        <ele>68.893005371094</ele>
        <time>2017-04-09T09:07:26.000Z</time>
      </trkpt>
      <trkpt lat="49.35077" lon="1.07489">
        <ele>68.97615814209</ele>
        <time>2017-04-09T09:07:28.000Z</time>
      </trkpt>
      <trkpt lat="49.35089" lon="1.07484">
        <ele>68.98168182373</ele>
        <time>2017-04-09T09:07:31.000Z</time>
      </trkpt>
      <trkpt lat="49.35098" lon="1.07473">
        <ele>68.867729187012</ele>
        <time>2017-04-09T09:07:34.000Z</time>
      </trkpt>
      <trkpt lat="49.35099" lon="1.07464">
        <ele>68.752716064453</ele>
        <time>2017-04-09T09:07:36.000Z</time>
      </trkpt>
      <trkpt lat="49.35101" lon="1.07457">
        <ele>68.614219665527</ele>
        <time>2017-04-09T09:07:38.000Z</time>
      </trkpt>
      <trkpt lat="49.35099" lon="1.07446">
        <ele>68.51123046875</ele>
        <time>2017-04-09T09:07:41.000Z</time>
      </trkpt>
      <trkpt lat="49.35102" lon="1.07434">
        <ele>68.46452331543</ele>
        <time>2017-04-09T09:07:44.000Z</time>
      </trkpt>
      <trkpt lat="49.35108" lon="1.07427">
        <ele>68.473770141602</ele>
        <time>2017-04-09T09:07:47.000Z</time>
      </trkpt>
      <trkpt lat="49.35111" lon="1.07421">
        <ele>68.454147338867</ele>
        <time>2017-04-09T09:07:49.000Z</time>
      </trkpt>
      <trkpt lat="49.35113" lon="1.07411">
        <ele>68.442405700684</ele>
        <time>2017-04-09T09:07:52.000Z</time>
      </trkpt>
      <trkpt lat="49.35116" lon="1.07401">
        <ele>68.390975952148</ele>
        <time>2017-04-09T09:07:55.000Z</time>
      </trkpt>
      <trkpt lat="49.35118" lon="1.07399">
        <ele>68.330467224121</ele>
        <time>2017-04-09T09:07:57.000Z</time>
      </trkpt>
      <trkpt lat="49.35125" lon="1.07394">
        <ele>68.264831542969</ele>
        <time>2017-04-09T09:08:00.000Z</time>
        <extensions>
          <gpxtpx:TrackPointExtension xmlns:gpxtpx="http://www.garmin.com/xmlschemas/TrackPointExtension/v1">
            <gpxtpx:hr>150</gpxtpx:hr>
          </gpxtpx:TrackPointExtension>
        </extensions>
      </trkpt>
      <trkpt lat="49.35129" lon="1.07387">
        <ele>68.212646484375</ele>
        <time>2017-04-09T09:08:02.000Z</time>
        <extensions>
          <gpxtpx:TrackPointExtension xmlns:gpxtpx="http://www.garmin.com/xmlschemas/TrackPointExtension/v1">
            <gpxtpx:hr>150</gpxtpx:hr>
          </gpxtpx:TrackPointExtension>
        </extensions>
      </trkpt>
      <trkpt lat="49.35133" lon="1.07379">
        <ele>68.152976989746</ele>
        <time>2017-04-09T09:08:04.000Z</time>
        <extensions>
          <gpxtpx:TrackPointExtension xmlns:gpxtpx="http://www.garmin.com/xmlschemas/TrackPointExtension/v1">
            <gpxtpx:hr>150</gpxtpx:hr>
          </gpxtpx:TrackPointExtension>
        </extensions>
      </trkpt>
      <trkpt lat="49.35136" lon="1.07368">
        <ele>68.117691040039</ele>
        <time>2017-04-09T09:08:07.000Z</time>
        <extensions>
          <gpxtpx:TrackPointExtension xmlns:gpxtpx="http://www.garmin.com/xmlschemas/TrackPointExtension/v1">
            <gpxtpx:hr>150</gpxtpx:hr>
          </gpxtpx:TrackPointExtension>
        </extensions>
      </trkpt>
      <trkpt lat="49.35137" lon="1.07357">
        <ele>68.145889282227</ele>
        <time>2017-04-09T09:08:10.000Z</time>
        <extensions>
          <gpxtpx:TrackPointExtension xmlns:gpxtpx="http://www.garmin.com/xmlschemas/TrackPointExtension/v1">
            <gpxtpx:hr>147</gpxtpx:hr>
          </gpxtpx:TrackPointExtension>
        </extensions>
      </trkpt>
      <trkpt lat="49.35137" lon="1.07349">
        <ele>68.26904296875</ele>
        <time>2017-04-09T09:08:12.000Z</time>
        <extensions>
          <gpxtpx:TrackPointExtension xmlns:gpxtpx="http://www.garmin.com/xmlschemas/TrackPointExtension/v1">
            <gpxtpx:hr>144</gpxtpx:hr>
          </gpxtpx:TrackPointExtension>
        </extensions>
      </trkpt>
      <trkpt lat="49.35136" lon="1.07343">
        <ele>68.434600830078</ele>
        <time>2017-04-09T09:08:14.000Z</time>
        <extensions>
          <gpxtpx:TrackPointExtension xmlns:gpxtpx="http://www.garmin.com/xmlschemas/TrackPointExtension/v1">
            <gpxtpx:hr>141</gpxtpx:hr>
          </gpxtpx:TrackPointExtension>
        </extensions>
      </trkpt>
      <trkpt lat="49.35133" lon="1.07335">
        <ele>68.66039276123</ele>
        <time>2017-04-09T09:08:17.000Z</time>
        <extensions>
          <gpxtpx:TrackPointExtension xmlns:gpxtpx="http://www.garmin.com/xmlschemas/TrackPointExtension/v1">
            <gpxtpx:hr>141</gpxtpx:hr>
          </gpxtpx:TrackPointExtension>
        </extensions>
      </trkpt>
      <trkpt lat="49.35135" lon="1.07325">
        <ele>68.905754089355</ele>
        <time>2017-04-09T09:08:20.000Z</time>
        <extensions>
          <gpxtpx:TrackPointExtension xmlns:gpxtpx="http://www.garmin.com/xmlschemas/TrackPointExtension/v1">
            <gpxtpx:hr>137</gpxtpx:hr>
          </gpxtpx:TrackPointExtension>
        </extensions>
      </trkpt>
      <trkpt lat="49.35145" lon="1.07318">
        <ele>69.086791992188</ele>
        <time>2017-04-09T09:08:23.000Z</time>
      </trkpt>
      <trkpt lat="49.35149" lon="1.07314">
        <ele>69.222465515137</ele>
        <time>2017-04-09T09:08:25.000Z</time>
      </trkpt>
      <trkpt lat="49.35155" lon="1.07308">
        <ele>69.317520141602</ele>
        <time>2017-04-09T09:08:28.000Z</time>
      </trkpt>
      <trkpt lat="49.35158" lon="1.07305">
        <ele>69.350952148438</ele>
        <time>2017-04-09T09:08:30.000Z</time>
      </trkpt>
      <trkpt lat="49.3516" lon="1.07303">
        <ele>69.333282470703</ele>
        <time>2017-04-09T09:08:33.000Z</time>
      </trkpt>
      <trkpt lat="49.35164" lon="1.073">
        <ele>69.320098876953</ele>
        <time>2017-04-09T09:08:39.000Z</time>
      </trkpt>
      <trkpt lat="49.35166" lon="1.07301">
        <ele>69.294921875</ele>
        <time>2017-04-09T09:08:47.000Z</time>
      </trkpt>
      <trkpt lat="49.35166" lon="1.07301">
        <ele>69.294921875</ele>
        <time>2017-04-09T09:09:07.000Z</time>
        <extensions>
          <gpxtpx:TrackPointExtension xmlns:gpxtpx="http://www.garmin.com/xmlschemas/TrackPointExtension/v1">
            <gpxtpx:hr>132</gpxtpx:hr>
          </gpxtpx:TrackPointExtension>
        </extensions>
      </trkpt>
      <trkpt lat="49.35167" lon="1.07299">
        <ele>69.273818969727</ele>
        <time>2017-04-09T09:09:10.000Z</time>
        <extensions>
          <gpxtpx:TrackPointExtension xmlns:gpxtpx="http://www.garmin.com/xmlschemas/TrackPointExtension/v1">
            <gpxtpx:hr>131</gpxtpx:hr>
          </gpxtpx:TrackPointExtension>
        </extensions>
      </trkpt>
      <trkpt lat="49.3517" lon="1.07302">
        <ele>69.219245910645</ele>
        <time>2017-04-09T09:09:12.000Z</time>
        <extensions>
          <gpxtpx:TrackPointExtension xmlns:gpxtpx="http://www.garmin.com/xmlschemas/TrackPointExtension/v1">
            <gpxtpx:hr>129</gpxtpx:hr>
          </gpxtpx:TrackPointExtension>
        </extensions>
      </trkpt>
      <trkpt lat="49.35176" lon="1.07303">
        <ele>69.120498657227</ele>
        <time>2017-04-09T09:09:14.000Z</time>
        <extensions>
          <gpxtpx:TrackPointExtension xmlns:gpxtpx="http://www.garmin.com/xmlschemas/TrackPointExtension/v1">
            <gpxtpx:hr>121</gpxtpx:hr>
          </gpxtpx:TrackPointExtension>
        </extensions>
      </trkpt>
      <trkpt lat="49.35182" lon="1.07307">
        <ele>68.968879699707</ele>
        <time>2017-04-09T09:09:17.000Z</time>
        <extensions>
          <gpxtpx:TrackPointExtension xmlns:gpxtpx="http://www.garmin.com/xmlschemas/TrackPointExtension/v1">
            <gpxtpx:hr>124</gpxtpx:hr>
          </gpxtpx:TrackPointExtension>
        </extensions>
      </trkpt>
      <trkpt lat="49.35185" lon="1.07315">
        <ele>68.763442993164</ele>
        <time>2017-04-09T09:09:20.000Z</time>
        <extensions>
          <gpxtpx:TrackPointExtension xmlns:gpxtpx="http://www.garmin.com/xmlschemas/TrackPointExtension/v1">
            <gpxtpx:hr>126</gpxtpx:hr>
          </gpxtpx:TrackPointExtension>
        </extensions>
      </trkpt>
      <trkpt lat="49.35192" lon="1.07313">
        <ele>68.528419494629</ele>
        <time>2017-04-09T09:09:23.000Z</time>
        <extensions>
          <gpxtpx:TrackPointExtension xmlns:gpxtpx="http://www.garmin.com/xmlschemas/TrackPointExtension/v1">
            <gpxtpx:hr>130</gpxtpx:hr>
          </gpxtpx:TrackPointExtension>
        </extensions>
      </trkpt>
      <trkpt lat="49.35198" lon="1.0731">
        <ele>68.313293457031</ele>
        <time>2017-04-09T09:09:25.000Z</time>
        <extensions>
          <gpxtpx:TrackPointExtension xmlns:gpxtpx="http://www.garmin.com/xmlschemas/TrackPointExtension/v1">
            <gpxtpx:hr>130</gpxtpx:hr>
          </gpxtpx:TrackPointExtension>
        </extensions>
      </trkpt>
      <trkpt lat="49.35206" lon="1.07307">
        <ele>68.11311340332</ele>
        <time>2017-04-09T09:09:27.000Z</time>
        <extensions>
          <gpxtpx:TrackPointExtension xmlns:gpxtpx="http://www.garmin.com/xmlschemas/TrackPointExtension/v1">
            <gpxtpx:hr>132</gpxtpx:hr>
          </gpxtpx:TrackPointExtension>
        </extensions>
      </trkpt>
      <trkpt lat="49.3521" lon="1.07302">
        <ele>67.989730834961</ele>
        <time>2017-04-09T09:09:30.000Z</time>
      </trkpt>
      <trkpt lat="49.35214" lon="1.07296">
        <ele>67.945869445801</ele>
        <time>2017-04-09T09:09:33.000Z</time>
      </trkpt>
      <trkpt lat="49.35217" lon="1.0729">
        <ele>67.946670532227</ele>
        <time>2017-04-09T09:09:35.000Z</time>
      </trkpt>
      <trkpt lat="49.3522" lon="1.07278">
        <ele>68.006340026855</ele>
        <time>2017-04-09T09:09:38.000Z</time>
      </trkpt>
      <trkpt lat="49.35222" lon="1.07271">
        <ele>68.122657775879</ele>
        <time>2017-04-09T09:09:40.000Z</time>
      </trkpt>
      <trkpt lat="49.35224" lon="1.07264">
        <ele>68.255088806152</ele>
        <time>2017-04-09T09:09:42.000Z</time>
      </trkpt>
      <trkpt lat="49.35226" lon="1.07253">
        <ele>68.415077209473</ele>
        <time>2017-04-09T09:09:45.000Z</time>
      </trkpt>
      <trkpt lat="49.35228" lon="1.07245">
        <ele>68.614631652832</ele>
        <time>2017-04-09T09:09:47.000Z</time>
      </trkpt>
      <trkpt lat="49.35229" lon="1.07238">
        <ele>68.822311401367</ele>
        <time>2017-04-09T09:09:49.000Z</time>
      </trkpt>
      <trkpt lat="49.35231" lon="1.07235">
        <ele>69.026016235352</ele>
        <time>2017-04-09T09:09:51.000Z</time>
      </trkpt>
      <trkpt lat="49.35234" lon="1.07227">
        <ele>69.250831604004</ele>
        <time>2017-04-09T09:09:54.000Z</time>
      </trkpt>
      <trkpt lat="49.35233" lon="1.07218">
        <ele>69.526489257812</ele>
        <time>2017-04-09T09:09:57.000Z</time>
      </trkpt>
      <trkpt lat="49.35229" lon="1.07213">
        <ele>69.818359375</ele>
        <time>2017-04-09T09:09:59.000Z</time>
      </trkpt>
      <trkpt lat="49.35225" lon="1.07205">
        <ele>70.174560546875</ele>
        <time>2017-04-09T09:10:02.000Z</time>
        <extensions>
          <gpxtpx:TrackPointExtension xmlns:gpxtpx="http://www.garmin.com/xmlschemas/TrackPointExtension/v1">
            <gpxtpx:hr>138</gpxtpx:hr>
          </gpxtpx:TrackPointExtension>
        </extensions>
      </trkpt>
      <trkpt lat="49.35222" lon="1.07197">
        <ele>70.602661132812</ele>
        <time>2017-04-09T09:10:04.000Z</time>
        <extensions>
          <gpxtpx:TrackPointExtension xmlns:gpxtpx="http://www.garmin.com/xmlschemas/TrackPointExtension/v1">
            <gpxtpx:hr>145</gpxtpx:hr>
          </gpxtpx:TrackPointExtension>
        </extensions>
      </trkpt>
      <trkpt lat="49.35221" lon="1.07185">
        <ele>71.095703125</ele>
        <time>2017-04-09T09:10:07.000Z</time>
        <extensions>
          <gpxtpx:TrackPointExtension xmlns:gpxtpx="http://www.garmin.com/xmlschemas/TrackPointExtension/v1">
            <gpxtpx:hr>150</gpxtpx:hr>
          </gpxtpx:TrackPointExtension>
        </extensions>
      </trkpt>
      <trkpt lat="49.35221" lon="1.07176">
        <ele>71.581909179688</ele>
        <time>2017-04-09T09:10:10.000Z</time>
        <extensions>
          <gpxtpx:TrackPointExtension xmlns:gpxtpx="http://www.garmin.com/xmlschemas/TrackPointExtension/v1">
            <gpxtpx:hr>151</gpxtpx:hr>
          </gpxtpx:TrackPointExtension>
        </extensions>
      </trkpt>
      <trkpt lat="49.35223" lon="1.07168">
        <ele>72.056274414062</ele>
        <time>2017-04-09T09:10:13.000Z</time>
        <extensions>
          <gpxtpx:TrackPointExtension xmlns:gpxtpx="http://www.garmin.com/xmlschemas/TrackPointExtension/v1">
            <gpxtpx:hr>150</gpxtpx:hr>
          </gpxtpx:TrackPointExtension>
        </extensions>
      </trkpt>
      <trkpt lat="49.35226" lon="1.07162">
        <ele>72.426391601562</ele>
        <time>2017-04-09T09:10:15.000Z</time>
        <extensions>
          <gpxtpx:TrackPointExtension xmlns:gpxtpx="http://www.garmin.com/xmlschemas/TrackPointExtension/v1">
            <gpxtpx:hr>153</gpxtpx:hr>
          </gpxtpx:TrackPointExtension>
        </extensions>
      </trkpt>
      <trkpt lat="49.35231" lon="1.07152">
        <ele>72.700912475586</ele>
        <time>2017-04-09T09:10:17.000Z</time>
        <extensions>
          <gpxtpx:TrackPointExtension xmlns:gpxtpx="http://www.garmin.com/xmlschemas/TrackPointExtension/v1">
            <gpxtpx:hr>155</gpxtpx:hr>
          </gpxtpx:TrackPointExtension>
        </extensions>
      </trkpt>
      <trkpt lat="49.35238" lon="1.07134">
        <ele>72.855850219727</ele>
        <time>2017-04-09T09:10:20.000Z</time>
        <extensions>
          <gpxtpx:TrackPointExtension xmlns:gpxtpx="http://www.garmin.com/xmlschemas/TrackPointExtension/v1">
            <gpxtpx:hr>156</gpxtpx:hr>
          </gpxtpx:TrackPointExtension>
        </extensions>
      </trkpt>
      <trkpt lat="49.35242" lon="1.07116">
        <ele>72.936576843262</ele>
        <time>2017-04-09T09:10:22.000Z</time>
        <extensions>
          <gpxtpx:TrackPointExtension xmlns:gpxtpx="http://www.garmin.com/xmlschemas/TrackPointExtension/v1">
            <gpxtpx:hr>157</gpxtpx:hr>
          </gpxtpx:TrackPointExtension>
        </extensions>
      </trkpt>
      <trkpt lat="49.35247" lon="1.07104">
        <ele>72.937210083008</ele>
        <time>2017-04-09T09:10:25.000Z</time>
      </trkpt>
      <trkpt lat="49.35251" lon="1.07094">
        <ele>72.922988891602</ele>
        <time>2017-04-09T09:10:28.000Z</time>
      </trkpt>
      <trkpt lat="49.35256" lon="1.07088">
        <ele>72.922134399414</ele>
        <time>2017-04-09T09:10:30.000Z</time>
      </trkpt>
      <trkpt lat="49.3526" lon="1.07082">
        <ele>72.954116821289</ele>
        <time>2017-04-09T09:10:32.000Z</time>
      </trkpt>
      <trkpt lat="49.35264" lon="1.07074">
        <ele>73.046752929688</ele>
        <time>2017-04-09T09:10:35.000Z</time>
      </trkpt>
      <trkpt lat="49.35265" lon="1.07067">
        <ele>73.217025756836</ele>
        <time>2017-04-09T09:10:37.000Z</time>
      </trkpt>
      <trkpt lat="49.35265" lon="1.0706">
        <ele>73.459030151367</ele>
        <time>2017-04-09T09:10:40.000Z</time>
      </trkpt>
      <trkpt lat="49.35268" lon="1.07053">
        <ele>73.743003845215</ele>
        <time>2017-04-09T09:10:43.000Z</time>
      </trkpt>
      <trkpt lat="49.35271" lon="1.07047">
        <ele>74.057914733887</ele>
        <time>2017-04-09T09:10:46.000Z</time>
      </trkpt>
      <trkpt lat="49.35274" lon="1.07042">
        <ele>74.332969665527</ele>
        <time>2017-04-09T09:10:48.000Z</time>
      </trkpt>
      <trkpt lat="49.35281" lon="1.07039">
        <ele>74.570739746094</ele>
        <time>2017-04-09T09:10:51.000Z</time>
      </trkpt>
      <trkpt lat="49.35286" lon="1.07035">
        <ele>74.770362854004</ele>
        <time>2017-04-09T09:10:54.000Z</time>
      </trkpt>
      <trkpt lat="49.35287" lon="1.0703">
        <ele>74.953369140625</ele>
        <time>2017-04-09T09:10:56.000Z</time>
      </trkpt>
      <trkpt lat="49.35288" lon="1.07026">
        <ele>75.11351776123</ele>
        <time>2017-04-09T09:10:59.000Z</time>
      </trkpt>
      <trkpt lat="49.35288" lon="1.07019">
        <ele>75.29305267334</ele>
        <time>2017-04-09T09:11:05.000Z</time>
        <extensions>
          <gpxtpx:TrackPointExtension xmlns:gpxtpx="http://www.garmin.com/xmlschemas/TrackPointExtension/v1">
            <gpxtpx:hr>157</gpxtpx:hr>
          </gpxtpx:TrackPointExtension>
        </extensions>
      </trkpt>
      <trkpt lat="49.35287" lon="1.07011">
        <ele>75.526306152344</ele>
        <time>2017-04-09T09:11:08.000Z</time>
        <extensions>
          <gpxtpx:TrackPointExtension xmlns:gpxtpx="http://www.garmin.com/xmlschemas/TrackPointExtension/v1">
            <gpxtpx:hr>155</gpxtpx:hr>
          </gpxtpx:TrackPointExtension>
        </extensions>
      </trkpt>
      <trkpt lat="49.35283" lon="1.07004">
        <ele>75.798568725586</ele>
        <time>2017-04-09T09:11:10.000Z</time>
        <extensions>
          <gpxtpx:TrackPointExtension xmlns:gpxtpx="http://www.garmin.com/xmlschemas/TrackPointExtension/v1">
            <gpxtpx:hr>154</gpxtpx:hr>
          </gpxtpx:TrackPointExtension>
        </extensions>
      </trkpt>
      <trkpt lat="49.35266" lon="1.06999">
        <ele>76.114723205566</ele>
        <time>2017-04-09T09:11:13.000Z</time>
        <extensions>
          <gpxtpx:TrackPointExtension xmlns:gpxtpx="http://www.garmin.com/xmlschemas/TrackPointExtension/v1">
            <gpxtpx:hr>157</gpxtpx:hr>
          </gpxtpx:TrackPointExtension>
        </extensions>
      </trkpt>
      <trkpt lat="49.35255" lon="1.06995">
        <ele>76.455345153809</ele>
        <time>2017-04-09T09:11:15.000Z</time>
        <extensions>
          <gpxtpx:TrackPointExtension xmlns:gpxtpx="http://www.garmin.com/xmlschemas/TrackPointExtension/v1">
            <gpxtpx:hr>158</gpxtpx:hr>
          </gpxtpx:TrackPointExtension>
        </extensions>
      </trkpt>
      <trkpt lat="49.35253" lon="1.06987">
        <ele>76.823760986328</ele>
        <time>2017-04-09T09:11:18.000Z</time>
        <extensions>
          <gpxtpx:TrackPointExtension xmlns:gpxtpx="http://www.garmin.com/xmlschemas/TrackPointExtension/v1">
            <gpxtpx:hr>160</gpxtpx:hr>
          </gpxtpx:TrackPointExtension>
        </extensions>
      </trkpt>
      <trkpt lat="49.35252" lon="1.0698">
        <ele>77.186973571777</ele>
        <time>2017-04-09T09:11:20.000Z</time>
        <extensions>
          <gpxtpx:TrackPointExtension xmlns:gpxtpx="http://www.garmin.com/xmlschemas/TrackPointExtension/v1">
            <gpxtpx:hr>160</gpxtpx:hr>
          </gpxtpx:TrackPointExtension>
        </extensions>
      </trkpt>
      <trkpt lat="49.35254" lon="1.06972">
        <ele>77.542724609375</ele>
        <time>2017-04-09T09:11:23.000Z</time>
        <extensions>
          <gpxtpx:TrackPointExtension xmlns:gpxtpx="http://www.garmin.com/xmlschemas/TrackPointExtension/v1">
            <gpxtpx:hr>160</gpxtpx:hr>
          </gpxtpx:TrackPointExtension>
        </extensions>
      </trkpt>
      <trkpt lat="49.35255" lon="1.06966">
        <ele>77.862998962402</ele>
        <time>2017-04-09T09:11:26.000Z</time>
        <extensions>
          <gpxtpx:TrackPointExtension xmlns:gpxtpx="http://www.garmin.com/xmlschemas/TrackPointExtension/v1">
            <gpxtpx:hr>157</gpxtpx:hr>
          </gpxtpx:TrackPointExtension>
        </extensions>
      </trkpt>
      <trkpt lat="49.35257" lon="1.06959">
        <ele>78.180870056152</ele>
        <time>2017-04-09T09:11:29.000Z</time>
      </trkpt>
      <trkpt lat="49.3526" lon="1.06952">
        <ele>78.457962036133</ele>
        <time>2017-04-09T09:11:32.000Z</time>
      </trkpt>
      <trkpt lat="49.3526" lon="1.06948">
        <ele>78.688507080078</ele>
        <time>2017-04-09T09:11:34.000Z</time>
      </trkpt>
      <trkpt lat="49.35258" lon="1.06942">
        <ele>78.920677185059</ele>
        <time>2017-04-09T09:11:37.000Z</time>
      </trkpt>
      <trkpt lat="49.3526" lon="1.06935">
        <ele>79.151390075684</ele>
        <time>2017-04-09T09:11:40.000Z</time>
      </trkpt>
      <trkpt lat="49.35262" lon="1.06928">
        <ele>79.365280151367</ele>
        <time>2017-04-09T09:11:43.000Z</time>
      </trkpt>
      <trkpt lat="49.35262" lon="1.06926">
        <ele>79.554122924805</ele>
        <time>2017-04-09T09:11:45.000Z</time>
      </trkpt>
      <trkpt lat="49.35263" lon="1.06922">
        <ele>79.737319946289</ele>
        <time>2017-04-09T09:11:48.000Z</time>
      </trkpt>
      <trkpt lat="49.35266" lon="1.06916">
        <ele>79.87361907959</ele>
        <time>2017-04-09T09:11:51.000Z</time>
      </trkpt>
      <trkpt lat="49.35266" lon="1.06914">
        <ele>79.961807250977</ele>
        <time>2017-04-09T09:11:54.000Z</time>
      </trkpt>
      <trkpt lat="49.35268" lon="1.0691">
        <ele>80.004867553711</ele>
        <time>2017-04-09T09:12:03.000Z</time>
        <extensions>
          <gpxtpx:TrackPointExtension xmlns:gpxtpx="http://www.garmin.com/xmlschemas/TrackPointExtension/v1">
            <gpxtpx:hr>153</gpxtpx:hr>
          </gpxtpx:TrackPointExtension>
        </extensions>
      </trkpt>
      <trkpt lat="49.3527" lon="1.0691">
        <ele>80.009536743164</ele>
        <time>2017-04-09T09:12:05.000Z</time>
        <extensions>
          <gpxtpx:TrackPointExtension xmlns:gpxtpx="http://www.garmin.com/xmlschemas/TrackPointExtension/v1">
            <gpxtpx:hr>147</gpxtpx:hr>
          </gpxtpx:TrackPointExtension>
        </extensions>
      </trkpt>
      <trkpt lat="49.35277" lon="1.06908">
        <ele>79.920875549316</ele>
        <time>2017-04-09T09:12:08.000Z</time>
        <extensions>
          <gpxtpx:TrackPointExtension xmlns:gpxtpx="http://www.garmin.com/xmlschemas/TrackPointExtension/v1">
            <gpxtpx:hr>145</gpxtpx:hr>
          </gpxtpx:TrackPointExtension>
        </extensions>
      </trkpt>
      <trkpt lat="49.35291" lon="1.06908">
        <ele>79.656028747559</ele>
        <time>2017-04-09T09:12:11.000Z</time>
        <extensions>
          <gpxtpx:TrackPointExtension xmlns:gpxtpx="http://www.garmin.com/xmlschemas/TrackPointExtension/v1">
            <gpxtpx:hr>151</gpxtpx:hr>
          </gpxtpx:TrackPointExtension>
        </extensions>
      </trkpt>
      <trkpt lat="49.35293" lon="1.06908">
        <ele>79.364356994629</ele>
        <time>2017-04-09T09:12:13.000Z</time>
        <extensions>
          <gpxtpx:TrackPointExtension xmlns:gpxtpx="http://www.garmin.com/xmlschemas/TrackPointExtension/v1">
            <gpxtpx:hr>159</gpxtpx:hr>
          </gpxtpx:TrackPointExtension>
        </extensions>
      </trkpt>
      <trkpt lat="49.35297" lon="1.06907">
        <ele>79.048881530762</ele>
        <time>2017-04-09T09:12:16.000Z</time>
        <extensions>
          <gpxtpx:TrackPointExtension xmlns:gpxtpx="http://www.garmin.com/xmlschemas/TrackPointExtension/v1">
            <gpxtpx:hr>157</gpxtpx:hr>
          </gpxtpx:TrackPointExtension>
        </extensions>
      </trkpt>
      <trkpt lat="49.353" lon="1.06904">
        <ele>78.741592407227</ele>
        <time>2017-04-09T09:12:18.000Z</time>
        <extensions>
          <gpxtpx:TrackPointExtension xmlns:gpxtpx="http://www.garmin.com/xmlschemas/TrackPointExtension/v1">
            <gpxtpx:hr>156</gpxtpx:hr>
          </gpxtpx:TrackPointExtension>
        </extensions>
      </trkpt>
      <trkpt lat="49.35305" lon="1.06899">
        <ele>78.467422485352</ele>
        <time>2017-04-09T09:12:21.000Z</time>
        <extensions>
          <gpxtpx:TrackPointExtension xmlns:gpxtpx="http://www.garmin.com/xmlschemas/TrackPointExtension/v1">
            <gpxtpx:hr>155</gpxtpx:hr>
          </gpxtpx:TrackPointExtension>
        </extensions>
      </trkpt>
      <trkpt lat="49.3531" lon="1.06893">
        <ele>78.338768005371</ele>
        <time>2017-04-09T09:12:24.000Z</time>
        <extensions>
          <gpxtpx:TrackPointExtension xmlns:gpxtpx="http://www.garmin.com/xmlschemas/TrackPointExtension/v1">
            <gpxtpx:hr>156</gpxtpx:hr>
          </gpxtpx:TrackPointExtension>
        </extensions>
      </trkpt>
      <trkpt lat="49.35313" lon="1.0689">
        <ele>78.226539611816</ele>
        <time>2017-04-09T09:12:26.000Z</time>
      </trkpt>
      <trkpt lat="49.35316" lon="1.06883">
        <ele>78.144813537598</ele>
        <time>2017-04-09T09:12:28.000Z</time>
      </trkpt>
      <trkpt lat="49.35321" lon="1.06876">
        <ele>78.085655212402</ele>
        <time>2017-04-09T09:12:31.000Z</time>
      </trkpt>
      <trkpt lat="49.35323" lon="1.06871">
        <ele>78.074478149414</ele>
        <time>2017-04-09T09:12:33.000Z</time>
      </trkpt>
      <trkpt lat="49.35327" lon="1.06863">
        <ele>78.097328186035</ele>
        <time>2017-04-09T09:12:36.000Z</time>
      </trkpt>
      <trkpt lat="49.35329" lon="1.06855">
        <ele>78.168388366699</ele>
        <time>2017-04-09T09:12:39.000Z</time>
      </trkpt>
      <trkpt lat="49.35334" lon="1.06847">
        <ele>78.26725769043</ele>
        <time>2017-04-09T09:12:42.000Z</time>
      </trkpt>
      <trkpt lat="49.3534" lon="1.06843">
        <ele>78.427932739258</ele>
        <time>2017-04-09T09:12:45.000Z</time>
      </trkpt>
      <trkpt lat="49.35344" lon="1.06843">
        <ele>78.617546081543</ele>
        <time>2017-04-09T09:12:47.000Z</time>
      </trkpt>
      <trkpt lat="49.3535" lon="1.06841">
        <ele>78.84309387207</ele>
        <time>2017-04-09T09:12:50.000Z</time>
      </trkpt>
      <trkpt lat="49.35353" lon="1.06836">
        <ele>79.08625793457</ele>
        <time>2017-04-09T09:12:52.000Z</time>
      </trkpt>
      <trkpt lat="49.35353" lon="1.06828">
        <ele>79.370010375977</ele>
        <time>2017-04-09T09:12:55.000Z</time>
      </trkpt>
      <trkpt lat="49.3535" lon="1.0682">
        <ele>79.627342224121</ele>
        <time>2017-04-09T09:12:58.000Z</time>
      </trkpt>
      <trkpt lat="49.35351" lon="1.06814">
        <ele>79.916168212891</ele>
        <time>2017-04-09T09:13:01.000Z</time>
        <extensions>
          <gpxtpx:TrackPointExtension xmlns:gpxtpx="http://www.garmin.com/xmlschemas/TrackPointExtension/v1">
            <gpxtpx:hr>158</gpxtpx:hr>
          </gpxtpx:TrackPointExtension>
        </extensions>
      </trkpt>
      <trkpt lat="49.35353" lon="1.0681">
        <ele>80.205459594727</ele>
        <time>2017-04-09T09:13:03.000Z</time>
        <extensions>
          <gpxtpx:TrackPointExtension xmlns:gpxtpx="http://www.garmin.com/xmlschemas/TrackPointExtension/v1">
            <gpxtpx:hr>157</gpxtpx:hr>
          </gpxtpx:TrackPointExtension>
        </extensions>
      </trkpt>
      <trkpt lat="49.35358" lon="1.06799">
        <ele>80.565910339355</ele>
        <time>2017-04-09T09:13:06.000Z</time>
        <extensions>
          <gpxtpx:TrackPointExtension xmlns:gpxtpx="http://www.garmin.com/xmlschemas/TrackPointExtension/v1">
            <gpxtpx:hr>154</gpxtpx:hr>
          </gpxtpx:TrackPointExtension>
        </extensions>
      </trkpt>
      <trkpt lat="49.35362" lon="1.06792">
        <ele>80.948143005371</ele>
        <time>2017-04-09T09:13:08.000Z</time>
        <extensions>
          <gpxtpx:TrackPointExtension xmlns:gpxtpx="http://www.garmin.com/xmlschemas/TrackPointExtension/v1">
            <gpxtpx:hr>150</gpxtpx:hr>
          </gpxtpx:TrackPointExtension>
        </extensions>
      </trkpt>
      <trkpt lat="49.35363" lon="1.06778">
        <ele>81.417633056641</ele>
        <time>2017-04-09T09:13:11.000Z</time>
        <extensions>
          <gpxtpx:TrackPointExtension xmlns:gpxtpx="http://www.garmin.com/xmlschemas/TrackPointExtension/v1">
            <gpxtpx:hr>149</gpxtpx:hr>
          </gpxtpx:TrackPointExtension>
        </extensions>
      </trkpt>
      <trkpt lat="49.35366" lon="1.06769">
        <ele>81.905738830566</ele>
        <time>2017-04-09T09:13:13.000Z</time>
        <extensions>
          <gpxtpx:TrackPointExtension xmlns:gpxtpx="http://www.garmin.com/xmlschemas/TrackPointExtension/v1">
            <gpxtpx:hr>149</gpxtpx:hr>
          </gpxtpx:TrackPointExtension>
        </extensions>
      </trkpt>
      <trkpt lat="49.35364" lon="1.06758">
        <ele>82.426666259766</ele>
        <time>2017-04-09T09:13:16.000Z</time>
        <extensions>
          <gpxtpx:TrackPointExtension xmlns:gpxtpx="http://www.garmin.com/xmlschemas/TrackPointExtension/v1">
            <gpxtpx:hr>152</gpxtpx:hr>
          </gpxtpx:TrackPointExtension>
        </extensions>
      </trkpt>
      <trkpt lat="49.35358" lon="1.0675">
        <ele>82.861526489258</ele>
        <time>2017-04-09T09:13:18.000Z</time>
        <extensions>
          <gpxtpx:TrackPointExtension xmlns:gpxtpx="http://www.garmin.com/xmlschemas/TrackPointExtension/v1">
            <gpxtpx:hr>156</gpxtpx:hr>
          </gpxtpx:TrackPointExtension>
        </extensions>
      </trkpt>
      <trkpt lat="49.35352" lon="1.06725">
        <ele>83.08952331543</ele>
        <time>2017-04-09T09:13:21.000Z</time>
        <extensions>
          <gpxtpx:TrackPointExtension xmlns:gpxtpx="http://www.garmin.com/xmlschemas/TrackPointExtension/v1">
            <gpxtpx:hr>159</gpxtpx:hr>
          </gpxtpx:TrackPointExtension>
        </extensions>
      </trkpt>
      <trkpt lat="49.35356" lon="1.06713">
        <ele>83.156677246094</ele>
        <time>2017-04-09T09:13:23.000Z</time>
      </trkpt>
      <trkpt lat="49.3536" lon="1.06697">
        <ele>83.085311889648</ele>
        <time>2017-04-09T09:13:26.000Z</time>
      </trkpt>
      <trkpt lat="49.35359" lon="1.06683">
        <ele>82.870712280273</ele>
        <time>2017-04-09T09:13:29.000Z</time>
      </trkpt>
      <trkpt lat="49.35359" lon="1.06675">
        <ele>82.585777282715</ele>
        <time>2017-04-09T09:13:31.000Z</time>
      </trkpt>
      <trkpt lat="49.35361" lon="1.06661">
        <ele>82.360733032227</ele>
        <time>2017-04-09T09:13:34.000Z</time>
      </trkpt>
      <trkpt lat="49.35362" lon="1.06651">
        <ele>82.128456115723</ele>
        <time>2017-04-09T09:13:36.000Z</time>
      </trkpt>
      <trkpt lat="49.35366" lon="1.06638">
        <ele>81.901809692383</ele>
        <time>2017-04-09T09:13:39.000Z</time>
      </trkpt>
      <trkpt lat="49.35372" lon="1.0664">
        <ele>81.740440368652</ele>
        <time>2017-04-09T09:13:42.000Z</time>
      </trkpt>
      <trkpt lat="49.35379" lon="1.06638">
        <ele>81.607223510742</ele>
        <time>2017-04-09T09:13:45.000Z</time>
      </trkpt>
      <trkpt lat="49.35384" lon="1.06625">
        <ele>81.491752624512</ele>
        <time>2017-04-09T09:13:48.000Z</time>
      </trkpt>
      <trkpt lat="49.3539" lon="1.06617">
        <ele>81.396347045898</ele>
        <time>2017-04-09T09:13:51.000Z</time>
      </trkpt>
      <trkpt lat="49.35393" lon="1.06615">
        <ele>81.347610473633</ele>
        <time>2017-04-09T09:13:53.000Z</time>
      </trkpt>
      <trkpt lat="49.35396" lon="1.06611">
        <ele>81.280349731445</ele>
        <time>2017-04-09T09:13:56.000Z</time>
      </trkpt>
      <trkpt lat="49.354" lon="1.06609">
        <ele>81.213272094727</ele>
        <time>2017-04-09T09:13:58.000Z</time>
      </trkpt>
      <trkpt lat="49.35405" lon="1.06606">
        <ele>81.185844421387</ele>
        <time>2017-04-09T09:14:01.000Z</time>
        <extensions>
          <gpxtpx:TrackPointExtension xmlns:gpxtpx="http://www.garmin.com/xmlschemas/TrackPointExtension/v1">
            <gpxtpx:hr>159</gpxtpx:hr>
          </gpxtpx:TrackPointExtension>
        </extensions>
      </trkpt>
      <trkpt lat="49.3541" lon="1.06601">
        <ele>81.17204284668</ele>
        <time>2017-04-09T09:14:04.000Z</time>
      </trkpt>
      <trkpt lat="49.35412" lon="1.06596">
        <ele>81.152015686035</ele>
        <time>2017-04-09T09:14:06.000Z</time>
        <extensions>
          <gpxtpx:TrackPointExtension xmlns:gpxtpx="http://www.garmin.com/xmlschemas/TrackPointExtension/v1">
            <gpxtpx:hr>158</gpxtpx:hr>
          </gpxtpx:TrackPointExtension>
        </extensions>
      </trkpt>
      <trkpt lat="49.35415" lon="1.06592">
        <ele>81.13362121582</ele>
        <time>2017-04-09T09:14:08.000Z</time>
        <extensions>
          <gpxtpx:TrackPointExtension xmlns:gpxtpx="http://www.garmin.com/xmlschemas/TrackPointExtension/v1">
            <gpxtpx:hr>157</gpxtpx:hr>
          </gpxtpx:TrackPointExtension>
        </extensions>
      </trkpt>
      <trkpt lat="49.35421" lon="1.06588">
        <ele>81.185195922852</ele>
        <time>2017-04-09T09:14:11.000Z</time>
        <extensions>
          <gpxtpx:TrackPointExtension xmlns:gpxtpx="http://www.garmin.com/xmlschemas/TrackPointExtension/v1">
            <gpxtpx:hr>154</gpxtpx:hr>
          </gpxtpx:TrackPointExtension>
        </extensions>
      </trkpt>
      <trkpt lat="49.35425" lon="1.0659">
        <ele>81.306686401367</ele>
        <time>2017-04-09T09:14:13.000Z</time>
        <extensions>
          <gpxtpx:TrackPointExtension xmlns:gpxtpx="http://www.garmin.com/xmlschemas/TrackPointExtension/v1">
            <gpxtpx:hr>151</gpxtpx:hr>
          </gpxtpx:TrackPointExtension>
        </extensions>
      </trkpt>
      <trkpt lat="49.35429" lon="1.06596">
        <ele>81.493370056152</ele>
        <time>2017-04-09T09:14:15.000Z</time>
        <extensions>
          <gpxtpx:TrackPointExtension xmlns:gpxtpx="http://www.garmin.com/xmlschemas/TrackPointExtension/v1">
            <gpxtpx:hr>148</gpxtpx:hr>
          </gpxtpx:TrackPointExtension>
        </extensions>
      </trkpt>
      <trkpt lat="49.35433" lon="1.06605">
        <ele>81.766220092773</ele>
        <time>2017-04-09T09:14:18.000Z</time>
        <extensions>
          <gpxtpx:TrackPointExtension xmlns:gpxtpx="http://www.garmin.com/xmlschemas/TrackPointExtension/v1">
            <gpxtpx:hr>147</gpxtpx:hr>
          </gpxtpx:TrackPointExtension>
        </extensions>
      </trkpt>
      <trkpt lat="49.35438" lon="1.06612">
        <ele>82.127235412598</ele>
        <time>2017-04-09T09:14:21.000Z</time>
      </trkpt>
      <trkpt lat="49.35442" lon="1.06618">
        <ele>82.469276428223</ele>
        <time>2017-04-09T09:14:23.000Z</time>
      </trkpt>
      <trkpt lat="49.35445" lon="1.06622">
        <ele>82.784591674805</ele>
        <time>2017-04-09T09:14:25.000Z</time>
      </trkpt>
      <trkpt lat="49.3545" lon="1.06628">
        <ele>83.102821350098</ele>
        <time>2017-04-09T09:14:28.000Z</time>
      </trkpt>
      <trkpt lat="49.35453" lon="1.06627">
        <ele>83.379295349121</ele>
        <time>2017-04-09T09:14:30.000Z</time>
      </trkpt>
      <trkpt lat="49.35455" lon="1.06621">
        <ele>83.610343933105</ele>
        <time>2017-04-09T09:14:33.000Z</time>
      </trkpt>
      <trkpt lat="49.35457" lon="1.06614">
        <ele>83.833786010742</ele>
        <time>2017-04-09T09:14:36.000Z</time>
      </trkpt>
      <trkpt lat="49.3546" lon="1.06617">
        <ele>84.037940979004</ele>
        <time>2017-04-09T09:14:38.000Z</time>
      </trkpt>
      <trkpt lat="49.35463" lon="1.06621">
        <ele>84.216567993164</ele>
        <time>2017-04-09T09:14:40.000Z</time>
      </trkpt>
      <trkpt lat="49.35468" lon="1.06629">
        <ele>84.414833068848</ele>
        <time>2017-04-09T09:14:43.000Z</time>
      </trkpt>
      <trkpt lat="49.35472" lon="1.06632">
        <ele>84.618942260742</ele>
        <time>2017-04-09T09:14:45.000Z</time>
      </trkpt>
      <trkpt lat="49.35476" lon="1.06632">
        <ele>84.834045410156</ele>
        <time>2017-04-09T09:14:47.000Z</time>
      </trkpt>
      <trkpt lat="49.35479" lon="1.0663">
        <ele>85.070297241211</ele>
        <time>2017-04-09T09:14:49.000Z</time>
      </trkpt>
      <trkpt lat="49.35484" lon="1.06629">
        <ele>85.331604003906</ele>
        <time>2017-04-09T09:14:52.000Z</time>
      </trkpt>
      <trkpt lat="49.3549" lon="1.06625">
        <ele>85.635429382324</ele>
        <time>2017-04-09T09:14:55.000Z</time>
      </trkpt>
      <trkpt lat="49.35495" lon="1.06623">
        <ele>85.963653564453</ele>
        <time>2017-04-09T09:14:57.000Z</time>
      </trkpt>
      <trkpt lat="49.35503" lon="1.06619">
        <ele>86.335311889648</ele>
        <time>2017-04-09T09:15:00.000Z</time>
        <extensions>
          <gpxtpx:TrackPointExtension xmlns:gpxtpx="http://www.garmin.com/xmlschemas/TrackPointExtension/v1">
            <gpxtpx:hr>145</gpxtpx:hr>
          </gpxtpx:TrackPointExtension>
        </extensions>
      </trkpt>
      <trkpt lat="49.35508" lon="1.06616">
        <ele>86.688491821289</ele>
        <time>2017-04-09T09:15:02.000Z</time>
        <extensions>
          <gpxtpx:TrackPointExtension xmlns:gpxtpx="http://www.garmin.com/xmlschemas/TrackPointExtension/v1">
            <gpxtpx:hr>144</gpxtpx:hr>
          </gpxtpx:TrackPointExtension>
        </extensions>
      </trkpt>
      <trkpt lat="49.35513" lon="1.06611">
        <ele>87.023139953613</ele>
        <time>2017-04-09T09:15:05.000Z</time>
        <extensions>
          <gpxtpx:TrackPointExtension xmlns:gpxtpx="http://www.garmin.com/xmlschemas/TrackPointExtension/v1">
            <gpxtpx:hr>146</gpxtpx:hr>
          </gpxtpx:TrackPointExtension>
        </extensions>
      </trkpt>
      <trkpt lat="49.35517" lon="1.06607">
        <ele>87.295425415039</ele>
        <time>2017-04-09T09:15:07.000Z</time>
        <extensions>
          <gpxtpx:TrackPointExtension xmlns:gpxtpx="http://www.garmin.com/xmlschemas/TrackPointExtension/v1">
            <gpxtpx:hr>143</gpxtpx:hr>
          </gpxtpx:TrackPointExtension>
        </extensions>
      </trkpt>
      <trkpt lat="49.35521" lon="1.06598">
        <ele>87.568809509277</ele>
        <time>2017-04-09T09:15:10.000Z</time>
        <extensions>
          <gpxtpx:TrackPointExtension xmlns:gpxtpx="http://www.garmin.com/xmlschemas/TrackPointExtension/v1">
            <gpxtpx:hr>145</gpxtpx:hr>
          </gpxtpx:TrackPointExtension>
        </extensions>
      </trkpt>
      <trkpt lat="49.35521" lon="1.06591">
        <ele>87.78897857666</ele>
        <time>2017-04-09T09:15:12.000Z</time>
        <extensions>
          <gpxtpx:TrackPointExtension xmlns:gpxtpx="http://www.garmin.com/xmlschemas/TrackPointExtension/v1">
            <gpxtpx:hr>144</gpxtpx:hr>
          </gpxtpx:TrackPointExtension>
        </extensions>
      </trkpt>
      <trkpt lat="49.35521" lon="1.06582">
        <ele>88.024841308594</ele>
        <time>2017-04-09T09:15:15.000Z</time>
        <extensions>
          <gpxtpx:TrackPointExtension xmlns:gpxtpx="http://www.garmin.com/xmlschemas/TrackPointExtension/v1">
            <gpxtpx:hr>147</gpxtpx:hr>
          </gpxtpx:TrackPointExtension>
        </extensions>
      </trkpt>
      <trkpt lat="49.35521" lon="1.06576">
        <ele>88.23503112793</ele>
        <time>2017-04-09T09:15:17.000Z</time>
      </trkpt>
      <trkpt lat="49.35521" lon="1.06567">
        <ele>88.429702758789</ele>
        <time>2017-04-09T09:15:19.000Z</time>
      </trkpt>
      <trkpt lat="49.35521" lon="1.06561">
        <ele>88.567604064941</ele>
        <time>2017-04-09T09:15:21.000Z</time>
      </trkpt>
      <trkpt lat="49.3552" lon="1.06549">
        <ele>88.689476013184</ele>
        <time>2017-04-09T09:15:24.000Z</time>
      </trkpt>
      <trkpt lat="49.3552" lon="1.06539">
        <ele>88.792091369629</ele>
        <time>2017-04-09T09:15:26.000Z</time>
      </trkpt>
      <trkpt lat="49.3552" lon="1.06531">
        <ele>88.89323425293</ele>
        <time>2017-04-09T09:15:28.000Z</time>
      </trkpt>
      <trkpt lat="49.35522" lon="1.06519">
        <ele>89.012191772461</ele>
        <time>2017-04-09T09:15:31.000Z</time>
      </trkpt>
      <trkpt lat="49.35526" lon="1.06509">
        <ele>89.161437988281</ele>
        <time>2017-04-09T09:15:34.000Z</time>
      </trkpt>
      <trkpt lat="49.35525" lon="1.06499">
        <ele>89.309341430664</ele>
        <time>2017-04-09T09:15:37.000Z</time>
      </trkpt>
      <trkpt lat="49.35524" lon="1.0649">
        <ele>89.467849731445</ele>
        <time>2017-04-09T09:15:39.000Z</time>
      </trkpt>
      <trkpt lat="49.35525" lon="1.06479">
        <ele>89.669418334961</ele>
        <time>2017-04-09T09:15:42.000Z</time>
      </trkpt>
      <trkpt lat="49.35524" lon="1.06472">
        <ele>89.859443664551</ele>
        <time>2017-04-09T09:15:44.000Z</time>
      </trkpt>
      <trkpt lat="49.35528" lon="1.06458">
        <ele>90.094299316406</ele>
        <time>2017-04-09T09:15:47.000Z</time>
      </trkpt>
      <trkpt lat="49.35532" lon="1.06445">
        <ele>90.387664794922</ele>
        <time>2017-04-09T09:15:50.000Z</time>
      </trkpt>
      <trkpt lat="49.35533" lon="1.06433">
        <ele>90.705902099609</ele>
        <time>2017-04-09T09:15:53.000Z</time>
      </trkpt>
      <trkpt lat="49.35533" lon="1.06428">
        <ele>90.986145019531</ele>
        <time>2017-04-09T09:15:55.000Z</time>
      </trkpt>
      <trkpt lat="49.35536" lon="1.06415">
        <ele>91.306419372559</ele>
        <time>2017-04-09T09:15:58.000Z</time>
      </trkpt>
      <trkpt lat="49.35538" lon="1.06406">
        <ele>91.53833770752</ele>
        <time>2017-04-09T09:16:00.000Z</time>
        <extensions>
          <gpxtpx:TrackPointExtension xmlns:gpxtpx="http://www.garmin.com/xmlschemas/TrackPointExtension/v1">
            <gpxtpx:hr>147</gpxtpx:hr>
          </gpxtpx:TrackPointExtension>
        </extensions>
      </trkpt>
      <trkpt lat="49.35541" lon="1.06394">
        <ele>91.687377929688</ele>
        <time>2017-04-09T09:16:03.000Z</time>
        <extensions>
          <gpxtpx:TrackPointExtension xmlns:gpxtpx="http://www.garmin.com/xmlschemas/TrackPointExtension/v1">
            <gpxtpx:hr>147</gpxtpx:hr>
          </gpxtpx:TrackPointExtension>
        </extensions>
      </trkpt>
      <trkpt lat="49.35545" lon="1.06382">
        <ele>91.781890869141</ele>
        <time>2017-04-09T09:16:06.000Z</time>
        <extensions>
          <gpxtpx:TrackPointExtension xmlns:gpxtpx="http://www.garmin.com/xmlschemas/TrackPointExtension/v1">
            <gpxtpx:hr>147</gpxtpx:hr>
          </gpxtpx:TrackPointExtension>
        </extensions>
      </trkpt>
      <trkpt lat="49.35548" lon="1.06374">
        <ele>91.870582580566</ele>
        <time>2017-04-09T09:16:08.000Z</time>
      </trkpt>
      <trkpt lat="49.35551" lon="1.06367">
        <ele>91.896408081055</ele>
        <time>2017-04-09T09:16:10.000Z</time>
      </trkpt>
      <trkpt lat="49.35551" lon="1.06353">
        <ele>91.913330078125</ele>
        <time>2017-04-09T09:16:13.000Z</time>
        <extensions>
          <gpxtpx:TrackPointExtension xmlns:gpxtpx="http://www.garmin.com/xmlschemas/TrackPointExtension/v1">
            <gpxtpx:hr>147</gpxtpx:hr>
          </gpxtpx:TrackPointExtension>
        </extensions>
      </trkpt>
      <trkpt lat="49.35553" lon="1.06344">
        <ele>91.932975769043</ele>
        <time>2017-04-09T09:16:15.000Z</time>
      </trkpt>
      <trkpt lat="49.35553" lon="1.06332">
        <ele>91.941795349121</ele>
        <time>2017-04-09T09:16:18.000Z</time>
      </trkpt>
      <trkpt lat="49.35553" lon="1.06323">
        <ele>91.951560974121</ele>
        <time>2017-04-09T09:16:20.000Z</time>
      </trkpt>
      <trkpt lat="49.35556" lon="1.06314">
        <ele>91.989395141602</ele>
        <time>2017-04-09T09:16:22.000Z</time>
      </trkpt>
      <trkpt lat="49.3556" lon="1.06303">
        <ele>92.087852478027</ele>
        <time>2017-04-09T09:16:24.000Z</time>
      </trkpt>
      <trkpt lat="49.35563" lon="1.06288">
        <ele>92.230918884277</ele>
        <time>2017-04-09T09:16:27.000Z</time>
      </trkpt>
      <trkpt lat="49.35567" lon="1.06273">
        <ele>92.449356079102</ele>
        <time>2017-04-09T09:16:30.000Z</time>
      </trkpt>
      <trkpt lat="49.3557" lon="1.06261">
        <ele>92.70002746582</ele>
        <time>2017-04-09T09:16:33.000Z</time>
      </trkpt>
      <trkpt lat="49.35569" lon="1.06249">
        <ele>92.928443908691</ele>
        <time>2017-04-09T09:16:36.000Z</time>
      </trkpt>
      <trkpt lat="49.35567" lon="1.06242">
        <ele>93.089599609375</ele>
        <time>2017-04-09T09:16:38.000Z</time>
      </trkpt>
      <trkpt lat="49.35566" lon="1.06231">
        <ele>93.197937011719</ele>
        <time>2017-04-09T09:16:41.000Z</time>
      </trkpt>
      <trkpt lat="49.35569" lon="1.0622">
        <ele>93.273483276367</ele>
        <time>2017-04-09T09:16:44.000Z</time>
      </trkpt>
      <trkpt lat="49.35572" lon="1.06214">
        <ele>93.326629638672</ele>
        <time>2017-04-09T09:16:46.000Z</time>
      </trkpt>
      <trkpt lat="49.35577" lon="1.06203">
        <ele>93.412857055664</ele>
        <time>2017-04-09T09:16:49.000Z</time>
      </trkpt>
      <trkpt lat="49.35583" lon="1.06197">
        <ele>93.565773010254</ele>
        <time>2017-04-09T09:16:51.000Z</time>
      </trkpt>
      <trkpt lat="49.35592" lon="1.06191">
        <ele>93.762184143066</ele>
        <time>2017-04-09T09:16:54.000Z</time>
      </trkpt>
      <trkpt lat="49.35595" lon="1.06184">
        <ele>93.933380126953</ele>
        <time>2017-04-09T09:16:56.000Z</time>
      </trkpt>
      <trkpt lat="49.35599" lon="1.06174">
        <ele>94.101097106934</ele>
        <time>2017-04-09T09:16:59.000Z</time>
      </trkpt>
      <trkpt lat="49.35604" lon="1.06166">
        <ele>94.25276184082</ele>
        <time>2017-04-09T09:17:02.000Z</time>
        <extensions>
          <gpxtpx:TrackPointExtension xmlns:gpxtpx="http://www.garmin.com/xmlschemas/TrackPointExtension/v1">
            <gpxtpx:hr>148</gpxtpx:hr>
          </gpxtpx:TrackPointExtension>
        </extensions>
      </trkpt>
      <trkpt lat="49.35608" lon="1.06159">
        <ele>94.363380432129</ele>
        <time>2017-04-09T09:17:04.000Z</time>
        <extensions>
          <gpxtpx:TrackPointExtension xmlns:gpxtpx="http://www.garmin.com/xmlschemas/TrackPointExtension/v1">
            <gpxtpx:hr>147</gpxtpx:hr>
          </gpxtpx:TrackPointExtension>
        </extensions>
      </trkpt>
      <trkpt lat="49.35614" lon="1.06153">
        <ele>94.464126586914</ele>
        <time>2017-04-09T09:17:07.000Z</time>
        <extensions>
          <gpxtpx:TrackPointExtension xmlns:gpxtpx="http://www.garmin.com/xmlschemas/TrackPointExtension/v1">
            <gpxtpx:hr>146</gpxtpx:hr>
          </gpxtpx:TrackPointExtension>
        </extensions>
      </trkpt>
      <trkpt lat="49.35615" lon="1.06147">
        <ele>94.558197021484</ele>
        <time>2017-04-09T09:17:09.000Z</time>
        <extensions>
          <gpxtpx:TrackPointExtension xmlns:gpxtpx="http://www.garmin.com/xmlschemas/TrackPointExtension/v1">
            <gpxtpx:hr>147</gpxtpx:hr>
          </gpxtpx:TrackPointExtension>
        </extensions>
      </trkpt>
      <trkpt lat="49.35614" lon="1.06137">
        <ele>94.612251281738</ele>
        <time>2017-04-09T09:17:12.000Z</time>
        <extensions>
          <gpxtpx:TrackPointExtension xmlns:gpxtpx="http://www.garmin.com/xmlschemas/TrackPointExtension/v1">
            <gpxtpx:hr>147</gpxtpx:hr>
          </gpxtpx:TrackPointExtension>
        </extensions>
      </trkpt>
      <trkpt lat="49.35616" lon="1.0613">
        <ele>94.647964477539</ele>
        <time>2017-04-09T09:17:14.000Z</time>
        <extensions>
          <gpxtpx:TrackPointExtension xmlns:gpxtpx="http://www.garmin.com/xmlschemas/TrackPointExtension/v1">
            <gpxtpx:hr>149</gpxtpx:hr>
          </gpxtpx:TrackPointExtension>
        </extensions>
      </trkpt>
      <trkpt lat="49.35622" lon="1.06124">
        <ele>94.715682983398</ele>
        <time>2017-04-09T09:17:17.000Z</time>
      </trkpt>
      <trkpt lat="49.35626" lon="1.06122">
        <ele>94.785118103027</ele>
        <time>2017-04-09T09:17:19.000Z</time>
      </trkpt>
      <trkpt lat="49.3563" lon="1.06117">
        <ele>94.883544921875</ele>
        <time>2017-04-09T09:17:21.000Z</time>
      </trkpt>
      <trkpt lat="49.35637" lon="1.06109">
        <ele>95.053718566895</ele>
        <time>2017-04-09T09:17:24.000Z</time>
      </trkpt>
      <trkpt lat="49.3564" lon="1.06107">
        <ele>95.246162414551</ele>
        <time>2017-04-09T09:17:26.000Z</time>
      </trkpt>
      <trkpt lat="49.35648" lon="1.06105">
        <ele>95.460678100586</ele>
        <time>2017-04-09T09:17:29.000Z</time>
      </trkpt>
      <trkpt lat="49.35653" lon="1.06103">
        <ele>95.68936920166</ele>
        <time>2017-04-09T09:17:31.000Z</time>
      </trkpt>
      <trkpt lat="49.35658" lon="1.06098">
        <ele>95.933715820312</ele>
        <time>2017-04-09T09:17:33.000Z</time>
      </trkpt>
      <trkpt lat="49.35666" lon="1.06092">
        <ele>96.211494445801</ele>
        <time>2017-04-09T09:17:36.000Z</time>
      </trkpt>
      <trkpt lat="49.35676" lon="1.06087">
        <ele>96.408493041992</ele>
        <time>2017-04-09T09:17:39.000Z</time>
      </trkpt>
      <trkpt lat="49.35686" lon="1.06081">
        <ele>96.470710754395</ele>
        <time>2017-04-09T09:17:42.000Z</time>
      </trkpt>
      <trkpt lat="49.35695" lon="1.06069">
        <ele>96.409927368164</ele>
        <time>2017-04-09T09:17:45.000Z</time>
      </trkpt>
      <trkpt lat="49.35697" lon="1.06063">
        <ele>96.274955749512</ele>
        <time>2017-04-09T09:17:47.000Z</time>
      </trkpt>
      <trkpt lat="49.357" lon="1.06055">
        <ele>96.019256591797</ele>
        <time>2017-04-09T09:17:49.000Z</time>
      </trkpt>
      <trkpt lat="49.35706" lon="1.06043">
        <ele>95.763145446777</ele>
        <time>2017-04-09T09:17:52.000Z</time>
      </trkpt>
      <trkpt lat="49.35713" lon="1.0603">
        <ele>95.520065307617</ele>
        <time>2017-04-09T09:17:55.000Z</time>
      </trkpt>
      <trkpt lat="49.35717" lon="1.06023">
        <ele>95.326194763184</ele>
        <time>2017-04-09T09:17:57.000Z</time>
      </trkpt>
      <trkpt lat="49.35724" lon="1.06013">
        <ele>95.111572265625</ele>
        <time>2017-04-09T09:18:00.000Z</time>
        <extensions>
          <gpxtpx:TrackPointExtension xmlns:gpxtpx="http://www.garmin.com/xmlschemas/TrackPointExtension/v1">
            <gpxtpx:hr>148</gpxtpx:hr>
          </gpxtpx:TrackPointExtension>
        </extensions>
      </trkpt>
      <trkpt lat="49.35729" lon="1.06007">
        <ele>94.897880554199</ele>
        <time>2017-04-09T09:18:02.000Z</time>
        <extensions>
          <gpxtpx:TrackPointExtension xmlns:gpxtpx="http://www.garmin.com/xmlschemas/TrackPointExtension/v1">
            <gpxtpx:hr>148</gpxtpx:hr>
          </gpxtpx:TrackPointExtension>
        </extensions>
      </trkpt>
      <trkpt lat="49.35734" lon="1.06001">
        <ele>94.708656311035</ele>
        <time>2017-04-09T09:18:04.000Z</time>
        <extensions>
          <gpxtpx:TrackPointExtension xmlns:gpxtpx="http://www.garmin.com/xmlschemas/TrackPointExtension/v1">
            <gpxtpx:hr>143</gpxtpx:hr>
          </gpxtpx:TrackPointExtension>
        </extensions>
      </trkpt>
      <trkpt lat="49.35739" lon="1.05998">
        <ele>94.551284790039</ele>
        <time>2017-04-09T09:18:07.000Z</time>
        <extensions>
          <gpxtpx:TrackPointExtension xmlns:gpxtpx="http://www.garmin.com/xmlschemas/TrackPointExtension/v1">
            <gpxtpx:hr>139</gpxtpx:hr>
          </gpxtpx:TrackPointExtension>
        </extensions>
      </trkpt>
      <trkpt lat="49.35743" lon="1.06">
        <ele>94.406814575195</ele>
        <time>2017-04-09T09:18:09.000Z</time>
        <extensions>
          <gpxtpx:TrackPointExtension xmlns:gpxtpx="http://www.garmin.com/xmlschemas/TrackPointExtension/v1">
            <gpxtpx:hr>137</gpxtpx:hr>
          </gpxtpx:TrackPointExtension>
        </extensions>
      </trkpt>
      <trkpt lat="49.35751" lon="1.06006">
        <ele>94.268417358398</ele>
        <time>2017-04-09T09:18:12.000Z</time>
        <extensions>
          <gpxtpx:TrackPointExtension xmlns:gpxtpx="http://www.garmin.com/xmlschemas/TrackPointExtension/v1">
            <gpxtpx:hr>136</gpxtpx:hr>
          </gpxtpx:TrackPointExtension>
        </extensions>
      </trkpt>
      <trkpt lat="49.35762" lon="1.06014">
        <ele>94.12557220459</ele>
        <time>2017-04-09T09:18:15.000Z</time>
        <extensions>
          <gpxtpx:TrackPointExtension xmlns:gpxtpx="http://www.garmin.com/xmlschemas/TrackPointExtension/v1">
            <gpxtpx:hr>136</gpxtpx:hr>
          </gpxtpx:TrackPointExtension>
        </extensions>
      </trkpt>
      <trkpt lat="49.35775" lon="1.06023">
        <ele>93.954696655273</ele>
        <time>2017-04-09T09:18:18.000Z</time>
        <extensions>
          <gpxtpx:TrackPointExtension xmlns:gpxtpx="http://www.garmin.com/xmlschemas/TrackPointExtension/v1">
            <gpxtpx:hr>131</gpxtpx:hr>
          </gpxtpx:TrackPointExtension>
        </extensions>
      </trkpt>
      <trkpt lat="49.35787" lon="1.06022">
        <ele>93.764465332031</ele>
        <time>2017-04-09T09:18:21.000Z</time>
        <extensions>
          <gpxtpx:TrackPointExtension xmlns:gpxtpx="http://www.garmin.com/xmlschemas/TrackPointExtension/v1">
            <gpxtpx:hr>126</gpxtpx:hr>
          </gpxtpx:TrackPointExtension>
        </extensions>
      </trkpt>
      <trkpt lat="49.35794" lon="1.06016">
        <ele>93.5830078125</ele>
        <time>2017-04-09T09:18:24.000Z</time>
      </trkpt>
      <trkpt lat="49.35799" lon="1.06017">
        <ele>93.420433044434</ele>
        <time>2017-04-09T09:18:26.000Z</time>
      </trkpt>
      <trkpt lat="49.35807" lon="1.06024">
        <ele>93.242477416992</ele>
        <time>2017-04-09T09:18:29.000Z</time>
      </trkpt>
      <trkpt lat="49.35808" lon="1.06025">
        <ele>93.111427307129</ele>
        <time>2017-04-09T09:18:31.000Z</time>
      </trkpt>
      <trkpt lat="49.35812" lon="1.06031">
        <ele>92.991218566895</ele>
        <time>2017-04-09T09:18:35.000Z</time>
      </trkpt>
      <trkpt lat="49.35813" lon="1.06032">
        <ele>92.872352600098</ele>
        <time>2017-04-09T09:18:40.000Z</time>
      </trkpt>
      <trkpt lat="49.35814" lon="1.06034">
        <ele>92.762802124023</ele>
        <time>2017-04-09T09:18:43.000Z</time>
      </trkpt>
      <trkpt lat="49.35815" lon="1.06039">
        <ele>92.674278259277</ele>
        <time>2017-04-09T09:18:46.000Z</time>
      </trkpt>
      <trkpt lat="49.35819" lon="1.06045">
        <ele>92.553070068359</ele>
        <time>2017-04-09T09:18:48.000Z</time>
      </trkpt>
      <trkpt lat="49.35825" lon="1.06055">
        <ele>92.396362304688</ele>
        <time>2017-04-09T09:18:51.000Z</time>
      </trkpt>
      <trkpt lat="49.35829" lon="1.06066">
        <ele>92.170288085938</ele>
        <time>2017-04-09T09:18:54.000Z</time>
      </trkpt>
      <trkpt lat="49.35836" lon="1.06079">
        <ele>91.859527587891</ele>
        <time>2017-04-09T09:18:57.000Z</time>
      </trkpt>
      <trkpt lat="49.35842" lon="1.06088">
        <ele>91.522125244141</ele>
        <time>2017-04-09T09:19:00.000Z</time>
        <extensions>
          <gpxtpx:TrackPointExtension xmlns:gpxtpx="http://www.garmin.com/xmlschemas/TrackPointExtension/v1">
            <gpxtpx:hr>124</gpxtpx:hr>
          </gpxtpx:TrackPointExtension>
        </extensions>
      </trkpt>
      <trkpt lat="49.35846" lon="1.06095">
        <ele>91.188262939453</ele>
        <time>2017-04-09T09:19:02.000Z</time>
        <extensions>
          <gpxtpx:TrackPointExtension xmlns:gpxtpx="http://www.garmin.com/xmlschemas/TrackPointExtension/v1">
            <gpxtpx:hr>118</gpxtpx:hr>
          </gpxtpx:TrackPointExtension>
        </extensions>
      </trkpt>
      <trkpt lat="49.35851" lon="1.06103">
        <ele>90.886192321777</ele>
        <time>2017-04-09T09:19:04.000Z</time>
        <extensions>
          <gpxtpx:TrackPointExtension xmlns:gpxtpx="http://www.garmin.com/xmlschemas/TrackPointExtension/v1">
            <gpxtpx:hr>121</gpxtpx:hr>
          </gpxtpx:TrackPointExtension>
        </extensions>
      </trkpt>
      <trkpt lat="49.35857" lon="1.06118">
        <ele>90.602531433105</ele>
        <time>2017-04-09T09:19:07.000Z</time>
        <extensions>
          <gpxtpx:TrackPointExtension xmlns:gpxtpx="http://www.garmin.com/xmlschemas/TrackPointExtension/v1">
            <gpxtpx:hr>125</gpxtpx:hr>
          </gpxtpx:TrackPointExtension>
        </extensions>
      </trkpt>
      <trkpt lat="49.35863" lon="1.06134">
        <ele>90.361038208008</ele>
        <time>2017-04-09T09:19:10.000Z</time>
        <extensions>
          <gpxtpx:TrackPointExtension xmlns:gpxtpx="http://www.garmin.com/xmlschemas/TrackPointExtension/v1">
            <gpxtpx:hr>130</gpxtpx:hr>
          </gpxtpx:TrackPointExtension>
        </extensions>
      </trkpt>
      <trkpt lat="49.3587" lon="1.06151">
        <ele>90.135581970215</ele>
        <time>2017-04-09T09:19:13.000Z</time>
        <extensions>
          <gpxtpx:TrackPointExtension xmlns:gpxtpx="http://www.garmin.com/xmlschemas/TrackPointExtension/v1">
            <gpxtpx:hr>134</gpxtpx:hr>
          </gpxtpx:TrackPointExtension>
        </extensions>
      </trkpt>
      <trkpt lat="49.3588" lon="1.06169">
        <ele>89.920303344727</ele>
        <time>2017-04-09T09:19:16.000Z</time>
        <extensions>
          <gpxtpx:TrackPointExtension xmlns:gpxtpx="http://www.garmin.com/xmlschemas/TrackPointExtension/v1">
            <gpxtpx:hr>134</gpxtpx:hr>
          </gpxtpx:TrackPointExtension>
        </extensions>
      </trkpt>
      <trkpt lat="49.35886" lon="1.0618">
        <ele>89.732948303223</ele>
        <time>2017-04-09T09:19:18.000Z</time>
        <extensions>
          <gpxtpx:TrackPointExtension xmlns:gpxtpx="http://www.garmin.com/xmlschemas/TrackPointExtension/v1">
            <gpxtpx:hr>137</gpxtpx:hr>
          </gpxtpx:TrackPointExtension>
        </extensions>
      </trkpt>
      <trkpt lat="49.35899" lon="1.06197">
        <ele>89.592391967773</ele>
        <time>2017-04-09T09:19:21.000Z</time>
        <extensions>
          <gpxtpx:TrackPointExtension xmlns:gpxtpx="http://www.garmin.com/xmlschemas/TrackPointExtension/v1">
            <gpxtpx:hr>140</gpxtpx:hr>
          </gpxtpx:TrackPointExtension>
        </extensions>
      </trkpt>
      <trkpt lat="49.35905" lon="1.06212">
        <ele>89.484069824219</ele>
        <time>2017-04-09T09:19:24.000Z</time>
      </trkpt>
      <trkpt lat="49.35909" lon="1.06227">
        <ele>89.390823364258</ele>
        <time>2017-04-09T09:19:26.000Z</time>
      </trkpt>
      <trkpt lat="49.35921" lon="1.06248">
        <ele>89.289344787598</ele>
        <time>2017-04-09T09:19:29.000Z</time>
      </trkpt>
      <trkpt lat="49.35926" lon="1.06261">
        <ele>89.190040588379</ele>
        <time>2017-04-09T09:19:31.000Z</time>
      </trkpt>
      <trkpt lat="49.35941" lon="1.06284">
        <ele>89.080947875977</ele>
        <time>2017-04-09T09:19:34.000Z</time>
      </trkpt>
      <trkpt lat="49.35953" lon="1.06304">
        <ele>88.959861755371</ele>
        <time>2017-04-09T09:19:37.000Z</time>
      </trkpt>
      <trkpt lat="49.3596" lon="1.0632">
        <ele>88.83528137207</ele>
        <time>2017-04-09T09:19:39.000Z</time>
      </trkpt>
      <trkpt lat="49.35969" lon="1.06338">
        <ele>88.680038452148</ele>
        <time>2017-04-09T09:19:42.000Z</time>
      </trkpt>
      <trkpt lat="49.35979" lon="1.06358">
        <ele>88.416564941406</ele>
        <time>2017-04-09T09:19:45.000Z</time>
      </trkpt>
      <trkpt lat="49.35987" lon="1.06375">
        <ele>88.071479797363</ele>
        <time>2017-04-09T09:19:47.000Z</time>
      </trkpt>
      <trkpt lat="49.36" lon="1.06402">
        <ele>87.598136901855</ele>
        <time>2017-04-09T09:19:50.000Z</time>
      </trkpt>
      <trkpt lat="49.3601" lon="1.06416">
        <ele>87.11018371582</ele>
        <time>2017-04-09T09:19:52.000Z</time>
      </trkpt>
      <trkpt lat="49.36015" lon="1.0643">
        <ele>86.658363342285</ele>
        <time>2017-04-09T09:19:54.000Z</time>
      </trkpt>
      <trkpt lat="49.36023" lon="1.06449">
        <ele>86.281814575195</ele>
        <time>2017-04-09T09:19:57.000Z</time>
      </trkpt>
      <trkpt lat="49.36035" lon="1.06467">
        <ele>85.964797973633</ele>
        <time>2017-04-09T09:20:00.000Z</time>
        <extensions>
          <gpxtpx:TrackPointExtension xmlns:gpxtpx="http://www.garmin.com/xmlschemas/TrackPointExtension/v1">
            <gpxtpx:hr>143</gpxtpx:hr>
          </gpxtpx:TrackPointExtension>
        </extensions>
      </trkpt>
      <trkpt lat="49.3604" lon="1.06479">
        <ele>85.768600463867</ele>
        <time>2017-04-09T09:20:02.000Z</time>
        <extensions>
          <gpxtpx:TrackPointExtension xmlns:gpxtpx="http://www.garmin.com/xmlschemas/TrackPointExtension/v1">
            <gpxtpx:hr>147</gpxtpx:hr>
          </gpxtpx:TrackPointExtension>
        </extensions>
      </trkpt>
      <trkpt lat="49.36047" lon="1.06491">
        <ele>85.577438354492</ele>
        <time>2017-04-09T09:20:04.000Z</time>
        <extensions>
          <gpxtpx:TrackPointExtension xmlns:gpxtpx="http://www.garmin.com/xmlschemas/TrackPointExtension/v1">
            <gpxtpx:hr>146</gpxtpx:hr>
          </gpxtpx:TrackPointExtension>
        </extensions>
      </trkpt>
      <trkpt lat="49.36061" lon="1.06515">
        <ele>85.379066467285</ele>
        <time>2017-04-09T09:20:07.000Z</time>
        <extensions>
          <gpxtpx:TrackPointExtension xmlns:gpxtpx="http://www.garmin.com/xmlschemas/TrackPointExtension/v1">
            <gpxtpx:hr>145</gpxtpx:hr>
          </gpxtpx:TrackPointExtension>
        </extensions>
      </trkpt>
      <trkpt lat="49.36071" lon="1.06528">
        <ele>85.222312927246</ele>
        <time>2017-04-09T09:20:09.000Z</time>
        <extensions>
          <gpxtpx:TrackPointExtension xmlns:gpxtpx="http://www.garmin.com/xmlschemas/TrackPointExtension/v1">
            <gpxtpx:hr>141</gpxtpx:hr>
          </gpxtpx:TrackPointExtension>
        </extensions>
      </trkpt>
      <trkpt lat="49.36077" lon="1.06544">
        <ele>85.108551025391</ele>
        <time>2017-04-09T09:20:11.000Z</time>
        <extensions>
          <gpxtpx:TrackPointExtension xmlns:gpxtpx="http://www.garmin.com/xmlschemas/TrackPointExtension/v1">
            <gpxtpx:hr>137</gpxtpx:hr>
          </gpxtpx:TrackPointExtension>
        </extensions>
      </trkpt>
      <trkpt lat="49.36085" lon="1.06568">
        <ele>85.034202575684</ele>
        <time>2017-04-09T09:20:14.000Z</time>
        <extensions>
          <gpxtpx:TrackPointExtension xmlns:gpxtpx="http://www.garmin.com/xmlschemas/TrackPointExtension/v1">
            <gpxtpx:hr>133</gpxtpx:hr>
          </gpxtpx:TrackPointExtension>
        </extensions>
      </trkpt>
      <trkpt lat="49.36096" lon="1.06591">
        <ele>84.993606567383</ele>
        <time>2017-04-09T09:20:17.000Z</time>
        <extensions>
          <gpxtpx:TrackPointExtension xmlns:gpxtpx="http://www.garmin.com/xmlschemas/TrackPointExtension/v1">
            <gpxtpx:hr>134</gpxtpx:hr>
          </gpxtpx:TrackPointExtension>
        </extensions>
      </trkpt>
      <trkpt lat="49.36103" lon="1.06604">
        <ele>84.969512939453</ele>
        <time>2017-04-09T09:20:19.000Z</time>
        <extensions>
          <gpxtpx:TrackPointExtension xmlns:gpxtpx="http://www.garmin.com/xmlschemas/TrackPointExtension/v1">
            <gpxtpx:hr>131</gpxtpx:hr>
          </gpxtpx:TrackPointExtension>
        </extensions>
      </trkpt>
      <trkpt lat="49.3611" lon="1.06617">
        <ele>84.917724609375</ele>
        <time>2017-04-09T09:20:21.000Z</time>
      </trkpt>
      <trkpt lat="49.36122" lon="1.06629">
        <ele>84.817123413086</ele>
        <time>2017-04-09T09:20:24.000Z</time>
      </trkpt>
      <trkpt lat="49.36136" lon="1.06629">
        <ele>84.67822265625</ele>
        <time>2017-04-09T09:20:27.000Z</time>
      </trkpt>
      <trkpt lat="49.36151" lon="1.06633">
        <ele>84.48908996582</ele>
        <time>2017-04-09T09:20:30.000Z</time>
      </trkpt>
      <trkpt lat="49.3616" lon="1.06636">
        <ele>84.279853820801</ele>
        <time>2017-04-09T09:20:32.000Z</time>
      </trkpt>
      <trkpt lat="49.3617" lon="1.06635">
        <ele>84.074142456055</ele>
        <time>2017-04-09T09:20:35.000Z</time>
      </trkpt>
      <trkpt lat="49.36179" lon="1.06633">
        <ele>83.895057678223</ele>
        <time>2017-04-09T09:20:38.000Z</time>
      </trkpt>
      <trkpt lat="49.36184" lon="1.06632">
        <ele>83.740440368652</ele>
        <time>2017-04-09T09:20:40.000Z</time>
      </trkpt>
      <trkpt lat="49.36193" lon="1.06632">
        <ele>83.609817504883</ele>
        <time>2017-04-09T09:20:43.000Z</time>
      </trkpt>
      <trkpt lat="49.36203" lon="1.06633">
        <ele>83.484451293945</ele>
        <time>2017-04-09T09:20:45.000Z</time>
      </trkpt>
      <trkpt lat="49.36225" lon="1.06636">
        <ele>83.298980712891</ele>
        <time>2017-04-09T09:20:48.000Z</time>
      </trkpt>
      <trkpt lat="49.36242" lon="1.06635">
        <ele>83.082473754883</ele>
        <time>2017-04-09T09:20:51.000Z</time>
      </trkpt>
      <trkpt lat="49.36251" lon="1.06636">
        <ele>82.850120544434</ele>
        <time>2017-04-09T09:20:54.000Z</time>
      </trkpt>
      <trkpt lat="49.36261" lon="1.06636">
        <ele>82.648620605469</ele>
        <time>2017-04-09T09:20:56.000Z</time>
      </trkpt>
      <trkpt lat="49.36274" lon="1.06638">
        <ele>82.4765625</ele>
        <time>2017-04-09T09:20:59.000Z</time>
      </trkpt>
      <trkpt lat="49.36282" lon="1.06637">
        <ele>82.390335083008</ele>
        <time>2017-04-09T09:21:01.000Z</time>
        <extensions>
          <gpxtpx:TrackPointExtension xmlns:gpxtpx="http://www.garmin.com/xmlschemas/TrackPointExtension/v1">
            <gpxtpx:hr>127</gpxtpx:hr>
          </gpxtpx:TrackPointExtension>
        </extensions>
      </trkpt>
      <trkpt lat="49.36289" lon="1.06638">
        <ele>82.356384277344</ele>
        <time>2017-04-09T09:21:03.000Z</time>
        <extensions>
          <gpxtpx:TrackPointExtension xmlns:gpxtpx="http://www.garmin.com/xmlschemas/TrackPointExtension/v1">
            <gpxtpx:hr>129</gpxtpx:hr>
          </gpxtpx:TrackPointExtension>
        </extensions>
      </trkpt>
      <trkpt lat="49.3631" lon="1.06637">
        <ele>82.354591369629</ele>
        <time>2017-04-09T09:21:06.000Z</time>
        <extensions>
          <gpxtpx:TrackPointExtension xmlns:gpxtpx="http://www.garmin.com/xmlschemas/TrackPointExtension/v1">
            <gpxtpx:hr>132</gpxtpx:hr>
          </gpxtpx:TrackPointExtension>
        </extensions>
      </trkpt>
      <trkpt lat="49.3633" lon="1.06638">
        <ele>82.350074768066</ele>
        <time>2017-04-09T09:21:09.000Z</time>
        <extensions>
          <gpxtpx:TrackPointExtension xmlns:gpxtpx="http://www.garmin.com/xmlschemas/TrackPointExtension/v1">
            <gpxtpx:hr>130</gpxtpx:hr>
          </gpxtpx:TrackPointExtension>
        </extensions>
      </trkpt>
      <trkpt lat="49.36349" lon="1.06638">
        <ele>82.323776245117</ele>
        <time>2017-04-09T09:21:12.000Z</time>
        <extensions>
          <gpxtpx:TrackPointExtension xmlns:gpxtpx="http://www.garmin.com/xmlschemas/TrackPointExtension/v1">
            <gpxtpx:hr>132</gpxtpx:hr>
          </gpxtpx:TrackPointExtension>
        </extensions>
      </trkpt>
      <trkpt lat="49.36364" lon="1.0664">
        <ele>82.270858764648</ele>
        <time>2017-04-09T09:21:14.000Z</time>
        <extensions>
          <gpxtpx:TrackPointExtension xmlns:gpxtpx="http://www.garmin.com/xmlschemas/TrackPointExtension/v1">
            <gpxtpx:hr>132</gpxtpx:hr>
          </gpxtpx:TrackPointExtension>
        </extensions>
      </trkpt>
      <trkpt lat="49.36374" lon="1.06641">
        <ele>82.202934265137</ele>
        <time>2017-04-09T09:21:16.000Z</time>
        <extensions>
          <gpxtpx:TrackPointExtension xmlns:gpxtpx="http://www.garmin.com/xmlschemas/TrackPointExtension/v1">
            <gpxtpx:hr>129</gpxtpx:hr>
          </gpxtpx:TrackPointExtension>
        </extensions>
      </trkpt>
      <trkpt lat="49.36386" lon="1.0664">
        <ele>82.114799499512</ele>
        <time>2017-04-09T09:21:18.000Z</time>
        <extensions>
          <gpxtpx:TrackPointExtension xmlns:gpxtpx="http://www.garmin.com/xmlschemas/TrackPointExtension/v1">
            <gpxtpx:hr>132</gpxtpx:hr>
          </gpxtpx:TrackPointExtension>
        </extensions>
      </trkpt>
      <trkpt lat="49.36404" lon="1.0664">
        <ele>82.00154876709</ele>
        <time>2017-04-09T09:21:21.000Z</time>
        <extensions>
          <gpxtpx:TrackPointExtension xmlns:gpxtpx="http://www.garmin.com/xmlschemas/TrackPointExtension/v1">
            <gpxtpx:hr>133</gpxtpx:hr>
          </gpxtpx:TrackPointExtension>
        </extensions>
      </trkpt>
      <trkpt lat="49.36422" lon="1.0664">
        <ele>81.86946105957</ele>
        <time>2017-04-09T09:21:24.000Z</time>
      </trkpt>
      <trkpt lat="49.36444" lon="1.06631">
        <ele>81.63533782959</ele>
        <time>2017-04-09T09:21:27.000Z</time>
      </trkpt>
      <trkpt lat="49.36457" lon="1.06611">
        <ele>81.304176330566</ele>
        <time>2017-04-09T09:21:30.000Z</time>
      </trkpt>
      <trkpt lat="49.36465" lon="1.06597">
        <ele>80.918601989746</ele>
        <time>2017-04-09T09:21:32.000Z</time>
      </trkpt>
      <trkpt lat="49.36477" lon="1.06575">
        <ele>80.455955505371</ele>
        <time>2017-04-09T09:21:35.000Z</time>
      </trkpt>
      <trkpt lat="49.36483" lon="1.06557">
        <ele>79.962585449219</ele>
        <time>2017-04-09T09:21:37.000Z</time>
      </trkpt>
      <trkpt lat="49.36493" lon="1.06532">
        <ele>79.488586425781</ele>
        <time>2017-04-09T09:21:40.000Z</time>
      </trkpt>
      <trkpt lat="49.365" lon="1.06524">
        <ele>79.076316833496</ele>
        <time>2017-04-09T09:21:42.000Z</time>
      </trkpt>
      <trkpt lat="49.36511" lon="1.06529">
        <ele>78.746742248535</ele>
        <time>2017-04-09T09:21:44.000Z</time>
      </trkpt>
      <trkpt lat="49.3652" lon="1.06549">
        <ele>78.534317016602</ele>
        <time>2017-04-09T09:21:47.000Z</time>
      </trkpt>
      <trkpt lat="49.36527" lon="1.06563">
        <ele>78.386756896973</ele>
        <time>2017-04-09T09:21:49.000Z</time>
      </trkpt>
      <trkpt lat="49.36534" lon="1.06585">
        <ele>78.317764282227</ele>
        <time>2017-04-09T09:21:52.000Z</time>
      </trkpt>
      <trkpt lat="49.36539" lon="1.06598">
        <ele>78.291664123535</ele>
        <time>2017-04-09T09:21:54.000Z</time>
      </trkpt>
      <trkpt lat="49.36548" lon="1.06618">
        <ele>78.226905822754</ele>
        <time>2017-04-09T09:21:57.000Z</time>
      </trkpt>
      <trkpt lat="49.36553" lon="1.06633">
        <ele>78.137237548828</ele>
        <time>2017-04-09T09:21:59.000Z</time>
      </trkpt>
      <trkpt lat="49.36558" lon="1.06655">
        <ele>78.040664672852</ele>
        <time>2017-04-09T09:22:02.000Z</time>
        <extensions>
          <gpxtpx:TrackPointExtension xmlns:gpxtpx="http://www.garmin.com/xmlschemas/TrackPointExtension/v1">
            <gpxtpx:hr>135</gpxtpx:hr>
          </gpxtpx:TrackPointExtension>
        </extensions>
      </trkpt>
      <trkpt lat="49.36564" lon="1.06669">
        <ele>77.932357788086</ele>
        <time>2017-04-09T09:22:04.000Z</time>
        <extensions>
          <gpxtpx:TrackPointExtension xmlns:gpxtpx="http://www.garmin.com/xmlschemas/TrackPointExtension/v1">
            <gpxtpx:hr>139</gpxtpx:hr>
          </gpxtpx:TrackPointExtension>
        </extensions>
      </trkpt>
      <trkpt lat="49.36567" lon="1.06686">
        <ele>77.771522521973</ele>
        <time>2017-04-09T09:22:06.000Z</time>
        <extensions>
          <gpxtpx:TrackPointExtension xmlns:gpxtpx="http://www.garmin.com/xmlschemas/TrackPointExtension/v1">
            <gpxtpx:hr>138</gpxtpx:hr>
          </gpxtpx:TrackPointExtension>
        </extensions>
      </trkpt>
      <trkpt lat="49.36576" lon="1.0672">
        <ele>77.496566772461</ele>
        <time>2017-04-09T09:22:09.000Z</time>
        <extensions>
          <gpxtpx:TrackPointExtension xmlns:gpxtpx="http://www.garmin.com/xmlschemas/TrackPointExtension/v1">
            <gpxtpx:hr>136</gpxtpx:hr>
          </gpxtpx:TrackPointExtension>
        </extensions>
      </trkpt>
      <trkpt lat="49.36585" lon="1.06745">
        <ele>77.121025085449</ele>
        <time>2017-04-09T09:22:12.000Z</time>
        <extensions>
          <gpxtpx:TrackPointExtension xmlns:gpxtpx="http://www.garmin.com/xmlschemas/TrackPointExtension/v1">
            <gpxtpx:hr>138</gpxtpx:hr>
          </gpxtpx:TrackPointExtension>
        </extensions>
      </trkpt>
      <trkpt lat="49.36591" lon="1.06761">
        <ele>76.736503601074</ele>
        <time>2017-04-09T09:22:14.000Z</time>
        <extensions>
          <gpxtpx:TrackPointExtension xmlns:gpxtpx="http://www.garmin.com/xmlschemas/TrackPointExtension/v1">
            <gpxtpx:hr>142</gpxtpx:hr>
          </gpxtpx:TrackPointExtension>
        </extensions>
      </trkpt>
      <trkpt lat="49.36596" lon="1.06776">
        <ele>76.363510131836</ele>
        <time>2017-04-09T09:22:16.000Z</time>
        <extensions>
          <gpxtpx:TrackPointExtension xmlns:gpxtpx="http://www.garmin.com/xmlschemas/TrackPointExtension/v1">
            <gpxtpx:hr>147</gpxtpx:hr>
          </gpxtpx:TrackPointExtension>
        </extensions>
      </trkpt>
      <trkpt lat="49.36604" lon="1.06795">
        <ele>76.005836486816</ele>
        <time>2017-04-09T09:22:18.000Z</time>
        <extensions>
          <gpxtpx:TrackPointExtension xmlns:gpxtpx="http://www.garmin.com/xmlschemas/TrackPointExtension/v1">
            <gpxtpx:hr>149</gpxtpx:hr>
          </gpxtpx:TrackPointExtension>
        </extensions>
      </trkpt>
      <trkpt lat="49.36617" lon="1.06824">
        <ele>75.709693908691</ele>
        <time>2017-04-09T09:22:21.000Z</time>
        <extensions>
          <gpxtpx:TrackPointExtension xmlns:gpxtpx="http://www.garmin.com/xmlschemas/TrackPointExtension/v1">
            <gpxtpx:hr>150</gpxtpx:hr>
          </gpxtpx:TrackPointExtension>
        </extensions>
      </trkpt>
      <trkpt lat="49.36627" lon="1.06831">
        <ele>75.501670837402</ele>
        <time>2017-04-09T09:22:23.000Z</time>
      </trkpt>
      <trkpt lat="49.36637" lon="1.06828">
        <ele>75.334594726562</ele>
        <time>2017-04-09T09:22:26.000Z</time>
      </trkpt>
      <trkpt lat="49.36648" lon="1.06823">
        <ele>75.220443725586</ele>
        <time>2017-04-09T09:22:29.000Z</time>
      </trkpt>
      <trkpt lat="49.36662" lon="1.06818">
        <ele>75.176368713379</ele>
        <time>2017-04-09T09:22:32.000Z</time>
      </trkpt>
      <trkpt lat="49.36668" lon="1.06815">
        <ele>75.24479675293</ele>
        <time>2017-04-09T09:22:34.000Z</time>
      </trkpt>
      <trkpt lat="49.36679" lon="1.06809">
        <ele>75.464851379395</ele>
        <time>2017-04-09T09:22:37.000Z</time>
      </trkpt>
      <trkpt lat="49.36689" lon="1.06802">
        <ele>75.79020690918</ele>
        <time>2017-04-09T09:22:40.000Z</time>
      </trkpt>
      <trkpt lat="49.367" lon="1.06793">
        <ele>76.221580505371</ele>
        <time>2017-04-09T09:22:43.000Z</time>
      </trkpt>
      <trkpt lat="49.36713" lon="1.06787">
        <ele>76.755752563477</ele>
        <time>2017-04-09T09:22:46.000Z</time>
      </trkpt>
      <trkpt lat="49.36721" lon="1.06782">
        <ele>77.347129821777</ele>
        <time>2017-04-09T09:22:48.000Z</time>
      </trkpt>
      <trkpt lat="49.36729" lon="1.06776">
        <ele>77.88729095459</ele>
        <time>2017-04-09T09:22:50.000Z</time>
      </trkpt>
      <trkpt lat="49.36739" lon="1.06767">
        <ele>78.419189453125</ele>
        <time>2017-04-09T09:22:53.000Z</time>
      </trkpt>
      <trkpt lat="49.36747" lon="1.06763">
        <ele>78.890640258789</ele>
        <time>2017-04-09T09:22:55.000Z</time>
      </trkpt>
      <trkpt lat="49.36757" lon="1.06757">
        <ele>79.296585083008</ele>
        <time>2017-04-09T09:22:57.000Z</time>
      </trkpt>
      <trkpt lat="49.36774" lon="1.06748">
        <ele>79.7275390625</ele>
        <time>2017-04-09T09:23:00.000Z</time>
        <extensions>
          <gpxtpx:TrackPointExtension xmlns:gpxtpx="http://www.garmin.com/xmlschemas/TrackPointExtension/v1">
            <gpxtpx:hr>151</gpxtpx:hr>
          </gpxtpx:TrackPointExtension>
        </extensions>
      </trkpt>
      <trkpt lat="49.36784" lon="1.06742">
        <ele>80.147750854492</ele>
        <time>2017-04-09T09:23:02.000Z</time>
        <extensions>
          <gpxtpx:TrackPointExtension xmlns:gpxtpx="http://www.garmin.com/xmlschemas/TrackPointExtension/v1">
            <gpxtpx:hr>153</gpxtpx:hr>
          </gpxtpx:TrackPointExtension>
        </extensions>
      </trkpt>
      <trkpt lat="49.36798" lon="1.06737">
        <ele>80.54801940918</ele>
        <time>2017-04-09T09:23:05.000Z</time>
        <extensions>
          <gpxtpx:TrackPointExtension xmlns:gpxtpx="http://www.garmin.com/xmlschemas/TrackPointExtension/v1">
            <gpxtpx:hr>155</gpxtpx:hr>
          </gpxtpx:TrackPointExtension>
        </extensions>
      </trkpt>
      <trkpt lat="49.36811" lon="1.06726">
        <ele>80.990844726562</ele>
        <time>2017-04-09T09:23:08.000Z</time>
        <extensions>
          <gpxtpx:TrackPointExtension xmlns:gpxtpx="http://www.garmin.com/xmlschemas/TrackPointExtension/v1">
            <gpxtpx:hr>153</gpxtpx:hr>
          </gpxtpx:TrackPointExtension>
        </extensions>
      </trkpt>
      <trkpt lat="49.36818" lon="1.06717">
        <ele>81.452262878418</ele>
        <time>2017-04-09T09:23:10.000Z</time>
        <extensions>
          <gpxtpx:TrackPointExtension xmlns:gpxtpx="http://www.garmin.com/xmlschemas/TrackPointExtension/v1">
            <gpxtpx:hr>151</gpxtpx:hr>
          </gpxtpx:TrackPointExtension>
        </extensions>
      </trkpt>
      <trkpt lat="49.36827" lon="1.06711">
        <ele>81.877708435059</ele>
        <time>2017-04-09T09:23:12.000Z</time>
        <extensions>
          <gpxtpx:TrackPointExtension xmlns:gpxtpx="http://www.garmin.com/xmlschemas/TrackPointExtension/v1">
            <gpxtpx:hr>148</gpxtpx:hr>
          </gpxtpx:TrackPointExtension>
        </extensions>
      </trkpt>
      <trkpt lat="49.36838" lon="1.06702">
        <ele>82.308853149414</ele>
        <time>2017-04-09T09:23:15.000Z</time>
        <extensions>
          <gpxtpx:TrackPointExtension xmlns:gpxtpx="http://www.garmin.com/xmlschemas/TrackPointExtension/v1">
            <gpxtpx:hr>147</gpxtpx:hr>
          </gpxtpx:TrackPointExtension>
        </extensions>
      </trkpt>
      <trkpt lat="49.36849" lon="1.06703">
        <ele>82.617279052734</ele>
        <time>2017-04-09T09:23:18.000Z</time>
        <extensions>
          <gpxtpx:TrackPointExtension xmlns:gpxtpx="http://www.garmin.com/xmlschemas/TrackPointExtension/v1">
            <gpxtpx:hr>138</gpxtpx:hr>
          </gpxtpx:TrackPointExtension>
        </extensions>
      </trkpt>
      <trkpt lat="49.36858" lon="1.06713">
        <ele>82.744537353516</ele>
        <time>2017-04-09T09:23:21.000Z</time>
        <extensions>
          <gpxtpx:TrackPointExtension xmlns:gpxtpx="http://www.garmin.com/xmlschemas/TrackPointExtension/v1">
            <gpxtpx:hr>137</gpxtpx:hr>
          </gpxtpx:TrackPointExtension>
        </extensions>
      </trkpt>
      <trkpt lat="49.36861" lon="1.06722">
        <ele>82.739318847656</ele>
        <time>2017-04-09T09:23:23.000Z</time>
        <extensions>
          <gpxtpx:TrackPointExtension xmlns:gpxtpx="http://www.garmin.com/xmlschemas/TrackPointExtension/v1">
            <gpxtpx:hr>137</gpxtpx:hr>
          </gpxtpx:TrackPointExtension>
        </extensions>
      </trkpt>
      <trkpt lat="49.36866" lon="1.06737">
        <ele>82.577819824219</ele>
        <time>2017-04-09T09:23:26.000Z</time>
      </trkpt>
      <trkpt lat="49.36871" lon="1.06752">
        <ele>82.255027770996</ele>
        <time>2017-04-09T09:23:29.000Z</time>
      </trkpt>
      <trkpt lat="49.36874" lon="1.06762">
        <ele>81.880271911621</ele>
        <time>2017-04-09T09:23:31.000Z</time>
      </trkpt>
      <trkpt lat="49.36879" lon="1.06778">
        <ele>81.456275939941</ele>
        <time>2017-04-09T09:23:34.000Z</time>
      </trkpt>
      <trkpt lat="49.36882" lon="1.0679">
        <ele>81.001312255859</ele>
        <time>2017-04-09T09:23:36.000Z</time>
      </trkpt>
      <trkpt lat="49.36888" lon="1.06811">
        <ele>80.492080688477</ele>
        <time>2017-04-09T09:23:39.000Z</time>
      </trkpt>
      <trkpt lat="49.36897" lon="1.06825">
        <ele>80.001525878906</ele>
        <time>2017-04-09T09:23:42.000Z</time>
      </trkpt>
      <trkpt lat="49.36905" lon="1.06817">
        <ele>79.647727966309</ele>
        <time>2017-04-09T09:23:44.000Z</time>
      </trkpt>
      <trkpt lat="49.36911" lon="1.068">
        <ele>79.508979797363</ele>
        <time>2017-04-09T09:23:47.000Z</time>
      </trkpt>
      <trkpt lat="49.36916" lon="1.06789">
        <ele>79.511192321777</ele>
        <time>2017-04-09T09:23:49.000Z</time>
      </trkpt>
      <trkpt lat="49.36919" lon="1.06781">
        <ele>79.687355041504</ele>
        <time>2017-04-09T09:23:51.000Z</time>
      </trkpt>
      <trkpt lat="49.36926" lon="1.06766">
        <ele>80.008682250977</ele>
        <time>2017-04-09T09:23:54.000Z</time>
      </trkpt>
      <trkpt lat="49.36934" lon="1.06748">
        <ele>80.357223510742</ele>
        <time>2017-04-09T09:23:57.000Z</time>
      </trkpt>
      <trkpt lat="49.36945" lon="1.06746">
        <ele>80.617683410645</ele>
        <time>2017-04-09T09:24:00.000Z</time>
        <extensions>
          <gpxtpx:TrackPointExtension xmlns:gpxtpx="http://www.garmin.com/xmlschemas/TrackPointExtension/v1">
            <gpxtpx:hr>140</gpxtpx:hr>
          </gpxtpx:TrackPointExtension>
        </extensions>
      </trkpt>
      <trkpt lat="49.36951" lon="1.0675">
        <ele>80.804489135742</ele>
        <time>2017-04-09T09:24:02.000Z</time>
        <extensions>
          <gpxtpx:TrackPointExtension xmlns:gpxtpx="http://www.garmin.com/xmlschemas/TrackPointExtension/v1">
            <gpxtpx:hr>138</gpxtpx:hr>
          </gpxtpx:TrackPointExtension>
        </extensions>
      </trkpt>
      <trkpt lat="49.36964" lon="1.06758">
        <ele>80.924545288086</ele>
        <time>2017-04-09T09:24:05.000Z</time>
        <extensions>
          <gpxtpx:TrackPointExtension xmlns:gpxtpx="http://www.garmin.com/xmlschemas/TrackPointExtension/v1">
            <gpxtpx:hr>139</gpxtpx:hr>
          </gpxtpx:TrackPointExtension>
        </extensions>
      </trkpt>
      <trkpt lat="49.36974" lon="1.06765">
        <ele>80.951675415039</ele>
        <time>2017-04-09T09:24:08.000Z</time>
        <extensions>
          <gpxtpx:TrackPointExtension xmlns:gpxtpx="http://www.garmin.com/xmlschemas/TrackPointExtension/v1">
            <gpxtpx:hr>139</gpxtpx:hr>
          </gpxtpx:TrackPointExtension>
        </extensions>
      </trkpt>
      <trkpt lat="49.36983" lon="1.0677">
        <ele>80.885688781738</ele>
        <time>2017-04-09T09:24:10.000Z</time>
        <extensions>
          <gpxtpx:TrackPointExtension xmlns:gpxtpx="http://www.garmin.com/xmlschemas/TrackPointExtension/v1">
            <gpxtpx:hr>138</gpxtpx:hr>
          </gpxtpx:TrackPointExtension>
        </extensions>
      </trkpt>
      <trkpt lat="49.36993" lon="1.0678">
        <ele>80.793258666992</ele>
        <time>2017-04-09T09:24:13.000Z</time>
        <extensions>
          <gpxtpx:TrackPointExtension xmlns:gpxtpx="http://www.garmin.com/xmlschemas/TrackPointExtension/v1">
            <gpxtpx:hr>139</gpxtpx:hr>
          </gpxtpx:TrackPointExtension>
        </extensions>
      </trkpt>
      <trkpt lat="49.37006" lon="1.0679">
        <ele>80.68310546875</ele>
        <time>2017-04-09T09:24:16.000Z</time>
        <extensions>
          <gpxtpx:TrackPointExtension xmlns:gpxtpx="http://www.garmin.com/xmlschemas/TrackPointExtension/v1">
            <gpxtpx:hr>139</gpxtpx:hr>
          </gpxtpx:TrackPointExtension>
        </extensions>
      </trkpt>
      <trkpt lat="49.37013" lon="1.06802">
        <ele>80.55143737793</ele>
        <time>2017-04-09T09:24:19.000Z</time>
      </trkpt>
      <trkpt lat="49.37023" lon="1.06815">
        <ele>80.386276245117</ele>
        <time>2017-04-09T09:24:22.000Z</time>
      </trkpt>
      <trkpt lat="49.37066" lon="1.06841">
        <ele>80.085594177246</ele>
        <time>2017-04-09T09:24:27.000Z</time>
      </trkpt>
      <trkpt lat="49.3709" lon="1.06855">
        <ele>79.769111633301</ele>
        <time>2017-04-09T09:24:30.000Z</time>
      </trkpt>
      <trkpt lat="49.37109" lon="1.06865">
        <ele>79.493232727051</ele>
        <time>2017-04-09T09:24:33.000Z</time>
      </trkpt>
      <trkpt lat="49.37122" lon="1.06876">
        <ele>79.247848510742</ele>
        <time>2017-04-09T09:24:35.000Z</time>
      </trkpt>
      <trkpt lat="49.37133" lon="1.06882">
        <ele>79.038558959961</ele>
        <time>2017-04-09T09:24:37.000Z</time>
      </trkpt>
      <trkpt lat="49.37148" lon="1.06901">
        <ele>78.901840209961</ele>
        <time>2017-04-09T09:24:40.000Z</time>
      </trkpt>
      <trkpt lat="49.37159" lon="1.06912">
        <ele>78.732627868652</ele>
        <time>2017-04-09T09:24:42.000Z</time>
      </trkpt>
      <trkpt lat="49.37173" lon="1.06923">
        <ele>78.531982421875</ele>
        <time>2017-04-09T09:24:44.000Z</time>
      </trkpt>
      <trkpt lat="49.37193" lon="1.06932">
        <ele>78.373764038086</ele>
        <time>2017-04-09T09:24:47.000Z</time>
      </trkpt>
      <trkpt lat="49.37204" lon="1.06941">
        <ele>78.232856750488</ele>
        <time>2017-04-09T09:24:49.000Z</time>
      </trkpt>
      <trkpt lat="49.37219" lon="1.06951">
        <ele>78.151489257812</ele>
        <time>2017-04-09T09:24:52.000Z</time>
      </trkpt>
      <trkpt lat="49.37242" lon="1.06968">
        <ele>78.073402404785</ele>
        <time>2017-04-09T09:24:55.000Z</time>
      </trkpt>
      <trkpt lat="49.37256" lon="1.06978">
        <ele>77.971313476562</ele>
        <time>2017-04-09T09:24:57.000Z</time>
      </trkpt>
      <trkpt lat="49.37264" lon="1.06982">
        <ele>77.83927154541</ele>
        <time>2017-04-09T09:24:59.000Z</time>
      </trkpt>
      <trkpt lat="49.3728" lon="1.06993">
        <ele>77.693618774414</ele>
        <time>2017-04-09T09:25:02.000Z</time>
        <extensions>
          <gpxtpx:TrackPointExtension xmlns:gpxtpx="http://www.garmin.com/xmlschemas/TrackPointExtension/v1">
            <gpxtpx:hr>138</gpxtpx:hr>
          </gpxtpx:TrackPointExtension>
        </extensions>
      </trkpt>
      <trkpt lat="49.37292" lon="1.06982">
        <ele>77.614181518555</ele>
        <time>2017-04-09T09:25:05.000Z</time>
        <extensions>
          <gpxtpx:TrackPointExtension xmlns:gpxtpx="http://www.garmin.com/xmlschemas/TrackPointExtension/v1">
            <gpxtpx:hr>140</gpxtpx:hr>
          </gpxtpx:TrackPointExtension>
        </extensions>
      </trkpt>
      <trkpt lat="49.37298" lon="1.06959">
        <ele>77.653465270996</ele>
        <time>2017-04-09T09:25:08.000Z</time>
        <extensions>
          <gpxtpx:TrackPointExtension xmlns:gpxtpx="http://www.garmin.com/xmlschemas/TrackPointExtension/v1">
            <gpxtpx:hr>141</gpxtpx:hr>
          </gpxtpx:TrackPointExtension>
        </extensions>
      </trkpt>
      <trkpt lat="49.37304" lon="1.06942">
        <ele>77.769882202148</ele>
        <time>2017-04-09T09:25:10.000Z</time>
        <extensions>
          <gpxtpx:TrackPointExtension xmlns:gpxtpx="http://www.garmin.com/xmlschemas/TrackPointExtension/v1">
            <gpxtpx:hr>139</gpxtpx:hr>
          </gpxtpx:TrackPointExtension>
        </extensions>
      </trkpt>
      <trkpt lat="49.37312" lon="1.06915">
        <ele>77.917015075684</ele>
        <time>2017-04-09T09:25:13.000Z</time>
        <extensions>
          <gpxtpx:TrackPointExtension xmlns:gpxtpx="http://www.garmin.com/xmlschemas/TrackPointExtension/v1">
            <gpxtpx:hr>140</gpxtpx:hr>
          </gpxtpx:TrackPointExtension>
        </extensions>
      </trkpt>
      <trkpt lat="49.37321" lon="1.0689">
        <ele>78.108688354492</ele>
        <time>2017-04-09T09:25:16.000Z</time>
        <extensions>
          <gpxtpx:TrackPointExtension xmlns:gpxtpx="http://www.garmin.com/xmlschemas/TrackPointExtension/v1">
            <gpxtpx:hr>136</gpxtpx:hr>
          </gpxtpx:TrackPointExtension>
        </extensions>
      </trkpt>
      <trkpt lat="49.37328" lon="1.06877">
        <ele>78.26643371582</ele>
        <time>2017-04-09T09:25:18.000Z</time>
        <extensions>
          <gpxtpx:TrackPointExtension xmlns:gpxtpx="http://www.garmin.com/xmlschemas/TrackPointExtension/v1">
            <gpxtpx:hr>138</gpxtpx:hr>
          </gpxtpx:TrackPointExtension>
        </extensions>
      </trkpt>
      <trkpt lat="49.37337" lon="1.06857">
        <ele>78.393928527832</ele>
        <time>2017-04-09T09:25:21.000Z</time>
      </trkpt>
      <trkpt lat="49.37342" lon="1.06842">
        <ele>78.505012512207</ele>
        <time>2017-04-09T09:25:23.000Z</time>
      </trkpt>
      <trkpt lat="49.37349" lon="1.06822">
        <ele>78.54662322998</ele>
        <time>2017-04-09T09:25:26.000Z</time>
      </trkpt>
      <trkpt lat="49.37355" lon="1.06808">
        <ele>78.498489379883</ele>
        <time>2017-04-09T09:25:28.000Z</time>
      </trkpt>
      <trkpt lat="49.37362" lon="1.06785">
        <ele>78.342658996582</ele>
        <time>2017-04-09T09:25:31.000Z</time>
      </trkpt>
      <trkpt lat="49.3737" lon="1.0676">
        <ele>78.063339233398</ele>
        <time>2017-04-09T09:25:34.000Z</time>
      </trkpt>
      <trkpt lat="49.37376" lon="1.06737">
        <ele>77.750556945801</ele>
        <time>2017-04-09T09:25:37.000Z</time>
      </trkpt>
      <trkpt lat="49.37383" lon="1.06713">
        <ele>77.503280639648</ele>
        <time>2017-04-09T09:25:40.000Z</time>
      </trkpt>
      <trkpt lat="49.37387" lon="1.067">
        <ele>77.331069946289</ele>
        <time>2017-04-09T09:25:42.000Z</time>
      </trkpt>
      <trkpt lat="49.37393" lon="1.06685">
        <ele>77.255851745605</ele>
        <time>2017-04-09T09:25:44.000Z</time>
      </trkpt>
      <trkpt lat="49.374" lon="1.06664">
        <ele>77.287170410156</ele>
        <time>2017-04-09T09:25:47.000Z</time>
      </trkpt>
      <trkpt lat="49.37411" lon="1.06643">
        <ele>77.288787841797</ele>
        <time>2017-04-09T09:25:50.000Z</time>
      </trkpt>
      <trkpt lat="49.37417" lon="1.06629">
        <ele>77.239440917969</ele>
        <time>2017-04-09T09:25:52.000Z</time>
      </trkpt>
      <trkpt lat="49.37425" lon="1.06604">
        <ele>77.14151763916</ele>
        <time>2017-04-09T09:25:55.000Z</time>
      </trkpt>
      <trkpt lat="49.37432" lon="1.06578">
        <ele>76.995552062988</ele>
        <time>2017-04-09T09:25:58.000Z</time>
      </trkpt>
      <trkpt lat="49.37439" lon="1.06554">
        <ele>76.810005187988</ele>
        <time>2017-04-09T09:26:01.000Z</time>
        <extensions>
          <gpxtpx:TrackPointExtension xmlns:gpxtpx="http://www.garmin.com/xmlschemas/TrackPointExtension/v1">
            <gpxtpx:hr>138</gpxtpx:hr>
          </gpxtpx:TrackPointExtension>
        </extensions>
      </trkpt>
      <trkpt lat="49.37445" lon="1.06533">
        <ele>76.647895812988</ele>
        <time>2017-04-09T09:26:04.000Z</time>
        <extensions>
          <gpxtpx:TrackPointExtension xmlns:gpxtpx="http://www.garmin.com/xmlschemas/TrackPointExtension/v1">
            <gpxtpx:hr>139</gpxtpx:hr>
          </gpxtpx:TrackPointExtension>
        </extensions>
      </trkpt>
      <trkpt lat="49.37451" lon="1.06513">
        <ele>76.485359191895</ele>
        <time>2017-04-09T09:26:06.000Z</time>
        <extensions>
          <gpxtpx:TrackPointExtension xmlns:gpxtpx="http://www.garmin.com/xmlschemas/TrackPointExtension/v1">
            <gpxtpx:hr>137</gpxtpx:hr>
          </gpxtpx:TrackPointExtension>
        </extensions>
      </trkpt>
      <trkpt lat="49.37457" lon="1.06485">
        <ele>76.364738464355</ele>
        <time>2017-04-09T09:26:09.000Z</time>
        <extensions>
          <gpxtpx:TrackPointExtension xmlns:gpxtpx="http://www.garmin.com/xmlschemas/TrackPointExtension/v1">
            <gpxtpx:hr>138</gpxtpx:hr>
          </gpxtpx:TrackPointExtension>
        </extensions>
      </trkpt>
      <trkpt lat="49.3746" lon="1.06468">
        <ele>76.309753417969</ele>
        <time>2017-04-09T09:26:11.000Z</time>
        <extensions>
          <gpxtpx:TrackPointExtension xmlns:gpxtpx="http://www.garmin.com/xmlschemas/TrackPointExtension/v1">
            <gpxtpx:hr>135</gpxtpx:hr>
          </gpxtpx:TrackPointExtension>
        </extensions>
      </trkpt>
      <trkpt lat="49.37465" lon="1.06449">
        <ele>76.30525970459</ele>
        <time>2017-04-09T09:26:13.000Z</time>
        <extensions>
          <gpxtpx:TrackPointExtension xmlns:gpxtpx="http://www.garmin.com/xmlschemas/TrackPointExtension/v1">
            <gpxtpx:hr>138</gpxtpx:hr>
          </gpxtpx:TrackPointExtension>
        </extensions>
      </trkpt>
      <trkpt lat="49.37474" lon="1.06432">
        <ele>76.327590942383</ele>
        <time>2017-04-09T09:26:16.000Z</time>
        <extensions>
          <gpxtpx:TrackPointExtension xmlns:gpxtpx="http://www.garmin.com/xmlschemas/TrackPointExtension/v1">
            <gpxtpx:hr>140</gpxtpx:hr>
          </gpxtpx:TrackPointExtension>
        </extensions>
      </trkpt>
      <trkpt lat="49.37481" lon="1.06418">
        <ele>76.376747131348</ele>
        <time>2017-04-09T09:26:18.000Z</time>
        <extensions>
          <gpxtpx:TrackPointExtension xmlns:gpxtpx="http://www.garmin.com/xmlschemas/TrackPointExtension/v1">
            <gpxtpx:hr>140</gpxtpx:hr>
          </gpxtpx:TrackPointExtension>
        </extensions>
      </trkpt>
      <trkpt lat="49.37487" lon="1.06403">
        <ele>76.453521728516</ele>
        <time>2017-04-09T09:26:20.000Z</time>
      </trkpt>
      <trkpt lat="49.37499" lon="1.06385">
        <ele>76.54029083252</ele>
        <time>2017-04-09T09:26:23.000Z</time>
      </trkpt>
      <trkpt lat="49.37512" lon="1.0638">
        <ele>76.71354675293</ele>
        <time>2017-04-09T09:26:25.000Z</time>
      </trkpt>
      <trkpt lat="49.37525" lon="1.06382">
        <ele>76.970077514648</ele>
        <time>2017-04-09T09:26:27.000Z</time>
      </trkpt>
      <trkpt lat="49.37545" lon="1.06386">
        <ele>77.354164123535</ele>
        <time>2017-04-09T09:26:30.000Z</time>
      </trkpt>
      <trkpt lat="49.3756" lon="1.06398">
        <ele>77.757339477539</ele>
        <time>2017-04-09T09:26:33.000Z</time>
      </trkpt>
      <trkpt lat="49.37576" lon="1.06407">
        <ele>78.193054199219</ele>
        <time>2017-04-09T09:26:36.000Z</time>
      </trkpt>
      <trkpt lat="49.3759" lon="1.06413">
        <ele>78.550559997559</ele>
        <time>2017-04-09T09:26:39.000Z</time>
      </trkpt>
      <trkpt lat="49.3761" lon="1.06434">
        <ele>78.859703063965</ele>
        <time>2017-04-09T09:26:42.000Z</time>
      </trkpt>
      <trkpt lat="49.37625" lon="1.06448">
        <ele>79.101783752441</ele>
        <time>2017-04-09T09:26:45.000Z</time>
      </trkpt>
      <trkpt lat="49.37636" lon="1.06455">
        <ele>79.327995300293</ele>
        <time>2017-04-09T09:26:47.000Z</time>
      </trkpt>
      <trkpt lat="49.37657" lon="1.06476">
        <ele>79.603782653809</ele>
        <time>2017-04-09T09:26:50.000Z</time>
      </trkpt>
      <trkpt lat="49.37671" lon="1.06487">
        <ele>79.885803222656</ele>
        <time>2017-04-09T09:26:53.000Z</time>
      </trkpt>
      <trkpt lat="49.37691" lon="1.06498">
        <ele>79.988052368164</ele>
        <time>2017-04-09T09:26:56.000Z</time>
      </trkpt>
      <trkpt lat="49.37706" lon="1.06505">
        <ele>79.861770629883</ele>
        <time>2017-04-09T09:26:58.000Z</time>
      </trkpt>
      <trkpt lat="49.37724" lon="1.06522">
        <ele>79.384811401367</ele>
        <time>2017-04-09T09:27:01.000Z</time>
        <extensions>
          <gpxtpx:TrackPointExtension xmlns:gpxtpx="http://www.garmin.com/xmlschemas/TrackPointExtension/v1">
            <gpxtpx:hr>141</gpxtpx:hr>
          </gpxtpx:TrackPointExtension>
        </extensions>
      </trkpt>
      <trkpt lat="49.37735" lon="1.06533">
        <ele>78.569801330566</ele>
        <time>2017-04-09T09:27:03.000Z</time>
        <extensions>
          <gpxtpx:TrackPointExtension xmlns:gpxtpx="http://www.garmin.com/xmlschemas/TrackPointExtension/v1">
            <gpxtpx:hr>142</gpxtpx:hr>
          </gpxtpx:TrackPointExtension>
        </extensions>
      </trkpt>
      <trkpt lat="49.37746" lon="1.06539">
        <ele>77.537338256836</ele>
        <time>2017-04-09T09:27:05.000Z</time>
        <extensions>
          <gpxtpx:TrackPointExtension xmlns:gpxtpx="http://www.garmin.com/xmlschemas/TrackPointExtension/v1">
            <gpxtpx:hr>141</gpxtpx:hr>
          </gpxtpx:TrackPointExtension>
        </extensions>
      </trkpt>
      <trkpt lat="49.37772" lon="1.0655">
        <ele>76.384536743164</ele>
        <time>2017-04-09T09:27:08.000Z</time>
        <extensions>
          <gpxtpx:TrackPointExtension xmlns:gpxtpx="http://www.garmin.com/xmlschemas/TrackPointExtension/v1">
            <gpxtpx:hr>137</gpxtpx:hr>
          </gpxtpx:TrackPointExtension>
        </extensions>
      </trkpt>
      <trkpt lat="49.37785" lon="1.06558">
        <ele>75.284271240234</ele>
        <time>2017-04-09T09:27:10.000Z</time>
        <extensions>
          <gpxtpx:TrackPointExtension xmlns:gpxtpx="http://www.garmin.com/xmlschemas/TrackPointExtension/v1">
            <gpxtpx:hr>138</gpxtpx:hr>
          </gpxtpx:TrackPointExtension>
        </extensions>
      </trkpt>
      <trkpt lat="49.37804" lon="1.06572">
        <ele>74.33763885498</ele>
        <time>2017-04-09T09:27:13.000Z</time>
        <extensions>
          <gpxtpx:TrackPointExtension xmlns:gpxtpx="http://www.garmin.com/xmlschemas/TrackPointExtension/v1">
            <gpxtpx:hr>134</gpxtpx:hr>
          </gpxtpx:TrackPointExtension>
        </extensions>
      </trkpt>
      <trkpt lat="49.37822" lon="1.06584">
        <ele>73.512596130371</ele>
        <time>2017-04-09T09:27:16.000Z</time>
        <extensions>
          <gpxtpx:TrackPointExtension xmlns:gpxtpx="http://www.garmin.com/xmlschemas/TrackPointExtension/v1">
            <gpxtpx:hr>130</gpxtpx:hr>
          </gpxtpx:TrackPointExtension>
        </extensions>
      </trkpt>
      <trkpt lat="49.37833" lon="1.06593">
        <ele>72.843955993652</ele>
        <time>2017-04-09T09:27:18.000Z</time>
        <extensions>
          <gpxtpx:TrackPointExtension xmlns:gpxtpx="http://www.garmin.com/xmlschemas/TrackPointExtension/v1">
            <gpxtpx:hr>140</gpxtpx:hr>
          </gpxtpx:TrackPointExtension>
        </extensions>
      </trkpt>
      <trkpt lat="49.37846" lon="1.06602">
        <ele>72.389427185059</ele>
        <time>2017-04-09T09:27:20.000Z</time>
      </trkpt>
      <trkpt lat="49.37863" lon="1.06613">
        <ele>71.957702636719</ele>
        <time>2017-04-09T09:27:23.000Z</time>
      </trkpt>
      <trkpt lat="49.37871" lon="1.06617">
        <ele>71.629341125488</ele>
        <time>2017-04-09T09:27:25.000Z</time>
      </trkpt>
      <trkpt lat="49.37877" lon="1.06622">
        <ele>71.351600646973</ele>
        <time>2017-04-09T09:27:27.000Z</time>
      </trkpt>
      <trkpt lat="49.37882" lon="1.06626">
        <ele>71.058044433594</ele>
        <time>2017-04-09T09:27:29.000Z</time>
      </trkpt>
      <trkpt lat="49.37885" lon="1.06628">
        <ele>70.787612915039</ele>
        <time>2017-04-09T09:27:35.000Z</time>
      </trkpt>
      <trkpt lat="49.37887" lon="1.06631">
        <ele>70.586349487305</ele>
        <time>2017-04-09T09:27:37.000Z</time>
      </trkpt>
      <trkpt lat="49.37893" lon="1.06637">
        <ele>70.365760803223</ele>
        <time>2017-04-09T09:27:40.000Z</time>
      </trkpt>
      <trkpt lat="49.37897" lon="1.06639">
        <ele>70.160842895508</ele>
        <time>2017-04-09T09:27:42.000Z</time>
      </trkpt>
      <trkpt lat="49.37904" lon="1.06622">
        <ele>70.043098449707</ele>
        <time>2017-04-09T09:27:45.000Z</time>
      </trkpt>
      <trkpt lat="49.37911" lon="1.06606">
        <ele>70.026473999023</ele>
        <time>2017-04-09T09:27:48.000Z</time>
      </trkpt>
      <trkpt lat="49.37919" lon="1.06584">
        <ele>70.170219421387</ele>
        <time>2017-04-09T09:27:51.000Z</time>
      </trkpt>
      <trkpt lat="49.37925" lon="1.06565">
        <ele>70.479652404785</ele>
        <time>2017-04-09T09:27:54.000Z</time>
      </trkpt>
      <trkpt lat="49.37931" lon="1.06543">
        <ele>70.928298950195</ele>
        <time>2017-04-09T09:27:57.000Z</time>
      </trkpt>
      <trkpt lat="49.37933" lon="1.06529">
        <ele>71.398101806641</ele>
        <time>2017-04-09T09:27:59.000Z</time>
      </trkpt>
      <trkpt lat="49.37939" lon="1.06505">
        <ele>71.914558410645</ele>
        <time>2017-04-09T09:28:02.000Z</time>
        <extensions>
          <gpxtpx:TrackPointExtension xmlns:gpxtpx="http://www.garmin.com/xmlschemas/TrackPointExtension/v1">
            <gpxtpx:hr>144</gpxtpx:hr>
          </gpxtpx:TrackPointExtension>
        </extensions>
      </trkpt>
      <trkpt lat="49.37941" lon="1.0649">
        <ele>72.341835021973</ele>
        <time>2017-04-09T09:28:04.000Z</time>
        <extensions>
          <gpxtpx:TrackPointExtension xmlns:gpxtpx="http://www.garmin.com/xmlschemas/TrackPointExtension/v1">
            <gpxtpx:hr>146</gpxtpx:hr>
          </gpxtpx:TrackPointExtension>
        </extensions>
      </trkpt>
      <trkpt lat="49.37947" lon="1.06469">
        <ele>72.726989746094</ele>
        <time>2017-04-09T09:28:07.000Z</time>
        <extensions>
          <gpxtpx:TrackPointExtension xmlns:gpxtpx="http://www.garmin.com/xmlschemas/TrackPointExtension/v1">
            <gpxtpx:hr>148</gpxtpx:hr>
          </gpxtpx:TrackPointExtension>
        </extensions>
      </trkpt>
      <trkpt lat="49.37949" lon="1.06457">
        <ele>73.036209106445</ele>
        <time>2017-04-09T09:28:09.000Z</time>
        <extensions>
          <gpxtpx:TrackPointExtension xmlns:gpxtpx="http://www.garmin.com/xmlschemas/TrackPointExtension/v1">
            <gpxtpx:hr>150</gpxtpx:hr>
          </gpxtpx:TrackPointExtension>
        </extensions>
      </trkpt>
      <trkpt lat="49.37953" lon="1.06442">
        <ele>73.316612243652</ele>
        <time>2017-04-09T09:28:11.000Z</time>
        <extensions>
          <gpxtpx:TrackPointExtension xmlns:gpxtpx="http://www.garmin.com/xmlschemas/TrackPointExtension/v1">
            <gpxtpx:hr>149</gpxtpx:hr>
          </gpxtpx:TrackPointExtension>
        </extensions>
      </trkpt>
      <trkpt lat="49.37957" lon="1.06427">
        <ele>73.513259887695</ele>
        <time>2017-04-09T09:28:13.000Z</time>
        <extensions>
          <gpxtpx:TrackPointExtension xmlns:gpxtpx="http://www.garmin.com/xmlschemas/TrackPointExtension/v1">
            <gpxtpx:hr>148</gpxtpx:hr>
          </gpxtpx:TrackPointExtension>
        </extensions>
      </trkpt>
      <trkpt lat="49.3796" lon="1.06408">
        <ele>73.689155578613</ele>
        <time>2017-04-09T09:28:16.000Z</time>
        <extensions>
          <gpxtpx:TrackPointExtension xmlns:gpxtpx="http://www.garmin.com/xmlschemas/TrackPointExtension/v1">
            <gpxtpx:hr>146</gpxtpx:hr>
          </gpxtpx:TrackPointExtension>
        </extensions>
      </trkpt>
      <trkpt lat="49.37962" lon="1.06389">
        <ele>73.809837341309</ele>
        <time>2017-04-09T09:28:19.000Z</time>
        <extensions>
          <gpxtpx:TrackPointExtension xmlns:gpxtpx="http://www.garmin.com/xmlschemas/TrackPointExtension/v1">
            <gpxtpx:hr>144</gpxtpx:hr>
          </gpxtpx:TrackPointExtension>
        </extensions>
      </trkpt>
      <trkpt lat="49.37967" lon="1.06375">
        <ele>73.886001586914</ele>
        <time>2017-04-09T09:28:21.000Z</time>
      </trkpt>
      <trkpt lat="49.37974" lon="1.06353">
        <ele>73.890678405762</ele>
        <time>2017-04-09T09:28:24.000Z</time>
      </trkpt>
      <trkpt lat="49.37978" lon="1.06334">
        <ele>73.822372436523</ele>
        <time>2017-04-09T09:28:27.000Z</time>
      </trkpt>
      <trkpt lat="49.37985" lon="1.06313">
        <ele>73.69522857666</ele>
        <time>2017-04-09T09:28:30.000Z</time>
      </trkpt>
      <trkpt lat="49.37988" lon="1.06299">
        <ele>73.556991577148</ele>
        <time>2017-04-09T09:28:32.000Z</time>
      </trkpt>
      <trkpt lat="49.37993" lon="1.06276">
        <ele>73.412948608398</ele>
        <time>2017-04-09T09:28:35.000Z</time>
      </trkpt>
      <trkpt lat="49.37996" lon="1.06262">
        <ele>73.28832244873</ele>
        <time>2017-04-09T09:28:37.000Z</time>
      </trkpt>
      <trkpt lat="49.38002" lon="1.06242">
        <ele>73.194175720215</ele>
        <time>2017-04-09T09:28:40.000Z</time>
      </trkpt>
      <trkpt lat="49.38005" lon="1.06231">
        <ele>73.151504516602</ele>
        <time>2017-04-09T09:28:42.000Z</time>
      </trkpt>
      <trkpt lat="49.38009" lon="1.06217">
        <ele>73.143333435059</ele>
        <time>2017-04-09T09:28:45.000Z</time>
      </trkpt>
      <trkpt lat="49.38015" lon="1.06211">
        <ele>73.150444030762</ele>
        <time>2017-04-09T09:28:47.000Z</time>
      </trkpt>
      <trkpt lat="49.38026" lon="1.06205">
        <ele>73.142059326172</ele>
        <time>2017-04-09T09:28:50.000Z</time>
      </trkpt>
      <trkpt lat="49.38042" lon="1.06198">
        <ele>73.09309387207</ele>
        <time>2017-04-09T09:28:53.000Z</time>
      </trkpt>
      <trkpt lat="49.38051" lon="1.06194">
        <ele>72.992568969727</ele>
        <time>2017-04-09T09:28:55.000Z</time>
      </trkpt>
      <trkpt lat="49.38067" lon="1.06188">
        <ele>72.811981201172</ele>
        <time>2017-04-09T09:28:58.000Z</time>
      </trkpt>
      <trkpt lat="49.38084" lon="1.06184">
        <ele>72.576248168945</ele>
        <time>2017-04-09T09:29:01.000Z</time>
        <extensions>
          <gpxtpx:TrackPointExtension xmlns:gpxtpx="http://www.garmin.com/xmlschemas/TrackPointExtension/v1">
            <gpxtpx:hr>143</gpxtpx:hr>
          </gpxtpx:TrackPointExtension>
        </extensions>
      </trkpt>
      <trkpt lat="49.381" lon="1.06178">
        <ele>72.463249206543</ele>
        <time>2017-04-09T09:29:04.000Z</time>
        <extensions>
          <gpxtpx:TrackPointExtension xmlns:gpxtpx="http://www.garmin.com/xmlschemas/TrackPointExtension/v1">
            <gpxtpx:hr>141</gpxtpx:hr>
          </gpxtpx:TrackPointExtension>
        </extensions>
      </trkpt>
      <trkpt lat="49.3811" lon="1.06175">
        <ele>72.447853088379</ele>
        <time>2017-04-09T09:29:06.000Z</time>
        <extensions>
          <gpxtpx:TrackPointExtension xmlns:gpxtpx="http://www.garmin.com/xmlschemas/TrackPointExtension/v1">
            <gpxtpx:hr>140</gpxtpx:hr>
          </gpxtpx:TrackPointExtension>
        </extensions>
      </trkpt>
      <trkpt lat="49.38119" lon="1.06173">
        <ele>72.507987976074</ele>
        <time>2017-04-09T09:29:08.000Z</time>
      </trkpt>
      <trkpt lat="49.38127" lon="1.06172">
        <ele>72.667640686035</ele>
        <time>2017-04-09T09:29:10.000Z</time>
        <extensions>
          <gpxtpx:TrackPointExtension xmlns:gpxtpx="http://www.garmin.com/xmlschemas/TrackPointExtension/v1">
            <gpxtpx:hr>139</gpxtpx:hr>
          </gpxtpx:TrackPointExtension>
        </extensions>
      </trkpt>
      <trkpt lat="49.38136" lon="1.06169">
        <ele>72.924797058105</ele>
        <time>2017-04-09T09:29:12.000Z</time>
        <extensions>
          <gpxtpx:TrackPointExtension xmlns:gpxtpx="http://www.garmin.com/xmlschemas/TrackPointExtension/v1">
            <gpxtpx:hr>135</gpxtpx:hr>
          </gpxtpx:TrackPointExtension>
        </extensions>
      </trkpt>
      <trkpt lat="49.38144" lon="1.06165">
        <ele>73.115783691406</ele>
        <time>2017-04-09T09:29:14.000Z</time>
        <extensions>
          <gpxtpx:TrackPointExtension xmlns:gpxtpx="http://www.garmin.com/xmlschemas/TrackPointExtension/v1">
            <gpxtpx:hr>134</gpxtpx:hr>
          </gpxtpx:TrackPointExtension>
        </extensions>
      </trkpt>
      <trkpt lat="49.38158" lon="1.06162">
        <ele>73.322975158691</ele>
        <time>2017-04-09T09:29:17.000Z</time>
      </trkpt>
      <trkpt lat="49.38171" lon="1.06155">
        <ele>73.523803710938</ele>
        <time>2017-04-09T09:29:20.000Z</time>
      </trkpt>
      <trkpt lat="49.38189" lon="1.0615">
        <ele>73.643325805664</ele>
        <time>2017-04-09T09:29:23.000Z</time>
      </trkpt>
      <trkpt lat="49.38202" lon="1.06146">
        <ele>73.696434020996</ele>
        <time>2017-04-09T09:29:25.000Z</time>
      </trkpt>
      <trkpt lat="49.38219" lon="1.06143">
        <ele>73.682113647461</ele>
        <time>2017-04-09T09:29:28.000Z</time>
      </trkpt>
      <trkpt lat="49.38231" lon="1.06138">
        <ele>73.57421875</ele>
        <time>2017-04-09T09:29:30.000Z</time>
      </trkpt>
      <trkpt lat="49.38243" lon="1.06133">
        <ele>73.400390625</ele>
        <time>2017-04-09T09:29:32.000Z</time>
      </trkpt>
      <trkpt lat="49.38266" lon="1.06125">
        <ele>73.272735595703</ele>
        <time>2017-04-09T09:29:35.000Z</time>
      </trkpt>
      <trkpt lat="49.38279" lon="1.06121">
        <ele>73.187576293945</ele>
        <time>2017-04-09T09:29:37.000Z</time>
      </trkpt>
      <trkpt lat="49.38292" lon="1.06116">
        <ele>73.152381896973</ele>
        <time>2017-04-09T09:29:40.000Z</time>
      </trkpt>
      <trkpt lat="49.383" lon="1.06111">
        <ele>73.145690917969</ele>
        <time>2017-04-09T09:29:42.000Z</time>
      </trkpt>
      <trkpt lat="49.38308" lon="1.06108">
        <ele>73.171249389648</ele>
        <time>2017-04-09T09:29:44.000Z</time>
      </trkpt>
      <trkpt lat="49.38323" lon="1.06103">
        <ele>73.194068908691</ele>
        <time>2017-04-09T09:29:47.000Z</time>
      </trkpt>
      <trkpt lat="49.38338" lon="1.06097">
        <ele>73.216827392578</ele>
        <time>2017-04-09T09:29:50.000Z</time>
      </trkpt>
      <trkpt lat="49.38349" lon="1.06095">
        <ele>73.275688171387</ele>
        <time>2017-04-09T09:29:53.000Z</time>
      </trkpt>
      <trkpt lat="49.38359" lon="1.06093">
        <ele>73.374816894531</ele>
        <time>2017-04-09T09:29:55.000Z</time>
      </trkpt>
      <trkpt lat="49.38376" lon="1.06088">
        <ele>73.541572570801</ele>
        <time>2017-04-09T09:29:58.000Z</time>
      </trkpt>
      <trkpt lat="49.3839" lon="1.06083">
        <ele>73.773239135742</ele>
        <time>2017-04-09T09:30:01.000Z</time>
        <extensions>
          <gpxtpx:TrackPointExtension xmlns:gpxtpx="http://www.garmin.com/xmlschemas/TrackPointExtension/v1">
            <gpxtpx:hr>135</gpxtpx:hr>
          </gpxtpx:TrackPointExtension>
        </extensions>
      </trkpt>
      <trkpt lat="49.38396" lon="1.06083">
        <ele>74.021728515625</ele>
        <time>2017-04-09T09:30:03.000Z</time>
        <extensions>
          <gpxtpx:TrackPointExtension xmlns:gpxtpx="http://www.garmin.com/xmlschemas/TrackPointExtension/v1">
            <gpxtpx:hr>140</gpxtpx:hr>
          </gpxtpx:TrackPointExtension>
        </extensions>
      </trkpt>
      <trkpt lat="49.38409" lon="1.06078">
        <ele>74.273788452148</ele>
        <time>2017-04-09T09:30:06.000Z</time>
        <extensions>
          <gpxtpx:TrackPointExtension xmlns:gpxtpx="http://www.garmin.com/xmlschemas/TrackPointExtension/v1">
            <gpxtpx:hr>144</gpxtpx:hr>
          </gpxtpx:TrackPointExtension>
        </extensions>
      </trkpt>
      <trkpt lat="49.38441" lon="1.06074">
        <ele>74.578323364258</ele>
        <time>2017-04-09T09:30:10.000Z</time>
        <extensions>
          <gpxtpx:TrackPointExtension xmlns:gpxtpx="http://www.garmin.com/xmlschemas/TrackPointExtension/v1">
            <gpxtpx:hr>144</gpxtpx:hr>
          </gpxtpx:TrackPointExtension>
        </extensions>
      </trkpt>
      <trkpt lat="49.38457" lon="1.06066">
        <ele>74.843994140625</ele>
        <time>2017-04-09T09:30:12.000Z</time>
        <extensions>
          <gpxtpx:TrackPointExtension xmlns:gpxtpx="http://www.garmin.com/xmlschemas/TrackPointExtension/v1">
            <gpxtpx:hr>144</gpxtpx:hr>
          </gpxtpx:TrackPointExtension>
        </extensions>
      </trkpt>
      <trkpt lat="49.38478" lon="1.06058">
        <ele>75.103675842285</ele>
        <time>2017-04-09T09:30:15.000Z</time>
        <extensions>
          <gpxtpx:TrackPointExtension xmlns:gpxtpx="http://www.garmin.com/xmlschemas/TrackPointExtension/v1">
            <gpxtpx:hr>146</gpxtpx:hr>
          </gpxtpx:TrackPointExtension>
        </extensions>
      </trkpt>
      <trkpt lat="49.38498" lon="1.0606">
        <ele>75.394172668457</ele>
        <time>2017-04-09T09:30:17.000Z</time>
        <extensions>
          <gpxtpx:TrackPointExtension xmlns:gpxtpx="http://www.garmin.com/xmlschemas/TrackPointExtension/v1">
            <gpxtpx:hr>149</gpxtpx:hr>
          </gpxtpx:TrackPointExtension>
        </extensions>
      </trkpt>
      <trkpt lat="49.38518" lon="1.06052">
        <ele>75.543128967285</ele>
        <time>2017-04-09T09:30:20.000Z</time>
        <extensions>
          <gpxtpx:TrackPointExtension xmlns:gpxtpx="http://www.garmin.com/xmlschemas/TrackPointExtension/v1">
            <gpxtpx:hr>151</gpxtpx:hr>
          </gpxtpx:TrackPointExtension>
        </extensions>
      </trkpt>
      <trkpt lat="49.38539" lon="1.06048">
        <ele>75.47354888916</ele>
        <time>2017-04-09T09:30:23.000Z</time>
      </trkpt>
      <trkpt lat="49.38551" lon="1.06043">
        <ele>75.293525695801</ele>
        <time>2017-04-09T09:30:25.000Z</time>
      </trkpt>
      <trkpt lat="49.38573" lon="1.06036">
        <ele>74.910133361816</ele>
        <time>2017-04-09T09:30:28.000Z</time>
      </trkpt>
      <trkpt lat="49.38597" lon="1.06033">
        <ele>74.403198242188</ele>
        <time>2017-04-09T09:30:31.000Z</time>
      </trkpt>
      <trkpt lat="49.38612" lon="1.06027">
        <ele>73.992553710938</ele>
        <time>2017-04-09T09:30:33.000Z</time>
      </trkpt>
      <trkpt lat="49.38632" lon="1.06023">
        <ele>73.725700378418</ele>
        <time>2017-04-09T09:30:36.000Z</time>
      </trkpt>
      <trkpt lat="49.3865" lon="1.06016">
        <ele>73.56916809082</ele>
        <time>2017-04-09T09:30:39.000Z</time>
      </trkpt>
      <trkpt lat="49.38669" lon="1.06008">
        <ele>73.601501464844</ele>
        <time>2017-04-09T09:30:42.000Z</time>
      </trkpt>
      <trkpt lat="49.38681" lon="1.06003">
        <ele>73.708656311035</ele>
        <time>2017-04-09T09:30:44.000Z</time>
      </trkpt>
      <trkpt lat="49.38696" lon="1.05998">
        <ele>73.804496765137</ele>
        <time>2017-04-09T09:30:47.000Z</time>
      </trkpt>
      <trkpt lat="49.38708" lon="1.05996">
        <ele>73.874755859375</ele>
        <time>2017-04-09T09:30:49.000Z</time>
      </trkpt>
      <trkpt lat="49.38728" lon="1.05992">
        <ele>73.901145935059</ele>
        <time>2017-04-09T09:30:52.000Z</time>
      </trkpt>
      <trkpt lat="49.38742" lon="1.05986">
        <ele>73.876991271973</ele>
        <time>2017-04-09T09:30:54.000Z</time>
      </trkpt>
      <trkpt lat="49.38758" lon="1.05983">
        <ele>73.812530517578</ele>
        <time>2017-04-09T09:30:57.000Z</time>
      </trkpt>
      <trkpt lat="49.38768" lon="1.05976">
        <ele>73.710220336914</ele>
        <time>2017-04-09T09:30:59.000Z</time>
      </trkpt>
      <trkpt lat="49.38779" lon="1.05974">
        <ele>73.573204040527</ele>
        <time>2017-04-09T09:31:01.000Z</time>
        <extensions>
          <gpxtpx:TrackPointExtension xmlns:gpxtpx="http://www.garmin.com/xmlschemas/TrackPointExtension/v1">
            <gpxtpx:hr>148</gpxtpx:hr>
          </gpxtpx:TrackPointExtension>
        </extensions>
      </trkpt>
      <trkpt lat="49.38799" lon="1.05969">
        <ele>73.386985778809</ele>
        <time>2017-04-09T09:31:04.000Z</time>
        <extensions>
          <gpxtpx:TrackPointExtension xmlns:gpxtpx="http://www.garmin.com/xmlschemas/TrackPointExtension/v1">
            <gpxtpx:hr>147</gpxtpx:hr>
          </gpxtpx:TrackPointExtension>
        </extensions>
      </trkpt>
      <trkpt lat="49.3882" lon="1.05964">
        <ele>73.152420043945</ele>
        <time>2017-04-09T09:31:07.000Z</time>
        <extensions>
          <gpxtpx:TrackPointExtension xmlns:gpxtpx="http://www.garmin.com/xmlschemas/TrackPointExtension/v1">
            <gpxtpx:hr>143</gpxtpx:hr>
          </gpxtpx:TrackPointExtension>
        </extensions>
      </trkpt>
      <trkpt lat="49.38835" lon="1.05963">
        <ele>72.909782409668</ele>
        <time>2017-04-09T09:31:10.000Z</time>
        <extensions>
          <gpxtpx:TrackPointExtension xmlns:gpxtpx="http://www.garmin.com/xmlschemas/TrackPointExtension/v1">
            <gpxtpx:hr>144</gpxtpx:hr>
          </gpxtpx:TrackPointExtension>
        </extensions>
      </trkpt>
      <trkpt lat="49.38844" lon="1.05963">
        <ele>72.703315734863</ele>
        <time>2017-04-09T09:31:12.000Z</time>
        <extensions>
          <gpxtpx:TrackPointExtension xmlns:gpxtpx="http://www.garmin.com/xmlschemas/TrackPointExtension/v1">
            <gpxtpx:hr>146</gpxtpx:hr>
          </gpxtpx:TrackPointExtension>
        </extensions>
      </trkpt>
      <trkpt lat="49.3886" lon="1.05959">
        <ele>72.527328491211</ele>
        <time>2017-04-09T09:31:15.000Z</time>
        <extensions>
          <gpxtpx:TrackPointExtension xmlns:gpxtpx="http://www.garmin.com/xmlschemas/TrackPointExtension/v1">
            <gpxtpx:hr>145</gpxtpx:hr>
          </gpxtpx:TrackPointExtension>
        </extensions>
      </trkpt>
      <trkpt lat="49.38875" lon="1.05955">
        <ele>72.411087036133</ele>
        <time>2017-04-09T09:31:18.000Z</time>
        <extensions>
          <gpxtpx:TrackPointExtension xmlns:gpxtpx="http://www.garmin.com/xmlschemas/TrackPointExtension/v1">
            <gpxtpx:hr>145</gpxtpx:hr>
          </gpxtpx:TrackPointExtension>
        </extensions>
      </trkpt>
      <trkpt lat="49.38895" lon="1.05951">
        <ele>72.343719482422</ele>
        <time>2017-04-09T09:31:21.000Z</time>
        <extensions>
          <gpxtpx:TrackPointExtension xmlns:gpxtpx="http://www.garmin.com/xmlschemas/TrackPointExtension/v1">
            <gpxtpx:hr>149</gpxtpx:hr>
          </gpxtpx:TrackPointExtension>
        </extensions>
      </trkpt>
      <trkpt lat="49.38907" lon="1.05948">
        <ele>72.316734313965</ele>
        <time>2017-04-09T09:31:23.000Z</time>
      </trkpt>
      <trkpt lat="49.38927" lon="1.05943">
        <ele>72.348594665527</ele>
        <time>2017-04-09T09:31:26.000Z</time>
      </trkpt>
      <trkpt lat="49.38943" lon="1.05937">
        <ele>72.465484619141</ele>
        <time>2017-04-09T09:31:29.000Z</time>
      </trkpt>
      <trkpt lat="49.38953" lon="1.05931">
        <ele>72.634887695312</ele>
        <time>2017-04-09T09:31:31.000Z</time>
      </trkpt>
      <trkpt lat="49.38968" lon="1.05926">
        <ele>72.870048522949</ele>
        <time>2017-04-09T09:31:34.000Z</time>
      </trkpt>
      <trkpt lat="49.38981" lon="1.05924">
        <ele>73.144714355469</ele>
        <time>2017-04-09T09:31:36.000Z</time>
      </trkpt>
      <trkpt lat="49.38993" lon="1.05922">
        <ele>73.407104492188</ele>
        <time>2017-04-09T09:31:38.000Z</time>
      </trkpt>
      <trkpt lat="49.39011" lon="1.05918">
        <ele>73.570922851562</ele>
        <time>2017-04-09T09:31:41.000Z</time>
      </trkpt>
      <trkpt lat="49.39022" lon="1.05915">
        <ele>73.638023376465</ele>
        <time>2017-04-09T09:31:43.000Z</time>
      </trkpt>
      <trkpt lat="49.3904" lon="1.05909">
        <ele>73.57063293457</ele>
        <time>2017-04-09T09:31:46.000Z</time>
      </trkpt>
      <trkpt lat="49.39058" lon="1.05904">
        <ele>73.389503479004</ele>
        <time>2017-04-09T09:31:49.000Z</time>
      </trkpt>
      <trkpt lat="49.39066" lon="1.05902">
        <ele>73.137619018555</ele>
        <time>2017-04-09T09:31:51.000Z</time>
      </trkpt>
      <trkpt lat="49.39085" lon="1.05895">
        <ele>72.832313537598</ele>
        <time>2017-04-09T09:31:54.000Z</time>
      </trkpt>
      <trkpt lat="49.39096" lon="1.05892">
        <ele>72.51643371582</ele>
        <time>2017-04-09T09:31:56.000Z</time>
      </trkpt>
      <trkpt lat="49.39117" lon="1.05885">
        <ele>72.14289855957</ele>
        <time>2017-04-09T09:31:59.000Z</time>
      </trkpt>
      <trkpt lat="49.39132" lon="1.05881">
        <ele>71.744476318359</ele>
        <time>2017-04-09T09:32:01.000Z</time>
        <extensions>
          <gpxtpx:TrackPointExtension xmlns:gpxtpx="http://www.garmin.com/xmlschemas/TrackPointExtension/v1">
            <gpxtpx:hr>150</gpxtpx:hr>
          </gpxtpx:TrackPointExtension>
        </extensions>
      </trkpt>
      <trkpt lat="49.39156" lon="1.05875">
        <ele>71.202781677246</ele>
        <time>2017-04-09T09:32:04.000Z</time>
        <extensions>
          <gpxtpx:TrackPointExtension xmlns:gpxtpx="http://www.garmin.com/xmlschemas/TrackPointExtension/v1">
            <gpxtpx:hr>148</gpxtpx:hr>
          </gpxtpx:TrackPointExtension>
        </extensions>
      </trkpt>
      <trkpt lat="49.39177" lon="1.05868">
        <ele>70.603584289551</ele>
        <time>2017-04-09T09:32:07.000Z</time>
        <extensions>
          <gpxtpx:TrackPointExtension xmlns:gpxtpx="http://www.garmin.com/xmlschemas/TrackPointExtension/v1">
            <gpxtpx:hr>147</gpxtpx:hr>
          </gpxtpx:TrackPointExtension>
        </extensions>
      </trkpt>
      <trkpt lat="49.3919" lon="1.05865">
        <ele>69.999885559082</ele>
        <time>2017-04-09T09:32:09.000Z</time>
      </trkpt>
      <trkpt lat="49.39204" lon="1.0587">
        <ele>69.470443725586</ele>
        <time>2017-04-09T09:32:11.000Z</time>
      </trkpt>
      <trkpt lat="49.39223" lon="1.05886">
        <ele>68.937767028809</ele>
        <time>2017-04-09T09:32:14.000Z</time>
        <extensions>
          <gpxtpx:TrackPointExtension xmlns:gpxtpx="http://www.garmin.com/xmlschemas/TrackPointExtension/v1">
            <gpxtpx:hr>139</gpxtpx:hr>
          </gpxtpx:TrackPointExtension>
        </extensions>
      </trkpt>
      <trkpt lat="49.39238" lon="1.05903">
        <ele>68.470199584961</ele>
        <time>2017-04-09T09:32:17.000Z</time>
        <extensions>
          <gpxtpx:TrackPointExtension xmlns:gpxtpx="http://www.garmin.com/xmlschemas/TrackPointExtension/v1">
            <gpxtpx:hr>138</gpxtpx:hr>
          </gpxtpx:TrackPointExtension>
        </extensions>
      </trkpt>
      <trkpt lat="49.39238" lon="1.05931">
        <ele>68.142723083496</ele>
        <time>2017-04-09T09:32:20.000Z</time>
      </trkpt>
      <trkpt lat="49.39237" lon="1.0595">
        <ele>67.924453735352</ele>
        <time>2017-04-09T09:32:22.000Z</time>
      </trkpt>
      <trkpt lat="49.39234" lon="1.05977">
        <ele>67.834426879883</ele>
        <time>2017-04-09T09:32:25.000Z</time>
      </trkpt>
      <trkpt lat="49.39233" lon="1.06003">
        <ele>67.886405944824</ele>
        <time>2017-04-09T09:32:28.000Z</time>
      </trkpt>
      <trkpt lat="49.39233" lon="1.06021">
        <ele>68.018974304199</ele>
        <time>2017-04-09T09:32:30.000Z</time>
      </trkpt>
      <trkpt lat="49.39231" lon="1.06038">
        <ele>68.128234863281</ele>
        <time>2017-04-09T09:32:32.000Z</time>
      </trkpt>
      <trkpt lat="49.39241" lon="1.06057">
        <ele>68.089378356934</ele>
        <time>2017-04-09T09:32:35.000Z</time>
      </trkpt>
      <trkpt lat="49.39252" lon="1.06058">
        <ele>67.916542053223</ele>
        <time>2017-04-09T09:32:37.000Z</time>
      </trkpt>
      <trkpt lat="49.3927" lon="1.06059">
        <ele>67.67253112793</ele>
        <time>2017-04-09T09:32:40.000Z</time>
      </trkpt>
      <trkpt lat="49.39283" lon="1.06055">
        <ele>67.445327758789</ele>
        <time>2017-04-09T09:32:42.000Z</time>
      </trkpt>
      <trkpt lat="49.39294" lon="1.0605">
        <ele>67.217086791992</ele>
        <time>2017-04-09T09:32:44.000Z</time>
      </trkpt>
      <trkpt lat="49.39312" lon="1.06047">
        <ele>67.055099487305</ele>
        <time>2017-04-09T09:32:47.000Z</time>
      </trkpt>
      <trkpt lat="49.39321" lon="1.0605">
        <ele>66.940979003906</ele>
        <time>2017-04-09T09:32:50.000Z</time>
      </trkpt>
      <trkpt lat="49.39327" lon="1.06052">
        <ele>66.847579956055</ele>
        <time>2017-04-09T09:32:52.000Z</time>
      </trkpt>
      <trkpt lat="49.39339" lon="1.06062">
        <ele>66.768836975098</ele>
        <time>2017-04-09T09:32:55.000Z</time>
      </trkpt>
      <trkpt lat="49.39352" lon="1.06081">
        <ele>66.72395324707</ele>
        <time>2017-04-09T09:32:58.000Z</time>
      </trkpt>
      <trkpt lat="49.39361" lon="1.06095">
        <ele>66.688621520996</ele>
        <time>2017-04-09T09:33:00.000Z</time>
        <extensions>
          <gpxtpx:TrackPointExtension xmlns:gpxtpx="http://www.garmin.com/xmlschemas/TrackPointExtension/v1">
            <gpxtpx:hr>139</gpxtpx:hr>
          </gpxtpx:TrackPointExtension>
        </extensions>
      </trkpt>
      <trkpt lat="49.39369" lon="1.06108">
        <ele>66.633918762207</ele>
        <time>2017-04-09T09:33:02.000Z</time>
        <extensions>
          <gpxtpx:TrackPointExtension xmlns:gpxtpx="http://www.garmin.com/xmlschemas/TrackPointExtension/v1">
            <gpxtpx:hr>138</gpxtpx:hr>
          </gpxtpx:TrackPointExtension>
        </extensions>
      </trkpt>
      <trkpt lat="49.39378" lon="1.06122">
        <ele>66.540504455566</ele>
        <time>2017-04-09T09:33:04.000Z</time>
        <extensions>
          <gpxtpx:TrackPointExtension xmlns:gpxtpx="http://www.garmin.com/xmlschemas/TrackPointExtension/v1">
            <gpxtpx:hr>133</gpxtpx:hr>
          </gpxtpx:TrackPointExtension>
        </extensions>
      </trkpt>
      <trkpt lat="49.39388" lon="1.06136">
        <ele>66.392578125</ele>
        <time>2017-04-09T09:33:06.000Z</time>
        <extensions>
          <gpxtpx:TrackPointExtension xmlns:gpxtpx="http://www.garmin.com/xmlschemas/TrackPointExtension/v1">
            <gpxtpx:hr>135</gpxtpx:hr>
          </gpxtpx:TrackPointExtension>
        </extensions>
      </trkpt>
      <trkpt lat="49.39397" lon="1.06151">
        <ele>66.167900085449</ele>
        <time>2017-04-09T09:33:08.000Z</time>
        <extensions>
          <gpxtpx:TrackPointExtension xmlns:gpxtpx="http://www.garmin.com/xmlschemas/TrackPointExtension/v1">
            <gpxtpx:hr>131</gpxtpx:hr>
          </gpxtpx:TrackPointExtension>
        </extensions>
      </trkpt>
      <trkpt lat="49.39413" lon="1.06165">
        <ele>65.863952636719</ele>
        <time>2017-04-09T09:33:11.000Z</time>
        <extensions>
          <gpxtpx:TrackPointExtension xmlns:gpxtpx="http://www.garmin.com/xmlschemas/TrackPointExtension/v1">
            <gpxtpx:hr>135</gpxtpx:hr>
          </gpxtpx:TrackPointExtension>
        </extensions>
      </trkpt>
      <trkpt lat="49.39426" lon="1.06172">
        <ele>65.546180725098</ele>
        <time>2017-04-09T09:33:13.000Z</time>
        <extensions>
          <gpxtpx:TrackPointExtension xmlns:gpxtpx="http://www.garmin.com/xmlschemas/TrackPointExtension/v1">
            <gpxtpx:hr>137</gpxtpx:hr>
          </gpxtpx:TrackPointExtension>
        </extensions>
      </trkpt>
      <trkpt lat="49.39437" lon="1.06181">
        <ele>65.241287231445</ele>
        <time>2017-04-09T09:33:15.000Z</time>
        <extensions>
          <gpxtpx:TrackPointExtension xmlns:gpxtpx="http://www.garmin.com/xmlschemas/TrackPointExtension/v1">
            <gpxtpx:hr>135</gpxtpx:hr>
          </gpxtpx:TrackPointExtension>
        </extensions>
      </trkpt>
      <trkpt lat="49.39449" lon="1.06187">
        <ele>64.950302124023</ele>
        <time>2017-04-09T09:33:17.000Z</time>
      </trkpt>
      <trkpt lat="49.39465" lon="1.06187">
        <ele>64.641494750977</ele>
        <time>2017-04-09T09:33:20.000Z</time>
      </trkpt>
      <trkpt lat="49.39474" lon="1.06178">
        <ele>64.371643066406</ele>
        <time>2017-04-09T09:33:22.000Z</time>
      </trkpt>
      <trkpt lat="49.3949" lon="1.06164">
        <ele>64.059387207031</ele>
        <time>2017-04-09T09:33:25.000Z</time>
      </trkpt>
      <trkpt lat="49.39509" lon="1.06161">
        <ele>63.721992492676</ele>
        <time>2017-04-09T09:33:28.000Z</time>
      </trkpt>
      <trkpt lat="49.39527" lon="1.06178">
        <ele>63.361064910889</ele>
        <time>2017-04-09T09:33:31.000Z</time>
      </trkpt>
      <trkpt lat="49.3954" lon="1.06176">
        <ele>63.039619445801</ele>
        <time>2017-04-09T09:33:33.000Z</time>
      </trkpt>
      <trkpt lat="49.39556" lon="1.0618">
        <ele>62.722511291504</ele>
        <time>2017-04-09T09:33:36.000Z</time>
      </trkpt>
      <trkpt lat="49.3956" lon="1.06204">
        <ele>62.413536071777</ele>
        <time>2017-04-09T09:33:39.000Z</time>
      </trkpt>
      <trkpt lat="49.39562" lon="1.06222">
        <ele>62.099662780762</ele>
        <time>2017-04-09T09:33:41.000Z</time>
      </trkpt>
      <trkpt lat="49.39569" lon="1.06248">
        <ele>61.71134185791</ele>
        <time>2017-04-09T09:33:44.000Z</time>
      </trkpt>
      <trkpt lat="49.39573" lon="1.06272">
        <ele>61.364593505859</ele>
        <time>2017-04-09T09:33:47.000Z</time>
      </trkpt>
      <trkpt lat="49.39575" lon="1.06287">
        <ele>61.091045379639</ele>
        <time>2017-04-09T09:33:49.000Z</time>
      </trkpt>
      <trkpt lat="49.39585" lon="1.06299">
        <ele>60.862445831299</ele>
        <time>2017-04-09T09:33:52.000Z</time>
      </trkpt>
      <trkpt lat="49.39595" lon="1.06296">
        <ele>60.700664520264</ele>
        <time>2017-04-09T09:33:54.000Z</time>
      </trkpt>
      <trkpt lat="49.39603" lon="1.06282">
        <ele>60.647228240967</ele>
        <time>2017-04-09T09:33:56.000Z</time>
      </trkpt>
      <trkpt lat="49.39613" lon="1.06256">
        <ele>60.519702911377</ele>
        <time>2017-04-09T09:33:59.000Z</time>
      </trkpt>
      <trkpt lat="49.39624" lon="1.06241">
        <ele>60.402252197266</ele>
        <time>2017-04-09T09:34:01.000Z</time>
        <extensions>
          <gpxtpx:TrackPointExtension xmlns:gpxtpx="http://www.garmin.com/xmlschemas/TrackPointExtension/v1">
            <gpxtpx:hr>136</gpxtpx:hr>
          </gpxtpx:TrackPointExtension>
        </extensions>
      </trkpt>
      <trkpt lat="49.39635" lon="1.06226">
        <ele>60.397247314453</ele>
        <time>2017-04-09T09:34:03.000Z</time>
        <extensions>
          <gpxtpx:TrackPointExtension xmlns:gpxtpx="http://www.garmin.com/xmlschemas/TrackPointExtension/v1">
            <gpxtpx:hr>135</gpxtpx:hr>
          </gpxtpx:TrackPointExtension>
        </extensions>
      </trkpt>
      <trkpt lat="49.39652" lon="1.06202">
        <ele>60.504383087158</ele>
        <time>2017-04-09T09:34:06.000Z</time>
        <extensions>
          <gpxtpx:TrackPointExtension xmlns:gpxtpx="http://www.garmin.com/xmlschemas/TrackPointExtension/v1">
            <gpxtpx:hr>133</gpxtpx:hr>
          </gpxtpx:TrackPointExtension>
        </extensions>
      </trkpt>
      <trkpt lat="49.39666" lon="1.06183">
        <ele>60.734703063965</ele>
        <time>2017-04-09T09:34:08.000Z</time>
        <extensions>
          <gpxtpx:TrackPointExtension xmlns:gpxtpx="http://www.garmin.com/xmlschemas/TrackPointExtension/v1">
            <gpxtpx:hr>137</gpxtpx:hr>
          </gpxtpx:TrackPointExtension>
        </extensions>
      </trkpt>
      <trkpt lat="49.39683" lon="1.06152">
        <ele>61.109230041504</ele>
        <time>2017-04-09T09:34:11.000Z</time>
        <extensions>
          <gpxtpx:TrackPointExtension xmlns:gpxtpx="http://www.garmin.com/xmlschemas/TrackPointExtension/v1">
            <gpxtpx:hr>138</gpxtpx:hr>
          </gpxtpx:TrackPointExtension>
        </extensions>
      </trkpt>
      <trkpt lat="49.39695" lon="1.06132">
        <ele>61.483623504639</ele>
        <time>2017-04-09T09:34:13.000Z</time>
        <extensions>
          <gpxtpx:TrackPointExtension xmlns:gpxtpx="http://www.garmin.com/xmlschemas/TrackPointExtension/v1">
            <gpxtpx:hr>141</gpxtpx:hr>
          </gpxtpx:TrackPointExtension>
        </extensions>
      </trkpt>
      <trkpt lat="49.39716" lon="1.06107">
        <ele>61.792621612549</ele>
        <time>2017-04-09T09:34:16.000Z</time>
        <extensions>
          <gpxtpx:TrackPointExtension xmlns:gpxtpx="http://www.garmin.com/xmlschemas/TrackPointExtension/v1">
            <gpxtpx:hr>145</gpxtpx:hr>
          </gpxtpx:TrackPointExtension>
        </extensions>
      </trkpt>
      <trkpt lat="49.39732" lon="1.0608">
        <ele>61.992828369141</ele>
        <time>2017-04-09T09:34:19.000Z</time>
      </trkpt>
      <trkpt lat="49.3974" lon="1.06062">
        <ele>62.030067443848</ele>
        <time>2017-04-09T09:34:21.000Z</time>
        <extensions>
          <gpxtpx:TrackPointExtension xmlns:gpxtpx="http://www.garmin.com/xmlschemas/TrackPointExtension/v1">
            <gpxtpx:hr>148</gpxtpx:hr>
          </gpxtpx:TrackPointExtension>
        </extensions>
      </trkpt>
      <trkpt lat="49.39752" lon="1.06041">
        <ele>61.926952362061</ele>
        <time>2017-04-09T09:34:24.000Z</time>
      </trkpt>
      <trkpt lat="49.39762" lon="1.06034">
        <ele>61.750328063965</ele>
        <time>2017-04-09T09:34:26.000Z</time>
      </trkpt>
      <trkpt lat="49.39774" lon="1.06014">
        <ele>61.491569519043</ele>
        <time>2017-04-09T09:34:29.000Z</time>
      </trkpt>
      <trkpt lat="49.39772" lon="1.05996">
        <ele>61.207252502441</ele>
        <time>2017-04-09T09:34:31.000Z</time>
      </trkpt>
      <trkpt lat="49.39755" lon="1.05983">
        <ele>61.033985137939</ele>
        <time>2017-04-09T09:34:34.000Z</time>
      </trkpt>
      <trkpt lat="49.39735" lon="1.0599">
        <ele>60.910480499268</ele>
        <time>2017-04-09T09:34:37.000Z</time>
      </trkpt>
      <trkpt lat="49.39722" lon="1.05995">
        <ele>60.80908203125</ele>
        <time>2017-04-09T09:34:39.000Z</time>
      </trkpt>
      <trkpt lat="49.39711" lon="1.06003">
        <ele>60.762870788574</ele>
        <time>2017-04-09T09:34:41.000Z</time>
      </trkpt>
      <trkpt lat="49.397" lon="1.0601">
        <ele>60.747245788574</ele>
        <time>2017-04-09T09:34:43.000Z</time>
      </trkpt>
      <trkpt lat="49.3969" lon="1.06016">
        <ele>60.70703125</ele>
        <time>2017-04-09T09:34:45.000Z</time>
      </trkpt>
      <trkpt lat="49.39675" lon="1.06028">
        <ele>60.74991607666</ele>
        <time>2017-04-09T09:34:48.000Z</time>
      </trkpt>
      <trkpt lat="49.39665" lon="1.06029">
        <ele>60.820129394531</ele>
        <time>2017-04-09T09:34:51.000Z</time>
      </trkpt>
      <trkpt lat="49.39658" lon="1.06016">
        <ele>60.838111877441</ele>
        <time>2017-04-09T09:34:54.000Z</time>
      </trkpt>
      <trkpt lat="49.3965" lon="1.05998">
        <ele>60.791557312012</ele>
        <time>2017-04-09T09:34:57.000Z</time>
      </trkpt>
      <trkpt lat="49.39638" lon="1.0599">
        <ele>60.797618865967</ele>
        <time>2017-04-09T09:35:00.000Z</time>
        <extensions>
          <gpxtpx:TrackPointExtension xmlns:gpxtpx="http://www.garmin.com/xmlschemas/TrackPointExtension/v1">
            <gpxtpx:hr>153</gpxtpx:hr>
          </gpxtpx:TrackPointExtension>
        </extensions>
      </trkpt>
      <trkpt lat="49.39633" lon="1.05987">
        <ele>60.766609191895</ele>
        <time>2017-04-09T09:35:03.000Z</time>
        <extensions>
          <gpxtpx:TrackPointExtension xmlns:gpxtpx="http://www.garmin.com/xmlschemas/TrackPointExtension/v1">
            <gpxtpx:hr>149</gpxtpx:hr>
          </gpxtpx:TrackPointExtension>
        </extensions>
      </trkpt>
      <trkpt lat="49.39635" lon="1.05984">
        <ele>60.736267089844</ele>
        <time>2017-04-09T09:35:05.000Z</time>
        <extensions>
          <gpxtpx:TrackPointExtension xmlns:gpxtpx="http://www.garmin.com/xmlschemas/TrackPointExtension/v1">
            <gpxtpx:hr>149</gpxtpx:hr>
          </gpxtpx:TrackPointExtension>
        </extensions>
      </trkpt>
      <trkpt lat="49.39643" lon="1.05986">
        <ele>60.733875274658</ele>
        <time>2017-04-09T09:35:08.000Z</time>
        <extensions>
          <gpxtpx:TrackPointExtension xmlns:gpxtpx="http://www.garmin.com/xmlschemas/TrackPointExtension/v1">
            <gpxtpx:hr>151</gpxtpx:hr>
          </gpxtpx:TrackPointExtension>
        </extensions>
      </trkpt>
      <trkpt lat="49.39651" lon="1.05991">
        <ele>60.741760253906</ele>
        <time>2017-04-09T09:35:10.000Z</time>
        <extensions>
          <gpxtpx:TrackPointExtension xmlns:gpxtpx="http://www.garmin.com/xmlschemas/TrackPointExtension/v1">
            <gpxtpx:hr>153</gpxtpx:hr>
          </gpxtpx:TrackPointExtension>
        </extensions>
      </trkpt>
      <trkpt lat="49.39665" lon="1.05997">
        <ele>60.603080749512</ele>
        <time>2017-04-09T09:35:13.000Z</time>
        <extensions>
          <gpxtpx:TrackPointExtension xmlns:gpxtpx="http://www.garmin.com/xmlschemas/TrackPointExtension/v1">
            <gpxtpx:hr>155</gpxtpx:hr>
          </gpxtpx:TrackPointExtension>
        </extensions>
      </trkpt>
      <trkpt lat="49.39674" lon="1.05993">
        <ele>60.455436706543</ele>
        <time>2017-04-09T09:35:15.000Z</time>
        <extensions>
          <gpxtpx:TrackPointExtension xmlns:gpxtpx="http://www.garmin.com/xmlschemas/TrackPointExtension/v1">
            <gpxtpx:hr>152</gpxtpx:hr>
          </gpxtpx:TrackPointExtension>
        </extensions>
      </trkpt>
      <trkpt lat="49.3968" lon="1.05981">
        <ele>60.347991943359</ele>
        <time>2017-04-09T09:35:17.000Z</time>
        <extensions>
          <gpxtpx:TrackPointExtension xmlns:gpxtpx="http://www.garmin.com/xmlschemas/TrackPointExtension/v1">
            <gpxtpx:hr>149</gpxtpx:hr>
          </gpxtpx:TrackPointExtension>
        </extensions>
      </trkpt>
      <trkpt lat="49.39686" lon="1.05957">
        <ele>60.336967468262</ele>
        <time>2017-04-09T09:35:20.000Z</time>
      </trkpt>
      <trkpt lat="49.39691" lon="1.05941">
        <ele>60.402648925781</ele>
        <time>2017-04-09T09:35:22.000Z</time>
      </trkpt>
      <trkpt lat="49.39697" lon="1.05914">
        <ele>60.591239929199</ele>
        <time>2017-04-09T09:35:25.000Z</time>
      </trkpt>
      <trkpt lat="49.39705" lon="1.05888">
        <ele>60.796409606934</ele>
        <time>2017-04-09T09:35:28.000Z</time>
      </trkpt>
      <trkpt lat="49.39711" lon="1.05862">
        <ele>60.98755645752</ele>
        <time>2017-04-09T09:35:31.000Z</time>
      </trkpt>
      <trkpt lat="49.39716" lon="1.05836">
        <ele>61.140758514404</ele>
        <time>2017-04-09T09:35:34.000Z</time>
      </trkpt>
      <trkpt lat="49.39721" lon="1.05819">
        <ele>61.242561340332</ele>
        <time>2017-04-09T09:35:36.000Z</time>
      </trkpt>
      <trkpt lat="49.39726" lon="1.05805">
        <ele>61.267265319824</ele>
        <time>2017-04-09T09:35:38.000Z</time>
      </trkpt>
      <trkpt lat="49.3973" lon="1.05787">
        <ele>61.220874786377</ele>
        <time>2017-04-09T09:35:40.000Z</time>
      </trkpt>
      <trkpt lat="49.39736" lon="1.05762">
        <ele>61.076393127441</ele>
        <time>2017-04-09T09:35:43.000Z</time>
      </trkpt>
      <trkpt lat="49.39742" lon="1.05738">
        <ele>60.873558044434</ele>
        <time>2017-04-09T09:35:46.000Z</time>
      </trkpt>
      <trkpt lat="49.39748" lon="1.05719">
        <ele>60.696876525879</ele>
        <time>2017-04-09T09:35:48.000Z</time>
      </trkpt>
      <trkpt lat="49.39753" lon="1.05703">
        <ele>60.566436767578</ele>
        <time>2017-04-09T09:35:50.000Z</time>
      </trkpt>
      <trkpt lat="49.39759" lon="1.05674">
        <ele>60.491352081299</ele>
        <time>2017-04-09T09:35:53.000Z</time>
      </trkpt>
      <trkpt lat="49.39766" lon="1.05645">
        <ele>60.4814453125</ele>
        <time>2017-04-09T09:35:56.000Z</time>
      </trkpt>
      <trkpt lat="49.39769" lon="1.05628">
        <ele>60.514129638672</ele>
        <time>2017-04-09T09:35:58.000Z</time>
      </trkpt>
      <trkpt lat="49.39772" lon="1.05609">
        <ele>60.542060852051</ele>
        <time>2017-04-09T09:36:00.000Z</time>
        <extensions>
          <gpxtpx:TrackPointExtension xmlns:gpxtpx="http://www.garmin.com/xmlschemas/TrackPointExtension/v1">
            <gpxtpx:hr>146</gpxtpx:hr>
          </gpxtpx:TrackPointExtension>
        </extensions>
      </trkpt>
      <trkpt lat="49.39778" lon="1.05582">
        <ele>60.576366424561</ele>
        <time>2017-04-09T09:36:03.000Z</time>
        <extensions>
          <gpxtpx:TrackPointExtension xmlns:gpxtpx="http://www.garmin.com/xmlschemas/TrackPointExtension/v1">
            <gpxtpx:hr>145</gpxtpx:hr>
          </gpxtpx:TrackPointExtension>
        </extensions>
      </trkpt>
      <trkpt lat="49.39782" lon="1.05563">
        <ele>60.582439422607</ele>
        <time>2017-04-09T09:36:05.000Z</time>
        <extensions>
          <gpxtpx:TrackPointExtension xmlns:gpxtpx="http://www.garmin.com/xmlschemas/TrackPointExtension/v1">
            <gpxtpx:hr>139</gpxtpx:hr>
          </gpxtpx:TrackPointExtension>
        </extensions>
      </trkpt>
      <trkpt lat="49.39786" lon="1.05546">
        <ele>60.588829040527</ele>
        <time>2017-04-09T09:36:07.000Z</time>
        <extensions>
          <gpxtpx:TrackPointExtension xmlns:gpxtpx="http://www.garmin.com/xmlschemas/TrackPointExtension/v1">
            <gpxtpx:hr>140</gpxtpx:hr>
          </gpxtpx:TrackPointExtension>
        </extensions>
      </trkpt>
      <trkpt lat="49.39793" lon="1.05522">
        <ele>60.578685760498</ele>
        <time>2017-04-09T09:36:10.000Z</time>
        <extensions>
          <gpxtpx:TrackPointExtension xmlns:gpxtpx="http://www.garmin.com/xmlschemas/TrackPointExtension/v1">
            <gpxtpx:hr>134</gpxtpx:hr>
          </gpxtpx:TrackPointExtension>
        </extensions>
      </trkpt>
      <trkpt lat="49.39793" lon="1.05506">
        <ele>60.5634765625</ele>
        <time>2017-04-09T09:36:12.000Z</time>
        <extensions>
          <gpxtpx:TrackPointExtension xmlns:gpxtpx="http://www.garmin.com/xmlschemas/TrackPointExtension/v1">
            <gpxtpx:hr>131</gpxtpx:hr>
          </gpxtpx:TrackPointExtension>
        </extensions>
      </trkpt>
      <trkpt lat="49.39784" lon="1.05485">
        <ele>60.5498046875</ele>
        <time>2017-04-09T09:36:15.000Z</time>
        <extensions>
          <gpxtpx:TrackPointExtension xmlns:gpxtpx="http://www.garmin.com/xmlschemas/TrackPointExtension/v1">
            <gpxtpx:hr>127</gpxtpx:hr>
          </gpxtpx:TrackPointExtension>
        </extensions>
      </trkpt>
      <trkpt lat="49.39776" lon="1.05471">
        <ele>60.564453125</ele>
        <time>2017-04-09T09:36:17.000Z</time>
        <extensions>
          <gpxtpx:TrackPointExtension xmlns:gpxtpx="http://www.garmin.com/xmlschemas/TrackPointExtension/v1">
            <gpxtpx:hr>128</gpxtpx:hr>
          </gpxtpx:TrackPointExtension>
        </extensions>
      </trkpt>
      <trkpt lat="49.39767" lon="1.05458">
        <ele>60.609375</ele>
        <time>2017-04-09T09:36:19.000Z</time>
        <extensions>
          <gpxtpx:TrackPointExtension xmlns:gpxtpx="http://www.garmin.com/xmlschemas/TrackPointExtension/v1">
            <gpxtpx:hr>133</gpxtpx:hr>
          </gpxtpx:TrackPointExtension>
        </extensions>
      </trkpt>
      <trkpt lat="49.3976" lon="1.05435">
        <ele>60.6865234375</ele>
        <time>2017-04-09T09:36:22.000Z</time>
      </trkpt>
      <trkpt lat="49.39766" lon="1.05405">
        <ele>60.647998809814</ele>
        <time>2017-04-09T09:36:25.000Z</time>
      </trkpt>
      <trkpt lat="49.39772" lon="1.05386">
        <ele>60.400341033936</ele>
        <time>2017-04-09T09:36:27.000Z</time>
      </trkpt>
      <trkpt lat="49.39776" lon="1.05367">
        <ele>59.963153839111</ele>
        <time>2017-04-09T09:36:29.000Z</time>
      </trkpt>
      <trkpt lat="49.39785" lon="1.0534">
        <ele>59.265525817871</ele>
        <time>2017-04-09T09:36:32.000Z</time>
      </trkpt>
      <trkpt lat="49.39794" lon="1.05309">
        <ele>58.431266784668</ele>
        <time>2017-04-09T09:36:35.000Z</time>
      </trkpt>
      <trkpt lat="49.39799" lon="1.05287">
        <ele>57.661613464355</ele>
        <time>2017-04-09T09:36:37.000Z</time>
      </trkpt>
      <trkpt lat="49.39803" lon="1.0525">
        <ele>56.990303039551</ele>
        <time>2017-04-09T09:36:40.000Z</time>
      </trkpt>
      <trkpt lat="49.39807" lon="1.05226">
        <ele>56.392784118652</ele>
        <time>2017-04-09T09:36:42.000Z</time>
      </trkpt>
      <trkpt lat="49.39811" lon="1.05189">
        <ele>55.876976013184</ele>
        <time>2017-04-09T09:36:45.000Z</time>
      </trkpt>
      <trkpt lat="49.39817" lon="1.05155">
        <ele>55.351245880127</ele>
        <time>2017-04-09T09:36:48.000Z</time>
      </trkpt>
      <trkpt lat="49.3982" lon="1.05132">
        <ele>54.825828552246</ele>
        <time>2017-04-09T09:36:50.000Z</time>
      </trkpt>
      <trkpt lat="49.39824" lon="1.05101">
        <ele>54.310546875</ele>
        <time>2017-04-09T09:36:53.000Z</time>
      </trkpt>
      <trkpt lat="49.39829" lon="1.05068">
        <ele>53.902660369873</ele>
        <time>2017-04-09T09:36:56.000Z</time>
      </trkpt>
      <trkpt lat="49.39832" lon="1.05047">
        <ele>53.738719940186</ele>
        <time>2017-04-09T09:36:58.000Z</time>
      </trkpt>
      <trkpt lat="49.39835" lon="1.05027">
        <ele>53.796485900879</ele>
        <time>2017-04-09T09:37:00.000Z</time>
        <extensions>
          <gpxtpx:TrackPointExtension xmlns:gpxtpx="http://www.garmin.com/xmlschemas/TrackPointExtension/v1">
            <gpxtpx:hr>137</gpxtpx:hr>
          </gpxtpx:TrackPointExtension>
        </extensions>
      </trkpt>
      <trkpt lat="49.39841" lon="1.04995">
        <ele>54.037220001221</ele>
        <time>2017-04-09T09:37:03.000Z</time>
        <extensions>
          <gpxtpx:TrackPointExtension xmlns:gpxtpx="http://www.garmin.com/xmlschemas/TrackPointExtension/v1">
            <gpxtpx:hr>136</gpxtpx:hr>
          </gpxtpx:TrackPointExtension>
        </extensions>
      </trkpt>
      <trkpt lat="49.39849" lon="1.04964">
        <ele>54.287670135498</ele>
        <time>2017-04-09T09:37:06.000Z</time>
        <extensions>
          <gpxtpx:TrackPointExtension xmlns:gpxtpx="http://www.garmin.com/xmlschemas/TrackPointExtension/v1">
            <gpxtpx:hr>134</gpxtpx:hr>
          </gpxtpx:TrackPointExtension>
        </extensions>
      </trkpt>
      <trkpt lat="49.39854" lon="1.04944">
        <ele>54.475250244141</ele>
        <time>2017-04-09T09:37:08.000Z</time>
        <extensions>
          <gpxtpx:TrackPointExtension xmlns:gpxtpx="http://www.garmin.com/xmlschemas/TrackPointExtension/v1">
            <gpxtpx:hr>136</gpxtpx:hr>
          </gpxtpx:TrackPointExtension>
        </extensions>
      </trkpt>
      <trkpt lat="49.39862" lon="1.04912">
        <ele>54.483055114746</ele>
        <time>2017-04-09T09:37:11.000Z</time>
        <extensions>
          <gpxtpx:TrackPointExtension xmlns:gpxtpx="http://www.garmin.com/xmlschemas/TrackPointExtension/v1">
            <gpxtpx:hr>140</gpxtpx:hr>
          </gpxtpx:TrackPointExtension>
        </extensions>
      </trkpt>
      <trkpt lat="49.3987" lon="1.04883">
        <ele>54.30152130127</ele>
        <time>2017-04-09T09:37:14.000Z</time>
        <extensions>
          <gpxtpx:TrackPointExtension xmlns:gpxtpx="http://www.garmin.com/xmlschemas/TrackPointExtension/v1">
            <gpxtpx:hr>141</gpxtpx:hr>
          </gpxtpx:TrackPointExtension>
        </extensions>
      </trkpt>
      <trkpt lat="49.39879" lon="1.04866">
        <ele>53.896984100342</ele>
        <time>2017-04-09T09:37:17.000Z</time>
        <extensions>
          <gpxtpx:TrackPointExtension xmlns:gpxtpx="http://www.garmin.com/xmlschemas/TrackPointExtension/v1">
            <gpxtpx:hr>140</gpxtpx:hr>
          </gpxtpx:TrackPointExtension>
        </extensions>
      </trkpt>
      <trkpt lat="49.39883" lon="1.04859">
        <ele>53.51021194458</ele>
        <time>2017-04-09T09:37:19.000Z</time>
      </trkpt>
      <trkpt lat="49.39884" lon="1.04842">
        <ele>53.102752685547</ele>
        <time>2017-04-09T09:37:22.000Z</time>
      </trkpt>
      <trkpt lat="49.39874" lon="1.04828">
        <ele>52.82816696167</ele>
        <time>2017-04-09T09:37:25.000Z</time>
      </trkpt>
      <trkpt lat="49.39864" lon="1.04812">
        <ele>52.748016357422</ele>
        <time>2017-04-09T09:37:28.000Z</time>
      </trkpt>
      <trkpt lat="49.39855" lon="1.04794">
        <ele>52.864524841309</ele>
        <time>2017-04-09T09:37:31.000Z</time>
      </trkpt>
      <trkpt lat="49.39847" lon="1.04782">
        <ele>53.121654510498</ele>
        <time>2017-04-09T09:37:33.000Z</time>
      </trkpt>
      <trkpt lat="49.39837" lon="1.0476">
        <ele>53.594367980957</ele>
        <time>2017-04-09T09:37:36.000Z</time>
      </trkpt>
      <trkpt lat="49.39831" lon="1.04744">
        <ele>54.066539764404</ele>
        <time>2017-04-09T09:37:38.000Z</time>
      </trkpt>
      <trkpt lat="49.39823" lon="1.0472">
        <ele>54.384086608887</ele>
        <time>2017-04-09T09:37:41.000Z</time>
      </trkpt>
      <trkpt lat="49.3982" lon="1.04707">
        <ele>54.564140319824</ele>
        <time>2017-04-09T09:37:43.000Z</time>
      </trkpt>
      <trkpt lat="49.39816" lon="1.0469">
        <ele>54.614418029785</ele>
        <time>2017-04-09T09:37:45.000Z</time>
      </trkpt>
      <trkpt lat="49.39808" lon="1.04663">
        <ele>54.461475372314</ele>
        <time>2017-04-09T09:37:48.000Z</time>
      </trkpt>
      <trkpt lat="49.39793" lon="1.04647">
        <ele>54.250690460205</ele>
        <time>2017-04-09T09:37:51.000Z</time>
      </trkpt>
      <trkpt lat="49.39777" lon="1.0463">
        <ele>54.093029022217</ele>
        <time>2017-04-09T09:37:54.000Z</time>
      </trkpt>
      <trkpt lat="49.39766" lon="1.04622">
        <ele>53.976593017578</ele>
        <time>2017-04-09T09:37:56.000Z</time>
      </trkpt>
      <trkpt lat="49.39748" lon="1.0461">
        <ele>53.925842285156</ele>
        <time>2017-04-09T09:37:59.000Z</time>
      </trkpt>
      <trkpt lat="49.39734" lon="1.0459">
        <ele>53.973350524902</ele>
        <time>2017-04-09T09:38:02.000Z</time>
        <extensions>
          <gpxtpx:TrackPointExtension xmlns:gpxtpx="http://www.garmin.com/xmlschemas/TrackPointExtension/v1">
            <gpxtpx:hr>143</gpxtpx:hr>
          </gpxtpx:TrackPointExtension>
        </extensions>
      </trkpt>
      <trkpt lat="49.39723" lon="1.04569">
        <ele>54.027229309082</ele>
        <time>2017-04-09T09:38:05.000Z</time>
        <extensions>
          <gpxtpx:TrackPointExtension xmlns:gpxtpx="http://www.garmin.com/xmlschemas/TrackPointExtension/v1">
            <gpxtpx:hr>140</gpxtpx:hr>
          </gpxtpx:TrackPointExtension>
        </extensions>
      </trkpt>
      <trkpt lat="49.3971" lon="1.04559">
        <ele>54.09415435791</ele>
        <time>2017-04-09T09:38:08.000Z</time>
        <extensions>
          <gpxtpx:TrackPointExtension xmlns:gpxtpx="http://www.garmin.com/xmlschemas/TrackPointExtension/v1">
            <gpxtpx:hr>141</gpxtpx:hr>
          </gpxtpx:TrackPointExtension>
        </extensions>
      </trkpt>
      <trkpt lat="49.39697" lon="1.04551">
        <ele>54.16361618042</ele>
        <time>2017-04-09T09:38:11.000Z</time>
        <extensions>
          <gpxtpx:TrackPointExtension xmlns:gpxtpx="http://www.garmin.com/xmlschemas/TrackPointExtension/v1">
            <gpxtpx:hr>139</gpxtpx:hr>
          </gpxtpx:TrackPointExtension>
        </extensions>
      </trkpt>
      <trkpt lat="49.3969" lon="1.04544">
        <ele>54.210559844971</ele>
        <time>2017-04-09T09:38:13.000Z</time>
        <extensions>
          <gpxtpx:TrackPointExtension xmlns:gpxtpx="http://www.garmin.com/xmlschemas/TrackPointExtension/v1">
            <gpxtpx:hr>136</gpxtpx:hr>
          </gpxtpx:TrackPointExtension>
        </extensions>
      </trkpt>
      <trkpt lat="49.39687" lon="1.04534">
        <ele>54.202564239502</ele>
        <time>2017-04-09T09:38:16.000Z</time>
        <extensions>
          <gpxtpx:TrackPointExtension xmlns:gpxtpx="http://www.garmin.com/xmlschemas/TrackPointExtension/v1">
            <gpxtpx:hr>132</gpxtpx:hr>
          </gpxtpx:TrackPointExtension>
        </extensions>
      </trkpt>
      <trkpt lat="49.39688" lon="1.04524">
        <ele>54.177600860596</ele>
        <time>2017-04-09T09:38:18.000Z</time>
        <extensions>
          <gpxtpx:TrackPointExtension xmlns:gpxtpx="http://www.garmin.com/xmlschemas/TrackPointExtension/v1">
            <gpxtpx:hr>124</gpxtpx:hr>
          </gpxtpx:TrackPointExtension>
        </extensions>
      </trkpt>
      <trkpt lat="49.39693" lon="1.045">
        <ele>54.073925018311</ele>
        <time>2017-04-09T09:38:21.000Z</time>
      </trkpt>
      <trkpt lat="49.39699" lon="1.0448">
        <ele>53.899475097656</ele>
        <time>2017-04-09T09:38:23.000Z</time>
      </trkpt>
      <trkpt lat="49.39706" lon="1.0445">
        <ele>53.632904052734</ele>
        <time>2017-04-09T09:38:26.000Z</time>
      </trkpt>
      <trkpt lat="49.39708" lon="1.04431">
        <ele>53.336170196533</ele>
        <time>2017-04-09T09:38:28.000Z</time>
      </trkpt>
      <trkpt lat="49.39712" lon="1.04413">
        <ele>53.003894805908</ele>
        <time>2017-04-09T09:38:30.000Z</time>
      </trkpt>
      <trkpt lat="49.39718" lon="1.04384">
        <ele>52.608253479004</ele>
        <time>2017-04-09T09:38:33.000Z</time>
      </trkpt>
      <trkpt lat="49.39721" lon="1.0436">
        <ele>52.171897888184</ele>
        <time>2017-04-09T09:38:36.000Z</time>
      </trkpt>
      <trkpt lat="49.39727" lon="1.04343">
        <ele>51.765068054199</ele>
        <time>2017-04-09T09:38:38.000Z</time>
      </trkpt>
      <trkpt lat="49.39735" lon="1.04331">
        <ele>51.382556915283</ele>
        <time>2017-04-09T09:38:40.000Z</time>
      </trkpt>
      <trkpt lat="49.39745" lon="1.04311">
        <ele>50.994068145752</ele>
        <time>2017-04-09T09:38:43.000Z</time>
      </trkpt>
      <trkpt lat="49.3975" lon="1.04294">
        <ele>50.666648864746</ele>
        <time>2017-04-09T09:38:45.000Z</time>
      </trkpt>
      <trkpt lat="49.39759" lon="1.04268">
        <ele>50.325752258301</ele>
        <time>2017-04-09T09:38:48.000Z</time>
      </trkpt>
      <trkpt lat="49.39764" lon="1.04246">
        <ele>49.95267868042</ele>
        <time>2017-04-09T09:38:50.000Z</time>
      </trkpt>
      <trkpt lat="49.39771" lon="1.04218">
        <ele>49.434978485107</ele>
        <time>2017-04-09T09:38:53.000Z</time>
      </trkpt>
      <trkpt lat="49.39775" lon="1.04207">
        <ele>48.931159973145</ele>
        <time>2017-04-09T09:38:55.000Z</time>
      </trkpt>
      <trkpt lat="49.39774" lon="1.04189">
        <ele>48.376979827881</ele>
        <time>2017-04-09T09:38:58.000Z</time>
      </trkpt>
      <trkpt lat="49.39768" lon="1.04179">
        <ele>47.845642089844</ele>
        <time>2017-04-09T09:39:00.000Z</time>
        <extensions>
          <gpxtpx:TrackPointExtension xmlns:gpxtpx="http://www.garmin.com/xmlschemas/TrackPointExtension/v1">
            <gpxtpx:hr>130</gpxtpx:hr>
          </gpxtpx:TrackPointExtension>
        </extensions>
      </trkpt>
      <trkpt lat="49.39763" lon="1.04165">
        <ele>47.287265777588</ele>
        <time>2017-04-09T09:39:02.000Z</time>
        <extensions>
          <gpxtpx:TrackPointExtension xmlns:gpxtpx="http://www.garmin.com/xmlschemas/TrackPointExtension/v1">
            <gpxtpx:hr>133</gpxtpx:hr>
          </gpxtpx:TrackPointExtension>
        </extensions>
      </trkpt>
      <trkpt lat="49.39759" lon="1.04138">
        <ele>46.669025421143</ele>
        <time>2017-04-09T09:39:05.000Z</time>
        <extensions>
          <gpxtpx:TrackPointExtension xmlns:gpxtpx="http://www.garmin.com/xmlschemas/TrackPointExtension/v1">
            <gpxtpx:hr>131</gpxtpx:hr>
          </gpxtpx:TrackPointExtension>
        </extensions>
      </trkpt>
      <trkpt lat="49.39758" lon="1.0411">
        <ele>45.878002166748</ele>
        <time>2017-04-09T09:39:08.000Z</time>
        <extensions>
          <gpxtpx:TrackPointExtension xmlns:gpxtpx="http://www.garmin.com/xmlschemas/TrackPointExtension/v1">
            <gpxtpx:hr>131</gpxtpx:hr>
          </gpxtpx:TrackPointExtension>
        </extensions>
      </trkpt>
      <trkpt lat="49.39756" lon="1.04082">
        <ele>45.00611114502</ele>
        <time>2017-04-09T09:39:11.000Z</time>
        <extensions>
          <gpxtpx:TrackPointExtension xmlns:gpxtpx="http://www.garmin.com/xmlschemas/TrackPointExtension/v1">
            <gpxtpx:hr>129</gpxtpx:hr>
          </gpxtpx:TrackPointExtension>
        </extensions>
      </trkpt>
      <trkpt lat="49.39748" lon="1.0405">
        <ele>44.25394821167</ele>
        <time>2017-04-09T09:39:14.000Z</time>
        <extensions>
          <gpxtpx:TrackPointExtension xmlns:gpxtpx="http://www.garmin.com/xmlschemas/TrackPointExtension/v1">
            <gpxtpx:hr>130</gpxtpx:hr>
          </gpxtpx:TrackPointExtension>
        </extensions>
      </trkpt>
      <trkpt lat="49.39745" lon="1.04015">
        <ele>43.660335540771</ele>
        <time>2017-04-09T09:39:17.000Z</time>
        <extensions>
          <gpxtpx:TrackPointExtension xmlns:gpxtpx="http://www.garmin.com/xmlschemas/TrackPointExtension/v1">
            <gpxtpx:hr>132</gpxtpx:hr>
          </gpxtpx:TrackPointExtension>
        </extensions>
      </trkpt>
      <trkpt lat="49.3974" lon="1.03998">
        <ele>43.320560455322</ele>
        <time>2017-04-09T09:39:19.000Z</time>
        <extensions>
          <gpxtpx:TrackPointExtension xmlns:gpxtpx="http://www.garmin.com/xmlschemas/TrackPointExtension/v1">
            <gpxtpx:hr>134</gpxtpx:hr>
          </gpxtpx:TrackPointExtension>
        </extensions>
      </trkpt>
      <trkpt lat="49.39746" lon="1.0398">
        <ele>42.989948272705</ele>
        <time>2017-04-09T09:39:21.000Z</time>
        <extensions>
          <gpxtpx:TrackPointExtension xmlns:gpxtpx="http://www.garmin.com/xmlschemas/TrackPointExtension/v1">
            <gpxtpx:hr>138</gpxtpx:hr>
          </gpxtpx:TrackPointExtension>
        </extensions>
      </trkpt>
      <trkpt lat="49.39753" lon="1.0395">
        <ele>42.4973487854</ele>
        <time>2017-04-09T09:39:24.000Z</time>
      </trkpt>
      <trkpt lat="49.39759" lon="1.03924">
        <ele>41.686012268066</ele>
        <time>2017-04-09T09:39:27.000Z</time>
      </trkpt>
      <trkpt lat="49.39763" lon="1.03897">
        <ele>40.645576477051</ele>
        <time>2017-04-09T09:39:30.000Z</time>
      </trkpt>
      <trkpt lat="49.39758" lon="1.03872">
        <ele>39.491947174072</ele>
        <time>2017-04-09T09:39:33.000Z</time>
      </trkpt>
      <trkpt lat="49.39756" lon="1.03856">
        <ele>38.498802185059</ele>
        <time>2017-04-09T09:39:35.000Z</time>
      </trkpt>
      <trkpt lat="49.39755" lon="1.03828">
        <ele>37.76978302002</ele>
        <time>2017-04-09T09:39:38.000Z</time>
      </trkpt>
      <trkpt lat="49.39751" lon="1.03812">
        <ele>37.362957000732</ele>
        <time>2017-04-09T09:39:40.000Z</time>
      </trkpt>
      <trkpt lat="49.39743" lon="1.03793">
        <ele>37.22420501709</ele>
        <time>2017-04-09T09:39:43.000Z</time>
      </trkpt>
      <trkpt lat="49.3974" lon="1.03779">
        <ele>37.196231842041</ele>
        <time>2017-04-09T09:39:45.000Z</time>
      </trkpt>
      <trkpt lat="49.39738" lon="1.03753">
        <ele>37.217758178711</ele>
        <time>2017-04-09T09:39:48.000Z</time>
      </trkpt>
      <trkpt lat="49.3973" lon="1.03724">
        <ele>37.232460021973</ele>
        <time>2017-04-09T09:39:51.000Z</time>
      </trkpt>
      <trkpt lat="49.3972" lon="1.03705">
        <ele>37.204242706299</ele>
        <time>2017-04-09T09:39:54.000Z</time>
      </trkpt>
      <trkpt lat="49.39715" lon="1.03695">
        <ele>37.094066619873</ele>
        <time>2017-04-09T09:39:56.000Z</time>
      </trkpt>
      <trkpt lat="49.3971" lon="1.03678">
        <ele>36.929794311523</ele>
        <time>2017-04-09T09:39:58.000Z</time>
      </trkpt>
      <trkpt lat="49.3971" lon="1.03651">
        <ele>36.683006286621</ele>
        <time>2017-04-09T09:40:01.000Z</time>
        <extensions>
          <gpxtpx:TrackPointExtension xmlns:gpxtpx="http://www.garmin.com/xmlschemas/TrackPointExtension/v1">
            <gpxtpx:hr>141</gpxtpx:hr>
          </gpxtpx:TrackPointExtension>
        </extensions>
      </trkpt>
      <trkpt lat="49.39711" lon="1.03629">
        <ele>36.486583709717</ele>
        <time>2017-04-09T09:40:04.000Z</time>
        <extensions>
          <gpxtpx:TrackPointExtension xmlns:gpxtpx="http://www.garmin.com/xmlschemas/TrackPointExtension/v1">
            <gpxtpx:hr>140</gpxtpx:hr>
          </gpxtpx:TrackPointExtension>
        </extensions>
      </trkpt>
      <trkpt lat="49.39712" lon="1.03615">
        <ele>36.263061523438</ele>
        <time>2017-04-09T09:40:06.000Z</time>
        <extensions>
          <gpxtpx:TrackPointExtension xmlns:gpxtpx="http://www.garmin.com/xmlschemas/TrackPointExtension/v1">
            <gpxtpx:hr>139</gpxtpx:hr>
          </gpxtpx:TrackPointExtension>
        </extensions>
      </trkpt>
      <trkpt lat="49.39718" lon="1.03601">
        <ele>35.961952209473</ele>
        <time>2017-04-09T09:40:09.000Z</time>
        <extensions>
          <gpxtpx:TrackPointExtension xmlns:gpxtpx="http://www.garmin.com/xmlschemas/TrackPointExtension/v1">
            <gpxtpx:hr>139</gpxtpx:hr>
          </gpxtpx:TrackPointExtension>
        </extensions>
      </trkpt>
      <trkpt lat="49.39726" lon="1.03604">
        <ele>35.631702423096</ele>
        <time>2017-04-09T09:40:11.000Z</time>
        <extensions>
          <gpxtpx:TrackPointExtension xmlns:gpxtpx="http://www.garmin.com/xmlschemas/TrackPointExtension/v1">
            <gpxtpx:hr>135</gpxtpx:hr>
          </gpxtpx:TrackPointExtension>
        </extensions>
      </trkpt>
      <trkpt lat="49.39734" lon="1.03608">
        <ele>35.326560974121</ele>
        <time>2017-04-09T09:40:13.000Z</time>
        <extensions>
          <gpxtpx:TrackPointExtension xmlns:gpxtpx="http://www.garmin.com/xmlschemas/TrackPointExtension/v1">
            <gpxtpx:hr>136</gpxtpx:hr>
          </gpxtpx:TrackPointExtension>
        </extensions>
      </trkpt>
      <trkpt lat="49.39743" lon="1.03607">
        <ele>35.002349853516</ele>
        <time>2017-04-09T09:40:15.000Z</time>
      </trkpt>
      <trkpt lat="49.39755" lon="1.03609">
        <ele>34.618202209473</ele>
        <time>2017-04-09T09:40:17.000Z</time>
      </trkpt>
      <trkpt lat="49.39772" lon="1.03607">
        <ele>34.181350708008</ele>
        <time>2017-04-09T09:40:20.000Z</time>
      </trkpt>
      <trkpt lat="49.39784" lon="1.03602">
        <ele>33.715751647949</ele>
        <time>2017-04-09T09:40:23.000Z</time>
      </trkpt>
      <trkpt lat="49.39784" lon="1.03591">
        <ele>33.329292297363</ele>
        <time>2017-04-09T09:40:26.000Z</time>
      </trkpt>
      <trkpt lat="49.39782" lon="1.0358">
        <ele>33.043495178223</ele>
        <time>2017-04-09T09:40:28.000Z</time>
      </trkpt>
      <trkpt lat="49.39776" lon="1.03568">
        <ele>32.908832550049</ele>
        <time>2017-04-09T09:40:31.000Z</time>
      </trkpt>
      <trkpt lat="49.39767" lon="1.0356">
        <ele>32.995639801025</ele>
        <time>2017-04-09T09:40:34.000Z</time>
        <extensions>
          <gpxtpx:TrackPointExtension xmlns:gpxtpx="http://www.garmin.com/xmlschemas/TrackPointExtension/v1">
            <gpxtpx:hr>141</gpxtpx:hr>
          </gpxtpx:TrackPointExtension>
        </extensions>
      </trkpt>
      <trkpt lat="49.39761" lon="1.03554">
        <ele>33.226818084717</ele>
        <time>2017-04-09T09:40:36.000Z</time>
        <extensions>
          <gpxtpx:TrackPointExtension xmlns:gpxtpx="http://www.garmin.com/xmlschemas/TrackPointExtension/v1">
            <gpxtpx:hr>140</gpxtpx:hr>
          </gpxtpx:TrackPointExtension>
        </extensions>
      </trkpt>
      <trkpt lat="49.39758" lon="1.03546">
        <ele>33.489540100098</ele>
        <time>2017-04-09T09:40:39.000Z</time>
        <extensions>
          <gpxtpx:TrackPointExtension xmlns:gpxtpx="http://www.garmin.com/xmlschemas/TrackPointExtension/v1">
            <gpxtpx:hr>139</gpxtpx:hr>
          </gpxtpx:TrackPointExtension>
        </extensions>
      </trkpt>
      <trkpt lat="49.39758" lon="1.03546">
        <ele>33.489540100098</ele>
        <time>2017-04-09T09:40:43.000Z</time>
        <extensions>
          <gpxtpx:TrackPointExtension xmlns:gpxtpx="http://www.garmin.com/xmlschemas/TrackPointExtension/v1">
            <gpxtpx:hr>139</gpxtpx:hr>
          </gpxtpx:TrackPointExtension>
        </extensions>
      </trkpt>
    </trkseg>
  </trk>
</gpx>